<?xml version="1.0" encoding="UTF-8" standalone="no" ?>
<gpx xmlns="http://www.topografix.com/GPX/1/1" xmlns:xsi="http://www.w3.org/2001/XMLSchema-instance" xsi:schemaLocation="http://www.topografix.com/GPX/1/1 http://www.topografix.com/GPX/1/1/gpx.xsd" version="1.1" creator="VisuGPX - https://www.visugpx.com">
  <metadata>
    <name>Eddimo Norvège à vélo 2019 Gambsheim à Morancé</name>
    <desc><![CDATA[Voir notre blog de voyage de Morancé France jusqu'au Cap Nord Norvège sur eddimo.wordpress.com]]></desc>
  </metadata>
  <trk>
    <name><![CDATA[GOTOES Export]]></name>
    <trkseg>
      <trkpt lat="48.68282" lon="7.87657">
        <ele>144.80000305176</ele>
        <time>2019-09-08T08:42:39Z</time>
      </trkpt>
      <trkpt lat="48.68282" lon="7.87662">
        <ele>144.60000610352</ele>
        <time>2019-09-08T08:42:51Z</time>
      </trkpt>
      <trkpt lat="48.68286" lon="7.87664">
        <ele>144.60000610352</ele>
        <time>2019-09-08T08:42:53Z</time>
      </trkpt>
      <trkpt lat="48.68299" lon="7.87661">
        <ele>144.80000305176</ele>
        <time>2019-09-08T08:42:58Z</time>
      </trkpt>
      <trkpt lat="48.68315" lon="7.87646">
        <ele>144.80000305176</ele>
        <time>2019-09-08T08:43:04Z</time>
      </trkpt>
      <trkpt lat="48.68325" lon="7.87624">
        <ele>145</ele>
        <time>2019-09-08T08:43:09Z</time>
      </trkpt>
      <trkpt lat="48.68327" lon="7.87594">
        <ele>145.19999694824</ele>
        <time>2019-09-08T08:43:15Z</time>
      </trkpt>
      <trkpt lat="48.68317" lon="7.87562">
        <ele>145.19999694824</ele>
        <time>2019-09-08T08:43:21Z</time>
      </trkpt>
      <trkpt lat="48.68309" lon="7.8754">
        <ele>145.19999694824</ele>
        <time>2019-09-08T08:43:25Z</time>
      </trkpt>
      <trkpt lat="48.68303" lon="7.87517">
        <ele>145.19999694824</ele>
        <time>2019-09-08T08:43:29Z</time>
      </trkpt>
      <trkpt lat="48.683" lon="7.87491">
        <ele>145.19999694824</ele>
        <time>2019-09-08T08:43:33Z</time>
      </trkpt>
      <trkpt lat="48.68301" lon="7.87479">
        <ele>145.19999694824</ele>
        <time>2019-09-08T08:43:35Z</time>
      </trkpt>
      <trkpt lat="48.68304" lon="7.87468">
        <ele>144.80000305176</ele>
        <time>2019-09-08T08:43:37Z</time>
      </trkpt>
      <trkpt lat="48.68313" lon="7.87456">
        <ele>144.80000305176</ele>
        <time>2019-09-08T08:43:40Z</time>
      </trkpt>
      <trkpt lat="48.68316" lon="7.87452">
        <ele>144.80000305176</ele>
        <time>2019-09-08T08:43:41Z</time>
      </trkpt>
      <trkpt lat="48.68333" lon="7.87441">
        <ele>145</ele>
        <time>2019-09-08T08:43:46Z</time>
      </trkpt>
      <trkpt lat="48.68365" lon="7.87421">
        <ele>145</ele>
        <time>2019-09-08T08:43:54Z</time>
      </trkpt>
      <trkpt lat="48.68383" lon="7.8742">
        <ele>145</ele>
        <time>2019-09-08T08:43:58Z</time>
      </trkpt>
      <trkpt lat="48.68391" lon="7.8742">
        <ele>144.80000305176</ele>
        <time>2019-09-08T08:44:00Z</time>
      </trkpt>
      <trkpt lat="48.68428" lon="7.87425">
        <ele>144.80000305176</ele>
        <time>2019-09-08T08:44:09Z</time>
      </trkpt>
      <trkpt lat="48.68457" lon="7.87428">
        <ele>145</ele>
        <time>2019-09-08T08:44:16Z</time>
      </trkpt>
      <trkpt lat="48.68491" lon="7.87427">
        <ele>145</ele>
        <time>2019-09-08T08:44:24Z</time>
      </trkpt>
      <trkpt lat="48.68524" lon="7.87431">
        <ele>145</ele>
        <time>2019-09-08T08:44:32Z</time>
      </trkpt>
      <trkpt lat="48.68542" lon="7.87451">
        <ele>145</ele>
        <time>2019-09-08T08:44:37Z</time>
      </trkpt>
      <trkpt lat="48.68547" lon="7.87462">
        <ele>144.80000305176</ele>
        <time>2019-09-08T08:44:39Z</time>
      </trkpt>
      <trkpt lat="48.6856" lon="7.8749">
        <ele>144.80000305176</ele>
        <time>2019-09-08T08:44:44Z</time>
      </trkpt>
      <trkpt lat="48.68579" lon="7.87528">
        <ele>144.60000610352</ele>
        <time>2019-09-08T08:44:51Z</time>
      </trkpt>
      <trkpt lat="48.68582" lon="7.87533">
        <ele>144.60000610352</ele>
        <time>2019-09-08T08:44:52Z</time>
      </trkpt>
      <trkpt lat="48.68587" lon="7.87558">
        <ele>144.39999389648</ele>
        <time>2019-09-08T08:44:56Z</time>
      </trkpt>
      <trkpt lat="48.68583" lon="7.8758">
        <ele>144.39999389648</ele>
        <time>2019-09-08T08:45:00Z</time>
      </trkpt>
      <trkpt lat="48.68581" lon="7.87584">
        <ele>144.19999694824</ele>
        <time>2019-09-08T08:45:04Z</time>
      </trkpt>
      <trkpt lat="48.68583" lon="7.8759">
        <ele>144.19999694824</ele>
        <time>2019-09-08T08:47:19Z</time>
      </trkpt>
      <trkpt lat="48.68583" lon="7.87597">
        <ele>144.19999694824</ele>
        <time>2019-09-08T08:47:21Z</time>
      </trkpt>
      <trkpt lat="48.6859" lon="7.87613">
        <ele>144.19999694824</ele>
        <time>2019-09-08T08:47:25Z</time>
      </trkpt>
      <trkpt lat="48.68606" lon="7.87621">
        <ele>144.19999694824</ele>
        <time>2019-09-08T08:47:30Z</time>
      </trkpt>
      <trkpt lat="48.68631" lon="7.87627">
        <ele>144.19999694824</ele>
        <time>2019-09-08T08:47:37Z</time>
      </trkpt>
      <trkpt lat="48.6866" lon="7.87625">
        <ele>144.39999389648</ele>
        <time>2019-09-08T08:47:44Z</time>
      </trkpt>
      <trkpt lat="48.68692" lon="7.87614">
        <ele>144.60000610352</ele>
        <time>2019-09-08T08:47:52Z</time>
      </trkpt>
      <trkpt lat="48.68705" lon="7.87601">
        <ele>144.60000610352</ele>
        <time>2019-09-08T08:47:56Z</time>
      </trkpt>
      <trkpt lat="48.68732" lon="7.87569">
        <ele>144.80000305176</ele>
        <time>2019-09-08T08:48:04Z</time>
      </trkpt>
      <trkpt lat="48.68745" lon="7.8755">
        <ele>145</ele>
        <time>2019-09-08T08:48:08Z</time>
      </trkpt>
      <trkpt lat="48.68756" lon="7.87536">
        <ele>145.19999694824</ele>
        <time>2019-09-08T08:48:11Z</time>
      </trkpt>
      <trkpt lat="48.68796" lon="7.8748">
        <ele>145.19999694824</ele>
        <time>2019-09-08T08:48:22Z</time>
      </trkpt>
      <trkpt lat="48.68813" lon="7.87456">
        <ele>145</ele>
        <time>2019-09-08T08:48:27Z</time>
      </trkpt>
      <trkpt lat="48.68816" lon="7.87444">
        <ele>145</ele>
        <time>2019-09-08T08:48:29Z</time>
      </trkpt>
      <trkpt lat="48.68815" lon="7.8742">
        <ele>145</ele>
        <time>2019-09-08T08:48:33Z</time>
      </trkpt>
      <trkpt lat="48.688" lon="7.87376">
        <ele>144.80000305176</ele>
        <time>2019-09-08T08:48:40Z</time>
      </trkpt>
      <trkpt lat="48.68791" lon="7.8736">
        <ele>144.60000610352</ele>
        <time>2019-09-08T08:48:43Z</time>
      </trkpt>
      <trkpt lat="48.68783" lon="7.87353">
        <ele>144.60000610352</ele>
        <time>2019-09-08T08:48:45Z</time>
      </trkpt>
      <trkpt lat="48.68761" lon="7.87329">
        <ele>144.39999389648</ele>
        <time>2019-09-08T08:48:51Z</time>
      </trkpt>
      <trkpt lat="48.68746" lon="7.87299">
        <ele>144.39999389648</ele>
        <time>2019-09-08T08:48:58Z</time>
      </trkpt>
      <trkpt lat="48.68723" lon="7.87263">
        <ele>144.39999389648</ele>
        <time>2019-09-08T08:49:06Z</time>
      </trkpt>
      <trkpt lat="48.68699" lon="7.87222">
        <ele>144.60000610352</ele>
        <time>2019-09-08T08:49:14Z</time>
      </trkpt>
      <trkpt lat="48.6869" lon="7.87207">
        <ele>144.60000610352</ele>
        <time>2019-09-08T08:49:17Z</time>
      </trkpt>
      <trkpt lat="48.68677" lon="7.87187">
        <ele>144.80000305176</ele>
        <time>2019-09-08T08:49:21Z</time>
      </trkpt>
      <trkpt lat="48.68667" lon="7.87174">
        <ele>145</ele>
        <time>2019-09-08T08:49:24Z</time>
      </trkpt>
      <trkpt lat="48.68663" lon="7.8717">
        <ele>145</ele>
        <time>2019-09-08T08:49:25Z</time>
      </trkpt>
      <trkpt lat="48.68653" lon="7.87159">
        <ele>145.19999694824</ele>
        <time>2019-09-08T08:49:28Z</time>
      </trkpt>
      <trkpt lat="48.68625" lon="7.87119">
        <ele>145.39999389648</ele>
        <time>2019-09-08T08:49:36Z</time>
      </trkpt>
      <trkpt lat="48.68601" lon="7.87086">
        <ele>145.39999389648</ele>
        <time>2019-09-08T08:49:43Z</time>
      </trkpt>
      <trkpt lat="48.68577" lon="7.87051">
        <ele>145.39999389648</ele>
        <time>2019-09-08T08:49:50Z</time>
      </trkpt>
      <trkpt lat="48.68562" lon="7.8704">
        <ele>145.19999694824</ele>
        <time>2019-09-08T08:49:54Z</time>
      </trkpt>
      <trkpt lat="48.68558" lon="7.87036">
        <ele>145.19999694824</ele>
        <time>2019-09-08T08:49:55Z</time>
      </trkpt>
      <trkpt lat="48.68543" lon="7.87007">
        <ele>145.19999694824</ele>
        <time>2019-09-08T08:50:00Z</time>
      </trkpt>
      <trkpt lat="48.6854" lon="7.87">
        <ele>145.19999694824</ele>
        <time>2019-09-08T08:50:01Z</time>
      </trkpt>
      <trkpt lat="48.6852" lon="7.86955">
        <ele>145</ele>
        <time>2019-09-08T08:50:08Z</time>
      </trkpt>
      <trkpt lat="48.68509" lon="7.8693">
        <ele>145</ele>
        <time>2019-09-08T08:50:12Z</time>
      </trkpt>
      <trkpt lat="48.68502" lon="7.86911">
        <ele>145</ele>
        <time>2019-09-08T08:50:15Z</time>
      </trkpt>
      <trkpt lat="48.68496" lon="7.86883">
        <ele>145</ele>
        <time>2019-09-08T08:50:19Z</time>
      </trkpt>
      <trkpt lat="48.68495" lon="7.86862">
        <ele>145.19999694824</ele>
        <time>2019-09-08T08:50:22Z</time>
      </trkpt>
      <trkpt lat="48.68496" lon="7.86837">
        <ele>145.19999694824</ele>
        <time>2019-09-08T08:50:27Z</time>
      </trkpt>
      <trkpt lat="48.68494" lon="7.86818">
        <ele>145.39999389648</ele>
        <time>2019-09-08T08:50:31Z</time>
      </trkpt>
      <trkpt lat="48.68481" lon="7.86803">
        <ele>146</ele>
        <time>2019-09-08T08:50:35Z</time>
      </trkpt>
      <trkpt lat="48.68478" lon="7.86799">
        <ele>146</ele>
        <time>2019-09-08T08:50:36Z</time>
      </trkpt>
      <trkpt lat="48.68448" lon="7.86768">
        <ele>146.19999694824</ele>
        <time>2019-09-08T08:50:44Z</time>
      </trkpt>
      <trkpt lat="48.68416" lon="7.86734">
        <ele>146.19999694824</ele>
        <time>2019-09-08T08:50:52Z</time>
      </trkpt>
      <trkpt lat="48.68387" lon="7.86701">
        <ele>146.19999694824</ele>
        <time>2019-09-08T08:50:59Z</time>
      </trkpt>
      <trkpt lat="48.68344" lon="7.86652">
        <ele>145.80000305176</ele>
        <time>2019-09-08T08:51:09Z</time>
      </trkpt>
      <trkpt lat="48.68308" lon="7.86611">
        <ele>145.80000305176</ele>
        <time>2019-09-08T08:51:17Z</time>
      </trkpt>
      <trkpt lat="48.68273" lon="7.86566">
        <ele>145.80000305176</ele>
        <time>2019-09-08T08:51:25Z</time>
      </trkpt>
      <trkpt lat="48.6823" lon="7.86506">
        <ele>145.80000305176</ele>
        <time>2019-09-08T08:51:35Z</time>
      </trkpt>
      <trkpt lat="48.68226" lon="7.865">
        <ele>145.80000305176</ele>
        <time>2019-09-08T08:51:36Z</time>
      </trkpt>
      <trkpt lat="48.68198" lon="7.86458">
        <ele>145.80000305176</ele>
        <time>2019-09-08T08:51:43Z</time>
      </trkpt>
      <trkpt lat="48.68162" lon="7.86402">
        <ele>146</ele>
        <time>2019-09-08T08:51:52Z</time>
      </trkpt>
      <trkpt lat="48.68122" lon="7.8634">
        <ele>146</ele>
        <time>2019-09-08T08:52:02Z</time>
      </trkpt>
      <trkpt lat="48.68118" lon="7.86334">
        <ele>146</ele>
        <time>2019-09-08T08:52:03Z</time>
      </trkpt>
      <trkpt lat="48.68078" lon="7.86273">
        <ele>146.39999389648</ele>
        <time>2019-09-08T08:52:13Z</time>
      </trkpt>
      <trkpt lat="48.68039" lon="7.86213">
        <ele>146.39999389648</ele>
        <time>2019-09-08T08:52:23Z</time>
      </trkpt>
      <trkpt lat="48.68003" lon="7.8616">
        <ele>146.60000610352</ele>
        <time>2019-09-08T08:52:32Z</time>
      </trkpt>
      <trkpt lat="48.67968" lon="7.86106">
        <ele>146.60000610352</ele>
        <time>2019-09-08T08:52:41Z</time>
      </trkpt>
      <trkpt lat="48.67938" lon="7.86056">
        <ele>146.60000610352</ele>
        <time>2019-09-08T08:52:49Z</time>
      </trkpt>
      <trkpt lat="48.67918" lon="7.86005">
        <ele>146.60000610352</ele>
        <time>2019-09-08T08:52:56Z</time>
      </trkpt>
      <trkpt lat="48.67895" lon="7.85927">
        <ele>146.60000610352</ele>
        <time>2019-09-08T08:53:06Z</time>
      </trkpt>
      <trkpt lat="48.67878" lon="7.85863">
        <ele>146.80000305176</ele>
        <time>2019-09-08T08:53:14Z</time>
      </trkpt>
      <trkpt lat="48.67861" lon="7.85808">
        <ele>146.60000610352</ele>
        <time>2019-09-08T08:53:21Z</time>
      </trkpt>
      <trkpt lat="48.67845" lon="7.85752">
        <ele>146.39999389648</ele>
        <time>2019-09-08T08:53:28Z</time>
      </trkpt>
      <trkpt lat="48.67834" lon="7.85696">
        <ele>146.19999694824</ele>
        <time>2019-09-08T08:53:35Z</time>
      </trkpt>
      <trkpt lat="48.67834" lon="7.85654">
        <ele>146.19999694824</ele>
        <time>2019-09-08T08:53:40Z</time>
      </trkpt>
      <trkpt lat="48.67836" lon="7.85646">
        <ele>146.19999694824</ele>
        <time>2019-09-08T08:53:41Z</time>
      </trkpt>
      <trkpt lat="48.67848" lon="7.85618">
        <ele>146.19999694824</ele>
        <time>2019-09-08T08:53:45Z</time>
      </trkpt>
      <trkpt lat="48.67856" lon="7.85607">
        <ele>146.19999694824</ele>
        <time>2019-09-08T08:53:47Z</time>
      </trkpt>
      <trkpt lat="48.67878" lon="7.85583">
        <ele>146.19999694824</ele>
        <time>2019-09-08T08:53:52Z</time>
      </trkpt>
      <trkpt lat="48.67914" lon="7.85541">
        <ele>146.19999694824</ele>
        <time>2019-09-08T08:54:01Z</time>
      </trkpt>
      <trkpt lat="48.67953" lon="7.85493">
        <ele>146.19999694824</ele>
        <time>2019-09-08T08:54:11Z</time>
      </trkpt>
      <trkpt lat="48.67959" lon="7.85472">
        <ele>146.19999694824</ele>
        <time>2019-09-08T08:54:14Z</time>
      </trkpt>
      <trkpt lat="48.67955" lon="7.85451">
        <ele>146.19999694824</ele>
        <time>2019-09-08T08:54:17Z</time>
      </trkpt>
      <trkpt lat="48.67949" lon="7.85437">
        <ele>146.19999694824</ele>
        <time>2019-09-08T08:54:19Z</time>
      </trkpt>
      <trkpt lat="48.67935" lon="7.85413">
        <ele>146</ele>
        <time>2019-09-08T08:54:23Z</time>
      </trkpt>
      <trkpt lat="48.67902" lon="7.85362">
        <ele>146.19999694824</ele>
        <time>2019-09-08T08:54:32Z</time>
      </trkpt>
      <trkpt lat="48.67899" lon="7.85356">
        <ele>146.19999694824</ele>
        <time>2019-09-08T08:54:33Z</time>
      </trkpt>
      <trkpt lat="48.67871" lon="7.85309">
        <ele>146.39999389648</ele>
        <time>2019-09-08T08:54:41Z</time>
      </trkpt>
      <trkpt lat="48.6785" lon="7.85267">
        <ele>146.39999389648</ele>
        <time>2019-09-08T08:54:48Z</time>
      </trkpt>
      <trkpt lat="48.67834" lon="7.85218">
        <ele>146.39999389648</ele>
        <time>2019-09-08T08:54:55Z</time>
      </trkpt>
      <trkpt lat="48.67833" lon="7.8521">
        <ele>146.39999389648</ele>
        <time>2019-09-08T08:54:56Z</time>
      </trkpt>
      <trkpt lat="48.67816" lon="7.85145">
        <ele>146.19999694824</ele>
        <time>2019-09-08T08:55:05Z</time>
      </trkpt>
      <trkpt lat="48.67801" lon="7.85079">
        <ele>146.19999694824</ele>
        <time>2019-09-08T08:55:14Z</time>
      </trkpt>
      <trkpt lat="48.67785" lon="7.85014">
        <ele>146.19999694824</ele>
        <time>2019-09-08T08:55:23Z</time>
      </trkpt>
      <trkpt lat="48.67763" lon="7.84952">
        <ele>146</ele>
        <time>2019-09-08T08:55:32Z</time>
      </trkpt>
      <trkpt lat="48.67733" lon="7.8488">
        <ele>146.19999694824</ele>
        <time>2019-09-08T08:55:43Z</time>
      </trkpt>
      <trkpt lat="48.67708" lon="7.8482">
        <ele>146.19999694824</ele>
        <time>2019-09-08T08:55:52Z</time>
      </trkpt>
      <trkpt lat="48.67688" lon="7.84773">
        <ele>145.80000305176</ele>
        <time>2019-09-08T08:55:59Z</time>
      </trkpt>
      <trkpt lat="48.67661" lon="7.84705">
        <ele>145.80000305176</ele>
        <time>2019-09-08T08:56:09Z</time>
      </trkpt>
      <trkpt lat="48.67639" lon="7.84653">
        <ele>145.80000305176</ele>
        <time>2019-09-08T08:56:17Z</time>
      </trkpt>
      <trkpt lat="48.67616" lon="7.84605">
        <ele>145.80000305176</ele>
        <time>2019-09-08T08:56:25Z</time>
      </trkpt>
      <trkpt lat="48.67611" lon="7.84592">
        <ele>145.80000305176</ele>
        <time>2019-09-08T08:56:27Z</time>
      </trkpt>
      <trkpt lat="48.67609" lon="7.84579">
        <ele>146</ele>
        <time>2019-09-08T08:56:29Z</time>
      </trkpt>
      <trkpt lat="48.67603" lon="7.84553">
        <ele>145.80000305176</ele>
        <time>2019-09-08T08:56:33Z</time>
      </trkpt>
      <trkpt lat="48.67586" lon="7.84535">
        <ele>145.80000305176</ele>
        <time>2019-09-08T08:56:37Z</time>
      </trkpt>
      <trkpt lat="48.67579" lon="7.84514">
        <ele>146</ele>
        <time>2019-09-08T08:56:40Z</time>
      </trkpt>
      <trkpt lat="48.67574" lon="7.84501">
        <ele>146</ele>
        <time>2019-09-08T08:56:42Z</time>
      </trkpt>
      <trkpt lat="48.67545" lon="7.84431">
        <ele>146.19999694824</ele>
        <time>2019-09-08T08:56:53Z</time>
      </trkpt>
      <trkpt lat="48.67528" lon="7.84386">
        <ele>146.39999389648</ele>
        <time>2019-09-08T08:57:00Z</time>
      </trkpt>
      <trkpt lat="48.67517" lon="7.84337">
        <ele>146.60000610352</ele>
        <time>2019-09-08T08:57:07Z</time>
      </trkpt>
      <trkpt lat="48.67505" lon="7.84295">
        <ele>146.60000610352</ele>
        <time>2019-09-08T08:57:13Z</time>
      </trkpt>
      <trkpt lat="48.67503" lon="7.84288">
        <ele>146.60000610352</ele>
        <time>2019-09-08T08:57:14Z</time>
      </trkpt>
      <trkpt lat="48.67487" lon="7.84235">
        <ele>146.39999389648</ele>
        <time>2019-09-08T08:57:21Z</time>
      </trkpt>
      <trkpt lat="48.67464" lon="7.84164">
        <ele>146.19999694824</ele>
        <time>2019-09-08T08:57:31Z</time>
      </trkpt>
      <trkpt lat="48.67444" lon="7.84102">
        <ele>146.60000610352</ele>
        <time>2019-09-08T08:57:40Z</time>
      </trkpt>
      <trkpt lat="48.67419" lon="7.84031">
        <ele>146.80000305176</ele>
        <time>2019-09-08T08:57:50Z</time>
      </trkpt>
      <trkpt lat="48.6739" lon="7.83956">
        <ele>146.80000305176</ele>
        <time>2019-09-08T08:58:01Z</time>
      </trkpt>
      <trkpt lat="48.67382" lon="7.83936">
        <ele>146.80000305176</ele>
        <time>2019-09-08T08:58:04Z</time>
      </trkpt>
      <trkpt lat="48.67366" lon="7.83896">
        <ele>147</ele>
        <time>2019-09-08T08:58:10Z</time>
      </trkpt>
      <trkpt lat="48.67335" lon="7.83826">
        <ele>147</ele>
        <time>2019-09-08T08:58:21Z</time>
      </trkpt>
      <trkpt lat="48.67332" lon="7.83819">
        <ele>147</ele>
        <time>2019-09-08T08:58:22Z</time>
      </trkpt>
      <trkpt lat="48.67302" lon="7.83757">
        <ele>147</ele>
        <time>2019-09-08T08:58:32Z</time>
      </trkpt>
      <trkpt lat="48.67268" lon="7.83691">
        <ele>146.80000305176</ele>
        <time>2019-09-08T08:58:43Z</time>
      </trkpt>
      <trkpt lat="48.67265" lon="7.83685">
        <ele>146.80000305176</ele>
        <time>2019-09-08T08:58:44Z</time>
      </trkpt>
      <trkpt lat="48.67235" lon="7.83624">
        <ele>147.19999694824</ele>
        <time>2019-09-08T08:58:54Z</time>
      </trkpt>
      <trkpt lat="48.672" lon="7.83555">
        <ele>147.39999389648</ele>
        <time>2019-09-08T08:59:05Z</time>
      </trkpt>
      <trkpt lat="48.67166" lon="7.83487">
        <ele>147.19999694824</ele>
        <time>2019-09-08T08:59:16Z</time>
      </trkpt>
      <trkpt lat="48.67163" lon="7.83481">
        <ele>147.19999694824</ele>
        <time>2019-09-08T08:59:17Z</time>
      </trkpt>
      <trkpt lat="48.67129" lon="7.83412">
        <ele>147.39999389648</ele>
        <time>2019-09-08T08:59:28Z</time>
      </trkpt>
      <trkpt lat="48.67096" lon="7.83344">
        <ele>147.60000610352</ele>
        <time>2019-09-08T08:59:39Z</time>
      </trkpt>
      <trkpt lat="48.6707" lon="7.83288">
        <ele>147.60000610352</ele>
        <time>2019-09-08T08:59:48Z</time>
      </trkpt>
      <trkpt lat="48.67043" lon="7.83233">
        <ele>147.80000305176</ele>
        <time>2019-09-08T08:59:57Z</time>
      </trkpt>
      <trkpt lat="48.67012" lon="7.8317">
        <ele>147.80000305176</ele>
        <time>2019-09-08T09:00:07Z</time>
      </trkpt>
      <trkpt lat="48.66985" lon="7.83114">
        <ele>147.60000610352</ele>
        <time>2019-09-08T09:00:16Z</time>
      </trkpt>
      <trkpt lat="48.66957" lon="7.83059">
        <ele>147.60000610352</ele>
        <time>2019-09-08T09:00:25Z</time>
      </trkpt>
      <trkpt lat="48.66934" lon="7.8301">
        <ele>147.80000305176</ele>
        <time>2019-09-08T09:00:33Z</time>
      </trkpt>
      <trkpt lat="48.66907" lon="7.82956">
        <ele>147.80000305176</ele>
        <time>2019-09-08T09:00:42Z</time>
      </trkpt>
      <trkpt lat="48.66892" lon="7.82927">
        <ele>148</ele>
        <time>2019-09-08T09:00:47Z</time>
      </trkpt>
      <trkpt lat="48.66883" lon="7.82909">
        <ele>148</ele>
        <time>2019-09-08T09:00:50Z</time>
      </trkpt>
      <trkpt lat="48.6686" lon="7.82861">
        <ele>148.19999694824</ele>
        <time>2019-09-08T09:00:58Z</time>
      </trkpt>
      <trkpt lat="48.66856" lon="7.82848">
        <ele>148</ele>
        <time>2019-09-08T09:01:01Z</time>
      </trkpt>
      <trkpt lat="48.66857" lon="7.8283">
        <ele>147.80000305176</ele>
        <time>2019-09-08T09:01:04Z</time>
      </trkpt>
      <trkpt lat="48.66856" lon="7.82823">
        <ele>147.80000305176</ele>
        <time>2019-09-08T09:01:05Z</time>
      </trkpt>
      <trkpt lat="48.66846" lon="7.82807">
        <ele>147.80000305176</ele>
        <time>2019-09-08T09:01:08Z</time>
      </trkpt>
      <trkpt lat="48.66836" lon="7.82801">
        <ele>147.80000305176</ele>
        <time>2019-09-08T09:01:10Z</time>
      </trkpt>
      <trkpt lat="48.66832" lon="7.82798">
        <ele>147.80000305176</ele>
        <time>2019-09-08T09:01:11Z</time>
      </trkpt>
      <trkpt lat="48.66824" lon="7.82789">
        <ele>147.80000305176</ele>
        <time>2019-09-08T09:01:13Z</time>
      </trkpt>
      <trkpt lat="48.66817" lon="7.82778">
        <ele>147.80000305176</ele>
        <time>2019-09-08T09:01:15Z</time>
      </trkpt>
      <trkpt lat="48.66806" lon="7.82754">
        <ele>148.19999694824</ele>
        <time>2019-09-08T09:01:19Z</time>
      </trkpt>
      <trkpt lat="48.66785" lon="7.82715">
        <ele>148.19999694824</ele>
        <time>2019-09-08T09:01:26Z</time>
      </trkpt>
      <trkpt lat="48.66767" lon="7.82682">
        <ele>148.19999694824</ele>
        <time>2019-09-08T09:01:32Z</time>
      </trkpt>
      <trkpt lat="48.6676" lon="7.8267">
        <ele>148.19999694824</ele>
        <time>2019-09-08T09:01:34Z</time>
      </trkpt>
      <trkpt lat="48.66751" lon="7.8265">
        <ele>148.19999694824</ele>
        <time>2019-09-08T09:01:37Z</time>
      </trkpt>
      <trkpt lat="48.6673" lon="7.82608">
        <ele>148</ele>
        <time>2019-09-08T09:01:44Z</time>
      </trkpt>
      <trkpt lat="48.66711" lon="7.82576">
        <ele>147.80000305176</ele>
        <time>2019-09-08T09:01:50Z</time>
      </trkpt>
      <trkpt lat="48.66684" lon="7.82535">
        <ele>147.80000305176</ele>
        <time>2019-09-08T09:01:57Z</time>
      </trkpt>
      <trkpt lat="48.66646" lon="7.82483">
        <ele>147.39999389648</ele>
        <time>2019-09-08T09:02:06Z</time>
      </trkpt>
      <trkpt lat="48.66605" lon="7.82428">
        <ele>147.60000610352</ele>
        <time>2019-09-08T09:02:16Z</time>
      </trkpt>
      <trkpt lat="48.66584" lon="7.82396">
        <ele>147.60000610352</ele>
        <time>2019-09-08T09:02:22Z</time>
      </trkpt>
      <trkpt lat="48.66562" lon="7.82356">
        <ele>147.80000305176</ele>
        <time>2019-09-08T09:02:29Z</time>
      </trkpt>
      <trkpt lat="48.66552" lon="7.82328">
        <ele>147.80000305176</ele>
        <time>2019-09-08T09:02:34Z</time>
      </trkpt>
      <trkpt lat="48.66551" lon="7.82322">
        <ele>147.80000305176</ele>
        <time>2019-09-08T09:02:35Z</time>
      </trkpt>
      <trkpt lat="48.6654" lon="7.8231">
        <ele>147.80000305176</ele>
        <time>2019-09-08T09:02:38Z</time>
      </trkpt>
      <trkpt lat="48.66526" lon="7.82317">
        <ele>147.80000305176</ele>
        <time>2019-09-08T09:02:41Z</time>
      </trkpt>
      <trkpt lat="48.66519" lon="7.82328">
        <ele>147.80000305176</ele>
        <time>2019-09-08T09:02:43Z</time>
      </trkpt>
      <trkpt lat="48.66516" lon="7.82333">
        <ele>147.80000305176</ele>
        <time>2019-09-08T09:02:44Z</time>
      </trkpt>
      <trkpt lat="48.66512" lon="7.82337">
        <ele>148</ele>
        <time>2019-09-08T09:02:45Z</time>
      </trkpt>
      <trkpt lat="48.66498" lon="7.82337">
        <ele>148</ele>
        <time>2019-09-08T09:02:48Z</time>
      </trkpt>
      <trkpt lat="48.66487" lon="7.8232">
        <ele>148.19999694824</ele>
        <time>2019-09-08T09:02:51Z</time>
      </trkpt>
      <trkpt lat="48.66483" lon="7.82313">
        <ele>148.19999694824</ele>
        <time>2019-09-08T09:02:52Z</time>
      </trkpt>
      <trkpt lat="48.66461" lon="7.82269">
        <ele>148.19999694824</ele>
        <time>2019-09-08T09:02:59Z</time>
      </trkpt>
      <trkpt lat="48.66451" lon="7.82253">
        <ele>148.39999389648</ele>
        <time>2019-09-08T09:03:02Z</time>
      </trkpt>
      <trkpt lat="48.66438" lon="7.82241">
        <ele>148.39999389648</ele>
        <time>2019-09-08T09:03:05Z</time>
      </trkpt>
      <trkpt lat="48.66422" lon="7.82237">
        <ele>148.60000610352</ele>
        <time>2019-09-08T09:03:08Z</time>
      </trkpt>
      <trkpt lat="48.66417" lon="7.82237">
        <ele>148.60000610352</ele>
        <time>2019-09-08T09:03:09Z</time>
      </trkpt>
      <trkpt lat="48.6638" lon="7.8224">
        <ele>148.39999389648</ele>
        <time>2019-09-08T09:03:16Z</time>
      </trkpt>
      <trkpt lat="48.66365" lon="7.82241">
        <ele>148.19999694824</ele>
        <time>2019-09-08T09:03:19Z</time>
      </trkpt>
      <trkpt lat="48.66345" lon="7.82238">
        <ele>148.19999694824</ele>
        <time>2019-09-08T09:03:23Z</time>
      </trkpt>
      <trkpt lat="48.66309" lon="7.82226">
        <ele>148.19999694824</ele>
        <time>2019-09-08T09:03:30Z</time>
      </trkpt>
      <trkpt lat="48.66264" lon="7.8221">
        <ele>148.19999694824</ele>
        <time>2019-09-08T09:03:39Z</time>
      </trkpt>
      <trkpt lat="48.66231" lon="7.82199">
        <ele>148.19999694824</ele>
        <time>2019-09-08T09:03:46Z</time>
      </trkpt>
      <trkpt lat="48.66185" lon="7.82184">
        <ele>148</ele>
        <time>2019-09-08T09:03:55Z</time>
      </trkpt>
      <trkpt lat="48.6616" lon="7.82174">
        <ele>148</ele>
        <time>2019-09-08T09:04:01Z</time>
      </trkpt>
      <trkpt lat="48.66144" lon="7.82165">
        <ele>148</ele>
        <time>2019-09-08T09:04:06Z</time>
      </trkpt>
      <trkpt lat="48.66141" lon="7.82167">
        <ele>148</ele>
        <time>2019-09-08T09:04:07Z</time>
      </trkpt>
      <trkpt lat="48.66134" lon="7.82183">
        <ele>148.19999694824</ele>
        <time>2019-09-08T09:04:10Z</time>
      </trkpt>
      <trkpt lat="48.66131" lon="7.82197">
        <ele>148.19999694824</ele>
        <time>2019-09-08T09:04:12Z</time>
      </trkpt>
      <trkpt lat="48.66123" lon="7.82235">
        <ele>148</ele>
        <time>2019-09-08T09:04:17Z</time>
      </trkpt>
      <trkpt lat="48.6611" lon="7.823">
        <ele>147.60000610352</ele>
        <time>2019-09-08T09:04:25Z</time>
      </trkpt>
      <trkpt lat="48.66105" lon="7.82324">
        <ele>147.60000610352</ele>
        <time>2019-09-08T09:04:28Z</time>
      </trkpt>
      <trkpt lat="48.66097" lon="7.82336">
        <ele>147.60000610352</ele>
        <time>2019-09-08T09:04:30Z</time>
      </trkpt>
      <trkpt lat="48.66082" lon="7.82343">
        <ele>147.60000610352</ele>
        <time>2019-09-08T09:04:33Z</time>
      </trkpt>
      <trkpt lat="48.66077" lon="7.82345">
        <ele>147.60000610352</ele>
        <time>2019-09-08T09:04:34Z</time>
      </trkpt>
      <trkpt lat="48.66043" lon="7.82362">
        <ele>148</ele>
        <time>2019-09-08T09:04:41Z</time>
      </trkpt>
      <trkpt lat="48.65991" lon="7.82388">
        <ele>148.19999694824</ele>
        <time>2019-09-08T09:04:52Z</time>
      </trkpt>
      <trkpt lat="48.65976" lon="7.82408">
        <ele>148.19999694824</ele>
        <time>2019-09-08T09:04:56Z</time>
      </trkpt>
      <trkpt lat="48.65973" lon="7.82429">
        <ele>148.19999694824</ele>
        <time>2019-09-08T09:04:59Z</time>
      </trkpt>
      <trkpt lat="48.65973" lon="7.82436">
        <ele>148.19999694824</ele>
        <time>2019-09-08T09:05:00Z</time>
      </trkpt>
      <trkpt lat="48.65974" lon="7.82447">
        <ele>148.19999694824</ele>
        <time>2019-09-08T09:05:02Z</time>
      </trkpt>
      <trkpt lat="48.65976" lon="7.82449">
        <ele>148.19999694824</ele>
        <time>2019-09-08T09:05:03Z</time>
      </trkpt>
      <trkpt lat="48.65979" lon="7.82453">
        <ele>148</ele>
        <time>2019-09-08T09:05:07Z</time>
      </trkpt>
      <trkpt lat="48.65979" lon="7.82455">
        <ele>147.60000610352</ele>
        <time>2019-09-08T09:05:15Z</time>
      </trkpt>
      <trkpt lat="48.65979" lon="7.82456">
        <ele>147.60000610352</ele>
        <time>2019-09-08T09:05:18Z</time>
      </trkpt>
      <trkpt lat="48.65976" lon="7.82463">
        <ele>147.80000305176</ele>
        <time>2019-09-08T09:07:03Z</time>
      </trkpt>
      <trkpt lat="48.65976" lon="7.82477">
        <ele>147.80000305176</ele>
        <time>2019-09-08T09:07:06Z</time>
      </trkpt>
      <trkpt lat="48.65973" lon="7.82504">
        <ele>147.60000610352</ele>
        <time>2019-09-08T09:07:11Z</time>
      </trkpt>
      <trkpt lat="48.65971" lon="7.82509">
        <ele>147.60000610352</ele>
        <time>2019-09-08T09:07:12Z</time>
      </trkpt>
      <trkpt lat="48.65961" lon="7.82523">
        <ele>147.60000610352</ele>
        <time>2019-09-08T09:07:15Z</time>
      </trkpt>
      <trkpt lat="48.65927" lon="7.82569">
        <ele>147.60000610352</ele>
        <time>2019-09-08T09:07:24Z</time>
      </trkpt>
      <trkpt lat="48.65904" lon="7.82598">
        <ele>147.60000610352</ele>
        <time>2019-09-08T09:07:30Z</time>
      </trkpt>
      <trkpt lat="48.65871" lon="7.82644">
        <ele>147.39999389648</ele>
        <time>2019-09-08T09:07:39Z</time>
      </trkpt>
      <trkpt lat="48.65853" lon="7.82679">
        <ele>147.39999389648</ele>
        <time>2019-09-08T09:07:45Z</time>
      </trkpt>
      <trkpt lat="48.65837" lon="7.82715">
        <ele>147.60000610352</ele>
        <time>2019-09-08T09:07:51Z</time>
      </trkpt>
      <trkpt lat="48.6583" lon="7.82734">
        <ele>147.80000305176</ele>
        <time>2019-09-08T09:07:54Z</time>
      </trkpt>
      <trkpt lat="48.65824" lon="7.82751">
        <ele>147.80000305176</ele>
        <time>2019-09-08T09:07:57Z</time>
      </trkpt>
      <trkpt lat="48.65827" lon="7.82769">
        <ele>148</ele>
        <time>2019-09-08T09:08:01Z</time>
      </trkpt>
      <trkpt lat="48.65831" lon="7.82772">
        <ele>148</ele>
        <time>2019-09-08T09:08:06Z</time>
      </trkpt>
      <trkpt lat="48.65838" lon="7.8278">
        <ele>148</ele>
        <time>2019-09-08T09:08:11Z</time>
      </trkpt>
      <trkpt lat="48.65844" lon="7.8278">
        <ele>147.80000305176</ele>
        <time>2019-09-08T09:08:15Z</time>
      </trkpt>
      <trkpt lat="48.65845" lon="7.82785">
        <ele>147.80000305176</ele>
        <time>2019-09-08T09:08:19Z</time>
      </trkpt>
      <trkpt lat="48.65845" lon="7.82785">
        <ele>147.80000305176</ele>
        <time>2019-09-08T09:08:20Z</time>
      </trkpt>
      <trkpt lat="48.65845" lon="7.82785">
        <ele>147.80000305176</ele>
        <time>2019-09-08T09:08:21Z</time>
      </trkpt>
      <trkpt lat="48.65875" lon="7.82824">
        <ele>146.60000610352</ele>
        <time>2019-09-08T09:16:11Z</time>
      </trkpt>
      <trkpt lat="48.65877" lon="7.82826">
        <ele>146.60000610352</ele>
        <time>2019-09-08T09:16:17Z</time>
      </trkpt>
      <trkpt lat="48.65877" lon="7.82826">
        <ele>146.39999389648</ele>
        <time>2019-09-08T09:16:20Z</time>
      </trkpt>
      <trkpt lat="48.65861" lon="7.82806">
        <ele>147.39999389648</ele>
        <time>2019-09-08T09:17:24Z</time>
      </trkpt>
      <trkpt lat="48.65858" lon="7.82805">
        <ele>147.39999389648</ele>
        <time>2019-09-08T09:17:28Z</time>
      </trkpt>
      <trkpt lat="48.65844" lon="7.82782">
        <ele>147.39999389648</ele>
        <time>2019-09-08T09:23:40Z</time>
      </trkpt>
      <trkpt lat="48.65842" lon="7.82784">
        <ele>147.39999389648</ele>
        <time>2019-09-08T09:23:41Z</time>
      </trkpt>
      <trkpt lat="48.65839" lon="7.82783">
        <ele>147.39999389648</ele>
        <time>2019-09-08T09:23:43Z</time>
      </trkpt>
      <trkpt lat="48.65835" lon="7.82778">
        <ele>147.39999389648</ele>
        <time>2019-09-08T09:23:45Z</time>
      </trkpt>
      <trkpt lat="48.65831" lon="7.82771">
        <ele>147.39999389648</ele>
        <time>2019-09-08T09:23:48Z</time>
      </trkpt>
      <trkpt lat="48.65827" lon="7.82765">
        <ele>147.19999694824</ele>
        <time>2019-09-08T09:23:53Z</time>
      </trkpt>
      <trkpt lat="48.65826" lon="7.82762">
        <ele>147.19999694824</ele>
        <time>2019-09-08T09:23:59Z</time>
      </trkpt>
      <trkpt lat="48.65825" lon="7.82761">
        <ele>147.19999694824</ele>
        <time>2019-09-08T09:24:00Z</time>
      </trkpt>
      <trkpt lat="48.6582" lon="7.82763">
        <ele>147.19999694824</ele>
        <time>2019-09-08T09:24:02Z</time>
      </trkpt>
      <trkpt lat="48.65816" lon="7.8277">
        <ele>147.19999694824</ele>
        <time>2019-09-08T09:24:04Z</time>
      </trkpt>
      <trkpt lat="48.65807" lon="7.82787">
        <ele>147.39999389648</ele>
        <time>2019-09-08T09:24:08Z</time>
      </trkpt>
      <trkpt lat="48.65788" lon="7.8283">
        <ele>147.60000610352</ele>
        <time>2019-09-08T09:24:16Z</time>
      </trkpt>
      <trkpt lat="48.65774" lon="7.82865">
        <ele>147.60000610352</ele>
        <time>2019-09-08T09:24:22Z</time>
      </trkpt>
      <trkpt lat="48.65754" lon="7.82915">
        <ele>147.39999389648</ele>
        <time>2019-09-08T09:24:30Z</time>
      </trkpt>
      <trkpt lat="48.65742" lon="7.82945">
        <ele>147.39999389648</ele>
        <time>2019-09-08T09:24:35Z</time>
      </trkpt>
      <trkpt lat="48.65736" lon="7.82956">
        <ele>147.39999389648</ele>
        <time>2019-09-08T09:24:37Z</time>
      </trkpt>
      <trkpt lat="48.65706" lon="7.82988">
        <ele>147.39999389648</ele>
        <time>2019-09-08T09:24:44Z</time>
      </trkpt>
      <trkpt lat="48.65678" lon="7.83013">
        <ele>147.39999389648</ele>
        <time>2019-09-08T09:24:51Z</time>
      </trkpt>
      <trkpt lat="48.65648" lon="7.83034">
        <ele>147.39999389648</ele>
        <time>2019-09-08T09:24:57Z</time>
      </trkpt>
      <trkpt lat="48.65606" lon="7.83065">
        <ele>147.39999389648</ele>
        <time>2019-09-08T09:25:06Z</time>
      </trkpt>
      <trkpt lat="48.65573" lon="7.83087">
        <ele>147.80000305176</ele>
        <time>2019-09-08T09:25:13Z</time>
      </trkpt>
      <trkpt lat="48.65537" lon="7.83111">
        <ele>148</ele>
        <time>2019-09-08T09:25:21Z</time>
      </trkpt>
      <trkpt lat="48.65527" lon="7.83117">
        <ele>147.80000305176</ele>
        <time>2019-09-08T09:25:23Z</time>
      </trkpt>
      <trkpt lat="48.65513" lon="7.8312">
        <ele>148</ele>
        <time>2019-09-08T09:25:26Z</time>
      </trkpt>
      <trkpt lat="48.65504" lon="7.83119">
        <ele>148</ele>
        <time>2019-09-08T09:25:28Z</time>
      </trkpt>
      <trkpt lat="48.65499" lon="7.83117">
        <ele>148</ele>
        <time>2019-09-08T09:25:29Z</time>
      </trkpt>
      <trkpt lat="48.65495" lon="7.83115">
        <ele>148.19999694824</ele>
        <time>2019-09-08T09:25:30Z</time>
      </trkpt>
      <trkpt lat="48.65491" lon="7.83112">
        <ele>148.19999694824</ele>
        <time>2019-09-08T09:25:31Z</time>
      </trkpt>
      <trkpt lat="48.65464" lon="7.83092">
        <ele>148.80000305176</ele>
        <time>2019-09-08T09:25:38Z</time>
      </trkpt>
      <trkpt lat="48.65457" lon="7.83086">
        <ele>149.19999694824</ele>
        <time>2019-09-08T09:25:40Z</time>
      </trkpt>
      <trkpt lat="48.65435" lon="7.8307">
        <ele>149.39999389648</ele>
        <time>2019-09-08T09:25:45Z</time>
      </trkpt>
      <trkpt lat="48.65404" lon="7.83039">
        <ele>149.39999389648</ele>
        <time>2019-09-08T09:25:52Z</time>
      </trkpt>
      <trkpt lat="48.65399" lon="7.83035">
        <ele>149.39999389648</ele>
        <time>2019-09-08T09:25:53Z</time>
      </trkpt>
      <trkpt lat="48.65384" lon="7.83026">
        <ele>149</ele>
        <time>2019-09-08T09:25:56Z</time>
      </trkpt>
      <trkpt lat="48.6538" lon="7.83022">
        <ele>148.80000305176</ele>
        <time>2019-09-08T09:25:57Z</time>
      </trkpt>
      <trkpt lat="48.65373" lon="7.83004">
        <ele>148.60000610352</ele>
        <time>2019-09-08T09:26:00Z</time>
      </trkpt>
      <trkpt lat="48.6536" lon="7.82966">
        <ele>148</ele>
        <time>2019-09-08T09:26:06Z</time>
      </trkpt>
      <trkpt lat="48.65354" lon="7.82927">
        <ele>147.60000610352</ele>
        <time>2019-09-08T09:26:12Z</time>
      </trkpt>
      <trkpt lat="48.65351" lon="7.8291">
        <ele>147.60000610352</ele>
        <time>2019-09-08T09:26:16Z</time>
      </trkpt>
      <trkpt lat="48.65351" lon="7.82909">
        <ele>147.39999389648</ele>
        <time>2019-09-08T09:26:18Z</time>
      </trkpt>
      <trkpt lat="48.65349" lon="7.82907">
        <ele>147.19999694824</ele>
        <time>2019-09-08T09:26:28Z</time>
      </trkpt>
      <trkpt lat="48.65348" lon="7.82908">
        <ele>147.19999694824</ele>
        <time>2019-09-08T09:26:29Z</time>
      </trkpt>
      <trkpt lat="48.65349" lon="7.82911">
        <ele>147</ele>
        <time>2019-09-08T09:26:32Z</time>
      </trkpt>
      <trkpt lat="48.65351" lon="7.82919">
        <ele>147.19999694824</ele>
        <time>2019-09-08T09:26:35Z</time>
      </trkpt>
      <trkpt lat="48.65353" lon="7.82933">
        <ele>147.19999694824</ele>
        <time>2019-09-08T09:26:38Z</time>
      </trkpt>
      <trkpt lat="48.65355" lon="7.82943">
        <ele>147.19999694824</ele>
        <time>2019-09-08T09:26:40Z</time>
      </trkpt>
      <trkpt lat="48.65365" lon="7.82976">
        <ele>147.39999389648</ele>
        <time>2019-09-08T09:26:47Z</time>
      </trkpt>
      <trkpt lat="48.65373" lon="7.83006">
        <ele>147.60000610352</ele>
        <time>2019-09-08T09:26:54Z</time>
      </trkpt>
      <trkpt lat="48.65367" lon="7.83017">
        <ele>147.60000610352</ele>
        <time>2019-09-08T09:26:58Z</time>
      </trkpt>
      <trkpt lat="48.65356" lon="7.83023">
        <ele>147.60000610352</ele>
        <time>2019-09-08T09:27:02Z</time>
      </trkpt>
      <trkpt lat="48.65345" lon="7.83021">
        <ele>147.60000610352</ele>
        <time>2019-09-08T09:27:05Z</time>
      </trkpt>
      <trkpt lat="48.65337" lon="7.83019">
        <ele>147.19999694824</ele>
        <time>2019-09-08T09:27:07Z</time>
      </trkpt>
      <trkpt lat="48.65312" lon="7.83014">
        <ele>146.80000305176</ele>
        <time>2019-09-08T09:27:13Z</time>
      </trkpt>
      <trkpt lat="48.65286" lon="7.8301">
        <ele>146.80000305176</ele>
        <time>2019-09-08T09:27:19Z</time>
      </trkpt>
      <trkpt lat="48.65265" lon="7.83005">
        <ele>146.80000305176</ele>
        <time>2019-09-08T09:27:24Z</time>
      </trkpt>
      <trkpt lat="48.65226" lon="7.82998">
        <ele>147</ele>
        <time>2019-09-08T09:27:30Z</time>
      </trkpt>
      <trkpt lat="48.65208" lon="7.82993">
        <ele>146.80000305176</ele>
        <time>2019-09-08T09:27:34Z</time>
      </trkpt>
      <trkpt lat="48.65203" lon="7.82992">
        <ele>147</ele>
        <time>2019-09-08T09:27:35Z</time>
      </trkpt>
      <trkpt lat="48.65161" lon="7.82983">
        <ele>147</ele>
        <time>2019-09-08T09:27:42Z</time>
      </trkpt>
      <trkpt lat="48.65134" lon="7.82977">
        <ele>147</ele>
        <time>2019-09-08T09:27:48Z</time>
      </trkpt>
      <trkpt lat="48.65107" lon="7.82969">
        <ele>147</ele>
        <time>2019-09-08T09:27:54Z</time>
      </trkpt>
      <trkpt lat="48.65084" lon="7.82961">
        <ele>147</ele>
        <time>2019-09-08T09:27:59Z</time>
      </trkpt>
      <trkpt lat="48.65068" lon="7.82954">
        <ele>146.80000305176</ele>
        <time>2019-09-08T09:28:03Z</time>
      </trkpt>
      <trkpt lat="48.65056" lon="7.82951">
        <ele>146.80000305176</ele>
        <time>2019-09-08T09:28:05Z</time>
      </trkpt>
      <trkpt lat="48.65045" lon="7.82947">
        <ele>146.80000305176</ele>
        <time>2019-09-08T09:28:07Z</time>
      </trkpt>
      <trkpt lat="48.6504" lon="7.82946">
        <ele>146.80000305176</ele>
        <time>2019-09-08T09:28:08Z</time>
      </trkpt>
      <trkpt lat="48.65027" lon="7.82945">
        <ele>146.80000305176</ele>
        <time>2019-09-08T09:28:11Z</time>
      </trkpt>
      <trkpt lat="48.65004" lon="7.82938">
        <ele>146.80000305176</ele>
        <time>2019-09-08T09:28:17Z</time>
      </trkpt>
      <trkpt lat="48.64977" lon="7.8293">
        <ele>146.80000305176</ele>
        <time>2019-09-08T09:28:22Z</time>
      </trkpt>
      <trkpt lat="48.64954" lon="7.82924">
        <ele>146.80000305176</ele>
        <time>2019-09-08T09:28:27Z</time>
      </trkpt>
      <trkpt lat="48.64937" lon="7.8292">
        <ele>146.80000305176</ele>
        <time>2019-09-08T09:28:30Z</time>
      </trkpt>
      <trkpt lat="48.64924" lon="7.82915">
        <ele>146.80000305176</ele>
        <time>2019-09-08T09:28:33Z</time>
      </trkpt>
      <trkpt lat="48.6489" lon="7.82907">
        <ele>146.80000305176</ele>
        <time>2019-09-08T09:28:39Z</time>
      </trkpt>
      <trkpt lat="48.64861" lon="7.82898">
        <ele>146.60000610352</ele>
        <time>2019-09-08T09:28:45Z</time>
      </trkpt>
      <trkpt lat="48.64822" lon="7.82888">
        <ele>146.60000610352</ele>
        <time>2019-09-08T09:28:52Z</time>
      </trkpt>
      <trkpt lat="48.64803" lon="7.82883">
        <ele>146.60000610352</ele>
        <time>2019-09-08T09:28:57Z</time>
      </trkpt>
      <trkpt lat="48.64769" lon="7.82867">
        <ele>146.80000305176</ele>
        <time>2019-09-08T09:29:04Z</time>
      </trkpt>
      <trkpt lat="48.64762" lon="7.82865">
        <ele>146.80000305176</ele>
        <time>2019-09-08T09:29:05Z</time>
      </trkpt>
      <trkpt lat="48.64738" lon="7.82858">
        <ele>146.60000610352</ele>
        <time>2019-09-08T09:29:09Z</time>
      </trkpt>
      <trkpt lat="48.64707" lon="7.82852">
        <ele>146.80000305176</ele>
        <time>2019-09-08T09:29:15Z</time>
      </trkpt>
      <trkpt lat="48.64683" lon="7.82848">
        <ele>147.19999694824</ele>
        <time>2019-09-08T09:29:20Z</time>
      </trkpt>
      <trkpt lat="48.64678" lon="7.82847">
        <ele>147.19999694824</ele>
        <time>2019-09-08T09:29:21Z</time>
      </trkpt>
      <trkpt lat="48.64663" lon="7.82844">
        <ele>148.19999694824</ele>
        <time>2019-09-08T09:29:25Z</time>
      </trkpt>
      <trkpt lat="48.64659" lon="7.82844">
        <ele>148.39999389648</ele>
        <time>2019-09-08T09:29:26Z</time>
      </trkpt>
      <trkpt lat="48.64654" lon="7.82842">
        <ele>148.39999389648</ele>
        <time>2019-09-08T09:29:27Z</time>
      </trkpt>
      <trkpt lat="48.64642" lon="7.82825">
        <ele>149</ele>
        <time>2019-09-08T09:29:31Z</time>
      </trkpt>
      <trkpt lat="48.64639" lon="7.82814">
        <ele>149.19999694824</ele>
        <time>2019-09-08T09:29:33Z</time>
      </trkpt>
      <trkpt lat="48.64631" lon="7.82785">
        <ele>150</ele>
        <time>2019-09-08T09:29:38Z</time>
      </trkpt>
      <trkpt lat="48.6462" lon="7.82731">
        <ele>150</ele>
        <time>2019-09-08T09:29:47Z</time>
      </trkpt>
      <trkpt lat="48.64619" lon="7.82725">
        <ele>150.19999694824</ele>
        <time>2019-09-08T09:29:48Z</time>
      </trkpt>
      <trkpt lat="48.6461" lon="7.82698">
        <ele>150.19999694824</ele>
        <time>2019-09-08T09:29:53Z</time>
      </trkpt>
      <trkpt lat="48.64598" lon="7.82671">
        <ele>150.39999389648</ele>
        <time>2019-09-08T09:29:58Z</time>
      </trkpt>
      <trkpt lat="48.64584" lon="7.82653">
        <ele>150.39999389648</ele>
        <time>2019-09-08T09:30:03Z</time>
      </trkpt>
      <trkpt lat="48.6457" lon="7.82649">
        <ele>150.60000610352</ele>
        <time>2019-09-08T09:30:07Z</time>
      </trkpt>
      <trkpt lat="48.64532" lon="7.82636">
        <ele>150.60000610352</ele>
        <time>2019-09-08T09:30:16Z</time>
      </trkpt>
      <trkpt lat="48.64496" lon="7.82624">
        <ele>150.19999694824</ele>
        <time>2019-09-08T09:30:24Z</time>
      </trkpt>
      <trkpt lat="48.64491" lon="7.82622">
        <ele>150.19999694824</ele>
        <time>2019-09-08T09:30:25Z</time>
      </trkpt>
      <trkpt lat="48.64468" lon="7.82615">
        <ele>150</ele>
        <time>2019-09-08T09:30:30Z</time>
      </trkpt>
      <trkpt lat="48.64445" lon="7.82609">
        <ele>150</ele>
        <time>2019-09-08T09:30:35Z</time>
      </trkpt>
      <trkpt lat="48.64436" lon="7.82605">
        <ele>150</ele>
        <time>2019-09-08T09:30:37Z</time>
      </trkpt>
      <trkpt lat="48.64404" lon="7.82595">
        <ele>150.19999694824</ele>
        <time>2019-09-08T09:30:44Z</time>
      </trkpt>
      <trkpt lat="48.64364" lon="7.82582">
        <ele>150.19999694824</ele>
        <time>2019-09-08T09:30:52Z</time>
      </trkpt>
      <trkpt lat="48.64324" lon="7.8257">
        <ele>150.39999389648</ele>
        <time>2019-09-08T09:31:00Z</time>
      </trkpt>
      <trkpt lat="48.643" lon="7.82559">
        <ele>150.39999389648</ele>
        <time>2019-09-08T09:31:05Z</time>
      </trkpt>
      <trkpt lat="48.64295" lon="7.82556">
        <ele>150.39999389648</ele>
        <time>2019-09-08T09:31:06Z</time>
      </trkpt>
      <trkpt lat="48.64277" lon="7.82529">
        <ele>150.60000610352</ele>
        <time>2019-09-08T09:31:11Z</time>
      </trkpt>
      <trkpt lat="48.64249" lon="7.82483">
        <ele>150.60000610352</ele>
        <time>2019-09-08T09:31:19Z</time>
      </trkpt>
      <trkpt lat="48.64246" lon="7.82477">
        <ele>150.60000610352</ele>
        <time>2019-09-08T09:31:20Z</time>
      </trkpt>
      <trkpt lat="48.64225" lon="7.82443">
        <ele>150.60000610352</ele>
        <time>2019-09-08T09:31:26Z</time>
      </trkpt>
      <trkpt lat="48.64187" lon="7.8238">
        <ele>150.39999389648</ele>
        <time>2019-09-08T09:31:37Z</time>
      </trkpt>
      <trkpt lat="48.6416" lon="7.82333">
        <ele>150.39999389648</ele>
        <time>2019-09-08T09:31:45Z</time>
      </trkpt>
      <trkpt lat="48.6412" lon="7.82274">
        <ele>150.39999389648</ele>
        <time>2019-09-08T09:31:56Z</time>
      </trkpt>
      <trkpt lat="48.64101" lon="7.82266">
        <ele>150.39999389648</ele>
        <time>2019-09-08T09:32:00Z</time>
      </trkpt>
      <trkpt lat="48.64058" lon="7.82271">
        <ele>150.60000610352</ele>
        <time>2019-09-08T09:32:08Z</time>
      </trkpt>
      <trkpt lat="48.64021" lon="7.82279">
        <ele>150.60000610352</ele>
        <time>2019-09-08T09:32:15Z</time>
      </trkpt>
      <trkpt lat="48.63989" lon="7.82281">
        <ele>150.39999389648</ele>
        <time>2019-09-08T09:32:21Z</time>
      </trkpt>
      <trkpt lat="48.63984" lon="7.82279">
        <ele>150.39999389648</ele>
        <time>2019-09-08T09:32:22Z</time>
      </trkpt>
      <trkpt lat="48.63955" lon="7.8226">
        <ele>150.60000610352</ele>
        <time>2019-09-08T09:32:28Z</time>
      </trkpt>
      <trkpt lat="48.63905" lon="7.8222">
        <ele>150.60000610352</ele>
        <time>2019-09-08T09:32:39Z</time>
      </trkpt>
      <trkpt lat="48.639" lon="7.82217">
        <ele>150.60000610352</ele>
        <time>2019-09-08T09:32:40Z</time>
      </trkpt>
      <trkpt lat="48.63859" lon="7.82184">
        <ele>150.60000610352</ele>
        <time>2019-09-08T09:32:49Z</time>
      </trkpt>
      <trkpt lat="48.63818" lon="7.82153">
        <ele>150.60000610352</ele>
        <time>2019-09-08T09:32:58Z</time>
      </trkpt>
      <trkpt lat="48.63786" lon="7.82128">
        <ele>150.60000610352</ele>
        <time>2019-09-08T09:33:05Z</time>
      </trkpt>
      <trkpt lat="48.63752" lon="7.82109">
        <ele>150.60000610352</ele>
        <time>2019-09-08T09:33:12Z</time>
      </trkpt>
      <trkpt lat="48.6373" lon="7.82102">
        <ele>150.60000610352</ele>
        <time>2019-09-08T09:33:17Z</time>
      </trkpt>
      <trkpt lat="48.63726" lon="7.821">
        <ele>150.60000610352</ele>
        <time>2019-09-08T09:33:18Z</time>
      </trkpt>
      <trkpt lat="48.63722" lon="7.82098">
        <ele>150.60000610352</ele>
        <time>2019-09-08T09:33:19Z</time>
      </trkpt>
      <trkpt lat="48.63708" lon="7.82083">
        <ele>150.60000610352</ele>
        <time>2019-09-08T09:33:23Z</time>
      </trkpt>
      <trkpt lat="48.63681" lon="7.82052">
        <ele>150.60000610352</ele>
        <time>2019-09-08T09:33:30Z</time>
      </trkpt>
      <trkpt lat="48.63666" lon="7.82033">
        <ele>150.80000305176</ele>
        <time>2019-09-08T09:33:35Z</time>
      </trkpt>
      <trkpt lat="48.63643" lon="7.82013">
        <ele>150.80000305176</ele>
        <time>2019-09-08T09:33:41Z</time>
      </trkpt>
      <trkpt lat="48.63639" lon="7.8201">
        <ele>150.80000305176</ele>
        <time>2019-09-08T09:33:42Z</time>
      </trkpt>
      <trkpt lat="48.63625" lon="7.82006">
        <ele>150.80000305176</ele>
        <time>2019-09-08T09:33:45Z</time>
      </trkpt>
      <trkpt lat="48.63614" lon="7.82004">
        <ele>150.80000305176</ele>
        <time>2019-09-08T09:33:47Z</time>
      </trkpt>
      <trkpt lat="48.636" lon="7.82007">
        <ele>150.80000305176</ele>
        <time>2019-09-08T09:33:50Z</time>
      </trkpt>
      <trkpt lat="48.63596" lon="7.82008">
        <ele>150.80000305176</ele>
        <time>2019-09-08T09:33:51Z</time>
      </trkpt>
      <trkpt lat="48.63585" lon="7.82008">
        <ele>150.80000305176</ele>
        <time>2019-09-08T09:33:54Z</time>
      </trkpt>
      <trkpt lat="48.63559" lon="7.82012">
        <ele>150.80000305176</ele>
        <time>2019-09-08T09:34:00Z</time>
      </trkpt>
      <trkpt lat="48.63531" lon="7.82018">
        <ele>150.80000305176</ele>
        <time>2019-09-08T09:34:06Z</time>
      </trkpt>
      <trkpt lat="48.63497" lon="7.82027">
        <ele>151</ele>
        <time>2019-09-08T09:34:13Z</time>
      </trkpt>
      <trkpt lat="48.6349" lon="7.82029">
        <ele>151</ele>
        <time>2019-09-08T09:34:14Z</time>
      </trkpt>
      <trkpt lat="48.63467" lon="7.82033">
        <ele>151</ele>
        <time>2019-09-08T09:34:18Z</time>
      </trkpt>
      <trkpt lat="48.63461" lon="7.82034">
        <ele>151</ele>
        <time>2019-09-08T09:34:19Z</time>
      </trkpt>
      <trkpt lat="48.63424" lon="7.82041">
        <ele>151</ele>
        <time>2019-09-08T09:34:25Z</time>
      </trkpt>
      <trkpt lat="48.63418" lon="7.82042">
        <ele>151</ele>
        <time>2019-09-08T09:34:26Z</time>
      </trkpt>
      <trkpt lat="48.63401" lon="7.82045">
        <ele>151</ele>
        <time>2019-09-08T09:34:29Z</time>
      </trkpt>
      <trkpt lat="48.6337" lon="7.82051">
        <ele>150.80000305176</ele>
        <time>2019-09-08T09:34:35Z</time>
      </trkpt>
      <trkpt lat="48.63341" lon="7.82058">
        <ele>150.80000305176</ele>
        <time>2019-09-08T09:34:41Z</time>
      </trkpt>
      <trkpt lat="48.63335" lon="7.82059">
        <ele>151</ele>
        <time>2019-09-08T09:34:42Z</time>
      </trkpt>
      <trkpt lat="48.633" lon="7.82068">
        <ele>151</ele>
        <time>2019-09-08T09:34:48Z</time>
      </trkpt>
      <trkpt lat="48.6325" lon="7.82078">
        <ele>151</ele>
        <time>2019-09-08T09:34:57Z</time>
      </trkpt>
      <trkpt lat="48.63228" lon="7.82083">
        <ele>151</ele>
        <time>2019-09-08T09:35:02Z</time>
      </trkpt>
      <trkpt lat="48.63197" lon="7.82091">
        <ele>151.19999694824</ele>
        <time>2019-09-08T09:35:08Z</time>
      </trkpt>
      <trkpt lat="48.63166" lon="7.82099">
        <ele>151.19999694824</ele>
        <time>2019-09-08T09:35:14Z</time>
      </trkpt>
      <trkpt lat="48.63121" lon="7.82112">
        <ele>151.19999694824</ele>
        <time>2019-09-08T09:35:23Z</time>
      </trkpt>
      <trkpt lat="48.63099" lon="7.82117">
        <ele>151.19999694824</ele>
        <time>2019-09-08T09:35:27Z</time>
      </trkpt>
      <trkpt lat="48.63088" lon="7.8212">
        <ele>151</ele>
        <time>2019-09-08T09:35:29Z</time>
      </trkpt>
      <trkpt lat="48.63058" lon="7.82128">
        <ele>151</ele>
        <time>2019-09-08T09:35:35Z</time>
      </trkpt>
      <trkpt lat="48.63022" lon="7.82138">
        <ele>150.80000305176</ele>
        <time>2019-09-08T09:35:43Z</time>
      </trkpt>
      <trkpt lat="48.62985" lon="7.82144">
        <ele>151</ele>
        <time>2019-09-08T09:35:50Z</time>
      </trkpt>
      <trkpt lat="48.62961" lon="7.82148">
        <ele>151.19999694824</ele>
        <time>2019-09-08T09:35:55Z</time>
      </trkpt>
      <trkpt lat="48.62956" lon="7.82149">
        <ele>151.19999694824</ele>
        <time>2019-09-08T09:35:56Z</time>
      </trkpt>
      <trkpt lat="48.62917" lon="7.82161">
        <ele>151.19999694824</ele>
        <time>2019-09-08T09:36:04Z</time>
      </trkpt>
      <trkpt lat="48.62902" lon="7.82165">
        <ele>151.39999389648</ele>
        <time>2019-09-08T09:36:07Z</time>
      </trkpt>
      <trkpt lat="48.62886" lon="7.82169">
        <ele>151.39999389648</ele>
        <time>2019-09-08T09:36:10Z</time>
      </trkpt>
      <trkpt lat="48.62859" lon="7.82174">
        <ele>151.39999389648</ele>
        <time>2019-09-08T09:36:15Z</time>
      </trkpt>
      <trkpt lat="48.62847" lon="7.82176">
        <ele>151.39999389648</ele>
        <time>2019-09-08T09:36:17Z</time>
      </trkpt>
      <trkpt lat="48.62801" lon="7.82186">
        <ele>151.39999389648</ele>
        <time>2019-09-08T09:36:25Z</time>
      </trkpt>
      <trkpt lat="48.62765" lon="7.82195">
        <ele>151.39999389648</ele>
        <time>2019-09-08T09:36:32Z</time>
      </trkpt>
      <trkpt lat="48.62716" lon="7.82206">
        <ele>151.80000305176</ele>
        <time>2019-09-08T09:36:41Z</time>
      </trkpt>
      <trkpt lat="48.62673" lon="7.82215">
        <ele>151.60000610352</ele>
        <time>2019-09-08T09:36:49Z</time>
      </trkpt>
      <trkpt lat="48.6264" lon="7.82224">
        <ele>151.60000610352</ele>
        <time>2019-09-08T09:36:56Z</time>
      </trkpt>
      <trkpt lat="48.62608" lon="7.82232">
        <ele>151.60000610352</ele>
        <time>2019-09-08T09:37:03Z</time>
      </trkpt>
      <trkpt lat="48.62577" lon="7.82239">
        <ele>151.60000610352</ele>
        <time>2019-09-08T09:37:09Z</time>
      </trkpt>
      <trkpt lat="48.62572" lon="7.8224">
        <ele>151.80000305176</ele>
        <time>2019-09-08T09:37:10Z</time>
      </trkpt>
      <trkpt lat="48.62553" lon="7.82244">
        <ele>151.80000305176</ele>
        <time>2019-09-08T09:37:14Z</time>
      </trkpt>
      <trkpt lat="48.62531" lon="7.82251">
        <ele>151.80000305176</ele>
        <time>2019-09-08T09:37:19Z</time>
      </trkpt>
      <trkpt lat="48.62521" lon="7.82254">
        <ele>151.80000305176</ele>
        <time>2019-09-08T09:37:21Z</time>
      </trkpt>
      <trkpt lat="48.62491" lon="7.8226">
        <ele>151.80000305176</ele>
        <time>2019-09-08T09:37:26Z</time>
      </trkpt>
      <trkpt lat="48.62485" lon="7.8226">
        <ele>152</ele>
        <time>2019-09-08T09:37:27Z</time>
      </trkpt>
      <trkpt lat="48.62449" lon="7.8227">
        <ele>152</ele>
        <time>2019-09-08T09:37:34Z</time>
      </trkpt>
      <trkpt lat="48.62426" lon="7.82277">
        <ele>152</ele>
        <time>2019-09-08T09:37:39Z</time>
      </trkpt>
      <trkpt lat="48.62414" lon="7.82279">
        <ele>152</ele>
        <time>2019-09-08T09:37:41Z</time>
      </trkpt>
      <trkpt lat="48.62377" lon="7.82288">
        <ele>152</ele>
        <time>2019-09-08T09:37:48Z</time>
      </trkpt>
      <trkpt lat="48.62339" lon="7.82296">
        <ele>152.19999694824</ele>
        <time>2019-09-08T09:37:55Z</time>
      </trkpt>
      <trkpt lat="48.62313" lon="7.82301">
        <ele>152.19999694824</ele>
        <time>2019-09-08T09:38:00Z</time>
      </trkpt>
      <trkpt lat="48.62307" lon="7.82302">
        <ele>152.19999694824</ele>
        <time>2019-09-08T09:38:01Z</time>
      </trkpt>
      <trkpt lat="48.62271" lon="7.82311">
        <ele>152.19999694824</ele>
        <time>2019-09-08T09:38:08Z</time>
      </trkpt>
      <trkpt lat="48.62235" lon="7.82318">
        <ele>152.39999389648</ele>
        <time>2019-09-08T09:38:15Z</time>
      </trkpt>
      <trkpt lat="48.6221" lon="7.82323">
        <ele>152.19999694824</ele>
        <time>2019-09-08T09:38:20Z</time>
      </trkpt>
      <trkpt lat="48.6218" lon="7.82332">
        <ele>152.39999389648</ele>
        <time>2019-09-08T09:38:26Z</time>
      </trkpt>
      <trkpt lat="48.62154" lon="7.82339">
        <ele>152.19999694824</ele>
        <time>2019-09-08T09:38:31Z</time>
      </trkpt>
      <trkpt lat="48.62114" lon="7.82349">
        <ele>152.60000610352</ele>
        <time>2019-09-08T09:38:39Z</time>
      </trkpt>
      <trkpt lat="48.62101" lon="7.82353">
        <ele>152.60000610352</ele>
        <time>2019-09-08T09:38:42Z</time>
      </trkpt>
      <trkpt lat="48.62092" lon="7.82354">
        <ele>152.60000610352</ele>
        <time>2019-09-08T09:38:44Z</time>
      </trkpt>
      <trkpt lat="48.62062" lon="7.82362">
        <ele>152.80000305176</ele>
        <time>2019-09-08T09:38:50Z</time>
      </trkpt>
      <trkpt lat="48.62057" lon="7.82363">
        <ele>152.80000305176</ele>
        <time>2019-09-08T09:38:51Z</time>
      </trkpt>
      <trkpt lat="48.62031" lon="7.8237">
        <ele>152.60000610352</ele>
        <time>2019-09-08T09:38:56Z</time>
      </trkpt>
      <trkpt lat="48.61999" lon="7.82376">
        <ele>152.80000305176</ele>
        <time>2019-09-08T09:39:02Z</time>
      </trkpt>
      <trkpt lat="48.61994" lon="7.82377">
        <ele>152.80000305176</ele>
        <time>2019-09-08T09:39:03Z</time>
      </trkpt>
      <trkpt lat="48.61955" lon="7.82384">
        <ele>152.60000610352</ele>
        <time>2019-09-08T09:39:10Z</time>
      </trkpt>
      <trkpt lat="48.61934" lon="7.82386">
        <ele>152.60000610352</ele>
        <time>2019-09-08T09:39:15Z</time>
      </trkpt>
      <trkpt lat="48.619" lon="7.82382">
        <ele>152.39999389648</ele>
        <time>2019-09-08T09:39:22Z</time>
      </trkpt>
      <trkpt lat="48.61881" lon="7.82379">
        <ele>152.39999389648</ele>
        <time>2019-09-08T09:39:26Z</time>
      </trkpt>
      <trkpt lat="48.61876" lon="7.82378">
        <ele>152.39999389648</ele>
        <time>2019-09-08T09:39:27Z</time>
      </trkpt>
      <trkpt lat="48.61845" lon="7.82372">
        <ele>152.60000610352</ele>
        <time>2019-09-08T09:39:33Z</time>
      </trkpt>
      <trkpt lat="48.61813" lon="7.82363">
        <ele>152.80000305176</ele>
        <time>2019-09-08T09:39:40Z</time>
      </trkpt>
      <trkpt lat="48.61788" lon="7.82358">
        <ele>152.80000305176</ele>
        <time>2019-09-08T09:39:44Z</time>
      </trkpt>
      <trkpt lat="48.61776" lon="7.82354">
        <ele>152.80000305176</ele>
        <time>2019-09-08T09:39:46Z</time>
      </trkpt>
      <trkpt lat="48.61756" lon="7.82339">
        <ele>152.80000305176</ele>
        <time>2019-09-08T09:39:50Z</time>
      </trkpt>
      <trkpt lat="48.61736" lon="7.82327">
        <ele>152.60000610352</ele>
        <time>2019-09-08T09:39:53Z</time>
      </trkpt>
      <trkpt lat="48.61727" lon="7.82318">
        <ele>152.60000610352</ele>
        <time>2019-09-08T09:39:55Z</time>
      </trkpt>
      <trkpt lat="48.61697" lon="7.82288">
        <ele>152.60000610352</ele>
        <time>2019-09-08T09:40:02Z</time>
      </trkpt>
      <trkpt lat="48.61673" lon="7.82264">
        <ele>152.80000305176</ele>
        <time>2019-09-08T09:40:08Z</time>
      </trkpt>
      <trkpt lat="48.61669" lon="7.8226">
        <ele>152.80000305176</ele>
        <time>2019-09-08T09:40:09Z</time>
      </trkpt>
      <trkpt lat="48.61653" lon="7.82242">
        <ele>152.80000305176</ele>
        <time>2019-09-08T09:40:14Z</time>
      </trkpt>
      <trkpt lat="48.6163" lon="7.8222">
        <ele>152.80000305176</ele>
        <time>2019-09-08T09:40:20Z</time>
      </trkpt>
      <trkpt lat="48.61613" lon="7.82199">
        <ele>153</ele>
        <time>2019-09-08T09:40:26Z</time>
      </trkpt>
      <trkpt lat="48.61595" lon="7.82182">
        <ele>153</ele>
        <time>2019-09-08T09:40:30Z</time>
      </trkpt>
      <trkpt lat="48.61566" lon="7.82155">
        <ele>153</ele>
        <time>2019-09-08T09:40:36Z</time>
      </trkpt>
      <trkpt lat="48.61541" lon="7.82131">
        <ele>153.19999694824</ele>
        <time>2019-09-08T09:40:41Z</time>
      </trkpt>
      <trkpt lat="48.61512" lon="7.82105">
        <ele>153</ele>
        <time>2019-09-08T09:40:47Z</time>
      </trkpt>
      <trkpt lat="48.61498" lon="7.8209">
        <ele>153.19999694824</ele>
        <time>2019-09-08T09:40:51Z</time>
      </trkpt>
      <trkpt lat="48.61472" lon="7.82063">
        <ele>153.19999694824</ele>
        <time>2019-09-08T09:40:58Z</time>
      </trkpt>
      <trkpt lat="48.61458" lon="7.8205">
        <ele>153</ele>
        <time>2019-09-08T09:41:01Z</time>
      </trkpt>
      <trkpt lat="48.61446" lon="7.8204">
        <ele>153</ele>
        <time>2019-09-08T09:41:03Z</time>
      </trkpt>
      <trkpt lat="48.61413" lon="7.82011">
        <ele>153.39999389648</ele>
        <time>2019-09-08T09:41:09Z</time>
      </trkpt>
      <trkpt lat="48.61382" lon="7.81985">
        <ele>153.39999389648</ele>
        <time>2019-09-08T09:41:15Z</time>
      </trkpt>
      <trkpt lat="48.61371" lon="7.81977">
        <ele>153.39999389648</ele>
        <time>2019-09-08T09:41:17Z</time>
      </trkpt>
      <trkpt lat="48.61349" lon="7.81957">
        <ele>153.39999389648</ele>
        <time>2019-09-08T09:41:21Z</time>
      </trkpt>
      <trkpt lat="48.61333" lon="7.81933">
        <ele>153.39999389648</ele>
        <time>2019-09-08T09:41:25Z</time>
      </trkpt>
      <trkpt lat="48.61325" lon="7.81919">
        <ele>153.39999389648</ele>
        <time>2019-09-08T09:41:27Z</time>
      </trkpt>
      <trkpt lat="48.61315" lon="7.81898">
        <ele>153.39999389648</ele>
        <time>2019-09-08T09:41:30Z</time>
      </trkpt>
      <trkpt lat="48.61309" lon="7.81882">
        <ele>153.39999389648</ele>
        <time>2019-09-08T09:41:32Z</time>
      </trkpt>
      <trkpt lat="48.61304" lon="7.81867">
        <ele>153.39999389648</ele>
        <time>2019-09-08T09:41:34Z</time>
      </trkpt>
      <trkpt lat="48.61298" lon="7.81844">
        <ele>153.39999389648</ele>
        <time>2019-09-08T09:41:37Z</time>
      </trkpt>
      <trkpt lat="48.61288" lon="7.81807">
        <ele>153.60000610352</ele>
        <time>2019-09-08T09:41:42Z</time>
      </trkpt>
      <trkpt lat="48.61288" lon="7.81799">
        <ele>153.60000610352</ele>
        <time>2019-09-08T09:41:43Z</time>
      </trkpt>
      <trkpt lat="48.61289" lon="7.81743">
        <ele>153.60000610352</ele>
        <time>2019-09-08T09:41:50Z</time>
      </trkpt>
      <trkpt lat="48.61287" lon="7.81728">
        <ele>153.60000610352</ele>
        <time>2019-09-08T09:41:52Z</time>
      </trkpt>
      <trkpt lat="48.61282" lon="7.8171">
        <ele>153.60000610352</ele>
        <time>2019-09-08T09:41:55Z</time>
      </trkpt>
      <trkpt lat="48.61275" lon="7.81692">
        <ele>153.60000610352</ele>
        <time>2019-09-08T09:41:58Z</time>
      </trkpt>
      <trkpt lat="48.61271" lon="7.8168">
        <ele>153.60000610352</ele>
        <time>2019-09-08T09:42:00Z</time>
      </trkpt>
      <trkpt lat="48.61261" lon="7.81646">
        <ele>153.80000305176</ele>
        <time>2019-09-08T09:42:06Z</time>
      </trkpt>
      <trkpt lat="48.61257" lon="7.81623">
        <ele>153.80000305176</ele>
        <time>2019-09-08T09:42:10Z</time>
      </trkpt>
      <trkpt lat="48.61255" lon="7.81611">
        <ele>153.60000610352</ele>
        <time>2019-09-08T09:42:12Z</time>
      </trkpt>
      <trkpt lat="48.61248" lon="7.81591">
        <ele>153.60000610352</ele>
        <time>2019-09-08T09:42:15Z</time>
      </trkpt>
      <trkpt lat="48.61242" lon="7.81544">
        <ele>153.80000305176</ele>
        <time>2019-09-08T09:42:21Z</time>
      </trkpt>
      <trkpt lat="48.61241" lon="7.81534">
        <ele>153.80000305176</ele>
        <time>2019-09-08T09:42:22Z</time>
      </trkpt>
      <trkpt lat="48.61229" lon="7.81502">
        <ele>153.80000305176</ele>
        <time>2019-09-08T09:42:26Z</time>
      </trkpt>
      <trkpt lat="48.61215" lon="7.81461">
        <ele>153.80000305176</ele>
        <time>2019-09-08T09:42:31Z</time>
      </trkpt>
      <trkpt lat="48.61214" lon="7.81453">
        <ele>153.80000305176</ele>
        <time>2019-09-08T09:42:32Z</time>
      </trkpt>
      <trkpt lat="48.61202" lon="7.81406">
        <ele>153.80000305176</ele>
        <time>2019-09-08T09:42:38Z</time>
      </trkpt>
      <trkpt lat="48.61199" lon="7.81398">
        <ele>153.80000305176</ele>
        <time>2019-09-08T09:42:39Z</time>
      </trkpt>
      <trkpt lat="48.61197" lon="7.81391">
        <ele>153.80000305176</ele>
        <time>2019-09-08T09:42:40Z</time>
      </trkpt>
      <trkpt lat="48.61191" lon="7.81364">
        <ele>153.80000305176</ele>
        <time>2019-09-08T09:42:44Z</time>
      </trkpt>
      <trkpt lat="48.61178" lon="7.81317">
        <ele>153.80000305176</ele>
        <time>2019-09-08T09:42:51Z</time>
      </trkpt>
      <trkpt lat="48.6117" lon="7.81274">
        <ele>153.80000305176</ele>
        <time>2019-09-08T09:42:57Z</time>
      </trkpt>
      <trkpt lat="48.6116" lon="7.81234">
        <ele>154</ele>
        <time>2019-09-08T09:43:02Z</time>
      </trkpt>
      <trkpt lat="48.61157" lon="7.81226">
        <ele>154</ele>
        <time>2019-09-08T09:43:03Z</time>
      </trkpt>
      <trkpt lat="48.61154" lon="7.81219">
        <ele>154</ele>
        <time>2019-09-08T09:43:04Z</time>
      </trkpt>
      <trkpt lat="48.61146" lon="7.81197">
        <ele>154</ele>
        <time>2019-09-08T09:43:07Z</time>
      </trkpt>
      <trkpt lat="48.61143" lon="7.8119">
        <ele>154</ele>
        <time>2019-09-08T09:43:08Z</time>
      </trkpt>
      <trkpt lat="48.61126" lon="7.81164">
        <ele>153.80000305176</ele>
        <time>2019-09-08T09:43:13Z</time>
      </trkpt>
      <trkpt lat="48.61097" lon="7.81137">
        <ele>154</ele>
        <time>2019-09-08T09:43:19Z</time>
      </trkpt>
      <trkpt lat="48.61092" lon="7.81134">
        <ele>154</ele>
        <time>2019-09-08T09:43:20Z</time>
      </trkpt>
      <trkpt lat="48.61064" lon="7.81105">
        <ele>154.19999694824</ele>
        <time>2019-09-08T09:43:26Z</time>
      </trkpt>
      <trkpt lat="48.61051" lon="7.8109">
        <ele>154.19999694824</ele>
        <time>2019-09-08T09:43:29Z</time>
      </trkpt>
      <trkpt lat="48.61044" lon="7.81079">
        <ele>154.19999694824</ele>
        <time>2019-09-08T09:43:31Z</time>
      </trkpt>
      <trkpt lat="48.61022" lon="7.8105">
        <ele>154.19999694824</ele>
        <time>2019-09-08T09:43:37Z</time>
      </trkpt>
      <trkpt lat="48.61002" lon="7.81014">
        <ele>154.19999694824</ele>
        <time>2019-09-08T09:43:44Z</time>
      </trkpt>
      <trkpt lat="48.60979" lon="7.80976">
        <ele>154.19999694824</ele>
        <time>2019-09-08T09:43:51Z</time>
      </trkpt>
      <trkpt lat="48.60974" lon="7.8097">
        <ele>154.19999694824</ele>
        <time>2019-09-08T09:43:52Z</time>
      </trkpt>
      <trkpt lat="48.60957" lon="7.80949">
        <ele>154.19999694824</ele>
        <time>2019-09-08T09:43:56Z</time>
      </trkpt>
      <trkpt lat="48.60941" lon="7.80924">
        <ele>154</ele>
        <time>2019-09-08T09:44:01Z</time>
      </trkpt>
      <trkpt lat="48.60923" lon="7.80888">
        <ele>154.19999694824</ele>
        <time>2019-09-08T09:44:07Z</time>
      </trkpt>
      <trkpt lat="48.60898" lon="7.8085">
        <ele>154.19999694824</ele>
        <time>2019-09-08T09:44:13Z</time>
      </trkpt>
      <trkpt lat="48.60875" lon="7.80819">
        <ele>154.19999694824</ele>
        <time>2019-09-08T09:44:19Z</time>
      </trkpt>
      <trkpt lat="48.60861" lon="7.80787">
        <ele>154</ele>
        <time>2019-09-08T09:44:24Z</time>
      </trkpt>
      <trkpt lat="48.60842" lon="7.80754">
        <ele>154</ele>
        <time>2019-09-08T09:44:30Z</time>
      </trkpt>
      <trkpt lat="48.60825" lon="7.80719">
        <ele>154</ele>
        <time>2019-09-08T09:44:36Z</time>
      </trkpt>
      <trkpt lat="48.60806" lon="7.80682">
        <ele>154</ele>
        <time>2019-09-08T09:44:42Z</time>
      </trkpt>
      <trkpt lat="48.60781" lon="7.80646">
        <ele>154</ele>
        <time>2019-09-08T09:44:48Z</time>
      </trkpt>
      <trkpt lat="48.60768" lon="7.80629">
        <ele>154.19999694824</ele>
        <time>2019-09-08T09:44:51Z</time>
      </trkpt>
      <trkpt lat="48.60757" lon="7.80611">
        <ele>154.19999694824</ele>
        <time>2019-09-08T09:44:54Z</time>
      </trkpt>
      <trkpt lat="48.60736" lon="7.80575">
        <ele>154.19999694824</ele>
        <time>2019-09-08T09:45:00Z</time>
      </trkpt>
      <trkpt lat="48.60714" lon="7.80535">
        <ele>154.19999694824</ele>
        <time>2019-09-08T09:45:06Z</time>
      </trkpt>
      <trkpt lat="48.6069" lon="7.80491">
        <ele>154.39999389648</ele>
        <time>2019-09-08T09:45:12Z</time>
      </trkpt>
      <trkpt lat="48.60681" lon="7.80477">
        <ele>154.39999389648</ele>
        <time>2019-09-08T09:45:14Z</time>
      </trkpt>
      <trkpt lat="48.60666" lon="7.80447">
        <ele>154.39999389648</ele>
        <time>2019-09-08T09:45:18Z</time>
      </trkpt>
      <trkpt lat="48.60648" lon="7.80391">
        <ele>154.39999389648</ele>
        <time>2019-09-08T09:45:25Z</time>
      </trkpt>
      <trkpt lat="48.60633" lon="7.80332">
        <ele>154</ele>
        <time>2019-09-08T09:45:33Z</time>
      </trkpt>
      <trkpt lat="48.60616" lon="7.80278">
        <ele>154</ele>
        <time>2019-09-08T09:45:40Z</time>
      </trkpt>
      <trkpt lat="48.60612" lon="7.80256">
        <ele>154.19999694824</ele>
        <time>2019-09-08T09:45:43Z</time>
      </trkpt>
      <trkpt lat="48.60609" lon="7.80241">
        <ele>154.19999694824</ele>
        <time>2019-09-08T09:45:45Z</time>
      </trkpt>
      <trkpt lat="48.60607" lon="7.80233">
        <ele>154</ele>
        <time>2019-09-08T09:45:46Z</time>
      </trkpt>
      <trkpt lat="48.60603" lon="7.80211">
        <ele>154</ele>
        <time>2019-09-08T09:45:49Z</time>
      </trkpt>
      <trkpt lat="48.60602" lon="7.80203">
        <ele>154</ele>
        <time>2019-09-08T09:45:50Z</time>
      </trkpt>
      <trkpt lat="48.60598" lon="7.80179">
        <ele>153.80000305176</ele>
        <time>2019-09-08T09:45:53Z</time>
      </trkpt>
      <trkpt lat="48.60597" lon="7.80171">
        <ele>153.80000305176</ele>
        <time>2019-09-08T09:45:54Z</time>
      </trkpt>
      <trkpt lat="48.60593" lon="7.80143">
        <ele>153.19999694824</ele>
        <time>2019-09-08T09:45:58Z</time>
      </trkpt>
      <trkpt lat="48.60597" lon="7.80122">
        <ele>152.80000305176</ele>
        <time>2019-09-08T09:46:02Z</time>
      </trkpt>
      <trkpt lat="48.60598" lon="7.80116">
        <ele>152.60000610352</ele>
        <time>2019-09-08T09:46:03Z</time>
      </trkpt>
      <trkpt lat="48.606" lon="7.80104">
        <ele>152.60000610352</ele>
        <time>2019-09-08T09:46:05Z</time>
      </trkpt>
      <trkpt lat="48.60605" lon="7.80082">
        <ele>152.60000610352</ele>
        <time>2019-09-08T09:46:08Z</time>
      </trkpt>
      <trkpt lat="48.60617" lon="7.80054">
        <ele>152.60000610352</ele>
        <time>2019-09-08T09:46:13Z</time>
      </trkpt>
      <trkpt lat="48.60622" lon="7.80033">
        <ele>152.39999389648</ele>
        <time>2019-09-08T09:46:17Z</time>
      </trkpt>
      <trkpt lat="48.60617" lon="7.80011">
        <ele>152.39999389648</ele>
        <time>2019-09-08T09:46:22Z</time>
      </trkpt>
      <trkpt lat="48.60607" lon="7.79981">
        <ele>152.39999389648</ele>
        <time>2019-09-08T09:46:28Z</time>
      </trkpt>
      <trkpt lat="48.60594" lon="7.79948">
        <ele>152.60000610352</ele>
        <time>2019-09-08T09:46:35Z</time>
      </trkpt>
      <trkpt lat="48.60593" lon="7.79941">
        <ele>152.60000610352</ele>
        <time>2019-09-08T09:46:36Z</time>
      </trkpt>
      <trkpt lat="48.60588" lon="7.7992">
        <ele>152.60000610352</ele>
        <time>2019-09-08T09:46:39Z</time>
      </trkpt>
      <trkpt lat="48.60578" lon="7.79901">
        <ele>152.60000610352</ele>
        <time>2019-09-08T09:46:42Z</time>
      </trkpt>
      <trkpt lat="48.60574" lon="7.79896">
        <ele>152.60000610352</ele>
        <time>2019-09-08T09:46:43Z</time>
      </trkpt>
      <trkpt lat="48.60545" lon="7.79865">
        <ele>152.60000610352</ele>
        <time>2019-09-08T09:46:49Z</time>
      </trkpt>
      <trkpt lat="48.60541" lon="7.7986">
        <ele>152.60000610352</ele>
        <time>2019-09-08T09:46:50Z</time>
      </trkpt>
      <trkpt lat="48.60516" lon="7.79842">
        <ele>152.39999389648</ele>
        <time>2019-09-08T09:46:55Z</time>
      </trkpt>
      <trkpt lat="48.60506" lon="7.79838">
        <ele>152.39999389648</ele>
        <time>2019-09-08T09:46:57Z</time>
      </trkpt>
      <trkpt lat="48.60484" lon="7.79834">
        <ele>152.19999694824</ele>
        <time>2019-09-08T09:47:01Z</time>
      </trkpt>
      <trkpt lat="48.60448" lon="7.79826">
        <ele>152.19999694824</ele>
        <time>2019-09-08T09:47:08Z</time>
      </trkpt>
      <trkpt lat="48.60443" lon="7.79823">
        <ele>152</ele>
        <time>2019-09-08T09:47:09Z</time>
      </trkpt>
      <trkpt lat="48.6043" lon="7.79809">
        <ele>152</ele>
        <time>2019-09-08T09:47:12Z</time>
      </trkpt>
      <trkpt lat="48.60427" lon="7.79804">
        <ele>152</ele>
        <time>2019-09-08T09:47:13Z</time>
      </trkpt>
      <trkpt lat="48.60405" lon="7.7976">
        <ele>152</ele>
        <time>2019-09-08T09:47:20Z</time>
      </trkpt>
      <trkpt lat="48.6039" lon="7.79729">
        <ele>152.39999389648</ele>
        <time>2019-09-08T09:47:26Z</time>
      </trkpt>
      <trkpt lat="48.60374" lon="7.79704">
        <ele>152.39999389648</ele>
        <time>2019-09-08T09:47:31Z</time>
      </trkpt>
      <trkpt lat="48.6037" lon="7.7969">
        <ele>152.60000610352</ele>
        <time>2019-09-08T09:47:33Z</time>
      </trkpt>
      <trkpt lat="48.60362" lon="7.79661">
        <ele>152.60000610352</ele>
        <time>2019-09-08T09:47:37Z</time>
      </trkpt>
      <trkpt lat="48.60358" lon="7.79647">
        <ele>152.60000610352</ele>
        <time>2019-09-08T09:47:39Z</time>
      </trkpt>
      <trkpt lat="48.60354" lon="7.79624">
        <ele>152.60000610352</ele>
        <time>2019-09-08T09:47:42Z</time>
      </trkpt>
      <trkpt lat="48.60347" lon="7.79586">
        <ele>152.60000610352</ele>
        <time>2019-09-08T09:47:47Z</time>
      </trkpt>
      <trkpt lat="48.60346" lon="7.79569">
        <ele>152.60000610352</ele>
        <time>2019-09-08T09:47:49Z</time>
      </trkpt>
      <trkpt lat="48.60348" lon="7.79521">
        <ele>152.80000305176</ele>
        <time>2019-09-08T09:47:55Z</time>
      </trkpt>
      <trkpt lat="48.60348" lon="7.79513">
        <ele>152.80000305176</ele>
        <time>2019-09-08T09:47:56Z</time>
      </trkpt>
      <trkpt lat="48.60351" lon="7.79474">
        <ele>152.80000305176</ele>
        <time>2019-09-08T09:48:01Z</time>
      </trkpt>
      <trkpt lat="48.60351" lon="7.7945">
        <ele>152.80000305176</ele>
        <time>2019-09-08T09:48:04Z</time>
      </trkpt>
      <trkpt lat="48.60344" lon="7.7942">
        <ele>152.80000305176</ele>
        <time>2019-09-08T09:48:08Z</time>
      </trkpt>
      <trkpt lat="48.60342" lon="7.79413">
        <ele>152.80000305176</ele>
        <time>2019-09-08T09:48:09Z</time>
      </trkpt>
      <trkpt lat="48.60323" lon="7.79357">
        <ele>152.60000610352</ele>
        <time>2019-09-08T09:48:17Z</time>
      </trkpt>
      <trkpt lat="48.60306" lon="7.79305">
        <ele>152.39999389648</ele>
        <time>2019-09-08T09:48:25Z</time>
      </trkpt>
      <trkpt lat="48.60304" lon="7.79299">
        <ele>152.19999694824</ele>
        <time>2019-09-08T09:48:28Z</time>
      </trkpt>
      <trkpt lat="48.60304" lon="7.79299">
        <ele>152.19999694824</ele>
        <time>2019-09-08T09:48:29Z</time>
      </trkpt>
      <trkpt lat="48.60303" lon="7.79296">
        <ele>152</ele>
        <time>2019-09-08T09:48:36Z</time>
      </trkpt>
      <trkpt lat="48.60303" lon="7.79293">
        <ele>152</ele>
        <time>2019-09-08T09:48:37Z</time>
      </trkpt>
      <trkpt lat="48.60304" lon="7.79289">
        <ele>152</ele>
        <time>2019-09-08T09:48:38Z</time>
      </trkpt>
      <trkpt lat="48.60306" lon="7.79266">
        <ele>152.19999694824</ele>
        <time>2019-09-08T09:48:42Z</time>
      </trkpt>
      <trkpt lat="48.60304" lon="7.79261">
        <ele>152.19999694824</ele>
        <time>2019-09-08T09:48:43Z</time>
      </trkpt>
      <trkpt lat="48.60295" lon="7.7925">
        <ele>152.39999389648</ele>
        <time>2019-09-08T09:48:46Z</time>
      </trkpt>
      <trkpt lat="48.60292" lon="7.79234">
        <ele>152.39999389648</ele>
        <time>2019-09-08T09:48:49Z</time>
      </trkpt>
      <trkpt lat="48.60282" lon="7.79229">
        <ele>152.60000610352</ele>
        <time>2019-09-08T09:48:52Z</time>
      </trkpt>
      <trkpt lat="48.60278" lon="7.7923">
        <ele>152.60000610352</ele>
        <time>2019-09-08T09:48:53Z</time>
      </trkpt>
      <trkpt lat="48.60255" lon="7.79237">
        <ele>153</ele>
        <time>2019-09-08T09:48:59Z</time>
      </trkpt>
      <trkpt lat="48.60231" lon="7.79244">
        <ele>153</ele>
        <time>2019-09-08T09:49:05Z</time>
      </trkpt>
      <trkpt lat="48.60206" lon="7.79245">
        <ele>153</ele>
        <time>2019-09-08T09:49:11Z</time>
      </trkpt>
      <trkpt lat="48.60177" lon="7.79243">
        <ele>153</ele>
        <time>2019-09-08T09:49:17Z</time>
      </trkpt>
      <trkpt lat="48.60171" lon="7.79242">
        <ele>153</ele>
        <time>2019-09-08T09:49:18Z</time>
      </trkpt>
      <trkpt lat="48.60155" lon="7.79231">
        <ele>153</ele>
        <time>2019-09-08T09:49:21Z</time>
      </trkpt>
      <trkpt lat="48.60145" lon="7.79223">
        <ele>153</ele>
        <time>2019-09-08T09:49:23Z</time>
      </trkpt>
      <trkpt lat="48.60107" lon="7.79189">
        <ele>153</ele>
        <time>2019-09-08T09:49:31Z</time>
      </trkpt>
      <trkpt lat="48.60079" lon="7.79163">
        <ele>152.80000305176</ele>
        <time>2019-09-08T09:49:37Z</time>
      </trkpt>
      <trkpt lat="48.60075" lon="7.79159">
        <ele>152.80000305176</ele>
        <time>2019-09-08T09:49:38Z</time>
      </trkpt>
      <trkpt lat="48.60048" lon="7.79133">
        <ele>152.80000305176</ele>
        <time>2019-09-08T09:49:44Z</time>
      </trkpt>
      <trkpt lat="48.60023" lon="7.7911">
        <ele>152.80000305176</ele>
        <time>2019-09-08T09:49:51Z</time>
      </trkpt>
      <trkpt lat="48.59993" lon="7.79094">
        <ele>152.80000305176</ele>
        <time>2019-09-08T09:49:58Z</time>
      </trkpt>
      <trkpt lat="48.59957" lon="7.79083">
        <ele>153</ele>
        <time>2019-09-08T09:50:06Z</time>
      </trkpt>
      <trkpt lat="48.59927" lon="7.7908">
        <ele>153</ele>
        <time>2019-09-08T09:50:12Z</time>
      </trkpt>
      <trkpt lat="48.59912" lon="7.79083">
        <ele>153</ele>
        <time>2019-09-08T09:50:16Z</time>
      </trkpt>
      <trkpt lat="48.59911" lon="7.79085">
        <ele>153</ele>
        <time>2019-09-08T09:50:17Z</time>
      </trkpt>
      <trkpt lat="48.59912" lon="7.79086">
        <ele>152.80000305176</ele>
        <time>2019-09-08T09:50:19Z</time>
      </trkpt>
      <trkpt lat="48.59912" lon="7.79098">
        <ele>152.60000610352</ele>
        <time>2019-09-08T09:50:23Z</time>
      </trkpt>
      <trkpt lat="48.59911" lon="7.79102">
        <ele>152.60000610352</ele>
        <time>2019-09-08T09:50:24Z</time>
      </trkpt>
      <trkpt lat="48.59905" lon="7.79105">
        <ele>152.39999389648</ele>
        <time>2019-09-08T09:50:26Z</time>
      </trkpt>
      <trkpt lat="48.59882" lon="7.79109">
        <ele>152.19999694824</ele>
        <time>2019-09-08T09:50:32Z</time>
      </trkpt>
      <trkpt lat="48.59858" lon="7.79109">
        <ele>152.19999694824</ele>
        <time>2019-09-08T09:50:38Z</time>
      </trkpt>
      <trkpt lat="48.59829" lon="7.79106">
        <ele>152.39999389648</ele>
        <time>2019-09-08T09:50:44Z</time>
      </trkpt>
      <trkpt lat="48.59787" lon="7.79096">
        <ele>152.60000610352</ele>
        <time>2019-09-08T09:50:52Z</time>
      </trkpt>
      <trkpt lat="48.59749" lon="7.79087">
        <ele>152.60000610352</ele>
        <time>2019-09-08T09:50:59Z</time>
      </trkpt>
      <trkpt lat="48.59718" lon="7.79078">
        <ele>152.39999389648</ele>
        <time>2019-09-08T09:51:05Z</time>
      </trkpt>
      <trkpt lat="48.59699" lon="7.79073">
        <ele>152.19999694824</ele>
        <time>2019-09-08T09:51:09Z</time>
      </trkpt>
      <trkpt lat="48.59688" lon="7.79068">
        <ele>152.19999694824</ele>
        <time>2019-09-08T09:51:11Z</time>
      </trkpt>
      <trkpt lat="48.59657" lon="7.79043">
        <ele>152.19999694824</ele>
        <time>2019-09-08T09:51:18Z</time>
      </trkpt>
      <trkpt lat="48.5964" lon="7.79016">
        <ele>152.19999694824</ele>
        <time>2019-09-08T09:51:23Z</time>
      </trkpt>
      <trkpt lat="48.59634" lon="7.79003">
        <ele>152.19999694824</ele>
        <time>2019-09-08T09:51:25Z</time>
      </trkpt>
      <trkpt lat="48.59624" lon="7.78976">
        <ele>152.19999694824</ele>
        <time>2019-09-08T09:51:29Z</time>
      </trkpt>
      <trkpt lat="48.59621" lon="7.78961">
        <ele>152.19999694824</ele>
        <time>2019-09-08T09:51:31Z</time>
      </trkpt>
      <trkpt lat="48.5962" lon="7.78954">
        <ele>152.19999694824</ele>
        <time>2019-09-08T09:51:32Z</time>
      </trkpt>
      <trkpt lat="48.59615" lon="7.78912">
        <ele>152.39999389648</ele>
        <time>2019-09-08T09:51:38Z</time>
      </trkpt>
      <trkpt lat="48.59608" lon="7.78852">
        <ele>152.80000305176</ele>
        <time>2019-09-08T09:51:46Z</time>
      </trkpt>
      <trkpt lat="48.596" lon="7.788">
        <ele>153.19999694824</ele>
        <time>2019-09-08T09:51:53Z</time>
      </trkpt>
      <trkpt lat="48.59595" lon="7.78745">
        <ele>153.39999389648</ele>
        <time>2019-09-08T09:52:00Z</time>
      </trkpt>
      <trkpt lat="48.59584" lon="7.78701">
        <ele>153.60000610352</ele>
        <time>2019-09-08T09:52:06Z</time>
      </trkpt>
      <trkpt lat="48.59571" lon="7.78662">
        <ele>153.60000610352</ele>
        <time>2019-09-08T09:52:12Z</time>
      </trkpt>
      <trkpt lat="48.59568" lon="7.78657">
        <ele>153.60000610352</ele>
        <time>2019-09-08T09:52:13Z</time>
      </trkpt>
      <trkpt lat="48.59556" lon="7.78645">
        <ele>153.60000610352</ele>
        <time>2019-09-08T09:52:16Z</time>
      </trkpt>
      <trkpt lat="48.59548" lon="7.78639">
        <ele>153.60000610352</ele>
        <time>2019-09-08T09:52:18Z</time>
      </trkpt>
      <trkpt lat="48.59529" lon="7.78629">
        <ele>153.60000610352</ele>
        <time>2019-09-08T09:52:23Z</time>
      </trkpt>
      <trkpt lat="48.59521" lon="7.78624">
        <ele>153.60000610352</ele>
        <time>2019-09-08T09:52:25Z</time>
      </trkpt>
      <trkpt lat="48.59512" lon="7.78612">
        <ele>153.60000610352</ele>
        <time>2019-09-08T09:52:28Z</time>
      </trkpt>
      <trkpt lat="48.59508" lon="7.78607">
        <ele>153.60000610352</ele>
        <time>2019-09-08T09:52:29Z</time>
      </trkpt>
      <trkpt lat="48.59496" lon="7.78583">
        <ele>153.39999389648</ele>
        <time>2019-09-08T09:52:33Z</time>
      </trkpt>
      <trkpt lat="48.59467" lon="7.78539">
        <ele>153.19999694824</ele>
        <time>2019-09-08T09:52:40Z</time>
      </trkpt>
      <trkpt lat="48.59452" lon="7.78521">
        <ele>153.19999694824</ele>
        <time>2019-09-08T09:52:43Z</time>
      </trkpt>
      <trkpt lat="48.59441" lon="7.78505">
        <ele>153</ele>
        <time>2019-09-08T09:52:46Z</time>
      </trkpt>
      <trkpt lat="48.59437" lon="7.785">
        <ele>153</ele>
        <time>2019-09-08T09:52:47Z</time>
      </trkpt>
      <trkpt lat="48.5943" lon="7.7849">
        <ele>153</ele>
        <time>2019-09-08T09:52:49Z</time>
      </trkpt>
      <trkpt lat="48.59422" lon="7.78479">
        <ele>153</ele>
        <time>2019-09-08T09:52:51Z</time>
      </trkpt>
      <trkpt lat="48.59417" lon="7.78474">
        <ele>153</ele>
        <time>2019-09-08T09:52:52Z</time>
      </trkpt>
      <trkpt lat="48.5939" lon="7.78434">
        <ele>152.80000305176</ele>
        <time>2019-09-08T09:52:59Z</time>
      </trkpt>
      <trkpt lat="48.59366" lon="7.78403">
        <ele>152.60000610352</ele>
        <time>2019-09-08T09:53:05Z</time>
      </trkpt>
      <trkpt lat="48.59333" lon="7.78362">
        <ele>152.60000610352</ele>
        <time>2019-09-08T09:53:14Z</time>
      </trkpt>
      <trkpt lat="48.59309" lon="7.78332">
        <ele>152.39999389648</ele>
        <time>2019-09-08T09:53:21Z</time>
      </trkpt>
      <trkpt lat="48.59299" lon="7.78319">
        <ele>152.39999389648</ele>
        <time>2019-09-08T09:53:24Z</time>
      </trkpt>
      <trkpt lat="48.59295" lon="7.78315">
        <ele>152.39999389648</ele>
        <time>2019-09-08T09:53:25Z</time>
      </trkpt>
      <trkpt lat="48.59276" lon="7.78299">
        <ele>152.39999389648</ele>
        <time>2019-09-08T09:53:29Z</time>
      </trkpt>
      <trkpt lat="48.59261" lon="7.78291">
        <ele>152.39999389648</ele>
        <time>2019-09-08T09:53:32Z</time>
      </trkpt>
      <trkpt lat="48.59233" lon="7.78286">
        <ele>152.80000305176</ele>
        <time>2019-09-08T09:53:38Z</time>
      </trkpt>
      <trkpt lat="48.5922" lon="7.78281">
        <ele>153.19999694824</ele>
        <time>2019-09-08T09:53:42Z</time>
      </trkpt>
      <trkpt lat="48.59188" lon="7.78266">
        <ele>153.80000305176</ele>
        <time>2019-09-08T09:53:49Z</time>
      </trkpt>
      <trkpt lat="48.59174" lon="7.78261">
        <ele>154.19999694824</ele>
        <time>2019-09-08T09:53:52Z</time>
      </trkpt>
      <trkpt lat="48.59166" lon="7.78257">
        <ele>154.60000610352</ele>
        <time>2019-09-08T09:53:54Z</time>
      </trkpt>
      <trkpt lat="48.59157" lon="7.78247">
        <ele>155</ele>
        <time>2019-09-08T09:53:57Z</time>
      </trkpt>
      <trkpt lat="48.59149" lon="7.78242">
        <ele>155.39999389648</ele>
        <time>2019-09-08T09:53:59Z</time>
      </trkpt>
      <trkpt lat="48.59142" lon="7.78238">
        <ele>155.60000610352</ele>
        <time>2019-09-08T09:54:01Z</time>
      </trkpt>
      <trkpt lat="48.59117" lon="7.78229">
        <ele>156.39999389648</ele>
        <time>2019-09-08T09:54:08Z</time>
      </trkpt>
      <trkpt lat="48.59115" lon="7.78228">
        <ele>156.39999389648</ele>
        <time>2019-09-08T09:54:11Z</time>
      </trkpt>
      <trkpt lat="48.59113" lon="7.78232">
        <ele>156.39999389648</ele>
        <time>2019-09-08T09:54:20Z</time>
      </trkpt>
      <trkpt lat="48.59112" lon="7.78234">
        <ele>156.39999389648</ele>
        <time>2019-09-08T09:54:21Z</time>
      </trkpt>
      <trkpt lat="48.59109" lon="7.78256">
        <ele>156.39999389648</ele>
        <time>2019-09-08T09:54:25Z</time>
      </trkpt>
      <trkpt lat="48.59106" lon="7.78278">
        <ele>156.19999694824</ele>
        <time>2019-09-08T09:54:29Z</time>
      </trkpt>
      <trkpt lat="48.59106" lon="7.78284">
        <ele>156</ele>
        <time>2019-09-08T09:54:30Z</time>
      </trkpt>
      <trkpt lat="48.59102" lon="7.78324">
        <ele>154.80000305176</ele>
        <time>2019-09-08T09:54:37Z</time>
      </trkpt>
      <trkpt lat="48.59095" lon="7.78375">
        <ele>154.39999389648</ele>
        <time>2019-09-08T09:54:44Z</time>
      </trkpt>
      <trkpt lat="48.59089" lon="7.7843">
        <ele>154.60000610352</ele>
        <time>2019-09-08T09:54:51Z</time>
      </trkpt>
      <trkpt lat="48.59082" lon="7.78485">
        <ele>154.60000610352</ele>
        <time>2019-09-08T09:54:58Z</time>
      </trkpt>
      <trkpt lat="48.59074" lon="7.78547">
        <ele>154.60000610352</ele>
        <time>2019-09-08T09:55:06Z</time>
      </trkpt>
      <trkpt lat="48.59067" lon="7.78602">
        <ele>154.60000610352</ele>
        <time>2019-09-08T09:55:13Z</time>
      </trkpt>
      <trkpt lat="48.59066" lon="7.78609">
        <ele>154.60000610352</ele>
        <time>2019-09-08T09:55:14Z</time>
      </trkpt>
      <trkpt lat="48.59062" lon="7.78656">
        <ele>154.39999389648</ele>
        <time>2019-09-08T09:55:20Z</time>
      </trkpt>
      <trkpt lat="48.59058" lon="7.7868">
        <ele>154.39999389648</ele>
        <time>2019-09-08T09:55:24Z</time>
      </trkpt>
      <trkpt lat="48.59058" lon="7.78686">
        <ele>154.39999389648</ele>
        <time>2019-09-08T09:55:25Z</time>
      </trkpt>
      <trkpt lat="48.59056" lon="7.78698">
        <ele>154.39999389648</ele>
        <time>2019-09-08T09:55:27Z</time>
      </trkpt>
      <trkpt lat="48.59053" lon="7.78727">
        <ele>154.39999389648</ele>
        <time>2019-09-08T09:55:31Z</time>
      </trkpt>
      <trkpt lat="48.59053" lon="7.7874">
        <ele>154.39999389648</ele>
        <time>2019-09-08T09:55:34Z</time>
      </trkpt>
      <trkpt lat="48.59053" lon="7.7874">
        <ele>154.19999694824</ele>
        <time>2019-09-08T09:55:36Z</time>
      </trkpt>
      <trkpt lat="48.59054" lon="7.78741">
        <ele>154</ele>
        <time>2019-09-08T09:56:06Z</time>
      </trkpt>
      <trkpt lat="48.59054" lon="7.78743">
        <ele>154</ele>
        <time>2019-09-08T09:56:07Z</time>
      </trkpt>
      <trkpt lat="48.59049" lon="7.78759">
        <ele>154</ele>
        <time>2019-09-08T09:56:11Z</time>
      </trkpt>
      <trkpt lat="48.59041" lon="7.78762">
        <ele>153.80000305176</ele>
        <time>2019-09-08T09:56:13Z</time>
      </trkpt>
      <trkpt lat="48.59037" lon="7.7876">
        <ele>153.80000305176</ele>
        <time>2019-09-08T09:56:14Z</time>
      </trkpt>
      <trkpt lat="48.59015" lon="7.78749">
        <ele>153.60000610352</ele>
        <time>2019-09-08T09:56:19Z</time>
      </trkpt>
      <trkpt lat="48.59006" lon="7.78745">
        <ele>153.39999389648</ele>
        <time>2019-09-08T09:56:21Z</time>
      </trkpt>
      <trkpt lat="48.58965" lon="7.78725">
        <ele>153.19999694824</ele>
        <time>2019-09-08T09:56:30Z</time>
      </trkpt>
      <trkpt lat="48.58952" lon="7.78717">
        <ele>153.19999694824</ele>
        <time>2019-09-08T09:56:33Z</time>
      </trkpt>
      <trkpt lat="48.58949" lon="7.78712">
        <ele>153.19999694824</ele>
        <time>2019-09-08T09:56:34Z</time>
      </trkpt>
      <trkpt lat="48.58947" lon="7.78693">
        <ele>153.19999694824</ele>
        <time>2019-09-08T09:56:37Z</time>
      </trkpt>
      <trkpt lat="48.58937" lon="7.78683">
        <ele>153.19999694824</ele>
        <time>2019-09-08T09:56:40Z</time>
      </trkpt>
      <trkpt lat="48.58933" lon="7.7868">
        <ele>153.19999694824</ele>
        <time>2019-09-08T09:56:41Z</time>
      </trkpt>
      <trkpt lat="48.58911" lon="7.78662">
        <ele>153.19999694824</ele>
        <time>2019-09-08T09:56:47Z</time>
      </trkpt>
      <trkpt lat="48.58887" lon="7.7865">
        <ele>153.19999694824</ele>
        <time>2019-09-08T09:56:53Z</time>
      </trkpt>
      <trkpt lat="48.58868" lon="7.7864">
        <ele>153.19999694824</ele>
        <time>2019-09-08T09:56:58Z</time>
      </trkpt>
      <trkpt lat="48.58839" lon="7.78625">
        <ele>153.19999694824</ele>
        <time>2019-09-08T09:57:04Z</time>
      </trkpt>
      <trkpt lat="48.58812" lon="7.78612">
        <ele>153.19999694824</ele>
        <time>2019-09-08T09:57:10Z</time>
      </trkpt>
      <trkpt lat="48.58792" lon="7.78601">
        <ele>153.19999694824</ele>
        <time>2019-09-08T09:57:14Z</time>
      </trkpt>
      <trkpt lat="48.58782" lon="7.78597">
        <ele>153.19999694824</ele>
        <time>2019-09-08T09:57:16Z</time>
      </trkpt>
      <trkpt lat="48.58758" lon="7.78588">
        <ele>153.19999694824</ele>
        <time>2019-09-08T09:57:21Z</time>
      </trkpt>
      <trkpt lat="48.5873" lon="7.78573">
        <ele>153.19999694824</ele>
        <time>2019-09-08T09:57:27Z</time>
      </trkpt>
      <trkpt lat="48.58694" lon="7.78555">
        <ele>153.19999694824</ele>
        <time>2019-09-08T09:57:34Z</time>
      </trkpt>
      <trkpt lat="48.58665" lon="7.78542">
        <ele>153</ele>
        <time>2019-09-08T09:57:40Z</time>
      </trkpt>
      <trkpt lat="48.5865" lon="7.78535">
        <ele>153</ele>
        <time>2019-09-08T09:57:43Z</time>
      </trkpt>
      <trkpt lat="48.58642" lon="7.78529">
        <ele>153</ele>
        <time>2019-09-08T09:57:45Z</time>
      </trkpt>
      <trkpt lat="48.58608" lon="7.7851">
        <ele>153</ele>
        <time>2019-09-08T09:57:51Z</time>
      </trkpt>
      <trkpt lat="48.58585" lon="7.78497">
        <ele>153</ele>
        <time>2019-09-08T09:57:56Z</time>
      </trkpt>
      <trkpt lat="48.58579" lon="7.78494">
        <ele>153</ele>
        <time>2019-09-08T09:57:57Z</time>
      </trkpt>
      <trkpt lat="48.58552" lon="7.78474">
        <ele>153.19999694824</ele>
        <time>2019-09-08T09:58:03Z</time>
      </trkpt>
      <trkpt lat="48.5852" lon="7.78452">
        <ele>153.19999694824</ele>
        <time>2019-09-08T09:58:09Z</time>
      </trkpt>
      <trkpt lat="48.58491" lon="7.78429">
        <ele>153.19999694824</ele>
        <time>2019-09-08T09:58:15Z</time>
      </trkpt>
      <trkpt lat="48.58462" lon="7.78408">
        <ele>153.19999694824</ele>
        <time>2019-09-08T09:58:21Z</time>
      </trkpt>
      <trkpt lat="48.58433" lon="7.78383">
        <ele>153.19999694824</ele>
        <time>2019-09-08T09:58:28Z</time>
      </trkpt>
      <trkpt lat="48.58411" lon="7.78364">
        <ele>153.39999389648</ele>
        <time>2019-09-08T09:58:33Z</time>
      </trkpt>
      <trkpt lat="48.58407" lon="7.7836">
        <ele>153.39999389648</ele>
        <time>2019-09-08T09:58:34Z</time>
      </trkpt>
      <trkpt lat="48.58376" lon="7.78335">
        <ele>153.39999389648</ele>
        <time>2019-09-08T09:58:41Z</time>
      </trkpt>
      <trkpt lat="48.58343" lon="7.78309">
        <ele>153.19999694824</ele>
        <time>2019-09-08T09:58:48Z</time>
      </trkpt>
      <trkpt lat="48.58314" lon="7.78288">
        <ele>153.19999694824</ele>
        <time>2019-09-08T09:58:54Z</time>
      </trkpt>
      <trkpt lat="48.58285" lon="7.78268">
        <ele>153.19999694824</ele>
        <time>2019-09-08T09:59:00Z</time>
      </trkpt>
      <trkpt lat="48.58242" lon="7.78237">
        <ele>153.19999694824</ele>
        <time>2019-09-08T09:59:09Z</time>
      </trkpt>
      <trkpt lat="48.58214" lon="7.78222">
        <ele>153.19999694824</ele>
        <time>2019-09-08T09:59:15Z</time>
      </trkpt>
      <trkpt lat="48.58187" lon="7.78209">
        <ele>153.19999694824</ele>
        <time>2019-09-08T09:59:21Z</time>
      </trkpt>
      <trkpt lat="48.58166" lon="7.78198">
        <ele>153.19999694824</ele>
        <time>2019-09-08T09:59:26Z</time>
      </trkpt>
      <trkpt lat="48.58141" lon="7.7819">
        <ele>153.19999694824</ele>
        <time>2019-09-08T09:59:31Z</time>
      </trkpt>
      <trkpt lat="48.58125" lon="7.78185">
        <ele>153.19999694824</ele>
        <time>2019-09-08T09:59:34Z</time>
      </trkpt>
      <trkpt lat="48.58112" lon="7.78185">
        <ele>153.19999694824</ele>
        <time>2019-09-08T09:59:36Z</time>
      </trkpt>
      <trkpt lat="48.58069" lon="7.78182">
        <ele>153</ele>
        <time>2019-09-08T09:59:43Z</time>
      </trkpt>
      <trkpt lat="48.58033" lon="7.78176">
        <ele>153</ele>
        <time>2019-09-08T09:59:49Z</time>
      </trkpt>
      <trkpt lat="48.58021" lon="7.78172">
        <ele>153</ele>
        <time>2019-09-08T09:59:51Z</time>
      </trkpt>
      <trkpt lat="48.57981" lon="7.78163">
        <ele>153</ele>
        <time>2019-09-08T09:59:58Z</time>
      </trkpt>
      <trkpt lat="48.57935" lon="7.78148">
        <ele>152.80000305176</ele>
        <time>2019-09-08T10:00:07Z</time>
      </trkpt>
      <trkpt lat="48.57895" lon="7.78131">
        <ele>152.80000305176</ele>
        <time>2019-09-08T10:00:15Z</time>
      </trkpt>
      <trkpt lat="48.57868" lon="7.78119">
        <ele>152.80000305176</ele>
        <time>2019-09-08T10:00:22Z</time>
      </trkpt>
      <trkpt lat="48.57853" lon="7.78113">
        <ele>152.80000305176</ele>
        <time>2019-09-08T10:00:28Z</time>
      </trkpt>
      <trkpt lat="48.57853" lon="7.78113">
        <ele>152.80000305176</ele>
        <time>2019-09-08T10:00:30Z</time>
      </trkpt>
      <trkpt lat="48.57852" lon="7.78112">
        <ele>152.80000305176</ele>
        <time>2019-09-08T10:00:49Z</time>
      </trkpt>
      <trkpt lat="48.57852" lon="7.7811">
        <ele>152.80000305176</ele>
        <time>2019-09-08T10:00:50Z</time>
      </trkpt>
      <trkpt lat="48.57843" lon="7.78101">
        <ele>152.80000305176</ele>
        <time>2019-09-08T10:00:54Z</time>
      </trkpt>
      <trkpt lat="48.57823" lon="7.78085">
        <ele>153</ele>
        <time>2019-09-08T10:01:00Z</time>
      </trkpt>
      <trkpt lat="48.57804" lon="7.78068">
        <ele>153</ele>
        <time>2019-09-08T10:01:05Z</time>
      </trkpt>
      <trkpt lat="48.57795" lon="7.78062">
        <ele>153</ele>
        <time>2019-09-08T10:01:07Z</time>
      </trkpt>
      <trkpt lat="48.57782" lon="7.78054">
        <ele>153</ele>
        <time>2019-09-08T10:01:10Z</time>
      </trkpt>
      <trkpt lat="48.57774" lon="7.78047">
        <ele>153</ele>
        <time>2019-09-08T10:01:12Z</time>
      </trkpt>
      <trkpt lat="48.57763" lon="7.78037">
        <ele>153</ele>
        <time>2019-09-08T10:01:15Z</time>
      </trkpt>
      <trkpt lat="48.57752" lon="7.78025">
        <ele>153</ele>
        <time>2019-09-08T10:01:18Z</time>
      </trkpt>
      <trkpt lat="48.57725" lon="7.77998">
        <ele>153</ele>
        <time>2019-09-08T10:01:25Z</time>
      </trkpt>
      <trkpt lat="48.57694" lon="7.77966">
        <ele>153</ele>
        <time>2019-09-08T10:01:33Z</time>
      </trkpt>
      <trkpt lat="48.57672" lon="7.77941">
        <ele>153</ele>
        <time>2019-09-08T10:01:39Z</time>
      </trkpt>
      <trkpt lat="48.57658" lon="7.77924">
        <ele>152.80000305176</ele>
        <time>2019-09-08T10:01:43Z</time>
      </trkpt>
      <trkpt lat="48.57631" lon="7.77897">
        <ele>152.80000305176</ele>
        <time>2019-09-08T10:01:50Z</time>
      </trkpt>
      <trkpt lat="48.57617" lon="7.77879">
        <ele>153</ele>
        <time>2019-09-08T10:01:54Z</time>
      </trkpt>
      <trkpt lat="48.57609" lon="7.77868">
        <ele>153</ele>
        <time>2019-09-08T10:01:56Z</time>
      </trkpt>
      <trkpt lat="48.5757" lon="7.77821">
        <ele>153</ele>
        <time>2019-09-08T10:02:05Z</time>
      </trkpt>
      <trkpt lat="48.57535" lon="7.77776">
        <ele>153</ele>
        <time>2019-09-08T10:02:13Z</time>
      </trkpt>
      <trkpt lat="48.57503" lon="7.77714">
        <ele>153.19999694824</ele>
        <time>2019-09-08T10:02:23Z</time>
      </trkpt>
      <trkpt lat="48.5748" lon="7.77667">
        <ele>153.60000610352</ele>
        <time>2019-09-08T10:02:31Z</time>
      </trkpt>
      <trkpt lat="48.57459" lon="7.77615">
        <ele>153.80000305176</ele>
        <time>2019-09-08T10:02:39Z</time>
      </trkpt>
      <trkpt lat="48.57445" lon="7.77576">
        <ele>153.80000305176</ele>
        <time>2019-09-08T10:02:45Z</time>
      </trkpt>
      <trkpt lat="48.57443" lon="7.7757">
        <ele>154</ele>
        <time>2019-09-08T10:02:46Z</time>
      </trkpt>
      <trkpt lat="48.57432" lon="7.77529">
        <ele>154.19999694824</ele>
        <time>2019-09-08T10:02:52Z</time>
      </trkpt>
      <trkpt lat="48.5743" lon="7.77522">
        <ele>154.19999694824</ele>
        <time>2019-09-08T10:02:53Z</time>
      </trkpt>
      <trkpt lat="48.57418" lon="7.77463">
        <ele>154.60000610352</ele>
        <time>2019-09-08T10:03:01Z</time>
      </trkpt>
      <trkpt lat="48.57414" lon="7.7744">
        <ele>154.60000610352</ele>
        <time>2019-09-08T10:03:04Z</time>
      </trkpt>
      <trkpt lat="48.57412" lon="7.77416">
        <ele>154.60000610352</ele>
        <time>2019-09-08T10:03:07Z</time>
      </trkpt>
      <trkpt lat="48.57407" lon="7.77337">
        <ele>154.80000305176</ele>
        <time>2019-09-08T10:03:17Z</time>
      </trkpt>
      <trkpt lat="48.57408" lon="7.77274">
        <ele>154.80000305176</ele>
        <time>2019-09-08T10:03:25Z</time>
      </trkpt>
      <trkpt lat="48.57412" lon="7.77197">
        <ele>154.80000305176</ele>
        <time>2019-09-08T10:03:35Z</time>
      </trkpt>
      <trkpt lat="48.57416" lon="7.77137">
        <ele>155</ele>
        <time>2019-09-08T10:03:44Z</time>
      </trkpt>
      <trkpt lat="48.57411" lon="7.77129">
        <ele>155</ele>
        <time>2019-09-08T10:03:47Z</time>
      </trkpt>
      <trkpt lat="48.57407" lon="7.77127">
        <ele>155.19999694824</ele>
        <time>2019-09-08T10:03:51Z</time>
      </trkpt>
      <trkpt lat="48.57407" lon="7.77127">
        <ele>155.19999694824</ele>
        <time>2019-09-08T10:03:52Z</time>
      </trkpt>
      <trkpt lat="48.57407" lon="7.77125">
        <ele>155.39999389648</ele>
        <time>2019-09-08T10:04:10Z</time>
      </trkpt>
      <trkpt lat="48.57408" lon="7.77119">
        <ele>155.39999389648</ele>
        <time>2019-09-08T10:04:12Z</time>
      </trkpt>
      <trkpt lat="48.5741" lon="7.77106">
        <ele>155.39999389648</ele>
        <time>2019-09-08T10:04:15Z</time>
      </trkpt>
      <trkpt lat="48.57415" lon="7.77101">
        <ele>155.39999389648</ele>
        <time>2019-09-08T10:04:17Z</time>
      </trkpt>
      <trkpt lat="48.5742" lon="7.77088">
        <ele>155.39999389648</ele>
        <time>2019-09-08T10:04:20Z</time>
      </trkpt>
      <trkpt lat="48.57421" lon="7.77081">
        <ele>155.39999389648</ele>
        <time>2019-09-08T10:04:21Z</time>
      </trkpt>
      <trkpt lat="48.57422" lon="7.7706">
        <ele>155.39999389648</ele>
        <time>2019-09-08T10:04:24Z</time>
      </trkpt>
      <trkpt lat="48.57425" lon="7.77037">
        <ele>155.19999694824</ele>
        <time>2019-09-08T10:04:27Z</time>
      </trkpt>
      <trkpt lat="48.57431" lon="7.76979">
        <ele>154.60000610352</ele>
        <time>2019-09-08T10:04:35Z</time>
      </trkpt>
      <trkpt lat="48.57437" lon="7.76919">
        <ele>154.39999389648</ele>
        <time>2019-09-08T10:04:43Z</time>
      </trkpt>
      <trkpt lat="48.57443" lon="7.7685">
        <ele>154.39999389648</ele>
        <time>2019-09-08T10:04:52Z</time>
      </trkpt>
      <trkpt lat="48.57447" lon="7.76804">
        <ele>154.39999389648</ele>
        <time>2019-09-08T10:04:58Z</time>
      </trkpt>
      <trkpt lat="48.57452" lon="7.76738">
        <ele>154.60000610352</ele>
        <time>2019-09-08T10:05:07Z</time>
      </trkpt>
      <trkpt lat="48.57453" lon="7.76715">
        <ele>154.60000610352</ele>
        <time>2019-09-08T10:05:12Z</time>
      </trkpt>
      <trkpt lat="48.57452" lon="7.76712">
        <ele>154.80000305176</ele>
        <time>2019-09-08T10:05:17Z</time>
      </trkpt>
      <trkpt lat="48.57451" lon="7.7671">
        <ele>155.39999389648</ele>
        <time>2019-09-08T10:05:29Z</time>
      </trkpt>
      <trkpt lat="48.57452" lon="7.767">
        <ele>155.39999389648</ele>
        <time>2019-09-08T10:05:32Z</time>
      </trkpt>
      <trkpt lat="48.57456" lon="7.76666">
        <ele>155.39999389648</ele>
        <time>2019-09-08T10:05:38Z</time>
      </trkpt>
      <trkpt lat="48.57462" lon="7.76618">
        <ele>155.19999694824</ele>
        <time>2019-09-08T10:05:45Z</time>
      </trkpt>
      <trkpt lat="48.57466" lon="7.76559">
        <ele>154.60000610352</ele>
        <time>2019-09-08T10:05:53Z</time>
      </trkpt>
      <trkpt lat="48.57468" lon="7.76537">
        <ele>154.60000610352</ele>
        <time>2019-09-08T10:05:56Z</time>
      </trkpt>
      <trkpt lat="48.5747" lon="7.76513">
        <ele>154.60000610352</ele>
        <time>2019-09-08T10:05:59Z</time>
      </trkpt>
      <trkpt lat="48.57472" lon="7.76461">
        <ele>154.60000610352</ele>
        <time>2019-09-08T10:06:06Z</time>
      </trkpt>
      <trkpt lat="48.57474" lon="7.76425">
        <ele>154.80000305176</ele>
        <time>2019-09-08T10:06:11Z</time>
      </trkpt>
      <trkpt lat="48.57475" lon="7.76402">
        <ele>154.80000305176</ele>
        <time>2019-09-08T10:06:14Z</time>
      </trkpt>
      <trkpt lat="48.57479" lon="7.76372">
        <ele>155</ele>
        <time>2019-09-08T10:06:18Z</time>
      </trkpt>
      <trkpt lat="48.57481" lon="7.76349">
        <ele>155</ele>
        <time>2019-09-08T10:06:21Z</time>
      </trkpt>
      <trkpt lat="48.57484" lon="7.76319">
        <ele>155</ele>
        <time>2019-09-08T10:06:25Z</time>
      </trkpt>
      <trkpt lat="48.57487" lon="7.76279">
        <ele>155</ele>
        <time>2019-09-08T10:06:31Z</time>
      </trkpt>
      <trkpt lat="48.5749" lon="7.76228">
        <ele>155</ele>
        <time>2019-09-08T10:06:38Z</time>
      </trkpt>
      <trkpt lat="48.57492" lon="7.76193">
        <ele>155</ele>
        <time>2019-09-08T10:06:43Z</time>
      </trkpt>
      <trkpt lat="48.57494" lon="7.76179">
        <ele>155</ele>
        <time>2019-09-08T10:06:45Z</time>
      </trkpt>
      <trkpt lat="48.57497" lon="7.76135">
        <ele>155</ele>
        <time>2019-09-08T10:06:51Z</time>
      </trkpt>
      <trkpt lat="48.57498" lon="7.7612">
        <ele>155</ele>
        <time>2019-09-08T10:06:53Z</time>
      </trkpt>
      <trkpt lat="48.57503" lon="7.76066">
        <ele>154.80000305176</ele>
        <time>2019-09-08T10:07:00Z</time>
      </trkpt>
      <trkpt lat="48.57508" lon="7.76013">
        <ele>154.80000305176</ele>
        <time>2019-09-08T10:07:07Z</time>
      </trkpt>
      <trkpt lat="48.57512" lon="7.75971">
        <ele>154.80000305176</ele>
        <time>2019-09-08T10:07:13Z</time>
      </trkpt>
      <trkpt lat="48.57513" lon="7.75967">
        <ele>154.80000305176</ele>
        <time>2019-09-08T10:07:15Z</time>
      </trkpt>
      <trkpt lat="48.57516" lon="7.75966">
        <ele>154.60000610352</ele>
        <time>2019-09-08T10:07:17Z</time>
      </trkpt>
      <trkpt lat="48.57525" lon="7.75962">
        <ele>154.80000305176</ele>
        <time>2019-09-08T10:07:22Z</time>
      </trkpt>
      <trkpt lat="48.57526" lon="7.75961">
        <ele>155</ele>
        <time>2019-09-08T10:07:23Z</time>
      </trkpt>
      <trkpt lat="48.57529" lon="7.75959">
        <ele>155</ele>
        <time>2019-09-08T10:07:30Z</time>
      </trkpt>
      <trkpt lat="48.57529" lon="7.75958">
        <ele>155.19999694824</ele>
        <time>2019-09-08T10:07:31Z</time>
      </trkpt>
      <trkpt lat="48.57526" lon="7.75958">
        <ele>155.19999694824</ele>
        <time>2019-09-08T10:07:40Z</time>
      </trkpt>
      <trkpt lat="48.57525" lon="7.75958">
        <ele>155.19999694824</ele>
        <time>2019-09-08T10:07:43Z</time>
      </trkpt>
      <trkpt lat="48.5752" lon="7.75955">
        <ele>155.19999694824</ele>
        <time>2019-09-08T10:09:58Z</time>
      </trkpt>
      <trkpt lat="48.57521" lon="7.7595">
        <ele>155.19999694824</ele>
        <time>2019-09-08T10:10:00Z</time>
      </trkpt>
      <trkpt lat="48.57523" lon="7.75947">
        <ele>155.19999694824</ele>
        <time>2019-09-08T10:10:02Z</time>
      </trkpt>
      <trkpt lat="48.57522" lon="7.75937">
        <ele>155.19999694824</ele>
        <time>2019-09-08T10:10:07Z</time>
      </trkpt>
      <trkpt lat="48.5752" lon="7.75935">
        <ele>155.19999694824</ele>
        <time>2019-09-08T10:10:08Z</time>
      </trkpt>
      <trkpt lat="48.57515" lon="7.75926">
        <ele>155.19999694824</ele>
        <time>2019-09-08T10:10:12Z</time>
      </trkpt>
      <trkpt lat="48.57516" lon="7.75917">
        <ele>155.19999694824</ele>
        <time>2019-09-08T10:10:14Z</time>
      </trkpt>
      <trkpt lat="48.57516" lon="7.75901">
        <ele>155.19999694824</ele>
        <time>2019-09-08T10:10:17Z</time>
      </trkpt>
      <trkpt lat="48.57518" lon="7.75862">
        <ele>155</ele>
        <time>2019-09-08T10:10:23Z</time>
      </trkpt>
      <trkpt lat="48.57518" lon="7.75815">
        <ele>155</ele>
        <time>2019-09-08T10:10:30Z</time>
      </trkpt>
      <trkpt lat="48.57519" lon="7.75771">
        <ele>155.19999694824</ele>
        <time>2019-09-08T10:10:36Z</time>
      </trkpt>
      <trkpt lat="48.57522" lon="7.75709">
        <ele>155.19999694824</ele>
        <time>2019-09-08T10:10:44Z</time>
      </trkpt>
      <trkpt lat="48.57522" lon="7.75682">
        <ele>155</ele>
        <time>2019-09-08T10:10:48Z</time>
      </trkpt>
      <trkpt lat="48.57522" lon="7.75669">
        <ele>155</ele>
        <time>2019-09-08T10:10:50Z</time>
      </trkpt>
      <trkpt lat="48.57523" lon="7.75628">
        <ele>155</ele>
        <time>2019-09-08T10:10:56Z</time>
      </trkpt>
      <trkpt lat="48.57525" lon="7.75595">
        <ele>155.19999694824</ele>
        <time>2019-09-08T10:11:01Z</time>
      </trkpt>
      <trkpt lat="48.57526" lon="7.75561">
        <ele>155.19999694824</ele>
        <time>2019-09-08T10:11:05Z</time>
      </trkpt>
      <trkpt lat="48.57527" lon="7.75542">
        <ele>155.39999389648</ele>
        <time>2019-09-08T10:11:07Z</time>
      </trkpt>
      <trkpt lat="48.57523" lon="7.755">
        <ele>155.60000610352</ele>
        <time>2019-09-08T10:11:13Z</time>
      </trkpt>
      <trkpt lat="48.5752" lon="7.75489">
        <ele>155.80000305176</ele>
        <time>2019-09-08T10:11:17Z</time>
      </trkpt>
      <trkpt lat="48.5752" lon="7.75489">
        <ele>156</ele>
        <time>2019-09-08T10:11:18Z</time>
      </trkpt>
      <trkpt lat="48.57519" lon="7.75487">
        <ele>156.19999694824</ele>
        <time>2019-09-08T10:11:23Z</time>
      </trkpt>
      <trkpt lat="48.57518" lon="7.75485">
        <ele>156.19999694824</ele>
        <time>2019-09-08T10:11:26Z</time>
      </trkpt>
      <trkpt lat="48.57518" lon="7.75481">
        <ele>156.19999694824</ele>
        <time>2019-09-08T10:12:05Z</time>
      </trkpt>
      <trkpt lat="48.57517" lon="7.75475">
        <ele>156.19999694824</ele>
        <time>2019-09-08T10:12:07Z</time>
      </trkpt>
      <trkpt lat="48.57516" lon="7.75449">
        <ele>156.39999389648</ele>
        <time>2019-09-08T10:12:13Z</time>
      </trkpt>
      <trkpt lat="48.57514" lon="7.75427">
        <ele>156.60000610352</ele>
        <time>2019-09-08T10:12:18Z</time>
      </trkpt>
      <trkpt lat="48.57514" lon="7.75396">
        <ele>156.60000610352</ele>
        <time>2019-09-08T10:12:24Z</time>
      </trkpt>
      <trkpt lat="48.5751" lon="7.75373">
        <ele>156.60000610352</ele>
        <time>2019-09-08T10:12:30Z</time>
      </trkpt>
      <trkpt lat="48.57508" lon="7.75349">
        <ele>156.60000610352</ele>
        <time>2019-09-08T10:12:35Z</time>
      </trkpt>
      <trkpt lat="48.57506" lon="7.7532">
        <ele>156.60000610352</ele>
        <time>2019-09-08T10:12:40Z</time>
      </trkpt>
      <trkpt lat="48.57504" lon="7.75292">
        <ele>156.60000610352</ele>
        <time>2019-09-08T10:12:44Z</time>
      </trkpt>
      <trkpt lat="48.57502" lon="7.75278">
        <ele>156.60000610352</ele>
        <time>2019-09-08T10:12:46Z</time>
      </trkpt>
      <trkpt lat="48.57497" lon="7.75231">
        <ele>156.39999389648</ele>
        <time>2019-09-08T10:12:53Z</time>
      </trkpt>
      <trkpt lat="48.57489" lon="7.75181">
        <ele>156.19999694824</ele>
        <time>2019-09-08T10:13:00Z</time>
      </trkpt>
      <trkpt lat="48.57481" lon="7.75126">
        <ele>156.19999694824</ele>
        <time>2019-09-08T10:13:08Z</time>
      </trkpt>
      <trkpt lat="48.57474" lon="7.75079">
        <ele>156.19999694824</ele>
        <time>2019-09-08T10:13:15Z</time>
      </trkpt>
      <trkpt lat="48.57467" lon="7.75041">
        <ele>156.19999694824</ele>
        <time>2019-09-08T10:13:21Z</time>
      </trkpt>
      <trkpt lat="48.57461" lon="7.75003">
        <ele>156.19999694824</ele>
        <time>2019-09-08T10:13:28Z</time>
      </trkpt>
      <trkpt lat="48.5746" lon="7.74996">
        <ele>156.19999694824</ele>
        <time>2019-09-08T10:13:32Z</time>
      </trkpt>
      <trkpt lat="48.57461" lon="7.74992">
        <ele>156.39999389648</ele>
        <time>2019-09-08T10:14:22Z</time>
      </trkpt>
      <trkpt lat="48.5746" lon="7.74987">
        <ele>156.39999389648</ele>
        <time>2019-09-08T10:14:23Z</time>
      </trkpt>
      <trkpt lat="48.57454" lon="7.74955">
        <ele>156.39999389648</ele>
        <time>2019-09-08T10:14:28Z</time>
      </trkpt>
      <trkpt lat="48.57445" lon="7.74905">
        <ele>156.19999694824</ele>
        <time>2019-09-08T10:14:35Z</time>
      </trkpt>
      <trkpt lat="48.57442" lon="7.74898">
        <ele>156.19999694824</ele>
        <time>2019-09-08T10:14:36Z</time>
      </trkpt>
      <trkpt lat="48.57432" lon="7.74866">
        <ele>156.19999694824</ele>
        <time>2019-09-08T10:14:41Z</time>
      </trkpt>
      <trkpt lat="48.57429" lon="7.74852">
        <ele>156.19999694824</ele>
        <time>2019-09-08T10:14:43Z</time>
      </trkpt>
      <trkpt lat="48.57425" lon="7.74823">
        <ele>156</ele>
        <time>2019-09-08T10:14:47Z</time>
      </trkpt>
      <trkpt lat="48.57418" lon="7.74773">
        <ele>155.80000305176</ele>
        <time>2019-09-08T10:14:53Z</time>
      </trkpt>
      <trkpt lat="48.57412" lon="7.74736">
        <ele>156.19999694824</ele>
        <time>2019-09-08T10:14:58Z</time>
      </trkpt>
      <trkpt lat="48.57411" lon="7.74728">
        <ele>156.19999694824</ele>
        <time>2019-09-08T10:14:59Z</time>
      </trkpt>
      <trkpt lat="48.5741" lon="7.7472">
        <ele>156</ele>
        <time>2019-09-08T10:15:00Z</time>
      </trkpt>
      <trkpt lat="48.57406" lon="7.7468">
        <ele>156.19999694824</ele>
        <time>2019-09-08T10:15:05Z</time>
      </trkpt>
      <trkpt lat="48.57401" lon="7.74642">
        <ele>156.19999694824</ele>
        <time>2019-09-08T10:15:10Z</time>
      </trkpt>
      <trkpt lat="48.574" lon="7.74628">
        <ele>156.19999694824</ele>
        <time>2019-09-08T10:15:12Z</time>
      </trkpt>
      <trkpt lat="48.57396" lon="7.74587">
        <ele>156</ele>
        <time>2019-09-08T10:15:18Z</time>
      </trkpt>
      <trkpt lat="48.57392" lon="7.74546">
        <ele>156</ele>
        <time>2019-09-08T10:15:24Z</time>
      </trkpt>
      <trkpt lat="48.5739" lon="7.74477">
        <ele>155.80000305176</ele>
        <time>2019-09-08T10:15:33Z</time>
      </trkpt>
      <trkpt lat="48.57391" lon="7.7443">
        <ele>155.60000610352</ele>
        <time>2019-09-08T10:15:40Z</time>
      </trkpt>
      <trkpt lat="48.57392" lon="7.74388">
        <ele>155.60000610352</ele>
        <time>2019-09-08T10:15:46Z</time>
      </trkpt>
      <trkpt lat="48.57393" lon="7.74381">
        <ele>155.60000610352</ele>
        <time>2019-09-08T10:15:47Z</time>
      </trkpt>
      <trkpt lat="48.57392" lon="7.74372">
        <ele>155.60000610352</ele>
        <time>2019-09-08T10:15:48Z</time>
      </trkpt>
      <trkpt lat="48.57392" lon="7.74355">
        <ele>155.60000610352</ele>
        <time>2019-09-08T10:15:50Z</time>
      </trkpt>
      <trkpt lat="48.57393" lon="7.74338">
        <ele>155.60000610352</ele>
        <time>2019-09-08T10:15:52Z</time>
      </trkpt>
      <trkpt lat="48.57399" lon="7.74285">
        <ele>155.60000610352</ele>
        <time>2019-09-08T10:15:58Z</time>
      </trkpt>
      <trkpt lat="48.57403" lon="7.74218">
        <ele>155.60000610352</ele>
        <time>2019-09-08T10:16:06Z</time>
      </trkpt>
      <trkpt lat="48.57405" lon="7.74194">
        <ele>155.60000610352</ele>
        <time>2019-09-08T10:16:09Z</time>
      </trkpt>
      <trkpt lat="48.57407" lon="7.74159">
        <ele>155.60000610352</ele>
        <time>2019-09-08T10:16:13Z</time>
      </trkpt>
      <trkpt lat="48.57411" lon="7.74089">
        <ele>155.60000610352</ele>
        <time>2019-09-08T10:16:22Z</time>
      </trkpt>
      <trkpt lat="48.57414" lon="7.74046">
        <ele>155.60000610352</ele>
        <time>2019-09-08T10:16:28Z</time>
      </trkpt>
      <trkpt lat="48.57414" lon="7.74039">
        <ele>155.60000610352</ele>
        <time>2019-09-08T10:16:29Z</time>
      </trkpt>
      <trkpt lat="48.57417" lon="7.74003">
        <ele>155.60000610352</ele>
        <time>2019-09-08T10:16:34Z</time>
      </trkpt>
      <trkpt lat="48.57419" lon="7.73959">
        <ele>155.80000305176</ele>
        <time>2019-09-08T10:16:40Z</time>
      </trkpt>
      <trkpt lat="48.57423" lon="7.73918">
        <ele>156</ele>
        <time>2019-09-08T10:16:46Z</time>
      </trkpt>
      <trkpt lat="48.57429" lon="7.73883">
        <ele>156.39999389648</ele>
        <time>2019-09-08T10:16:52Z</time>
      </trkpt>
      <trkpt lat="48.57435" lon="7.73855">
        <ele>157.39999389648</ele>
        <time>2019-09-08T10:16:58Z</time>
      </trkpt>
      <trkpt lat="48.57436" lon="7.73851">
        <ele>157.39999389648</ele>
        <time>2019-09-08T10:16:59Z</time>
      </trkpt>
      <trkpt lat="48.5744" lon="7.73835">
        <ele>158</ele>
        <time>2019-09-08T10:17:03Z</time>
      </trkpt>
      <trkpt lat="48.57441" lon="7.73824">
        <ele>158.60000610352</ele>
        <time>2019-09-08T10:17:06Z</time>
      </trkpt>
      <trkpt lat="48.57441" lon="7.73821">
        <ele>159</ele>
        <time>2019-09-08T10:17:08Z</time>
      </trkpt>
      <trkpt lat="48.57441" lon="7.7382">
        <ele>159</ele>
        <time>2019-09-08T10:17:09Z</time>
      </trkpt>
      <trkpt lat="48.57442" lon="7.73816">
        <ele>159.19999694824</ele>
        <time>2019-09-08T10:17:16Z</time>
      </trkpt>
      <trkpt lat="48.57442" lon="7.73809">
        <ele>159.39999389648</ele>
        <time>2019-09-08T10:17:18Z</time>
      </trkpt>
      <trkpt lat="48.57446" lon="7.73785">
        <ele>159.19999694824</ele>
        <time>2019-09-08T10:17:23Z</time>
      </trkpt>
      <trkpt lat="48.57449" lon="7.73775">
        <ele>159.39999389648</ele>
        <time>2019-09-08T10:17:25Z</time>
      </trkpt>
      <trkpt lat="48.57455" lon="7.73752">
        <ele>159.39999389648</ele>
        <time>2019-09-08T10:17:29Z</time>
      </trkpt>
      <trkpt lat="48.57467" lon="7.73687">
        <ele>159.39999389648</ele>
        <time>2019-09-08T10:17:39Z</time>
      </trkpt>
      <trkpt lat="48.57475" lon="7.7364">
        <ele>159.60000610352</ele>
        <time>2019-09-08T10:17:47Z</time>
      </trkpt>
      <trkpt lat="48.57477" lon="7.73628">
        <ele>159.60000610352</ele>
        <time>2019-09-08T10:17:49Z</time>
      </trkpt>
      <trkpt lat="48.5748" lon="7.73608">
        <ele>159.60000610352</ele>
        <time>2019-09-08T10:17:52Z</time>
      </trkpt>
      <trkpt lat="48.57486" lon="7.73559">
        <ele>159.60000610352</ele>
        <time>2019-09-08T10:17:59Z</time>
      </trkpt>
      <trkpt lat="48.57488" lon="7.73502">
        <ele>159</ele>
        <time>2019-09-08T10:18:06Z</time>
      </trkpt>
      <trkpt lat="48.57489" lon="7.7346">
        <ele>158.39999389648</ele>
        <time>2019-09-08T10:18:11Z</time>
      </trkpt>
      <trkpt lat="48.5749" lon="7.73435">
        <ele>157.80000305176</ele>
        <time>2019-09-08T10:18:14Z</time>
      </trkpt>
      <trkpt lat="48.57492" lon="7.73407">
        <ele>157.19999694824</ele>
        <time>2019-09-08T10:18:18Z</time>
      </trkpt>
      <trkpt lat="48.57492" lon="7.73397">
        <ele>157</ele>
        <time>2019-09-08T10:18:20Z</time>
      </trkpt>
      <trkpt lat="48.57494" lon="7.73393">
        <ele>156.80000305176</ele>
        <time>2019-09-08T10:18:21Z</time>
      </trkpt>
      <trkpt lat="48.57496" lon="7.7339">
        <ele>156.39999389648</ele>
        <time>2019-09-08T10:18:23Z</time>
      </trkpt>
      <trkpt lat="48.57497" lon="7.7339">
        <ele>156.19999694824</ele>
        <time>2019-09-08T10:18:25Z</time>
      </trkpt>
      <trkpt lat="48.57497" lon="7.7339">
        <ele>156.19999694824</ele>
        <time>2019-09-08T10:18:26Z</time>
      </trkpt>
      <trkpt lat="48.57499" lon="7.73392">
        <ele>155.80000305176</ele>
        <time>2019-09-08T10:19:02Z</time>
      </trkpt>
      <trkpt lat="48.57501" lon="7.73393">
        <ele>155.80000305176</ele>
        <time>2019-09-08T10:19:03Z</time>
      </trkpt>
      <trkpt lat="48.57514" lon="7.73398">
        <ele>155.80000305176</ele>
        <time>2019-09-08T10:19:08Z</time>
      </trkpt>
      <trkpt lat="48.57523" lon="7.73385">
        <ele>155.80000305176</ele>
        <time>2019-09-08T10:19:11Z</time>
      </trkpt>
      <trkpt lat="48.57526" lon="7.7338">
        <ele>155.80000305176</ele>
        <time>2019-09-08T10:19:12Z</time>
      </trkpt>
      <trkpt lat="48.57535" lon="7.73364">
        <ele>155.80000305176</ele>
        <time>2019-09-08T10:19:15Z</time>
      </trkpt>
      <trkpt lat="48.57545" lon="7.7335">
        <ele>155.39999389648</ele>
        <time>2019-09-08T10:19:18Z</time>
      </trkpt>
      <trkpt lat="48.57549" lon="7.73345">
        <ele>155.39999389648</ele>
        <time>2019-09-08T10:19:19Z</time>
      </trkpt>
      <trkpt lat="48.57556" lon="7.73335">
        <ele>155.39999389648</ele>
        <time>2019-09-08T10:19:21Z</time>
      </trkpt>
      <trkpt lat="48.57566" lon="7.73319">
        <ele>155.19999694824</ele>
        <time>2019-09-08T10:19:24Z</time>
      </trkpt>
      <trkpt lat="48.57586" lon="7.73278">
        <ele>155.19999694824</ele>
        <time>2019-09-08T10:19:31Z</time>
      </trkpt>
      <trkpt lat="48.57605" lon="7.73245">
        <ele>155.39999389648</ele>
        <time>2019-09-08T10:19:37Z</time>
      </trkpt>
      <trkpt lat="48.57625" lon="7.73213">
        <ele>155.60000610352</ele>
        <time>2019-09-08T10:19:43Z</time>
      </trkpt>
      <trkpt lat="48.57637" lon="7.7319">
        <ele>155.60000610352</ele>
        <time>2019-09-08T10:19:48Z</time>
      </trkpt>
      <trkpt lat="48.57641" lon="7.73189">
        <ele>155.60000610352</ele>
        <time>2019-09-08T10:19:49Z</time>
      </trkpt>
      <trkpt lat="48.57654" lon="7.73183">
        <ele>155.80000305176</ele>
        <time>2019-09-08T10:19:53Z</time>
      </trkpt>
      <trkpt lat="48.57671" lon="7.73173">
        <ele>156</ele>
        <time>2019-09-08T10:19:59Z</time>
      </trkpt>
      <trkpt lat="48.57693" lon="7.73162">
        <ele>156.19999694824</ele>
        <time>2019-09-08T10:20:05Z</time>
      </trkpt>
      <trkpt lat="48.57723" lon="7.73145">
        <ele>156.19999694824</ele>
        <time>2019-09-08T10:20:13Z</time>
      </trkpt>
      <trkpt lat="48.57753" lon="7.73125">
        <ele>156.19999694824</ele>
        <time>2019-09-08T10:20:20Z</time>
      </trkpt>
      <trkpt lat="48.57774" lon="7.73112">
        <ele>156.19999694824</ele>
        <time>2019-09-08T10:20:26Z</time>
      </trkpt>
      <trkpt lat="48.57781" lon="7.7311">
        <ele>156.19999694824</ele>
        <time>2019-09-08T10:20:28Z</time>
      </trkpt>
      <trkpt lat="48.5779" lon="7.73106">
        <ele>156.39999389648</ele>
        <time>2019-09-08T10:20:32Z</time>
      </trkpt>
      <trkpt lat="48.57794" lon="7.73106">
        <ele>156.39999389648</ele>
        <time>2019-09-08T10:20:35Z</time>
      </trkpt>
      <trkpt lat="48.57798" lon="7.73105">
        <ele>156.19999694824</ele>
        <time>2019-09-08T10:20:37Z</time>
      </trkpt>
      <trkpt lat="48.57805" lon="7.73105">
        <ele>156.19999694824</ele>
        <time>2019-09-08T10:20:39Z</time>
      </trkpt>
      <trkpt lat="48.57818" lon="7.73103">
        <ele>156.19999694824</ele>
        <time>2019-09-08T10:20:42Z</time>
      </trkpt>
      <trkpt lat="48.57831" lon="7.73091">
        <ele>156.19999694824</ele>
        <time>2019-09-08T10:20:47Z</time>
      </trkpt>
      <trkpt lat="48.57849" lon="7.73084">
        <ele>156.19999694824</ele>
        <time>2019-09-08T10:20:52Z</time>
      </trkpt>
      <trkpt lat="48.57879" lon="7.73075">
        <ele>156.19999694824</ele>
        <time>2019-09-08T10:20:58Z</time>
      </trkpt>
      <trkpt lat="48.57918" lon="7.7308">
        <ele>156.19999694824</ele>
        <time>2019-09-08T10:21:03Z</time>
      </trkpt>
      <trkpt lat="48.57945" lon="7.73097">
        <ele>156.39999389648</ele>
        <time>2019-09-08T10:21:08Z</time>
      </trkpt>
      <trkpt lat="48.57952" lon="7.73101">
        <ele>156.39999389648</ele>
        <time>2019-09-08T10:21:10Z</time>
      </trkpt>
      <trkpt lat="48.57963" lon="7.73109">
        <ele>156.39999389648</ele>
        <time>2019-09-08T10:21:12Z</time>
      </trkpt>
      <trkpt lat="48.57972" lon="7.73113">
        <ele>156.39999389648</ele>
        <time>2019-09-08T10:21:14Z</time>
      </trkpt>
      <trkpt lat="48.57982" lon="7.7312">
        <ele>157</ele>
        <time>2019-09-08T10:21:17Z</time>
      </trkpt>
      <trkpt lat="48.58002" lon="7.7313">
        <ele>157.39999389648</ele>
        <time>2019-09-08T10:21:23Z</time>
      </trkpt>
      <trkpt lat="48.58007" lon="7.73133">
        <ele>157.60000610352</ele>
        <time>2019-09-08T10:21:25Z</time>
      </trkpt>
      <trkpt lat="48.58009" lon="7.73134">
        <ele>157.60000610352</ele>
        <time>2019-09-08T10:21:27Z</time>
      </trkpt>
      <trkpt lat="48.58011" lon="7.73134">
        <ele>157.80000305176</ele>
        <time>2019-09-08T10:21:31Z</time>
      </trkpt>
      <trkpt lat="48.58021" lon="7.73116">
        <ele>158</ele>
        <time>2019-09-08T10:23:51Z</time>
      </trkpt>
      <trkpt lat="48.58026" lon="7.73119">
        <ele>158</ele>
        <time>2019-09-08T10:23:53Z</time>
      </trkpt>
      <trkpt lat="48.58046" lon="7.73131">
        <ele>158</ele>
        <time>2019-09-08T10:24:01Z</time>
      </trkpt>
      <trkpt lat="48.58066" lon="7.73141">
        <ele>158.39999389648</ele>
        <time>2019-09-08T10:24:08Z</time>
      </trkpt>
      <trkpt lat="48.5808" lon="7.7315">
        <ele>158.60000610352</ele>
        <time>2019-09-08T10:24:13Z</time>
      </trkpt>
      <trkpt lat="48.58083" lon="7.73151">
        <ele>158.80000305176</ele>
        <time>2019-09-08T10:24:14Z</time>
      </trkpt>
      <trkpt lat="48.58111" lon="7.73169">
        <ele>159.19999694824</ele>
        <time>2019-09-08T10:24:22Z</time>
      </trkpt>
      <trkpt lat="48.58132" lon="7.7319">
        <ele>159.60000610352</ele>
        <time>2019-09-08T10:24:27Z</time>
      </trkpt>
      <trkpt lat="48.58153" lon="7.73215">
        <ele>160</ele>
        <time>2019-09-08T10:24:31Z</time>
      </trkpt>
      <trkpt lat="48.58172" lon="7.73239">
        <ele>160.19999694824</ele>
        <time>2019-09-08T10:24:37Z</time>
      </trkpt>
      <trkpt lat="48.58178" lon="7.73243">
        <ele>160.39999389648</ele>
        <time>2019-09-08T10:24:39Z</time>
      </trkpt>
      <trkpt lat="48.5819" lon="7.73248">
        <ele>160.60000610352</ele>
        <time>2019-09-08T10:24:42Z</time>
      </trkpt>
      <trkpt lat="48.58196" lon="7.7325">
        <ele>160.80000305176</ele>
        <time>2019-09-08T10:24:46Z</time>
      </trkpt>
      <trkpt lat="48.58198" lon="7.73259">
        <ele>161</ele>
        <time>2019-09-08T10:24:54Z</time>
      </trkpt>
      <trkpt lat="48.58198" lon="7.73261">
        <ele>161</ele>
        <time>2019-09-08T10:24:55Z</time>
      </trkpt>
      <trkpt lat="48.58199" lon="7.73269">
        <ele>161</ele>
        <time>2019-09-08T10:24:58Z</time>
      </trkpt>
      <trkpt lat="48.58205" lon="7.73285">
        <ele>161</ele>
        <time>2019-09-08T10:25:02Z</time>
      </trkpt>
      <trkpt lat="48.58212" lon="7.73306">
        <ele>161</ele>
        <time>2019-09-08T10:25:07Z</time>
      </trkpt>
      <trkpt lat="48.58217" lon="7.7332">
        <ele>161</ele>
        <time>2019-09-08T10:25:10Z</time>
      </trkpt>
      <trkpt lat="48.58217" lon="7.73334">
        <ele>160.80000305176</ele>
        <time>2019-09-08T10:25:13Z</time>
      </trkpt>
      <trkpt lat="48.5822" lon="7.73365">
        <ele>160.60000610352</ele>
        <time>2019-09-08T10:25:19Z</time>
      </trkpt>
      <trkpt lat="48.58226" lon="7.73385">
        <ele>160.39999389648</ele>
        <time>2019-09-08T10:25:22Z</time>
      </trkpt>
      <trkpt lat="48.58232" lon="7.73398">
        <ele>160.39999389648</ele>
        <time>2019-09-08T10:25:24Z</time>
      </trkpt>
      <trkpt lat="48.58247" lon="7.73437">
        <ele>160.19999694824</ele>
        <time>2019-09-08T10:25:30Z</time>
      </trkpt>
      <trkpt lat="48.58247" lon="7.73474">
        <ele>160.19999694824</ele>
        <time>2019-09-08T10:25:36Z</time>
      </trkpt>
      <trkpt lat="48.58248" lon="7.73506">
        <ele>160</ele>
        <time>2019-09-08T10:25:41Z</time>
      </trkpt>
      <trkpt lat="48.58248" lon="7.7351">
        <ele>160</ele>
        <time>2019-09-08T10:25:42Z</time>
      </trkpt>
      <trkpt lat="48.58246" lon="7.73519">
        <ele>159.80000305176</ele>
        <time>2019-09-08T10:25:45Z</time>
      </trkpt>
      <trkpt lat="48.58246" lon="7.73522">
        <ele>159.80000305176</ele>
        <time>2019-09-08T10:25:47Z</time>
      </trkpt>
      <trkpt lat="48.58246" lon="7.73524">
        <ele>159.80000305176</ele>
        <time>2019-09-08T10:25:48Z</time>
      </trkpt>
      <trkpt lat="48.58243" lon="7.73532">
        <ele>159.80000305176</ele>
        <time>2019-09-08T10:25:52Z</time>
      </trkpt>
      <trkpt lat="48.58241" lon="7.73552">
        <ele>159.80000305176</ele>
        <time>2019-09-08T10:25:56Z</time>
      </trkpt>
      <trkpt lat="48.58243" lon="7.73568">
        <ele>159.60000610352</ele>
        <time>2019-09-08T10:26:00Z</time>
      </trkpt>
      <trkpt lat="48.58252" lon="7.73585">
        <ele>159.60000610352</ele>
        <time>2019-09-08T10:26:05Z</time>
      </trkpt>
      <trkpt lat="48.58257" lon="7.7361">
        <ele>159</ele>
        <time>2019-09-08T10:26:10Z</time>
      </trkpt>
      <trkpt lat="48.58263" lon="7.73631">
        <ele>159</ele>
        <time>2019-09-08T10:26:15Z</time>
      </trkpt>
      <trkpt lat="48.58272" lon="7.73665">
        <ele>159</ele>
        <time>2019-09-08T10:26:21Z</time>
      </trkpt>
      <trkpt lat="48.58275" lon="7.73684">
        <ele>158.80000305176</ele>
        <time>2019-09-08T10:26:24Z</time>
      </trkpt>
      <trkpt lat="48.58279" lon="7.73705">
        <ele>158.60000610352</ele>
        <time>2019-09-08T10:26:27Z</time>
      </trkpt>
      <trkpt lat="48.5828" lon="7.7374">
        <ele>158.39999389648</ele>
        <time>2019-09-08T10:26:32Z</time>
      </trkpt>
      <trkpt lat="48.58262" lon="7.73779">
        <ele>158.19999694824</ele>
        <time>2019-09-08T10:26:37Z</time>
      </trkpt>
      <trkpt lat="48.58265" lon="7.73801">
        <ele>158.19999694824</ele>
        <time>2019-09-08T10:26:42Z</time>
      </trkpt>
      <trkpt lat="48.58268" lon="7.73822">
        <ele>158</ele>
        <time>2019-09-08T10:26:46Z</time>
      </trkpt>
      <trkpt lat="48.58273" lon="7.73861">
        <ele>157.80000305176</ele>
        <time>2019-09-08T10:26:53Z</time>
      </trkpt>
      <trkpt lat="48.58275" lon="7.73899">
        <ele>157.80000305176</ele>
        <time>2019-09-08T10:27:00Z</time>
      </trkpt>
      <trkpt lat="48.58278" lon="7.73921">
        <ele>157.80000305176</ele>
        <time>2019-09-08T10:27:06Z</time>
      </trkpt>
      <trkpt lat="48.5827" lon="7.73949">
        <ele>157.80000305176</ele>
        <time>2019-09-08T10:27:12Z</time>
      </trkpt>
      <trkpt lat="48.58263" lon="7.73978">
        <ele>157.80000305176</ele>
        <time>2019-09-08T10:27:18Z</time>
      </trkpt>
      <trkpt lat="48.58255" lon="7.74004">
        <ele>158.19999694824</ele>
        <time>2019-09-08T10:27:23Z</time>
      </trkpt>
      <trkpt lat="48.58252" lon="7.74032">
        <ele>158.19999694824</ele>
        <time>2019-09-08T10:27:29Z</time>
      </trkpt>
      <trkpt lat="48.58247" lon="7.74053">
        <ele>158.19999694824</ele>
        <time>2019-09-08T10:27:34Z</time>
      </trkpt>
      <trkpt lat="48.58229" lon="7.74082">
        <ele>158.39999389648</ele>
        <time>2019-09-08T10:27:40Z</time>
      </trkpt>
      <trkpt lat="48.58221" lon="7.7411">
        <ele>158.60000610352</ele>
        <time>2019-09-08T10:27:46Z</time>
      </trkpt>
      <trkpt lat="48.58219" lon="7.74118">
        <ele>158.80000305176</ele>
        <time>2019-09-08T10:27:48Z</time>
      </trkpt>
      <trkpt lat="48.58221" lon="7.74126">
        <ele>158.80000305176</ele>
        <time>2019-09-08T10:27:50Z</time>
      </trkpt>
      <trkpt lat="48.58223" lon="7.74138">
        <ele>159</ele>
        <time>2019-09-08T10:27:53Z</time>
      </trkpt>
      <trkpt lat="48.58221" lon="7.7415">
        <ele>159</ele>
        <time>2019-09-08T10:27:56Z</time>
      </trkpt>
      <trkpt lat="48.58212" lon="7.74167">
        <ele>159.19999694824</ele>
        <time>2019-09-08T10:28:00Z</time>
      </trkpt>
      <trkpt lat="48.5821" lon="7.74172">
        <ele>159.19999694824</ele>
        <time>2019-09-08T10:28:01Z</time>
      </trkpt>
      <trkpt lat="48.58207" lon="7.74176">
        <ele>159.19999694824</ele>
        <time>2019-09-08T10:28:02Z</time>
      </trkpt>
      <trkpt lat="48.58202" lon="7.74183">
        <ele>159.39999389648</ele>
        <time>2019-09-08T10:28:05Z</time>
      </trkpt>
      <trkpt lat="48.58202" lon="7.74185">
        <ele>159.39999389648</ele>
        <time>2019-09-08T10:28:07Z</time>
      </trkpt>
      <trkpt lat="48.58202" lon="7.74191">
        <ele>159.39999389648</ele>
        <time>2019-09-08T10:28:12Z</time>
      </trkpt>
      <trkpt lat="48.58203" lon="7.74198">
        <ele>159.39999389648</ele>
        <time>2019-09-08T10:28:15Z</time>
      </trkpt>
      <trkpt lat="48.58202" lon="7.742">
        <ele>159.39999389648</ele>
        <time>2019-09-08T10:28:16Z</time>
      </trkpt>
      <trkpt lat="48.58195" lon="7.74221">
        <ele>159.39999389648</ele>
        <time>2019-09-08T10:28:21Z</time>
      </trkpt>
      <trkpt lat="48.58185" lon="7.74251">
        <ele>159.39999389648</ele>
        <time>2019-09-08T10:28:27Z</time>
      </trkpt>
      <trkpt lat="48.58179" lon="7.74268">
        <ele>159.39999389648</ele>
        <time>2019-09-08T10:28:31Z</time>
      </trkpt>
      <trkpt lat="48.58178" lon="7.74269">
        <ele>159.39999389648</ele>
        <time>2019-09-08T10:28:32Z</time>
      </trkpt>
      <trkpt lat="48.5817" lon="7.74262">
        <ele>159.39999389648</ele>
        <time>2019-09-08T10:28:37Z</time>
      </trkpt>
      <trkpt lat="48.5815" lon="7.74257">
        <ele>159.19999694824</ele>
        <time>2019-09-08T10:28:42Z</time>
      </trkpt>
      <trkpt lat="48.58133" lon="7.74259">
        <ele>158.80000305176</ele>
        <time>2019-09-08T10:28:48Z</time>
      </trkpt>
      <trkpt lat="48.58134" lon="7.74255">
        <ele>158.39999389648</ele>
        <time>2019-09-08T10:28:50Z</time>
      </trkpt>
      <trkpt lat="48.58137" lon="7.7424">
        <ele>158</ele>
        <time>2019-09-08T10:28:55Z</time>
      </trkpt>
      <trkpt lat="48.58131" lon="7.74233">
        <ele>157.60000610352</ele>
        <time>2019-09-08T10:29:01Z</time>
      </trkpt>
      <trkpt lat="48.58127" lon="7.7423">
        <ele>157.60000610352</ele>
        <time>2019-09-08T10:29:07Z</time>
      </trkpt>
      <trkpt lat="48.58128" lon="7.74229">
        <ele>157.60000610352</ele>
        <time>2019-09-08T10:29:08Z</time>
      </trkpt>
      <trkpt lat="48.58134" lon="7.74221">
        <ele>157.39999389648</ele>
        <time>2019-09-08T10:29:59Z</time>
      </trkpt>
      <trkpt lat="48.58136" lon="7.74216">
        <ele>157.39999389648</ele>
        <time>2019-09-08T10:30:02Z</time>
      </trkpt>
      <trkpt lat="48.58142" lon="7.74204">
        <ele>157.39999389648</ele>
        <time>2019-09-08T10:30:09Z</time>
      </trkpt>
      <trkpt lat="48.58147" lon="7.74193">
        <ele>157.39999389648</ele>
        <time>2019-09-08T10:30:16Z</time>
      </trkpt>
      <trkpt lat="48.58159" lon="7.74183">
        <ele>157.19999694824</ele>
        <time>2019-09-08T10:30:24Z</time>
      </trkpt>
      <trkpt lat="48.58158" lon="7.74167">
        <ele>157.19999694824</ele>
        <time>2019-09-08T10:30:30Z</time>
      </trkpt>
      <trkpt lat="48.58161" lon="7.74156">
        <ele>157.19999694824</ele>
        <time>2019-09-08T10:30:35Z</time>
      </trkpt>
      <trkpt lat="48.58161" lon="7.7415">
        <ele>157.19999694824</ele>
        <time>2019-09-08T10:30:37Z</time>
      </trkpt>
      <trkpt lat="48.58161" lon="7.74145">
        <ele>157.19999694824</ele>
        <time>2019-09-08T10:30:39Z</time>
      </trkpt>
      <trkpt lat="48.58161" lon="7.74139">
        <ele>157.19999694824</ele>
        <time>2019-09-08T10:30:42Z</time>
      </trkpt>
      <trkpt lat="48.58161" lon="7.74137">
        <ele>157.19999694824</ele>
        <time>2019-09-08T10:30:43Z</time>
      </trkpt>
      <trkpt lat="48.58162" lon="7.74118">
        <ele>157.39999389648</ele>
        <time>2019-09-08T10:30:47Z</time>
      </trkpt>
      <trkpt lat="48.58165" lon="7.74098">
        <ele>157.39999389648</ele>
        <time>2019-09-08T10:30:52Z</time>
      </trkpt>
      <trkpt lat="48.58166" lon="7.74074">
        <ele>157.19999694824</ele>
        <time>2019-09-08T10:30:57Z</time>
      </trkpt>
      <trkpt lat="48.58156" lon="7.74039">
        <ele>157.39999389648</ele>
        <time>2019-09-08T10:31:03Z</time>
      </trkpt>
      <trkpt lat="48.58156" lon="7.74018">
        <ele>157.39999389648</ele>
        <time>2019-09-08T10:31:08Z</time>
      </trkpt>
      <trkpt lat="48.58153" lon="7.73988">
        <ele>157.39999389648</ele>
        <time>2019-09-08T10:31:15Z</time>
      </trkpt>
      <trkpt lat="48.58147" lon="7.73954">
        <ele>157.19999694824</ele>
        <time>2019-09-08T10:31:23Z</time>
      </trkpt>
      <trkpt lat="48.58148" lon="7.73943">
        <ele>157.19999694824</ele>
        <time>2019-09-08T10:31:27Z</time>
      </trkpt>
      <trkpt lat="48.58158" lon="7.73929">
        <ele>157.19999694824</ele>
        <time>2019-09-08T10:31:33Z</time>
      </trkpt>
      <trkpt lat="48.58163" lon="7.73922">
        <ele>157.19999694824</ele>
        <time>2019-09-08T10:31:38Z</time>
      </trkpt>
      <trkpt lat="48.58163" lon="7.73914">
        <ele>157.39999389648</ele>
        <time>2019-09-08T10:31:43Z</time>
      </trkpt>
      <trkpt lat="48.58162" lon="7.73913">
        <ele>157.60000610352</ele>
        <time>2019-09-08T10:31:45Z</time>
      </trkpt>
      <trkpt lat="48.58155" lon="7.73911">
        <ele>157.80000305176</ele>
        <time>2019-09-08T10:32:04Z</time>
      </trkpt>
      <trkpt lat="48.5815" lon="7.73908">
        <ele>157.60000610352</ele>
        <time>2019-09-08T10:32:06Z</time>
      </trkpt>
      <trkpt lat="48.58137" lon="7.73889">
        <ele>157.60000610352</ele>
        <time>2019-09-08T10:32:12Z</time>
      </trkpt>
      <trkpt lat="48.58137" lon="7.73885">
        <ele>157.60000610352</ele>
        <time>2019-09-08T10:32:13Z</time>
      </trkpt>
      <trkpt lat="48.58139" lon="7.73873">
        <ele>157.60000610352</ele>
        <time>2019-09-08T10:32:16Z</time>
      </trkpt>
      <trkpt lat="48.5814" lon="7.7387">
        <ele>157.80000305176</ele>
        <time>2019-09-08T10:32:17Z</time>
      </trkpt>
      <trkpt lat="48.58142" lon="7.73861">
        <ele>158</ele>
        <time>2019-09-08T10:32:20Z</time>
      </trkpt>
      <trkpt lat="48.58142" lon="7.73858">
        <ele>158</ele>
        <time>2019-09-08T10:32:21Z</time>
      </trkpt>
      <trkpt lat="48.58142" lon="7.73854">
        <ele>158.19999694824</ele>
        <time>2019-09-08T10:32:22Z</time>
      </trkpt>
      <trkpt lat="48.58142" lon="7.73842">
        <ele>158.60000610352</ele>
        <time>2019-09-08T10:32:27Z</time>
      </trkpt>
      <trkpt lat="48.58142" lon="7.73842">
        <ele>158.60000610352</ele>
        <time>2019-09-08T10:32:28Z</time>
      </trkpt>
      <trkpt lat="48.58144" lon="7.73837">
        <ele>158.39999389648</ele>
        <time>2019-09-08T10:33:29Z</time>
      </trkpt>
      <trkpt lat="48.58144" lon="7.73832">
        <ele>158.39999389648</ele>
        <time>2019-09-08T10:33:31Z</time>
      </trkpt>
      <trkpt lat="48.58146" lon="7.73802">
        <ele>158.60000610352</ele>
        <time>2019-09-08T10:33:38Z</time>
      </trkpt>
      <trkpt lat="48.58151" lon="7.73786">
        <ele>158.60000610352</ele>
        <time>2019-09-08T10:33:43Z</time>
      </trkpt>
      <trkpt lat="48.5815" lon="7.73781">
        <ele>158.60000610352</ele>
        <time>2019-09-08T10:33:45Z</time>
      </trkpt>
      <trkpt lat="48.58148" lon="7.73773">
        <ele>158.39999389648</ele>
        <time>2019-09-08T10:33:48Z</time>
      </trkpt>
      <trkpt lat="48.58146" lon="7.73752">
        <ele>158</ele>
        <time>2019-09-08T10:33:53Z</time>
      </trkpt>
      <trkpt lat="48.58143" lon="7.73723">
        <ele>157.80000305176</ele>
        <time>2019-09-08T10:33:59Z</time>
      </trkpt>
      <trkpt lat="48.58143" lon="7.7369">
        <ele>157.80000305176</ele>
        <time>2019-09-08T10:34:05Z</time>
      </trkpt>
      <trkpt lat="48.58142" lon="7.73666">
        <ele>158</ele>
        <time>2019-09-08T10:34:10Z</time>
      </trkpt>
      <trkpt lat="48.5814" lon="7.73642">
        <ele>158.19999694824</ele>
        <time>2019-09-08T10:34:15Z</time>
      </trkpt>
      <trkpt lat="48.5814" lon="7.73638">
        <ele>158.19999694824</ele>
        <time>2019-09-08T10:34:16Z</time>
      </trkpt>
      <trkpt lat="48.58138" lon="7.73631">
        <ele>158.60000610352</ele>
        <time>2019-09-08T10:34:20Z</time>
      </trkpt>
      <trkpt lat="48.58139" lon="7.73629">
        <ele>158.60000610352</ele>
        <time>2019-09-08T10:34:21Z</time>
      </trkpt>
      <trkpt lat="48.58138" lon="7.7362">
        <ele>158.80000305176</ele>
        <time>2019-09-08T10:34:27Z</time>
      </trkpt>
      <trkpt lat="48.58137" lon="7.73615">
        <ele>159</ele>
        <time>2019-09-08T10:34:33Z</time>
      </trkpt>
      <trkpt lat="48.58144" lon="7.7361">
        <ele>159</ele>
        <time>2019-09-08T10:34:37Z</time>
      </trkpt>
      <trkpt lat="48.58146" lon="7.73608">
        <ele>159</ele>
        <time>2019-09-08T10:34:38Z</time>
      </trkpt>
      <trkpt lat="48.58155" lon="7.73602">
        <ele>159.19999694824</ele>
        <time>2019-09-08T10:34:43Z</time>
      </trkpt>
      <trkpt lat="48.58166" lon="7.73596">
        <ele>159.19999694824</ele>
        <time>2019-09-08T10:34:47Z</time>
      </trkpt>
      <trkpt lat="48.58178" lon="7.73585">
        <ele>159.39999389648</ele>
        <time>2019-09-08T10:34:52Z</time>
      </trkpt>
      <trkpt lat="48.58193" lon="7.7358">
        <ele>159.60000610352</ele>
        <time>2019-09-08T10:34:58Z</time>
      </trkpt>
      <trkpt lat="48.58205" lon="7.73574">
        <ele>159.80000305176</ele>
        <time>2019-09-08T10:35:02Z</time>
      </trkpt>
      <trkpt lat="48.58222" lon="7.73569">
        <ele>159.80000305176</ele>
        <time>2019-09-08T10:35:08Z</time>
      </trkpt>
      <trkpt lat="48.58224" lon="7.73569">
        <ele>159.80000305176</ele>
        <time>2019-09-08T10:35:09Z</time>
      </trkpt>
      <trkpt lat="48.58228" lon="7.73567">
        <ele>159.80000305176</ele>
        <time>2019-09-08T10:35:12Z</time>
      </trkpt>
      <trkpt lat="48.58232" lon="7.73559">
        <ele>160</ele>
        <time>2019-09-08T10:35:15Z</time>
      </trkpt>
      <trkpt lat="48.58235" lon="7.73553">
        <ele>160</ele>
        <time>2019-09-08T10:35:17Z</time>
      </trkpt>
      <trkpt lat="48.58237" lon="7.73544">
        <ele>160.19999694824</ele>
        <time>2019-09-08T10:35:20Z</time>
      </trkpt>
      <trkpt lat="48.58239" lon="7.7354">
        <ele>160.19999694824</ele>
        <time>2019-09-08T10:35:22Z</time>
      </trkpt>
      <trkpt lat="48.58239" lon="7.7353">
        <ele>160.19999694824</ele>
        <time>2019-09-08T10:35:26Z</time>
      </trkpt>
      <trkpt lat="48.58238" lon="7.73525">
        <ele>160.19999694824</ele>
        <time>2019-09-08T10:35:27Z</time>
      </trkpt>
      <trkpt lat="48.58238" lon="7.73502">
        <ele>160.39999389648</ele>
        <time>2019-09-08T10:35:32Z</time>
      </trkpt>
      <trkpt lat="48.5824" lon="7.73478">
        <ele>160.60000610352</ele>
        <time>2019-09-08T10:35:38Z</time>
      </trkpt>
      <trkpt lat="48.58243" lon="7.73448">
        <ele>160.80000305176</ele>
        <time>2019-09-08T10:35:45Z</time>
      </trkpt>
      <trkpt lat="48.58244" lon="7.73441">
        <ele>160.80000305176</ele>
        <time>2019-09-08T10:35:47Z</time>
      </trkpt>
      <trkpt lat="48.58247" lon="7.73423">
        <ele>161</ele>
        <time>2019-09-08T10:35:52Z</time>
      </trkpt>
      <trkpt lat="48.58248" lon="7.73397">
        <ele>161.19999694824</ele>
        <time>2019-09-08T10:35:58Z</time>
      </trkpt>
      <trkpt lat="48.58247" lon="7.73391">
        <ele>161.39999389648</ele>
        <time>2019-09-08T10:35:59Z</time>
      </trkpt>
      <trkpt lat="48.58228" lon="7.73311">
        <ele>161.39999389648</ele>
        <time>2019-09-08T10:36:06Z</time>
      </trkpt>
      <trkpt lat="48.5822" lon="7.73298">
        <ele>161.60000610352</ele>
        <time>2019-09-08T10:36:09Z</time>
      </trkpt>
      <trkpt lat="48.58215" lon="7.73295">
        <ele>161.60000610352</ele>
        <time>2019-09-08T10:36:11Z</time>
      </trkpt>
      <trkpt lat="48.58209" lon="7.7329">
        <ele>161.80000305176</ele>
        <time>2019-09-08T10:36:15Z</time>
      </trkpt>
      <trkpt lat="48.58205" lon="7.73289">
        <ele>161.80000305176</ele>
        <time>2019-09-08T10:36:17Z</time>
      </trkpt>
      <trkpt lat="48.58204" lon="7.73286">
        <ele>161.80000305176</ele>
        <time>2019-09-08T10:36:18Z</time>
      </trkpt>
      <trkpt lat="48.58203" lon="7.73275">
        <ele>161.60000610352</ele>
        <time>2019-09-08T10:36:21Z</time>
      </trkpt>
      <trkpt lat="48.58201" lon="7.73272">
        <ele>161.60000610352</ele>
        <time>2019-09-08T10:36:22Z</time>
      </trkpt>
      <trkpt lat="48.58198" lon="7.73259">
        <ele>161.60000610352</ele>
        <time>2019-09-08T10:36:26Z</time>
      </trkpt>
      <trkpt lat="48.58202" lon="7.73241">
        <ele>161.80000305176</ele>
        <time>2019-09-08T10:36:32Z</time>
      </trkpt>
      <trkpt lat="48.58202" lon="7.7324">
        <ele>161.80000305176</ele>
        <time>2019-09-08T10:36:34Z</time>
      </trkpt>
      <trkpt lat="48.58202" lon="7.73239">
        <ele>161.80000305176</ele>
        <time>2019-09-08T10:36:40Z</time>
      </trkpt>
      <trkpt lat="48.58203" lon="7.73236">
        <ele>161.80000305176</ele>
        <time>2019-09-08T10:36:42Z</time>
      </trkpt>
      <trkpt lat="48.58201" lon="7.73234">
        <ele>161.80000305176</ele>
        <time>2019-09-08T10:36:43Z</time>
      </trkpt>
      <trkpt lat="48.58196" lon="7.73232">
        <ele>161.80000305176</ele>
        <time>2019-09-08T10:36:45Z</time>
      </trkpt>
      <trkpt lat="48.58169" lon="7.73219">
        <ele>161.60000610352</ele>
        <time>2019-09-08T10:36:53Z</time>
      </trkpt>
      <trkpt lat="48.58147" lon="7.73208">
        <ele>161.39999389648</ele>
        <time>2019-09-08T10:36:59Z</time>
      </trkpt>
      <trkpt lat="48.58119" lon="7.73193">
        <ele>161</ele>
        <time>2019-09-08T10:37:06Z</time>
      </trkpt>
      <trkpt lat="48.58097" lon="7.73181">
        <ele>160.60000610352</ele>
        <time>2019-09-08T10:37:11Z</time>
      </trkpt>
      <trkpt lat="48.58093" lon="7.73179">
        <ele>160.60000610352</ele>
        <time>2019-09-08T10:37:12Z</time>
      </trkpt>
      <trkpt lat="48.58088" lon="7.73176">
        <ele>160.39999389648</ele>
        <time>2019-09-08T10:37:13Z</time>
      </trkpt>
      <trkpt lat="48.58071" lon="7.73167">
        <ele>159.80000305176</ele>
        <time>2019-09-08T10:37:17Z</time>
      </trkpt>
      <trkpt lat="48.58052" lon="7.73155">
        <ele>159.60000610352</ele>
        <time>2019-09-08T10:37:21Z</time>
      </trkpt>
      <trkpt lat="48.58036" lon="7.73147">
        <ele>159.39999389648</ele>
        <time>2019-09-08T10:37:24Z</time>
      </trkpt>
      <trkpt lat="48.58032" lon="7.73144">
        <ele>159.39999389648</ele>
        <time>2019-09-08T10:37:25Z</time>
      </trkpt>
      <trkpt lat="48.58008" lon="7.73128">
        <ele>159</ele>
        <time>2019-09-08T10:37:30Z</time>
      </trkpt>
      <trkpt lat="48.57972" lon="7.731">
        <ele>158.19999694824</ele>
        <time>2019-09-08T10:37:38Z</time>
      </trkpt>
      <trkpt lat="48.57966" lon="7.73081">
        <ele>158</ele>
        <time>2019-09-08T10:37:41Z</time>
      </trkpt>
      <trkpt lat="48.57966" lon="7.73079">
        <ele>157.80000305176</ele>
        <time>2019-09-08T10:37:42Z</time>
      </trkpt>
      <trkpt lat="48.57966" lon="7.73077">
        <ele>157.80000305176</ele>
        <time>2019-09-08T10:37:44Z</time>
      </trkpt>
      <trkpt lat="48.57965" lon="7.73073">
        <ele>157.19999694824</ele>
        <time>2019-09-08T10:38:31Z</time>
      </trkpt>
      <trkpt lat="48.57961" lon="7.73072">
        <ele>157.19999694824</ele>
        <time>2019-09-08T10:38:33Z</time>
      </trkpt>
      <trkpt lat="48.5795" lon="7.73068">
        <ele>157.19999694824</ele>
        <time>2019-09-08T10:38:38Z</time>
      </trkpt>
      <trkpt lat="48.57947" lon="7.73068">
        <ele>157.19999694824</ele>
        <time>2019-09-08T10:38:39Z</time>
      </trkpt>
      <trkpt lat="48.57934" lon="7.73076">
        <ele>157.19999694824</ele>
        <time>2019-09-08T10:38:44Z</time>
      </trkpt>
      <trkpt lat="48.5793" lon="7.73075">
        <ele>157.19999694824</ele>
        <time>2019-09-08T10:38:46Z</time>
      </trkpt>
      <trkpt lat="48.57926" lon="7.73076">
        <ele>157.19999694824</ele>
        <time>2019-09-08T10:38:48Z</time>
      </trkpt>
      <trkpt lat="48.57905" lon="7.73083">
        <ele>157.19999694824</ele>
        <time>2019-09-08T10:38:54Z</time>
      </trkpt>
      <trkpt lat="48.57879" lon="7.73085">
        <ele>157.19999694824</ele>
        <time>2019-09-08T10:39:00Z</time>
      </trkpt>
      <trkpt lat="48.57858" lon="7.73085">
        <ele>157.19999694824</ele>
        <time>2019-09-08T10:39:04Z</time>
      </trkpt>
      <trkpt lat="48.57849" lon="7.7309">
        <ele>157.39999389648</ele>
        <time>2019-09-08T10:39:06Z</time>
      </trkpt>
      <trkpt lat="48.57835" lon="7.73099">
        <ele>157.39999389648</ele>
        <time>2019-09-08T10:39:10Z</time>
      </trkpt>
      <trkpt lat="48.57811" lon="7.7311">
        <ele>157.19999694824</ele>
        <time>2019-09-08T10:39:16Z</time>
      </trkpt>
      <trkpt lat="48.57793" lon="7.73117">
        <ele>157.39999389648</ele>
        <time>2019-09-08T10:39:21Z</time>
      </trkpt>
      <trkpt lat="48.5777" lon="7.73127">
        <ele>157.60000610352</ele>
        <time>2019-09-08T10:39:27Z</time>
      </trkpt>
      <trkpt lat="48.57754" lon="7.73135">
        <ele>157.60000610352</ele>
        <time>2019-09-08T10:39:32Z</time>
      </trkpt>
      <trkpt lat="48.57729" lon="7.73139">
        <ele>157.39999389648</ele>
        <time>2019-09-08T10:39:38Z</time>
      </trkpt>
      <trkpt lat="48.57706" lon="7.73144">
        <ele>157.19999694824</ele>
        <time>2019-09-08T10:39:44Z</time>
      </trkpt>
      <trkpt lat="48.57695" lon="7.73149">
        <ele>157.19999694824</ele>
        <time>2019-09-08T10:39:47Z</time>
      </trkpt>
      <trkpt lat="48.57691" lon="7.73148">
        <ele>157.19999694824</ele>
        <time>2019-09-08T10:39:49Z</time>
      </trkpt>
      <trkpt lat="48.57686" lon="7.73149">
        <ele>157.39999389648</ele>
        <time>2019-09-08T10:39:54Z</time>
      </trkpt>
      <trkpt lat="48.57681" lon="7.73155">
        <ele>157.39999389648</ele>
        <time>2019-09-08T10:40:06Z</time>
      </trkpt>
      <trkpt lat="48.5767" lon="7.73158">
        <ele>157.19999694824</ele>
        <time>2019-09-08T10:40:11Z</time>
      </trkpt>
      <trkpt lat="48.57652" lon="7.73161">
        <ele>157.19999694824</ele>
        <time>2019-09-08T10:40:17Z</time>
      </trkpt>
      <trkpt lat="48.57645" lon="7.73169">
        <ele>157.19999694824</ele>
        <time>2019-09-08T10:40:23Z</time>
      </trkpt>
      <trkpt lat="48.57635" lon="7.73175">
        <ele>157.19999694824</ele>
        <time>2019-09-08T10:40:28Z</time>
      </trkpt>
      <trkpt lat="48.57618" lon="7.73187">
        <ele>157.19999694824</ele>
        <time>2019-09-08T10:40:33Z</time>
      </trkpt>
      <trkpt lat="48.57614" lon="7.73193">
        <ele>157.19999694824</ele>
        <time>2019-09-08T10:40:34Z</time>
      </trkpt>
      <trkpt lat="48.57602" lon="7.73213">
        <ele>157</ele>
        <time>2019-09-08T10:40:38Z</time>
      </trkpt>
      <trkpt lat="48.57579" lon="7.73243">
        <ele>157.19999694824</ele>
        <time>2019-09-08T10:40:45Z</time>
      </trkpt>
      <trkpt lat="48.57576" lon="7.73247">
        <ele>157.19999694824</ele>
        <time>2019-09-08T10:40:46Z</time>
      </trkpt>
      <trkpt lat="48.57567" lon="7.73261">
        <ele>157.19999694824</ele>
        <time>2019-09-08T10:40:49Z</time>
      </trkpt>
      <trkpt lat="48.57553" lon="7.73284">
        <ele>157</ele>
        <time>2019-09-08T10:40:54Z</time>
      </trkpt>
      <trkpt lat="48.57529" lon="7.73323">
        <ele>156.60000610352</ele>
        <time>2019-09-08T10:41:02Z</time>
      </trkpt>
      <trkpt lat="48.5751" lon="7.73361">
        <ele>156.80000305176</ele>
        <time>2019-09-08T10:41:10Z</time>
      </trkpt>
      <trkpt lat="48.57495" lon="7.73389">
        <ele>156.80000305176</ele>
        <time>2019-09-08T10:41:17Z</time>
      </trkpt>
      <trkpt lat="48.5749" lon="7.73398">
        <ele>157</ele>
        <time>2019-09-08T10:41:22Z</time>
      </trkpt>
      <trkpt lat="48.57488" lon="7.73418">
        <ele>157</ele>
        <time>2019-09-08T10:41:26Z</time>
      </trkpt>
      <trkpt lat="48.57484" lon="7.73455">
        <ele>157.19999694824</ele>
        <time>2019-09-08T10:41:32Z</time>
      </trkpt>
      <trkpt lat="48.57482" lon="7.73513">
        <ele>158.60000610352</ele>
        <time>2019-09-08T10:41:41Z</time>
      </trkpt>
      <trkpt lat="48.5748" lon="7.73569">
        <ele>159.60000610352</ele>
        <time>2019-09-08T10:41:50Z</time>
      </trkpt>
      <trkpt lat="48.5748" lon="7.73575">
        <ele>159.80000305176</ele>
        <time>2019-09-08T10:41:51Z</time>
      </trkpt>
      <trkpt lat="48.57476" lon="7.7361">
        <ele>160.80000305176</ele>
        <time>2019-09-08T10:41:57Z</time>
      </trkpt>
      <trkpt lat="48.57472" lon="7.73627">
        <ele>161.39999389648</ele>
        <time>2019-09-08T10:42:00Z</time>
      </trkpt>
      <trkpt lat="48.57469" lon="7.73644">
        <ele>161.60000610352</ele>
        <time>2019-09-08T10:42:03Z</time>
      </trkpt>
      <trkpt lat="48.57466" lon="7.73662">
        <ele>162</ele>
        <time>2019-09-08T10:42:06Z</time>
      </trkpt>
      <trkpt lat="48.57465" lon="7.73668">
        <ele>162.19999694824</ele>
        <time>2019-09-08T10:42:07Z</time>
      </trkpt>
      <trkpt lat="48.5746" lon="7.737">
        <ele>162.19999694824</ele>
        <time>2019-09-08T10:42:12Z</time>
      </trkpt>
      <trkpt lat="48.57458" lon="7.73712">
        <ele>162.19999694824</ele>
        <time>2019-09-08T10:42:14Z</time>
      </trkpt>
      <trkpt lat="48.57449" lon="7.73756">
        <ele>162</ele>
        <time>2019-09-08T10:42:22Z</time>
      </trkpt>
      <trkpt lat="48.57445" lon="7.73765">
        <ele>162</ele>
        <time>2019-09-08T10:42:26Z</time>
      </trkpt>
      <trkpt lat="48.57444" lon="7.73767">
        <ele>161.80000305176</ele>
        <time>2019-09-08T10:42:29Z</time>
      </trkpt>
      <trkpt lat="48.57444" lon="7.73769">
        <ele>161.80000305176</ele>
        <time>2019-09-08T10:42:43Z</time>
      </trkpt>
      <trkpt lat="48.57443" lon="7.73771">
        <ele>161.80000305176</ele>
        <time>2019-09-08T10:42:44Z</time>
      </trkpt>
      <trkpt lat="48.57435" lon="7.73778">
        <ele>162</ele>
        <time>2019-09-08T10:42:48Z</time>
      </trkpt>
      <trkpt lat="48.57424" lon="7.73779">
        <ele>161.80000305176</ele>
        <time>2019-09-08T10:42:54Z</time>
      </trkpt>
      <trkpt lat="48.57413" lon="7.73777">
        <ele>162.39999389648</ele>
        <time>2019-09-08T10:43:01Z</time>
      </trkpt>
      <trkpt lat="48.57402" lon="7.73777">
        <ele>162.39999389648</ele>
        <time>2019-09-08T10:43:09Z</time>
      </trkpt>
      <trkpt lat="48.57397" lon="7.73778">
        <ele>162.39999389648</ele>
        <time>2019-09-08T10:43:15Z</time>
      </trkpt>
      <trkpt lat="48.57396" lon="7.73778">
        <ele>162.19999694824</ele>
        <time>2019-09-08T10:43:23Z</time>
      </trkpt>
      <trkpt lat="48.57385" lon="7.73778">
        <ele>162.19999694824</ele>
        <time>2019-09-08T10:43:27Z</time>
      </trkpt>
      <trkpt lat="48.57372" lon="7.73776">
        <ele>162</ele>
        <time>2019-09-08T10:43:30Z</time>
      </trkpt>
      <trkpt lat="48.57363" lon="7.73776">
        <ele>161.80000305176</ele>
        <time>2019-09-08T10:43:32Z</time>
      </trkpt>
      <trkpt lat="48.57358" lon="7.73775">
        <ele>161.80000305176</ele>
        <time>2019-09-08T10:43:33Z</time>
      </trkpt>
      <trkpt lat="48.57347" lon="7.73773">
        <ele>161.60000610352</ele>
        <time>2019-09-08T10:43:35Z</time>
      </trkpt>
      <trkpt lat="48.57319" lon="7.73769">
        <ele>161.19999694824</ele>
        <time>2019-09-08T10:43:40Z</time>
      </trkpt>
      <trkpt lat="48.57307" lon="7.73766">
        <ele>160.80000305176</ele>
        <time>2019-09-08T10:43:42Z</time>
      </trkpt>
      <trkpt lat="48.57296" lon="7.73761">
        <ele>160.39999389648</ele>
        <time>2019-09-08T10:43:44Z</time>
      </trkpt>
      <trkpt lat="48.57292" lon="7.73757">
        <ele>160.19999694824</ele>
        <time>2019-09-08T10:43:45Z</time>
      </trkpt>
      <trkpt lat="48.57284" lon="7.7375">
        <ele>159.60000610352</ele>
        <time>2019-09-08T10:43:47Z</time>
      </trkpt>
      <trkpt lat="48.57268" lon="7.73733">
        <ele>158.80000305176</ele>
        <time>2019-09-08T10:43:51Z</time>
      </trkpt>
      <trkpt lat="48.57264" lon="7.73729">
        <ele>158.60000610352</ele>
        <time>2019-09-08T10:43:52Z</time>
      </trkpt>
      <trkpt lat="48.57246" lon="7.7371">
        <ele>157.39999389648</ele>
        <time>2019-09-08T10:43:57Z</time>
      </trkpt>
      <trkpt lat="48.57227" lon="7.73692">
        <ele>157</ele>
        <time>2019-09-08T10:44:04Z</time>
      </trkpt>
      <trkpt lat="48.57215" lon="7.73679">
        <ele>157</ele>
        <time>2019-09-08T10:44:09Z</time>
      </trkpt>
      <trkpt lat="48.57193" lon="7.73661">
        <ele>157</ele>
        <time>2019-09-08T10:44:16Z</time>
      </trkpt>
      <trkpt lat="48.57175" lon="7.73649">
        <ele>157.39999389648</ele>
        <time>2019-09-08T10:44:22Z</time>
      </trkpt>
      <trkpt lat="48.57157" lon="7.73636">
        <ele>158</ele>
        <time>2019-09-08T10:44:29Z</time>
      </trkpt>
      <trkpt lat="48.57135" lon="7.73621">
        <ele>158.39999389648</ele>
        <time>2019-09-08T10:44:36Z</time>
      </trkpt>
      <trkpt lat="48.57114" lon="7.73607">
        <ele>158.19999694824</ele>
        <time>2019-09-08T10:44:42Z</time>
      </trkpt>
      <trkpt lat="48.57105" lon="7.73596">
        <ele>158.19999694824</ele>
        <time>2019-09-08T10:44:46Z</time>
      </trkpt>
      <trkpt lat="48.5709" lon="7.73587">
        <ele>158</ele>
        <time>2019-09-08T10:44:51Z</time>
      </trkpt>
      <trkpt lat="48.57073" lon="7.73572">
        <ele>158</ele>
        <time>2019-09-08T10:44:56Z</time>
      </trkpt>
      <trkpt lat="48.57044" lon="7.7355">
        <ele>157.80000305176</ele>
        <time>2019-09-08T10:45:03Z</time>
      </trkpt>
      <trkpt lat="48.57037" lon="7.73546">
        <ele>157.80000305176</ele>
        <time>2019-09-08T10:45:06Z</time>
      </trkpt>
      <trkpt lat="48.57031" lon="7.73539">
        <ele>157.80000305176</ele>
        <time>2019-09-08T10:45:09Z</time>
      </trkpt>
      <trkpt lat="48.57024" lon="7.73536">
        <ele>157.80000305176</ele>
        <time>2019-09-08T10:45:11Z</time>
      </trkpt>
      <trkpt lat="48.56997" lon="7.7353">
        <ele>157.60000610352</ele>
        <time>2019-09-08T10:45:17Z</time>
      </trkpt>
      <trkpt lat="48.56973" lon="7.73528">
        <ele>157.80000305176</ele>
        <time>2019-09-08T10:45:23Z</time>
      </trkpt>
      <trkpt lat="48.5694" lon="7.73523">
        <ele>158</ele>
        <time>2019-09-08T10:45:30Z</time>
      </trkpt>
      <trkpt lat="48.56919" lon="7.73525">
        <ele>158.19999694824</ele>
        <time>2019-09-08T10:45:35Z</time>
      </trkpt>
      <trkpt lat="48.56909" lon="7.73524">
        <ele>158.39999389648</ele>
        <time>2019-09-08T10:45:37Z</time>
      </trkpt>
      <trkpt lat="48.56867" lon="7.73517">
        <ele>158.60000610352</ele>
        <time>2019-09-08T10:45:45Z</time>
      </trkpt>
      <trkpt lat="48.56835" lon="7.73506">
        <ele>158.60000610352</ele>
        <time>2019-09-08T10:45:52Z</time>
      </trkpt>
      <trkpt lat="48.56816" lon="7.73499">
        <ele>159</ele>
        <time>2019-09-08T10:45:58Z</time>
      </trkpt>
      <trkpt lat="48.56815" lon="7.73499">
        <ele>159.19999694824</ele>
        <time>2019-09-08T10:45:59Z</time>
      </trkpt>
      <trkpt lat="48.56815" lon="7.73499">
        <ele>159.19999694824</ele>
        <time>2019-09-08T10:46:00Z</time>
      </trkpt>
      <trkpt lat="48.56815" lon="7.73499">
        <ele>159.80000305176</ele>
        <time>2019-09-08T10:46:21Z</time>
      </trkpt>
      <trkpt lat="48.56813" lon="7.735">
        <ele>159.80000305176</ele>
        <time>2019-09-08T10:46:22Z</time>
      </trkpt>
      <trkpt lat="48.56803" lon="7.73499">
        <ele>159.80000305176</ele>
        <time>2019-09-08T10:46:26Z</time>
      </trkpt>
      <trkpt lat="48.56774" lon="7.73495">
        <ele>160</ele>
        <time>2019-09-08T10:46:33Z</time>
      </trkpt>
      <trkpt lat="48.5674" lon="7.7349">
        <ele>159.80000305176</ele>
        <time>2019-09-08T10:46:41Z</time>
      </trkpt>
      <trkpt lat="48.56704" lon="7.73485">
        <ele>159.80000305176</ele>
        <time>2019-09-08T10:46:49Z</time>
      </trkpt>
      <trkpt lat="48.56667" lon="7.73481">
        <ele>159.80000305176</ele>
        <time>2019-09-08T10:46:57Z</time>
      </trkpt>
      <trkpt lat="48.56633" lon="7.73477">
        <ele>160</ele>
        <time>2019-09-08T10:47:04Z</time>
      </trkpt>
      <trkpt lat="48.56593" lon="7.73475">
        <ele>159.80000305176</ele>
        <time>2019-09-08T10:47:12Z</time>
      </trkpt>
      <trkpt lat="48.5656" lon="7.73471">
        <ele>159.80000305176</ele>
        <time>2019-09-08T10:47:19Z</time>
      </trkpt>
      <trkpt lat="48.56523" lon="7.73466">
        <ele>159.80000305176</ele>
        <time>2019-09-08T10:47:26Z</time>
      </trkpt>
      <trkpt lat="48.56488" lon="7.73462">
        <ele>159.80000305176</ele>
        <time>2019-09-08T10:47:33Z</time>
      </trkpt>
      <trkpt lat="48.56478" lon="7.73461">
        <ele>159.80000305176</ele>
        <time>2019-09-08T10:47:35Z</time>
      </trkpt>
      <trkpt lat="48.56458" lon="7.73459">
        <ele>159.80000305176</ele>
        <time>2019-09-08T10:47:39Z</time>
      </trkpt>
      <trkpt lat="48.56422" lon="7.73458">
        <ele>159.80000305176</ele>
        <time>2019-09-08T10:47:46Z</time>
      </trkpt>
      <trkpt lat="48.56387" lon="7.73455">
        <ele>159.80000305176</ele>
        <time>2019-09-08T10:47:53Z</time>
      </trkpt>
      <trkpt lat="48.56351" lon="7.73449">
        <ele>160</ele>
        <time>2019-09-08T10:48:00Z</time>
      </trkpt>
      <trkpt lat="48.56346" lon="7.73449">
        <ele>160</ele>
        <time>2019-09-08T10:48:01Z</time>
      </trkpt>
      <trkpt lat="48.5629" lon="7.73442">
        <ele>160.19999694824</ele>
        <time>2019-09-08T10:48:12Z</time>
      </trkpt>
      <trkpt lat="48.56285" lon="7.73441">
        <ele>160.19999694824</ele>
        <time>2019-09-08T10:48:13Z</time>
      </trkpt>
      <trkpt lat="48.56249" lon="7.73436">
        <ele>160.19999694824</ele>
        <time>2019-09-08T10:48:20Z</time>
      </trkpt>
      <trkpt lat="48.56215" lon="7.7343">
        <ele>160.19999694824</ele>
        <time>2019-09-08T10:48:27Z</time>
      </trkpt>
      <trkpt lat="48.562" lon="7.73426">
        <ele>160.19999694824</ele>
        <time>2019-09-08T10:48:30Z</time>
      </trkpt>
      <trkpt lat="48.56185" lon="7.73425">
        <ele>160.19999694824</ele>
        <time>2019-09-08T10:48:33Z</time>
      </trkpt>
      <trkpt lat="48.56151" lon="7.7342">
        <ele>160.19999694824</ele>
        <time>2019-09-08T10:48:40Z</time>
      </trkpt>
      <trkpt lat="48.56106" lon="7.73414">
        <ele>160</ele>
        <time>2019-09-08T10:48:49Z</time>
      </trkpt>
      <trkpt lat="48.56069" lon="7.7341">
        <ele>160</ele>
        <time>2019-09-08T10:48:57Z</time>
      </trkpt>
      <trkpt lat="48.56039" lon="7.73406">
        <ele>160</ele>
        <time>2019-09-08T10:49:03Z</time>
      </trkpt>
      <trkpt lat="48.55997" lon="7.73401">
        <ele>160.19999694824</ele>
        <time>2019-09-08T10:49:11Z</time>
      </trkpt>
      <trkpt lat="48.5596" lon="7.73397">
        <ele>160</ele>
        <time>2019-09-08T10:49:18Z</time>
      </trkpt>
      <trkpt lat="48.55914" lon="7.73391">
        <ele>160</ele>
        <time>2019-09-08T10:49:27Z</time>
      </trkpt>
      <trkpt lat="48.55874" lon="7.73384">
        <ele>160</ele>
        <time>2019-09-08T10:49:35Z</time>
      </trkpt>
      <trkpt lat="48.55835" lon="7.73379">
        <ele>159.80000305176</ele>
        <time>2019-09-08T10:49:43Z</time>
      </trkpt>
      <trkpt lat="48.55815" lon="7.73378">
        <ele>159.80000305176</ele>
        <time>2019-09-08T10:49:47Z</time>
      </trkpt>
      <trkpt lat="48.55805" lon="7.73377">
        <ele>159.80000305176</ele>
        <time>2019-09-08T10:49:49Z</time>
      </trkpt>
      <trkpt lat="48.5576" lon="7.73371">
        <ele>159.60000610352</ele>
        <time>2019-09-08T10:49:58Z</time>
      </trkpt>
      <trkpt lat="48.55719" lon="7.73367">
        <ele>159.60000610352</ele>
        <time>2019-09-08T10:50:06Z</time>
      </trkpt>
      <trkpt lat="48.55685" lon="7.73362">
        <ele>159.39999389648</ele>
        <time>2019-09-08T10:50:13Z</time>
      </trkpt>
      <trkpt lat="48.55644" lon="7.73357">
        <ele>159.39999389648</ele>
        <time>2019-09-08T10:50:21Z</time>
      </trkpt>
      <trkpt lat="48.55607" lon="7.73352">
        <ele>159.39999389648</ele>
        <time>2019-09-08T10:50:28Z</time>
      </trkpt>
      <trkpt lat="48.55561" lon="7.73347">
        <ele>159.39999389648</ele>
        <time>2019-09-08T10:50:37Z</time>
      </trkpt>
      <trkpt lat="48.55515" lon="7.73341">
        <ele>159.19999694824</ele>
        <time>2019-09-08T10:50:46Z</time>
      </trkpt>
      <trkpt lat="48.5547" lon="7.73334">
        <ele>159.39999389648</ele>
        <time>2019-09-08T10:50:55Z</time>
      </trkpt>
      <trkpt lat="48.55425" lon="7.73329">
        <ele>159.39999389648</ele>
        <time>2019-09-08T10:51:04Z</time>
      </trkpt>
      <trkpt lat="48.55388" lon="7.73322">
        <ele>159.39999389648</ele>
        <time>2019-09-08T10:51:11Z</time>
      </trkpt>
      <trkpt lat="48.55347" lon="7.73319">
        <ele>159.39999389648</ele>
        <time>2019-09-08T10:51:19Z</time>
      </trkpt>
      <trkpt lat="48.55316" lon="7.73314">
        <ele>159.39999389648</ele>
        <time>2019-09-08T10:51:25Z</time>
      </trkpt>
      <trkpt lat="48.55306" lon="7.73313">
        <ele>159.39999389648</ele>
        <time>2019-09-08T10:51:27Z</time>
      </trkpt>
      <trkpt lat="48.55265" lon="7.73306">
        <ele>159.60000610352</ele>
        <time>2019-09-08T10:51:35Z</time>
      </trkpt>
      <trkpt lat="48.55208" lon="7.73298">
        <ele>159.60000610352</ele>
        <time>2019-09-08T10:51:46Z</time>
      </trkpt>
      <trkpt lat="48.55172" lon="7.73293">
        <ele>159.60000610352</ele>
        <time>2019-09-08T10:51:53Z</time>
      </trkpt>
      <trkpt lat="48.55127" lon="7.73287">
        <ele>159.60000610352</ele>
        <time>2019-09-08T10:52:02Z</time>
      </trkpt>
      <trkpt lat="48.55079" lon="7.7328">
        <ele>159.60000610352</ele>
        <time>2019-09-08T10:52:11Z</time>
      </trkpt>
      <trkpt lat="48.55043" lon="7.73276">
        <ele>159.60000610352</ele>
        <time>2019-09-08T10:52:18Z</time>
      </trkpt>
      <trkpt lat="48.55022" lon="7.73272">
        <ele>159.39999389648</ele>
        <time>2019-09-08T10:52:22Z</time>
      </trkpt>
      <trkpt lat="48.55007" lon="7.73272">
        <ele>159.60000610352</ele>
        <time>2019-09-08T10:52:25Z</time>
      </trkpt>
      <trkpt lat="48.54979" lon="7.73268">
        <ele>159.60000610352</ele>
        <time>2019-09-08T10:52:31Z</time>
      </trkpt>
      <trkpt lat="48.54972" lon="7.73267">
        <ele>159.39999389648</ele>
        <time>2019-09-08T10:52:33Z</time>
      </trkpt>
      <trkpt lat="48.54964" lon="7.73266">
        <ele>159.39999389648</ele>
        <time>2019-09-08T10:52:35Z</time>
      </trkpt>
      <trkpt lat="48.54951" lon="7.73265">
        <ele>159.39999389648</ele>
        <time>2019-09-08T10:52:38Z</time>
      </trkpt>
      <trkpt lat="48.54936" lon="7.73263">
        <ele>159.39999389648</ele>
        <time>2019-09-08T10:52:41Z</time>
      </trkpt>
      <trkpt lat="48.549" lon="7.73259">
        <ele>159.19999694824</ele>
        <time>2019-09-08T10:52:48Z</time>
      </trkpt>
      <trkpt lat="48.5486" lon="7.73254">
        <ele>159.19999694824</ele>
        <time>2019-09-08T10:52:56Z</time>
      </trkpt>
      <trkpt lat="48.54825" lon="7.7325">
        <ele>159</ele>
        <time>2019-09-08T10:53:03Z</time>
      </trkpt>
      <trkpt lat="48.54783" lon="7.73244">
        <ele>159</ele>
        <time>2019-09-08T10:53:11Z</time>
      </trkpt>
      <trkpt lat="48.54736" lon="7.73238">
        <ele>158.80000305176</ele>
        <time>2019-09-08T10:53:20Z</time>
      </trkpt>
      <trkpt lat="48.5469" lon="7.73234">
        <ele>159</ele>
        <time>2019-09-08T10:53:29Z</time>
      </trkpt>
      <trkpt lat="48.54666" lon="7.7323">
        <ele>159</ele>
        <time>2019-09-08T10:53:34Z</time>
      </trkpt>
      <trkpt lat="48.54657" lon="7.73228">
        <ele>159.19999694824</ele>
        <time>2019-09-08T10:53:36Z</time>
      </trkpt>
      <trkpt lat="48.54619" lon="7.73223">
        <ele>159.39999389648</ele>
        <time>2019-09-08T10:53:44Z</time>
      </trkpt>
      <trkpt lat="48.54611" lon="7.73222">
        <ele>159.39999389648</ele>
        <time>2019-09-08T10:53:46Z</time>
      </trkpt>
      <trkpt lat="48.54599" lon="7.73219">
        <ele>159.39999389648</ele>
        <time>2019-09-08T10:53:49Z</time>
      </trkpt>
      <trkpt lat="48.5459" lon="7.73217">
        <ele>159.39999389648</ele>
        <time>2019-09-08T10:53:51Z</time>
      </trkpt>
      <trkpt lat="48.5455" lon="7.73214">
        <ele>160</ele>
        <time>2019-09-08T10:54:00Z</time>
      </trkpt>
      <trkpt lat="48.54527" lon="7.73209">
        <ele>160.60000610352</ele>
        <time>2019-09-08T10:54:06Z</time>
      </trkpt>
      <trkpt lat="48.54513" lon="7.73209">
        <ele>160.60000610352</ele>
        <time>2019-09-08T10:54:09Z</time>
      </trkpt>
      <trkpt lat="48.54502" lon="7.73208">
        <ele>160.60000610352</ele>
        <time>2019-09-08T10:54:11Z</time>
      </trkpt>
      <trkpt lat="48.54471" lon="7.73203">
        <ele>160.39999389648</ele>
        <time>2019-09-08T10:54:17Z</time>
      </trkpt>
      <trkpt lat="48.5445" lon="7.732">
        <ele>159.80000305176</ele>
        <time>2019-09-08T10:54:23Z</time>
      </trkpt>
      <trkpt lat="48.54433" lon="7.732">
        <ele>159.60000610352</ele>
        <time>2019-09-08T10:54:28Z</time>
      </trkpt>
      <trkpt lat="48.54421" lon="7.73197">
        <ele>159.39999389648</ele>
        <time>2019-09-08T10:54:32Z</time>
      </trkpt>
      <trkpt lat="48.5442" lon="7.73196">
        <ele>159.39999389648</ele>
        <time>2019-09-08T10:54:34Z</time>
      </trkpt>
      <trkpt lat="48.54419" lon="7.73194">
        <ele>159.39999389648</ele>
        <time>2019-09-08T10:55:20Z</time>
      </trkpt>
      <trkpt lat="48.54417" lon="7.73194">
        <ele>159.39999389648</ele>
        <time>2019-09-08T10:55:21Z</time>
      </trkpt>
      <trkpt lat="48.54401" lon="7.73195">
        <ele>159.39999389648</ele>
        <time>2019-09-08T10:55:27Z</time>
      </trkpt>
      <trkpt lat="48.54374" lon="7.73193">
        <ele>159.39999389648</ele>
        <time>2019-09-08T10:55:33Z</time>
      </trkpt>
      <trkpt lat="48.54343" lon="7.73189">
        <ele>159.39999389648</ele>
        <time>2019-09-08T10:55:40Z</time>
      </trkpt>
      <trkpt lat="48.54308" lon="7.73184">
        <ele>159.60000610352</ele>
        <time>2019-09-08T10:55:47Z</time>
      </trkpt>
      <trkpt lat="48.54267" lon="7.73179">
        <ele>159.80000305176</ele>
        <time>2019-09-08T10:55:55Z</time>
      </trkpt>
      <trkpt lat="48.54231" lon="7.73175">
        <ele>160</ele>
        <time>2019-09-08T10:56:02Z</time>
      </trkpt>
      <trkpt lat="48.542" lon="7.73174">
        <ele>160</ele>
        <time>2019-09-08T10:56:08Z</time>
      </trkpt>
      <trkpt lat="48.54165" lon="7.73174">
        <ele>160</ele>
        <time>2019-09-08T10:56:15Z</time>
      </trkpt>
      <trkpt lat="48.54131" lon="7.73168">
        <ele>160</ele>
        <time>2019-09-08T10:56:21Z</time>
      </trkpt>
      <trkpt lat="48.54088" lon="7.73164">
        <ele>160</ele>
        <time>2019-09-08T10:56:29Z</time>
      </trkpt>
      <trkpt lat="48.54083" lon="7.73162">
        <ele>160</ele>
        <time>2019-09-08T10:56:30Z</time>
      </trkpt>
      <trkpt lat="48.54062" lon="7.7316">
        <ele>160</ele>
        <time>2019-09-08T10:56:34Z</time>
      </trkpt>
      <trkpt lat="48.54026" lon="7.73155">
        <ele>160</ele>
        <time>2019-09-08T10:56:41Z</time>
      </trkpt>
      <trkpt lat="48.53986" lon="7.73149">
        <ele>160</ele>
        <time>2019-09-08T10:56:49Z</time>
      </trkpt>
      <trkpt lat="48.53944" lon="7.73143">
        <ele>160</ele>
        <time>2019-09-08T10:56:57Z</time>
      </trkpt>
      <trkpt lat="48.53896" lon="7.7314">
        <ele>159.80000305176</ele>
        <time>2019-09-08T10:57:06Z</time>
      </trkpt>
      <trkpt lat="48.53892" lon="7.73139">
        <ele>159.80000305176</ele>
        <time>2019-09-08T10:57:07Z</time>
      </trkpt>
      <trkpt lat="48.53868" lon="7.73139">
        <ele>159.80000305176</ele>
        <time>2019-09-08T10:57:12Z</time>
      </trkpt>
      <trkpt lat="48.53845" lon="7.73138">
        <ele>159.80000305176</ele>
        <time>2019-09-08T10:57:18Z</time>
      </trkpt>
      <trkpt lat="48.53831" lon="7.73139">
        <ele>159.80000305176</ele>
        <time>2019-09-08T10:57:23Z</time>
      </trkpt>
      <trkpt lat="48.53833" lon="7.73142">
        <ele>159.80000305176</ele>
        <time>2019-09-08T10:57:26Z</time>
      </trkpt>
      <trkpt lat="48.53844" lon="7.73137">
        <ele>159.80000305176</ele>
        <time>2019-09-08T10:57:32Z</time>
      </trkpt>
      <trkpt lat="48.53864" lon="7.73136">
        <ele>159.80000305176</ele>
        <time>2019-09-08T10:57:38Z</time>
      </trkpt>
      <trkpt lat="48.53889" lon="7.73139">
        <ele>159.80000305176</ele>
        <time>2019-09-08T10:57:44Z</time>
      </trkpt>
      <trkpt lat="48.53924" lon="7.73142">
        <ele>159.80000305176</ele>
        <time>2019-09-08T10:57:52Z</time>
      </trkpt>
      <trkpt lat="48.53948" lon="7.73145">
        <ele>159.80000305176</ele>
        <time>2019-09-08T10:57:58Z</time>
      </trkpt>
      <trkpt lat="48.53959" lon="7.73154">
        <ele>159.80000305176</ele>
        <time>2019-09-08T10:58:01Z</time>
      </trkpt>
      <trkpt lat="48.53959" lon="7.73172">
        <ele>160</ele>
        <time>2019-09-08T10:58:04Z</time>
      </trkpt>
      <trkpt lat="48.53954" lon="7.73212">
        <ele>160.19999694824</ele>
        <time>2019-09-08T10:58:10Z</time>
      </trkpt>
      <trkpt lat="48.53954" lon="7.73219">
        <ele>160.19999694824</ele>
        <time>2019-09-08T10:58:11Z</time>
      </trkpt>
      <trkpt lat="48.53948" lon="7.73257">
        <ele>160.39999389648</ele>
        <time>2019-09-08T10:58:17Z</time>
      </trkpt>
      <trkpt lat="48.53948" lon="7.73264">
        <ele>160.39999389648</ele>
        <time>2019-09-08T10:58:18Z</time>
      </trkpt>
      <trkpt lat="48.53944" lon="7.73313">
        <ele>160.19999694824</ele>
        <time>2019-09-08T10:58:25Z</time>
      </trkpt>
      <trkpt lat="48.53941" lon="7.73352">
        <ele>160.19999694824</ele>
        <time>2019-09-08T10:58:31Z</time>
      </trkpt>
      <trkpt lat="48.53935" lon="7.73374">
        <ele>160.19999694824</ele>
        <time>2019-09-08T10:58:36Z</time>
      </trkpt>
      <trkpt lat="48.5392" lon="7.7337">
        <ele>160.39999389648</ele>
        <time>2019-09-08T10:58:40Z</time>
      </trkpt>
      <trkpt lat="48.53893" lon="7.73357">
        <ele>160.80000305176</ele>
        <time>2019-09-08T10:58:47Z</time>
      </trkpt>
      <trkpt lat="48.53866" lon="7.73336">
        <ele>161</ele>
        <time>2019-09-08T10:58:54Z</time>
      </trkpt>
      <trkpt lat="48.53839" lon="7.73312">
        <ele>161</ele>
        <time>2019-09-08T10:59:01Z</time>
      </trkpt>
      <trkpt lat="48.53824" lon="7.73289">
        <ele>161</ele>
        <time>2019-09-08T10:59:06Z</time>
      </trkpt>
      <trkpt lat="48.53807" lon="7.73245">
        <ele>161</ele>
        <time>2019-09-08T10:59:14Z</time>
      </trkpt>
      <trkpt lat="48.53803" lon="7.73235">
        <ele>161.39999389648</ele>
        <time>2019-09-08T10:59:17Z</time>
      </trkpt>
      <trkpt lat="48.53802" lon="7.73235">
        <ele>161.60000610352</ele>
        <time>2019-09-08T10:59:18Z</time>
      </trkpt>
      <trkpt lat="48.53802" lon="7.73234">
        <ele>161.60000610352</ele>
        <time>2019-09-08T10:59:19Z</time>
      </trkpt>
      <trkpt lat="48.53801" lon="7.73233">
        <ele>162</ele>
        <time>2019-09-08T10:59:46Z</time>
      </trkpt>
      <trkpt lat="48.53798" lon="7.73234">
        <ele>162</ele>
        <time>2019-09-08T10:59:48Z</time>
      </trkpt>
      <trkpt lat="48.5379" lon="7.73237">
        <ele>162</ele>
        <time>2019-09-08T10:59:52Z</time>
      </trkpt>
      <trkpt lat="48.53789" lon="7.73235">
        <ele>162</ele>
        <time>2019-09-08T10:59:53Z</time>
      </trkpt>
      <trkpt lat="48.53787" lon="7.73223">
        <ele>162</ele>
        <time>2019-09-08T10:59:56Z</time>
      </trkpt>
      <trkpt lat="48.53786" lon="7.7321">
        <ele>162.19999694824</ele>
        <time>2019-09-08T10:59:59Z</time>
      </trkpt>
      <trkpt lat="48.53786" lon="7.73187">
        <ele>163</ele>
        <time>2019-09-08T11:00:04Z</time>
      </trkpt>
      <trkpt lat="48.53786" lon="7.73176">
        <ele>163.39999389648</ele>
        <time>2019-09-08T11:00:06Z</time>
      </trkpt>
      <trkpt lat="48.53788" lon="7.73141">
        <ele>164</ele>
        <time>2019-09-08T11:00:13Z</time>
      </trkpt>
      <trkpt lat="48.53789" lon="7.73101">
        <ele>165.19999694824</ele>
        <time>2019-09-08T11:00:21Z</time>
      </trkpt>
      <trkpt lat="48.53791" lon="7.73067">
        <ele>165.80000305176</ele>
        <time>2019-09-08T11:00:29Z</time>
      </trkpt>
      <trkpt lat="48.53791" lon="7.73062">
        <ele>166</ele>
        <time>2019-09-08T11:00:31Z</time>
      </trkpt>
      <trkpt lat="48.53789" lon="7.7306">
        <ele>166</ele>
        <time>2019-09-08T11:00:34Z</time>
      </trkpt>
      <trkpt lat="48.53779" lon="7.73061">
        <ele>165.80000305176</ele>
        <time>2019-09-08T11:00:39Z</time>
      </trkpt>
      <trkpt lat="48.53773" lon="7.73061">
        <ele>165.80000305176</ele>
        <time>2019-09-08T11:00:41Z</time>
      </trkpt>
      <trkpt lat="48.5376" lon="7.73061">
        <ele>165.39999389648</ele>
        <time>2019-09-08T11:00:44Z</time>
      </trkpt>
      <trkpt lat="48.53745" lon="7.7306">
        <ele>164.19999694824</ele>
        <time>2019-09-08T11:00:47Z</time>
      </trkpt>
      <trkpt lat="48.53728" lon="7.73055">
        <ele>163.39999389648</ele>
        <time>2019-09-08T11:00:50Z</time>
      </trkpt>
      <trkpt lat="48.53722" lon="7.73054">
        <ele>163</ele>
        <time>2019-09-08T11:00:51Z</time>
      </trkpt>
      <trkpt lat="48.53699" lon="7.73052">
        <ele>161.80000305176</ele>
        <time>2019-09-08T11:00:55Z</time>
      </trkpt>
      <trkpt lat="48.53694" lon="7.7305">
        <ele>161.60000610352</ele>
        <time>2019-09-08T11:00:56Z</time>
      </trkpt>
      <trkpt lat="48.53673" lon="7.73047">
        <ele>161.19999694824</ele>
        <time>2019-09-08T11:01:00Z</time>
      </trkpt>
      <trkpt lat="48.53659" lon="7.73044">
        <ele>161.19999694824</ele>
        <time>2019-09-08T11:01:03Z</time>
      </trkpt>
      <trkpt lat="48.53628" lon="7.73042">
        <ele>161</ele>
        <time>2019-09-08T11:01:09Z</time>
      </trkpt>
      <trkpt lat="48.53592" lon="7.73036">
        <ele>161.19999694824</ele>
        <time>2019-09-08T11:01:16Z</time>
      </trkpt>
      <trkpt lat="48.53546" lon="7.73031">
        <ele>161.19999694824</ele>
        <time>2019-09-08T11:01:25Z</time>
      </trkpt>
      <trkpt lat="48.53509" lon="7.73028">
        <ele>161.19999694824</ele>
        <time>2019-09-08T11:01:32Z</time>
      </trkpt>
      <trkpt lat="48.53476" lon="7.73024">
        <ele>161.19999694824</ele>
        <time>2019-09-08T11:01:39Z</time>
      </trkpt>
      <trkpt lat="48.53427" lon="7.73018">
        <ele>161.39999389648</ele>
        <time>2019-09-08T11:01:48Z</time>
      </trkpt>
      <trkpt lat="48.53391" lon="7.73013">
        <ele>161.39999389648</ele>
        <time>2019-09-08T11:01:55Z</time>
      </trkpt>
      <trkpt lat="48.53349" lon="7.73007">
        <ele>161.19999694824</ele>
        <time>2019-09-08T11:02:03Z</time>
      </trkpt>
      <trkpt lat="48.5331" lon="7.73002">
        <ele>161.19999694824</ele>
        <time>2019-09-08T11:02:11Z</time>
      </trkpt>
      <trkpt lat="48.53273" lon="7.72997">
        <ele>161</ele>
        <time>2019-09-08T11:02:18Z</time>
      </trkpt>
      <trkpt lat="48.53237" lon="7.7299">
        <ele>161</ele>
        <time>2019-09-08T11:02:25Z</time>
      </trkpt>
      <trkpt lat="48.53217" lon="7.72988">
        <ele>161.19999694824</ele>
        <time>2019-09-08T11:02:29Z</time>
      </trkpt>
      <trkpt lat="48.53208" lon="7.72987">
        <ele>161</ele>
        <time>2019-09-08T11:02:31Z</time>
      </trkpt>
      <trkpt lat="48.53184" lon="7.72984">
        <ele>161</ele>
        <time>2019-09-08T11:02:36Z</time>
      </trkpt>
      <trkpt lat="48.53149" lon="7.72977">
        <ele>161</ele>
        <time>2019-09-08T11:02:43Z</time>
      </trkpt>
      <trkpt lat="48.53103" lon="7.72971">
        <ele>161</ele>
        <time>2019-09-08T11:02:52Z</time>
      </trkpt>
      <trkpt lat="48.5307" lon="7.72969">
        <ele>161</ele>
        <time>2019-09-08T11:02:59Z</time>
      </trkpt>
      <trkpt lat="48.53037" lon="7.72967">
        <ele>161</ele>
        <time>2019-09-08T11:03:06Z</time>
      </trkpt>
      <trkpt lat="48.53032" lon="7.72966">
        <ele>161</ele>
        <time>2019-09-08T11:03:07Z</time>
      </trkpt>
      <trkpt lat="48.53008" lon="7.72962">
        <ele>161</ele>
        <time>2019-09-08T11:03:12Z</time>
      </trkpt>
      <trkpt lat="48.52983" lon="7.72959">
        <ele>161.19999694824</ele>
        <time>2019-09-08T11:03:17Z</time>
      </trkpt>
      <trkpt lat="48.52979" lon="7.72959">
        <ele>161.19999694824</ele>
        <time>2019-09-08T11:03:18Z</time>
      </trkpt>
      <trkpt lat="48.5295" lon="7.72955">
        <ele>161.19999694824</ele>
        <time>2019-09-08T11:03:24Z</time>
      </trkpt>
      <trkpt lat="48.52935" lon="7.72956">
        <ele>161.19999694824</ele>
        <time>2019-09-08T11:03:27Z</time>
      </trkpt>
      <trkpt lat="48.52927" lon="7.72961">
        <ele>161.19999694824</ele>
        <time>2019-09-08T11:03:29Z</time>
      </trkpt>
      <trkpt lat="48.5291" lon="7.72967">
        <ele>161.19999694824</ele>
        <time>2019-09-08T11:03:34Z</time>
      </trkpt>
      <trkpt lat="48.52893" lon="7.72961">
        <ele>161.39999389648</ele>
        <time>2019-09-08T11:03:38Z</time>
      </trkpt>
      <trkpt lat="48.52887" lon="7.72957">
        <ele>161.39999389648</ele>
        <time>2019-09-08T11:03:39Z</time>
      </trkpt>
      <trkpt lat="48.52871" lon="7.72952">
        <ele>161.39999389648</ele>
        <time>2019-09-08T11:03:42Z</time>
      </trkpt>
      <trkpt lat="48.52837" lon="7.72945">
        <ele>161.19999694824</ele>
        <time>2019-09-08T11:03:49Z</time>
      </trkpt>
      <trkpt lat="48.52806" lon="7.72943">
        <ele>161.19999694824</ele>
        <time>2019-09-08T11:03:56Z</time>
      </trkpt>
      <trkpt lat="48.52788" lon="7.72941">
        <ele>161.19999694824</ele>
        <time>2019-09-08T11:04:00Z</time>
      </trkpt>
      <trkpt lat="48.52778" lon="7.72941">
        <ele>161.19999694824</ele>
        <time>2019-09-08T11:04:02Z</time>
      </trkpt>
      <trkpt lat="48.52737" lon="7.72932">
        <ele>161.39999389648</ele>
        <time>2019-09-08T11:04:09Z</time>
      </trkpt>
      <trkpt lat="48.52694" lon="7.72923">
        <ele>161.39999389648</ele>
        <time>2019-09-08T11:04:17Z</time>
      </trkpt>
      <trkpt lat="48.52684" lon="7.72921">
        <ele>161.39999389648</ele>
        <time>2019-09-08T11:04:19Z</time>
      </trkpt>
      <trkpt lat="48.52662" lon="7.72917">
        <ele>161.60000610352</ele>
        <time>2019-09-08T11:04:23Z</time>
      </trkpt>
      <trkpt lat="48.52631" lon="7.72912">
        <ele>161.60000610352</ele>
        <time>2019-09-08T11:04:29Z</time>
      </trkpt>
      <trkpt lat="48.526" lon="7.72907">
        <ele>161.60000610352</ele>
        <time>2019-09-08T11:04:35Z</time>
      </trkpt>
      <trkpt lat="48.52568" lon="7.72901">
        <ele>161.60000610352</ele>
        <time>2019-09-08T11:04:41Z</time>
      </trkpt>
      <trkpt lat="48.52531" lon="7.72899">
        <ele>161.60000610352</ele>
        <time>2019-09-08T11:04:48Z</time>
      </trkpt>
      <trkpt lat="48.52502" lon="7.72895">
        <ele>161.60000610352</ele>
        <time>2019-09-08T11:04:54Z</time>
      </trkpt>
      <trkpt lat="48.52471" lon="7.72891">
        <ele>161.60000610352</ele>
        <time>2019-09-08T11:05:00Z</time>
      </trkpt>
      <trkpt lat="48.52435" lon="7.72887">
        <ele>161.60000610352</ele>
        <time>2019-09-08T11:05:07Z</time>
      </trkpt>
      <trkpt lat="48.524" lon="7.72882">
        <ele>161.60000610352</ele>
        <time>2019-09-08T11:05:14Z</time>
      </trkpt>
      <trkpt lat="48.52366" lon="7.72876">
        <ele>161.60000610352</ele>
        <time>2019-09-08T11:05:21Z</time>
      </trkpt>
      <trkpt lat="48.52335" lon="7.72874">
        <ele>161.60000610352</ele>
        <time>2019-09-08T11:05:28Z</time>
      </trkpt>
      <trkpt lat="48.52303" lon="7.72872">
        <ele>161.60000610352</ele>
        <time>2019-09-08T11:05:35Z</time>
      </trkpt>
      <trkpt lat="48.52258" lon="7.72865">
        <ele>161.60000610352</ele>
        <time>2019-09-08T11:05:43Z</time>
      </trkpt>
      <trkpt lat="48.52219" lon="7.72859">
        <ele>161.80000305176</ele>
        <time>2019-09-08T11:05:50Z</time>
      </trkpt>
      <trkpt lat="48.52192" lon="7.72856">
        <ele>161.80000305176</ele>
        <time>2019-09-08T11:05:56Z</time>
      </trkpt>
      <trkpt lat="48.52153" lon="7.7285">
        <ele>161.80000305176</ele>
        <time>2019-09-08T11:06:04Z</time>
      </trkpt>
      <trkpt lat="48.52128" lon="7.72848">
        <ele>161.80000305176</ele>
        <time>2019-09-08T11:06:09Z</time>
      </trkpt>
      <trkpt lat="48.52092" lon="7.72855">
        <ele>161.80000305176</ele>
        <time>2019-09-08T11:06:16Z</time>
      </trkpt>
      <trkpt lat="48.52087" lon="7.72856">
        <ele>161.60000610352</ele>
        <time>2019-09-08T11:06:17Z</time>
      </trkpt>
      <trkpt lat="48.52062" lon="7.72859">
        <ele>162</ele>
        <time>2019-09-08T11:06:22Z</time>
      </trkpt>
      <trkpt lat="48.52048" lon="7.72857">
        <ele>161.80000305176</ele>
        <time>2019-09-08T11:06:25Z</time>
      </trkpt>
      <trkpt lat="48.52038" lon="7.72853">
        <ele>161.80000305176</ele>
        <time>2019-09-08T11:06:27Z</time>
      </trkpt>
      <trkpt lat="48.51997" lon="7.72838">
        <ele>161.80000305176</ele>
        <time>2019-09-08T11:06:35Z</time>
      </trkpt>
      <trkpt lat="48.51978" lon="7.72832">
        <ele>162</ele>
        <time>2019-09-08T11:06:40Z</time>
      </trkpt>
      <trkpt lat="48.51951" lon="7.7283">
        <ele>162.19999694824</ele>
        <time>2019-09-08T11:06:46Z</time>
      </trkpt>
      <trkpt lat="48.51947" lon="7.72829">
        <ele>162.19999694824</ele>
        <time>2019-09-08T11:06:47Z</time>
      </trkpt>
      <trkpt lat="48.51923" lon="7.72825">
        <ele>162.39999389648</ele>
        <time>2019-09-08T11:06:52Z</time>
      </trkpt>
      <trkpt lat="48.51884" lon="7.72821">
        <ele>162.60000610352</ele>
        <time>2019-09-08T11:07:00Z</time>
      </trkpt>
      <trkpt lat="48.51864" lon="7.72819">
        <ele>162.60000610352</ele>
        <time>2019-09-08T11:07:05Z</time>
      </trkpt>
      <trkpt lat="48.51838" lon="7.72815">
        <ele>162.60000610352</ele>
        <time>2019-09-08T11:07:11Z</time>
      </trkpt>
      <trkpt lat="48.51806" lon="7.72809">
        <ele>162.60000610352</ele>
        <time>2019-09-08T11:07:17Z</time>
      </trkpt>
      <trkpt lat="48.51769" lon="7.72804">
        <ele>162.19999694824</ele>
        <time>2019-09-08T11:07:24Z</time>
      </trkpt>
      <trkpt lat="48.51736" lon="7.72798">
        <ele>162.19999694824</ele>
        <time>2019-09-08T11:07:30Z</time>
      </trkpt>
      <trkpt lat="48.51693" lon="7.72792">
        <ele>162.39999389648</ele>
        <time>2019-09-08T11:07:38Z</time>
      </trkpt>
      <trkpt lat="48.51657" lon="7.72788">
        <ele>162.39999389648</ele>
        <time>2019-09-08T11:07:45Z</time>
      </trkpt>
      <trkpt lat="48.51617" lon="7.72783">
        <ele>162.39999389648</ele>
        <time>2019-09-08T11:07:53Z</time>
      </trkpt>
      <trkpt lat="48.51596" lon="7.72779">
        <ele>162.60000610352</ele>
        <time>2019-09-08T11:07:57Z</time>
      </trkpt>
      <trkpt lat="48.51586" lon="7.72779">
        <ele>162.60000610352</ele>
        <time>2019-09-08T11:07:59Z</time>
      </trkpt>
      <trkpt lat="48.51562" lon="7.72777">
        <ele>162.39999389648</ele>
        <time>2019-09-08T11:08:04Z</time>
      </trkpt>
      <trkpt lat="48.5152" lon="7.72769">
        <ele>162.39999389648</ele>
        <time>2019-09-08T11:08:12Z</time>
      </trkpt>
      <trkpt lat="48.51484" lon="7.72764">
        <ele>162.39999389648</ele>
        <time>2019-09-08T11:08:19Z</time>
      </trkpt>
      <trkpt lat="48.51456" lon="7.72762">
        <ele>162.39999389648</ele>
        <time>2019-09-08T11:08:25Z</time>
      </trkpt>
      <trkpt lat="48.51426" lon="7.72757">
        <ele>162.39999389648</ele>
        <time>2019-09-08T11:08:31Z</time>
      </trkpt>
      <trkpt lat="48.51399" lon="7.72756">
        <ele>162.39999389648</ele>
        <time>2019-09-08T11:08:37Z</time>
      </trkpt>
      <trkpt lat="48.51366" lon="7.7275">
        <ele>162.60000610352</ele>
        <time>2019-09-08T11:08:44Z</time>
      </trkpt>
      <trkpt lat="48.51361" lon="7.72748">
        <ele>162.60000610352</ele>
        <time>2019-09-08T11:08:45Z</time>
      </trkpt>
      <trkpt lat="48.51341" lon="7.72744">
        <ele>162.60000610352</ele>
        <time>2019-09-08T11:08:49Z</time>
      </trkpt>
      <trkpt lat="48.5131" lon="7.72741">
        <ele>162.80000305176</ele>
        <time>2019-09-08T11:08:55Z</time>
      </trkpt>
      <trkpt lat="48.51284" lon="7.7274">
        <ele>162.80000305176</ele>
        <time>2019-09-08T11:09:01Z</time>
      </trkpt>
      <trkpt lat="48.51278" lon="7.72739">
        <ele>162.80000305176</ele>
        <time>2019-09-08T11:09:02Z</time>
      </trkpt>
      <trkpt lat="48.51259" lon="7.72737">
        <ele>162.80000305176</ele>
        <time>2019-09-08T11:09:06Z</time>
      </trkpt>
      <trkpt lat="48.5123" lon="7.72736">
        <ele>162.80000305176</ele>
        <time>2019-09-08T11:09:12Z</time>
      </trkpt>
      <trkpt lat="48.5121" lon="7.72735">
        <ele>162.80000305176</ele>
        <time>2019-09-08T11:09:17Z</time>
      </trkpt>
      <trkpt lat="48.51182" lon="7.72734">
        <ele>163</ele>
        <time>2019-09-08T11:09:23Z</time>
      </trkpt>
      <trkpt lat="48.5115" lon="7.7273">
        <ele>163</ele>
        <time>2019-09-08T11:09:29Z</time>
      </trkpt>
      <trkpt lat="48.51117" lon="7.72729">
        <ele>162.80000305176</ele>
        <time>2019-09-08T11:09:35Z</time>
      </trkpt>
      <trkpt lat="48.51096" lon="7.72739">
        <ele>162.80000305176</ele>
        <time>2019-09-08T11:09:40Z</time>
      </trkpt>
      <trkpt lat="48.51078" lon="7.72735">
        <ele>162.80000305176</ele>
        <time>2019-09-08T11:09:44Z</time>
      </trkpt>
      <trkpt lat="48.51049" lon="7.72725">
        <ele>162.80000305176</ele>
        <time>2019-09-08T11:09:51Z</time>
      </trkpt>
      <trkpt lat="48.51041" lon="7.72724">
        <ele>163</ele>
        <time>2019-09-08T11:09:53Z</time>
      </trkpt>
      <trkpt lat="48.5102" lon="7.72722">
        <ele>164</ele>
        <time>2019-09-08T11:09:58Z</time>
      </trkpt>
      <trkpt lat="48.50989" lon="7.72717">
        <ele>164.39999389648</ele>
        <time>2019-09-08T11:10:05Z</time>
      </trkpt>
      <trkpt lat="48.5095" lon="7.72712">
        <ele>164.39999389648</ele>
        <time>2019-09-08T11:10:13Z</time>
      </trkpt>
      <trkpt lat="48.50927" lon="7.7271">
        <ele>164.39999389648</ele>
        <time>2019-09-08T11:10:18Z</time>
      </trkpt>
      <trkpt lat="48.50918" lon="7.72708">
        <ele>164.39999389648</ele>
        <time>2019-09-08T11:10:20Z</time>
      </trkpt>
      <trkpt lat="48.50904" lon="7.72706">
        <ele>164.39999389648</ele>
        <time>2019-09-08T11:10:23Z</time>
      </trkpt>
      <trkpt lat="48.50894" lon="7.72702">
        <ele>164.39999389648</ele>
        <time>2019-09-08T11:10:25Z</time>
      </trkpt>
      <trkpt lat="48.50864" lon="7.72696">
        <ele>164.19999694824</ele>
        <time>2019-09-08T11:10:31Z</time>
      </trkpt>
      <trkpt lat="48.50833" lon="7.7269">
        <ele>164.19999694824</ele>
        <time>2019-09-08T11:10:37Z</time>
      </trkpt>
      <trkpt lat="48.50792" lon="7.72684">
        <ele>164</ele>
        <time>2019-09-08T11:10:45Z</time>
      </trkpt>
      <trkpt lat="48.50783" lon="7.72683">
        <ele>164</ele>
        <time>2019-09-08T11:10:47Z</time>
      </trkpt>
      <trkpt lat="48.50764" lon="7.7268">
        <ele>163.80000305176</ele>
        <time>2019-09-08T11:10:51Z</time>
      </trkpt>
      <trkpt lat="48.50729" lon="7.72674">
        <ele>163.80000305176</ele>
        <time>2019-09-08T11:10:58Z</time>
      </trkpt>
      <trkpt lat="48.50704" lon="7.72671">
        <ele>163.80000305176</ele>
        <time>2019-09-08T11:11:03Z</time>
      </trkpt>
      <trkpt lat="48.50669" lon="7.72671">
        <ele>163.80000305176</ele>
        <time>2019-09-08T11:11:11Z</time>
      </trkpt>
      <trkpt lat="48.50664" lon="7.72671">
        <ele>163.80000305176</ele>
        <time>2019-09-08T11:11:12Z</time>
      </trkpt>
      <trkpt lat="48.50643" lon="7.72667">
        <ele>163.80000305176</ele>
        <time>2019-09-08T11:11:16Z</time>
      </trkpt>
      <trkpt lat="48.50613" lon="7.72655">
        <ele>163.80000305176</ele>
        <time>2019-09-08T11:11:22Z</time>
      </trkpt>
      <trkpt lat="48.50608" lon="7.72654">
        <ele>163.80000305176</ele>
        <time>2019-09-08T11:11:23Z</time>
      </trkpt>
      <trkpt lat="48.50585" lon="7.72649">
        <ele>164</ele>
        <time>2019-09-08T11:11:27Z</time>
      </trkpt>
      <trkpt lat="48.5055" lon="7.72645">
        <ele>163.80000305176</ele>
        <time>2019-09-08T11:11:33Z</time>
      </trkpt>
      <trkpt lat="48.5051" lon="7.72639">
        <ele>163.80000305176</ele>
        <time>2019-09-08T11:11:40Z</time>
      </trkpt>
      <trkpt lat="48.50494" lon="7.72636">
        <ele>163.80000305176</ele>
        <time>2019-09-08T11:11:43Z</time>
      </trkpt>
      <trkpt lat="48.50483" lon="7.72633">
        <ele>163.80000305176</ele>
        <time>2019-09-08T11:11:45Z</time>
      </trkpt>
      <trkpt lat="48.50457" lon="7.72633">
        <ele>164</ele>
        <time>2019-09-08T11:11:51Z</time>
      </trkpt>
      <trkpt lat="48.50431" lon="7.72638">
        <ele>164.39999389648</ele>
        <time>2019-09-08T11:11:57Z</time>
      </trkpt>
      <trkpt lat="48.50403" lon="7.72635">
        <ele>164.60000610352</ele>
        <time>2019-09-08T11:12:03Z</time>
      </trkpt>
      <trkpt lat="48.50366" lon="7.72628">
        <ele>164.80000305176</ele>
        <time>2019-09-08T11:12:10Z</time>
      </trkpt>
      <trkpt lat="48.50351" lon="7.72626">
        <ele>164.80000305176</ele>
        <time>2019-09-08T11:12:13Z</time>
      </trkpt>
      <trkpt lat="48.50332" lon="7.72623">
        <ele>164.80000305176</ele>
        <time>2019-09-08T11:12:17Z</time>
      </trkpt>
      <trkpt lat="48.50307" lon="7.72621">
        <ele>164.80000305176</ele>
        <time>2019-09-08T11:12:22Z</time>
      </trkpt>
      <trkpt lat="48.50275" lon="7.72615">
        <ele>164.80000305176</ele>
        <time>2019-09-08T11:12:28Z</time>
      </trkpt>
      <trkpt lat="48.50248" lon="7.72613">
        <ele>164.80000305176</ele>
        <time>2019-09-08T11:12:33Z</time>
      </trkpt>
      <trkpt lat="48.50243" lon="7.72614">
        <ele>164.80000305176</ele>
        <time>2019-09-08T11:12:34Z</time>
      </trkpt>
      <trkpt lat="48.50231" lon="7.72616">
        <ele>164.80000305176</ele>
        <time>2019-09-08T11:12:36Z</time>
      </trkpt>
      <trkpt lat="48.5021" lon="7.72615">
        <ele>164.60000610352</ele>
        <time>2019-09-08T11:12:40Z</time>
      </trkpt>
      <trkpt lat="48.50176" lon="7.72611">
        <ele>164.60000610352</ele>
        <time>2019-09-08T11:12:47Z</time>
      </trkpt>
      <trkpt lat="48.50161" lon="7.72609">
        <ele>164.60000610352</ele>
        <time>2019-09-08T11:12:50Z</time>
      </trkpt>
      <trkpt lat="48.50149" lon="7.72603">
        <ele>164.60000610352</ele>
        <time>2019-09-08T11:12:52Z</time>
      </trkpt>
      <trkpt lat="48.50135" lon="7.72598">
        <ele>164.60000610352</ele>
        <time>2019-09-08T11:12:54Z</time>
      </trkpt>
      <trkpt lat="48.50117" lon="7.72595">
        <ele>164.60000610352</ele>
        <time>2019-09-08T11:12:57Z</time>
      </trkpt>
      <trkpt lat="48.50106" lon="7.72595">
        <ele>164.60000610352</ele>
        <time>2019-09-08T11:12:59Z</time>
      </trkpt>
      <trkpt lat="48.50095" lon="7.72593">
        <ele>164.39999389648</ele>
        <time>2019-09-08T11:13:01Z</time>
      </trkpt>
      <trkpt lat="48.50065" lon="7.72588">
        <ele>163.80000305176</ele>
        <time>2019-09-08T11:13:07Z</time>
      </trkpt>
      <trkpt lat="48.50034" lon="7.72582">
        <ele>163.80000305176</ele>
        <time>2019-09-08T11:13:14Z</time>
      </trkpt>
      <trkpt lat="48.50016" lon="7.72579">
        <ele>164</ele>
        <time>2019-09-08T11:13:18Z</time>
      </trkpt>
      <trkpt lat="48.4998" lon="7.72576">
        <ele>164.19999694824</ele>
        <time>2019-09-08T11:13:25Z</time>
      </trkpt>
      <trkpt lat="48.49942" lon="7.72572">
        <ele>164.19999694824</ele>
        <time>2019-09-08T11:13:33Z</time>
      </trkpt>
      <trkpt lat="48.49933" lon="7.72571">
        <ele>164.19999694824</ele>
        <time>2019-09-08T11:13:35Z</time>
      </trkpt>
      <trkpt lat="48.49918" lon="7.72571">
        <ele>164.19999694824</ele>
        <time>2019-09-08T11:13:38Z</time>
      </trkpt>
      <trkpt lat="48.49899" lon="7.72569">
        <ele>164.39999389648</ele>
        <time>2019-09-08T11:13:42Z</time>
      </trkpt>
      <trkpt lat="48.49893" lon="7.72568">
        <ele>164.39999389648</ele>
        <time>2019-09-08T11:13:43Z</time>
      </trkpt>
      <trkpt lat="48.49851" lon="7.72562">
        <ele>164.39999389648</ele>
        <time>2019-09-08T11:13:51Z</time>
      </trkpt>
      <trkpt lat="48.49831" lon="7.72558">
        <ele>164.39999389648</ele>
        <time>2019-09-08T11:13:55Z</time>
      </trkpt>
      <trkpt lat="48.49816" lon="7.72556">
        <ele>164.39999389648</ele>
        <time>2019-09-08T11:13:58Z</time>
      </trkpt>
      <trkpt lat="48.49796" lon="7.72554">
        <ele>164.39999389648</ele>
        <time>2019-09-08T11:14:02Z</time>
      </trkpt>
      <trkpt lat="48.49772" lon="7.72551">
        <ele>164.39999389648</ele>
        <time>2019-09-08T11:14:07Z</time>
      </trkpt>
      <trkpt lat="48.49766" lon="7.7255">
        <ele>164.39999389648</ele>
        <time>2019-09-08T11:14:08Z</time>
      </trkpt>
      <trkpt lat="48.49738" lon="7.72546">
        <ele>164.39999389648</ele>
        <time>2019-09-08T11:14:13Z</time>
      </trkpt>
      <trkpt lat="48.49708" lon="7.7254">
        <ele>164.60000610352</ele>
        <time>2019-09-08T11:14:19Z</time>
      </trkpt>
      <trkpt lat="48.49672" lon="7.72535">
        <ele>164.60000610352</ele>
        <time>2019-09-08T11:14:26Z</time>
      </trkpt>
      <trkpt lat="48.49641" lon="7.72532">
        <ele>164.60000610352</ele>
        <time>2019-09-08T11:14:32Z</time>
      </trkpt>
      <trkpt lat="48.49606" lon="7.72528">
        <ele>164.39999389648</ele>
        <time>2019-09-08T11:14:39Z</time>
      </trkpt>
      <trkpt lat="48.49574" lon="7.72527">
        <ele>164.60000610352</ele>
        <time>2019-09-08T11:14:46Z</time>
      </trkpt>
      <trkpt lat="48.49553" lon="7.72526">
        <ele>164.60000610352</ele>
        <time>2019-09-08T11:14:50Z</time>
      </trkpt>
      <trkpt lat="48.49548" lon="7.72526">
        <ele>164.60000610352</ele>
        <time>2019-09-08T11:14:51Z</time>
      </trkpt>
      <trkpt lat="48.49509" lon="7.72522">
        <ele>164.39999389648</ele>
        <time>2019-09-08T11:14:58Z</time>
      </trkpt>
      <trkpt lat="48.49471" lon="7.72515">
        <ele>164.19999694824</ele>
        <time>2019-09-08T11:15:05Z</time>
      </trkpt>
      <trkpt lat="48.49437" lon="7.72511">
        <ele>163.80000305176</ele>
        <time>2019-09-08T11:15:11Z</time>
      </trkpt>
      <trkpt lat="48.49414" lon="7.72507">
        <ele>163.80000305176</ele>
        <time>2019-09-08T11:15:16Z</time>
      </trkpt>
      <trkpt lat="48.49385" lon="7.72503">
        <ele>163.80000305176</ele>
        <time>2019-09-08T11:15:22Z</time>
      </trkpt>
      <trkpt lat="48.49356" lon="7.72498">
        <ele>164</ele>
        <time>2019-09-08T11:15:28Z</time>
      </trkpt>
      <trkpt lat="48.49328" lon="7.72494">
        <ele>164</ele>
        <time>2019-09-08T11:15:34Z</time>
      </trkpt>
      <trkpt lat="48.49298" lon="7.72492">
        <ele>164.19999694824</ele>
        <time>2019-09-08T11:15:40Z</time>
      </trkpt>
      <trkpt lat="48.49288" lon="7.72491">
        <ele>164.19999694824</ele>
        <time>2019-09-08T11:15:42Z</time>
      </trkpt>
      <trkpt lat="48.49273" lon="7.72488">
        <ele>164.19999694824</ele>
        <time>2019-09-08T11:15:45Z</time>
      </trkpt>
      <trkpt lat="48.49252" lon="7.72481">
        <ele>164.19999694824</ele>
        <time>2019-09-08T11:15:49Z</time>
      </trkpt>
      <trkpt lat="48.49242" lon="7.72478">
        <ele>164.39999389648</ele>
        <time>2019-09-08T11:15:51Z</time>
      </trkpt>
      <trkpt lat="48.49215" lon="7.72469">
        <ele>164.39999389648</ele>
        <time>2019-09-08T11:15:56Z</time>
      </trkpt>
      <trkpt lat="48.49198" lon="7.72463">
        <ele>164.60000610352</ele>
        <time>2019-09-08T11:15:59Z</time>
      </trkpt>
      <trkpt lat="48.49188" lon="7.7246">
        <ele>164.60000610352</ele>
        <time>2019-09-08T11:16:01Z</time>
      </trkpt>
      <trkpt lat="48.4918" lon="7.72457">
        <ele>164.60000610352</ele>
        <time>2019-09-08T11:16:03Z</time>
      </trkpt>
      <trkpt lat="48.49155" lon="7.72448">
        <ele>164.80000305176</ele>
        <time>2019-09-08T11:16:08Z</time>
      </trkpt>
      <trkpt lat="48.49126" lon="7.72438">
        <ele>164.80000305176</ele>
        <time>2019-09-08T11:16:14Z</time>
      </trkpt>
      <trkpt lat="48.49099" lon="7.72428">
        <ele>164.80000305176</ele>
        <time>2019-09-08T11:16:20Z</time>
      </trkpt>
      <trkpt lat="48.49071" lon="7.72417">
        <ele>164.80000305176</ele>
        <time>2019-09-08T11:16:26Z</time>
      </trkpt>
      <trkpt lat="48.4904" lon="7.72406">
        <ele>164.80000305176</ele>
        <time>2019-09-08T11:16:33Z</time>
      </trkpt>
      <trkpt lat="48.49019" lon="7.72399">
        <ele>164.60000610352</ele>
        <time>2019-09-08T11:16:38Z</time>
      </trkpt>
      <trkpt lat="48.4899" lon="7.72385">
        <ele>164.60000610352</ele>
        <time>2019-09-08T11:16:43Z</time>
      </trkpt>
      <trkpt lat="48.48975" lon="7.72381">
        <ele>164.60000610352</ele>
        <time>2019-09-08T11:16:46Z</time>
      </trkpt>
      <trkpt lat="48.48965" lon="7.72377">
        <ele>164.60000610352</ele>
        <time>2019-09-08T11:16:48Z</time>
      </trkpt>
      <trkpt lat="48.48938" lon="7.72366">
        <ele>164.39999389648</ele>
        <time>2019-09-08T11:16:53Z</time>
      </trkpt>
      <trkpt lat="48.48932" lon="7.72363">
        <ele>164.39999389648</ele>
        <time>2019-09-08T11:16:54Z</time>
      </trkpt>
      <trkpt lat="48.48905" lon="7.72351">
        <ele>164.39999389648</ele>
        <time>2019-09-08T11:17:00Z</time>
      </trkpt>
      <trkpt lat="48.48881" lon="7.72347">
        <ele>164.39999389648</ele>
        <time>2019-09-08T11:17:06Z</time>
      </trkpt>
      <trkpt lat="48.48858" lon="7.72345">
        <ele>164.80000305176</ele>
        <time>2019-09-08T11:17:13Z</time>
      </trkpt>
      <trkpt lat="48.48836" lon="7.72337">
        <ele>165.19999694824</ele>
        <time>2019-09-08T11:17:19Z</time>
      </trkpt>
      <trkpt lat="48.48817" lon="7.7233">
        <ele>165.19999694824</ele>
        <time>2019-09-08T11:17:24Z</time>
      </trkpt>
      <trkpt lat="48.48797" lon="7.72324">
        <ele>165.19999694824</ele>
        <time>2019-09-08T11:17:29Z</time>
      </trkpt>
      <trkpt lat="48.48767" lon="7.72312">
        <ele>165.19999694824</ele>
        <time>2019-09-08T11:17:36Z</time>
      </trkpt>
      <trkpt lat="48.48745" lon="7.72303">
        <ele>165.19999694824</ele>
        <time>2019-09-08T11:17:41Z</time>
      </trkpt>
      <trkpt lat="48.48729" lon="7.72297">
        <ele>165.19999694824</ele>
        <time>2019-09-08T11:17:45Z</time>
      </trkpt>
      <trkpt lat="48.48704" lon="7.72282">
        <ele>165.19999694824</ele>
        <time>2019-09-08T11:17:50Z</time>
      </trkpt>
      <trkpt lat="48.48699" lon="7.72276">
        <ele>165.19999694824</ele>
        <time>2019-09-08T11:17:51Z</time>
      </trkpt>
      <trkpt lat="48.48674" lon="7.72259">
        <ele>165</ele>
        <time>2019-09-08T11:17:55Z</time>
      </trkpt>
      <trkpt lat="48.48668" lon="7.72256">
        <ele>165</ele>
        <time>2019-09-08T11:17:56Z</time>
      </trkpt>
      <trkpt lat="48.48645" lon="7.72247">
        <ele>164.80000305176</ele>
        <time>2019-09-08T11:18:00Z</time>
      </trkpt>
      <trkpt lat="48.486" lon="7.7223">
        <ele>164.39999389648</ele>
        <time>2019-09-08T11:18:08Z</time>
      </trkpt>
      <trkpt lat="48.48561" lon="7.72215">
        <ele>164.39999389648</ele>
        <time>2019-09-08T11:18:15Z</time>
      </trkpt>
      <trkpt lat="48.48526" lon="7.72204">
        <ele>164.60000610352</ele>
        <time>2019-09-08T11:18:21Z</time>
      </trkpt>
      <trkpt lat="48.48492" lon="7.72191">
        <ele>164.80000305176</ele>
        <time>2019-09-08T11:18:28Z</time>
      </trkpt>
      <trkpt lat="48.48463" lon="7.72179">
        <ele>165</ele>
        <time>2019-09-08T11:18:34Z</time>
      </trkpt>
      <trkpt lat="48.48428" lon="7.72164">
        <ele>165.19999694824</ele>
        <time>2019-09-08T11:18:41Z</time>
      </trkpt>
      <trkpt lat="48.48417" lon="7.72161">
        <ele>165.19999694824</ele>
        <time>2019-09-08T11:18:43Z</time>
      </trkpt>
      <trkpt lat="48.48385" lon="7.72147">
        <ele>165.39999389648</ele>
        <time>2019-09-08T11:18:49Z</time>
      </trkpt>
      <trkpt lat="48.48354" lon="7.72137">
        <ele>165.60000610352</ele>
        <time>2019-09-08T11:18:55Z</time>
      </trkpt>
      <trkpt lat="48.48337" lon="7.72131">
        <ele>165.80000305176</ele>
        <time>2019-09-08T11:18:59Z</time>
      </trkpt>
      <trkpt lat="48.48328" lon="7.7213">
        <ele>165.80000305176</ele>
        <time>2019-09-08T11:19:01Z</time>
      </trkpt>
      <trkpt lat="48.48298" lon="7.72126">
        <ele>165.80000305176</ele>
        <time>2019-09-08T11:19:07Z</time>
      </trkpt>
      <trkpt lat="48.48262" lon="7.72115">
        <ele>166</ele>
        <time>2019-09-08T11:19:14Z</time>
      </trkpt>
      <trkpt lat="48.48241" lon="7.72111">
        <ele>165.80000305176</ele>
        <time>2019-09-08T11:19:18Z</time>
      </trkpt>
      <trkpt lat="48.48233" lon="7.72107">
        <ele>165.80000305176</ele>
        <time>2019-09-08T11:19:20Z</time>
      </trkpt>
      <trkpt lat="48.48217" lon="7.72098">
        <ele>166</ele>
        <time>2019-09-08T11:19:25Z</time>
      </trkpt>
      <trkpt lat="48.48206" lon="7.72094">
        <ele>166</ele>
        <time>2019-09-08T11:19:28Z</time>
      </trkpt>
      <trkpt lat="48.48187" lon="7.72085">
        <ele>167</ele>
        <time>2019-09-08T11:19:33Z</time>
      </trkpt>
      <trkpt lat="48.48158" lon="7.72072">
        <ele>167</ele>
        <time>2019-09-08T11:19:40Z</time>
      </trkpt>
      <trkpt lat="48.48153" lon="7.7207">
        <ele>167</ele>
        <time>2019-09-08T11:19:41Z</time>
      </trkpt>
      <trkpt lat="48.4813" lon="7.72061">
        <ele>167.19999694824</ele>
        <time>2019-09-08T11:19:46Z</time>
      </trkpt>
      <trkpt lat="48.48121" lon="7.72057">
        <ele>167.19999694824</ele>
        <time>2019-09-08T11:19:48Z</time>
      </trkpt>
      <trkpt lat="48.48082" lon="7.72042">
        <ele>167.39999389648</ele>
        <time>2019-09-08T11:19:56Z</time>
      </trkpt>
      <trkpt lat="48.48053" lon="7.7203">
        <ele>167.19999694824</ele>
        <time>2019-09-08T11:20:02Z</time>
      </trkpt>
      <trkpt lat="48.48008" lon="7.72014">
        <ele>167.19999694824</ele>
        <time>2019-09-08T11:20:11Z</time>
      </trkpt>
      <trkpt lat="48.47973" lon="7.72">
        <ele>167.19999694824</ele>
        <time>2019-09-08T11:20:18Z</time>
      </trkpt>
      <trkpt lat="48.47937" lon="7.71987">
        <ele>167.19999694824</ele>
        <time>2019-09-08T11:20:25Z</time>
      </trkpt>
      <trkpt lat="48.47902" lon="7.71973">
        <ele>167.19999694824</ele>
        <time>2019-09-08T11:20:32Z</time>
      </trkpt>
      <trkpt lat="48.47863" lon="7.7196">
        <ele>167.19999694824</ele>
        <time>2019-09-08T11:20:40Z</time>
      </trkpt>
      <trkpt lat="48.47821" lon="7.71946">
        <ele>167</ele>
        <time>2019-09-08T11:20:48Z</time>
      </trkpt>
      <trkpt lat="48.47791" lon="7.71936">
        <ele>167</ele>
        <time>2019-09-08T11:20:54Z</time>
      </trkpt>
      <trkpt lat="48.47786" lon="7.71933">
        <ele>167</ele>
        <time>2019-09-08T11:20:55Z</time>
      </trkpt>
      <trkpt lat="48.47744" lon="7.71915">
        <ele>167.19999694824</ele>
        <time>2019-09-08T11:21:03Z</time>
      </trkpt>
      <trkpt lat="48.47706" lon="7.71899">
        <ele>167.19999694824</ele>
        <time>2019-09-08T11:21:10Z</time>
      </trkpt>
      <trkpt lat="48.47667" lon="7.71884">
        <ele>167</ele>
        <time>2019-09-08T11:21:17Z</time>
      </trkpt>
      <trkpt lat="48.47628" lon="7.7187">
        <ele>167</ele>
        <time>2019-09-08T11:21:24Z</time>
      </trkpt>
      <trkpt lat="48.47571" lon="7.7185">
        <ele>167.39999389648</ele>
        <time>2019-09-08T11:21:34Z</time>
      </trkpt>
      <trkpt lat="48.47531" lon="7.71836">
        <ele>167.39999389648</ele>
        <time>2019-09-08T11:21:41Z</time>
      </trkpt>
      <trkpt lat="48.47498" lon="7.71824">
        <ele>167.19999694824</ele>
        <time>2019-09-08T11:21:47Z</time>
      </trkpt>
      <trkpt lat="48.47455" lon="7.7181">
        <ele>167.19999694824</ele>
        <time>2019-09-08T11:21:55Z</time>
      </trkpt>
      <trkpt lat="48.47417" lon="7.71795">
        <ele>167.19999694824</ele>
        <time>2019-09-08T11:22:02Z</time>
      </trkpt>
      <trkpt lat="48.47378" lon="7.71781">
        <ele>167.19999694824</ele>
        <time>2019-09-08T11:22:09Z</time>
      </trkpt>
      <trkpt lat="48.47326" lon="7.71758">
        <ele>167.19999694824</ele>
        <time>2019-09-08T11:22:18Z</time>
      </trkpt>
      <trkpt lat="48.47282" lon="7.71738">
        <ele>167.39999389648</ele>
        <time>2019-09-08T11:22:26Z</time>
      </trkpt>
      <trkpt lat="48.47231" lon="7.71717">
        <ele>167.39999389648</ele>
        <time>2019-09-08T11:22:35Z</time>
      </trkpt>
      <trkpt lat="48.47189" lon="7.717">
        <ele>167.39999389648</ele>
        <time>2019-09-08T11:22:43Z</time>
      </trkpt>
      <trkpt lat="48.47152" lon="7.71683">
        <ele>167.39999389648</ele>
        <time>2019-09-08T11:22:51Z</time>
      </trkpt>
      <trkpt lat="48.47118" lon="7.7167">
        <ele>167.19999694824</ele>
        <time>2019-09-08T11:22:58Z</time>
      </trkpt>
      <trkpt lat="48.47088" lon="7.71663">
        <ele>167.19999694824</ele>
        <time>2019-09-08T11:23:04Z</time>
      </trkpt>
      <trkpt lat="48.47046" lon="7.71643">
        <ele>167.19999694824</ele>
        <time>2019-09-08T11:23:12Z</time>
      </trkpt>
      <trkpt lat="48.46997" lon="7.71623">
        <ele>167.39999389648</ele>
        <time>2019-09-08T11:23:21Z</time>
      </trkpt>
      <trkpt lat="48.46952" lon="7.71604">
        <ele>167.39999389648</ele>
        <time>2019-09-08T11:23:29Z</time>
      </trkpt>
      <trkpt lat="48.46896" lon="7.71582">
        <ele>167.19999694824</ele>
        <time>2019-09-08T11:23:39Z</time>
      </trkpt>
      <trkpt lat="48.4684" lon="7.7156">
        <ele>167.39999389648</ele>
        <time>2019-09-08T11:23:49Z</time>
      </trkpt>
      <trkpt lat="48.46801" lon="7.71546">
        <ele>167.39999389648</ele>
        <time>2019-09-08T11:23:56Z</time>
      </trkpt>
      <trkpt lat="48.46757" lon="7.71527">
        <ele>167.39999389648</ele>
        <time>2019-09-08T11:24:04Z</time>
      </trkpt>
      <trkpt lat="48.46723" lon="7.71514">
        <ele>167.39999389648</ele>
        <time>2019-09-08T11:24:10Z</time>
      </trkpt>
      <trkpt lat="48.46679" lon="7.71496">
        <ele>167.60000610352</ele>
        <time>2019-09-08T11:24:18Z</time>
      </trkpt>
      <trkpt lat="48.46639" lon="7.71481">
        <ele>167.80000305176</ele>
        <time>2019-09-08T11:24:26Z</time>
      </trkpt>
      <trkpt lat="48.46601" lon="7.71467">
        <ele>167.80000305176</ele>
        <time>2019-09-08T11:24:33Z</time>
      </trkpt>
      <trkpt lat="48.46557" lon="7.71449">
        <ele>167.80000305176</ele>
        <time>2019-09-08T11:24:41Z</time>
      </trkpt>
      <trkpt lat="48.46507" lon="7.71428">
        <ele>167.60000610352</ele>
        <time>2019-09-08T11:24:50Z</time>
      </trkpt>
      <trkpt lat="48.46451" lon="7.71406">
        <ele>167.60000610352</ele>
        <time>2019-09-08T11:25:00Z</time>
      </trkpt>
      <trkpt lat="48.46417" lon="7.71394">
        <ele>167.80000305176</ele>
        <time>2019-09-08T11:25:06Z</time>
      </trkpt>
      <trkpt lat="48.46383" lon="7.71381">
        <ele>167.80000305176</ele>
        <time>2019-09-08T11:25:12Z</time>
      </trkpt>
      <trkpt lat="48.46327" lon="7.71359">
        <ele>167.80000305176</ele>
        <time>2019-09-08T11:25:22Z</time>
      </trkpt>
      <trkpt lat="48.46277" lon="7.7134">
        <ele>168.19999694824</ele>
        <time>2019-09-08T11:25:31Z</time>
      </trkpt>
      <trkpt lat="48.46221" lon="7.71318">
        <ele>168.19999694824</ele>
        <time>2019-09-08T11:25:41Z</time>
      </trkpt>
      <trkpt lat="48.46216" lon="7.71316">
        <ele>168.19999694824</ele>
        <time>2019-09-08T11:25:42Z</time>
      </trkpt>
      <trkpt lat="48.46167" lon="7.71298">
        <ele>168.19999694824</ele>
        <time>2019-09-08T11:25:51Z</time>
      </trkpt>
      <trkpt lat="48.46129" lon="7.71282">
        <ele>168.19999694824</ele>
        <time>2019-09-08T11:25:58Z</time>
      </trkpt>
      <trkpt lat="48.46083" lon="7.71264">
        <ele>168.39999389648</ele>
        <time>2019-09-08T11:26:06Z</time>
      </trkpt>
      <trkpt lat="48.46031" lon="7.71244">
        <ele>168.39999389648</ele>
        <time>2019-09-08T11:26:15Z</time>
      </trkpt>
      <trkpt lat="48.45978" lon="7.71223">
        <ele>168.39999389648</ele>
        <time>2019-09-08T11:26:24Z</time>
      </trkpt>
      <trkpt lat="48.45933" lon="7.71207">
        <ele>168.60000610352</ele>
        <time>2019-09-08T11:26:32Z</time>
      </trkpt>
      <trkpt lat="48.45918" lon="7.71202">
        <ele>168.60000610352</ele>
        <time>2019-09-08T11:26:35Z</time>
      </trkpt>
      <trkpt lat="48.45906" lon="7.71197">
        <ele>168.60000610352</ele>
        <time>2019-09-08T11:26:38Z</time>
      </trkpt>
      <trkpt lat="48.45903" lon="7.71196">
        <ele>168.60000610352</ele>
        <time>2019-09-08T11:26:41Z</time>
      </trkpt>
      <trkpt lat="48.45902" lon="7.71194">
        <ele>168.39999389648</ele>
        <time>2019-09-08T11:28:26Z</time>
      </trkpt>
      <trkpt lat="48.45898" lon="7.71192">
        <ele>168.39999389648</ele>
        <time>2019-09-08T11:28:28Z</time>
      </trkpt>
      <trkpt lat="48.45879" lon="7.71185">
        <ele>168.39999389648</ele>
        <time>2019-09-08T11:28:34Z</time>
      </trkpt>
      <trkpt lat="48.45849" lon="7.71173">
        <ele>168.39999389648</ele>
        <time>2019-09-08T11:28:41Z</time>
      </trkpt>
      <trkpt lat="48.45811" lon="7.71158">
        <ele>168.39999389648</ele>
        <time>2019-09-08T11:28:49Z</time>
      </trkpt>
      <trkpt lat="48.45754" lon="7.71138">
        <ele>168.80000305176</ele>
        <time>2019-09-08T11:29:00Z</time>
      </trkpt>
      <trkpt lat="48.45748" lon="7.71136">
        <ele>168.80000305176</ele>
        <time>2019-09-08T11:29:01Z</time>
      </trkpt>
      <trkpt lat="48.45712" lon="7.71122">
        <ele>168.80000305176</ele>
        <time>2019-09-08T11:29:08Z</time>
      </trkpt>
      <trkpt lat="48.45668" lon="7.71107">
        <ele>168.60000610352</ele>
        <time>2019-09-08T11:29:16Z</time>
      </trkpt>
      <trkpt lat="48.45629" lon="7.71093">
        <ele>168.80000305176</ele>
        <time>2019-09-08T11:29:23Z</time>
      </trkpt>
      <trkpt lat="48.4559" lon="7.71077">
        <ele>168.80000305176</ele>
        <time>2019-09-08T11:29:30Z</time>
      </trkpt>
      <trkpt lat="48.45585" lon="7.71074">
        <ele>168.80000305176</ele>
        <time>2019-09-08T11:29:31Z</time>
      </trkpt>
      <trkpt lat="48.45547" lon="7.71059">
        <ele>168.80000305176</ele>
        <time>2019-09-08T11:29:38Z</time>
      </trkpt>
      <trkpt lat="48.45542" lon="7.71057">
        <ele>168.80000305176</ele>
        <time>2019-09-08T11:29:39Z</time>
      </trkpt>
      <trkpt lat="48.4552" lon="7.71048">
        <ele>168.80000305176</ele>
        <time>2019-09-08T11:29:43Z</time>
      </trkpt>
      <trkpt lat="48.4547" lon="7.71029">
        <ele>168.80000305176</ele>
        <time>2019-09-08T11:29:52Z</time>
      </trkpt>
      <trkpt lat="48.45426" lon="7.71013">
        <ele>168.80000305176</ele>
        <time>2019-09-08T11:30:00Z</time>
      </trkpt>
      <trkpt lat="48.45374" lon="7.70991">
        <ele>168.80000305176</ele>
        <time>2019-09-08T11:30:10Z</time>
      </trkpt>
      <trkpt lat="48.45334" lon="7.70975">
        <ele>169</ele>
        <time>2019-09-08T11:30:18Z</time>
      </trkpt>
      <trkpt lat="48.45288" lon="7.70959">
        <ele>169</ele>
        <time>2019-09-08T11:30:27Z</time>
      </trkpt>
      <trkpt lat="48.45249" lon="7.70945">
        <ele>169</ele>
        <time>2019-09-08T11:30:35Z</time>
      </trkpt>
      <trkpt lat="48.45244" lon="7.70944">
        <ele>169</ele>
        <time>2019-09-08T11:30:36Z</time>
      </trkpt>
      <trkpt lat="48.45239" lon="7.70942">
        <ele>169</ele>
        <time>2019-09-08T11:30:37Z</time>
      </trkpt>
      <trkpt lat="48.45228" lon="7.70939">
        <ele>169</ele>
        <time>2019-09-08T11:30:39Z</time>
      </trkpt>
      <trkpt lat="48.45218" lon="7.70938">
        <ele>168.80000305176</ele>
        <time>2019-09-08T11:30:41Z</time>
      </trkpt>
      <trkpt lat="48.45213" lon="7.70937">
        <ele>168.80000305176</ele>
        <time>2019-09-08T11:30:42Z</time>
      </trkpt>
      <trkpt lat="48.45197" lon="7.70929">
        <ele>168.80000305176</ele>
        <time>2019-09-08T11:30:46Z</time>
      </trkpt>
      <trkpt lat="48.45174" lon="7.7092">
        <ele>169.19999694824</ele>
        <time>2019-09-08T11:30:54Z</time>
      </trkpt>
      <trkpt lat="48.45151" lon="7.70905">
        <ele>170.19999694824</ele>
        <time>2019-09-08T11:31:01Z</time>
      </trkpt>
      <trkpt lat="48.45127" lon="7.70896">
        <ele>170.39999389648</ele>
        <time>2019-09-08T11:31:07Z</time>
      </trkpt>
      <trkpt lat="48.45098" lon="7.70886">
        <ele>170.39999389648</ele>
        <time>2019-09-08T11:31:14Z</time>
      </trkpt>
      <trkpt lat="48.45082" lon="7.70887">
        <ele>170.19999694824</ele>
        <time>2019-09-08T11:31:18Z</time>
      </trkpt>
      <trkpt lat="48.45079" lon="7.70885">
        <ele>170.19999694824</ele>
        <time>2019-09-08T11:31:19Z</time>
      </trkpt>
      <trkpt lat="48.45071" lon="7.7088">
        <ele>170.19999694824</ele>
        <time>2019-09-08T11:31:21Z</time>
      </trkpt>
      <trkpt lat="48.45065" lon="7.70872">
        <ele>170.19999694824</ele>
        <time>2019-09-08T11:31:23Z</time>
      </trkpt>
      <trkpt lat="48.45048" lon="7.7086">
        <ele>170.19999694824</ele>
        <time>2019-09-08T11:31:28Z</time>
      </trkpt>
      <trkpt lat="48.45029" lon="7.70852">
        <ele>170.19999694824</ele>
        <time>2019-09-08T11:31:34Z</time>
      </trkpt>
      <trkpt lat="48.45015" lon="7.70848">
        <ele>170.19999694824</ele>
        <time>2019-09-08T11:31:39Z</time>
      </trkpt>
      <trkpt lat="48.45012" lon="7.70848">
        <ele>170.19999694824</ele>
        <time>2019-09-08T11:31:42Z</time>
      </trkpt>
      <trkpt lat="48.4501" lon="7.70843">
        <ele>170.39999389648</ele>
        <time>2019-09-08T11:32:03Z</time>
      </trkpt>
      <trkpt lat="48.45009" lon="7.70842">
        <ele>170.39999389648</ele>
        <time>2019-09-08T11:32:04Z</time>
      </trkpt>
      <trkpt lat="48.45007" lon="7.70841">
        <ele>170.39999389648</ele>
        <time>2019-09-08T11:32:07Z</time>
      </trkpt>
      <trkpt lat="48.45003" lon="7.70841">
        <ele>170.60000610352</ele>
        <time>2019-09-08T11:34:48Z</time>
      </trkpt>
      <trkpt lat="48.45001" lon="7.7084">
        <ele>170.60000610352</ele>
        <time>2019-09-08T11:34:49Z</time>
      </trkpt>
      <trkpt lat="48.44986" lon="7.70835">
        <ele>170.60000610352</ele>
        <time>2019-09-08T11:34:54Z</time>
      </trkpt>
      <trkpt lat="48.44966" lon="7.70827">
        <ele>170.60000610352</ele>
        <time>2019-09-08T11:34:59Z</time>
      </trkpt>
      <trkpt lat="48.44936" lon="7.70815">
        <ele>170.60000610352</ele>
        <time>2019-09-08T11:35:05Z</time>
      </trkpt>
      <trkpt lat="48.44917" lon="7.70808">
        <ele>170.60000610352</ele>
        <time>2019-09-08T11:35:09Z</time>
      </trkpt>
      <trkpt lat="48.44888" lon="7.70796">
        <ele>170.19999694824</ele>
        <time>2019-09-08T11:35:15Z</time>
      </trkpt>
      <trkpt lat="48.44852" lon="7.70782">
        <ele>170</ele>
        <time>2019-09-08T11:35:22Z</time>
      </trkpt>
      <trkpt lat="48.44809" lon="7.70765">
        <ele>170</ele>
        <time>2019-09-08T11:35:30Z</time>
      </trkpt>
      <trkpt lat="48.44785" lon="7.70756">
        <ele>170</ele>
        <time>2019-09-08T11:35:35Z</time>
      </trkpt>
      <trkpt lat="48.44748" lon="7.70744">
        <ele>170</ele>
        <time>2019-09-08T11:35:43Z</time>
      </trkpt>
      <trkpt lat="48.44728" lon="7.70738">
        <ele>170</ele>
        <time>2019-09-08T11:35:47Z</time>
      </trkpt>
      <trkpt lat="48.44713" lon="7.70732">
        <ele>170</ele>
        <time>2019-09-08T11:35:50Z</time>
      </trkpt>
      <trkpt lat="48.4468" lon="7.70718">
        <ele>170</ele>
        <time>2019-09-08T11:35:57Z</time>
      </trkpt>
      <trkpt lat="48.44652" lon="7.70704">
        <ele>170.19999694824</ele>
        <time>2019-09-08T11:36:02Z</time>
      </trkpt>
      <trkpt lat="48.4463" lon="7.70695">
        <ele>170.19999694824</ele>
        <time>2019-09-08T11:36:07Z</time>
      </trkpt>
      <trkpt lat="48.44601" lon="7.70685">
        <ele>170.19999694824</ele>
        <time>2019-09-08T11:36:13Z</time>
      </trkpt>
      <trkpt lat="48.44566" lon="7.7067">
        <ele>170.19999694824</ele>
        <time>2019-09-08T11:36:20Z</time>
      </trkpt>
      <trkpt lat="48.44535" lon="7.70657">
        <ele>170.19999694824</ele>
        <time>2019-09-08T11:36:26Z</time>
      </trkpt>
      <trkpt lat="48.44507" lon="7.70645">
        <ele>170.19999694824</ele>
        <time>2019-09-08T11:36:32Z</time>
      </trkpt>
      <trkpt lat="48.44485" lon="7.70637">
        <ele>170.19999694824</ele>
        <time>2019-09-08T11:36:38Z</time>
      </trkpt>
      <trkpt lat="48.44462" lon="7.70628">
        <ele>170.39999389648</ele>
        <time>2019-09-08T11:36:43Z</time>
      </trkpt>
      <trkpt lat="48.44423" lon="7.70614">
        <ele>170.39999389648</ele>
        <time>2019-09-08T11:36:50Z</time>
      </trkpt>
      <trkpt lat="48.44407" lon="7.70607">
        <ele>170.39999389648</ele>
        <time>2019-09-08T11:36:53Z</time>
      </trkpt>
      <trkpt lat="48.44398" lon="7.70605">
        <ele>170.39999389648</ele>
        <time>2019-09-08T11:36:55Z</time>
      </trkpt>
      <trkpt lat="48.44383" lon="7.70599">
        <ele>170.39999389648</ele>
        <time>2019-09-08T11:36:58Z</time>
      </trkpt>
      <trkpt lat="48.44373" lon="7.70595">
        <ele>170.39999389648</ele>
        <time>2019-09-08T11:37:00Z</time>
      </trkpt>
      <trkpt lat="48.44343" lon="7.70581">
        <ele>170.60000610352</ele>
        <time>2019-09-08T11:37:06Z</time>
      </trkpt>
      <trkpt lat="48.44312" lon="7.70568">
        <ele>170.60000610352</ele>
        <time>2019-09-08T11:37:12Z</time>
      </trkpt>
      <trkpt lat="48.44289" lon="7.70559">
        <ele>170.60000610352</ele>
        <time>2019-09-08T11:37:17Z</time>
      </trkpt>
      <trkpt lat="48.44284" lon="7.70556">
        <ele>170.60000610352</ele>
        <time>2019-09-08T11:37:18Z</time>
      </trkpt>
      <trkpt lat="48.44246" lon="7.70543">
        <ele>170.80000305176</ele>
        <time>2019-09-08T11:37:25Z</time>
      </trkpt>
      <trkpt lat="48.44204" lon="7.7053">
        <ele>170.80000305176</ele>
        <time>2019-09-08T11:37:32Z</time>
      </trkpt>
      <trkpt lat="48.44171" lon="7.70523">
        <ele>171</ele>
        <time>2019-09-08T11:37:38Z</time>
      </trkpt>
      <trkpt lat="48.4416" lon="7.70521">
        <ele>171</ele>
        <time>2019-09-08T11:37:40Z</time>
      </trkpt>
      <trkpt lat="48.44145" lon="7.70514">
        <ele>171</ele>
        <time>2019-09-08T11:37:43Z</time>
      </trkpt>
      <trkpt lat="48.44114" lon="7.70501">
        <ele>171.19999694824</ele>
        <time>2019-09-08T11:37:49Z</time>
      </trkpt>
      <trkpt lat="48.44068" lon="7.70483">
        <ele>171.39999389648</ele>
        <time>2019-09-08T11:37:58Z</time>
      </trkpt>
      <trkpt lat="48.44027" lon="7.70468">
        <ele>171.39999389648</ele>
        <time>2019-09-08T11:38:06Z</time>
      </trkpt>
      <trkpt lat="48.4398" lon="7.70449">
        <ele>171.19999694824</ele>
        <time>2019-09-08T11:38:15Z</time>
      </trkpt>
      <trkpt lat="48.4394" lon="7.7043">
        <ele>171.19999694824</ele>
        <time>2019-09-08T11:38:23Z</time>
      </trkpt>
      <trkpt lat="48.43917" lon="7.70418">
        <ele>171.19999694824</ele>
        <time>2019-09-08T11:38:28Z</time>
      </trkpt>
      <trkpt lat="48.43899" lon="7.70409">
        <ele>170.80000305176</ele>
        <time>2019-09-08T11:38:33Z</time>
      </trkpt>
      <trkpt lat="48.43881" lon="7.70404">
        <ele>170.80000305176</ele>
        <time>2019-09-08T11:38:37Z</time>
      </trkpt>
      <trkpt lat="48.43877" lon="7.70402">
        <ele>170.80000305176</ele>
        <time>2019-09-08T11:38:38Z</time>
      </trkpt>
      <trkpt lat="48.43868" lon="7.70399">
        <ele>170.60000610352</ele>
        <time>2019-09-08T11:38:40Z</time>
      </trkpt>
      <trkpt lat="48.43859" lon="7.70396">
        <ele>170.60000610352</ele>
        <time>2019-09-08T11:38:42Z</time>
      </trkpt>
      <trkpt lat="48.43833" lon="7.70387">
        <ele>170.60000610352</ele>
        <time>2019-09-08T11:38:48Z</time>
      </trkpt>
      <trkpt lat="48.43806" lon="7.70375">
        <ele>170.60000610352</ele>
        <time>2019-09-08T11:38:53Z</time>
      </trkpt>
      <trkpt lat="48.43774" lon="7.7036">
        <ele>170.80000305176</ele>
        <time>2019-09-08T11:38:59Z</time>
      </trkpt>
      <trkpt lat="48.43744" lon="7.70349">
        <ele>170.80000305176</ele>
        <time>2019-09-08T11:39:05Z</time>
      </trkpt>
      <trkpt lat="48.4373" lon="7.70343">
        <ele>170.80000305176</ele>
        <time>2019-09-08T11:39:08Z</time>
      </trkpt>
      <trkpt lat="48.43721" lon="7.7034">
        <ele>170.80000305176</ele>
        <time>2019-09-08T11:39:10Z</time>
      </trkpt>
      <trkpt lat="48.43691" lon="7.70329">
        <ele>171</ele>
        <time>2019-09-08T11:39:16Z</time>
      </trkpt>
      <trkpt lat="48.43659" lon="7.70317">
        <ele>171</ele>
        <time>2019-09-08T11:39:22Z</time>
      </trkpt>
      <trkpt lat="48.43655" lon="7.70315">
        <ele>171</ele>
        <time>2019-09-08T11:39:23Z</time>
      </trkpt>
      <trkpt lat="48.43635" lon="7.70307">
        <ele>171</ele>
        <time>2019-09-08T11:39:28Z</time>
      </trkpt>
      <trkpt lat="48.43622" lon="7.70302">
        <ele>170.80000305176</ele>
        <time>2019-09-08T11:39:32Z</time>
      </trkpt>
      <trkpt lat="48.43606" lon="7.70294">
        <ele>170.80000305176</ele>
        <time>2019-09-08T11:39:38Z</time>
      </trkpt>
      <trkpt lat="48.43581" lon="7.70286">
        <ele>170.80000305176</ele>
        <time>2019-09-08T11:39:44Z</time>
      </trkpt>
      <trkpt lat="48.4356" lon="7.70282">
        <ele>170.80000305176</ele>
        <time>2019-09-08T11:39:48Z</time>
      </trkpt>
      <trkpt lat="48.43535" lon="7.70279">
        <ele>170.80000305176</ele>
        <time>2019-09-08T11:39:52Z</time>
      </trkpt>
      <trkpt lat="48.43524" lon="7.70274">
        <ele>170.80000305176</ele>
        <time>2019-09-08T11:39:54Z</time>
      </trkpt>
      <trkpt lat="48.4347" lon="7.70252">
        <ele>171.39999389648</ele>
        <time>2019-09-08T11:40:04Z</time>
      </trkpt>
      <trkpt lat="48.43427" lon="7.70236">
        <ele>171.60000610352</ele>
        <time>2019-09-08T11:40:12Z</time>
      </trkpt>
      <trkpt lat="48.43413" lon="7.7023">
        <ele>171.60000610352</ele>
        <time>2019-09-08T11:40:15Z</time>
      </trkpt>
      <trkpt lat="48.43398" lon="7.70225">
        <ele>171.60000610352</ele>
        <time>2019-09-08T11:40:18Z</time>
      </trkpt>
      <trkpt lat="48.43352" lon="7.70208">
        <ele>171.60000610352</ele>
        <time>2019-09-08T11:40:27Z</time>
      </trkpt>
      <trkpt lat="48.43348" lon="7.70206">
        <ele>171.60000610352</ele>
        <time>2019-09-08T11:40:28Z</time>
      </trkpt>
      <trkpt lat="48.43328" lon="7.70197">
        <ele>171.60000610352</ele>
        <time>2019-09-08T11:40:32Z</time>
      </trkpt>
      <trkpt lat="48.43293" lon="7.70183">
        <ele>171.60000610352</ele>
        <time>2019-09-08T11:40:39Z</time>
      </trkpt>
      <trkpt lat="48.43261" lon="7.70172">
        <ele>171.60000610352</ele>
        <time>2019-09-08T11:40:45Z</time>
      </trkpt>
      <trkpt lat="48.43221" lon="7.70156">
        <ele>171.60000610352</ele>
        <time>2019-09-08T11:40:53Z</time>
      </trkpt>
      <trkpt lat="48.43186" lon="7.70143">
        <ele>171.60000610352</ele>
        <time>2019-09-08T11:41:00Z</time>
      </trkpt>
      <trkpt lat="48.43151" lon="7.70129">
        <ele>171.60000610352</ele>
        <time>2019-09-08T11:41:07Z</time>
      </trkpt>
      <trkpt lat="48.43116" lon="7.70115">
        <ele>171.60000610352</ele>
        <time>2019-09-08T11:41:14Z</time>
      </trkpt>
      <trkpt lat="48.43066" lon="7.70095">
        <ele>171.60000610352</ele>
        <time>2019-09-08T11:41:24Z</time>
      </trkpt>
      <trkpt lat="48.43036" lon="7.70084">
        <ele>171.39999389648</ele>
        <time>2019-09-08T11:41:30Z</time>
      </trkpt>
      <trkpt lat="48.42981" lon="7.70062">
        <ele>171.60000610352</ele>
        <time>2019-09-08T11:41:41Z</time>
      </trkpt>
      <trkpt lat="48.42966" lon="7.70056">
        <ele>171.60000610352</ele>
        <time>2019-09-08T11:41:44Z</time>
      </trkpt>
      <trkpt lat="48.4295" lon="7.70051">
        <ele>171.60000610352</ele>
        <time>2019-09-08T11:41:47Z</time>
      </trkpt>
      <trkpt lat="48.42915" lon="7.70037">
        <ele>171.60000610352</ele>
        <time>2019-09-08T11:41:54Z</time>
      </trkpt>
      <trkpt lat="48.4288" lon="7.70023">
        <ele>171.60000610352</ele>
        <time>2019-09-08T11:42:01Z</time>
      </trkpt>
      <trkpt lat="48.42875" lon="7.70021">
        <ele>171.80000305176</ele>
        <time>2019-09-08T11:42:02Z</time>
      </trkpt>
      <trkpt lat="48.42836" lon="7.70006">
        <ele>172</ele>
        <time>2019-09-08T11:42:10Z</time>
      </trkpt>
      <trkpt lat="48.42791" lon="7.69989">
        <ele>171.80000305176</ele>
        <time>2019-09-08T11:42:19Z</time>
      </trkpt>
      <trkpt lat="48.42752" lon="7.69973">
        <ele>171.80000305176</ele>
        <time>2019-09-08T11:42:27Z</time>
      </trkpt>
      <trkpt lat="48.42698" lon="7.69951">
        <ele>172</ele>
        <time>2019-09-08T11:42:38Z</time>
      </trkpt>
      <trkpt lat="48.42653" lon="7.69933">
        <ele>171.80000305176</ele>
        <time>2019-09-08T11:42:47Z</time>
      </trkpt>
      <trkpt lat="48.4261" lon="7.69915">
        <ele>171.80000305176</ele>
        <time>2019-09-08T11:42:56Z</time>
      </trkpt>
      <trkpt lat="48.4258" lon="7.69903">
        <ele>171.80000305176</ele>
        <time>2019-09-08T11:43:02Z</time>
      </trkpt>
      <trkpt lat="48.42545" lon="7.69893">
        <ele>171.80000305176</ele>
        <time>2019-09-08T11:43:09Z</time>
      </trkpt>
      <trkpt lat="48.4254" lon="7.69892">
        <ele>171.80000305176</ele>
        <time>2019-09-08T11:43:10Z</time>
      </trkpt>
      <trkpt lat="48.42523" lon="7.69889">
        <ele>171.80000305176</ele>
        <time>2019-09-08T11:43:14Z</time>
      </trkpt>
      <trkpt lat="48.42519" lon="7.69888">
        <ele>171.80000305176</ele>
        <time>2019-09-08T11:43:15Z</time>
      </trkpt>
      <trkpt lat="48.42492" lon="7.69872">
        <ele>171.80000305176</ele>
        <time>2019-09-08T11:43:23Z</time>
      </trkpt>
      <trkpt lat="48.42469" lon="7.69863">
        <ele>172.39999389648</ele>
        <time>2019-09-08T11:43:28Z</time>
      </trkpt>
      <trkpt lat="48.42454" lon="7.69857">
        <ele>172.60000610352</ele>
        <time>2019-09-08T11:43:31Z</time>
      </trkpt>
      <trkpt lat="48.42405" lon="7.69838">
        <ele>172.60000610352</ele>
        <time>2019-09-08T11:43:41Z</time>
      </trkpt>
      <trkpt lat="48.42356" lon="7.69819">
        <ele>172.60000610352</ele>
        <time>2019-09-08T11:43:51Z</time>
      </trkpt>
      <trkpt lat="48.42307" lon="7.69796">
        <ele>172.80000305176</ele>
        <time>2019-09-08T11:44:01Z</time>
      </trkpt>
      <trkpt lat="48.42272" lon="7.69784">
        <ele>172.80000305176</ele>
        <time>2019-09-08T11:44:08Z</time>
      </trkpt>
      <trkpt lat="48.42241" lon="7.69775">
        <ele>173</ele>
        <time>2019-09-08T11:44:15Z</time>
      </trkpt>
      <trkpt lat="48.42214" lon="7.6976">
        <ele>173.19999694824</ele>
        <time>2019-09-08T11:44:22Z</time>
      </trkpt>
      <trkpt lat="48.42207" lon="7.69754">
        <ele>173.19999694824</ele>
        <time>2019-09-08T11:44:24Z</time>
      </trkpt>
      <trkpt lat="48.42193" lon="7.69742">
        <ele>173.39999389648</ele>
        <time>2019-09-08T11:44:28Z</time>
      </trkpt>
      <trkpt lat="48.42176" lon="7.69722">
        <ele>173.60000610352</ele>
        <time>2019-09-08T11:44:34Z</time>
      </trkpt>
      <trkpt lat="48.42173" lon="7.6972">
        <ele>173.60000610352</ele>
        <time>2019-09-08T11:44:35Z</time>
      </trkpt>
      <trkpt lat="48.4216" lon="7.69716">
        <ele>174.19999694824</ele>
        <time>2019-09-08T11:44:40Z</time>
      </trkpt>
      <trkpt lat="48.42151" lon="7.69716">
        <ele>174.80000305176</ele>
        <time>2019-09-08T11:44:44Z</time>
      </trkpt>
      <trkpt lat="48.42148" lon="7.69716">
        <ele>174.80000305176</ele>
        <time>2019-09-08T11:44:45Z</time>
      </trkpt>
      <trkpt lat="48.42132" lon="7.69715">
        <ele>175.19999694824</ele>
        <time>2019-09-08T11:44:50Z</time>
      </trkpt>
      <trkpt lat="48.42108" lon="7.69713">
        <ele>175.39999389648</ele>
        <time>2019-09-08T11:44:56Z</time>
      </trkpt>
      <trkpt lat="48.42103" lon="7.69713">
        <ele>175.39999389648</ele>
        <time>2019-09-08T11:44:57Z</time>
      </trkpt>
      <trkpt lat="48.42084" lon="7.6971">
        <ele>175.39999389648</ele>
        <time>2019-09-08T11:45:01Z</time>
      </trkpt>
      <trkpt lat="48.42045" lon="7.69697">
        <ele>174.39999389648</ele>
        <time>2019-09-08T11:45:08Z</time>
      </trkpt>
      <trkpt lat="48.42029" lon="7.69691">
        <ele>173.80000305176</ele>
        <time>2019-09-08T11:45:11Z</time>
      </trkpt>
      <trkpt lat="48.42007" lon="7.69683">
        <ele>173</ele>
        <time>2019-09-08T11:45:15Z</time>
      </trkpt>
      <trkpt lat="48.41971" lon="7.6967">
        <ele>172.80000305176</ele>
        <time>2019-09-08T11:45:22Z</time>
      </trkpt>
      <trkpt lat="48.41941" lon="7.69657">
        <ele>172.80000305176</ele>
        <time>2019-09-08T11:45:28Z</time>
      </trkpt>
      <trkpt lat="48.41911" lon="7.69647">
        <ele>172.80000305176</ele>
        <time>2019-09-08T11:45:34Z</time>
      </trkpt>
      <trkpt lat="48.41896" lon="7.6964">
        <ele>172.80000305176</ele>
        <time>2019-09-08T11:45:37Z</time>
      </trkpt>
      <trkpt lat="48.4188" lon="7.69634">
        <ele>172.80000305176</ele>
        <time>2019-09-08T11:45:40Z</time>
      </trkpt>
      <trkpt lat="48.41839" lon="7.69618">
        <ele>173</ele>
        <time>2019-09-08T11:45:48Z</time>
      </trkpt>
      <trkpt lat="48.41806" lon="7.69606">
        <ele>173</ele>
        <time>2019-09-08T11:45:55Z</time>
      </trkpt>
      <trkpt lat="48.41769" lon="7.69592">
        <ele>173</ele>
        <time>2019-09-08T11:46:02Z</time>
      </trkpt>
      <trkpt lat="48.41735" lon="7.69579">
        <ele>173</ele>
        <time>2019-09-08T11:46:09Z</time>
      </trkpt>
      <trkpt lat="48.4173" lon="7.69578">
        <ele>173</ele>
        <time>2019-09-08T11:46:10Z</time>
      </trkpt>
      <trkpt lat="48.4171" lon="7.69575">
        <ele>172.80000305176</ele>
        <time>2019-09-08T11:46:14Z</time>
      </trkpt>
      <trkpt lat="48.41705" lon="7.69575">
        <ele>172.80000305176</ele>
        <time>2019-09-08T11:46:15Z</time>
      </trkpt>
      <trkpt lat="48.417" lon="7.69575">
        <ele>172.80000305176</ele>
        <time>2019-09-08T11:46:16Z</time>
      </trkpt>
      <trkpt lat="48.41696" lon="7.69573">
        <ele>172.80000305176</ele>
        <time>2019-09-08T11:46:17Z</time>
      </trkpt>
      <trkpt lat="48.41688" lon="7.69568">
        <ele>173</ele>
        <time>2019-09-08T11:46:19Z</time>
      </trkpt>
      <trkpt lat="48.41684" lon="7.69566">
        <ele>173</ele>
        <time>2019-09-08T11:46:20Z</time>
      </trkpt>
      <trkpt lat="48.4166" lon="7.69553">
        <ele>173</ele>
        <time>2019-09-08T11:46:26Z</time>
      </trkpt>
      <trkpt lat="48.41635" lon="7.69543">
        <ele>174</ele>
        <time>2019-09-08T11:46:32Z</time>
      </trkpt>
      <trkpt lat="48.41625" lon="7.69538">
        <ele>174</ele>
        <time>2019-09-08T11:46:34Z</time>
      </trkpt>
      <trkpt lat="48.41587" lon="7.6952">
        <ele>174.19999694824</ele>
        <time>2019-09-08T11:46:42Z</time>
      </trkpt>
      <trkpt lat="48.41558" lon="7.69504">
        <ele>174</ele>
        <time>2019-09-08T11:46:48Z</time>
      </trkpt>
      <trkpt lat="48.41531" lon="7.69492">
        <ele>174</ele>
        <time>2019-09-08T11:46:54Z</time>
      </trkpt>
      <trkpt lat="48.41503" lon="7.6948">
        <ele>174</ele>
        <time>2019-09-08T11:47:00Z</time>
      </trkpt>
      <trkpt lat="48.41498" lon="7.69478">
        <ele>174</ele>
        <time>2019-09-08T11:47:01Z</time>
      </trkpt>
      <trkpt lat="48.41472" lon="7.69466">
        <ele>174</ele>
        <time>2019-09-08T11:47:06Z</time>
      </trkpt>
      <trkpt lat="48.4144" lon="7.69455">
        <ele>174</ele>
        <time>2019-09-08T11:47:12Z</time>
      </trkpt>
      <trkpt lat="48.41425" lon="7.69449">
        <ele>174.19999694824</ele>
        <time>2019-09-08T11:47:15Z</time>
      </trkpt>
      <trkpt lat="48.41405" lon="7.69441">
        <ele>174.19999694824</ele>
        <time>2019-09-08T11:47:19Z</time>
      </trkpt>
      <trkpt lat="48.4137" lon="7.69428">
        <ele>174.19999694824</ele>
        <time>2019-09-08T11:47:26Z</time>
      </trkpt>
      <trkpt lat="48.41338" lon="7.69417">
        <ele>174.19999694824</ele>
        <time>2019-09-08T11:47:33Z</time>
      </trkpt>
      <trkpt lat="48.41303" lon="7.69404">
        <ele>174.19999694824</ele>
        <time>2019-09-08T11:47:40Z</time>
      </trkpt>
      <trkpt lat="48.41273" lon="7.69392">
        <ele>174</ele>
        <time>2019-09-08T11:47:46Z</time>
      </trkpt>
      <trkpt lat="48.41262" lon="7.6939">
        <ele>174</ele>
        <time>2019-09-08T11:47:48Z</time>
      </trkpt>
      <trkpt lat="48.41242" lon="7.69386">
        <ele>174.19999694824</ele>
        <time>2019-09-08T11:47:52Z</time>
      </trkpt>
      <trkpt lat="48.41202" lon="7.69371">
        <ele>174.19999694824</ele>
        <time>2019-09-08T11:48:00Z</time>
      </trkpt>
      <trkpt lat="48.41177" lon="7.69362">
        <ele>174.19999694824</ele>
        <time>2019-09-08T11:48:05Z</time>
      </trkpt>
      <trkpt lat="48.41168" lon="7.69358">
        <ele>174.19999694824</ele>
        <time>2019-09-08T11:48:07Z</time>
      </trkpt>
      <trkpt lat="48.41158" lon="7.69355">
        <ele>174.19999694824</ele>
        <time>2019-09-08T11:48:09Z</time>
      </trkpt>
      <trkpt lat="48.41153" lon="7.69353">
        <ele>174.19999694824</ele>
        <time>2019-09-08T11:48:10Z</time>
      </trkpt>
      <trkpt lat="48.41139" lon="7.69348">
        <ele>174.19999694824</ele>
        <time>2019-09-08T11:48:13Z</time>
      </trkpt>
      <trkpt lat="48.4112" lon="7.6934">
        <ele>174</ele>
        <time>2019-09-08T11:48:17Z</time>
      </trkpt>
      <trkpt lat="48.4111" lon="7.69333">
        <ele>174</ele>
        <time>2019-09-08T11:48:19Z</time>
      </trkpt>
      <trkpt lat="48.41091" lon="7.69321">
        <ele>174.19999694824</ele>
        <time>2019-09-08T11:48:23Z</time>
      </trkpt>
      <trkpt lat="48.41076" lon="7.69314">
        <ele>174.19999694824</ele>
        <time>2019-09-08T11:48:26Z</time>
      </trkpt>
      <trkpt lat="48.41041" lon="7.69301">
        <ele>174.39999389648</ele>
        <time>2019-09-08T11:48:33Z</time>
      </trkpt>
      <trkpt lat="48.41005" lon="7.69289">
        <ele>174.39999389648</ele>
        <time>2019-09-08T11:48:40Z</time>
      </trkpt>
      <trkpt lat="48.40964" lon="7.69273">
        <ele>174.60000610352</ele>
        <time>2019-09-08T11:48:48Z</time>
      </trkpt>
      <trkpt lat="48.40939" lon="7.69263">
        <ele>174.60000610352</ele>
        <time>2019-09-08T11:48:53Z</time>
      </trkpt>
      <trkpt lat="48.40935" lon="7.69261">
        <ele>174.60000610352</ele>
        <time>2019-09-08T11:48:54Z</time>
      </trkpt>
      <trkpt lat="48.40907" lon="7.69249">
        <ele>174.39999389648</ele>
        <time>2019-09-08T11:49:00Z</time>
      </trkpt>
      <trkpt lat="48.40884" lon="7.69239">
        <ele>174.39999389648</ele>
        <time>2019-09-08T11:49:05Z</time>
      </trkpt>
      <trkpt lat="48.40858" lon="7.69228">
        <ele>174.39999389648</ele>
        <time>2019-09-08T11:49:11Z</time>
      </trkpt>
      <trkpt lat="48.40828" lon="7.6922">
        <ele>174.39999389648</ele>
        <time>2019-09-08T11:49:17Z</time>
      </trkpt>
      <trkpt lat="48.40811" lon="7.69214">
        <ele>174.39999389648</ele>
        <time>2019-09-08T11:49:21Z</time>
      </trkpt>
      <trkpt lat="48.40806" lon="7.69212">
        <ele>174.39999389648</ele>
        <time>2019-09-08T11:49:22Z</time>
      </trkpt>
      <trkpt lat="48.40784" lon="7.69209">
        <ele>174.60000610352</ele>
        <time>2019-09-08T11:49:26Z</time>
      </trkpt>
      <trkpt lat="48.4078" lon="7.69208">
        <ele>174.60000610352</ele>
        <time>2019-09-08T11:49:27Z</time>
      </trkpt>
      <trkpt lat="48.40757" lon="7.69203">
        <ele>174.60000610352</ele>
        <time>2019-09-08T11:49:32Z</time>
      </trkpt>
      <trkpt lat="48.40725" lon="7.69188">
        <ele>174.60000610352</ele>
        <time>2019-09-08T11:49:38Z</time>
      </trkpt>
      <trkpt lat="48.40702" lon="7.69178">
        <ele>174.60000610352</ele>
        <time>2019-09-08T11:49:43Z</time>
      </trkpt>
      <trkpt lat="48.40669" lon="7.69165">
        <ele>174.39999389648</ele>
        <time>2019-09-08T11:49:50Z</time>
      </trkpt>
      <trkpt lat="48.40644" lon="7.69155">
        <ele>174.39999389648</ele>
        <time>2019-09-08T11:49:56Z</time>
      </trkpt>
      <trkpt lat="48.40643" lon="7.69155">
        <ele>174.39999389648</ele>
        <time>2019-09-08T11:49:58Z</time>
      </trkpt>
      <trkpt lat="48.40645" lon="7.69156">
        <ele>173.80000305176</ele>
        <time>2019-09-08T11:57:15Z</time>
      </trkpt>
      <trkpt lat="48.40647" lon="7.69156">
        <ele>173.80000305176</ele>
        <time>2019-09-08T11:57:16Z</time>
      </trkpt>
      <trkpt lat="48.40658" lon="7.69162">
        <ele>173.80000305176</ele>
        <time>2019-09-08T11:57:21Z</time>
      </trkpt>
      <trkpt lat="48.40683" lon="7.6917">
        <ele>173.80000305176</ele>
        <time>2019-09-08T11:57:28Z</time>
      </trkpt>
      <trkpt lat="48.40705" lon="7.69174">
        <ele>173.80000305176</ele>
        <time>2019-09-08T11:57:34Z</time>
      </trkpt>
      <trkpt lat="48.40722" lon="7.69175">
        <ele>174</ele>
        <time>2019-09-08T11:57:40Z</time>
      </trkpt>
      <trkpt lat="48.4074" lon="7.69174">
        <ele>175</ele>
        <time>2019-09-08T11:57:46Z</time>
      </trkpt>
      <trkpt lat="48.40746" lon="7.69173">
        <ele>175.39999389648</ele>
        <time>2019-09-08T11:57:48Z</time>
      </trkpt>
      <trkpt lat="48.40754" lon="7.69176">
        <ele>176</ele>
        <time>2019-09-08T11:57:51Z</time>
      </trkpt>
      <trkpt lat="48.40759" lon="7.69175">
        <ele>176.39999389648</ele>
        <time>2019-09-08T11:57:53Z</time>
      </trkpt>
      <trkpt lat="48.4076" lon="7.69172">
        <ele>176.39999389648</ele>
        <time>2019-09-08T11:57:54Z</time>
      </trkpt>
      <trkpt lat="48.40761" lon="7.69169">
        <ele>176.60000610352</ele>
        <time>2019-09-08T11:57:55Z</time>
      </trkpt>
      <trkpt lat="48.40764" lon="7.69144">
        <ele>177.39999389648</ele>
        <time>2019-09-08T11:58:00Z</time>
      </trkpt>
      <trkpt lat="48.40764" lon="7.69138">
        <ele>177.60000610352</ele>
        <time>2019-09-08T11:58:01Z</time>
      </trkpt>
      <trkpt lat="48.40766" lon="7.69084">
        <ele>177.80000305176</ele>
        <time>2019-09-08T11:58:09Z</time>
      </trkpt>
      <trkpt lat="48.40768" lon="7.69037">
        <ele>177.19999694824</ele>
        <time>2019-09-08T11:58:15Z</time>
      </trkpt>
      <trkpt lat="48.40768" lon="7.69029">
        <ele>177</ele>
        <time>2019-09-08T11:58:16Z</time>
      </trkpt>
      <trkpt lat="48.40769" lon="7.68995">
        <ele>176.39999389648</ele>
        <time>2019-09-08T11:58:20Z</time>
      </trkpt>
      <trkpt lat="48.4077" lon="7.68977">
        <ele>176</ele>
        <time>2019-09-08T11:58:22Z</time>
      </trkpt>
      <trkpt lat="48.40771" lon="7.68953">
        <ele>175.60000610352</ele>
        <time>2019-09-08T11:58:25Z</time>
      </trkpt>
      <trkpt lat="48.40772" lon="7.68937">
        <ele>175.39999389648</ele>
        <time>2019-09-08T11:58:27Z</time>
      </trkpt>
      <trkpt lat="48.40774" lon="7.68929">
        <ele>175.19999694824</ele>
        <time>2019-09-08T11:58:28Z</time>
      </trkpt>
      <trkpt lat="48.40776" lon="7.68923">
        <ele>175</ele>
        <time>2019-09-08T11:58:29Z</time>
      </trkpt>
      <trkpt lat="48.40783" lon="7.68904">
        <ele>174.60000610352</ele>
        <time>2019-09-08T11:58:32Z</time>
      </trkpt>
      <trkpt lat="48.4079" lon="7.68895">
        <ele>174.39999389648</ele>
        <time>2019-09-08T11:58:34Z</time>
      </trkpt>
      <trkpt lat="48.40797" lon="7.68888">
        <ele>174.19999694824</ele>
        <time>2019-09-08T11:58:36Z</time>
      </trkpt>
      <trkpt lat="48.40808" lon="7.68868">
        <ele>174.19999694824</ele>
        <time>2019-09-08T11:58:40Z</time>
      </trkpt>
      <trkpt lat="48.40825" lon="7.68825">
        <ele>174</ele>
        <time>2019-09-08T11:58:48Z</time>
      </trkpt>
      <trkpt lat="48.40846" lon="7.68771">
        <ele>173.80000305176</ele>
        <time>2019-09-08T11:58:57Z</time>
      </trkpt>
      <trkpt lat="48.40861" lon="7.68717">
        <ele>173.80000305176</ele>
        <time>2019-09-08T11:59:05Z</time>
      </trkpt>
      <trkpt lat="48.40877" lon="7.68637">
        <ele>173.80000305176</ele>
        <time>2019-09-08T11:59:16Z</time>
      </trkpt>
      <trkpt lat="48.40892" lon="7.68571">
        <ele>173.60000610352</ele>
        <time>2019-09-08T11:59:25Z</time>
      </trkpt>
      <trkpt lat="48.40905" lon="7.68513">
        <ele>173.60000610352</ele>
        <time>2019-09-08T11:59:33Z</time>
      </trkpt>
      <trkpt lat="48.40906" lon="7.68505">
        <ele>173.60000610352</ele>
        <time>2019-09-08T11:59:34Z</time>
      </trkpt>
      <trkpt lat="48.4092" lon="7.68446">
        <ele>173.39999389648</ele>
        <time>2019-09-08T11:59:42Z</time>
      </trkpt>
      <trkpt lat="48.40934" lon="7.68388">
        <ele>173.39999389648</ele>
        <time>2019-09-08T11:59:50Z</time>
      </trkpt>
      <trkpt lat="48.40937" lon="7.68367">
        <ele>173.80000305176</ele>
        <time>2019-09-08T11:59:53Z</time>
      </trkpt>
      <trkpt lat="48.4094" lon="7.68354">
        <ele>173.80000305176</ele>
        <time>2019-09-08T11:59:55Z</time>
      </trkpt>
      <trkpt lat="48.40956" lon="7.68302">
        <ele>174</ele>
        <time>2019-09-08T12:00:03Z</time>
      </trkpt>
      <trkpt lat="48.40975" lon="7.68237">
        <ele>174</ele>
        <time>2019-09-08T12:00:12Z</time>
      </trkpt>
      <trkpt lat="48.40988" lon="7.68186">
        <ele>173.80000305176</ele>
        <time>2019-09-08T12:00:19Z</time>
      </trkpt>
      <trkpt lat="48.41" lon="7.68118">
        <ele>174</ele>
        <time>2019-09-08T12:00:28Z</time>
      </trkpt>
      <trkpt lat="48.4101" lon="7.68051">
        <ele>174</ele>
        <time>2019-09-08T12:00:37Z</time>
      </trkpt>
      <trkpt lat="48.41014" lon="7.67974">
        <ele>174</ele>
        <time>2019-09-08T12:00:47Z</time>
      </trkpt>
      <trkpt lat="48.41018" lon="7.67897">
        <ele>174</ele>
        <time>2019-09-08T12:00:57Z</time>
      </trkpt>
      <trkpt lat="48.41022" lon="7.67835">
        <ele>174</ele>
        <time>2019-09-08T12:01:05Z</time>
      </trkpt>
      <trkpt lat="48.41026" lon="7.67767">
        <ele>174</ele>
        <time>2019-09-08T12:01:14Z</time>
      </trkpt>
      <trkpt lat="48.41029" lon="7.67691">
        <ele>174.19999694824</ele>
        <time>2019-09-08T12:01:24Z</time>
      </trkpt>
      <trkpt lat="48.41037" lon="7.67607">
        <ele>174.39999389648</ele>
        <time>2019-09-08T12:01:35Z</time>
      </trkpt>
      <trkpt lat="48.41045" lon="7.67531">
        <ele>174.39999389648</ele>
        <time>2019-09-08T12:01:45Z</time>
      </trkpt>
      <trkpt lat="48.41053" lon="7.67481">
        <ele>174.39999389648</ele>
        <time>2019-09-08T12:01:52Z</time>
      </trkpt>
      <trkpt lat="48.41067" lon="7.67433">
        <ele>174.80000305176</ele>
        <time>2019-09-08T12:02:00Z</time>
      </trkpt>
      <trkpt lat="48.41073" lon="7.67416">
        <ele>175.19999694824</ele>
        <time>2019-09-08T12:02:03Z</time>
      </trkpt>
      <trkpt lat="48.41084" lon="7.67389">
        <ele>175.60000610352</ele>
        <time>2019-09-08T12:02:08Z</time>
      </trkpt>
      <trkpt lat="48.41095" lon="7.67363">
        <ele>175.80000305176</ele>
        <time>2019-09-08T12:02:13Z</time>
      </trkpt>
      <trkpt lat="48.41102" lon="7.67347">
        <ele>176</ele>
        <time>2019-09-08T12:02:16Z</time>
      </trkpt>
      <trkpt lat="48.41104" lon="7.67341">
        <ele>176.19999694824</ele>
        <time>2019-09-08T12:02:17Z</time>
      </trkpt>
      <trkpt lat="48.41114" lon="7.67315">
        <ele>176.39999389648</ele>
        <time>2019-09-08T12:02:22Z</time>
      </trkpt>
      <trkpt lat="48.41129" lon="7.67279">
        <ele>176.39999389648</ele>
        <time>2019-09-08T12:02:29Z</time>
      </trkpt>
      <trkpt lat="48.4114" lon="7.67245">
        <ele>176</ele>
        <time>2019-09-08T12:02:35Z</time>
      </trkpt>
      <trkpt lat="48.41155" lon="7.67197">
        <ele>175.60000610352</ele>
        <time>2019-09-08T12:02:42Z</time>
      </trkpt>
      <trkpt lat="48.41167" lon="7.67183">
        <ele>175.60000610352</ele>
        <time>2019-09-08T12:02:45Z</time>
      </trkpt>
      <trkpt lat="48.41183" lon="7.67166">
        <ele>175.60000610352</ele>
        <time>2019-09-08T12:02:49Z</time>
      </trkpt>
      <trkpt lat="48.41189" lon="7.67138">
        <ele>175.39999389648</ele>
        <time>2019-09-08T12:02:53Z</time>
      </trkpt>
      <trkpt lat="48.41195" lon="7.67109">
        <ele>175.39999389648</ele>
        <time>2019-09-08T12:02:57Z</time>
      </trkpt>
      <trkpt lat="48.41203" lon="7.6709">
        <ele>175.39999389648</ele>
        <time>2019-09-08T12:03:00Z</time>
      </trkpt>
      <trkpt lat="48.41212" lon="7.6707">
        <ele>175.39999389648</ele>
        <time>2019-09-08T12:03:03Z</time>
      </trkpt>
      <trkpt lat="48.41232" lon="7.67029">
        <ele>175.39999389648</ele>
        <time>2019-09-08T12:03:09Z</time>
      </trkpt>
      <trkpt lat="48.41243" lon="7.67007">
        <ele>175.19999694824</ele>
        <time>2019-09-08T12:03:12Z</time>
      </trkpt>
      <trkpt lat="48.41267" lon="7.66962">
        <ele>174.80000305176</ele>
        <time>2019-09-08T12:03:19Z</time>
      </trkpt>
      <trkpt lat="48.41276" lon="7.66945">
        <ele>174.80000305176</ele>
        <time>2019-09-08T12:03:22Z</time>
      </trkpt>
      <trkpt lat="48.41285" lon="7.6693">
        <ele>174.80000305176</ele>
        <time>2019-09-08T12:03:25Z</time>
      </trkpt>
      <trkpt lat="48.41307" lon="7.66891">
        <ele>174.60000610352</ele>
        <time>2019-09-08T12:03:32Z</time>
      </trkpt>
      <trkpt lat="48.41333" lon="7.66846">
        <ele>174.60000610352</ele>
        <time>2019-09-08T12:03:40Z</time>
      </trkpt>
      <trkpt lat="48.41346" lon="7.66827">
        <ele>174.39999389648</ele>
        <time>2019-09-08T12:03:44Z</time>
      </trkpt>
      <trkpt lat="48.41351" lon="7.66816">
        <ele>174.60000610352</ele>
        <time>2019-09-08T12:03:46Z</time>
      </trkpt>
      <trkpt lat="48.41372" lon="7.66777">
        <ele>174.39999389648</ele>
        <time>2019-09-08T12:03:54Z</time>
      </trkpt>
      <trkpt lat="48.41381" lon="7.66761">
        <ele>174.19999694824</ele>
        <time>2019-09-08T12:03:57Z</time>
      </trkpt>
      <trkpt lat="48.41391" lon="7.66743">
        <ele>174.39999389648</ele>
        <time>2019-09-08T12:04:01Z</time>
      </trkpt>
      <trkpt lat="48.41404" lon="7.6672">
        <ele>174.39999389648</ele>
        <time>2019-09-08T12:04:07Z</time>
      </trkpt>
      <trkpt lat="48.41413" lon="7.66699">
        <ele>174.39999389648</ele>
        <time>2019-09-08T12:04:12Z</time>
      </trkpt>
      <trkpt lat="48.41434" lon="7.66668">
        <ele>174.39999389648</ele>
        <time>2019-09-08T12:04:19Z</time>
      </trkpt>
      <trkpt lat="48.41449" lon="7.66646">
        <ele>174.19999694824</ele>
        <time>2019-09-08T12:04:24Z</time>
      </trkpt>
      <trkpt lat="48.41452" lon="7.66642">
        <ele>174.19999694824</ele>
        <time>2019-09-08T12:04:25Z</time>
      </trkpt>
      <trkpt lat="48.41456" lon="7.66638">
        <ele>174.19999694824</ele>
        <time>2019-09-08T12:04:26Z</time>
      </trkpt>
      <trkpt lat="48.41471" lon="7.66628">
        <ele>174.19999694824</ele>
        <time>2019-09-08T12:04:30Z</time>
      </trkpt>
      <trkpt lat="48.41475" lon="7.66626">
        <ele>174.19999694824</ele>
        <time>2019-09-08T12:04:31Z</time>
      </trkpt>
      <trkpt lat="48.41494" lon="7.66618">
        <ele>174</ele>
        <time>2019-09-08T12:04:36Z</time>
      </trkpt>
      <trkpt lat="48.41528" lon="7.66612">
        <ele>174</ele>
        <time>2019-09-08T12:04:44Z</time>
      </trkpt>
      <trkpt lat="48.41536" lon="7.6661">
        <ele>174</ele>
        <time>2019-09-08T12:04:46Z</time>
      </trkpt>
      <trkpt lat="48.4155" lon="7.66609">
        <ele>174.19999694824</ele>
        <time>2019-09-08T12:04:49Z</time>
      </trkpt>
      <trkpt lat="48.41589" lon="7.66607">
        <ele>174.19999694824</ele>
        <time>2019-09-08T12:04:57Z</time>
      </trkpt>
      <trkpt lat="48.41622" lon="7.66604">
        <ele>174.19999694824</ele>
        <time>2019-09-08T12:05:04Z</time>
      </trkpt>
      <trkpt lat="48.41634" lon="7.66597">
        <ele>174.19999694824</ele>
        <time>2019-09-08T12:05:07Z</time>
      </trkpt>
      <trkpt lat="48.41645" lon="7.66588">
        <ele>174.39999389648</ele>
        <time>2019-09-08T12:05:10Z</time>
      </trkpt>
      <trkpt lat="48.41677" lon="7.66555">
        <ele>174.80000305176</ele>
        <time>2019-09-08T12:05:19Z</time>
      </trkpt>
      <trkpt lat="48.41701" lon="7.6653">
        <ele>175.39999389648</ele>
        <time>2019-09-08T12:05:26Z</time>
      </trkpt>
      <trkpt lat="48.4171" lon="7.66519">
        <ele>175.39999389648</ele>
        <time>2019-09-08T12:05:29Z</time>
      </trkpt>
      <trkpt lat="48.41714" lon="7.66516">
        <ele>175.39999389648</ele>
        <time>2019-09-08T12:05:30Z</time>
      </trkpt>
      <trkpt lat="48.41734" lon="7.66507">
        <ele>175.19999694824</ele>
        <time>2019-09-08T12:05:34Z</time>
      </trkpt>
      <trkpt lat="48.41739" lon="7.66505">
        <ele>175</ele>
        <time>2019-09-08T12:05:35Z</time>
      </trkpt>
      <trkpt lat="48.41773" lon="7.66502">
        <ele>174.39999389648</ele>
        <time>2019-09-08T12:05:41Z</time>
      </trkpt>
      <trkpt lat="48.41799" lon="7.6649">
        <ele>173.80000305176</ele>
        <time>2019-09-08T12:05:46Z</time>
      </trkpt>
      <trkpt lat="48.41824" lon="7.6647">
        <ele>173.60000610352</ele>
        <time>2019-09-08T12:05:51Z</time>
      </trkpt>
      <trkpt lat="48.41828" lon="7.66466">
        <ele>173.60000610352</ele>
        <time>2019-09-08T12:05:52Z</time>
      </trkpt>
      <trkpt lat="48.41873" lon="7.66424">
        <ele>173.60000610352</ele>
        <time>2019-09-08T12:06:02Z</time>
      </trkpt>
      <trkpt lat="48.41889" lon="7.6641">
        <ele>173.60000610352</ele>
        <time>2019-09-08T12:06:06Z</time>
      </trkpt>
      <trkpt lat="48.41899" lon="7.66409">
        <ele>173.60000610352</ele>
        <time>2019-09-08T12:06:08Z</time>
      </trkpt>
      <trkpt lat="48.41909" lon="7.66424">
        <ele>173.39999389648</ele>
        <time>2019-09-08T12:06:11Z</time>
      </trkpt>
      <trkpt lat="48.41922" lon="7.66429">
        <ele>173.39999389648</ele>
        <time>2019-09-08T12:06:14Z</time>
      </trkpt>
      <trkpt lat="48.41931" lon="7.66417">
        <ele>173.60000610352</ele>
        <time>2019-09-08T12:06:17Z</time>
      </trkpt>
      <trkpt lat="48.41934" lon="7.66413">
        <ele>173.60000610352</ele>
        <time>2019-09-08T12:06:18Z</time>
      </trkpt>
      <trkpt lat="48.4195" lon="7.66408">
        <ele>173.39999389648</ele>
        <time>2019-09-08T12:06:22Z</time>
      </trkpt>
      <trkpt lat="48.41955" lon="7.6641">
        <ele>173.39999389648</ele>
        <time>2019-09-08T12:06:23Z</time>
      </trkpt>
      <trkpt lat="48.41982" lon="7.66416">
        <ele>173.39999389648</ele>
        <time>2019-09-08T12:06:29Z</time>
      </trkpt>
      <trkpt lat="48.4202" lon="7.6642">
        <ele>173.39999389648</ele>
        <time>2019-09-08T12:06:37Z</time>
      </trkpt>
      <trkpt lat="48.42034" lon="7.6642">
        <ele>173.60000610352</ele>
        <time>2019-09-08T12:06:40Z</time>
      </trkpt>
      <trkpt lat="48.42047" lon="7.66414">
        <ele>173.60000610352</ele>
        <time>2019-09-08T12:06:43Z</time>
      </trkpt>
      <trkpt lat="48.42062" lon="7.66393">
        <ele>174</ele>
        <time>2019-09-08T12:06:48Z</time>
      </trkpt>
      <trkpt lat="48.42082" lon="7.66354">
        <ele>174.19999694824</ele>
        <time>2019-09-08T12:06:56Z</time>
      </trkpt>
      <trkpt lat="48.42106" lon="7.66309">
        <ele>174.60000610352</ele>
        <time>2019-09-08T12:07:05Z</time>
      </trkpt>
      <trkpt lat="48.42121" lon="7.66278">
        <ele>174.80000305176</ele>
        <time>2019-09-08T12:07:11Z</time>
      </trkpt>
      <trkpt lat="48.42126" lon="7.66268">
        <ele>175</ele>
        <time>2019-09-08T12:07:13Z</time>
      </trkpt>
      <trkpt lat="48.42144" lon="7.66238">
        <ele>175.19999694824</ele>
        <time>2019-09-08T12:07:20Z</time>
      </trkpt>
      <trkpt lat="48.42158" lon="7.66233">
        <ele>175.39999389648</ele>
        <time>2019-09-08T12:07:26Z</time>
      </trkpt>
      <trkpt lat="48.42162" lon="7.66232">
        <ele>175.60000610352</ele>
        <time>2019-09-08T12:07:28Z</time>
      </trkpt>
      <trkpt lat="48.42168" lon="7.6623">
        <ele>175.60000610352</ele>
        <time>2019-09-08T12:07:31Z</time>
      </trkpt>
      <trkpt lat="48.4217" lon="7.66229">
        <ele>175.60000610352</ele>
        <time>2019-09-08T12:07:32Z</time>
      </trkpt>
      <trkpt lat="48.42177" lon="7.66225">
        <ele>175.80000305176</ele>
        <time>2019-09-08T12:07:35Z</time>
      </trkpt>
      <trkpt lat="48.4218" lon="7.66223">
        <ele>176</ele>
        <time>2019-09-08T12:07:36Z</time>
      </trkpt>
      <trkpt lat="48.42182" lon="7.6622">
        <ele>176</ele>
        <time>2019-09-08T12:07:37Z</time>
      </trkpt>
      <trkpt lat="48.42187" lon="7.66215">
        <ele>176</ele>
        <time>2019-09-08T12:07:39Z</time>
      </trkpt>
      <trkpt lat="48.42196" lon="7.66208">
        <ele>176.19999694824</ele>
        <time>2019-09-08T12:07:43Z</time>
      </trkpt>
      <trkpt lat="48.42209" lon="7.66207">
        <ele>176.60000610352</ele>
        <time>2019-09-08T12:07:48Z</time>
      </trkpt>
      <trkpt lat="48.42223" lon="7.66209">
        <ele>176.60000610352</ele>
        <time>2019-09-08T12:07:53Z</time>
      </trkpt>
      <trkpt lat="48.42227" lon="7.66207">
        <ele>176.60000610352</ele>
        <time>2019-09-08T12:07:57Z</time>
      </trkpt>
      <trkpt lat="48.42243" lon="7.66199">
        <ele>176.39999389648</ele>
        <time>2019-09-08T12:08:03Z</time>
      </trkpt>
      <trkpt lat="48.42254" lon="7.66196">
        <ele>176.19999694824</ele>
        <time>2019-09-08T12:08:08Z</time>
      </trkpt>
      <trkpt lat="48.42256" lon="7.66195">
        <ele>176.19999694824</ele>
        <time>2019-09-08T12:08:10Z</time>
      </trkpt>
      <trkpt lat="48.42257" lon="7.66191">
        <ele>176.19999694824</ele>
        <time>2019-09-08T12:08:13Z</time>
      </trkpt>
      <trkpt lat="48.42257" lon="7.6618">
        <ele>176.19999694824</ele>
        <time>2019-09-08T12:08:18Z</time>
      </trkpt>
      <trkpt lat="48.42256" lon="7.66163">
        <ele>176</ele>
        <time>2019-09-08T12:08:23Z</time>
      </trkpt>
      <trkpt lat="48.42256" lon="7.66155">
        <ele>176</ele>
        <time>2019-09-08T12:08:25Z</time>
      </trkpt>
      <trkpt lat="48.42257" lon="7.66136">
        <ele>176</ele>
        <time>2019-09-08T12:08:30Z</time>
      </trkpt>
      <trkpt lat="48.42258" lon="7.66114">
        <ele>176</ele>
        <time>2019-09-08T12:08:36Z</time>
      </trkpt>
      <trkpt lat="48.42258" lon="7.66111">
        <ele>176</ele>
        <time>2019-09-08T12:08:39Z</time>
      </trkpt>
      <trkpt lat="48.42258" lon="7.6611">
        <ele>175.80000305176</ele>
        <time>2019-09-08T12:11:06Z</time>
      </trkpt>
      <trkpt lat="48.42261" lon="7.66112">
        <ele>175.80000305176</ele>
        <time>2019-09-08T12:11:11Z</time>
      </trkpt>
      <trkpt lat="48.42263" lon="7.66113">
        <ele>175.80000305176</ele>
        <time>2019-09-08T12:11:12Z</time>
      </trkpt>
      <trkpt lat="48.42264" lon="7.66122">
        <ele>175.80000305176</ele>
        <time>2019-09-08T12:11:15Z</time>
      </trkpt>
      <trkpt lat="48.42264" lon="7.66126">
        <ele>176</ele>
        <time>2019-09-08T12:11:16Z</time>
      </trkpt>
      <trkpt lat="48.42263" lon="7.66152">
        <ele>175.80000305176</ele>
        <time>2019-09-08T12:11:22Z</time>
      </trkpt>
      <trkpt lat="48.4226" lon="7.66184">
        <ele>176.19999694824</ele>
        <time>2019-09-08T12:11:30Z</time>
      </trkpt>
      <trkpt lat="48.42262" lon="7.66201">
        <ele>176.19999694824</ele>
        <time>2019-09-08T12:11:34Z</time>
      </trkpt>
      <trkpt lat="48.42263" lon="7.66225">
        <ele>176.39999389648</ele>
        <time>2019-09-08T12:11:40Z</time>
      </trkpt>
      <trkpt lat="48.4226" lon="7.66247">
        <ele>176.39999389648</ele>
        <time>2019-09-08T12:11:46Z</time>
      </trkpt>
      <trkpt lat="48.42257" lon="7.66268">
        <ele>176.60000610352</ele>
        <time>2019-09-08T12:11:51Z</time>
      </trkpt>
      <trkpt lat="48.42256" lon="7.66272">
        <ele>176.60000610352</ele>
        <time>2019-09-08T12:11:52Z</time>
      </trkpt>
      <trkpt lat="48.42257" lon="7.66302">
        <ele>176.60000610352</ele>
        <time>2019-09-08T12:11:58Z</time>
      </trkpt>
      <trkpt lat="48.42257" lon="7.66313">
        <ele>176.60000610352</ele>
        <time>2019-09-08T12:12:00Z</time>
      </trkpt>
      <trkpt lat="48.42258" lon="7.66333">
        <ele>176.80000305176</ele>
        <time>2019-09-08T12:12:04Z</time>
      </trkpt>
      <trkpt lat="48.42258" lon="7.66357">
        <ele>176.80000305176</ele>
        <time>2019-09-08T12:12:10Z</time>
      </trkpt>
      <trkpt lat="48.42255" lon="7.66389">
        <ele>176.80000305176</ele>
        <time>2019-09-08T12:12:17Z</time>
      </trkpt>
      <trkpt lat="48.42253" lon="7.66392">
        <ele>176.60000610352</ele>
        <time>2019-09-08T12:12:18Z</time>
      </trkpt>
      <trkpt lat="48.42249" lon="7.66395">
        <ele>176.39999389648</ele>
        <time>2019-09-08T12:12:20Z</time>
      </trkpt>
      <trkpt lat="48.42239" lon="7.66415">
        <ele>175.80000305176</ele>
        <time>2019-09-08T12:12:26Z</time>
      </trkpt>
      <trkpt lat="48.42238" lon="7.6642">
        <ele>175.60000610352</ele>
        <time>2019-09-08T12:12:27Z</time>
      </trkpt>
      <trkpt lat="48.42231" lon="7.66431">
        <ele>175.19999694824</ele>
        <time>2019-09-08T12:12:31Z</time>
      </trkpt>
      <trkpt lat="48.42225" lon="7.66436">
        <ele>175</ele>
        <time>2019-09-08T12:12:34Z</time>
      </trkpt>
      <trkpt lat="48.42226" lon="7.66438">
        <ele>175</ele>
        <time>2019-09-08T12:12:35Z</time>
      </trkpt>
      <trkpt lat="48.42232" lon="7.66438">
        <ele>174.80000305176</ele>
        <time>2019-09-08T12:12:38Z</time>
      </trkpt>
      <trkpt lat="48.42234" lon="7.66443">
        <ele>174.60000610352</ele>
        <time>2019-09-08T12:12:41Z</time>
      </trkpt>
      <trkpt lat="48.42236" lon="7.66449">
        <ele>174.39999389648</ele>
        <time>2019-09-08T12:12:43Z</time>
      </trkpt>
      <trkpt lat="48.42241" lon="7.66453">
        <ele>174.39999389648</ele>
        <time>2019-09-08T12:12:45Z</time>
      </trkpt>
      <trkpt lat="48.42261" lon="7.66465">
        <ele>174</ele>
        <time>2019-09-08T12:12:51Z</time>
      </trkpt>
      <trkpt lat="48.42265" lon="7.66469">
        <ele>174</ele>
        <time>2019-09-08T12:12:52Z</time>
      </trkpt>
      <trkpt lat="48.42274" lon="7.6648">
        <ele>173.80000305176</ele>
        <time>2019-09-08T12:12:55Z</time>
      </trkpt>
      <trkpt lat="48.42282" lon="7.66485">
        <ele>173.60000610352</ele>
        <time>2019-09-08T12:12:57Z</time>
      </trkpt>
      <trkpt lat="48.42286" lon="7.66485">
        <ele>173.60000610352</ele>
        <time>2019-09-08T12:12:58Z</time>
      </trkpt>
      <trkpt lat="48.42293" lon="7.6648">
        <ele>173.39999389648</ele>
        <time>2019-09-08T12:13:00Z</time>
      </trkpt>
      <trkpt lat="48.423" lon="7.66474">
        <ele>173.19999694824</ele>
        <time>2019-09-08T12:13:02Z</time>
      </trkpt>
      <trkpt lat="48.4232" lon="7.6646">
        <ele>172.80000305176</ele>
        <time>2019-09-08T12:13:08Z</time>
      </trkpt>
      <trkpt lat="48.42338" lon="7.66449">
        <ele>172.80000305176</ele>
        <time>2019-09-08T12:13:15Z</time>
      </trkpt>
      <trkpt lat="48.42338" lon="7.66447">
        <ele>172.80000305176</ele>
        <time>2019-09-08T12:13:18Z</time>
      </trkpt>
      <trkpt lat="48.42338" lon="7.66444">
        <ele>172.80000305176</ele>
        <time>2019-09-08T12:13:53Z</time>
      </trkpt>
      <trkpt lat="48.42334" lon="7.66427">
        <ele>172.80000305176</ele>
        <time>2019-09-08T12:13:58Z</time>
      </trkpt>
      <trkpt lat="48.42326" lon="7.664">
        <ele>173</ele>
        <time>2019-09-08T12:14:05Z</time>
      </trkpt>
      <trkpt lat="48.42321" lon="7.66378">
        <ele>173.80000305176</ele>
        <time>2019-09-08T12:14:11Z</time>
      </trkpt>
      <trkpt lat="48.42317" lon="7.66353">
        <ele>175</ele>
        <time>2019-09-08T12:14:18Z</time>
      </trkpt>
      <trkpt lat="48.42319" lon="7.66337">
        <ele>176</ele>
        <time>2019-09-08T12:14:24Z</time>
      </trkpt>
      <trkpt lat="48.4232" lon="7.66335">
        <ele>176.19999694824</ele>
        <time>2019-09-08T12:14:25Z</time>
      </trkpt>
      <trkpt lat="48.42329" lon="7.66323">
        <ele>176.80000305176</ele>
        <time>2019-09-08T12:14:30Z</time>
      </trkpt>
      <trkpt lat="48.42332" lon="7.66316">
        <ele>177</ele>
        <time>2019-09-08T12:14:32Z</time>
      </trkpt>
      <trkpt lat="48.42337" lon="7.66297">
        <ele>177</ele>
        <time>2019-09-08T12:14:37Z</time>
      </trkpt>
      <trkpt lat="48.42345" lon="7.66268">
        <ele>177</ele>
        <time>2019-09-08T12:14:44Z</time>
      </trkpt>
      <trkpt lat="48.4235" lon="7.6624">
        <ele>177</ele>
        <time>2019-09-08T12:14:51Z</time>
      </trkpt>
      <trkpt lat="48.4235" lon="7.66216">
        <ele>176.60000610352</ele>
        <time>2019-09-08T12:14:56Z</time>
      </trkpt>
      <trkpt lat="48.42348" lon="7.66179">
        <ele>176.19999694824</ele>
        <time>2019-09-08T12:15:04Z</time>
      </trkpt>
      <trkpt lat="48.42347" lon="7.66165">
        <ele>175.80000305176</ele>
        <time>2019-09-08T12:15:09Z</time>
      </trkpt>
      <trkpt lat="48.42343" lon="7.66158">
        <ele>175.80000305176</ele>
        <time>2019-09-08T12:15:13Z</time>
      </trkpt>
      <trkpt lat="48.42332" lon="7.66159">
        <ele>175.80000305176</ele>
        <time>2019-09-08T12:15:17Z</time>
      </trkpt>
      <trkpt lat="48.42326" lon="7.6616">
        <ele>175.80000305176</ele>
        <time>2019-09-08T12:15:19Z</time>
      </trkpt>
      <trkpt lat="48.42313" lon="7.66162">
        <ele>175.80000305176</ele>
        <time>2019-09-08T12:15:23Z</time>
      </trkpt>
      <trkpt lat="48.42296" lon="7.66167">
        <ele>176</ele>
        <time>2019-09-08T12:15:28Z</time>
      </trkpt>
      <trkpt lat="48.42293" lon="7.66167">
        <ele>176</ele>
        <time>2019-09-08T12:15:29Z</time>
      </trkpt>
      <trkpt lat="48.42271" lon="7.66172">
        <ele>176.19999694824</ele>
        <time>2019-09-08T12:15:36Z</time>
      </trkpt>
      <trkpt lat="48.42259" lon="7.66181">
        <ele>176.39999389648</ele>
        <time>2019-09-08T12:15:41Z</time>
      </trkpt>
      <trkpt lat="48.42241" lon="7.66194">
        <ele>176.39999389648</ele>
        <time>2019-09-08T12:15:47Z</time>
      </trkpt>
      <trkpt lat="48.42224" lon="7.66196">
        <ele>176.60000610352</ele>
        <time>2019-09-08T12:15:52Z</time>
      </trkpt>
      <trkpt lat="48.42195" lon="7.66198">
        <ele>176.60000610352</ele>
        <time>2019-09-08T12:16:00Z</time>
      </trkpt>
      <trkpt lat="48.42175" lon="7.66217">
        <ele>176.60000610352</ele>
        <time>2019-09-08T12:16:07Z</time>
      </trkpt>
      <trkpt lat="48.42162" lon="7.66225">
        <ele>176.39999389648</ele>
        <time>2019-09-08T12:16:12Z</time>
      </trkpt>
      <trkpt lat="48.42142" lon="7.66236">
        <ele>176.39999389648</ele>
        <time>2019-09-08T12:16:18Z</time>
      </trkpt>
      <trkpt lat="48.42134" lon="7.66255">
        <ele>176.19999694824</ele>
        <time>2019-09-08T12:16:22Z</time>
      </trkpt>
      <trkpt lat="48.42116" lon="7.66293">
        <ele>175.60000610352</ele>
        <time>2019-09-08T12:16:29Z</time>
      </trkpt>
      <trkpt lat="48.42091" lon="7.66343">
        <ele>175.19999694824</ele>
        <time>2019-09-08T12:16:38Z</time>
      </trkpt>
      <trkpt lat="48.42085" lon="7.66353">
        <ele>175</ele>
        <time>2019-09-08T12:16:40Z</time>
      </trkpt>
      <trkpt lat="48.4207" lon="7.66382">
        <ele>175</ele>
        <time>2019-09-08T12:16:45Z</time>
      </trkpt>
      <trkpt lat="48.4206" lon="7.66398">
        <ele>174.80000305176</ele>
        <time>2019-09-08T12:16:48Z</time>
      </trkpt>
      <trkpt lat="48.42051" lon="7.66406">
        <ele>174.60000610352</ele>
        <time>2019-09-08T12:16:50Z</time>
      </trkpt>
      <trkpt lat="48.4203" lon="7.66414">
        <ele>174.39999389648</ele>
        <time>2019-09-08T12:16:54Z</time>
      </trkpt>
      <trkpt lat="48.42019" lon="7.66414">
        <ele>174.39999389648</ele>
        <time>2019-09-08T12:16:56Z</time>
      </trkpt>
      <trkpt lat="48.41986" lon="7.66412">
        <ele>174.19999694824</ele>
        <time>2019-09-08T12:17:02Z</time>
      </trkpt>
      <trkpt lat="48.41946" lon="7.66406">
        <ele>174.19999694824</ele>
        <time>2019-09-08T12:17:09Z</time>
      </trkpt>
      <trkpt lat="48.41935" lon="7.66406">
        <ele>174.19999694824</ele>
        <time>2019-09-08T12:17:11Z</time>
      </trkpt>
      <trkpt lat="48.4192" lon="7.66403">
        <ele>174.19999694824</ele>
        <time>2019-09-08T12:17:14Z</time>
      </trkpt>
      <trkpt lat="48.41914" lon="7.66403">
        <ele>174.19999694824</ele>
        <time>2019-09-08T12:17:15Z</time>
      </trkpt>
      <trkpt lat="48.41898" lon="7.66404">
        <ele>174.19999694824</ele>
        <time>2019-09-08T12:17:18Z</time>
      </trkpt>
      <trkpt lat="48.41887" lon="7.66409">
        <ele>174</ele>
        <time>2019-09-08T12:17:20Z</time>
      </trkpt>
      <trkpt lat="48.41873" lon="7.6642">
        <ele>174</ele>
        <time>2019-09-08T12:17:23Z</time>
      </trkpt>
      <trkpt lat="48.41863" lon="7.66429">
        <ele>174</ele>
        <time>2019-09-08T12:17:25Z</time>
      </trkpt>
      <trkpt lat="48.41835" lon="7.66458">
        <ele>173.80000305176</ele>
        <time>2019-09-08T12:17:32Z</time>
      </trkpt>
      <trkpt lat="48.4181" lon="7.66479">
        <ele>173.80000305176</ele>
        <time>2019-09-08T12:17:37Z</time>
      </trkpt>
      <trkpt lat="48.4179" lon="7.66491">
        <ele>173.80000305176</ele>
        <time>2019-09-08T12:17:41Z</time>
      </trkpt>
      <trkpt lat="48.41779" lon="7.66493">
        <ele>173.80000305176</ele>
        <time>2019-09-08T12:17:43Z</time>
      </trkpt>
      <trkpt lat="48.41773" lon="7.66494">
        <ele>173.80000305176</ele>
        <time>2019-09-08T12:17:44Z</time>
      </trkpt>
      <trkpt lat="48.41751" lon="7.66491">
        <ele>173.60000610352</ele>
        <time>2019-09-08T12:17:48Z</time>
      </trkpt>
      <trkpt lat="48.41742" lon="7.66491">
        <ele>173.80000305176</ele>
        <time>2019-09-08T12:17:50Z</time>
      </trkpt>
      <trkpt lat="48.41728" lon="7.66497">
        <ele>173.80000305176</ele>
        <time>2019-09-08T12:17:53Z</time>
      </trkpt>
      <trkpt lat="48.41724" lon="7.66501">
        <ele>173.80000305176</ele>
        <time>2019-09-08T12:17:54Z</time>
      </trkpt>
      <trkpt lat="48.41702" lon="7.6652">
        <ele>174.60000610352</ele>
        <time>2019-09-08T12:18:00Z</time>
      </trkpt>
      <trkpt lat="48.41679" lon="7.66545">
        <ele>175</ele>
        <time>2019-09-08T12:18:07Z</time>
      </trkpt>
      <trkpt lat="48.41679" lon="7.6655">
        <ele>175.19999694824</ele>
        <time>2019-09-08T12:18:08Z</time>
      </trkpt>
      <trkpt lat="48.41678" lon="7.66559">
        <ele>175.60000610352</ele>
        <time>2019-09-08T12:18:11Z</time>
      </trkpt>
      <trkpt lat="48.41678" lon="7.66559">
        <ele>175.60000610352</ele>
        <time>2019-09-08T12:18:13Z</time>
      </trkpt>
      <trkpt lat="48.41676" lon="7.66559">
        <ele>176</ele>
        <time>2019-09-08T12:18:55Z</time>
      </trkpt>
      <trkpt lat="48.41674" lon="7.66557">
        <ele>176</ele>
        <time>2019-09-08T12:18:56Z</time>
      </trkpt>
      <trkpt lat="48.41672" lon="7.66556">
        <ele>176</ele>
        <time>2019-09-08T12:18:57Z</time>
      </trkpt>
      <trkpt lat="48.41666" lon="7.66558">
        <ele>176</ele>
        <time>2019-09-08T12:18:59Z</time>
      </trkpt>
      <trkpt lat="48.4166" lon="7.66563">
        <ele>176</ele>
        <time>2019-09-08T12:19:01Z</time>
      </trkpt>
      <trkpt lat="48.41646" lon="7.66578">
        <ele>176</ele>
        <time>2019-09-08T12:19:05Z</time>
      </trkpt>
      <trkpt lat="48.41634" lon="7.66588">
        <ele>175.80000305176</ele>
        <time>2019-09-08T12:19:08Z</time>
      </trkpt>
      <trkpt lat="48.41625" lon="7.66591">
        <ele>175.80000305176</ele>
        <time>2019-09-08T12:19:10Z</time>
      </trkpt>
      <trkpt lat="48.41598" lon="7.66595">
        <ele>175.39999389648</ele>
        <time>2019-09-08T12:19:16Z</time>
      </trkpt>
      <trkpt lat="48.41593" lon="7.66596">
        <ele>175.19999694824</ele>
        <time>2019-09-08T12:19:17Z</time>
      </trkpt>
      <trkpt lat="48.41583" lon="7.66598">
        <ele>175.19999694824</ele>
        <time>2019-09-08T12:19:19Z</time>
      </trkpt>
      <trkpt lat="48.41574" lon="7.66599">
        <ele>175</ele>
        <time>2019-09-08T12:19:21Z</time>
      </trkpt>
      <trkpt lat="48.4155" lon="7.666">
        <ele>174.60000610352</ele>
        <time>2019-09-08T12:19:26Z</time>
      </trkpt>
      <trkpt lat="48.4154" lon="7.66601">
        <ele>174.60000610352</ele>
        <time>2019-09-08T12:19:28Z</time>
      </trkpt>
      <trkpt lat="48.4153" lon="7.66601">
        <ele>174.60000610352</ele>
        <time>2019-09-08T12:19:30Z</time>
      </trkpt>
      <trkpt lat="48.41505" lon="7.66603">
        <ele>174.60000610352</ele>
        <time>2019-09-08T12:19:35Z</time>
      </trkpt>
      <trkpt lat="48.41481" lon="7.66607">
        <ele>174.60000610352</ele>
        <time>2019-09-08T12:19:40Z</time>
      </trkpt>
      <trkpt lat="48.41465" lon="7.6661">
        <ele>174.39999389648</ele>
        <time>2019-09-08T12:19:44Z</time>
      </trkpt>
      <trkpt lat="48.41462" lon="7.66613">
        <ele>174.39999389648</ele>
        <time>2019-09-08T12:19:45Z</time>
      </trkpt>
      <trkpt lat="48.41451" lon="7.66628">
        <ele>174.39999389648</ele>
        <time>2019-09-08T12:19:49Z</time>
      </trkpt>
      <trkpt lat="48.41448" lon="7.66631">
        <ele>174.19999694824</ele>
        <time>2019-09-08T12:19:50Z</time>
      </trkpt>
      <trkpt lat="48.41432" lon="7.66651">
        <ele>174.19999694824</ele>
        <time>2019-09-08T12:19:55Z</time>
      </trkpt>
      <trkpt lat="48.41429" lon="7.66656">
        <ele>174.19999694824</ele>
        <time>2019-09-08T12:19:56Z</time>
      </trkpt>
      <trkpt lat="48.41403" lon="7.667">
        <ele>174.60000610352</ele>
        <time>2019-09-08T12:20:05Z</time>
      </trkpt>
      <trkpt lat="48.41388" lon="7.66728">
        <ele>174.80000305176</ele>
        <time>2019-09-08T12:20:11Z</time>
      </trkpt>
      <trkpt lat="48.4137" lon="7.66757">
        <ele>174.60000610352</ele>
        <time>2019-09-08T12:20:17Z</time>
      </trkpt>
      <trkpt lat="48.41366" lon="7.66759">
        <ele>174.60000610352</ele>
        <time>2019-09-08T12:20:18Z</time>
      </trkpt>
      <trkpt lat="48.41355" lon="7.66772">
        <ele>174.60000610352</ele>
        <time>2019-09-08T12:20:22Z</time>
      </trkpt>
      <trkpt lat="48.4135" lon="7.66782">
        <ele>174.60000610352</ele>
        <time>2019-09-08T12:20:24Z</time>
      </trkpt>
      <trkpt lat="48.41349" lon="7.66793">
        <ele>174.60000610352</ele>
        <time>2019-09-08T12:20:26Z</time>
      </trkpt>
      <trkpt lat="48.41345" lon="7.66819">
        <ele>174.39999389648</ele>
        <time>2019-09-08T12:20:31Z</time>
      </trkpt>
      <trkpt lat="48.41351" lon="7.66837">
        <ele>174.39999389648</ele>
        <time>2019-09-08T12:20:34Z</time>
      </trkpt>
      <trkpt lat="48.41354" lon="7.66843">
        <ele>174.19999694824</ele>
        <time>2019-09-08T12:20:35Z</time>
      </trkpt>
      <trkpt lat="48.41361" lon="7.66854">
        <ele>174.19999694824</ele>
        <time>2019-09-08T12:20:37Z</time>
      </trkpt>
      <trkpt lat="48.4137" lon="7.66871">
        <ele>174.19999694824</ele>
        <time>2019-09-08T12:20:40Z</time>
      </trkpt>
      <trkpt lat="48.41396" lon="7.66913">
        <ele>173.80000305176</ele>
        <time>2019-09-08T12:20:48Z</time>
      </trkpt>
      <trkpt lat="48.41412" lon="7.66939">
        <ele>173.80000305176</ele>
        <time>2019-09-08T12:20:53Z</time>
      </trkpt>
      <trkpt lat="48.41418" lon="7.66948">
        <ele>173.60000610352</ele>
        <time>2019-09-08T12:20:55Z</time>
      </trkpt>
      <trkpt lat="48.4142" lon="7.66963">
        <ele>173.80000305176</ele>
        <time>2019-09-08T12:20:58Z</time>
      </trkpt>
      <trkpt lat="48.41416" lon="7.66973">
        <ele>173.80000305176</ele>
        <time>2019-09-08T12:21:00Z</time>
      </trkpt>
      <trkpt lat="48.41411" lon="7.66983">
        <ele>173.60000610352</ele>
        <time>2019-09-08T12:21:02Z</time>
      </trkpt>
      <trkpt lat="48.41409" lon="7.66987">
        <ele>173.60000610352</ele>
        <time>2019-09-08T12:21:03Z</time>
      </trkpt>
      <trkpt lat="48.41399" lon="7.67015">
        <ele>173</ele>
        <time>2019-09-08T12:21:09Z</time>
      </trkpt>
      <trkpt lat="48.41394" lon="7.67031">
        <ele>172.80000305176</ele>
        <time>2019-09-08T12:21:13Z</time>
      </trkpt>
      <trkpt lat="48.41388" lon="7.67036">
        <ele>172.60000610352</ele>
        <time>2019-09-08T12:21:16Z</time>
      </trkpt>
      <trkpt lat="48.41384" lon="7.67039">
        <ele>172.60000610352</ele>
        <time>2019-09-08T12:21:18Z</time>
      </trkpt>
      <trkpt lat="48.41381" lon="7.67043">
        <ele>172.60000610352</ele>
        <time>2019-09-08T12:21:22Z</time>
      </trkpt>
      <trkpt lat="48.41446" lon="7.67099">
        <ele>179.39999389648</ele>
        <time>2019-09-09T07:12:31Z</time>
      </trkpt>
      <trkpt lat="48.41428" lon="7.67075">
        <ele>179.39999389648</ele>
        <time>2019-09-09T07:12:38Z</time>
      </trkpt>
      <trkpt lat="48.41422" lon="7.67065">
        <ele>179.39999389648</ele>
        <time>2019-09-09T07:12:41Z</time>
      </trkpt>
      <trkpt lat="48.41419" lon="7.67065">
        <ele>179.19999694824</ele>
        <time>2019-09-09T07:12:42Z</time>
      </trkpt>
      <trkpt lat="48.41409" lon="7.67078">
        <ele>179.19999694824</ele>
        <time>2019-09-09T07:12:46Z</time>
      </trkpt>
      <trkpt lat="48.41408" lon="7.67083">
        <ele>179.19999694824</ele>
        <time>2019-09-09T07:12:47Z</time>
      </trkpt>
      <trkpt lat="48.414" lon="7.67099">
        <ele>179.39999389648</ele>
        <time>2019-09-09T07:12:52Z</time>
      </trkpt>
      <trkpt lat="48.41386" lon="7.67103">
        <ele>179.39999389648</ele>
        <time>2019-09-09T07:12:56Z</time>
      </trkpt>
      <trkpt lat="48.41377" lon="7.67095">
        <ele>179.39999389648</ele>
        <time>2019-09-09T07:12:59Z</time>
      </trkpt>
      <trkpt lat="48.41376" lon="7.67072">
        <ele>179.60000610352</ele>
        <time>2019-09-09T07:13:03Z</time>
      </trkpt>
      <trkpt lat="48.41382" lon="7.67056">
        <ele>179.60000610352</ele>
        <time>2019-09-09T07:13:06Z</time>
      </trkpt>
      <trkpt lat="48.41387" lon="7.67043">
        <ele>179.39999389648</ele>
        <time>2019-09-09T07:13:09Z</time>
      </trkpt>
      <trkpt lat="48.414" lon="7.67024">
        <ele>179.39999389648</ele>
        <time>2019-09-09T07:13:14Z</time>
      </trkpt>
      <trkpt lat="48.41414" lon="7.66992">
        <ele>179.39999389648</ele>
        <time>2019-09-09T07:13:20Z</time>
      </trkpt>
      <trkpt lat="48.41423" lon="7.66971">
        <ele>179.39999389648</ele>
        <time>2019-09-09T07:13:24Z</time>
      </trkpt>
      <trkpt lat="48.41427" lon="7.66962">
        <ele>179.39999389648</ele>
        <time>2019-09-09T07:13:26Z</time>
      </trkpt>
      <trkpt lat="48.41431" lon="7.66949">
        <ele>179.39999389648</ele>
        <time>2019-09-09T07:13:30Z</time>
      </trkpt>
      <trkpt lat="48.41424" lon="7.66932">
        <ele>179.60000610352</ele>
        <time>2019-09-09T07:13:34Z</time>
      </trkpt>
      <trkpt lat="48.41402" lon="7.66897">
        <ele>180</ele>
        <time>2019-09-09T07:13:42Z</time>
      </trkpt>
      <trkpt lat="48.41384" lon="7.66867">
        <ele>180.19999694824</ele>
        <time>2019-09-09T07:13:48Z</time>
      </trkpt>
      <trkpt lat="48.41372" lon="7.66847">
        <ele>180.39999389648</ele>
        <time>2019-09-09T07:13:52Z</time>
      </trkpt>
      <trkpt lat="48.41357" lon="7.66831">
        <ele>180.39999389648</ele>
        <time>2019-09-09T07:13:56Z</time>
      </trkpt>
      <trkpt lat="48.41354" lon="7.66827">
        <ele>180.39999389648</ele>
        <time>2019-09-09T07:13:57Z</time>
      </trkpt>
      <trkpt lat="48.41353" lon="7.66817">
        <ele>180.39999389648</ele>
        <time>2019-09-09T07:13:59Z</time>
      </trkpt>
      <trkpt lat="48.41357" lon="7.66809">
        <ele>180.60000610352</ele>
        <time>2019-09-09T07:14:01Z</time>
      </trkpt>
      <trkpt lat="48.41363" lon="7.668">
        <ele>180.60000610352</ele>
        <time>2019-09-09T07:14:03Z</time>
      </trkpt>
      <trkpt lat="48.41365" lon="7.66795">
        <ele>180.60000610352</ele>
        <time>2019-09-09T07:14:04Z</time>
      </trkpt>
      <trkpt lat="48.41371" lon="7.66787">
        <ele>180.60000610352</ele>
        <time>2019-09-09T07:14:06Z</time>
      </trkpt>
      <trkpt lat="48.4138" lon="7.66773">
        <ele>180.80000305176</ele>
        <time>2019-09-09T07:14:09Z</time>
      </trkpt>
      <trkpt lat="48.41401" lon="7.66743">
        <ele>181</ele>
        <time>2019-09-09T07:14:16Z</time>
      </trkpt>
      <trkpt lat="48.41403" lon="7.66738">
        <ele>181</ele>
        <time>2019-09-09T07:14:17Z</time>
      </trkpt>
      <trkpt lat="48.41406" lon="7.66732">
        <ele>181</ele>
        <time>2019-09-09T07:14:18Z</time>
      </trkpt>
      <trkpt lat="48.41415" lon="7.6671">
        <ele>181.19999694824</ele>
        <time>2019-09-09T07:14:22Z</time>
      </trkpt>
      <trkpt lat="48.41418" lon="7.66704">
        <ele>181.19999694824</ele>
        <time>2019-09-09T07:14:23Z</time>
      </trkpt>
      <trkpt lat="48.41431" lon="7.66688">
        <ele>181</ele>
        <time>2019-09-09T07:14:27Z</time>
      </trkpt>
      <trkpt lat="48.41439" lon="7.6668">
        <ele>181</ele>
        <time>2019-09-09T07:14:29Z</time>
      </trkpt>
      <trkpt lat="48.41446" lon="7.66672">
        <ele>181.19999694824</ele>
        <time>2019-09-09T07:14:31Z</time>
      </trkpt>
      <trkpt lat="48.41457" lon="7.66659">
        <ele>181.19999694824</ele>
        <time>2019-09-09T07:14:34Z</time>
      </trkpt>
      <trkpt lat="48.41461" lon="7.66655">
        <ele>181.19999694824</ele>
        <time>2019-09-09T07:14:35Z</time>
      </trkpt>
      <trkpt lat="48.41465" lon="7.66652">
        <ele>181</ele>
        <time>2019-09-09T07:14:36Z</time>
      </trkpt>
      <trkpt lat="48.41483" lon="7.66645">
        <ele>180.80000305176</ele>
        <time>2019-09-09T07:14:40Z</time>
      </trkpt>
      <trkpt lat="48.41492" lon="7.66641">
        <ele>180.60000610352</ele>
        <time>2019-09-09T07:14:42Z</time>
      </trkpt>
      <trkpt lat="48.41509" lon="7.66637">
        <ele>180.39999389648</ele>
        <time>2019-09-09T07:14:46Z</time>
      </trkpt>
      <trkpt lat="48.41529" lon="7.6663">
        <ele>180.60000610352</ele>
        <time>2019-09-09T07:14:51Z</time>
      </trkpt>
      <trkpt lat="48.41538" lon="7.66627">
        <ele>180.60000610352</ele>
        <time>2019-09-09T07:14:53Z</time>
      </trkpt>
      <trkpt lat="48.41547" lon="7.66626">
        <ele>180.60000610352</ele>
        <time>2019-09-09T07:14:55Z</time>
      </trkpt>
      <trkpt lat="48.41571" lon="7.66625">
        <ele>180.80000305176</ele>
        <time>2019-09-09T07:15:00Z</time>
      </trkpt>
      <trkpt lat="48.41622" lon="7.66617">
        <ele>181</ele>
        <time>2019-09-09T07:15:11Z</time>
      </trkpt>
      <trkpt lat="48.4163" lon="7.66612">
        <ele>181</ele>
        <time>2019-09-09T07:15:13Z</time>
      </trkpt>
      <trkpt lat="48.41642" lon="7.66602">
        <ele>181</ele>
        <time>2019-09-09T07:15:16Z</time>
      </trkpt>
      <trkpt lat="48.41649" lon="7.66594">
        <ele>181</ele>
        <time>2019-09-09T07:15:18Z</time>
      </trkpt>
      <trkpt lat="48.41663" lon="7.66581">
        <ele>181.39999389648</ele>
        <time>2019-09-09T07:15:22Z</time>
      </trkpt>
      <trkpt lat="48.41686" lon="7.66558">
        <ele>182</ele>
        <time>2019-09-09T07:15:28Z</time>
      </trkpt>
      <trkpt lat="48.41711" lon="7.66531">
        <ele>182</ele>
        <time>2019-09-09T07:15:34Z</time>
      </trkpt>
      <trkpt lat="48.41716" lon="7.66527">
        <ele>182</ele>
        <time>2019-09-09T07:15:35Z</time>
      </trkpt>
      <trkpt lat="48.41734" lon="7.66518">
        <ele>182</ele>
        <time>2019-09-09T07:15:38Z</time>
      </trkpt>
      <trkpt lat="48.41745" lon="7.66515">
        <ele>181.80000305176</ele>
        <time>2019-09-09T07:15:40Z</time>
      </trkpt>
      <trkpt lat="48.41779" lon="7.6651">
        <ele>180.80000305176</ele>
        <time>2019-09-09T07:15:46Z</time>
      </trkpt>
      <trkpt lat="48.41784" lon="7.66507">
        <ele>180.60000610352</ele>
        <time>2019-09-09T07:15:47Z</time>
      </trkpt>
      <trkpt lat="48.41804" lon="7.66496">
        <ele>180.39999389648</ele>
        <time>2019-09-09T07:15:51Z</time>
      </trkpt>
      <trkpt lat="48.41817" lon="7.66485">
        <ele>180.19999694824</ele>
        <time>2019-09-09T07:15:54Z</time>
      </trkpt>
      <trkpt lat="48.41826" lon="7.66476">
        <ele>180.19999694824</ele>
        <time>2019-09-09T07:15:56Z</time>
      </trkpt>
      <trkpt lat="48.4183" lon="7.66472">
        <ele>180.19999694824</ele>
        <time>2019-09-09T07:15:57Z</time>
      </trkpt>
      <trkpt lat="48.41865" lon="7.66439">
        <ele>180</ele>
        <time>2019-09-09T07:16:05Z</time>
      </trkpt>
      <trkpt lat="48.41888" lon="7.66419">
        <ele>180</ele>
        <time>2019-09-09T07:16:10Z</time>
      </trkpt>
      <trkpt lat="48.41899" lon="7.66417">
        <ele>180</ele>
        <time>2019-09-09T07:16:12Z</time>
      </trkpt>
      <trkpt lat="48.41911" lon="7.6643">
        <ele>180</ele>
        <time>2019-09-09T07:16:15Z</time>
      </trkpt>
      <trkpt lat="48.41925" lon="7.66434">
        <ele>180</ele>
        <time>2019-09-09T07:16:18Z</time>
      </trkpt>
      <trkpt lat="48.41936" lon="7.66422">
        <ele>180.19999694824</ele>
        <time>2019-09-09T07:16:21Z</time>
      </trkpt>
      <trkpt lat="48.41945" lon="7.66414">
        <ele>180.39999389648</ele>
        <time>2019-09-09T07:16:25Z</time>
      </trkpt>
      <trkpt lat="48.41946" lon="7.66413">
        <ele>180.39999389648</ele>
        <time>2019-09-09T07:16:26Z</time>
      </trkpt>
      <trkpt lat="48.41956" lon="7.66413">
        <ele>180.39999389648</ele>
        <time>2019-09-09T07:16:31Z</time>
      </trkpt>
      <trkpt lat="48.41959" lon="7.66413">
        <ele>180.39999389648</ele>
        <time>2019-09-09T07:16:32Z</time>
      </trkpt>
      <trkpt lat="48.4197" lon="7.66413">
        <ele>180.39999389648</ele>
        <time>2019-09-09T07:16:35Z</time>
      </trkpt>
      <trkpt lat="48.41974" lon="7.66414">
        <ele>180.39999389648</ele>
        <time>2019-09-09T07:16:36Z</time>
      </trkpt>
      <trkpt lat="48.41982" lon="7.66418">
        <ele>180.39999389648</ele>
        <time>2019-09-09T07:16:38Z</time>
      </trkpt>
      <trkpt lat="48.41987" lon="7.66419">
        <ele>180.19999694824</ele>
        <time>2019-09-09T07:16:39Z</time>
      </trkpt>
      <trkpt lat="48.42019" lon="7.66422">
        <ele>180.39999389648</ele>
        <time>2019-09-09T07:16:46Z</time>
      </trkpt>
      <trkpt lat="48.42037" lon="7.66423">
        <ele>180.19999694824</ele>
        <time>2019-09-09T07:16:50Z</time>
      </trkpt>
      <trkpt lat="48.42046" lon="7.6642">
        <ele>180.19999694824</ele>
        <time>2019-09-09T07:16:52Z</time>
      </trkpt>
      <trkpt lat="48.42055" lon="7.66414">
        <ele>180.19999694824</ele>
        <time>2019-09-09T07:16:54Z</time>
      </trkpt>
      <trkpt lat="48.42064" lon="7.66407">
        <ele>180.19999694824</ele>
        <time>2019-09-09T07:16:56Z</time>
      </trkpt>
      <trkpt lat="48.42067" lon="7.66403">
        <ele>180.19999694824</ele>
        <time>2019-09-09T07:16:57Z</time>
      </trkpt>
      <trkpt lat="48.42087" lon="7.66364">
        <ele>180.60000610352</ele>
        <time>2019-09-09T07:17:04Z</time>
      </trkpt>
      <trkpt lat="48.42107" lon="7.66316">
        <ele>181</ele>
        <time>2019-09-09T07:17:12Z</time>
      </trkpt>
      <trkpt lat="48.42128" lon="7.66272">
        <ele>181.39999389648</ele>
        <time>2019-09-09T07:17:20Z</time>
      </trkpt>
      <trkpt lat="48.42143" lon="7.66241">
        <ele>181.80000305176</ele>
        <time>2019-09-09T07:17:26Z</time>
      </trkpt>
      <trkpt lat="48.42149" lon="7.66231">
        <ele>181.80000305176</ele>
        <time>2019-09-09T07:17:28Z</time>
      </trkpt>
      <trkpt lat="48.42157" lon="7.66228">
        <ele>182</ele>
        <time>2019-09-09T07:17:30Z</time>
      </trkpt>
      <trkpt lat="48.42161" lon="7.66227">
        <ele>182</ele>
        <time>2019-09-09T07:17:31Z</time>
      </trkpt>
      <trkpt lat="48.42184" lon="7.66215">
        <ele>182</ele>
        <time>2019-09-09T07:17:37Z</time>
      </trkpt>
      <trkpt lat="48.42204" lon="7.66199">
        <ele>182.60000610352</ele>
        <time>2019-09-09T07:17:43Z</time>
      </trkpt>
      <trkpt lat="48.42224" lon="7.66201">
        <ele>182.80000305176</ele>
        <time>2019-09-09T07:17:48Z</time>
      </trkpt>
      <trkpt lat="48.42254" lon="7.662">
        <ele>183.19999694824</ele>
        <time>2019-09-09T07:17:55Z</time>
      </trkpt>
      <trkpt lat="48.42266" lon="7.662">
        <ele>183.19999694824</ele>
        <time>2019-09-09T07:17:59Z</time>
      </trkpt>
      <trkpt lat="48.42269" lon="7.66204">
        <ele>183.19999694824</ele>
        <time>2019-09-09T07:18:00Z</time>
      </trkpt>
      <trkpt lat="48.42271" lon="7.6623">
        <ele>183</ele>
        <time>2019-09-09T07:18:04Z</time>
      </trkpt>
      <trkpt lat="48.42271" lon="7.66236">
        <ele>183.19999694824</ele>
        <time>2019-09-09T07:18:05Z</time>
      </trkpt>
      <trkpt lat="48.4227" lon="7.66266">
        <ele>183.19999694824</ele>
        <time>2019-09-09T07:18:10Z</time>
      </trkpt>
      <trkpt lat="48.42271" lon="7.66277">
        <ele>183.19999694824</ele>
        <time>2019-09-09T07:18:12Z</time>
      </trkpt>
      <trkpt lat="48.42276" lon="7.66283">
        <ele>183.19999694824</ele>
        <time>2019-09-09T07:18:15Z</time>
      </trkpt>
      <trkpt lat="48.42283" lon="7.66285">
        <ele>183.19999694824</ele>
        <time>2019-09-09T07:18:20Z</time>
      </trkpt>
      <trkpt lat="48.42291" lon="7.66291">
        <ele>183.80000305176</ele>
        <time>2019-09-09T07:18:26Z</time>
      </trkpt>
      <trkpt lat="48.42289" lon="7.66291">
        <ele>184</ele>
        <time>2019-09-09T07:18:31Z</time>
      </trkpt>
      <trkpt lat="48.4229" lon="7.66289">
        <ele>184.19999694824</ele>
        <time>2019-09-09T07:18:35Z</time>
      </trkpt>
      <trkpt lat="48.42291" lon="7.66282">
        <ele>184.39999389648</ele>
        <time>2019-09-09T07:18:39Z</time>
      </trkpt>
      <trkpt lat="48.42292" lon="7.6628">
        <ele>184.39999389648</ele>
        <time>2019-09-09T07:18:40Z</time>
      </trkpt>
      <trkpt lat="48.42293" lon="7.66279">
        <ele>184.39999389648</ele>
        <time>2019-09-09T07:18:43Z</time>
      </trkpt>
      <trkpt lat="48.42304" lon="7.66288">
        <ele>184.39999389648</ele>
        <time>2019-09-09T07:19:17Z</time>
      </trkpt>
      <trkpt lat="48.42305" lon="7.66288">
        <ele>184.39999389648</ele>
        <time>2019-09-09T07:19:18Z</time>
      </trkpt>
      <trkpt lat="48.42316" lon="7.66287">
        <ele>184.19999694824</ele>
        <time>2019-09-09T07:19:35Z</time>
      </trkpt>
      <trkpt lat="48.42312" lon="7.66287">
        <ele>184</ele>
        <time>2019-09-09T07:19:41Z</time>
      </trkpt>
      <trkpt lat="48.42289" lon="7.66281">
        <ele>184.19999694824</ele>
        <time>2019-09-09T07:19:50Z</time>
      </trkpt>
      <trkpt lat="48.42286" lon="7.66281">
        <ele>184</ele>
        <time>2019-09-09T07:19:53Z</time>
      </trkpt>
      <trkpt lat="48.42283" lon="7.66283">
        <ele>184.19999694824</ele>
        <time>2019-09-09T07:20:03Z</time>
      </trkpt>
      <trkpt lat="48.42313" lon="7.66305">
        <ele>184.60000610352</ele>
        <time>2019-09-09T07:20:41Z</time>
      </trkpt>
      <trkpt lat="48.42314" lon="7.66305">
        <ele>184.60000610352</ele>
        <time>2019-09-09T07:20:43Z</time>
      </trkpt>
      <trkpt lat="48.42315" lon="7.66302">
        <ele>184.39999389648</ele>
        <time>2019-09-09T07:20:51Z</time>
      </trkpt>
      <trkpt lat="48.42307" lon="7.66264">
        <ele>184.60000610352</ele>
        <time>2019-09-09T07:23:31Z</time>
      </trkpt>
      <trkpt lat="48.42307" lon="7.66262">
        <ele>184.60000610352</ele>
        <time>2019-09-09T07:23:34Z</time>
      </trkpt>
      <trkpt lat="48.42311" lon="7.66269">
        <ele>184.39999389648</ele>
        <time>2019-09-09T07:23:39Z</time>
      </trkpt>
      <trkpt lat="48.4231" lon="7.66285">
        <ele>184</ele>
        <time>2019-09-09T07:25:27Z</time>
      </trkpt>
      <trkpt lat="48.4231" lon="7.66289">
        <ele>184</ele>
        <time>2019-09-09T07:25:29Z</time>
      </trkpt>
      <trkpt lat="48.42308" lon="7.66299">
        <ele>184</ele>
        <time>2019-09-09T07:25:35Z</time>
      </trkpt>
      <trkpt lat="48.42291" lon="7.6629">
        <ele>184</ele>
        <time>2019-09-09T07:25:39Z</time>
      </trkpt>
      <trkpt lat="48.42275" lon="7.66287">
        <ele>184</ele>
        <time>2019-09-09T07:25:44Z</time>
      </trkpt>
      <trkpt lat="48.42274" lon="7.66273">
        <ele>183.80000305176</ele>
        <time>2019-09-09T07:25:49Z</time>
      </trkpt>
      <trkpt lat="48.42272" lon="7.66245">
        <ele>183.39999389648</ele>
        <time>2019-09-09T07:25:55Z</time>
      </trkpt>
      <trkpt lat="48.42271" lon="7.66217">
        <ele>183.39999389648</ele>
        <time>2019-09-09T07:26:01Z</time>
      </trkpt>
      <trkpt lat="48.42268" lon="7.66209">
        <ele>183.19999694824</ele>
        <time>2019-09-09T07:26:04Z</time>
      </trkpt>
      <trkpt lat="48.42264" lon="7.66206">
        <ele>183</ele>
        <time>2019-09-09T07:26:06Z</time>
      </trkpt>
      <trkpt lat="48.42248" lon="7.66208">
        <ele>183</ele>
        <time>2019-09-09T07:26:11Z</time>
      </trkpt>
      <trkpt lat="48.42236" lon="7.66207">
        <ele>183</ele>
        <time>2019-09-09T07:26:14Z</time>
      </trkpt>
      <trkpt lat="48.42221" lon="7.66206">
        <ele>183</ele>
        <time>2019-09-09T07:26:18Z</time>
      </trkpt>
      <trkpt lat="48.42195" lon="7.66209">
        <ele>183.19999694824</ele>
        <time>2019-09-09T07:26:25Z</time>
      </trkpt>
      <trkpt lat="48.42188" lon="7.66213">
        <ele>183.19999694824</ele>
        <time>2019-09-09T07:26:27Z</time>
      </trkpt>
      <trkpt lat="48.42176" lon="7.66222">
        <ele>183.19999694824</ele>
        <time>2019-09-09T07:26:30Z</time>
      </trkpt>
      <trkpt lat="48.42167" lon="7.66225">
        <ele>183.19999694824</ele>
        <time>2019-09-09T07:26:32Z</time>
      </trkpt>
      <trkpt lat="48.42151" lon="7.66231">
        <ele>183</ele>
        <time>2019-09-09T07:26:36Z</time>
      </trkpt>
      <trkpt lat="48.42143" lon="7.66237">
        <ele>182.80000305176</ele>
        <time>2019-09-09T07:26:38Z</time>
      </trkpt>
      <trkpt lat="48.42137" lon="7.66246">
        <ele>182.80000305176</ele>
        <time>2019-09-09T07:26:40Z</time>
      </trkpt>
      <trkpt lat="48.4213" lon="7.66263">
        <ele>182.60000610352</ele>
        <time>2019-09-09T07:26:43Z</time>
      </trkpt>
      <trkpt lat="48.42124" lon="7.66275">
        <ele>182.60000610352</ele>
        <time>2019-09-09T07:26:45Z</time>
      </trkpt>
      <trkpt lat="48.42108" lon="7.66309">
        <ele>182.39999389648</ele>
        <time>2019-09-09T07:26:51Z</time>
      </trkpt>
      <trkpt lat="48.42096" lon="7.66332">
        <ele>182</ele>
        <time>2019-09-09T07:26:55Z</time>
      </trkpt>
      <trkpt lat="48.42086" lon="7.6635">
        <ele>181.80000305176</ele>
        <time>2019-09-09T07:26:58Z</time>
      </trkpt>
      <trkpt lat="48.42076" lon="7.66368">
        <ele>181.60000610352</ele>
        <time>2019-09-09T07:27:01Z</time>
      </trkpt>
      <trkpt lat="48.4207" lon="7.66379">
        <ele>181.60000610352</ele>
        <time>2019-09-09T07:27:03Z</time>
      </trkpt>
      <trkpt lat="48.42056" lon="7.66401">
        <ele>181.39999389648</ele>
        <time>2019-09-09T07:27:08Z</time>
      </trkpt>
      <trkpt lat="48.42055" lon="7.664">
        <ele>181.19999694824</ele>
        <time>2019-09-09T07:27:11Z</time>
      </trkpt>
      <trkpt lat="48.42055" lon="7.66399">
        <ele>181.19999694824</ele>
        <time>2019-09-09T07:27:12Z</time>
      </trkpt>
      <trkpt lat="48.42054" lon="7.664">
        <ele>181.19999694824</ele>
        <time>2019-09-09T07:27:15Z</time>
      </trkpt>
      <trkpt lat="48.42048" lon="7.6641">
        <ele>181</ele>
        <time>2019-09-09T07:34:19Z</time>
      </trkpt>
      <trkpt lat="48.42045" lon="7.66412">
        <ele>181</ele>
        <time>2019-09-09T07:34:22Z</time>
      </trkpt>
      <trkpt lat="48.42043" lon="7.66417">
        <ele>181</ele>
        <time>2019-09-09T07:34:24Z</time>
      </trkpt>
      <trkpt lat="48.42031" lon="7.66423">
        <ele>181.19999694824</ele>
        <time>2019-09-09T07:34:28Z</time>
      </trkpt>
      <trkpt lat="48.42027" lon="7.66424">
        <ele>181.19999694824</ele>
        <time>2019-09-09T07:34:29Z</time>
      </trkpt>
      <trkpt lat="48.42005" lon="7.66423">
        <ele>181</ele>
        <time>2019-09-09T07:34:34Z</time>
      </trkpt>
      <trkpt lat="48.41964" lon="7.66418">
        <ele>180.80000305176</ele>
        <time>2019-09-09T07:34:43Z</time>
      </trkpt>
      <trkpt lat="48.41958" lon="7.66417">
        <ele>180.80000305176</ele>
        <time>2019-09-09T07:34:44Z</time>
      </trkpt>
      <trkpt lat="48.41939" lon="7.66414">
        <ele>180.80000305176</ele>
        <time>2019-09-09T07:34:48Z</time>
      </trkpt>
      <trkpt lat="48.41934" lon="7.66414">
        <ele>180.80000305176</ele>
        <time>2019-09-09T07:34:49Z</time>
      </trkpt>
      <trkpt lat="48.41929" lon="7.66412">
        <ele>180.80000305176</ele>
        <time>2019-09-09T07:34:50Z</time>
      </trkpt>
      <trkpt lat="48.41921" lon="7.66409">
        <ele>180.80000305176</ele>
        <time>2019-09-09T07:34:52Z</time>
      </trkpt>
      <trkpt lat="48.41917" lon="7.66409">
        <ele>180.80000305176</ele>
        <time>2019-09-09T07:34:53Z</time>
      </trkpt>
      <trkpt lat="48.41902" lon="7.66408">
        <ele>180.80000305176</ele>
        <time>2019-09-09T07:34:56Z</time>
      </trkpt>
      <trkpt lat="48.41897" lon="7.66408">
        <ele>180.80000305176</ele>
        <time>2019-09-09T07:34:57Z</time>
      </trkpt>
      <trkpt lat="48.41892" lon="7.66408">
        <ele>180.80000305176</ele>
        <time>2019-09-09T07:34:58Z</time>
      </trkpt>
      <trkpt lat="48.4188" lon="7.66416">
        <ele>180.80000305176</ele>
        <time>2019-09-09T07:35:01Z</time>
      </trkpt>
      <trkpt lat="48.41876" lon="7.66419">
        <ele>180.80000305176</ele>
        <time>2019-09-09T07:35:02Z</time>
      </trkpt>
      <trkpt lat="48.41865" lon="7.66431">
        <ele>180.80000305176</ele>
        <time>2019-09-09T07:35:05Z</time>
      </trkpt>
      <trkpt lat="48.41862" lon="7.66435">
        <ele>180.80000305176</ele>
        <time>2019-09-09T07:35:06Z</time>
      </trkpt>
      <trkpt lat="48.4184" lon="7.66456">
        <ele>180.80000305176</ele>
        <time>2019-09-09T07:35:11Z</time>
      </trkpt>
      <trkpt lat="48.41808" lon="7.66483">
        <ele>180.39999389648</ele>
        <time>2019-09-09T07:35:18Z</time>
      </trkpt>
      <trkpt lat="48.41803" lon="7.66486">
        <ele>180.39999389648</ele>
        <time>2019-09-09T07:35:19Z</time>
      </trkpt>
      <trkpt lat="48.41778" lon="7.66497">
        <ele>180.39999389648</ele>
        <time>2019-09-09T07:35:24Z</time>
      </trkpt>
      <trkpt lat="48.41774" lon="7.66498">
        <ele>180.39999389648</ele>
        <time>2019-09-09T07:35:25Z</time>
      </trkpt>
      <trkpt lat="48.41749" lon="7.66496">
        <ele>180.60000610352</ele>
        <time>2019-09-09T07:35:30Z</time>
      </trkpt>
      <trkpt lat="48.4174" lon="7.66496">
        <ele>180.60000610352</ele>
        <time>2019-09-09T07:35:32Z</time>
      </trkpt>
      <trkpt lat="48.41731" lon="7.665">
        <ele>180.60000610352</ele>
        <time>2019-09-09T07:35:34Z</time>
      </trkpt>
      <trkpt lat="48.41723" lon="7.66507">
        <ele>180.80000305176</ele>
        <time>2019-09-09T07:35:36Z</time>
      </trkpt>
      <trkpt lat="48.41719" lon="7.6651">
        <ele>181</ele>
        <time>2019-09-09T07:35:38Z</time>
      </trkpt>
      <trkpt lat="48.41708" lon="7.66515">
        <ele>181.39999389648</ele>
        <time>2019-09-09T07:35:44Z</time>
      </trkpt>
      <trkpt lat="48.41696" lon="7.66526">
        <ele>181.39999389648</ele>
        <time>2019-09-09T07:35:49Z</time>
      </trkpt>
      <trkpt lat="48.41674" lon="7.66549">
        <ele>182</ele>
        <time>2019-09-09T07:35:57Z</time>
      </trkpt>
      <trkpt lat="48.41668" lon="7.66555">
        <ele>182.39999389648</ele>
        <time>2019-09-09T07:35:59Z</time>
      </trkpt>
      <trkpt lat="48.41649" lon="7.66575">
        <ele>182.60000610352</ele>
        <time>2019-09-09T07:36:05Z</time>
      </trkpt>
      <trkpt lat="48.41634" lon="7.6659">
        <ele>182.60000610352</ele>
        <time>2019-09-09T07:36:09Z</time>
      </trkpt>
      <trkpt lat="48.41626" lon="7.66593">
        <ele>182.60000610352</ele>
        <time>2019-09-09T07:36:11Z</time>
      </trkpt>
      <trkpt lat="48.41617" lon="7.66596">
        <ele>182.60000610352</ele>
        <time>2019-09-09T07:36:13Z</time>
      </trkpt>
      <trkpt lat="48.41607" lon="7.66598">
        <ele>182.39999389648</ele>
        <time>2019-09-09T07:36:15Z</time>
      </trkpt>
      <trkpt lat="48.41598" lon="7.66599">
        <ele>182.19999694824</ele>
        <time>2019-09-09T07:36:17Z</time>
      </trkpt>
      <trkpt lat="48.41588" lon="7.666">
        <ele>182</ele>
        <time>2019-09-09T07:36:19Z</time>
      </trkpt>
      <trkpt lat="48.41578" lon="7.66602">
        <ele>181.80000305176</ele>
        <time>2019-09-09T07:36:21Z</time>
      </trkpt>
      <trkpt lat="48.41568" lon="7.66602">
        <ele>181.60000610352</ele>
        <time>2019-09-09T07:36:23Z</time>
      </trkpt>
      <trkpt lat="48.41534" lon="7.66603">
        <ele>181.39999389648</ele>
        <time>2019-09-09T07:36:30Z</time>
      </trkpt>
      <trkpt lat="48.41524" lon="7.66604">
        <ele>181.19999694824</ele>
        <time>2019-09-09T07:36:32Z</time>
      </trkpt>
      <trkpt lat="48.41499" lon="7.66605">
        <ele>181.19999694824</ele>
        <time>2019-09-09T07:36:37Z</time>
      </trkpt>
      <trkpt lat="48.41489" lon="7.66606">
        <ele>181.19999694824</ele>
        <time>2019-09-09T07:36:39Z</time>
      </trkpt>
      <trkpt lat="48.4147" lon="7.6661">
        <ele>181.19999694824</ele>
        <time>2019-09-09T07:36:43Z</time>
      </trkpt>
      <trkpt lat="48.41453" lon="7.66619">
        <ele>181.19999694824</ele>
        <time>2019-09-09T07:36:47Z</time>
      </trkpt>
      <trkpt lat="48.4145" lon="7.66623">
        <ele>181.19999694824</ele>
        <time>2019-09-09T07:36:48Z</time>
      </trkpt>
      <trkpt lat="48.41447" lon="7.66627">
        <ele>181.19999694824</ele>
        <time>2019-09-09T07:36:49Z</time>
      </trkpt>
      <trkpt lat="48.41433" lon="7.66644">
        <ele>181.19999694824</ele>
        <time>2019-09-09T07:36:53Z</time>
      </trkpt>
      <trkpt lat="48.41426" lon="7.66654">
        <ele>181.19999694824</ele>
        <time>2019-09-09T07:36:55Z</time>
      </trkpt>
      <trkpt lat="48.41413" lon="7.66675">
        <ele>181.19999694824</ele>
        <time>2019-09-09T07:36:59Z</time>
      </trkpt>
      <trkpt lat="48.4141" lon="7.6668">
        <ele>181.19999694824</ele>
        <time>2019-09-09T07:37:00Z</time>
      </trkpt>
      <trkpt lat="48.41401" lon="7.66697">
        <ele>181.39999389648</ele>
        <time>2019-09-09T07:37:03Z</time>
      </trkpt>
      <trkpt lat="48.41395" lon="7.66709">
        <ele>181.39999389648</ele>
        <time>2019-09-09T07:37:05Z</time>
      </trkpt>
      <trkpt lat="48.41373" lon="7.66751">
        <ele>181.39999389648</ele>
        <time>2019-09-09T07:37:12Z</time>
      </trkpt>
      <trkpt lat="48.41366" lon="7.66762">
        <ele>181.39999389648</ele>
        <time>2019-09-09T07:37:14Z</time>
      </trkpt>
      <trkpt lat="48.41355" lon="7.66776">
        <ele>181.39999389648</ele>
        <time>2019-09-09T07:37:17Z</time>
      </trkpt>
      <trkpt lat="48.41349" lon="7.66787">
        <ele>181.39999389648</ele>
        <time>2019-09-09T07:37:19Z</time>
      </trkpt>
      <trkpt lat="48.4134" lon="7.66806">
        <ele>181.60000610352</ele>
        <time>2019-09-09T07:37:22Z</time>
      </trkpt>
      <trkpt lat="48.4132" lon="7.66839">
        <ele>181.39999389648</ele>
        <time>2019-09-09T07:37:28Z</time>
      </trkpt>
      <trkpt lat="48.41307" lon="7.66863">
        <ele>181.39999389648</ele>
        <time>2019-09-09T07:37:32Z</time>
      </trkpt>
      <trkpt lat="48.41302" lon="7.66874">
        <ele>181.60000610352</ele>
        <time>2019-09-09T07:37:34Z</time>
      </trkpt>
      <trkpt lat="48.41292" lon="7.66895">
        <ele>181.60000610352</ele>
        <time>2019-09-09T07:37:38Z</time>
      </trkpt>
      <trkpt lat="48.41287" lon="7.66907">
        <ele>181.60000610352</ele>
        <time>2019-09-09T07:37:40Z</time>
      </trkpt>
      <trkpt lat="48.41281" lon="7.66931">
        <ele>181.80000305176</ele>
        <time>2019-09-09T07:37:44Z</time>
      </trkpt>
      <trkpt lat="48.41277" lon="7.66938">
        <ele>181.80000305176</ele>
        <time>2019-09-09T07:37:45Z</time>
      </trkpt>
      <trkpt lat="48.41274" lon="7.66944">
        <ele>181.80000305176</ele>
        <time>2019-09-09T07:37:46Z</time>
      </trkpt>
      <trkpt lat="48.41264" lon="7.66963">
        <ele>181.80000305176</ele>
        <time>2019-09-09T07:37:49Z</time>
      </trkpt>
      <trkpt lat="48.41234" lon="7.67022">
        <ele>181.60000610352</ele>
        <time>2019-09-09T07:37:58Z</time>
      </trkpt>
      <trkpt lat="48.41207" lon="7.67079">
        <ele>181.80000305176</ele>
        <time>2019-09-09T07:38:07Z</time>
      </trkpt>
      <trkpt lat="48.412" lon="7.6709">
        <ele>181.80000305176</ele>
        <time>2019-09-09T07:38:09Z</time>
      </trkpt>
      <trkpt lat="48.41185" lon="7.67109">
        <ele>182</ele>
        <time>2019-09-09T07:38:13Z</time>
      </trkpt>
      <trkpt lat="48.41181" lon="7.67112">
        <ele>182.19999694824</ele>
        <time>2019-09-09T07:38:14Z</time>
      </trkpt>
      <trkpt lat="48.41176" lon="7.67115">
        <ele>182.19999694824</ele>
        <time>2019-09-09T07:38:16Z</time>
      </trkpt>
      <trkpt lat="48.41159" lon="7.67118">
        <ele>182.39999389648</ele>
        <time>2019-09-09T07:38:21Z</time>
      </trkpt>
      <trkpt lat="48.41155" lon="7.6712">
        <ele>182.39999389648</ele>
        <time>2019-09-09T07:38:22Z</time>
      </trkpt>
      <trkpt lat="48.41146" lon="7.67135">
        <ele>182.39999389648</ele>
        <time>2019-09-09T07:38:25Z</time>
      </trkpt>
      <trkpt lat="48.41145" lon="7.67164">
        <ele>182.60000610352</ele>
        <time>2019-09-09T07:38:29Z</time>
      </trkpt>
      <trkpt lat="48.41146" lon="7.67171">
        <ele>182.60000610352</ele>
        <time>2019-09-09T07:38:30Z</time>
      </trkpt>
      <trkpt lat="48.41148" lon="7.67186">
        <ele>182.39999389648</ele>
        <time>2019-09-09T07:38:32Z</time>
      </trkpt>
      <trkpt lat="48.41145" lon="7.67201">
        <ele>182.39999389648</ele>
        <time>2019-09-09T07:38:34Z</time>
      </trkpt>
      <trkpt lat="48.41136" lon="7.67251">
        <ele>182.60000610352</ele>
        <time>2019-09-09T07:38:41Z</time>
      </trkpt>
      <trkpt lat="48.41113" lon="7.67312">
        <ele>182.80000305176</ele>
        <time>2019-09-09T07:38:51Z</time>
      </trkpt>
      <trkpt lat="48.41104" lon="7.67335">
        <ele>183</ele>
        <time>2019-09-09T07:38:55Z</time>
      </trkpt>
      <trkpt lat="48.41097" lon="7.67353">
        <ele>183.19999694824</ele>
        <time>2019-09-09T07:38:58Z</time>
      </trkpt>
      <trkpt lat="48.41092" lon="7.67366">
        <ele>183.39999389648</ele>
        <time>2019-09-09T07:39:00Z</time>
      </trkpt>
      <trkpt lat="48.41084" lon="7.67385">
        <ele>183.60000610352</ele>
        <time>2019-09-09T07:39:03Z</time>
      </trkpt>
      <trkpt lat="48.4108" lon="7.67398">
        <ele>183.80000305176</ele>
        <time>2019-09-09T07:39:05Z</time>
      </trkpt>
      <trkpt lat="48.41059" lon="7.67454">
        <ele>183.80000305176</ele>
        <time>2019-09-09T07:39:13Z</time>
      </trkpt>
      <trkpt lat="48.41057" lon="7.67462">
        <ele>183.80000305176</ele>
        <time>2019-09-09T07:39:14Z</time>
      </trkpt>
      <trkpt lat="48.4105" lon="7.67495">
        <ele>183.60000610352</ele>
        <time>2019-09-09T07:39:18Z</time>
      </trkpt>
      <trkpt lat="48.41041" lon="7.67558">
        <ele>182.80000305176</ele>
        <time>2019-09-09T07:39:25Z</time>
      </trkpt>
      <trkpt lat="48.41038" lon="7.67585">
        <ele>182.60000610352</ele>
        <time>2019-09-09T07:39:28Z</time>
      </trkpt>
      <trkpt lat="48.41033" lon="7.67628">
        <ele>182.19999694824</ele>
        <time>2019-09-09T07:39:33Z</time>
      </trkpt>
      <trkpt lat="48.41026" lon="7.67715">
        <ele>182</ele>
        <time>2019-09-09T07:39:43Z</time>
      </trkpt>
      <trkpt lat="48.41025" lon="7.67723">
        <ele>182</ele>
        <time>2019-09-09T07:39:44Z</time>
      </trkpt>
      <trkpt lat="48.41023" lon="7.67758">
        <ele>181.80000305176</ele>
        <time>2019-09-09T07:39:48Z</time>
      </trkpt>
      <trkpt lat="48.4102" lon="7.67808">
        <ele>181.80000305176</ele>
        <time>2019-09-09T07:39:54Z</time>
      </trkpt>
      <trkpt lat="48.41015" lon="7.67893">
        <ele>181.60000610352</ele>
        <time>2019-09-09T07:40:04Z</time>
      </trkpt>
      <trkpt lat="48.41015" lon="7.67902">
        <ele>181.80000305176</ele>
        <time>2019-09-09T07:40:05Z</time>
      </trkpt>
      <trkpt lat="48.4101" lon="7.67978">
        <ele>181.60000610352</ele>
        <time>2019-09-09T07:40:14Z</time>
      </trkpt>
      <trkpt lat="48.41005" lon="7.68055">
        <ele>181.60000610352</ele>
        <time>2019-09-09T07:40:23Z</time>
      </trkpt>
      <trkpt lat="48.41" lon="7.68116">
        <ele>181.60000610352</ele>
        <time>2019-09-09T07:40:30Z</time>
      </trkpt>
      <trkpt lat="48.40999" lon="7.68124">
        <ele>181.60000610352</ele>
        <time>2019-09-09T07:40:31Z</time>
      </trkpt>
      <trkpt lat="48.40992" lon="7.68168">
        <ele>181.39999389648</ele>
        <time>2019-09-09T07:40:36Z</time>
      </trkpt>
      <trkpt lat="48.4099" lon="7.68176">
        <ele>181.60000610352</ele>
        <time>2019-09-09T07:40:37Z</time>
      </trkpt>
      <trkpt lat="48.40969" lon="7.6825">
        <ele>181.39999389648</ele>
        <time>2019-09-09T07:40:46Z</time>
      </trkpt>
      <trkpt lat="48.40951" lon="7.68314">
        <ele>181.39999389648</ele>
        <time>2019-09-09T07:40:54Z</time>
      </trkpt>
      <trkpt lat="48.40937" lon="7.68361">
        <ele>181.39999389648</ele>
        <time>2019-09-09T07:41:00Z</time>
      </trkpt>
      <trkpt lat="48.40924" lon="7.68416">
        <ele>181.60000610352</ele>
        <time>2019-09-09T07:41:07Z</time>
      </trkpt>
      <trkpt lat="48.40915" lon="7.68459">
        <ele>181.60000610352</ele>
        <time>2019-09-09T07:41:12Z</time>
      </trkpt>
      <trkpt lat="48.40913" lon="7.68476">
        <ele>181.60000610352</ele>
        <time>2019-09-09T07:41:14Z</time>
      </trkpt>
      <trkpt lat="48.40903" lon="7.68536">
        <ele>181.19999694824</ele>
        <time>2019-09-09T07:41:21Z</time>
      </trkpt>
      <trkpt lat="48.40884" lon="7.68604">
        <ele>181.19999694824</ele>
        <time>2019-09-09T07:41:29Z</time>
      </trkpt>
      <trkpt lat="48.40868" lon="7.6868">
        <ele>181.19999694824</ele>
        <time>2019-09-09T07:41:38Z</time>
      </trkpt>
      <trkpt lat="48.40852" lon="7.68746">
        <ele>181.39999389648</ele>
        <time>2019-09-09T07:41:46Z</time>
      </trkpt>
      <trkpt lat="48.40833" lon="7.688">
        <ele>181.39999389648</ele>
        <time>2019-09-09T07:41:53Z</time>
      </trkpt>
      <trkpt lat="48.40813" lon="7.68849">
        <ele>181.60000610352</ele>
        <time>2019-09-09T07:42:00Z</time>
      </trkpt>
      <trkpt lat="48.40808" lon="7.6886">
        <ele>181.60000610352</ele>
        <time>2019-09-09T07:42:02Z</time>
      </trkpt>
      <trkpt lat="48.40799" lon="7.68874">
        <ele>181.60000610352</ele>
        <time>2019-09-09T07:42:05Z</time>
      </trkpt>
      <trkpt lat="48.40785" lon="7.6891">
        <ele>181.60000610352</ele>
        <time>2019-09-09T07:42:11Z</time>
      </trkpt>
      <trkpt lat="48.40775" lon="7.68941">
        <ele>182</ele>
        <time>2019-09-09T07:42:16Z</time>
      </trkpt>
      <trkpt lat="48.40773" lon="7.68948">
        <ele>182</ele>
        <time>2019-09-09T07:42:17Z</time>
      </trkpt>
      <trkpt lat="48.40773" lon="7.68973">
        <ele>182.19999694824</ele>
        <time>2019-09-09T07:42:21Z</time>
      </trkpt>
      <trkpt lat="48.40774" lon="7.69023">
        <ele>182.39999389648</ele>
        <time>2019-09-09T07:42:29Z</time>
      </trkpt>
      <trkpt lat="48.40773" lon="7.69076">
        <ele>183.19999694824</ele>
        <time>2019-09-09T07:42:37Z</time>
      </trkpt>
      <trkpt lat="48.40774" lon="7.69082">
        <ele>183.19999694824</ele>
        <time>2019-09-09T07:42:38Z</time>
      </trkpt>
      <trkpt lat="48.40773" lon="7.69107">
        <ele>183.80000305176</ele>
        <time>2019-09-09T07:42:42Z</time>
      </trkpt>
      <trkpt lat="48.40772" lon="7.6912">
        <ele>184</ele>
        <time>2019-09-09T07:42:44Z</time>
      </trkpt>
      <trkpt lat="48.40772" lon="7.69126">
        <ele>184.19999694824</ele>
        <time>2019-09-09T07:42:45Z</time>
      </trkpt>
      <trkpt lat="48.40773" lon="7.69132">
        <ele>184.39999389648</ele>
        <time>2019-09-09T07:42:46Z</time>
      </trkpt>
      <trkpt lat="48.40773" lon="7.69145">
        <ele>184.60000610352</ele>
        <time>2019-09-09T07:42:48Z</time>
      </trkpt>
      <trkpt lat="48.40773" lon="7.69156">
        <ele>185</ele>
        <time>2019-09-09T07:42:50Z</time>
      </trkpt>
      <trkpt lat="48.40772" lon="7.69175">
        <ele>185.39999389648</ele>
        <time>2019-09-09T07:42:54Z</time>
      </trkpt>
      <trkpt lat="48.4077" lon="7.69177">
        <ele>185.60000610352</ele>
        <time>2019-09-09T07:42:55Z</time>
      </trkpt>
      <trkpt lat="48.40758" lon="7.69176">
        <ele>185.60000610352</ele>
        <time>2019-09-09T07:42:58Z</time>
      </trkpt>
      <trkpt lat="48.40741" lon="7.69177">
        <ele>185.60000610352</ele>
        <time>2019-09-09T07:43:01Z</time>
      </trkpt>
      <trkpt lat="48.40729" lon="7.69176">
        <ele>185.60000610352</ele>
        <time>2019-09-09T07:43:03Z</time>
      </trkpt>
      <trkpt lat="48.40702" lon="7.69174">
        <ele>185.19999694824</ele>
        <time>2019-09-09T07:43:07Z</time>
      </trkpt>
      <trkpt lat="48.40694" lon="7.69172">
        <ele>185</ele>
        <time>2019-09-09T07:43:08Z</time>
      </trkpt>
      <trkpt lat="48.40681" lon="7.69168">
        <ele>184.39999389648</ele>
        <time>2019-09-09T07:43:10Z</time>
      </trkpt>
      <trkpt lat="48.40662" lon="7.69163">
        <ele>183.39999389648</ele>
        <time>2019-09-09T07:43:13Z</time>
      </trkpt>
      <trkpt lat="48.40656" lon="7.69161">
        <ele>182.80000305176</ele>
        <time>2019-09-09T07:43:14Z</time>
      </trkpt>
      <trkpt lat="48.40635" lon="7.69152">
        <ele>182.39999389648</ele>
        <time>2019-09-09T07:43:18Z</time>
      </trkpt>
      <trkpt lat="48.4062" lon="7.69147">
        <ele>182.19999694824</ele>
        <time>2019-09-09T07:43:21Z</time>
      </trkpt>
      <trkpt lat="48.40574" lon="7.69132">
        <ele>182</ele>
        <time>2019-09-09T07:43:30Z</time>
      </trkpt>
      <trkpt lat="48.40532" lon="7.69121">
        <ele>182</ele>
        <time>2019-09-09T07:43:38Z</time>
      </trkpt>
      <trkpt lat="48.40498" lon="7.69108">
        <ele>182</ele>
        <time>2019-09-09T07:43:45Z</time>
      </trkpt>
      <trkpt lat="48.40494" lon="7.69106">
        <ele>182</ele>
        <time>2019-09-09T07:43:46Z</time>
      </trkpt>
      <trkpt lat="48.40469" lon="7.69098">
        <ele>182</ele>
        <time>2019-09-09T07:43:51Z</time>
      </trkpt>
      <trkpt lat="48.40436" lon="7.69086">
        <ele>182</ele>
        <time>2019-09-09T07:43:58Z</time>
      </trkpt>
      <trkpt lat="48.40432" lon="7.69084">
        <ele>182</ele>
        <time>2019-09-09T07:43:59Z</time>
      </trkpt>
      <trkpt lat="48.40407" lon="7.69071">
        <ele>182</ele>
        <time>2019-09-09T07:44:04Z</time>
      </trkpt>
      <trkpt lat="48.40371" lon="7.69058">
        <ele>182</ele>
        <time>2019-09-09T07:44:11Z</time>
      </trkpt>
      <trkpt lat="48.40351" lon="7.6905">
        <ele>182</ele>
        <time>2019-09-09T07:44:15Z</time>
      </trkpt>
      <trkpt lat="48.40341" lon="7.69047">
        <ele>182</ele>
        <time>2019-09-09T07:44:17Z</time>
      </trkpt>
      <trkpt lat="48.40326" lon="7.69041">
        <ele>181.80000305176</ele>
        <time>2019-09-09T07:44:20Z</time>
      </trkpt>
      <trkpt lat="48.40305" lon="7.69033">
        <ele>182</ele>
        <time>2019-09-09T07:44:24Z</time>
      </trkpt>
      <trkpt lat="48.4027" lon="7.69017">
        <ele>181.80000305176</ele>
        <time>2019-09-09T07:44:31Z</time>
      </trkpt>
      <trkpt lat="48.40229" lon="7.68999">
        <ele>181.80000305176</ele>
        <time>2019-09-09T07:44:39Z</time>
      </trkpt>
      <trkpt lat="48.40197" lon="7.6899">
        <ele>181.80000305176</ele>
        <time>2019-09-09T07:44:45Z</time>
      </trkpt>
      <trkpt lat="48.40168" lon="7.68979">
        <ele>181.80000305176</ele>
        <time>2019-09-09T07:44:51Z</time>
      </trkpt>
      <trkpt lat="48.40138" lon="7.68966">
        <ele>181.80000305176</ele>
        <time>2019-09-09T07:44:57Z</time>
      </trkpt>
      <trkpt lat="48.40104" lon="7.68953">
        <ele>181.60000610352</ele>
        <time>2019-09-09T07:45:04Z</time>
      </trkpt>
      <trkpt lat="48.40075" lon="7.68942">
        <ele>181.60000610352</ele>
        <time>2019-09-09T07:45:10Z</time>
      </trkpt>
      <trkpt lat="48.4006" lon="7.68937">
        <ele>181.60000610352</ele>
        <time>2019-09-09T07:45:13Z</time>
      </trkpt>
      <trkpt lat="48.40044" lon="7.68931">
        <ele>181.60000610352</ele>
        <time>2019-09-09T07:45:16Z</time>
      </trkpt>
      <trkpt lat="48.40007" lon="7.68916">
        <ele>181.80000305176</ele>
        <time>2019-09-09T07:45:23Z</time>
      </trkpt>
      <trkpt lat="48.39976" lon="7.68903">
        <ele>181.60000610352</ele>
        <time>2019-09-09T07:45:29Z</time>
      </trkpt>
      <trkpt lat="48.39956" lon="7.68895">
        <ele>181.60000610352</ele>
        <time>2019-09-09T07:45:33Z</time>
      </trkpt>
      <trkpt lat="48.39931" lon="7.68884">
        <ele>181.60000610352</ele>
        <time>2019-09-09T07:45:38Z</time>
      </trkpt>
      <trkpt lat="48.3989" lon="7.68869">
        <ele>181.60000610352</ele>
        <time>2019-09-09T07:45:46Z</time>
      </trkpt>
      <trkpt lat="48.39854" lon="7.68857">
        <ele>181.39999389648</ele>
        <time>2019-09-09T07:45:53Z</time>
      </trkpt>
      <trkpt lat="48.3982" lon="7.68844">
        <ele>181.39999389648</ele>
        <time>2019-09-09T07:46:00Z</time>
      </trkpt>
      <trkpt lat="48.39784" lon="7.68832">
        <ele>181.60000610352</ele>
        <time>2019-09-09T07:46:07Z</time>
      </trkpt>
      <trkpt lat="48.39743" lon="7.68816">
        <ele>181.39999389648</ele>
        <time>2019-09-09T07:46:15Z</time>
      </trkpt>
      <trkpt lat="48.39701" lon="7.68799">
        <ele>181.39999389648</ele>
        <time>2019-09-09T07:46:23Z</time>
      </trkpt>
      <trkpt lat="48.39666" lon="7.68786">
        <ele>181.60000610352</ele>
        <time>2019-09-09T07:46:30Z</time>
      </trkpt>
      <trkpt lat="48.39631" lon="7.68772">
        <ele>181.60000610352</ele>
        <time>2019-09-09T07:46:37Z</time>
      </trkpt>
      <trkpt lat="48.39602" lon="7.68759">
        <ele>181.39999389648</ele>
        <time>2019-09-09T07:46:43Z</time>
      </trkpt>
      <trkpt lat="48.39572" lon="7.68747">
        <ele>181.39999389648</ele>
        <time>2019-09-09T07:46:49Z</time>
      </trkpt>
      <trkpt lat="48.39542" lon="7.68734">
        <ele>181.39999389648</ele>
        <time>2019-09-09T07:46:55Z</time>
      </trkpt>
      <trkpt lat="48.39511" lon="7.68724">
        <ele>181.39999389648</ele>
        <time>2019-09-09T07:47:01Z</time>
      </trkpt>
      <trkpt lat="48.39484" lon="7.68715">
        <ele>181.60000610352</ele>
        <time>2019-09-09T07:47:07Z</time>
      </trkpt>
      <trkpt lat="48.39444" lon="7.68697">
        <ele>181.39999389648</ele>
        <time>2019-09-09T07:47:15Z</time>
      </trkpt>
      <trkpt lat="48.39403" lon="7.68679">
        <ele>181.60000610352</ele>
        <time>2019-09-09T07:47:23Z</time>
      </trkpt>
      <trkpt lat="48.39365" lon="7.68665">
        <ele>181.60000610352</ele>
        <time>2019-09-09T07:47:30Z</time>
      </trkpt>
      <trkpt lat="48.3934" lon="7.68656">
        <ele>181.60000610352</ele>
        <time>2019-09-09T07:47:35Z</time>
      </trkpt>
      <trkpt lat="48.39331" lon="7.68653">
        <ele>181.60000610352</ele>
        <time>2019-09-09T07:47:37Z</time>
      </trkpt>
      <trkpt lat="48.39289" lon="7.68637">
        <ele>181.60000610352</ele>
        <time>2019-09-09T07:47:45Z</time>
      </trkpt>
      <trkpt lat="48.39254" lon="7.68622">
        <ele>181.80000305176</ele>
        <time>2019-09-09T07:47:52Z</time>
      </trkpt>
      <trkpt lat="48.39218" lon="7.68609">
        <ele>181.60000610352</ele>
        <time>2019-09-09T07:47:59Z</time>
      </trkpt>
      <trkpt lat="48.39208" lon="7.68605">
        <ele>181.60000610352</ele>
        <time>2019-09-09T07:48:01Z</time>
      </trkpt>
      <trkpt lat="48.39174" lon="7.68591">
        <ele>181.60000610352</ele>
        <time>2019-09-09T07:48:08Z</time>
      </trkpt>
      <trkpt lat="48.39133" lon="7.68575">
        <ele>181.80000305176</ele>
        <time>2019-09-09T07:48:16Z</time>
      </trkpt>
      <trkpt lat="48.39091" lon="7.68558">
        <ele>182</ele>
        <time>2019-09-09T07:48:25Z</time>
      </trkpt>
      <trkpt lat="48.39063" lon="7.68547">
        <ele>182.39999389648</ele>
        <time>2019-09-09T07:48:33Z</time>
      </trkpt>
      <trkpt lat="48.39045" lon="7.68542">
        <ele>183.19999694824</ele>
        <time>2019-09-09T07:48:39Z</time>
      </trkpt>
      <trkpt lat="48.39042" lon="7.68542">
        <ele>183.39999389648</ele>
        <time>2019-09-09T07:48:40Z</time>
      </trkpt>
      <trkpt lat="48.39033" lon="7.68541">
        <ele>184.39999389648</ele>
        <time>2019-09-09T07:48:43Z</time>
      </trkpt>
      <trkpt lat="48.39025" lon="7.68538">
        <ele>184.80000305176</ele>
        <time>2019-09-09T07:48:45Z</time>
      </trkpt>
      <trkpt lat="48.38996" lon="7.68524">
        <ele>184.80000305176</ele>
        <time>2019-09-09T07:48:51Z</time>
      </trkpt>
      <trkpt lat="48.38969" lon="7.6851">
        <ele>184.19999694824</ele>
        <time>2019-09-09T07:48:57Z</time>
      </trkpt>
      <trkpt lat="48.38934" lon="7.68499">
        <ele>183.80000305176</ele>
        <time>2019-09-09T07:49:04Z</time>
      </trkpt>
      <trkpt lat="48.389" lon="7.68484">
        <ele>184</ele>
        <time>2019-09-09T07:49:11Z</time>
      </trkpt>
      <trkpt lat="48.38865" lon="7.68471">
        <ele>183.80000305176</ele>
        <time>2019-09-09T07:49:18Z</time>
      </trkpt>
      <trkpt lat="48.38845" lon="7.68464">
        <ele>183.60000610352</ele>
        <time>2019-09-09T07:49:22Z</time>
      </trkpt>
      <trkpt lat="48.38824" lon="7.68456">
        <ele>183.80000305176</ele>
        <time>2019-09-09T07:49:26Z</time>
      </trkpt>
      <trkpt lat="48.388" lon="7.68447">
        <ele>183.60000610352</ele>
        <time>2019-09-09T07:49:31Z</time>
      </trkpt>
      <trkpt lat="48.38761" lon="7.68431">
        <ele>183.60000610352</ele>
        <time>2019-09-09T07:49:39Z</time>
      </trkpt>
      <trkpt lat="48.38726" lon="7.68417">
        <ele>183.39999389648</ele>
        <time>2019-09-09T07:49:46Z</time>
      </trkpt>
      <trkpt lat="48.38693" lon="7.68404">
        <ele>183.60000610352</ele>
        <time>2019-09-09T07:49:53Z</time>
      </trkpt>
      <trkpt lat="48.38659" lon="7.68397">
        <ele>183.60000610352</ele>
        <time>2019-09-09T07:50:00Z</time>
      </trkpt>
      <trkpt lat="48.38632" lon="7.68384">
        <ele>183.60000610352</ele>
        <time>2019-09-09T07:50:06Z</time>
      </trkpt>
      <trkpt lat="48.38591" lon="7.68367">
        <ele>183.60000610352</ele>
        <time>2019-09-09T07:50:14Z</time>
      </trkpt>
      <trkpt lat="48.3855" lon="7.68351">
        <ele>183.60000610352</ele>
        <time>2019-09-09T07:50:22Z</time>
      </trkpt>
      <trkpt lat="48.3851" lon="7.68335">
        <ele>183.60000610352</ele>
        <time>2019-09-09T07:50:30Z</time>
      </trkpt>
      <trkpt lat="48.38483" lon="7.68325">
        <ele>183.60000610352</ele>
        <time>2019-09-09T07:50:36Z</time>
      </trkpt>
      <trkpt lat="48.38457" lon="7.68314">
        <ele>183.80000305176</ele>
        <time>2019-09-09T07:50:42Z</time>
      </trkpt>
      <trkpt lat="48.38431" lon="7.68306">
        <ele>183.60000610352</ele>
        <time>2019-09-09T07:50:47Z</time>
      </trkpt>
      <trkpt lat="48.38422" lon="7.68303">
        <ele>183.60000610352</ele>
        <time>2019-09-09T07:50:49Z</time>
      </trkpt>
      <trkpt lat="48.38387" lon="7.68289">
        <ele>183.60000610352</ele>
        <time>2019-09-09T07:50:56Z</time>
      </trkpt>
      <trkpt lat="48.38378" lon="7.68287">
        <ele>183.60000610352</ele>
        <time>2019-09-09T07:50:58Z</time>
      </trkpt>
      <trkpt lat="48.38359" lon="7.6828">
        <ele>183.60000610352</ele>
        <time>2019-09-09T07:51:02Z</time>
      </trkpt>
      <trkpt lat="48.38316" lon="7.68263">
        <ele>183.60000610352</ele>
        <time>2019-09-09T07:51:10Z</time>
      </trkpt>
      <trkpt lat="48.38283" lon="7.68252">
        <ele>183.60000610352</ele>
        <time>2019-09-09T07:51:16Z</time>
      </trkpt>
      <trkpt lat="48.38241" lon="7.68237">
        <ele>183.60000610352</ele>
        <time>2019-09-09T07:51:24Z</time>
      </trkpt>
      <trkpt lat="48.38217" lon="7.68229">
        <ele>183.39999389648</ele>
        <time>2019-09-09T07:51:29Z</time>
      </trkpt>
      <trkpt lat="48.38207" lon="7.68224">
        <ele>183.39999389648</ele>
        <time>2019-09-09T07:51:31Z</time>
      </trkpt>
      <trkpt lat="48.38185" lon="7.68216">
        <ele>183.39999389648</ele>
        <time>2019-09-09T07:51:35Z</time>
      </trkpt>
      <trkpt lat="48.38154" lon="7.68202">
        <ele>183.39999389648</ele>
        <time>2019-09-09T07:51:41Z</time>
      </trkpt>
      <trkpt lat="48.38148" lon="7.682">
        <ele>183.39999389648</ele>
        <time>2019-09-09T07:51:42Z</time>
      </trkpt>
      <trkpt lat="48.38114" lon="7.68187">
        <ele>183.39999389648</ele>
        <time>2019-09-09T07:51:49Z</time>
      </trkpt>
      <trkpt lat="48.38081" lon="7.68171">
        <ele>183.19999694824</ele>
        <time>2019-09-09T07:51:55Z</time>
      </trkpt>
      <trkpt lat="48.38049" lon="7.68157">
        <ele>183.19999694824</ele>
        <time>2019-09-09T07:52:01Z</time>
      </trkpt>
      <trkpt lat="48.38012" lon="7.68142">
        <ele>183.39999389648</ele>
        <time>2019-09-09T07:52:08Z</time>
      </trkpt>
      <trkpt lat="48.37968" lon="7.68126">
        <ele>183.39999389648</ele>
        <time>2019-09-09T07:52:16Z</time>
      </trkpt>
      <trkpt lat="48.37937" lon="7.68114">
        <ele>183.39999389648</ele>
        <time>2019-09-09T07:52:22Z</time>
      </trkpt>
      <trkpt lat="48.3789" lon="7.68097">
        <ele>183.39999389648</ele>
        <time>2019-09-09T07:52:31Z</time>
      </trkpt>
      <trkpt lat="48.37884" lon="7.68095">
        <ele>183.39999389648</ele>
        <time>2019-09-09T07:52:32Z</time>
      </trkpt>
      <trkpt lat="48.37844" lon="7.68079">
        <ele>183.39999389648</ele>
        <time>2019-09-09T07:52:40Z</time>
      </trkpt>
      <trkpt lat="48.37793" lon="7.6806">
        <ele>183.39999389648</ele>
        <time>2019-09-09T07:52:50Z</time>
      </trkpt>
      <trkpt lat="48.37758" lon="7.68046">
        <ele>183.39999389648</ele>
        <time>2019-09-09T07:52:57Z</time>
      </trkpt>
      <trkpt lat="48.37721" lon="7.68031">
        <ele>183.39999389648</ele>
        <time>2019-09-09T07:53:04Z</time>
      </trkpt>
      <trkpt lat="48.37691" lon="7.68019">
        <ele>183.39999389648</ele>
        <time>2019-09-09T07:53:10Z</time>
      </trkpt>
      <trkpt lat="48.3767" lon="7.68013">
        <ele>183.39999389648</ele>
        <time>2019-09-09T07:53:14Z</time>
      </trkpt>
      <trkpt lat="48.37655" lon="7.68009">
        <ele>183.39999389648</ele>
        <time>2019-09-09T07:53:17Z</time>
      </trkpt>
      <trkpt lat="48.37645" lon="7.68005">
        <ele>183.39999389648</ele>
        <time>2019-09-09T07:53:19Z</time>
      </trkpt>
      <trkpt lat="48.3763" lon="7.67996">
        <ele>183.19999694824</ele>
        <time>2019-09-09T07:53:22Z</time>
      </trkpt>
      <trkpt lat="48.37595" lon="7.67982">
        <ele>183.19999694824</ele>
        <time>2019-09-09T07:53:29Z</time>
      </trkpt>
      <trkpt lat="48.3756" lon="7.67969">
        <ele>183.19999694824</ele>
        <time>2019-09-09T07:53:36Z</time>
      </trkpt>
      <trkpt lat="48.37555" lon="7.67967">
        <ele>183.19999694824</ele>
        <time>2019-09-09T07:53:37Z</time>
      </trkpt>
      <trkpt lat="48.37514" lon="7.67951">
        <ele>183.19999694824</ele>
        <time>2019-09-09T07:53:45Z</time>
      </trkpt>
      <trkpt lat="48.37479" lon="7.67937">
        <ele>183.39999389648</ele>
        <time>2019-09-09T07:53:52Z</time>
      </trkpt>
      <trkpt lat="48.37444" lon="7.67922">
        <ele>183.60000610352</ele>
        <time>2019-09-09T07:53:59Z</time>
      </trkpt>
      <trkpt lat="48.37403" lon="7.67907">
        <ele>183.39999389648</ele>
        <time>2019-09-09T07:54:07Z</time>
      </trkpt>
      <trkpt lat="48.37357" lon="7.6789">
        <ele>183.39999389648</ele>
        <time>2019-09-09T07:54:16Z</time>
      </trkpt>
      <trkpt lat="48.37317" lon="7.67874">
        <ele>183.60000610352</ele>
        <time>2019-09-09T07:54:24Z</time>
      </trkpt>
      <trkpt lat="48.37302" lon="7.67868">
        <ele>183.39999389648</ele>
        <time>2019-09-09T07:54:27Z</time>
      </trkpt>
      <trkpt lat="48.37277" lon="7.67858">
        <ele>183.39999389648</ele>
        <time>2019-09-09T07:54:32Z</time>
      </trkpt>
      <trkpt lat="48.37226" lon="7.67837">
        <ele>183.39999389648</ele>
        <time>2019-09-09T07:54:42Z</time>
      </trkpt>
      <trkpt lat="48.37186" lon="7.67822">
        <ele>183.19999694824</ele>
        <time>2019-09-09T07:54:50Z</time>
      </trkpt>
      <trkpt lat="48.37146" lon="7.67806">
        <ele>183.19999694824</ele>
        <time>2019-09-09T07:54:58Z</time>
      </trkpt>
      <trkpt lat="48.37111" lon="7.67794">
        <ele>183.19999694824</ele>
        <time>2019-09-09T07:55:05Z</time>
      </trkpt>
      <trkpt lat="48.37106" lon="7.67792">
        <ele>183.19999694824</ele>
        <time>2019-09-09T07:55:06Z</time>
      </trkpt>
      <trkpt lat="48.37072" lon="7.67778">
        <ele>183.39999389648</ele>
        <time>2019-09-09T07:55:13Z</time>
      </trkpt>
      <trkpt lat="48.37037" lon="7.67765">
        <ele>183.19999694824</ele>
        <time>2019-09-09T07:55:20Z</time>
      </trkpt>
      <trkpt lat="48.36998" lon="7.67751">
        <ele>183.19999694824</ele>
        <time>2019-09-09T07:55:28Z</time>
      </trkpt>
      <trkpt lat="48.36957" lon="7.67737">
        <ele>183.39999389648</ele>
        <time>2019-09-09T07:55:36Z</time>
      </trkpt>
      <trkpt lat="48.36906" lon="7.67717">
        <ele>183.39999389648</ele>
        <time>2019-09-09T07:55:46Z</time>
      </trkpt>
      <trkpt lat="48.3687" lon="7.67704">
        <ele>183.39999389648</ele>
        <time>2019-09-09T07:55:53Z</time>
      </trkpt>
      <trkpt lat="48.36836" lon="7.67688">
        <ele>183.39999389648</ele>
        <time>2019-09-09T07:56:00Z</time>
      </trkpt>
      <trkpt lat="48.36786" lon="7.67667">
        <ele>183.19999694824</ele>
        <time>2019-09-09T07:56:10Z</time>
      </trkpt>
      <trkpt lat="48.36736" lon="7.67647">
        <ele>183.19999694824</ele>
        <time>2019-09-09T07:56:20Z</time>
      </trkpt>
      <trkpt lat="48.36706" lon="7.67638">
        <ele>183.19999694824</ele>
        <time>2019-09-09T07:56:26Z</time>
      </trkpt>
      <trkpt lat="48.36671" lon="7.67626">
        <ele>183.39999389648</ele>
        <time>2019-09-09T07:56:33Z</time>
      </trkpt>
      <trkpt lat="48.36639" lon="7.67614">
        <ele>183.60000610352</ele>
        <time>2019-09-09T07:56:40Z</time>
      </trkpt>
      <trkpt lat="48.3661" lon="7.67605">
        <ele>184</ele>
        <time>2019-09-09T07:56:47Z</time>
      </trkpt>
      <trkpt lat="48.36577" lon="7.67592">
        <ele>184.80000305176</ele>
        <time>2019-09-09T07:56:55Z</time>
      </trkpt>
      <trkpt lat="48.36547" lon="7.67579">
        <ele>185</ele>
        <time>2019-09-09T07:57:02Z</time>
      </trkpt>
      <trkpt lat="48.36502" lon="7.67563">
        <ele>185</ele>
        <time>2019-09-09T07:57:11Z</time>
      </trkpt>
      <trkpt lat="48.36497" lon="7.67561">
        <ele>185</ele>
        <time>2019-09-09T07:57:12Z</time>
      </trkpt>
      <trkpt lat="48.36477" lon="7.67553">
        <ele>185</ele>
        <time>2019-09-09T07:57:16Z</time>
      </trkpt>
      <trkpt lat="48.36423" lon="7.67531">
        <ele>185</ele>
        <time>2019-09-09T07:57:27Z</time>
      </trkpt>
      <trkpt lat="48.36376" lon="7.67514">
        <ele>184.80000305176</ele>
        <time>2019-09-09T07:57:36Z</time>
      </trkpt>
      <trkpt lat="48.36326" lon="7.67494">
        <ele>185</ele>
        <time>2019-09-09T07:57:46Z</time>
      </trkpt>
      <trkpt lat="48.36321" lon="7.67492">
        <ele>185</ele>
        <time>2019-09-09T07:57:47Z</time>
      </trkpt>
      <trkpt lat="48.36286" lon="7.67479">
        <ele>184.80000305176</ele>
        <time>2019-09-09T07:57:54Z</time>
      </trkpt>
      <trkpt lat="48.36245" lon="7.67463">
        <ele>185</ele>
        <time>2019-09-09T07:58:02Z</time>
      </trkpt>
      <trkpt lat="48.36196" lon="7.67444">
        <ele>185</ele>
        <time>2019-09-09T07:58:12Z</time>
      </trkpt>
      <trkpt lat="48.3615" lon="7.67428">
        <ele>185</ele>
        <time>2019-09-09T07:58:21Z</time>
      </trkpt>
      <trkpt lat="48.36095" lon="7.67406">
        <ele>184.80000305176</ele>
        <time>2019-09-09T07:58:32Z</time>
      </trkpt>
      <trkpt lat="48.3605" lon="7.67389">
        <ele>184.80000305176</ele>
        <time>2019-09-09T07:58:41Z</time>
      </trkpt>
      <trkpt lat="48.36005" lon="7.67372">
        <ele>185.19999694824</ele>
        <time>2019-09-09T07:58:50Z</time>
      </trkpt>
      <trkpt lat="48.35961" lon="7.67358">
        <ele>185.19999694824</ele>
        <time>2019-09-09T07:58:59Z</time>
      </trkpt>
      <trkpt lat="48.35948" lon="7.67354">
        <ele>185.19999694824</ele>
        <time>2019-09-09T07:59:02Z</time>
      </trkpt>
      <trkpt lat="48.35939" lon="7.6735">
        <ele>185.19999694824</ele>
        <time>2019-09-09T07:59:04Z</time>
      </trkpt>
      <trkpt lat="48.35909" lon="7.67337">
        <ele>185.19999694824</ele>
        <time>2019-09-09T07:59:10Z</time>
      </trkpt>
      <trkpt lat="48.35864" lon="7.67319">
        <ele>185.19999694824</ele>
        <time>2019-09-09T07:59:19Z</time>
      </trkpt>
      <trkpt lat="48.35829" lon="7.67304">
        <ele>185</ele>
        <time>2019-09-09T07:59:26Z</time>
      </trkpt>
      <trkpt lat="48.35779" lon="7.67285">
        <ele>185</ele>
        <time>2019-09-09T07:59:36Z</time>
      </trkpt>
      <trkpt lat="48.35734" lon="7.67267">
        <ele>185</ele>
        <time>2019-09-09T07:59:45Z</time>
      </trkpt>
      <trkpt lat="48.3569" lon="7.6725">
        <ele>185</ele>
        <time>2019-09-09T07:59:54Z</time>
      </trkpt>
      <trkpt lat="48.35645" lon="7.67231">
        <ele>185</ele>
        <time>2019-09-09T08:00:03Z</time>
      </trkpt>
      <trkpt lat="48.3561" lon="7.67219">
        <ele>184.80000305176</ele>
        <time>2019-09-09T08:00:10Z</time>
      </trkpt>
      <trkpt lat="48.35565" lon="7.67202">
        <ele>185</ele>
        <time>2019-09-09T08:00:19Z</time>
      </trkpt>
      <trkpt lat="48.35525" lon="7.67185">
        <ele>185</ele>
        <time>2019-09-09T08:00:27Z</time>
      </trkpt>
      <trkpt lat="48.35485" lon="7.67169">
        <ele>185</ele>
        <time>2019-09-09T08:00:35Z</time>
      </trkpt>
      <trkpt lat="48.35435" lon="7.6715">
        <ele>184.80000305176</ele>
        <time>2019-09-09T08:00:45Z</time>
      </trkpt>
      <trkpt lat="48.35394" lon="7.67134">
        <ele>184.80000305176</ele>
        <time>2019-09-09T08:00:53Z</time>
      </trkpt>
      <trkpt lat="48.35349" lon="7.67117">
        <ele>185</ele>
        <time>2019-09-09T08:01:02Z</time>
      </trkpt>
      <trkpt lat="48.35303" lon="7.67099">
        <ele>184.80000305176</ele>
        <time>2019-09-09T08:01:11Z</time>
      </trkpt>
      <trkpt lat="48.35253" lon="7.6708">
        <ele>184.80000305176</ele>
        <time>2019-09-09T08:01:21Z</time>
      </trkpt>
      <trkpt lat="48.35203" lon="7.67061">
        <ele>185</ele>
        <time>2019-09-09T08:01:31Z</time>
      </trkpt>
      <trkpt lat="48.35152" lon="7.67042">
        <ele>185</ele>
        <time>2019-09-09T08:01:41Z</time>
      </trkpt>
      <trkpt lat="48.35112" lon="7.67026">
        <ele>185</ele>
        <time>2019-09-09T08:01:49Z</time>
      </trkpt>
      <trkpt lat="48.35057" lon="7.67005">
        <ele>185</ele>
        <time>2019-09-09T08:02:00Z</time>
      </trkpt>
      <trkpt lat="48.35052" lon="7.67004">
        <ele>185</ele>
        <time>2019-09-09T08:02:01Z</time>
      </trkpt>
      <trkpt lat="48.35006" lon="7.66986">
        <ele>184.80000305176</ele>
        <time>2019-09-09T08:02:10Z</time>
      </trkpt>
      <trkpt lat="48.34951" lon="7.66965">
        <ele>185.19999694824</ele>
        <time>2019-09-09T08:02:21Z</time>
      </trkpt>
      <trkpt lat="48.349" lon="7.66945">
        <ele>185.19999694824</ele>
        <time>2019-09-09T08:02:31Z</time>
      </trkpt>
      <trkpt lat="48.34845" lon="7.66924">
        <ele>185</ele>
        <time>2019-09-09T08:02:42Z</time>
      </trkpt>
      <trkpt lat="48.348" lon="7.66908">
        <ele>185</ele>
        <time>2019-09-09T08:02:51Z</time>
      </trkpt>
      <trkpt lat="48.3475" lon="7.66889">
        <ele>184.80000305176</ele>
        <time>2019-09-09T08:03:01Z</time>
      </trkpt>
      <trkpt lat="48.34745" lon="7.66887">
        <ele>184.80000305176</ele>
        <time>2019-09-09T08:03:02Z</time>
      </trkpt>
      <trkpt lat="48.347" lon="7.66868">
        <ele>185</ele>
        <time>2019-09-09T08:03:11Z</time>
      </trkpt>
      <trkpt lat="48.34662" lon="7.66854">
        <ele>185.19999694824</ele>
        <time>2019-09-09T08:03:19Z</time>
      </trkpt>
      <trkpt lat="48.34653" lon="7.6685">
        <ele>185.19999694824</ele>
        <time>2019-09-09T08:03:21Z</time>
      </trkpt>
      <trkpt lat="48.34635" lon="7.66843">
        <ele>185.19999694824</ele>
        <time>2019-09-09T08:03:25Z</time>
      </trkpt>
      <trkpt lat="48.3459" lon="7.66826">
        <ele>185.39999389648</ele>
        <time>2019-09-09T08:03:34Z</time>
      </trkpt>
      <trkpt lat="48.34555" lon="7.66813">
        <ele>185.39999389648</ele>
        <time>2019-09-09T08:03:41Z</time>
      </trkpt>
      <trkpt lat="48.34511" lon="7.66796">
        <ele>185.19999694824</ele>
        <time>2019-09-09T08:03:50Z</time>
      </trkpt>
      <trkpt lat="48.34481" lon="7.66785">
        <ele>185.19999694824</ele>
        <time>2019-09-09T08:03:56Z</time>
      </trkpt>
      <trkpt lat="48.34466" lon="7.66778">
        <ele>185.19999694824</ele>
        <time>2019-09-09T08:03:59Z</time>
      </trkpt>
      <trkpt lat="48.3441" lon="7.66757">
        <ele>185.19999694824</ele>
        <time>2019-09-09T08:04:10Z</time>
      </trkpt>
      <trkpt lat="48.34356" lon="7.66736">
        <ele>185.39999389648</ele>
        <time>2019-09-09T08:04:21Z</time>
      </trkpt>
      <trkpt lat="48.34306" lon="7.66717">
        <ele>185.39999389648</ele>
        <time>2019-09-09T08:04:31Z</time>
      </trkpt>
      <trkpt lat="48.34261" lon="7.667">
        <ele>185.39999389648</ele>
        <time>2019-09-09T08:04:40Z</time>
      </trkpt>
      <trkpt lat="48.34216" lon="7.66682">
        <ele>185.39999389648</ele>
        <time>2019-09-09T08:04:49Z</time>
      </trkpt>
      <trkpt lat="48.34171" lon="7.66663">
        <ele>185.39999389648</ele>
        <time>2019-09-09T08:04:58Z</time>
      </trkpt>
      <trkpt lat="48.34143" lon="7.66651">
        <ele>185.39999389648</ele>
        <time>2019-09-09T08:05:04Z</time>
      </trkpt>
      <trkpt lat="48.34111" lon="7.66639">
        <ele>185.80000305176</ele>
        <time>2019-09-09T08:05:11Z</time>
      </trkpt>
      <trkpt lat="48.3408" lon="7.66625">
        <ele>185.80000305176</ele>
        <time>2019-09-09T08:05:18Z</time>
      </trkpt>
      <trkpt lat="48.34033" lon="7.66599">
        <ele>185.60000610352</ele>
        <time>2019-09-09T08:05:28Z</time>
      </trkpt>
      <trkpt lat="48.34002" lon="7.66578">
        <ele>185.39999389648</ele>
        <time>2019-09-09T08:05:35Z</time>
      </trkpt>
      <trkpt lat="48.33958" lon="7.66544">
        <ele>185.39999389648</ele>
        <time>2019-09-09T08:05:45Z</time>
      </trkpt>
      <trkpt lat="48.33932" lon="7.66525">
        <ele>185.39999389648</ele>
        <time>2019-09-09T08:05:51Z</time>
      </trkpt>
      <trkpt lat="48.3389" lon="7.66493">
        <ele>185.19999694824</ele>
        <time>2019-09-09T08:06:00Z</time>
      </trkpt>
      <trkpt lat="48.33853" lon="7.66463">
        <ele>185</ele>
        <time>2019-09-09T08:06:08Z</time>
      </trkpt>
      <trkpt lat="48.33822" lon="7.66438">
        <ele>185</ele>
        <time>2019-09-09T08:06:15Z</time>
      </trkpt>
      <trkpt lat="48.33791" lon="7.66416">
        <ele>185.19999694824</ele>
        <time>2019-09-09T08:06:22Z</time>
      </trkpt>
      <trkpt lat="48.33768" lon="7.66396">
        <ele>185.39999389648</ele>
        <time>2019-09-09T08:06:28Z</time>
      </trkpt>
      <trkpt lat="48.33765" lon="7.66393">
        <ele>185.39999389648</ele>
        <time>2019-09-09T08:06:29Z</time>
      </trkpt>
      <trkpt lat="48.33758" lon="7.6638">
        <ele>185.39999389648</ele>
        <time>2019-09-09T08:06:33Z</time>
      </trkpt>
      <trkpt lat="48.33752" lon="7.66365">
        <ele>185.60000610352</ele>
        <time>2019-09-09T08:06:39Z</time>
      </trkpt>
      <trkpt lat="48.3375" lon="7.66364">
        <ele>186</ele>
        <time>2019-09-09T08:06:40Z</time>
      </trkpt>
      <trkpt lat="48.33745" lon="7.66366">
        <ele>186.60000610352</ele>
        <time>2019-09-09T08:06:43Z</time>
      </trkpt>
      <trkpt lat="48.33743" lon="7.66369">
        <ele>187</ele>
        <time>2019-09-09T08:06:44Z</time>
      </trkpt>
      <trkpt lat="48.3374" lon="7.66379">
        <ele>187.80000305176</ele>
        <time>2019-09-09T08:06:47Z</time>
      </trkpt>
      <trkpt lat="48.33739" lon="7.66383">
        <ele>188</ele>
        <time>2019-09-09T08:06:48Z</time>
      </trkpt>
      <trkpt lat="48.33738" lon="7.66387">
        <ele>188.19999694824</ele>
        <time>2019-09-09T08:06:49Z</time>
      </trkpt>
      <trkpt lat="48.33728" lon="7.66411">
        <ele>188.60000610352</ele>
        <time>2019-09-09T08:06:56Z</time>
      </trkpt>
      <trkpt lat="48.33721" lon="7.66404">
        <ele>188.60000610352</ele>
        <time>2019-09-09T08:06:59Z</time>
      </trkpt>
      <trkpt lat="48.33719" lon="7.664">
        <ele>188.60000610352</ele>
        <time>2019-09-09T08:07:00Z</time>
      </trkpt>
      <trkpt lat="48.33707" lon="7.66385">
        <ele>188.60000610352</ele>
        <time>2019-09-09T08:07:04Z</time>
      </trkpt>
      <trkpt lat="48.33685" lon="7.66369">
        <ele>187.80000305176</ele>
        <time>2019-09-09T08:07:09Z</time>
      </trkpt>
      <trkpt lat="48.33669" lon="7.66357">
        <ele>187</ele>
        <time>2019-09-09T08:07:13Z</time>
      </trkpt>
      <trkpt lat="48.33662" lon="7.66352">
        <ele>186.60000610352</ele>
        <time>2019-09-09T08:07:15Z</time>
      </trkpt>
      <trkpt lat="48.3364" lon="7.66337">
        <ele>186.39999389648</ele>
        <time>2019-09-09T08:07:21Z</time>
      </trkpt>
      <trkpt lat="48.33637" lon="7.66334">
        <ele>186.39999389648</ele>
        <time>2019-09-09T08:07:22Z</time>
      </trkpt>
      <trkpt lat="48.33621" lon="7.66321">
        <ele>186.39999389648</ele>
        <time>2019-09-09T08:07:26Z</time>
      </trkpt>
      <trkpt lat="48.33601" lon="7.66308">
        <ele>186.39999389648</ele>
        <time>2019-09-09T08:07:31Z</time>
      </trkpt>
      <trkpt lat="48.33578" lon="7.66289">
        <ele>186.39999389648</ele>
        <time>2019-09-09T08:07:37Z</time>
      </trkpt>
      <trkpt lat="48.33548" lon="7.66267">
        <ele>186.19999694824</ele>
        <time>2019-09-09T08:07:44Z</time>
      </trkpt>
      <trkpt lat="48.33542" lon="7.66261">
        <ele>186.19999694824</ele>
        <time>2019-09-09T08:07:46Z</time>
      </trkpt>
      <trkpt lat="48.33524" lon="7.66247">
        <ele>186.19999694824</ele>
        <time>2019-09-09T08:07:50Z</time>
      </trkpt>
      <trkpt lat="48.33496" lon="7.66224">
        <ele>186.19999694824</ele>
        <time>2019-09-09T08:07:56Z</time>
      </trkpt>
      <trkpt lat="48.33475" lon="7.66209">
        <ele>186.19999694824</ele>
        <time>2019-09-09T08:08:01Z</time>
      </trkpt>
      <trkpt lat="48.33452" lon="7.66191">
        <ele>186.19999694824</ele>
        <time>2019-09-09T08:08:07Z</time>
      </trkpt>
      <trkpt lat="48.33427" lon="7.66171">
        <ele>186.19999694824</ele>
        <time>2019-09-09T08:08:13Z</time>
      </trkpt>
      <trkpt lat="48.334" lon="7.6615">
        <ele>186.19999694824</ele>
        <time>2019-09-09T08:08:19Z</time>
      </trkpt>
      <trkpt lat="48.33375" lon="7.6613">
        <ele>186.19999694824</ele>
        <time>2019-09-09T08:08:25Z</time>
      </trkpt>
      <trkpt lat="48.33343" lon="7.66104">
        <ele>186.19999694824</ele>
        <time>2019-09-09T08:08:33Z</time>
      </trkpt>
      <trkpt lat="48.33316" lon="7.66084">
        <ele>186.19999694824</ele>
        <time>2019-09-09T08:08:39Z</time>
      </trkpt>
      <trkpt lat="48.33293" lon="7.66067">
        <ele>186.19999694824</ele>
        <time>2019-09-09T08:08:45Z</time>
      </trkpt>
      <trkpt lat="48.33267" lon="7.66048">
        <ele>186.19999694824</ele>
        <time>2019-09-09T08:08:50Z</time>
      </trkpt>
      <trkpt lat="48.33238" lon="7.66026">
        <ele>186.19999694824</ele>
        <time>2019-09-09T08:08:55Z</time>
      </trkpt>
      <trkpt lat="48.33199" lon="7.65998">
        <ele>186.19999694824</ele>
        <time>2019-09-09T08:09:02Z</time>
      </trkpt>
      <trkpt lat="48.33163" lon="7.6597">
        <ele>186</ele>
        <time>2019-09-09T08:09:09Z</time>
      </trkpt>
      <trkpt lat="48.33124" lon="7.6594">
        <ele>185.80000305176</ele>
        <time>2019-09-09T08:09:17Z</time>
      </trkpt>
      <trkpt lat="48.33099" lon="7.65919">
        <ele>185.80000305176</ele>
        <time>2019-09-09T08:09:23Z</time>
      </trkpt>
      <trkpt lat="48.33068" lon="7.65896">
        <ele>186</ele>
        <time>2019-09-09T08:09:30Z</time>
      </trkpt>
      <trkpt lat="48.3305" lon="7.65883">
        <ele>186.19999694824</ele>
        <time>2019-09-09T08:09:35Z</time>
      </trkpt>
      <trkpt lat="48.33047" lon="7.6588">
        <ele>186</ele>
        <time>2019-09-09T08:09:39Z</time>
      </trkpt>
      <trkpt lat="48.33046" lon="7.65878">
        <ele>186</ele>
        <time>2019-09-09T08:10:04Z</time>
      </trkpt>
      <trkpt lat="48.33041" lon="7.65874">
        <ele>186</ele>
        <time>2019-09-09T08:10:07Z</time>
      </trkpt>
      <trkpt lat="48.33025" lon="7.65862">
        <ele>185.80000305176</ele>
        <time>2019-09-09T08:10:12Z</time>
      </trkpt>
      <trkpt lat="48.32998" lon="7.65841">
        <ele>185.80000305176</ele>
        <time>2019-09-09T08:10:19Z</time>
      </trkpt>
      <trkpt lat="48.3297" lon="7.65819">
        <ele>185.80000305176</ele>
        <time>2019-09-09T08:10:26Z</time>
      </trkpt>
      <trkpt lat="48.32935" lon="7.65791">
        <ele>185.60000610352</ele>
        <time>2019-09-09T08:10:34Z</time>
      </trkpt>
      <trkpt lat="48.32909" lon="7.65772">
        <ele>185.60000610352</ele>
        <time>2019-09-09T08:10:40Z</time>
      </trkpt>
      <trkpt lat="48.32882" lon="7.6575">
        <ele>185.60000610352</ele>
        <time>2019-09-09T08:10:47Z</time>
      </trkpt>
      <trkpt lat="48.32859" lon="7.65732">
        <ele>185.60000610352</ele>
        <time>2019-09-09T08:10:53Z</time>
      </trkpt>
      <trkpt lat="48.32844" lon="7.65719">
        <ele>185.80000305176</ele>
        <time>2019-09-09T08:10:57Z</time>
      </trkpt>
      <trkpt lat="48.32831" lon="7.6571">
        <ele>185.60000610352</ele>
        <time>2019-09-09T08:11:01Z</time>
      </trkpt>
      <trkpt lat="48.32827" lon="7.65706">
        <ele>185.60000610352</ele>
        <time>2019-09-09T08:11:04Z</time>
      </trkpt>
      <trkpt lat="48.32818" lon="7.65698">
        <ele>185.60000610352</ele>
        <time>2019-09-09T08:12:37Z</time>
      </trkpt>
      <trkpt lat="48.32815" lon="7.65697">
        <ele>185.60000610352</ele>
        <time>2019-09-09T08:12:38Z</time>
      </trkpt>
      <trkpt lat="48.32799" lon="7.65684">
        <ele>185.60000610352</ele>
        <time>2019-09-09T08:12:44Z</time>
      </trkpt>
      <trkpt lat="48.32778" lon="7.6567">
        <ele>185.60000610352</ele>
        <time>2019-09-09T08:12:50Z</time>
      </trkpt>
      <trkpt lat="48.3276" lon="7.65655">
        <ele>185.60000610352</ele>
        <time>2019-09-09T08:12:55Z</time>
      </trkpt>
      <trkpt lat="48.32735" lon="7.65637">
        <ele>185.80000305176</ele>
        <time>2019-09-09T08:13:01Z</time>
      </trkpt>
      <trkpt lat="48.32717" lon="7.65623">
        <ele>185.80000305176</ele>
        <time>2019-09-09T08:13:05Z</time>
      </trkpt>
      <trkpt lat="48.32681" lon="7.65596">
        <ele>185.80000305176</ele>
        <time>2019-09-09T08:13:12Z</time>
      </trkpt>
      <trkpt lat="48.32655" lon="7.65577">
        <ele>185.80000305176</ele>
        <time>2019-09-09T08:13:17Z</time>
      </trkpt>
      <trkpt lat="48.32634" lon="7.65561">
        <ele>185.80000305176</ele>
        <time>2019-09-09T08:13:22Z</time>
      </trkpt>
      <trkpt lat="48.32604" lon="7.65537">
        <ele>185.80000305176</ele>
        <time>2019-09-09T08:13:28Z</time>
      </trkpt>
      <trkpt lat="48.32577" lon="7.65516">
        <ele>185.80000305176</ele>
        <time>2019-09-09T08:13:34Z</time>
      </trkpt>
      <trkpt lat="48.32553" lon="7.65498">
        <ele>185.80000305176</ele>
        <time>2019-09-09T08:13:40Z</time>
      </trkpt>
      <trkpt lat="48.32529" lon="7.6548">
        <ele>185.80000305176</ele>
        <time>2019-09-09T08:13:45Z</time>
      </trkpt>
      <trkpt lat="48.32507" lon="7.65464">
        <ele>185.80000305176</ele>
        <time>2019-09-09T08:13:50Z</time>
      </trkpt>
      <trkpt lat="48.32473" lon="7.65437">
        <ele>186</ele>
        <time>2019-09-09T08:13:57Z</time>
      </trkpt>
      <trkpt lat="48.32448" lon="7.65417">
        <ele>185.80000305176</ele>
        <time>2019-09-09T08:14:03Z</time>
      </trkpt>
      <trkpt lat="48.32425" lon="7.65399">
        <ele>185.80000305176</ele>
        <time>2019-09-09T08:14:08Z</time>
      </trkpt>
      <trkpt lat="48.32387" lon="7.6537">
        <ele>185.80000305176</ele>
        <time>2019-09-09T08:14:16Z</time>
      </trkpt>
      <trkpt lat="48.32358" lon="7.65347">
        <ele>185.80000305176</ele>
        <time>2019-09-09T08:14:23Z</time>
      </trkpt>
      <trkpt lat="48.32339" lon="7.65332">
        <ele>185.80000305176</ele>
        <time>2019-09-09T08:14:28Z</time>
      </trkpt>
      <trkpt lat="48.32312" lon="7.65313">
        <ele>185.80000305176</ele>
        <time>2019-09-09T08:14:34Z</time>
      </trkpt>
      <trkpt lat="48.32276" lon="7.65286">
        <ele>185.80000305176</ele>
        <time>2019-09-09T08:14:41Z</time>
      </trkpt>
      <trkpt lat="48.32249" lon="7.65265">
        <ele>185.80000305176</ele>
        <time>2019-09-09T08:14:48Z</time>
      </trkpt>
      <trkpt lat="48.32224" lon="7.65245">
        <ele>185.60000610352</ele>
        <time>2019-09-09T08:14:54Z</time>
      </trkpt>
      <trkpt lat="48.32207" lon="7.65232">
        <ele>185.60000610352</ele>
        <time>2019-09-09T08:14:58Z</time>
      </trkpt>
      <trkpt lat="48.32195" lon="7.65222">
        <ele>185.60000610352</ele>
        <time>2019-09-09T08:15:00Z</time>
      </trkpt>
      <trkpt lat="48.32146" lon="7.65184">
        <ele>185.60000610352</ele>
        <time>2019-09-09T08:15:09Z</time>
      </trkpt>
      <trkpt lat="48.3214" lon="7.6518">
        <ele>185.60000610352</ele>
        <time>2019-09-09T08:15:10Z</time>
      </trkpt>
      <trkpt lat="48.32097" lon="7.65148">
        <ele>185.60000610352</ele>
        <time>2019-09-09T08:15:19Z</time>
      </trkpt>
      <trkpt lat="48.32088" lon="7.6514">
        <ele>185.60000610352</ele>
        <time>2019-09-09T08:15:21Z</time>
      </trkpt>
      <trkpt lat="48.32051" lon="7.65111">
        <ele>185.19999694824</ele>
        <time>2019-09-09T08:15:29Z</time>
      </trkpt>
      <trkpt lat="48.3202" lon="7.65086">
        <ele>185.19999694824</ele>
        <time>2019-09-09T08:15:36Z</time>
      </trkpt>
      <trkpt lat="48.31975" lon="7.65053">
        <ele>185.19999694824</ele>
        <time>2019-09-09T08:15:46Z</time>
      </trkpt>
      <trkpt lat="48.31954" lon="7.65038">
        <ele>185.39999389648</ele>
        <time>2019-09-09T08:15:52Z</time>
      </trkpt>
      <trkpt lat="48.3194" lon="7.65033">
        <ele>186</ele>
        <time>2019-09-09T08:15:58Z</time>
      </trkpt>
      <trkpt lat="48.31935" lon="7.65029">
        <ele>186.39999389648</ele>
        <time>2019-09-09T08:16:01Z</time>
      </trkpt>
      <trkpt lat="48.31933" lon="7.65025">
        <ele>186.80000305176</ele>
        <time>2019-09-09T08:16:03Z</time>
      </trkpt>
      <trkpt lat="48.31932" lon="7.65022">
        <ele>187.19999694824</ele>
        <time>2019-09-09T08:16:04Z</time>
      </trkpt>
      <trkpt lat="48.31935" lon="7.65007">
        <ele>188.19999694824</ele>
        <time>2019-09-09T08:16:08Z</time>
      </trkpt>
      <trkpt lat="48.31937" lon="7.65003">
        <ele>188.39999389648</ele>
        <time>2019-09-09T08:16:09Z</time>
      </trkpt>
      <trkpt lat="48.31944" lon="7.6499">
        <ele>189.19999694824</ele>
        <time>2019-09-09T08:16:13Z</time>
      </trkpt>
      <trkpt lat="48.31947" lon="7.64989">
        <ele>189.19999694824</ele>
        <time>2019-09-09T08:16:14Z</time>
      </trkpt>
      <trkpt lat="48.31958" lon="7.64998">
        <ele>189.39999389648</ele>
        <time>2019-09-09T08:16:17Z</time>
      </trkpt>
      <trkpt lat="48.31969" lon="7.65008">
        <ele>189.39999389648</ele>
        <time>2019-09-09T08:16:20Z</time>
      </trkpt>
      <trkpt lat="48.3197" lon="7.65012">
        <ele>189.39999389648</ele>
        <time>2019-09-09T08:16:21Z</time>
      </trkpt>
      <trkpt lat="48.31964" lon="7.65012">
        <ele>189.19999694824</ele>
        <time>2019-09-09T08:16:24Z</time>
      </trkpt>
      <trkpt lat="48.31959" lon="7.65008">
        <ele>188.19999694824</ele>
        <time>2019-09-09T08:16:26Z</time>
      </trkpt>
      <trkpt lat="48.31957" lon="7.65006">
        <ele>187.60000610352</ele>
        <time>2019-09-09T08:16:27Z</time>
      </trkpt>
      <trkpt lat="48.31951" lon="7.65004">
        <ele>186.19999694824</ele>
        <time>2019-09-09T08:16:29Z</time>
      </trkpt>
      <trkpt lat="48.31947" lon="7.65003">
        <ele>185.80000305176</ele>
        <time>2019-09-09T08:16:30Z</time>
      </trkpt>
      <trkpt lat="48.31931" lon="7.64995">
        <ele>185.60000610352</ele>
        <time>2019-09-09T08:16:35Z</time>
      </trkpt>
      <trkpt lat="48.31909" lon="7.64976">
        <ele>185.80000305176</ele>
        <time>2019-09-09T08:16:43Z</time>
      </trkpt>
      <trkpt lat="48.31899" lon="7.64956">
        <ele>186.80000305176</ele>
        <time>2019-09-09T08:16:48Z</time>
      </trkpt>
      <trkpt lat="48.31873" lon="7.64932">
        <ele>187</ele>
        <time>2019-09-09T08:16:55Z</time>
      </trkpt>
      <trkpt lat="48.31843" lon="7.6491">
        <ele>187.19999694824</ele>
        <time>2019-09-09T08:17:03Z</time>
      </trkpt>
      <trkpt lat="48.31817" lon="7.6489">
        <ele>187.19999694824</ele>
        <time>2019-09-09T08:17:10Z</time>
      </trkpt>
      <trkpt lat="48.31798" lon="7.64877">
        <ele>187.19999694824</ele>
        <time>2019-09-09T08:17:15Z</time>
      </trkpt>
      <trkpt lat="48.3179" lon="7.64871">
        <ele>187.19999694824</ele>
        <time>2019-09-09T08:17:17Z</time>
      </trkpt>
      <trkpt lat="48.31771" lon="7.6486">
        <ele>187.19999694824</ele>
        <time>2019-09-09T08:17:21Z</time>
      </trkpt>
      <trkpt lat="48.31747" lon="7.64844">
        <ele>187</ele>
        <time>2019-09-09T08:17:27Z</time>
      </trkpt>
      <trkpt lat="48.31739" lon="7.64837">
        <ele>187</ele>
        <time>2019-09-09T08:17:29Z</time>
      </trkpt>
      <trkpt lat="48.31727" lon="7.64829">
        <ele>187</ele>
        <time>2019-09-09T08:17:32Z</time>
      </trkpt>
      <trkpt lat="48.31711" lon="7.64817">
        <ele>187</ele>
        <time>2019-09-09T08:17:36Z</time>
      </trkpt>
      <trkpt lat="48.31683" lon="7.64795">
        <ele>187</ele>
        <time>2019-09-09T08:17:42Z</time>
      </trkpt>
      <trkpt lat="48.31651" lon="7.6477">
        <ele>187</ele>
        <time>2019-09-09T08:17:49Z</time>
      </trkpt>
      <trkpt lat="48.31618" lon="7.64744">
        <ele>187</ele>
        <time>2019-09-09T08:17:56Z</time>
      </trkpt>
      <trkpt lat="48.31566" lon="7.64704">
        <ele>187</ele>
        <time>2019-09-09T08:18:07Z</time>
      </trkpt>
      <trkpt lat="48.31529" lon="7.64675">
        <ele>187.19999694824</ele>
        <time>2019-09-09T08:18:15Z</time>
      </trkpt>
      <trkpt lat="48.31493" lon="7.64648">
        <ele>187</ele>
        <time>2019-09-09T08:18:23Z</time>
      </trkpt>
      <trkpt lat="48.31489" lon="7.64644">
        <ele>187</ele>
        <time>2019-09-09T08:18:24Z</time>
      </trkpt>
      <trkpt lat="48.31466" lon="7.64626">
        <ele>187</ele>
        <time>2019-09-09T08:18:29Z</time>
      </trkpt>
      <trkpt lat="48.31441" lon="7.64607">
        <ele>187</ele>
        <time>2019-09-09T08:18:35Z</time>
      </trkpt>
      <trkpt lat="48.31408" lon="7.64582">
        <ele>187</ele>
        <time>2019-09-09T08:18:42Z</time>
      </trkpt>
      <trkpt lat="48.31375" lon="7.64558">
        <ele>187.19999694824</ele>
        <time>2019-09-09T08:18:49Z</time>
      </trkpt>
      <trkpt lat="48.31342" lon="7.64532">
        <ele>187.39999389648</ele>
        <time>2019-09-09T08:18:56Z</time>
      </trkpt>
      <trkpt lat="48.3131" lon="7.64509">
        <ele>187.39999389648</ele>
        <time>2019-09-09T08:19:03Z</time>
      </trkpt>
      <trkpt lat="48.31275" lon="7.64483">
        <ele>187.19999694824</ele>
        <time>2019-09-09T08:19:11Z</time>
      </trkpt>
      <trkpt lat="48.31251" lon="7.64466">
        <ele>187.19999694824</ele>
        <time>2019-09-09T08:19:17Z</time>
      </trkpt>
      <trkpt lat="48.3123" lon="7.64449">
        <ele>187.19999694824</ele>
        <time>2019-09-09T08:19:22Z</time>
      </trkpt>
      <trkpt lat="48.31207" lon="7.64432">
        <ele>187.19999694824</ele>
        <time>2019-09-09T08:19:27Z</time>
      </trkpt>
      <trkpt lat="48.31178" lon="7.64407">
        <ele>187</ele>
        <time>2019-09-09T08:19:34Z</time>
      </trkpt>
      <trkpt lat="48.31151" lon="7.64385">
        <ele>187</ele>
        <time>2019-09-09T08:19:40Z</time>
      </trkpt>
      <trkpt lat="48.3113" lon="7.64368">
        <ele>187.19999694824</ele>
        <time>2019-09-09T08:19:45Z</time>
      </trkpt>
      <trkpt lat="48.31121" lon="7.64363">
        <ele>187.19999694824</ele>
        <time>2019-09-09T08:19:47Z</time>
      </trkpt>
      <trkpt lat="48.31102" lon="7.64351">
        <ele>187.19999694824</ele>
        <time>2019-09-09T08:19:51Z</time>
      </trkpt>
      <trkpt lat="48.31073" lon="7.64327">
        <ele>187</ele>
        <time>2019-09-09T08:19:57Z</time>
      </trkpt>
      <trkpt lat="48.31052" lon="7.6431">
        <ele>187</ele>
        <time>2019-09-09T08:20:02Z</time>
      </trkpt>
      <trkpt lat="48.31047" lon="7.64307">
        <ele>187</ele>
        <time>2019-09-09T08:20:03Z</time>
      </trkpt>
      <trkpt lat="48.31025" lon="7.64292">
        <ele>187</ele>
        <time>2019-09-09T08:20:08Z</time>
      </trkpt>
      <trkpt lat="48.31015" lon="7.64284">
        <ele>187</ele>
        <time>2019-09-09T08:20:10Z</time>
      </trkpt>
      <trkpt lat="48.30997" lon="7.6427">
        <ele>187.19999694824</ele>
        <time>2019-09-09T08:20:14Z</time>
      </trkpt>
      <trkpt lat="48.30972" lon="7.64251">
        <ele>187.19999694824</ele>
        <time>2019-09-09T08:20:19Z</time>
      </trkpt>
      <trkpt lat="48.30944" lon="7.64228">
        <ele>187.19999694824</ele>
        <time>2019-09-09T08:20:25Z</time>
      </trkpt>
      <trkpt lat="48.3091" lon="7.64203">
        <ele>187.19999694824</ele>
        <time>2019-09-09T08:20:32Z</time>
      </trkpt>
      <trkpt lat="48.30882" lon="7.6418">
        <ele>187.19999694824</ele>
        <time>2019-09-09T08:20:38Z</time>
      </trkpt>
      <trkpt lat="48.30853" lon="7.64157">
        <ele>187.19999694824</ele>
        <time>2019-09-09T08:20:44Z</time>
      </trkpt>
      <trkpt lat="48.30843" lon="7.6415">
        <ele>187.19999694824</ele>
        <time>2019-09-09T08:20:46Z</time>
      </trkpt>
      <trkpt lat="48.30827" lon="7.64139">
        <ele>187.39999389648</ele>
        <time>2019-09-09T08:20:49Z</time>
      </trkpt>
      <trkpt lat="48.308" lon="7.64118">
        <ele>187.39999389648</ele>
        <time>2019-09-09T08:20:55Z</time>
      </trkpt>
      <trkpt lat="48.30773" lon="7.64099">
        <ele>187.39999389648</ele>
        <time>2019-09-09T08:21:01Z</time>
      </trkpt>
      <trkpt lat="48.30769" lon="7.64096">
        <ele>187.39999389648</ele>
        <time>2019-09-09T08:21:02Z</time>
      </trkpt>
      <trkpt lat="48.30746" lon="7.64077">
        <ele>187.39999389648</ele>
        <time>2019-09-09T08:21:07Z</time>
      </trkpt>
      <trkpt lat="48.30716" lon="7.64054">
        <ele>187.39999389648</ele>
        <time>2019-09-09T08:21:13Z</time>
      </trkpt>
      <trkpt lat="48.30697" lon="7.64039">
        <ele>187.19999694824</ele>
        <time>2019-09-09T08:21:18Z</time>
      </trkpt>
      <trkpt lat="48.30689" lon="7.64033">
        <ele>187.19999694824</ele>
        <time>2019-09-09T08:21:20Z</time>
      </trkpt>
      <trkpt lat="48.30676" lon="7.64022">
        <ele>187.19999694824</ele>
        <time>2019-09-09T08:21:23Z</time>
      </trkpt>
      <trkpt lat="48.30672" lon="7.64019">
        <ele>187.19999694824</ele>
        <time>2019-09-09T08:21:24Z</time>
      </trkpt>
      <trkpt lat="48.30663" lon="7.64012">
        <ele>187.19999694824</ele>
        <time>2019-09-09T08:21:26Z</time>
      </trkpt>
      <trkpt lat="48.30648" lon="7.64002">
        <ele>187.19999694824</ele>
        <time>2019-09-09T08:21:29Z</time>
      </trkpt>
      <trkpt lat="48.30612" lon="7.63974">
        <ele>187.19999694824</ele>
        <time>2019-09-09T08:21:36Z</time>
      </trkpt>
      <trkpt lat="48.30577" lon="7.6395">
        <ele>187.39999389648</ele>
        <time>2019-09-09T08:21:43Z</time>
      </trkpt>
      <trkpt lat="48.30557" lon="7.63941">
        <ele>187.39999389648</ele>
        <time>2019-09-09T08:21:48Z</time>
      </trkpt>
      <trkpt lat="48.30533" lon="7.6392">
        <ele>187.80000305176</ele>
        <time>2019-09-09T08:21:55Z</time>
      </trkpt>
      <trkpt lat="48.3053" lon="7.63918">
        <ele>188</ele>
        <time>2019-09-09T08:21:56Z</time>
      </trkpt>
      <trkpt lat="48.30521" lon="7.63905">
        <ele>189</ele>
        <time>2019-09-09T08:22:01Z</time>
      </trkpt>
      <trkpt lat="48.30503" lon="7.63889">
        <ele>189.19999694824</ele>
        <time>2019-09-09T08:22:07Z</time>
      </trkpt>
      <trkpt lat="48.30479" lon="7.63868">
        <ele>189.39999389648</ele>
        <time>2019-09-09T08:22:14Z</time>
      </trkpt>
      <trkpt lat="48.30457" lon="7.63851">
        <ele>189.39999389648</ele>
        <time>2019-09-09T08:22:20Z</time>
      </trkpt>
      <trkpt lat="48.30432" lon="7.63832">
        <ele>189.19999694824</ele>
        <time>2019-09-09T08:22:26Z</time>
      </trkpt>
      <trkpt lat="48.30395" lon="7.63804">
        <ele>189.19999694824</ele>
        <time>2019-09-09T08:22:34Z</time>
      </trkpt>
      <trkpt lat="48.30368" lon="7.63784">
        <ele>189.39999389648</ele>
        <time>2019-09-09T08:22:40Z</time>
      </trkpt>
      <trkpt lat="48.30337" lon="7.63758">
        <ele>189.60000610352</ele>
        <time>2019-09-09T08:22:47Z</time>
      </trkpt>
      <trkpt lat="48.30309" lon="7.63732">
        <ele>189.60000610352</ele>
        <time>2019-09-09T08:22:54Z</time>
      </trkpt>
      <trkpt lat="48.30282" lon="7.6371">
        <ele>189.39999389648</ele>
        <time>2019-09-09T08:23:00Z</time>
      </trkpt>
      <trkpt lat="48.30258" lon="7.63694">
        <ele>189.39999389648</ele>
        <time>2019-09-09T08:23:05Z</time>
      </trkpt>
      <trkpt lat="48.30228" lon="7.63675">
        <ele>189.60000610352</ele>
        <time>2019-09-09T08:23:11Z</time>
      </trkpt>
      <trkpt lat="48.30204" lon="7.63659">
        <ele>189.39999389648</ele>
        <time>2019-09-09T08:23:16Z</time>
      </trkpt>
      <trkpt lat="48.30167" lon="7.6363">
        <ele>189.39999389648</ele>
        <time>2019-09-09T08:23:24Z</time>
      </trkpt>
      <trkpt lat="48.30133" lon="7.63607">
        <ele>189.39999389648</ele>
        <time>2019-09-09T08:23:31Z</time>
      </trkpt>
      <trkpt lat="48.30105" lon="7.63586">
        <ele>189.19999694824</ele>
        <time>2019-09-09T08:23:37Z</time>
      </trkpt>
      <trkpt lat="48.30074" lon="7.6356">
        <ele>189.39999389648</ele>
        <time>2019-09-09T08:23:44Z</time>
      </trkpt>
      <trkpt lat="48.30051" lon="7.63544">
        <ele>189.39999389648</ele>
        <time>2019-09-09T08:23:49Z</time>
      </trkpt>
      <trkpt lat="48.30033" lon="7.63529">
        <ele>189.19999694824</ele>
        <time>2019-09-09T08:23:54Z</time>
      </trkpt>
      <trkpt lat="48.30005" lon="7.63507">
        <ele>189.19999694824</ele>
        <time>2019-09-09T08:24:00Z</time>
      </trkpt>
      <trkpt lat="48.29972" lon="7.63482">
        <ele>189.19999694824</ele>
        <time>2019-09-09T08:24:07Z</time>
      </trkpt>
      <trkpt lat="48.29939" lon="7.63454">
        <ele>189.19999694824</ele>
        <time>2019-09-09T08:24:14Z</time>
      </trkpt>
      <trkpt lat="48.2991" lon="7.63432">
        <ele>189.19999694824</ele>
        <time>2019-09-09T08:24:20Z</time>
      </trkpt>
      <trkpt lat="48.29897" lon="7.63421">
        <ele>189.19999694824</ele>
        <time>2019-09-09T08:24:23Z</time>
      </trkpt>
      <trkpt lat="48.29879" lon="7.63406">
        <ele>189.19999694824</ele>
        <time>2019-09-09T08:24:27Z</time>
      </trkpt>
      <trkpt lat="48.29837" lon="7.63375">
        <ele>189.39999389648</ele>
        <time>2019-09-09T08:24:36Z</time>
      </trkpt>
      <trkpt lat="48.29805" lon="7.63351">
        <ele>189.39999389648</ele>
        <time>2019-09-09T08:24:43Z</time>
      </trkpt>
      <trkpt lat="48.29774" lon="7.63327">
        <ele>189.39999389648</ele>
        <time>2019-09-09T08:24:50Z</time>
      </trkpt>
      <trkpt lat="48.29747" lon="7.63308">
        <ele>189.39999389648</ele>
        <time>2019-09-09T08:24:56Z</time>
      </trkpt>
      <trkpt lat="48.29735" lon="7.63298">
        <ele>189.39999389648</ele>
        <time>2019-09-09T08:24:59Z</time>
      </trkpt>
      <trkpt lat="48.29719" lon="7.63286">
        <ele>189.39999389648</ele>
        <time>2019-09-09T08:25:03Z</time>
      </trkpt>
      <trkpt lat="48.29705" lon="7.63276">
        <ele>189.39999389648</ele>
        <time>2019-09-09T08:25:06Z</time>
      </trkpt>
      <trkpt lat="48.29694" lon="7.63268">
        <ele>189.39999389648</ele>
        <time>2019-09-09T08:25:08Z</time>
      </trkpt>
      <trkpt lat="48.29659" lon="7.63239">
        <ele>189.60000610352</ele>
        <time>2019-09-09T08:25:15Z</time>
      </trkpt>
      <trkpt lat="48.2962" lon="7.63209">
        <ele>189.60000610352</ele>
        <time>2019-09-09T08:25:23Z</time>
      </trkpt>
      <trkpt lat="48.29592" lon="7.63187">
        <ele>189.60000610352</ele>
        <time>2019-09-09T08:25:29Z</time>
      </trkpt>
      <trkpt lat="48.29565" lon="7.63166">
        <ele>189.80000305176</ele>
        <time>2019-09-09T08:25:35Z</time>
      </trkpt>
      <trkpt lat="48.29538" lon="7.63149">
        <ele>189.80000305176</ele>
        <time>2019-09-09T08:25:41Z</time>
      </trkpt>
      <trkpt lat="48.29517" lon="7.63133">
        <ele>189.80000305176</ele>
        <time>2019-09-09T08:25:46Z</time>
      </trkpt>
      <trkpt lat="48.29513" lon="7.6313">
        <ele>189.80000305176</ele>
        <time>2019-09-09T08:25:47Z</time>
      </trkpt>
      <trkpt lat="48.2949" lon="7.63113">
        <ele>189.80000305176</ele>
        <time>2019-09-09T08:25:51Z</time>
      </trkpt>
      <trkpt lat="48.29462" lon="7.63089">
        <ele>189.60000610352</ele>
        <time>2019-09-09T08:25:57Z</time>
      </trkpt>
      <trkpt lat="48.29427" lon="7.63062">
        <ele>189.60000610352</ele>
        <time>2019-09-09T08:26:04Z</time>
      </trkpt>
      <trkpt lat="48.29398" lon="7.6304">
        <ele>189.60000610352</ele>
        <time>2019-09-09T08:26:11Z</time>
      </trkpt>
      <trkpt lat="48.29382" lon="7.63031">
        <ele>189.80000305176</ele>
        <time>2019-09-09T08:26:16Z</time>
      </trkpt>
      <trkpt lat="48.2936" lon="7.63015">
        <ele>190</ele>
        <time>2019-09-09T08:26:21Z</time>
      </trkpt>
      <trkpt lat="48.29328" lon="7.62987">
        <ele>190.19999694824</ele>
        <time>2019-09-09T08:26:28Z</time>
      </trkpt>
      <trkpt lat="48.29281" lon="7.62949">
        <ele>190.19999694824</ele>
        <time>2019-09-09T08:26:38Z</time>
      </trkpt>
      <trkpt lat="48.2925" lon="7.62926">
        <ele>190</ele>
        <time>2019-09-09T08:26:45Z</time>
      </trkpt>
      <trkpt lat="48.29212" lon="7.62898">
        <ele>189.80000305176</ele>
        <time>2019-09-09T08:26:53Z</time>
      </trkpt>
      <trkpt lat="48.29171" lon="7.62865">
        <ele>189.80000305176</ele>
        <time>2019-09-09T08:27:02Z</time>
      </trkpt>
      <trkpt lat="48.2914" lon="7.62841">
        <ele>189.80000305176</ele>
        <time>2019-09-09T08:27:09Z</time>
      </trkpt>
      <trkpt lat="48.29108" lon="7.62815">
        <ele>189.80000305176</ele>
        <time>2019-09-09T08:27:17Z</time>
      </trkpt>
      <trkpt lat="48.29103" lon="7.62811">
        <ele>189.80000305176</ele>
        <time>2019-09-09T08:27:18Z</time>
      </trkpt>
      <trkpt lat="48.29078" lon="7.62794">
        <ele>189.80000305176</ele>
        <time>2019-09-09T08:27:23Z</time>
      </trkpt>
      <trkpt lat="48.29029" lon="7.62757">
        <ele>190</ele>
        <time>2019-09-09T08:27:33Z</time>
      </trkpt>
      <trkpt lat="48.2902" lon="7.62749">
        <ele>190</ele>
        <time>2019-09-09T08:27:35Z</time>
      </trkpt>
      <trkpt lat="48.29001" lon="7.62734">
        <ele>190</ele>
        <time>2019-09-09T08:27:39Z</time>
      </trkpt>
      <trkpt lat="48.28955" lon="7.62697">
        <ele>190</ele>
        <time>2019-09-09T08:27:49Z</time>
      </trkpt>
      <trkpt lat="48.28924" lon="7.62673">
        <ele>190</ele>
        <time>2019-09-09T08:27:56Z</time>
      </trkpt>
      <trkpt lat="48.28896" lon="7.62652">
        <ele>190</ele>
        <time>2019-09-09T08:28:02Z</time>
      </trkpt>
      <trkpt lat="48.28854" lon="7.62618">
        <ele>190</ele>
        <time>2019-09-09T08:28:11Z</time>
      </trkpt>
      <trkpt lat="48.28816" lon="7.6259">
        <ele>190.19999694824</ele>
        <time>2019-09-09T08:28:19Z</time>
      </trkpt>
      <trkpt lat="48.28789" lon="7.62569">
        <ele>190.19999694824</ele>
        <time>2019-09-09T08:28:25Z</time>
      </trkpt>
      <trkpt lat="48.28748" lon="7.62538">
        <ele>190.19999694824</ele>
        <time>2019-09-09T08:28:34Z</time>
      </trkpt>
      <trkpt lat="48.28711" lon="7.6251">
        <ele>190.19999694824</ele>
        <time>2019-09-09T08:28:42Z</time>
      </trkpt>
      <trkpt lat="48.28706" lon="7.62506">
        <ele>190.19999694824</ele>
        <time>2019-09-09T08:28:43Z</time>
      </trkpt>
      <trkpt lat="48.28678" lon="7.62484">
        <ele>190.19999694824</ele>
        <time>2019-09-09T08:28:49Z</time>
      </trkpt>
      <trkpt lat="48.28641" lon="7.62456">
        <ele>190</ele>
        <time>2019-09-09T08:28:57Z</time>
      </trkpt>
      <trkpt lat="48.286" lon="7.62423">
        <ele>190</ele>
        <time>2019-09-09T08:29:06Z</time>
      </trkpt>
      <trkpt lat="48.28563" lon="7.62395">
        <ele>190.19999694824</ele>
        <time>2019-09-09T08:29:14Z</time>
      </trkpt>
      <trkpt lat="48.28531" lon="7.62369">
        <ele>190.19999694824</ele>
        <time>2019-09-09T08:29:21Z</time>
      </trkpt>
      <trkpt lat="48.28495" lon="7.62342">
        <ele>190.19999694824</ele>
        <time>2019-09-09T08:29:29Z</time>
      </trkpt>
      <trkpt lat="48.28491" lon="7.62339">
        <ele>190.19999694824</ele>
        <time>2019-09-09T08:29:30Z</time>
      </trkpt>
      <trkpt lat="48.28475" lon="7.62329">
        <ele>190.19999694824</ele>
        <time>2019-09-09T08:29:34Z</time>
      </trkpt>
      <trkpt lat="48.2845" lon="7.62309">
        <ele>190.19999694824</ele>
        <time>2019-09-09T08:29:40Z</time>
      </trkpt>
      <trkpt lat="48.28424" lon="7.62288">
        <ele>190.19999694824</ele>
        <time>2019-09-09T08:29:46Z</time>
      </trkpt>
      <trkpt lat="48.28396" lon="7.62267">
        <ele>190.19999694824</ele>
        <time>2019-09-09T08:29:52Z</time>
      </trkpt>
      <trkpt lat="48.28392" lon="7.62263">
        <ele>190.19999694824</ele>
        <time>2019-09-09T08:29:53Z</time>
      </trkpt>
      <trkpt lat="48.2836" lon="7.62239">
        <ele>190</ele>
        <time>2019-09-09T08:30:00Z</time>
      </trkpt>
      <trkpt lat="48.28351" lon="7.62231">
        <ele>190</ele>
        <time>2019-09-09T08:30:02Z</time>
      </trkpt>
      <trkpt lat="48.28332" lon="7.62216">
        <ele>190</ele>
        <time>2019-09-09T08:30:06Z</time>
      </trkpt>
      <trkpt lat="48.28302" lon="7.62192">
        <ele>190.39999389648</ele>
        <time>2019-09-09T08:30:13Z</time>
      </trkpt>
      <trkpt lat="48.28264" lon="7.62163">
        <ele>190.39999389648</ele>
        <time>2019-09-09T08:30:22Z</time>
      </trkpt>
      <trkpt lat="48.28249" lon="7.62151">
        <ele>190.39999389648</ele>
        <time>2019-09-09T08:30:26Z</time>
      </trkpt>
      <trkpt lat="48.28235" lon="7.62142">
        <ele>190.39999389648</ele>
        <time>2019-09-09T08:30:30Z</time>
      </trkpt>
      <trkpt lat="48.28233" lon="7.62141">
        <ele>190.39999389648</ele>
        <time>2019-09-09T08:30:33Z</time>
      </trkpt>
      <trkpt lat="48.28231" lon="7.62138">
        <ele>190</ele>
        <time>2019-09-09T08:30:54Z</time>
      </trkpt>
      <trkpt lat="48.28227" lon="7.62135">
        <ele>190</ele>
        <time>2019-09-09T08:30:57Z</time>
      </trkpt>
      <trkpt lat="48.28226" lon="7.62135">
        <ele>190</ele>
        <time>2019-09-09T08:31:00Z</time>
      </trkpt>
      <trkpt lat="48.28224" lon="7.62134">
        <ele>189.80000305176</ele>
        <time>2019-09-09T08:31:54Z</time>
      </trkpt>
      <trkpt lat="48.28223" lon="7.62133">
        <ele>189.80000305176</ele>
        <time>2019-09-09T08:31:55Z</time>
      </trkpt>
      <trkpt lat="48.28211" lon="7.62124">
        <ele>189.80000305176</ele>
        <time>2019-09-09T08:32:00Z</time>
      </trkpt>
      <trkpt lat="48.2819" lon="7.62108">
        <ele>189.80000305176</ele>
        <time>2019-09-09T08:32:06Z</time>
      </trkpt>
      <trkpt lat="48.28163" lon="7.62087">
        <ele>190</ele>
        <time>2019-09-09T08:32:13Z</time>
      </trkpt>
      <trkpt lat="48.28131" lon="7.62061">
        <ele>190</ele>
        <time>2019-09-09T08:32:21Z</time>
      </trkpt>
      <trkpt lat="48.28116" lon="7.62052">
        <ele>190</ele>
        <time>2019-09-09T08:32:25Z</time>
      </trkpt>
      <trkpt lat="48.28108" lon="7.62052">
        <ele>190</ele>
        <time>2019-09-09T08:32:27Z</time>
      </trkpt>
      <trkpt lat="48.28095" lon="7.62046">
        <ele>190.19999694824</ele>
        <time>2019-09-09T08:32:32Z</time>
      </trkpt>
      <trkpt lat="48.28078" lon="7.62032">
        <ele>190.60000610352</ele>
        <time>2019-09-09T08:32:38Z</time>
      </trkpt>
      <trkpt lat="48.28057" lon="7.6201">
        <ele>191.39999389648</ele>
        <time>2019-09-09T08:32:45Z</time>
      </trkpt>
      <trkpt lat="48.28054" lon="7.62007">
        <ele>191.80000305176</ele>
        <time>2019-09-09T08:32:46Z</time>
      </trkpt>
      <trkpt lat="48.28037" lon="7.61993">
        <ele>191.80000305176</ele>
        <time>2019-09-09T08:32:51Z</time>
      </trkpt>
      <trkpt lat="48.28017" lon="7.61974">
        <ele>192</ele>
        <time>2019-09-09T08:32:56Z</time>
      </trkpt>
      <trkpt lat="48.28008" lon="7.61967">
        <ele>192</ele>
        <time>2019-09-09T08:32:58Z</time>
      </trkpt>
      <trkpt lat="48.27971" lon="7.61939">
        <ele>192</ele>
        <time>2019-09-09T08:33:06Z</time>
      </trkpt>
      <trkpt lat="48.27937" lon="7.61913">
        <ele>192</ele>
        <time>2019-09-09T08:33:14Z</time>
      </trkpt>
      <trkpt lat="48.27909" lon="7.6189">
        <ele>192</ele>
        <time>2019-09-09T08:33:21Z</time>
      </trkpt>
      <trkpt lat="48.27905" lon="7.61887">
        <ele>192</ele>
        <time>2019-09-09T08:33:22Z</time>
      </trkpt>
      <trkpt lat="48.27889" lon="7.61872">
        <ele>192.19999694824</ele>
        <time>2019-09-09T08:33:26Z</time>
      </trkpt>
      <trkpt lat="48.27862" lon="7.61853">
        <ele>192.39999389648</ele>
        <time>2019-09-09T08:33:32Z</time>
      </trkpt>
      <trkpt lat="48.27829" lon="7.6183">
        <ele>192.60000610352</ele>
        <time>2019-09-09T08:33:39Z</time>
      </trkpt>
      <trkpt lat="48.27788" lon="7.61798">
        <ele>192.39999389648</ele>
        <time>2019-09-09T08:33:48Z</time>
      </trkpt>
      <trkpt lat="48.27738" lon="7.6176">
        <ele>192.39999389648</ele>
        <time>2019-09-09T08:33:59Z</time>
      </trkpt>
      <trkpt lat="48.27708" lon="7.61736">
        <ele>192.39999389648</ele>
        <time>2019-09-09T08:34:06Z</time>
      </trkpt>
      <trkpt lat="48.27676" lon="7.61713">
        <ele>192.39999389648</ele>
        <time>2019-09-09T08:34:13Z</time>
      </trkpt>
      <trkpt lat="48.27652" lon="7.61694">
        <ele>192.39999389648</ele>
        <time>2019-09-09T08:34:19Z</time>
      </trkpt>
      <trkpt lat="48.27648" lon="7.61691">
        <ele>192.39999389648</ele>
        <time>2019-09-09T08:34:20Z</time>
      </trkpt>
      <trkpt lat="48.27625" lon="7.61673">
        <ele>192.39999389648</ele>
        <time>2019-09-09T08:34:25Z</time>
      </trkpt>
      <trkpt lat="48.27599" lon="7.61654">
        <ele>192.39999389648</ele>
        <time>2019-09-09T08:34:31Z</time>
      </trkpt>
      <trkpt lat="48.27572" lon="7.61632">
        <ele>192.39999389648</ele>
        <time>2019-09-09T08:34:37Z</time>
      </trkpt>
      <trkpt lat="48.27563" lon="7.61625">
        <ele>192.39999389648</ele>
        <time>2019-09-09T08:34:39Z</time>
      </trkpt>
      <trkpt lat="48.27544" lon="7.61611">
        <ele>192.39999389648</ele>
        <time>2019-09-09T08:34:43Z</time>
      </trkpt>
      <trkpt lat="48.27512" lon="7.61584">
        <ele>192.39999389648</ele>
        <time>2019-09-09T08:34:50Z</time>
      </trkpt>
      <trkpt lat="48.27488" lon="7.61568">
        <ele>192.60000610352</ele>
        <time>2019-09-09T08:34:55Z</time>
      </trkpt>
      <trkpt lat="48.27483" lon="7.61565">
        <ele>192.60000610352</ele>
        <time>2019-09-09T08:34:56Z</time>
      </trkpt>
      <trkpt lat="48.27456" lon="7.61544">
        <ele>192.60000610352</ele>
        <time>2019-09-09T08:35:02Z</time>
      </trkpt>
      <trkpt lat="48.27423" lon="7.61519">
        <ele>192.60000610352</ele>
        <time>2019-09-09T08:35:09Z</time>
      </trkpt>
      <trkpt lat="48.27392" lon="7.61498">
        <ele>192.39999389648</ele>
        <time>2019-09-09T08:35:16Z</time>
      </trkpt>
      <trkpt lat="48.27378" lon="7.61488">
        <ele>192.39999389648</ele>
        <time>2019-09-09T08:35:19Z</time>
      </trkpt>
      <trkpt lat="48.27362" lon="7.61473">
        <ele>192.39999389648</ele>
        <time>2019-09-09T08:35:23Z</time>
      </trkpt>
      <trkpt lat="48.27346" lon="7.6146">
        <ele>192.39999389648</ele>
        <time>2019-09-09T08:35:27Z</time>
      </trkpt>
      <trkpt lat="48.27337" lon="7.61454">
        <ele>192.19999694824</ele>
        <time>2019-09-09T08:35:29Z</time>
      </trkpt>
      <trkpt lat="48.27333" lon="7.61452">
        <ele>192.39999389648</ele>
        <time>2019-09-09T08:35:30Z</time>
      </trkpt>
      <trkpt lat="48.27302" lon="7.61428">
        <ele>192.39999389648</ele>
        <time>2019-09-09T08:35:37Z</time>
      </trkpt>
      <trkpt lat="48.27266" lon="7.61399">
        <ele>192.60000610352</ele>
        <time>2019-09-09T08:35:45Z</time>
      </trkpt>
      <trkpt lat="48.27238" lon="7.61378">
        <ele>192.80000305176</ele>
        <time>2019-09-09T08:35:51Z</time>
      </trkpt>
      <trkpt lat="48.27195" lon="7.61345">
        <ele>192.60000610352</ele>
        <time>2019-09-09T08:36:00Z</time>
      </trkpt>
      <trkpt lat="48.27159" lon="7.61317">
        <ele>192.60000610352</ele>
        <time>2019-09-09T08:36:08Z</time>
      </trkpt>
      <trkpt lat="48.27126" lon="7.6129">
        <ele>192.60000610352</ele>
        <time>2019-09-09T08:36:16Z</time>
      </trkpt>
      <trkpt lat="48.27106" lon="7.61275">
        <ele>192.60000610352</ele>
        <time>2019-09-09T08:36:21Z</time>
      </trkpt>
      <trkpt lat="48.27076" lon="7.61253">
        <ele>192.60000610352</ele>
        <time>2019-09-09T08:36:27Z</time>
      </trkpt>
      <trkpt lat="48.2705" lon="7.61234">
        <ele>192.39999389648</ele>
        <time>2019-09-09T08:36:33Z</time>
      </trkpt>
      <trkpt lat="48.27015" lon="7.61208">
        <ele>192.39999389648</ele>
        <time>2019-09-09T08:36:40Z</time>
      </trkpt>
      <trkpt lat="48.26986" lon="7.61186">
        <ele>192.39999389648</ele>
        <time>2019-09-09T08:36:46Z</time>
      </trkpt>
      <trkpt lat="48.26942" lon="7.61155">
        <ele>192.39999389648</ele>
        <time>2019-09-09T08:36:55Z</time>
      </trkpt>
      <trkpt lat="48.26904" lon="7.61126">
        <ele>192.19999694824</ele>
        <time>2019-09-09T08:37:03Z</time>
      </trkpt>
      <trkpt lat="48.26868" lon="7.61096">
        <ele>192.19999694824</ele>
        <time>2019-09-09T08:37:11Z</time>
      </trkpt>
      <trkpt lat="48.26844" lon="7.61077">
        <ele>192.19999694824</ele>
        <time>2019-09-09T08:37:17Z</time>
      </trkpt>
      <trkpt lat="48.26809" lon="7.61047">
        <ele>192.19999694824</ele>
        <time>2019-09-09T08:37:25Z</time>
      </trkpt>
      <trkpt lat="48.26778" lon="7.61024">
        <ele>192.39999389648</ele>
        <time>2019-09-09T08:37:32Z</time>
      </trkpt>
      <trkpt lat="48.26752" lon="7.61004">
        <ele>192.39999389648</ele>
        <time>2019-09-09T08:37:38Z</time>
      </trkpt>
      <trkpt lat="48.26736" lon="7.60992">
        <ele>192.39999389648</ele>
        <time>2019-09-09T08:37:42Z</time>
      </trkpt>
      <trkpt lat="48.26731" lon="7.6099">
        <ele>192.39999389648</ele>
        <time>2019-09-09T08:37:43Z</time>
      </trkpt>
      <trkpt lat="48.26722" lon="7.60987">
        <ele>192.39999389648</ele>
        <time>2019-09-09T08:37:45Z</time>
      </trkpt>
      <trkpt lat="48.2671" lon="7.60983">
        <ele>192.39999389648</ele>
        <time>2019-09-09T08:37:48Z</time>
      </trkpt>
      <trkpt lat="48.26693" lon="7.60971">
        <ele>192.60000610352</ele>
        <time>2019-09-09T08:37:54Z</time>
      </trkpt>
      <trkpt lat="48.26684" lon="7.60963">
        <ele>192.80000305176</ele>
        <time>2019-09-09T08:37:57Z</time>
      </trkpt>
      <trkpt lat="48.26671" lon="7.6095">
        <ele>193.39999389648</ele>
        <time>2019-09-09T08:38:01Z</time>
      </trkpt>
      <trkpt lat="48.26666" lon="7.60943">
        <ele>193.80000305176</ele>
        <time>2019-09-09T08:38:03Z</time>
      </trkpt>
      <trkpt lat="48.26655" lon="7.60934">
        <ele>194.19999694824</ele>
        <time>2019-09-09T08:38:06Z</time>
      </trkpt>
      <trkpt lat="48.2662" lon="7.60905">
        <ele>194.39999389648</ele>
        <time>2019-09-09T08:38:15Z</time>
      </trkpt>
      <trkpt lat="48.26611" lon="7.60899">
        <ele>194.60000610352</ele>
        <time>2019-09-09T08:38:17Z</time>
      </trkpt>
      <trkpt lat="48.26593" lon="7.60888">
        <ele>194.39999389648</ele>
        <time>2019-09-09T08:38:21Z</time>
      </trkpt>
      <trkpt lat="48.26557" lon="7.60861">
        <ele>194.19999694824</ele>
        <time>2019-09-09T08:38:29Z</time>
      </trkpt>
      <trkpt lat="48.26519" lon="7.60833">
        <ele>194.19999694824</ele>
        <time>2019-09-09T08:38:37Z</time>
      </trkpt>
      <trkpt lat="48.26492" lon="7.60812">
        <ele>194.19999694824</ele>
        <time>2019-09-09T08:38:43Z</time>
      </trkpt>
      <trkpt lat="48.26461" lon="7.60788">
        <ele>194.19999694824</ele>
        <time>2019-09-09T08:38:50Z</time>
      </trkpt>
      <trkpt lat="48.26456" lon="7.60785">
        <ele>194.19999694824</ele>
        <time>2019-09-09T08:38:51Z</time>
      </trkpt>
      <trkpt lat="48.26431" lon="7.60768">
        <ele>194.19999694824</ele>
        <time>2019-09-09T08:38:57Z</time>
      </trkpt>
      <trkpt lat="48.26399" lon="7.60742">
        <ele>194.39999389648</ele>
        <time>2019-09-09T08:39:04Z</time>
      </trkpt>
      <trkpt lat="48.26371" lon="7.60719">
        <ele>194.60000610352</ele>
        <time>2019-09-09T08:39:10Z</time>
      </trkpt>
      <trkpt lat="48.2634" lon="7.60694">
        <ele>194.60000610352</ele>
        <time>2019-09-09T08:39:17Z</time>
      </trkpt>
      <trkpt lat="48.26298" lon="7.60659">
        <ele>194.60000610352</ele>
        <time>2019-09-09T08:39:26Z</time>
      </trkpt>
      <trkpt lat="48.26265" lon="7.60631">
        <ele>194.60000610352</ele>
        <time>2019-09-09T08:39:33Z</time>
      </trkpt>
      <trkpt lat="48.26234" lon="7.60607">
        <ele>194.60000610352</ele>
        <time>2019-09-09T08:39:40Z</time>
      </trkpt>
      <trkpt lat="48.26198" lon="7.6058">
        <ele>194.80000305176</ele>
        <time>2019-09-09T08:39:48Z</time>
      </trkpt>
      <trkpt lat="48.26165" lon="7.60554">
        <ele>194.60000610352</ele>
        <time>2019-09-09T08:39:55Z</time>
      </trkpt>
      <trkpt lat="48.26135" lon="7.60528">
        <ele>194.60000610352</ele>
        <time>2019-09-09T08:40:02Z</time>
      </trkpt>
      <trkpt lat="48.2613" lon="7.60525">
        <ele>194.60000610352</ele>
        <time>2019-09-09T08:40:03Z</time>
      </trkpt>
      <trkpt lat="48.26114" lon="7.60512">
        <ele>194.60000610352</ele>
        <time>2019-09-09T08:40:08Z</time>
      </trkpt>
      <trkpt lat="48.26113" lon="7.6051">
        <ele>194.60000610352</ele>
        <time>2019-09-09T08:40:10Z</time>
      </trkpt>
      <trkpt lat="48.26112" lon="7.60509">
        <ele>194.60000610352</ele>
        <time>2019-09-09T08:40:37Z</time>
      </trkpt>
      <trkpt lat="48.26111" lon="7.60508">
        <ele>194.60000610352</ele>
        <time>2019-09-09T08:40:38Z</time>
      </trkpt>
      <trkpt lat="48.26097" lon="7.60498">
        <ele>194.60000610352</ele>
        <time>2019-09-09T08:40:43Z</time>
      </trkpt>
      <trkpt lat="48.2607" lon="7.60478">
        <ele>194.60000610352</ele>
        <time>2019-09-09T08:40:50Z</time>
      </trkpt>
      <trkpt lat="48.2604" lon="7.60455">
        <ele>194.60000610352</ele>
        <time>2019-09-09T08:40:57Z</time>
      </trkpt>
      <trkpt lat="48.26001" lon="7.60426">
        <ele>194.80000305176</ele>
        <time>2019-09-09T08:41:06Z</time>
      </trkpt>
      <trkpt lat="48.25965" lon="7.60399">
        <ele>195</ele>
        <time>2019-09-09T08:41:14Z</time>
      </trkpt>
      <trkpt lat="48.25938" lon="7.6038">
        <ele>195.19999694824</ele>
        <time>2019-09-09T08:41:20Z</time>
      </trkpt>
      <trkpt lat="48.25909" lon="7.60355">
        <ele>195.19999694824</ele>
        <time>2019-09-09T08:41:27Z</time>
      </trkpt>
      <trkpt lat="48.25876" lon="7.60331">
        <ele>195.39999389648</ele>
        <time>2019-09-09T08:41:34Z</time>
      </trkpt>
      <trkpt lat="48.25848" lon="7.6031">
        <ele>195.19999694824</ele>
        <time>2019-09-09T08:41:40Z</time>
      </trkpt>
      <trkpt lat="48.25816" lon="7.60284">
        <ele>195.19999694824</ele>
        <time>2019-09-09T08:41:47Z</time>
      </trkpt>
      <trkpt lat="48.25779" lon="7.60254">
        <ele>195</ele>
        <time>2019-09-09T08:41:55Z</time>
      </trkpt>
      <trkpt lat="48.25746" lon="7.60229">
        <ele>195</ele>
        <time>2019-09-09T08:42:02Z</time>
      </trkpt>
      <trkpt lat="48.2571" lon="7.60201">
        <ele>195.19999694824</ele>
        <time>2019-09-09T08:42:10Z</time>
      </trkpt>
      <trkpt lat="48.25682" lon="7.60179">
        <ele>195.39999389648</ele>
        <time>2019-09-09T08:42:16Z</time>
      </trkpt>
      <trkpt lat="48.25673" lon="7.60172">
        <ele>195.39999389648</ele>
        <time>2019-09-09T08:42:18Z</time>
      </trkpt>
      <trkpt lat="48.25637" lon="7.60144">
        <ele>195.39999389648</ele>
        <time>2019-09-09T08:42:26Z</time>
      </trkpt>
      <trkpt lat="48.25601" lon="7.60116">
        <ele>195.19999694824</ele>
        <time>2019-09-09T08:42:34Z</time>
      </trkpt>
      <trkpt lat="48.25564" lon="7.60088">
        <ele>195</ele>
        <time>2019-09-09T08:42:42Z</time>
      </trkpt>
      <trkpt lat="48.25523" lon="7.60057">
        <ele>195</ele>
        <time>2019-09-09T08:42:51Z</time>
      </trkpt>
      <trkpt lat="48.25483" lon="7.60028">
        <ele>195.39999389648</ele>
        <time>2019-09-09T08:43:00Z</time>
      </trkpt>
      <trkpt lat="48.25454" lon="7.60004">
        <ele>195.39999389648</ele>
        <time>2019-09-09T08:43:07Z</time>
      </trkpt>
      <trkpt lat="48.25423" lon="7.5998">
        <ele>195.60000610352</ele>
        <time>2019-09-09T08:43:14Z</time>
      </trkpt>
      <trkpt lat="48.25395" lon="7.5996">
        <ele>195.60000610352</ele>
        <time>2019-09-09T08:43:20Z</time>
      </trkpt>
      <trkpt lat="48.25369" lon="7.5994">
        <ele>195.60000610352</ele>
        <time>2019-09-09T08:43:26Z</time>
      </trkpt>
      <trkpt lat="48.25356" lon="7.5993">
        <ele>195.60000610352</ele>
        <time>2019-09-09T08:43:29Z</time>
      </trkpt>
      <trkpt lat="48.25348" lon="7.5992">
        <ele>195.60000610352</ele>
        <time>2019-09-09T08:43:31Z</time>
      </trkpt>
      <trkpt lat="48.25341" lon="7.59901">
        <ele>195.60000610352</ele>
        <time>2019-09-09T08:43:34Z</time>
      </trkpt>
      <trkpt lat="48.25339" lon="7.59895">
        <ele>195.39999389648</ele>
        <time>2019-09-09T08:43:35Z</time>
      </trkpt>
      <trkpt lat="48.25328" lon="7.59866">
        <ele>195.60000610352</ele>
        <time>2019-09-09T08:43:41Z</time>
      </trkpt>
      <trkpt lat="48.25313" lon="7.59855">
        <ele>195.60000610352</ele>
        <time>2019-09-09T08:43:46Z</time>
      </trkpt>
      <trkpt lat="48.25289" lon="7.59842">
        <ele>195.80000305176</ele>
        <time>2019-09-09T08:43:52Z</time>
      </trkpt>
      <trkpt lat="48.25275" lon="7.59836">
        <ele>195.80000305176</ele>
        <time>2019-09-09T08:43:55Z</time>
      </trkpt>
      <trkpt lat="48.25264" lon="7.59835">
        <ele>195.80000305176</ele>
        <time>2019-09-09T08:43:57Z</time>
      </trkpt>
      <trkpt lat="48.25243" lon="7.59837">
        <ele>195.80000305176</ele>
        <time>2019-09-09T08:44:01Z</time>
      </trkpt>
      <trkpt lat="48.25233" lon="7.59834">
        <ele>195.80000305176</ele>
        <time>2019-09-09T08:44:03Z</time>
      </trkpt>
      <trkpt lat="48.25223" lon="7.59829">
        <ele>195.80000305176</ele>
        <time>2019-09-09T08:44:05Z</time>
      </trkpt>
      <trkpt lat="48.252" lon="7.59812">
        <ele>195.60000610352</ele>
        <time>2019-09-09T08:44:10Z</time>
      </trkpt>
      <trkpt lat="48.2518" lon="7.59796">
        <ele>195.60000610352</ele>
        <time>2019-09-09T08:44:15Z</time>
      </trkpt>
      <trkpt lat="48.2516" lon="7.5979">
        <ele>196</ele>
        <time>2019-09-09T08:44:20Z</time>
      </trkpt>
      <trkpt lat="48.25133" lon="7.59769">
        <ele>196.19999694824</ele>
        <time>2019-09-09T08:44:27Z</time>
      </trkpt>
      <trkpt lat="48.25129" lon="7.59765">
        <ele>196.39999389648</ele>
        <time>2019-09-09T08:44:28Z</time>
      </trkpt>
      <trkpt lat="48.25118" lon="7.59753">
        <ele>196.80000305176</ele>
        <time>2019-09-09T08:44:31Z</time>
      </trkpt>
      <trkpt lat="48.25114" lon="7.59749">
        <ele>196.80000305176</ele>
        <time>2019-09-09T08:44:32Z</time>
      </trkpt>
      <trkpt lat="48.2511" lon="7.59746">
        <ele>197.19999694824</ele>
        <time>2019-09-09T08:44:33Z</time>
      </trkpt>
      <trkpt lat="48.25083" lon="7.59725">
        <ele>197.80000305176</ele>
        <time>2019-09-09T08:44:39Z</time>
      </trkpt>
      <trkpt lat="48.25079" lon="7.59722">
        <ele>197.80000305176</ele>
        <time>2019-09-09T08:44:40Z</time>
      </trkpt>
      <trkpt lat="48.25054" lon="7.59702">
        <ele>197.80000305176</ele>
        <time>2019-09-09T08:44:46Z</time>
      </trkpt>
      <trkpt lat="48.2502" lon="7.59676">
        <ele>197.80000305176</ele>
        <time>2019-09-09T08:44:54Z</time>
      </trkpt>
      <trkpt lat="48.25" lon="7.59659">
        <ele>197.60000610352</ele>
        <time>2019-09-09T08:44:59Z</time>
      </trkpt>
      <trkpt lat="48.24996" lon="7.59657">
        <ele>197.60000610352</ele>
        <time>2019-09-09T08:45:00Z</time>
      </trkpt>
      <trkpt lat="48.24981" lon="7.59644">
        <ele>197.60000610352</ele>
        <time>2019-09-09T08:45:04Z</time>
      </trkpt>
      <trkpt lat="48.2495" lon="7.5962">
        <ele>197.60000610352</ele>
        <time>2019-09-09T08:45:11Z</time>
      </trkpt>
      <trkpt lat="48.24925" lon="7.596">
        <ele>197.60000610352</ele>
        <time>2019-09-09T08:45:17Z</time>
      </trkpt>
      <trkpt lat="48.24899" lon="7.59581">
        <ele>197.60000610352</ele>
        <time>2019-09-09T08:45:23Z</time>
      </trkpt>
      <trkpt lat="48.24871" lon="7.5956">
        <ele>197.39999389648</ele>
        <time>2019-09-09T08:45:29Z</time>
      </trkpt>
      <trkpt lat="48.24844" lon="7.59539">
        <ele>197.39999389648</ele>
        <time>2019-09-09T08:45:35Z</time>
      </trkpt>
      <trkpt lat="48.24834" lon="7.59531">
        <ele>197.39999389648</ele>
        <time>2019-09-09T08:45:37Z</time>
      </trkpt>
      <trkpt lat="48.24824" lon="7.59523">
        <ele>197.39999389648</ele>
        <time>2019-09-09T08:45:39Z</time>
      </trkpt>
      <trkpt lat="48.24818" lon="7.59518">
        <ele>197.39999389648</ele>
        <time>2019-09-09T08:45:40Z</time>
      </trkpt>
      <trkpt lat="48.24794" lon="7.595">
        <ele>197.60000610352</ele>
        <time>2019-09-09T08:45:45Z</time>
      </trkpt>
      <trkpt lat="48.24766" lon="7.59478">
        <ele>197.60000610352</ele>
        <time>2019-09-09T08:45:51Z</time>
      </trkpt>
      <trkpt lat="48.24738" lon="7.59457">
        <ele>197.60000610352</ele>
        <time>2019-09-09T08:45:57Z</time>
      </trkpt>
      <trkpt lat="48.24713" lon="7.59437">
        <ele>197.60000610352</ele>
        <time>2019-09-09T08:46:03Z</time>
      </trkpt>
      <trkpt lat="48.24687" lon="7.59417">
        <ele>197.80000305176</ele>
        <time>2019-09-09T08:46:09Z</time>
      </trkpt>
      <trkpt lat="48.24657" lon="7.59395">
        <ele>198</ele>
        <time>2019-09-09T08:46:15Z</time>
      </trkpt>
      <trkpt lat="48.24625" lon="7.5937">
        <ele>198</ele>
        <time>2019-09-09T08:46:22Z</time>
      </trkpt>
      <trkpt lat="48.24594" lon="7.59348">
        <ele>198.19999694824</ele>
        <time>2019-09-09T08:46:29Z</time>
      </trkpt>
      <trkpt lat="48.24563" lon="7.59324">
        <ele>198.19999694824</ele>
        <time>2019-09-09T08:46:36Z</time>
      </trkpt>
      <trkpt lat="48.24555" lon="7.59317">
        <ele>198.19999694824</ele>
        <time>2019-09-09T08:46:38Z</time>
      </trkpt>
      <trkpt lat="48.24541" lon="7.59306">
        <ele>198.19999694824</ele>
        <time>2019-09-09T08:46:41Z</time>
      </trkpt>
      <trkpt lat="48.24508" lon="7.59281">
        <ele>198</ele>
        <time>2019-09-09T08:46:48Z</time>
      </trkpt>
      <trkpt lat="48.24481" lon="7.5926">
        <ele>198</ele>
        <time>2019-09-09T08:46:54Z</time>
      </trkpt>
      <trkpt lat="48.2444" lon="7.59229">
        <ele>198.19999694824</ele>
        <time>2019-09-09T08:47:03Z</time>
      </trkpt>
      <trkpt lat="48.24412" lon="7.59207">
        <ele>198.19999694824</ele>
        <time>2019-09-09T08:47:09Z</time>
      </trkpt>
      <trkpt lat="48.24382" lon="7.59187">
        <ele>198.19999694824</ele>
        <time>2019-09-09T08:47:15Z</time>
      </trkpt>
      <trkpt lat="48.24347" lon="7.59161">
        <ele>198</ele>
        <time>2019-09-09T08:47:22Z</time>
      </trkpt>
      <trkpt lat="48.2431" lon="7.59133">
        <ele>198</ele>
        <time>2019-09-09T08:47:30Z</time>
      </trkpt>
      <trkpt lat="48.24305" lon="7.5913">
        <ele>197.80000305176</ele>
        <time>2019-09-09T08:47:31Z</time>
      </trkpt>
      <trkpt lat="48.24287" lon="7.59116">
        <ele>197.80000305176</ele>
        <time>2019-09-09T08:47:35Z</time>
      </trkpt>
      <trkpt lat="48.24282" lon="7.59112">
        <ele>197.80000305176</ele>
        <time>2019-09-09T08:47:36Z</time>
      </trkpt>
      <trkpt lat="48.24259" lon="7.59094">
        <ele>197.80000305176</ele>
        <time>2019-09-09T08:47:41Z</time>
      </trkpt>
      <trkpt lat="48.24251" lon="7.59086">
        <ele>197.80000305176</ele>
        <time>2019-09-09T08:47:43Z</time>
      </trkpt>
      <trkpt lat="48.24237" lon="7.59077">
        <ele>198</ele>
        <time>2019-09-09T08:47:46Z</time>
      </trkpt>
      <trkpt lat="48.24208" lon="7.59053">
        <ele>198</ele>
        <time>2019-09-09T08:47:52Z</time>
      </trkpt>
      <trkpt lat="48.24166" lon="7.59019">
        <ele>198</ele>
        <time>2019-09-09T08:48:01Z</time>
      </trkpt>
      <trkpt lat="48.24161" lon="7.59017">
        <ele>198</ele>
        <time>2019-09-09T08:48:02Z</time>
      </trkpt>
      <trkpt lat="48.24135" lon="7.58998">
        <ele>198</ele>
        <time>2019-09-09T08:48:08Z</time>
      </trkpt>
      <trkpt lat="48.24101" lon="7.58971">
        <ele>198.19999694824</ele>
        <time>2019-09-09T08:48:15Z</time>
      </trkpt>
      <trkpt lat="48.24069" lon="7.58946">
        <ele>198.19999694824</ele>
        <time>2019-09-09T08:48:22Z</time>
      </trkpt>
      <trkpt lat="48.24035" lon="7.58926">
        <ele>198.19999694824</ele>
        <time>2019-09-09T08:48:29Z</time>
      </trkpt>
      <trkpt lat="48.23998" lon="7.589">
        <ele>198.19999694824</ele>
        <time>2019-09-09T08:48:37Z</time>
      </trkpt>
      <trkpt lat="48.23974" lon="7.58883">
        <ele>198.19999694824</ele>
        <time>2019-09-09T08:48:42Z</time>
      </trkpt>
      <trkpt lat="48.2397" lon="7.5888">
        <ele>198.19999694824</ele>
        <time>2019-09-09T08:48:43Z</time>
      </trkpt>
      <trkpt lat="48.23938" lon="7.58856">
        <ele>198.19999694824</ele>
        <time>2019-09-09T08:48:50Z</time>
      </trkpt>
      <trkpt lat="48.2391" lon="7.58836">
        <ele>198.19999694824</ele>
        <time>2019-09-09T08:48:56Z</time>
      </trkpt>
      <trkpt lat="48.23905" lon="7.58833">
        <ele>198.19999694824</ele>
        <time>2019-09-09T08:48:57Z</time>
      </trkpt>
      <trkpt lat="48.23881" lon="7.58811">
        <ele>198.39999389648</ele>
        <time>2019-09-09T08:49:02Z</time>
      </trkpt>
      <trkpt lat="48.23872" lon="7.58799">
        <ele>198.19999694824</ele>
        <time>2019-09-09T08:49:04Z</time>
      </trkpt>
      <trkpt lat="48.2384" lon="7.58772">
        <ele>198.19999694824</ele>
        <time>2019-09-09T08:49:11Z</time>
      </trkpt>
      <trkpt lat="48.23804" lon="7.58741">
        <ele>198</ele>
        <time>2019-09-09T08:49:19Z</time>
      </trkpt>
      <trkpt lat="48.23775" lon="7.58719">
        <ele>198</ele>
        <time>2019-09-09T08:49:26Z</time>
      </trkpt>
      <trkpt lat="48.23749" lon="7.58699">
        <ele>198</ele>
        <time>2019-09-09T08:49:32Z</time>
      </trkpt>
      <trkpt lat="48.23727" lon="7.58681">
        <ele>198.19999694824</ele>
        <time>2019-09-09T08:49:37Z</time>
      </trkpt>
      <trkpt lat="48.23694" lon="7.58654">
        <ele>198.19999694824</ele>
        <time>2019-09-09T08:49:44Z</time>
      </trkpt>
      <trkpt lat="48.23664" lon="7.5863">
        <ele>198.19999694824</ele>
        <time>2019-09-09T08:49:51Z</time>
      </trkpt>
      <trkpt lat="48.2366" lon="7.58627">
        <ele>198.19999694824</ele>
        <time>2019-09-09T08:49:52Z</time>
      </trkpt>
      <trkpt lat="48.23642" lon="7.58614">
        <ele>198.39999389648</ele>
        <time>2019-09-09T08:49:56Z</time>
      </trkpt>
      <trkpt lat="48.23616" lon="7.58594">
        <ele>198.39999389648</ele>
        <time>2019-09-09T08:50:02Z</time>
      </trkpt>
      <trkpt lat="48.23599" lon="7.5858">
        <ele>198.39999389648</ele>
        <time>2019-09-09T08:50:07Z</time>
      </trkpt>
      <trkpt lat="48.23579" lon="7.58566">
        <ele>198</ele>
        <time>2019-09-09T08:50:14Z</time>
      </trkpt>
      <trkpt lat="48.23578" lon="7.58565">
        <ele>198</ele>
        <time>2019-09-09T08:50:16Z</time>
      </trkpt>
      <trkpt lat="48.23569" lon="7.58559">
        <ele>198</ele>
        <time>2019-09-09T08:52:26Z</time>
      </trkpt>
      <trkpt lat="48.23567" lon="7.58558">
        <ele>198</ele>
        <time>2019-09-09T08:52:27Z</time>
      </trkpt>
      <trkpt lat="48.23558" lon="7.58551">
        <ele>198</ele>
        <time>2019-09-09T08:52:31Z</time>
      </trkpt>
      <trkpt lat="48.23536" lon="7.58535">
        <ele>198</ele>
        <time>2019-09-09T08:52:37Z</time>
      </trkpt>
      <trkpt lat="48.23503" lon="7.5851">
        <ele>197.80000305176</ele>
        <time>2019-09-09T08:52:44Z</time>
      </trkpt>
      <trkpt lat="48.23467" lon="7.58483">
        <ele>197.80000305176</ele>
        <time>2019-09-09T08:52:52Z</time>
      </trkpt>
      <trkpt lat="48.23434" lon="7.58456">
        <ele>197.60000610352</ele>
        <time>2019-09-09T08:52:59Z</time>
      </trkpt>
      <trkpt lat="48.23398" lon="7.58427">
        <ele>197.60000610352</ele>
        <time>2019-09-09T08:53:07Z</time>
      </trkpt>
      <trkpt lat="48.23372" lon="7.58406">
        <ele>197.60000610352</ele>
        <time>2019-09-09T08:53:13Z</time>
      </trkpt>
      <trkpt lat="48.23326" lon="7.58374">
        <ele>197.60000610352</ele>
        <time>2019-09-09T08:53:22Z</time>
      </trkpt>
      <trkpt lat="48.23292" lon="7.58347">
        <ele>197.60000610352</ele>
        <time>2019-09-09T08:53:29Z</time>
      </trkpt>
      <trkpt lat="48.23253" lon="7.58319">
        <ele>197.60000610352</ele>
        <time>2019-09-09T08:53:37Z</time>
      </trkpt>
      <trkpt lat="48.23221" lon="7.58296">
        <ele>197.60000610352</ele>
        <time>2019-09-09T08:53:44Z</time>
      </trkpt>
      <trkpt lat="48.23204" lon="7.58283">
        <ele>197.60000610352</ele>
        <time>2019-09-09T08:53:48Z</time>
      </trkpt>
      <trkpt lat="48.23168" lon="7.58254">
        <ele>197.60000610352</ele>
        <time>2019-09-09T08:53:56Z</time>
      </trkpt>
      <trkpt lat="48.23154" lon="7.58244">
        <ele>197.60000610352</ele>
        <time>2019-09-09T08:53:59Z</time>
      </trkpt>
      <trkpt lat="48.23141" lon="7.58232">
        <ele>197.60000610352</ele>
        <time>2019-09-09T08:54:02Z</time>
      </trkpt>
      <trkpt lat="48.23107" lon="7.58204">
        <ele>197.60000610352</ele>
        <time>2019-09-09T08:54:10Z</time>
      </trkpt>
      <trkpt lat="48.23079" lon="7.58182">
        <ele>197.80000305176</ele>
        <time>2019-09-09T08:54:16Z</time>
      </trkpt>
      <trkpt lat="48.23052" lon="7.58161">
        <ele>197.80000305176</ele>
        <time>2019-09-09T08:54:22Z</time>
      </trkpt>
      <trkpt lat="48.23044" lon="7.58155">
        <ele>197.80000305176</ele>
        <time>2019-09-09T08:54:24Z</time>
      </trkpt>
      <trkpt lat="48.23025" lon="7.58141">
        <ele>197.80000305176</ele>
        <time>2019-09-09T08:54:28Z</time>
      </trkpt>
      <trkpt lat="48.2301" lon="7.58131">
        <ele>197.80000305176</ele>
        <time>2019-09-09T08:54:31Z</time>
      </trkpt>
      <trkpt lat="48.22968" lon="7.581">
        <ele>197.80000305176</ele>
        <time>2019-09-09T08:54:40Z</time>
      </trkpt>
      <trkpt lat="48.22927" lon="7.58069">
        <ele>197.80000305176</ele>
        <time>2019-09-09T08:54:49Z</time>
      </trkpt>
      <trkpt lat="48.22889" lon="7.5804">
        <ele>198</ele>
        <time>2019-09-09T08:54:58Z</time>
      </trkpt>
      <trkpt lat="48.22881" lon="7.58035">
        <ele>198.19999694824</ele>
        <time>2019-09-09T08:55:00Z</time>
      </trkpt>
      <trkpt lat="48.22873" lon="7.58034">
        <ele>198.19999694824</ele>
        <time>2019-09-09T08:55:02Z</time>
      </trkpt>
      <trkpt lat="48.22861" lon="7.58025">
        <ele>198.19999694824</ele>
        <time>2019-09-09T08:55:06Z</time>
      </trkpt>
      <trkpt lat="48.22841" lon="7.58009">
        <ele>198.39999389648</ele>
        <time>2019-09-09T08:55:12Z</time>
      </trkpt>
      <trkpt lat="48.2282" lon="7.57988">
        <ele>199.39999389648</ele>
        <time>2019-09-09T08:55:18Z</time>
      </trkpt>
      <trkpt lat="48.22788" lon="7.57961">
        <ele>200</ele>
        <time>2019-09-09T08:55:26Z</time>
      </trkpt>
      <trkpt lat="48.22756" lon="7.57935">
        <ele>200</ele>
        <time>2019-09-09T08:55:34Z</time>
      </trkpt>
      <trkpt lat="48.22723" lon="7.5791">
        <ele>200</ele>
        <time>2019-09-09T08:55:42Z</time>
      </trkpt>
      <trkpt lat="48.22692" lon="7.57887">
        <ele>199.80000305176</ele>
        <time>2019-09-09T08:55:49Z</time>
      </trkpt>
      <trkpt lat="48.22662" lon="7.57863">
        <ele>199.39999389648</ele>
        <time>2019-09-09T08:55:56Z</time>
      </trkpt>
      <trkpt lat="48.22631" lon="7.57842">
        <ele>199.39999389648</ele>
        <time>2019-09-09T08:56:03Z</time>
      </trkpt>
      <trkpt lat="48.22598" lon="7.5782">
        <ele>199.39999389648</ele>
        <time>2019-09-09T08:56:10Z</time>
      </trkpt>
      <trkpt lat="48.22564" lon="7.57795">
        <ele>199.60000610352</ele>
        <time>2019-09-09T08:56:17Z</time>
      </trkpt>
      <trkpt lat="48.2253" lon="7.57769">
        <ele>200</ele>
        <time>2019-09-09T08:56:25Z</time>
      </trkpt>
      <trkpt lat="48.22503" lon="7.57747">
        <ele>200</ele>
        <time>2019-09-09T08:56:31Z</time>
      </trkpt>
      <trkpt lat="48.22465" lon="7.57719">
        <ele>200</ele>
        <time>2019-09-09T08:56:39Z</time>
      </trkpt>
      <trkpt lat="48.22434" lon="7.57696">
        <ele>199.80000305176</ele>
        <time>2019-09-09T08:56:46Z</time>
      </trkpt>
      <trkpt lat="48.22413" lon="7.5768">
        <ele>199.60000610352</ele>
        <time>2019-09-09T08:56:51Z</time>
      </trkpt>
      <trkpt lat="48.22409" lon="7.57677">
        <ele>199.60000610352</ele>
        <time>2019-09-09T08:56:52Z</time>
      </trkpt>
      <trkpt lat="48.22377" lon="7.57651">
        <ele>199.60000610352</ele>
        <time>2019-09-09T08:56:59Z</time>
      </trkpt>
      <trkpt lat="48.22349" lon="7.57627">
        <ele>199.60000610352</ele>
        <time>2019-09-09T08:57:06Z</time>
      </trkpt>
      <trkpt lat="48.22325" lon="7.57609">
        <ele>199.60000610352</ele>
        <time>2019-09-09T08:57:11Z</time>
      </trkpt>
      <trkpt lat="48.22287" lon="7.5758">
        <ele>199.60000610352</ele>
        <time>2019-09-09T08:57:19Z</time>
      </trkpt>
      <trkpt lat="48.22264" lon="7.57563">
        <ele>199.60000610352</ele>
        <time>2019-09-09T08:57:24Z</time>
      </trkpt>
      <trkpt lat="48.2226" lon="7.5756">
        <ele>199.60000610352</ele>
        <time>2019-09-09T08:57:25Z</time>
      </trkpt>
      <trkpt lat="48.22239" lon="7.57544">
        <ele>199.60000610352</ele>
        <time>2019-09-09T08:57:30Z</time>
      </trkpt>
      <trkpt lat="48.22206" lon="7.57518">
        <ele>199.60000610352</ele>
        <time>2019-09-09T08:57:37Z</time>
      </trkpt>
      <trkpt lat="48.22168" lon="7.57489">
        <ele>199.60000610352</ele>
        <time>2019-09-09T08:57:45Z</time>
      </trkpt>
      <trkpt lat="48.22132" lon="7.57462">
        <ele>199.80000305176</ele>
        <time>2019-09-09T08:57:53Z</time>
      </trkpt>
      <trkpt lat="48.22096" lon="7.57433">
        <ele>199.80000305176</ele>
        <time>2019-09-09T08:58:01Z</time>
      </trkpt>
      <trkpt lat="48.22069" lon="7.57413">
        <ele>200</ele>
        <time>2019-09-09T08:58:07Z</time>
      </trkpt>
      <trkpt lat="48.22038" lon="7.5739">
        <ele>200</ele>
        <time>2019-09-09T08:58:14Z</time>
      </trkpt>
      <trkpt lat="48.22006" lon="7.57364">
        <ele>199.80000305176</ele>
        <time>2019-09-09T08:58:21Z</time>
      </trkpt>
      <trkpt lat="48.21985" lon="7.57348">
        <ele>199.60000610352</ele>
        <time>2019-09-09T08:58:26Z</time>
      </trkpt>
      <trkpt lat="48.21952" lon="7.57322">
        <ele>199.80000305176</ele>
        <time>2019-09-09T08:58:33Z</time>
      </trkpt>
      <trkpt lat="48.2192" lon="7.57299">
        <ele>199.60000610352</ele>
        <time>2019-09-09T08:58:40Z</time>
      </trkpt>
      <trkpt lat="48.21889" lon="7.57274">
        <ele>199.60000610352</ele>
        <time>2019-09-09T08:58:47Z</time>
      </trkpt>
      <trkpt lat="48.21861" lon="7.57251">
        <ele>199.60000610352</ele>
        <time>2019-09-09T08:58:53Z</time>
      </trkpt>
      <trkpt lat="48.21828" lon="7.57227">
        <ele>199.80000305176</ele>
        <time>2019-09-09T08:59:00Z</time>
      </trkpt>
      <trkpt lat="48.21795" lon="7.57203">
        <ele>199.80000305176</ele>
        <time>2019-09-09T08:59:07Z</time>
      </trkpt>
      <trkpt lat="48.21752" lon="7.57172">
        <ele>199.80000305176</ele>
        <time>2019-09-09T08:59:16Z</time>
      </trkpt>
      <trkpt lat="48.2173" lon="7.57157">
        <ele>199.80000305176</ele>
        <time>2019-09-09T08:59:21Z</time>
      </trkpt>
      <trkpt lat="48.21693" lon="7.57127">
        <ele>199.80000305176</ele>
        <time>2019-09-09T08:59:29Z</time>
      </trkpt>
      <trkpt lat="48.21666" lon="7.57104">
        <ele>199.80000305176</ele>
        <time>2019-09-09T08:59:35Z</time>
      </trkpt>
      <trkpt lat="48.21635" lon="7.57078">
        <ele>199.80000305176</ele>
        <time>2019-09-09T08:59:42Z</time>
      </trkpt>
      <trkpt lat="48.21598" lon="7.5705">
        <ele>199.80000305176</ele>
        <time>2019-09-09T08:59:50Z</time>
      </trkpt>
      <trkpt lat="48.21555" lon="7.57018">
        <ele>200</ele>
        <time>2019-09-09T08:59:59Z</time>
      </trkpt>
      <trkpt lat="48.21515" lon="7.56989">
        <ele>200</ele>
        <time>2019-09-09T09:00:08Z</time>
      </trkpt>
      <trkpt lat="48.21482" lon="7.56963">
        <ele>200</ele>
        <time>2019-09-09T09:00:15Z</time>
      </trkpt>
      <trkpt lat="48.2145" lon="7.56935">
        <ele>199.80000305176</ele>
        <time>2019-09-09T09:00:22Z</time>
      </trkpt>
      <trkpt lat="48.21413" lon="7.56907">
        <ele>199.80000305176</ele>
        <time>2019-09-09T09:00:30Z</time>
      </trkpt>
      <trkpt lat="48.21386" lon="7.56886">
        <ele>200</ele>
        <time>2019-09-09T09:00:36Z</time>
      </trkpt>
      <trkpt lat="48.21352" lon="7.56858">
        <ele>200</ele>
        <time>2019-09-09T09:00:44Z</time>
      </trkpt>
      <trkpt lat="48.21324" lon="7.56839">
        <ele>200</ele>
        <time>2019-09-09T09:00:50Z</time>
      </trkpt>
      <trkpt lat="48.21296" lon="7.56819">
        <ele>200</ele>
        <time>2019-09-09T09:00:57Z</time>
      </trkpt>
      <trkpt lat="48.21273" lon="7.56802">
        <ele>200</ele>
        <time>2019-09-09T09:01:02Z</time>
      </trkpt>
      <trkpt lat="48.21241" lon="7.56775">
        <ele>200</ele>
        <time>2019-09-09T09:01:09Z</time>
      </trkpt>
      <trkpt lat="48.21228" lon="7.56765">
        <ele>200</ele>
        <time>2019-09-09T09:01:12Z</time>
      </trkpt>
      <trkpt lat="48.21216" lon="7.56754">
        <ele>200</ele>
        <time>2019-09-09T09:01:15Z</time>
      </trkpt>
      <trkpt lat="48.21195" lon="7.56738">
        <ele>200.19999694824</ele>
        <time>2019-09-09T09:01:20Z</time>
      </trkpt>
      <trkpt lat="48.21191" lon="7.56734">
        <ele>200</ele>
        <time>2019-09-09T09:01:21Z</time>
      </trkpt>
      <trkpt lat="48.21174" lon="7.56722">
        <ele>200.19999694824</ele>
        <time>2019-09-09T09:01:25Z</time>
      </trkpt>
      <trkpt lat="48.2115" lon="7.56706">
        <ele>200.39999389648</ele>
        <time>2019-09-09T09:01:31Z</time>
      </trkpt>
      <trkpt lat="48.21125" lon="7.56693">
        <ele>201.80000305176</ele>
        <time>2019-09-09T09:01:38Z</time>
      </trkpt>
      <trkpt lat="48.21101" lon="7.56671">
        <ele>202.60000610352</ele>
        <time>2019-09-09T09:01:45Z</time>
      </trkpt>
      <trkpt lat="48.21087" lon="7.56658">
        <ele>202.60000610352</ele>
        <time>2019-09-09T09:01:50Z</time>
      </trkpt>
      <trkpt lat="48.21084" lon="7.56656">
        <ele>202.60000610352</ele>
        <time>2019-09-09T09:01:51Z</time>
      </trkpt>
      <trkpt lat="48.21066" lon="7.56642">
        <ele>202.60000610352</ele>
        <time>2019-09-09T09:01:56Z</time>
      </trkpt>
      <trkpt lat="48.21039" lon="7.56623">
        <ele>202.60000610352</ele>
        <time>2019-09-09T09:02:02Z</time>
      </trkpt>
      <trkpt lat="48.20998" lon="7.56594">
        <ele>202.60000610352</ele>
        <time>2019-09-09T09:02:10Z</time>
      </trkpt>
      <trkpt lat="48.20958" lon="7.56567">
        <ele>202.39999389648</ele>
        <time>2019-09-09T09:02:18Z</time>
      </trkpt>
      <trkpt lat="48.20913" lon="7.56533">
        <ele>202.39999389648</ele>
        <time>2019-09-09T09:02:27Z</time>
      </trkpt>
      <trkpt lat="48.20886" lon="7.56514">
        <ele>202.39999389648</ele>
        <time>2019-09-09T09:02:33Z</time>
      </trkpt>
      <trkpt lat="48.20876" lon="7.56507">
        <ele>202.39999389648</ele>
        <time>2019-09-09T09:02:35Z</time>
      </trkpt>
      <trkpt lat="48.20859" lon="7.56493">
        <ele>202.39999389648</ele>
        <time>2019-09-09T09:02:39Z</time>
      </trkpt>
      <trkpt lat="48.20823" lon="7.56461">
        <ele>202.39999389648</ele>
        <time>2019-09-09T09:02:47Z</time>
      </trkpt>
      <trkpt lat="48.20791" lon="7.56433">
        <ele>202.19999694824</ele>
        <time>2019-09-09T09:02:54Z</time>
      </trkpt>
      <trkpt lat="48.20758" lon="7.56408">
        <ele>202</ele>
        <time>2019-09-09T09:03:01Z</time>
      </trkpt>
      <trkpt lat="48.20729" lon="7.56385">
        <ele>202</ele>
        <time>2019-09-09T09:03:08Z</time>
      </trkpt>
      <trkpt lat="48.207" lon="7.56361">
        <ele>202</ele>
        <time>2019-09-09T09:03:15Z</time>
      </trkpt>
      <trkpt lat="48.20668" lon="7.56335">
        <ele>202.19999694824</ele>
        <time>2019-09-09T09:03:23Z</time>
      </trkpt>
      <trkpt lat="48.20641" lon="7.56316">
        <ele>202.19999694824</ele>
        <time>2019-09-09T09:03:29Z</time>
      </trkpt>
      <trkpt lat="48.20627" lon="7.56305">
        <ele>202.19999694824</ele>
        <time>2019-09-09T09:03:32Z</time>
      </trkpt>
      <trkpt lat="48.20607" lon="7.56289">
        <ele>202.19999694824</ele>
        <time>2019-09-09T09:03:36Z</time>
      </trkpt>
      <trkpt lat="48.20575" lon="7.56265">
        <ele>202.19999694824</ele>
        <time>2019-09-09T09:03:43Z</time>
      </trkpt>
      <trkpt lat="48.20557" lon="7.56258">
        <ele>202</ele>
        <time>2019-09-09T09:03:47Z</time>
      </trkpt>
      <trkpt lat="48.20553" lon="7.56256">
        <ele>202</ele>
        <time>2019-09-09T09:03:48Z</time>
      </trkpt>
      <trkpt lat="48.20541" lon="7.56241">
        <ele>202</ele>
        <time>2019-09-09T09:03:51Z</time>
      </trkpt>
      <trkpt lat="48.20532" lon="7.56233">
        <ele>202</ele>
        <time>2019-09-09T09:03:53Z</time>
      </trkpt>
      <trkpt lat="48.20513" lon="7.56218">
        <ele>202.19999694824</ele>
        <time>2019-09-09T09:03:57Z</time>
      </trkpt>
      <trkpt lat="48.20499" lon="7.56206">
        <ele>202.39999389648</ele>
        <time>2019-09-09T09:04:00Z</time>
      </trkpt>
      <trkpt lat="48.20472" lon="7.56184">
        <ele>202.39999389648</ele>
        <time>2019-09-09T09:04:06Z</time>
      </trkpt>
      <trkpt lat="48.20434" lon="7.56152">
        <ele>202.60000610352</ele>
        <time>2019-09-09T09:04:14Z</time>
      </trkpt>
      <trkpt lat="48.20387" lon="7.56116">
        <ele>202.60000610352</ele>
        <time>2019-09-09T09:04:24Z</time>
      </trkpt>
      <trkpt lat="48.20353" lon="7.56091">
        <ele>202.60000610352</ele>
        <time>2019-09-09T09:04:32Z</time>
      </trkpt>
      <trkpt lat="48.20345" lon="7.56087">
        <ele>202.60000610352</ele>
        <time>2019-09-09T09:04:34Z</time>
      </trkpt>
      <trkpt lat="48.20326" lon="7.56072">
        <ele>202.60000610352</ele>
        <time>2019-09-09T09:04:38Z</time>
      </trkpt>
      <trkpt lat="48.20293" lon="7.56046">
        <ele>202.39999389648</ele>
        <time>2019-09-09T09:04:45Z</time>
      </trkpt>
      <trkpt lat="48.20267" lon="7.56027">
        <ele>202.19999694824</ele>
        <time>2019-09-09T09:04:51Z</time>
      </trkpt>
      <trkpt lat="48.20245" lon="7.5601">
        <ele>202.19999694824</ele>
        <time>2019-09-09T09:04:56Z</time>
      </trkpt>
      <trkpt lat="48.2024" lon="7.56007">
        <ele>202.19999694824</ele>
        <time>2019-09-09T09:04:57Z</time>
      </trkpt>
      <trkpt lat="48.20209" lon="7.55983">
        <ele>202</ele>
        <time>2019-09-09T09:05:04Z</time>
      </trkpt>
      <trkpt lat="48.20177" lon="7.55958">
        <ele>201.80000305176</ele>
        <time>2019-09-09T09:05:11Z</time>
      </trkpt>
      <trkpt lat="48.20128" lon="7.55921">
        <ele>201.80000305176</ele>
        <time>2019-09-09T09:05:21Z</time>
      </trkpt>
      <trkpt lat="48.20097" lon="7.55897">
        <ele>201.60000610352</ele>
        <time>2019-09-09T09:05:28Z</time>
      </trkpt>
      <trkpt lat="48.20056" lon="7.55864">
        <ele>201.60000610352</ele>
        <time>2019-09-09T09:05:37Z</time>
      </trkpt>
      <trkpt lat="48.20031" lon="7.55844">
        <ele>201.60000610352</ele>
        <time>2019-09-09T09:05:43Z</time>
      </trkpt>
      <trkpt lat="48.19998" lon="7.5582">
        <ele>201.60000610352</ele>
        <time>2019-09-09T09:05:51Z</time>
      </trkpt>
      <trkpt lat="48.1996" lon="7.55791">
        <ele>201.80000305176</ele>
        <time>2019-09-09T09:05:59Z</time>
      </trkpt>
      <trkpt lat="48.19928" lon="7.55767">
        <ele>202</ele>
        <time>2019-09-09T09:06:06Z</time>
      </trkpt>
      <trkpt lat="48.19887" lon="7.55735">
        <ele>201.80000305176</ele>
        <time>2019-09-09T09:06:15Z</time>
      </trkpt>
      <trkpt lat="48.19846" lon="7.55703">
        <ele>201.60000610352</ele>
        <time>2019-09-09T09:06:24Z</time>
      </trkpt>
      <trkpt lat="48.19796" lon="7.55664">
        <ele>201.60000610352</ele>
        <time>2019-09-09T09:06:35Z</time>
      </trkpt>
      <trkpt lat="48.19783" lon="7.55654">
        <ele>201.60000610352</ele>
        <time>2019-09-09T09:06:38Z</time>
      </trkpt>
      <trkpt lat="48.19761" lon="7.55637">
        <ele>201.60000610352</ele>
        <time>2019-09-09T09:06:43Z</time>
      </trkpt>
      <trkpt lat="48.19757" lon="7.55633">
        <ele>201.60000610352</ele>
        <time>2019-09-09T09:06:44Z</time>
      </trkpt>
      <trkpt lat="48.19721" lon="7.55608">
        <ele>201.60000610352</ele>
        <time>2019-09-09T09:06:52Z</time>
      </trkpt>
      <trkpt lat="48.19677" lon="7.55573">
        <ele>202</ele>
        <time>2019-09-09T09:07:02Z</time>
      </trkpt>
      <trkpt lat="48.19626" lon="7.55534">
        <ele>202</ele>
        <time>2019-09-09T09:07:13Z</time>
      </trkpt>
      <trkpt lat="48.19585" lon="7.55502">
        <ele>201.80000305176</ele>
        <time>2019-09-09T09:07:22Z</time>
      </trkpt>
      <trkpt lat="48.19544" lon="7.55472">
        <ele>201.80000305176</ele>
        <time>2019-09-09T09:07:31Z</time>
      </trkpt>
      <trkpt lat="48.19503" lon="7.5544">
        <ele>201.60000610352</ele>
        <time>2019-09-09T09:07:40Z</time>
      </trkpt>
      <trkpt lat="48.1948" lon="7.55424">
        <ele>201.39999389648</ele>
        <time>2019-09-09T09:07:45Z</time>
      </trkpt>
      <trkpt lat="48.19466" lon="7.55413">
        <ele>201.39999389648</ele>
        <time>2019-09-09T09:07:48Z</time>
      </trkpt>
      <trkpt lat="48.19436" lon="7.55389">
        <ele>201.19999694824</ele>
        <time>2019-09-09T09:07:55Z</time>
      </trkpt>
      <trkpt lat="48.19412" lon="7.55372">
        <ele>201.19999694824</ele>
        <time>2019-09-09T09:08:01Z</time>
      </trkpt>
      <trkpt lat="48.19395" lon="7.55358">
        <ele>201.80000305176</ele>
        <time>2019-09-09T09:08:05Z</time>
      </trkpt>
      <trkpt lat="48.19385" lon="7.55352">
        <ele>201.80000305176</ele>
        <time>2019-09-09T09:08:07Z</time>
      </trkpt>
      <trkpt lat="48.19338" lon="7.55315">
        <ele>201.60000610352</ele>
        <time>2019-09-09T09:08:17Z</time>
      </trkpt>
      <trkpt lat="48.19301" lon="7.55286">
        <ele>201.39999389648</ele>
        <time>2019-09-09T09:08:25Z</time>
      </trkpt>
      <trkpt lat="48.1925" lon="7.55247">
        <ele>201.19999694824</ele>
        <time>2019-09-09T09:08:36Z</time>
      </trkpt>
      <trkpt lat="48.19214" lon="7.55221">
        <ele>201.19999694824</ele>
        <time>2019-09-09T09:08:44Z</time>
      </trkpt>
      <trkpt lat="48.19202" lon="7.55214">
        <ele>201.39999389648</ele>
        <time>2019-09-09T09:08:47Z</time>
      </trkpt>
      <trkpt lat="48.19191" lon="7.5521">
        <ele>201.60000610352</ele>
        <time>2019-09-09T09:08:50Z</time>
      </trkpt>
      <trkpt lat="48.19173" lon="7.55199">
        <ele>202</ele>
        <time>2019-09-09T09:08:56Z</time>
      </trkpt>
      <trkpt lat="48.19155" lon="7.55183">
        <ele>202.60000610352</ele>
        <time>2019-09-09T09:09:02Z</time>
      </trkpt>
      <trkpt lat="48.19144" lon="7.55169">
        <ele>203.19999694824</ele>
        <time>2019-09-09T09:09:06Z</time>
      </trkpt>
      <trkpt lat="48.19137" lon="7.55165">
        <ele>203.19999694824</ele>
        <time>2019-09-09T09:09:08Z</time>
      </trkpt>
      <trkpt lat="48.19115" lon="7.55146">
        <ele>203.39999389648</ele>
        <time>2019-09-09T09:09:14Z</time>
      </trkpt>
      <trkpt lat="48.19099" lon="7.55134">
        <ele>203.39999389648</ele>
        <time>2019-09-09T09:09:18Z</time>
      </trkpt>
      <trkpt lat="48.19092" lon="7.55128">
        <ele>203.39999389648</ele>
        <time>2019-09-09T09:09:20Z</time>
      </trkpt>
      <trkpt lat="48.19067" lon="7.55109">
        <ele>203.39999389648</ele>
        <time>2019-09-09T09:09:26Z</time>
      </trkpt>
      <trkpt lat="48.19028" lon="7.55076">
        <ele>203.39999389648</ele>
        <time>2019-09-09T09:09:35Z</time>
      </trkpt>
      <trkpt lat="48.18987" lon="7.55046">
        <ele>203.39999389648</ele>
        <time>2019-09-09T09:09:44Z</time>
      </trkpt>
      <trkpt lat="48.18953" lon="7.55019">
        <ele>203.39999389648</ele>
        <time>2019-09-09T09:09:52Z</time>
      </trkpt>
      <trkpt lat="48.18944" lon="7.55012">
        <ele>203.39999389648</ele>
        <time>2019-09-09T09:09:54Z</time>
      </trkpt>
      <trkpt lat="48.18925" lon="7.54998">
        <ele>203.39999389648</ele>
        <time>2019-09-09T09:09:58Z</time>
      </trkpt>
      <trkpt lat="48.18889" lon="7.54971">
        <ele>203.19999694824</ele>
        <time>2019-09-09T09:10:06Z</time>
      </trkpt>
      <trkpt lat="48.1886" lon="7.54948">
        <ele>203.19999694824</ele>
        <time>2019-09-09T09:10:13Z</time>
      </trkpt>
      <trkpt lat="48.18847" lon="7.54938">
        <ele>203.19999694824</ele>
        <time>2019-09-09T09:10:16Z</time>
      </trkpt>
      <trkpt lat="48.18839" lon="7.54932">
        <ele>203.19999694824</ele>
        <time>2019-09-09T09:10:18Z</time>
      </trkpt>
      <trkpt lat="48.18831" lon="7.54926">
        <ele>203</ele>
        <time>2019-09-09T09:10:20Z</time>
      </trkpt>
      <trkpt lat="48.18798" lon="7.549">
        <ele>203</ele>
        <time>2019-09-09T09:10:27Z</time>
      </trkpt>
      <trkpt lat="48.18762" lon="7.54873">
        <ele>203.39999389648</ele>
        <time>2019-09-09T09:10:35Z</time>
      </trkpt>
      <trkpt lat="48.18736" lon="7.54855">
        <ele>203.39999389648</ele>
        <time>2019-09-09T09:10:41Z</time>
      </trkpt>
      <trkpt lat="48.18705" lon="7.5483">
        <ele>203.39999389648</ele>
        <time>2019-09-09T09:10:48Z</time>
      </trkpt>
      <trkpt lat="48.18692" lon="7.5482">
        <ele>203.39999389648</ele>
        <time>2019-09-09T09:10:51Z</time>
      </trkpt>
      <trkpt lat="48.18679" lon="7.54811">
        <ele>203.39999389648</ele>
        <time>2019-09-09T09:10:54Z</time>
      </trkpt>
      <trkpt lat="48.18643" lon="7.54785">
        <ele>203.39999389648</ele>
        <time>2019-09-09T09:11:02Z</time>
      </trkpt>
      <trkpt lat="48.18612" lon="7.54762">
        <ele>203.39999389648</ele>
        <time>2019-09-09T09:11:09Z</time>
      </trkpt>
      <trkpt lat="48.18585" lon="7.54739">
        <ele>203.39999389648</ele>
        <time>2019-09-09T09:11:16Z</time>
      </trkpt>
      <trkpt lat="48.18571" lon="7.54728">
        <ele>203.19999694824</ele>
        <time>2019-09-09T09:11:20Z</time>
      </trkpt>
      <trkpt lat="48.18542" lon="7.54705">
        <ele>203.19999694824</ele>
        <time>2019-09-09T09:11:26Z</time>
      </trkpt>
      <trkpt lat="48.18519" lon="7.54684">
        <ele>203.19999694824</ele>
        <time>2019-09-09T09:11:31Z</time>
      </trkpt>
      <trkpt lat="48.18486" lon="7.54658">
        <ele>203.19999694824</ele>
        <time>2019-09-09T09:11:38Z</time>
      </trkpt>
      <trkpt lat="48.18462" lon="7.54639">
        <ele>203</ele>
        <time>2019-09-09T09:11:43Z</time>
      </trkpt>
      <trkpt lat="48.18428" lon="7.54614">
        <ele>202.80000305176</ele>
        <time>2019-09-09T09:11:50Z</time>
      </trkpt>
      <trkpt lat="48.18391" lon="7.54585">
        <ele>203.19999694824</ele>
        <time>2019-09-09T09:11:58Z</time>
      </trkpt>
      <trkpt lat="48.18359" lon="7.54561">
        <ele>203.39999389648</ele>
        <time>2019-09-09T09:12:05Z</time>
      </trkpt>
      <trkpt lat="48.18323" lon="7.54534">
        <ele>203.39999389648</ele>
        <time>2019-09-09T09:12:12Z</time>
      </trkpt>
      <trkpt lat="48.18315" lon="7.54528">
        <ele>203.39999389648</ele>
        <time>2019-09-09T09:12:14Z</time>
      </trkpt>
      <trkpt lat="48.18306" lon="7.54521">
        <ele>203.39999389648</ele>
        <time>2019-09-09T09:12:16Z</time>
      </trkpt>
      <trkpt lat="48.1828" lon="7.545">
        <ele>203.19999694824</ele>
        <time>2019-09-09T09:12:22Z</time>
      </trkpt>
      <trkpt lat="48.1825" lon="7.54476">
        <ele>203.19999694824</ele>
        <time>2019-09-09T09:12:29Z</time>
      </trkpt>
      <trkpt lat="48.18209" lon="7.54444">
        <ele>203.39999389648</ele>
        <time>2019-09-09T09:12:38Z</time>
      </trkpt>
      <trkpt lat="48.18173" lon="7.54416">
        <ele>203.39999389648</ele>
        <time>2019-09-09T09:12:46Z</time>
      </trkpt>
      <trkpt lat="48.18137" lon="7.54389">
        <ele>203.60000610352</ele>
        <time>2019-09-09T09:12:54Z</time>
      </trkpt>
      <trkpt lat="48.18132" lon="7.54385">
        <ele>203.60000610352</ele>
        <time>2019-09-09T09:12:55Z</time>
      </trkpt>
      <trkpt lat="48.18091" lon="7.54355">
        <ele>203.60000610352</ele>
        <time>2019-09-09T09:13:04Z</time>
      </trkpt>
      <trkpt lat="48.18055" lon="7.54327">
        <ele>203.80000305176</ele>
        <time>2019-09-09T09:13:12Z</time>
      </trkpt>
      <trkpt lat="48.18018" lon="7.54299">
        <ele>203.80000305176</ele>
        <time>2019-09-09T09:13:20Z</time>
      </trkpt>
      <trkpt lat="48.17972" lon="7.54263">
        <ele>203.60000610352</ele>
        <time>2019-09-09T09:13:30Z</time>
      </trkpt>
      <trkpt lat="48.17944" lon="7.54243">
        <ele>203.60000610352</ele>
        <time>2019-09-09T09:13:36Z</time>
      </trkpt>
      <trkpt lat="48.17913" lon="7.5422">
        <ele>203.39999389648</ele>
        <time>2019-09-09T09:13:43Z</time>
      </trkpt>
      <trkpt lat="48.17895" lon="7.54209">
        <ele>203.60000610352</ele>
        <time>2019-09-09T09:13:48Z</time>
      </trkpt>
      <trkpt lat="48.17879" lon="7.54204">
        <ele>204</ele>
        <time>2019-09-09T09:13:53Z</time>
      </trkpt>
      <trkpt lat="48.17861" lon="7.54196">
        <ele>204.19999694824</ele>
        <time>2019-09-09T09:13:58Z</time>
      </trkpt>
      <trkpt lat="48.17837" lon="7.54175">
        <ele>204.60000610352</ele>
        <time>2019-09-09T09:14:05Z</time>
      </trkpt>
      <trkpt lat="48.17832" lon="7.54169">
        <ele>204.80000305176</ele>
        <time>2019-09-09T09:14:07Z</time>
      </trkpt>
      <trkpt lat="48.17824" lon="7.54158">
        <ele>205.19999694824</ele>
        <time>2019-09-09T09:14:10Z</time>
      </trkpt>
      <trkpt lat="48.17802" lon="7.5414">
        <ele>205.60000610352</ele>
        <time>2019-09-09T09:14:16Z</time>
      </trkpt>
      <trkpt lat="48.17773" lon="7.54116">
        <ele>205.60000610352</ele>
        <time>2019-09-09T09:14:23Z</time>
      </trkpt>
      <trkpt lat="48.17747" lon="7.54095">
        <ele>205.60000610352</ele>
        <time>2019-09-09T09:14:29Z</time>
      </trkpt>
      <trkpt lat="48.17717" lon="7.54073">
        <ele>205.60000610352</ele>
        <time>2019-09-09T09:14:36Z</time>
      </trkpt>
      <trkpt lat="48.17686" lon="7.5405">
        <ele>205.60000610352</ele>
        <time>2019-09-09T09:14:43Z</time>
      </trkpt>
      <trkpt lat="48.17657" lon="7.5403">
        <ele>205.80000305176</ele>
        <time>2019-09-09T09:14:49Z</time>
      </trkpt>
      <trkpt lat="48.17619" lon="7.54002">
        <ele>205.80000305176</ele>
        <time>2019-09-09T09:14:57Z</time>
      </trkpt>
      <trkpt lat="48.17595" lon="7.53982">
        <ele>205.60000610352</ele>
        <time>2019-09-09T09:15:03Z</time>
      </trkpt>
      <trkpt lat="48.17565" lon="7.53959">
        <ele>205.60000610352</ele>
        <time>2019-09-09T09:15:10Z</time>
      </trkpt>
      <trkpt lat="48.17542" lon="7.5394">
        <ele>205.60000610352</ele>
        <time>2019-09-09T09:15:15Z</time>
      </trkpt>
      <trkpt lat="48.17537" lon="7.53937">
        <ele>205.60000610352</ele>
        <time>2019-09-09T09:15:16Z</time>
      </trkpt>
      <trkpt lat="48.17517" lon="7.53925">
        <ele>205.80000305176</ele>
        <time>2019-09-09T09:15:20Z</time>
      </trkpt>
      <trkpt lat="48.17488" lon="7.53903">
        <ele>205.80000305176</ele>
        <time>2019-09-09T09:15:26Z</time>
      </trkpt>
      <trkpt lat="48.17453" lon="7.53878">
        <ele>205.80000305176</ele>
        <time>2019-09-09T09:15:33Z</time>
      </trkpt>
      <trkpt lat="48.17419" lon="7.53854">
        <ele>205.80000305176</ele>
        <time>2019-09-09T09:15:40Z</time>
      </trkpt>
      <trkpt lat="48.17414" lon="7.53851">
        <ele>205.80000305176</ele>
        <time>2019-09-09T09:15:41Z</time>
      </trkpt>
      <trkpt lat="48.17401" lon="7.53844">
        <ele>205.80000305176</ele>
        <time>2019-09-09T09:15:44Z</time>
      </trkpt>
      <trkpt lat="48.17372" lon="7.53821">
        <ele>205.80000305176</ele>
        <time>2019-09-09T09:15:50Z</time>
      </trkpt>
      <trkpt lat="48.17336" lon="7.53793">
        <ele>205.80000305176</ele>
        <time>2019-09-09T09:15:58Z</time>
      </trkpt>
      <trkpt lat="48.17299" lon="7.53763">
        <ele>205.80000305176</ele>
        <time>2019-09-09T09:16:06Z</time>
      </trkpt>
      <trkpt lat="48.17265" lon="7.53736">
        <ele>205.80000305176</ele>
        <time>2019-09-09T09:16:14Z</time>
      </trkpt>
      <trkpt lat="48.17234" lon="7.53712">
        <ele>205.80000305176</ele>
        <time>2019-09-09T09:16:21Z</time>
      </trkpt>
      <trkpt lat="48.17203" lon="7.53685">
        <ele>205.60000610352</ele>
        <time>2019-09-09T09:16:28Z</time>
      </trkpt>
      <trkpt lat="48.17175" lon="7.53667">
        <ele>205.60000610352</ele>
        <time>2019-09-09T09:16:34Z</time>
      </trkpt>
      <trkpt lat="48.17154" lon="7.53651">
        <ele>205.60000610352</ele>
        <time>2019-09-09T09:16:39Z</time>
      </trkpt>
      <trkpt lat="48.17149" lon="7.53649">
        <ele>205.60000610352</ele>
        <time>2019-09-09T09:16:40Z</time>
      </trkpt>
      <trkpt lat="48.17105" lon="7.53624">
        <ele>205.60000610352</ele>
        <time>2019-09-09T09:16:49Z</time>
      </trkpt>
      <trkpt lat="48.17098" lon="7.53603">
        <ele>205.60000610352</ele>
        <time>2019-09-09T09:16:52Z</time>
      </trkpt>
      <trkpt lat="48.17096" lon="7.53595">
        <ele>205.60000610352</ele>
        <time>2019-09-09T09:16:53Z</time>
      </trkpt>
      <trkpt lat="48.17088" lon="7.53587">
        <ele>205.60000610352</ele>
        <time>2019-09-09T09:16:55Z</time>
      </trkpt>
      <trkpt lat="48.1708" lon="7.53582">
        <ele>205.60000610352</ele>
        <time>2019-09-09T09:16:57Z</time>
      </trkpt>
      <trkpt lat="48.17069" lon="7.53579">
        <ele>205.60000610352</ele>
        <time>2019-09-09T09:17:00Z</time>
      </trkpt>
      <trkpt lat="48.17048" lon="7.53568">
        <ele>206.39999389648</ele>
        <time>2019-09-09T09:17:06Z</time>
      </trkpt>
      <trkpt lat="48.17044" lon="7.53566">
        <ele>206.39999389648</ele>
        <time>2019-09-09T09:17:07Z</time>
      </trkpt>
      <trkpt lat="48.17023" lon="7.53555">
        <ele>207.39999389648</ele>
        <time>2019-09-09T09:17:13Z</time>
      </trkpt>
      <trkpt lat="48.17019" lon="7.53554">
        <ele>207.60000610352</ele>
        <time>2019-09-09T09:17:14Z</time>
      </trkpt>
      <trkpt lat="48.17005" lon="7.53551">
        <ele>208</ele>
        <time>2019-09-09T09:17:19Z</time>
      </trkpt>
      <trkpt lat="48.16989" lon="7.53545">
        <ele>208.19999694824</ele>
        <time>2019-09-09T09:17:24Z</time>
      </trkpt>
      <trkpt lat="48.16959" lon="7.5354">
        <ele>208.19999694824</ele>
        <time>2019-09-09T09:17:32Z</time>
      </trkpt>
      <trkpt lat="48.16929" lon="7.53536">
        <ele>207.60000610352</ele>
        <time>2019-09-09T09:17:39Z</time>
      </trkpt>
      <trkpt lat="48.16924" lon="7.53536">
        <ele>207.80000305176</ele>
        <time>2019-09-09T09:17:40Z</time>
      </trkpt>
      <trkpt lat="48.16907" lon="7.53543">
        <ele>207.39999389648</ele>
        <time>2019-09-09T09:17:43Z</time>
      </trkpt>
      <trkpt lat="48.16898" lon="7.53552">
        <ele>207.19999694824</ele>
        <time>2019-09-09T09:17:45Z</time>
      </trkpt>
      <trkpt lat="48.1689" lon="7.53558">
        <ele>206.60000610352</ele>
        <time>2019-09-09T09:17:47Z</time>
      </trkpt>
      <trkpt lat="48.16886" lon="7.53559">
        <ele>206.39999389648</ele>
        <time>2019-09-09T09:17:48Z</time>
      </trkpt>
      <trkpt lat="48.16857" lon="7.53557">
        <ele>206</ele>
        <time>2019-09-09T09:17:54Z</time>
      </trkpt>
      <trkpt lat="48.16812" lon="7.53553">
        <ele>206</ele>
        <time>2019-09-09T09:18:03Z</time>
      </trkpt>
      <trkpt lat="48.16765" lon="7.5355">
        <ele>206</ele>
        <time>2019-09-09T09:18:12Z</time>
      </trkpt>
      <trkpt lat="48.16724" lon="7.53549">
        <ele>206.19999694824</ele>
        <time>2019-09-09T09:18:20Z</time>
      </trkpt>
      <trkpt lat="48.16673" lon="7.53546">
        <ele>206.19999694824</ele>
        <time>2019-09-09T09:18:30Z</time>
      </trkpt>
      <trkpt lat="48.16632" lon="7.53543">
        <ele>206.19999694824</ele>
        <time>2019-09-09T09:18:38Z</time>
      </trkpt>
      <trkpt lat="48.16591" lon="7.53541">
        <ele>206.19999694824</ele>
        <time>2019-09-09T09:18:46Z</time>
      </trkpt>
      <trkpt lat="48.16554" lon="7.53539">
        <ele>206</ele>
        <time>2019-09-09T09:18:53Z</time>
      </trkpt>
      <trkpt lat="48.16514" lon="7.53538">
        <ele>206.19999694824</ele>
        <time>2019-09-09T09:19:01Z</time>
      </trkpt>
      <trkpt lat="48.16463" lon="7.53534">
        <ele>206.39999389648</ele>
        <time>2019-09-09T09:19:11Z</time>
      </trkpt>
      <trkpt lat="48.16423" lon="7.53533">
        <ele>206.39999389648</ele>
        <time>2019-09-09T09:19:19Z</time>
      </trkpt>
      <trkpt lat="48.16379" lon="7.53532">
        <ele>206.19999694824</ele>
        <time>2019-09-09T09:19:28Z</time>
      </trkpt>
      <trkpt lat="48.16334" lon="7.53527">
        <ele>206</ele>
        <time>2019-09-09T09:19:37Z</time>
      </trkpt>
      <trkpt lat="48.16294" lon="7.53526">
        <ele>206.19999694824</ele>
        <time>2019-09-09T09:19:45Z</time>
      </trkpt>
      <trkpt lat="48.1626" lon="7.53523">
        <ele>206</ele>
        <time>2019-09-09T09:19:52Z</time>
      </trkpt>
      <trkpt lat="48.1622" lon="7.53521">
        <ele>206</ele>
        <time>2019-09-09T09:20:00Z</time>
      </trkpt>
      <trkpt lat="48.16205" lon="7.53519">
        <ele>206.19999694824</ele>
        <time>2019-09-09T09:20:03Z</time>
      </trkpt>
      <trkpt lat="48.162" lon="7.53511">
        <ele>206.19999694824</ele>
        <time>2019-09-09T09:20:05Z</time>
      </trkpt>
      <trkpt lat="48.16198" lon="7.53498">
        <ele>206.19999694824</ele>
        <time>2019-09-09T09:20:07Z</time>
      </trkpt>
      <trkpt lat="48.16196" lon="7.53493">
        <ele>206.19999694824</ele>
        <time>2019-09-09T09:20:08Z</time>
      </trkpt>
      <trkpt lat="48.16193" lon="7.5349">
        <ele>206.19999694824</ele>
        <time>2019-09-09T09:20:09Z</time>
      </trkpt>
      <trkpt lat="48.16172" lon="7.53482">
        <ele>206.19999694824</ele>
        <time>2019-09-09T09:20:14Z</time>
      </trkpt>
      <trkpt lat="48.16162" lon="7.53479">
        <ele>206</ele>
        <time>2019-09-09T09:20:16Z</time>
      </trkpt>
      <trkpt lat="48.16147" lon="7.53476">
        <ele>205.60000610352</ele>
        <time>2019-09-09T09:20:19Z</time>
      </trkpt>
      <trkpt lat="48.16133" lon="7.53476">
        <ele>205.60000610352</ele>
        <time>2019-09-09T09:20:22Z</time>
      </trkpt>
      <trkpt lat="48.16095" lon="7.53476">
        <ele>205.60000610352</ele>
        <time>2019-09-09T09:20:30Z</time>
      </trkpt>
      <trkpt lat="48.16087" lon="7.53474">
        <ele>205.80000305176</ele>
        <time>2019-09-09T09:20:32Z</time>
      </trkpt>
      <trkpt lat="48.16071" lon="7.53469">
        <ele>206.19999694824</ele>
        <time>2019-09-09T09:20:36Z</time>
      </trkpt>
      <trkpt lat="48.16065" lon="7.53479">
        <ele>206.19999694824</ele>
        <time>2019-09-09T09:20:39Z</time>
      </trkpt>
      <trkpt lat="48.16063" lon="7.53488">
        <ele>206.39999389648</ele>
        <time>2019-09-09T09:20:43Z</time>
      </trkpt>
      <trkpt lat="48.16057" lon="7.53496">
        <ele>206.39999389648</ele>
        <time>2019-09-09T09:20:47Z</time>
      </trkpt>
      <trkpt lat="48.16038" lon="7.53504">
        <ele>206.80000305176</ele>
        <time>2019-09-09T09:20:52Z</time>
      </trkpt>
      <trkpt lat="48.16029" lon="7.53507">
        <ele>206.80000305176</ele>
        <time>2019-09-09T09:20:54Z</time>
      </trkpt>
      <trkpt lat="48.16017" lon="7.53517">
        <ele>207</ele>
        <time>2019-09-09T09:20:57Z</time>
      </trkpt>
      <trkpt lat="48.15996" lon="7.53526">
        <ele>207</ele>
        <time>2019-09-09T09:21:02Z</time>
      </trkpt>
      <trkpt lat="48.15977" lon="7.53524">
        <ele>207</ele>
        <time>2019-09-09T09:21:07Z</time>
      </trkpt>
      <trkpt lat="48.15969" lon="7.53522">
        <ele>207.19999694824</ele>
        <time>2019-09-09T09:21:09Z</time>
      </trkpt>
      <trkpt lat="48.15949" lon="7.53515">
        <ele>208</ele>
        <time>2019-09-09T09:21:14Z</time>
      </trkpt>
      <trkpt lat="48.15925" lon="7.53512">
        <ele>208.19999694824</ele>
        <time>2019-09-09T09:21:20Z</time>
      </trkpt>
      <trkpt lat="48.15891" lon="7.5351">
        <ele>208.39999389648</ele>
        <time>2019-09-09T09:21:28Z</time>
      </trkpt>
      <trkpt lat="48.15852" lon="7.53507">
        <ele>208.39999389648</ele>
        <time>2019-09-09T09:21:37Z</time>
      </trkpt>
      <trkpt lat="48.15812" lon="7.53506">
        <ele>208.39999389648</ele>
        <time>2019-09-09T09:21:46Z</time>
      </trkpt>
      <trkpt lat="48.15788" lon="7.53504">
        <ele>208.39999389648</ele>
        <time>2019-09-09T09:21:52Z</time>
      </trkpt>
      <trkpt lat="48.15764" lon="7.53503">
        <ele>208.39999389648</ele>
        <time>2019-09-09T09:21:58Z</time>
      </trkpt>
      <trkpt lat="48.1574" lon="7.53501">
        <ele>208.60000610352</ele>
        <time>2019-09-09T09:22:04Z</time>
      </trkpt>
      <trkpt lat="48.15711" lon="7.53499">
        <ele>208.60000610352</ele>
        <time>2019-09-09T09:22:10Z</time>
      </trkpt>
      <trkpt lat="48.15701" lon="7.53499">
        <ele>208.60000610352</ele>
        <time>2019-09-09T09:22:12Z</time>
      </trkpt>
      <trkpt lat="48.15682" lon="7.53499">
        <ele>208.39999389648</ele>
        <time>2019-09-09T09:22:16Z</time>
      </trkpt>
      <trkpt lat="48.15657" lon="7.53497">
        <ele>208.39999389648</ele>
        <time>2019-09-09T09:22:22Z</time>
      </trkpt>
      <trkpt lat="48.1563" lon="7.53498">
        <ele>208.39999389648</ele>
        <time>2019-09-09T09:22:30Z</time>
      </trkpt>
      <trkpt lat="48.1561" lon="7.53498">
        <ele>208.39999389648</ele>
        <time>2019-09-09T09:22:35Z</time>
      </trkpt>
      <trkpt lat="48.15576" lon="7.53497">
        <ele>208.60000610352</ele>
        <time>2019-09-09T09:22:42Z</time>
      </trkpt>
      <trkpt lat="48.15549" lon="7.53496">
        <ele>208.60000610352</ele>
        <time>2019-09-09T09:22:48Z</time>
      </trkpt>
      <trkpt lat="48.15522" lon="7.53495">
        <ele>208.80000305176</ele>
        <time>2019-09-09T09:22:54Z</time>
      </trkpt>
      <trkpt lat="48.1548" lon="7.53491">
        <ele>208.80000305176</ele>
        <time>2019-09-09T09:23:03Z</time>
      </trkpt>
      <trkpt lat="48.15449" lon="7.53487">
        <ele>208.60000610352</ele>
        <time>2019-09-09T09:23:10Z</time>
      </trkpt>
      <trkpt lat="48.15417" lon="7.53485">
        <ele>208.80000305176</ele>
        <time>2019-09-09T09:23:17Z</time>
      </trkpt>
      <trkpt lat="48.15397" lon="7.53483">
        <ele>208.60000610352</ele>
        <time>2019-09-09T09:23:22Z</time>
      </trkpt>
      <trkpt lat="48.15353" lon="7.53479">
        <ele>208.80000305176</ele>
        <time>2019-09-09T09:23:31Z</time>
      </trkpt>
      <trkpt lat="48.15321" lon="7.53479">
        <ele>208.80000305176</ele>
        <time>2019-09-09T09:23:38Z</time>
      </trkpt>
      <trkpt lat="48.1529" lon="7.53478">
        <ele>208.80000305176</ele>
        <time>2019-09-09T09:23:44Z</time>
      </trkpt>
      <trkpt lat="48.15252" lon="7.53474">
        <ele>208.80000305176</ele>
        <time>2019-09-09T09:23:51Z</time>
      </trkpt>
      <trkpt lat="48.15247" lon="7.53474">
        <ele>208.80000305176</ele>
        <time>2019-09-09T09:23:52Z</time>
      </trkpt>
      <trkpt lat="48.15214" lon="7.53473">
        <ele>208.80000305176</ele>
        <time>2019-09-09T09:23:58Z</time>
      </trkpt>
      <trkpt lat="48.15176" lon="7.53473">
        <ele>208.80000305176</ele>
        <time>2019-09-09T09:24:06Z</time>
      </trkpt>
      <trkpt lat="48.15146" lon="7.53471">
        <ele>209</ele>
        <time>2019-09-09T09:24:13Z</time>
      </trkpt>
      <trkpt lat="48.1512" lon="7.5347">
        <ele>209</ele>
        <time>2019-09-09T09:24:19Z</time>
      </trkpt>
      <trkpt lat="48.15115" lon="7.53469">
        <ele>209</ele>
        <time>2019-09-09T09:24:20Z</time>
      </trkpt>
      <trkpt lat="48.15085" lon="7.53468">
        <ele>209</ele>
        <time>2019-09-09T09:24:26Z</time>
      </trkpt>
      <trkpt lat="48.15061" lon="7.53467">
        <ele>208.80000305176</ele>
        <time>2019-09-09T09:24:31Z</time>
      </trkpt>
      <trkpt lat="48.15056" lon="7.53466">
        <ele>208.80000305176</ele>
        <time>2019-09-09T09:24:32Z</time>
      </trkpt>
      <trkpt lat="48.15035" lon="7.53465">
        <ele>208.60000610352</ele>
        <time>2019-09-09T09:24:37Z</time>
      </trkpt>
      <trkpt lat="48.1501" lon="7.53463">
        <ele>208.60000610352</ele>
        <time>2019-09-09T09:24:43Z</time>
      </trkpt>
      <trkpt lat="48.14982" lon="7.53464">
        <ele>208.80000305176</ele>
        <time>2019-09-09T09:24:50Z</time>
      </trkpt>
      <trkpt lat="48.14957" lon="7.53462">
        <ele>208.80000305176</ele>
        <time>2019-09-09T09:24:56Z</time>
      </trkpt>
      <trkpt lat="48.14921" lon="7.53457">
        <ele>208.80000305176</ele>
        <time>2019-09-09T09:25:03Z</time>
      </trkpt>
      <trkpt lat="48.14895" lon="7.53455">
        <ele>208.60000610352</ele>
        <time>2019-09-09T09:25:09Z</time>
      </trkpt>
      <trkpt lat="48.14869" lon="7.53453">
        <ele>208.60000610352</ele>
        <time>2019-09-09T09:25:14Z</time>
      </trkpt>
      <trkpt lat="48.14864" lon="7.53453">
        <ele>208.60000610352</ele>
        <time>2019-09-09T09:25:15Z</time>
      </trkpt>
      <trkpt lat="48.14844" lon="7.53453">
        <ele>208.80000305176</ele>
        <time>2019-09-09T09:25:19Z</time>
      </trkpt>
      <trkpt lat="48.14815" lon="7.53451">
        <ele>208.80000305176</ele>
        <time>2019-09-09T09:25:25Z</time>
      </trkpt>
      <trkpt lat="48.14764" lon="7.53448">
        <ele>208.80000305176</ele>
        <time>2019-09-09T09:25:34Z</time>
      </trkpt>
      <trkpt lat="48.14723" lon="7.53445">
        <ele>208.60000610352</ele>
        <time>2019-09-09T09:25:42Z</time>
      </trkpt>
      <trkpt lat="48.14688" lon="7.53444">
        <ele>208.60000610352</ele>
        <time>2019-09-09T09:25:49Z</time>
      </trkpt>
      <trkpt lat="48.14643" lon="7.53441">
        <ele>208.60000610352</ele>
        <time>2019-09-09T09:25:57Z</time>
      </trkpt>
      <trkpt lat="48.14612" lon="7.53439">
        <ele>208.60000610352</ele>
        <time>2019-09-09T09:26:03Z</time>
      </trkpt>
      <trkpt lat="48.14578" lon="7.53438">
        <ele>208.60000610352</ele>
        <time>2019-09-09T09:26:10Z</time>
      </trkpt>
      <trkpt lat="48.1455" lon="7.53438">
        <ele>208.60000610352</ele>
        <time>2019-09-09T09:26:16Z</time>
      </trkpt>
      <trkpt lat="48.14518" lon="7.53437">
        <ele>208.80000305176</ele>
        <time>2019-09-09T09:26:22Z</time>
      </trkpt>
      <trkpt lat="48.14488" lon="7.53435">
        <ele>208.80000305176</ele>
        <time>2019-09-09T09:26:28Z</time>
      </trkpt>
      <trkpt lat="48.14458" lon="7.53435">
        <ele>208.80000305176</ele>
        <time>2019-09-09T09:26:34Z</time>
      </trkpt>
      <trkpt lat="48.14438" lon="7.53434">
        <ele>208.80000305176</ele>
        <time>2019-09-09T09:26:38Z</time>
      </trkpt>
      <trkpt lat="48.14434" lon="7.53434">
        <ele>208.80000305176</ele>
        <time>2019-09-09T09:26:39Z</time>
      </trkpt>
      <trkpt lat="48.14399" lon="7.53434">
        <ele>208.60000610352</ele>
        <time>2019-09-09T09:26:46Z</time>
      </trkpt>
      <trkpt lat="48.14369" lon="7.53432">
        <ele>208.80000305176</ele>
        <time>2019-09-09T09:26:53Z</time>
      </trkpt>
      <trkpt lat="48.14326" lon="7.53429">
        <ele>208.80000305176</ele>
        <time>2019-09-09T09:27:01Z</time>
      </trkpt>
      <trkpt lat="48.14299" lon="7.53429">
        <ele>208.80000305176</ele>
        <time>2019-09-09T09:27:07Z</time>
      </trkpt>
      <trkpt lat="48.14281" lon="7.53429">
        <ele>208.60000610352</ele>
        <time>2019-09-09T09:27:11Z</time>
      </trkpt>
      <trkpt lat="48.14249" lon="7.53427">
        <ele>208.60000610352</ele>
        <time>2019-09-09T09:27:18Z</time>
      </trkpt>
      <trkpt lat="48.14224" lon="7.53425">
        <ele>208.60000610352</ele>
        <time>2019-09-09T09:27:23Z</time>
      </trkpt>
      <trkpt lat="48.14184" lon="7.53421">
        <ele>208.60000610352</ele>
        <time>2019-09-09T09:27:31Z</time>
      </trkpt>
      <trkpt lat="48.14169" lon="7.5342">
        <ele>208.60000610352</ele>
        <time>2019-09-09T09:27:35Z</time>
      </trkpt>
      <trkpt lat="48.14147" lon="7.53418">
        <ele>208.80000305176</ele>
        <time>2019-09-09T09:27:41Z</time>
      </trkpt>
      <trkpt lat="48.14127" lon="7.53415">
        <ele>208.80000305176</ele>
        <time>2019-09-09T09:27:46Z</time>
      </trkpt>
      <trkpt lat="48.14123" lon="7.53414">
        <ele>208.80000305176</ele>
        <time>2019-09-09T09:27:47Z</time>
      </trkpt>
      <trkpt lat="48.14107" lon="7.53414">
        <ele>208.60000610352</ele>
        <time>2019-09-09T09:27:51Z</time>
      </trkpt>
      <trkpt lat="48.14076" lon="7.53415">
        <ele>208.60000610352</ele>
        <time>2019-09-09T09:27:57Z</time>
      </trkpt>
      <trkpt lat="48.14039" lon="7.53415">
        <ele>208.39999389648</ele>
        <time>2019-09-09T09:28:04Z</time>
      </trkpt>
      <trkpt lat="48.14016" lon="7.53415">
        <ele>208.60000610352</ele>
        <time>2019-09-09T09:28:09Z</time>
      </trkpt>
      <trkpt lat="48.14002" lon="7.53414">
        <ele>208.60000610352</ele>
        <time>2019-09-09T09:28:12Z</time>
      </trkpt>
      <trkpt lat="48.13985" lon="7.53414">
        <ele>208.60000610352</ele>
        <time>2019-09-09T09:28:15Z</time>
      </trkpt>
      <trkpt lat="48.13949" lon="7.53412">
        <ele>208.60000610352</ele>
        <time>2019-09-09T09:28:21Z</time>
      </trkpt>
      <trkpt lat="48.1391" lon="7.53409">
        <ele>208.60000610352</ele>
        <time>2019-09-09T09:28:28Z</time>
      </trkpt>
      <trkpt lat="48.13879" lon="7.53407">
        <ele>208.80000305176</ele>
        <time>2019-09-09T09:28:35Z</time>
      </trkpt>
      <trkpt lat="48.13851" lon="7.53402">
        <ele>208.60000610352</ele>
        <time>2019-09-09T09:28:41Z</time>
      </trkpt>
      <trkpt lat="48.13823" lon="7.53404">
        <ele>208.60000610352</ele>
        <time>2019-09-09T09:28:47Z</time>
      </trkpt>
      <trkpt lat="48.13798" lon="7.53404">
        <ele>208.60000610352</ele>
        <time>2019-09-09T09:28:52Z</time>
      </trkpt>
      <trkpt lat="48.13767" lon="7.53401">
        <ele>208.60000610352</ele>
        <time>2019-09-09T09:28:58Z</time>
      </trkpt>
      <trkpt lat="48.13725" lon="7.53398">
        <ele>208.60000610352</ele>
        <time>2019-09-09T09:29:05Z</time>
      </trkpt>
      <trkpt lat="48.13696" lon="7.53399">
        <ele>208.39999389648</ele>
        <time>2019-09-09T09:29:11Z</time>
      </trkpt>
      <trkpt lat="48.13673" lon="7.53398">
        <ele>208.60000610352</ele>
        <time>2019-09-09T09:29:16Z</time>
      </trkpt>
      <trkpt lat="48.13634" lon="7.53394">
        <ele>208.60000610352</ele>
        <time>2019-09-09T09:29:23Z</time>
      </trkpt>
      <trkpt lat="48.13606" lon="7.53394">
        <ele>208.60000610352</ele>
        <time>2019-09-09T09:29:29Z</time>
      </trkpt>
      <trkpt lat="48.13602" lon="7.53394">
        <ele>208.60000610352</ele>
        <time>2019-09-09T09:29:30Z</time>
      </trkpt>
      <trkpt lat="48.13578" lon="7.53391">
        <ele>209.39999389648</ele>
        <time>2019-09-09T09:29:36Z</time>
      </trkpt>
      <trkpt lat="48.13556" lon="7.53394">
        <ele>210.60000610352</ele>
        <time>2019-09-09T09:29:41Z</time>
      </trkpt>
      <trkpt lat="48.13552" lon="7.53393">
        <ele>210.60000610352</ele>
        <time>2019-09-09T09:29:42Z</time>
      </trkpt>
      <trkpt lat="48.13521" lon="7.53388">
        <ele>210.80000305176</ele>
        <time>2019-09-09T09:29:49Z</time>
      </trkpt>
      <trkpt lat="48.13499" lon="7.53385">
        <ele>210.80000305176</ele>
        <time>2019-09-09T09:29:55Z</time>
      </trkpt>
      <trkpt lat="48.1348" lon="7.53384">
        <ele>210.80000305176</ele>
        <time>2019-09-09T09:30:00Z</time>
      </trkpt>
      <trkpt lat="48.13449" lon="7.53382">
        <ele>210.60000610352</ele>
        <time>2019-09-09T09:30:07Z</time>
      </trkpt>
      <trkpt lat="48.13445" lon="7.53382">
        <ele>210.39999389648</ele>
        <time>2019-09-09T09:30:08Z</time>
      </trkpt>
      <trkpt lat="48.13414" lon="7.53381">
        <ele>210.19999694824</ele>
        <time>2019-09-09T09:30:15Z</time>
      </trkpt>
      <trkpt lat="48.13385" lon="7.53381">
        <ele>210.19999694824</ele>
        <time>2019-09-09T09:30:22Z</time>
      </trkpt>
      <trkpt lat="48.13364" lon="7.53381">
        <ele>210.39999389648</ele>
        <time>2019-09-09T09:30:27Z</time>
      </trkpt>
      <trkpt lat="48.1334" lon="7.53382">
        <ele>210.39999389648</ele>
        <time>2019-09-09T09:30:33Z</time>
      </trkpt>
      <trkpt lat="48.13315" lon="7.53379">
        <ele>210.60000610352</ele>
        <time>2019-09-09T09:30:39Z</time>
      </trkpt>
      <trkpt lat="48.1329" lon="7.5338">
        <ele>210.39999389648</ele>
        <time>2019-09-09T09:30:44Z</time>
      </trkpt>
      <trkpt lat="48.13263" lon="7.53378">
        <ele>210.60000610352</ele>
        <time>2019-09-09T09:30:50Z</time>
      </trkpt>
      <trkpt lat="48.13225" lon="7.53374">
        <ele>210.60000610352</ele>
        <time>2019-09-09T09:30:57Z</time>
      </trkpt>
      <trkpt lat="48.13192" lon="7.53374">
        <ele>210.39999389648</ele>
        <time>2019-09-09T09:31:03Z</time>
      </trkpt>
      <trkpt lat="48.13157" lon="7.53372">
        <ele>210.60000610352</ele>
        <time>2019-09-09T09:31:10Z</time>
      </trkpt>
      <trkpt lat="48.13124" lon="7.5337">
        <ele>210.39999389648</ele>
        <time>2019-09-09T09:31:17Z</time>
      </trkpt>
      <trkpt lat="48.13084" lon="7.53369">
        <ele>210.19999694824</ele>
        <time>2019-09-09T09:31:25Z</time>
      </trkpt>
      <trkpt lat="48.13045" lon="7.53365">
        <ele>210.19999694824</ele>
        <time>2019-09-09T09:31:32Z</time>
      </trkpt>
      <trkpt lat="48.13001" lon="7.53362">
        <ele>210.19999694824</ele>
        <time>2019-09-09T09:31:41Z</time>
      </trkpt>
      <trkpt lat="48.12957" lon="7.53361">
        <ele>210.19999694824</ele>
        <time>2019-09-09T09:31:49Z</time>
      </trkpt>
      <trkpt lat="48.12938" lon="7.53359">
        <ele>210.19999694824</ele>
        <time>2019-09-09T09:31:53Z</time>
      </trkpt>
      <trkpt lat="48.12923" lon="7.53359">
        <ele>210.39999389648</ele>
        <time>2019-09-09T09:31:56Z</time>
      </trkpt>
      <trkpt lat="48.12898" lon="7.53359">
        <ele>210.60000610352</ele>
        <time>2019-09-09T09:32:01Z</time>
      </trkpt>
      <trkpt lat="48.12893" lon="7.53359">
        <ele>210.60000610352</ele>
        <time>2019-09-09T09:32:02Z</time>
      </trkpt>
      <trkpt lat="48.12862" lon="7.53357">
        <ele>210.60000610352</ele>
        <time>2019-09-09T09:32:09Z</time>
      </trkpt>
      <trkpt lat="48.12827" lon="7.53355">
        <ele>210.60000610352</ele>
        <time>2019-09-09T09:32:16Z</time>
      </trkpt>
      <trkpt lat="48.12793" lon="7.53355">
        <ele>210.60000610352</ele>
        <time>2019-09-09T09:32:23Z</time>
      </trkpt>
      <trkpt lat="48.12766" lon="7.53353">
        <ele>210.60000610352</ele>
        <time>2019-09-09T09:32:29Z</time>
      </trkpt>
      <trkpt lat="48.12757" lon="7.53353">
        <ele>210.60000610352</ele>
        <time>2019-09-09T09:32:31Z</time>
      </trkpt>
      <trkpt lat="48.12734" lon="7.53352">
        <ele>210.39999389648</ele>
        <time>2019-09-09T09:32:35Z</time>
      </trkpt>
      <trkpt lat="48.12716" lon="7.5335">
        <ele>210.60000610352</ele>
        <time>2019-09-09T09:32:39Z</time>
      </trkpt>
      <trkpt lat="48.12707" lon="7.53351">
        <ele>210.60000610352</ele>
        <time>2019-09-09T09:32:41Z</time>
      </trkpt>
      <trkpt lat="48.12697" lon="7.5335">
        <ele>210.60000610352</ele>
        <time>2019-09-09T09:32:43Z</time>
      </trkpt>
      <trkpt lat="48.12678" lon="7.53349">
        <ele>210.80000305176</ele>
        <time>2019-09-09T09:32:47Z</time>
      </trkpt>
      <trkpt lat="48.12663" lon="7.53348">
        <ele>210.80000305176</ele>
        <time>2019-09-09T09:32:50Z</time>
      </trkpt>
      <trkpt lat="48.12651" lon="7.53347">
        <ele>210.60000610352</ele>
        <time>2019-09-09T09:32:52Z</time>
      </trkpt>
      <trkpt lat="48.12618" lon="7.53346">
        <ele>210.60000610352</ele>
        <time>2019-09-09T09:32:58Z</time>
      </trkpt>
      <trkpt lat="48.12584" lon="7.53344">
        <ele>210.80000305176</ele>
        <time>2019-09-09T09:33:05Z</time>
      </trkpt>
      <trkpt lat="48.12545" lon="7.53341">
        <ele>210.80000305176</ele>
        <time>2019-09-09T09:33:12Z</time>
      </trkpt>
      <trkpt lat="48.12526" lon="7.5334">
        <ele>210.80000305176</ele>
        <time>2019-09-09T09:33:17Z</time>
      </trkpt>
      <trkpt lat="48.12523" lon="7.53341">
        <ele>210.80000305176</ele>
        <time>2019-09-09T09:33:18Z</time>
      </trkpt>
      <trkpt lat="48.12521" lon="7.53342">
        <ele>210.60000610352</ele>
        <time>2019-09-09T09:33:21Z</time>
      </trkpt>
      <trkpt lat="48.12522" lon="7.53341">
        <ele>210.60000610352</ele>
        <time>2019-09-09T09:33:25Z</time>
      </trkpt>
      <trkpt lat="48.12522" lon="7.5334">
        <ele>210.80000305176</ele>
        <time>2019-09-09T09:33:31Z</time>
      </trkpt>
      <trkpt lat="48.12522" lon="7.5334">
        <ele>210.80000305176</ele>
        <time>2019-09-09T09:33:32Z</time>
      </trkpt>
      <trkpt lat="48.12515" lon="7.53339">
        <ele>210.60000610352</ele>
        <time>2019-09-09T09:34:06Z</time>
      </trkpt>
      <trkpt lat="48.12509" lon="7.53336">
        <ele>210.60000610352</ele>
        <time>2019-09-09T09:34:08Z</time>
      </trkpt>
      <trkpt lat="48.12488" lon="7.5333">
        <ele>210.60000610352</ele>
        <time>2019-09-09T09:34:14Z</time>
      </trkpt>
      <trkpt lat="48.12459" lon="7.53329">
        <ele>210.39999389648</ele>
        <time>2019-09-09T09:34:21Z</time>
      </trkpt>
      <trkpt lat="48.12425" lon="7.53327">
        <ele>210.39999389648</ele>
        <time>2019-09-09T09:34:28Z</time>
      </trkpt>
      <trkpt lat="48.12399" lon="7.53328">
        <ele>210.39999389648</ele>
        <time>2019-09-09T09:34:34Z</time>
      </trkpt>
      <trkpt lat="48.12374" lon="7.53328">
        <ele>210.39999389648</ele>
        <time>2019-09-09T09:34:40Z</time>
      </trkpt>
      <trkpt lat="48.12346" lon="7.53326">
        <ele>210.39999389648</ele>
        <time>2019-09-09T09:34:46Z</time>
      </trkpt>
      <trkpt lat="48.12319" lon="7.53324">
        <ele>210.60000610352</ele>
        <time>2019-09-09T09:34:52Z</time>
      </trkpt>
      <trkpt lat="48.12294" lon="7.53325">
        <ele>210.80000305176</ele>
        <time>2019-09-09T09:34:57Z</time>
      </trkpt>
      <trkpt lat="48.12258" lon="7.53325">
        <ele>210.80000305176</ele>
        <time>2019-09-09T09:35:04Z</time>
      </trkpt>
      <trkpt lat="48.12218" lon="7.53323">
        <ele>210.60000610352</ele>
        <time>2019-09-09T09:35:11Z</time>
      </trkpt>
      <trkpt lat="48.12194" lon="7.53321">
        <ele>210.60000610352</ele>
        <time>2019-09-09T09:35:16Z</time>
      </trkpt>
      <trkpt lat="48.12189" lon="7.53321">
        <ele>210.60000610352</ele>
        <time>2019-09-09T09:35:17Z</time>
      </trkpt>
      <trkpt lat="48.12165" lon="7.53319">
        <ele>210.60000610352</ele>
        <time>2019-09-09T09:35:22Z</time>
      </trkpt>
      <trkpt lat="48.12134" lon="7.53316">
        <ele>210.80000305176</ele>
        <time>2019-09-09T09:35:28Z</time>
      </trkpt>
      <trkpt lat="48.12102" lon="7.53313">
        <ele>210.80000305176</ele>
        <time>2019-09-09T09:35:34Z</time>
      </trkpt>
      <trkpt lat="48.12067" lon="7.53313">
        <ele>210.80000305176</ele>
        <time>2019-09-09T09:35:41Z</time>
      </trkpt>
      <trkpt lat="48.12031" lon="7.5331">
        <ele>211</ele>
        <time>2019-09-09T09:35:48Z</time>
      </trkpt>
      <trkpt lat="48.12003" lon="7.5331">
        <ele>210.80000305176</ele>
        <time>2019-09-09T09:35:54Z</time>
      </trkpt>
      <trkpt lat="48.11967" lon="7.53308">
        <ele>210.80000305176</ele>
        <time>2019-09-09T09:36:01Z</time>
      </trkpt>
      <trkpt lat="48.11936" lon="7.53306">
        <ele>211</ele>
        <time>2019-09-09T09:36:07Z</time>
      </trkpt>
      <trkpt lat="48.11892" lon="7.533">
        <ele>210.80000305176</ele>
        <time>2019-09-09T09:36:15Z</time>
      </trkpt>
      <trkpt lat="48.11861" lon="7.53298">
        <ele>210.80000305176</ele>
        <time>2019-09-09T09:36:21Z</time>
      </trkpt>
      <trkpt lat="48.11818" lon="7.53295">
        <ele>210.80000305176</ele>
        <time>2019-09-09T09:36:29Z</time>
      </trkpt>
      <trkpt lat="48.11786" lon="7.53293">
        <ele>210.80000305176</ele>
        <time>2019-09-09T09:36:35Z</time>
      </trkpt>
      <trkpt lat="48.11751" lon="7.53293">
        <ele>210.80000305176</ele>
        <time>2019-09-09T09:36:42Z</time>
      </trkpt>
      <trkpt lat="48.11716" lon="7.53294">
        <ele>210.80000305176</ele>
        <time>2019-09-09T09:36:49Z</time>
      </trkpt>
      <trkpt lat="48.11686" lon="7.53293">
        <ele>210.80000305176</ele>
        <time>2019-09-09T09:36:56Z</time>
      </trkpt>
      <trkpt lat="48.11675" lon="7.53291">
        <ele>211</ele>
        <time>2019-09-09T09:37:01Z</time>
      </trkpt>
      <trkpt lat="48.11675" lon="7.53291">
        <ele>211.19999694824</ele>
        <time>2019-09-09T09:37:02Z</time>
      </trkpt>
      <trkpt lat="48.11674" lon="7.53293">
        <ele>211.60000610352</ele>
        <time>2019-09-09T09:37:33Z</time>
      </trkpt>
      <trkpt lat="48.11673" lon="7.53293">
        <ele>211.60000610352</ele>
        <time>2019-09-09T09:37:35Z</time>
      </trkpt>
      <trkpt lat="48.11672" lon="7.53288">
        <ele>212.19999694824</ele>
        <time>2019-09-09T09:45:58Z</time>
      </trkpt>
      <trkpt lat="48.11671" lon="7.53284">
        <ele>212.19999694824</ele>
        <time>2019-09-09T09:46:00Z</time>
      </trkpt>
      <trkpt lat="48.1167" lon="7.53274">
        <ele>212.19999694824</ele>
        <time>2019-09-09T09:46:03Z</time>
      </trkpt>
      <trkpt lat="48.11667" lon="7.53241">
        <ele>212</ele>
        <time>2019-09-09T09:46:09Z</time>
      </trkpt>
      <trkpt lat="48.11666" lon="7.53222">
        <ele>211.80000305176</ele>
        <time>2019-09-09T09:46:12Z</time>
      </trkpt>
      <trkpt lat="48.11668" lon="7.53204">
        <ele>211.80000305176</ele>
        <time>2019-09-09T09:46:15Z</time>
      </trkpt>
      <trkpt lat="48.11669" lon="7.53197">
        <ele>211.80000305176</ele>
        <time>2019-09-09T09:46:16Z</time>
      </trkpt>
      <trkpt lat="48.11674" lon="7.53165">
        <ele>211.80000305176</ele>
        <time>2019-09-09T09:46:21Z</time>
      </trkpt>
      <trkpt lat="48.11681" lon="7.53121">
        <ele>212</ele>
        <time>2019-09-09T09:46:28Z</time>
      </trkpt>
      <trkpt lat="48.1169" lon="7.5308">
        <ele>212</ele>
        <time>2019-09-09T09:46:34Z</time>
      </trkpt>
      <trkpt lat="48.11698" lon="7.53052">
        <ele>211.80000305176</ele>
        <time>2019-09-09T09:46:38Z</time>
      </trkpt>
      <trkpt lat="48.11701" lon="7.5304">
        <ele>211.80000305176</ele>
        <time>2019-09-09T09:46:40Z</time>
      </trkpt>
      <trkpt lat="48.11699" lon="7.53028">
        <ele>211.80000305176</ele>
        <time>2019-09-09T09:46:43Z</time>
      </trkpt>
      <trkpt lat="48.11694" lon="7.53033">
        <ele>211.80000305176</ele>
        <time>2019-09-09T09:46:46Z</time>
      </trkpt>
      <trkpt lat="48.11693" lon="7.53042">
        <ele>211.80000305176</ele>
        <time>2019-09-09T09:46:48Z</time>
      </trkpt>
      <trkpt lat="48.11687" lon="7.5307">
        <ele>211.80000305176</ele>
        <time>2019-09-09T09:46:54Z</time>
      </trkpt>
      <trkpt lat="48.11682" lon="7.53096">
        <ele>212.19999694824</ele>
        <time>2019-09-09T09:47:00Z</time>
      </trkpt>
      <trkpt lat="48.11678" lon="7.53124">
        <ele>212.60000610352</ele>
        <time>2019-09-09T09:47:06Z</time>
      </trkpt>
      <trkpt lat="48.11672" lon="7.53157">
        <ele>213</ele>
        <time>2019-09-09T09:47:13Z</time>
      </trkpt>
      <trkpt lat="48.11669" lon="7.53175">
        <ele>213.80000305176</ele>
        <time>2019-09-09T09:47:17Z</time>
      </trkpt>
      <trkpt lat="48.11667" lon="7.5319">
        <ele>214</ele>
        <time>2019-09-09T09:47:20Z</time>
      </trkpt>
      <trkpt lat="48.11656" lon="7.53223">
        <ele>214.60000610352</ele>
        <time>2019-09-09T09:47:27Z</time>
      </trkpt>
      <trkpt lat="48.11655" lon="7.53233">
        <ele>215</ele>
        <time>2019-09-09T09:47:29Z</time>
      </trkpt>
      <trkpt lat="48.11657" lon="7.53249">
        <ele>215.19999694824</ele>
        <time>2019-09-09T09:47:32Z</time>
      </trkpt>
      <trkpt lat="48.11657" lon="7.53283">
        <ele>215.80000305176</ele>
        <time>2019-09-09T09:47:39Z</time>
      </trkpt>
      <trkpt lat="48.11656" lon="7.53294">
        <ele>216</ele>
        <time>2019-09-09T09:47:41Z</time>
      </trkpt>
      <trkpt lat="48.11654" lon="7.53331">
        <ele>216.19999694824</ele>
        <time>2019-09-09T09:47:48Z</time>
      </trkpt>
      <trkpt lat="48.1165" lon="7.53377">
        <ele>216.19999694824</ele>
        <time>2019-09-09T09:47:55Z</time>
      </trkpt>
      <trkpt lat="48.11642" lon="7.53427">
        <ele>215.80000305176</ele>
        <time>2019-09-09T09:48:02Z</time>
      </trkpt>
      <trkpt lat="48.11631" lon="7.53482">
        <ele>214.80000305176</ele>
        <time>2019-09-09T09:48:09Z</time>
      </trkpt>
      <trkpt lat="48.11629" lon="7.5349">
        <ele>214.80000305176</ele>
        <time>2019-09-09T09:48:10Z</time>
      </trkpt>
      <trkpt lat="48.11627" lon="7.53498">
        <ele>214.60000610352</ele>
        <time>2019-09-09T09:48:11Z</time>
      </trkpt>
      <trkpt lat="48.11619" lon="7.53529">
        <ele>213.60000610352</ele>
        <time>2019-09-09T09:48:15Z</time>
      </trkpt>
      <trkpt lat="48.11609" lon="7.53548">
        <ele>213.19999694824</ele>
        <time>2019-09-09T09:48:18Z</time>
      </trkpt>
      <trkpt lat="48.11609" lon="7.53569">
        <ele>212.80000305176</ele>
        <time>2019-09-09T09:48:21Z</time>
      </trkpt>
      <trkpt lat="48.11611" lon="7.53583">
        <ele>212.39999389648</ele>
        <time>2019-09-09T09:48:23Z</time>
      </trkpt>
      <trkpt lat="48.11609" lon="7.53597">
        <ele>212.19999694824</ele>
        <time>2019-09-09T09:48:25Z</time>
      </trkpt>
      <trkpt lat="48.11596" lon="7.53655">
        <ele>211.60000610352</ele>
        <time>2019-09-09T09:48:33Z</time>
      </trkpt>
      <trkpt lat="48.11594" lon="7.53662">
        <ele>211.19999694824</ele>
        <time>2019-09-09T09:48:34Z</time>
      </trkpt>
      <trkpt lat="48.11576" lon="7.53726">
        <ele>210.80000305176</ele>
        <time>2019-09-09T09:48:43Z</time>
      </trkpt>
      <trkpt lat="48.11572" lon="7.5374">
        <ele>210.80000305176</ele>
        <time>2019-09-09T09:48:45Z</time>
      </trkpt>
      <trkpt lat="48.11564" lon="7.53759">
        <ele>210.80000305176</ele>
        <time>2019-09-09T09:48:48Z</time>
      </trkpt>
      <trkpt lat="48.11549" lon="7.53805">
        <ele>211.19999694824</ele>
        <time>2019-09-09T09:48:55Z</time>
      </trkpt>
      <trkpt lat="48.11536" lon="7.53845">
        <ele>211.19999694824</ele>
        <time>2019-09-09T09:49:01Z</time>
      </trkpt>
      <trkpt lat="48.11531" lon="7.53858">
        <ele>211.39999389648</ele>
        <time>2019-09-09T09:49:03Z</time>
      </trkpt>
      <trkpt lat="48.11515" lon="7.53906">
        <ele>211.60000610352</ele>
        <time>2019-09-09T09:49:10Z</time>
      </trkpt>
      <trkpt lat="48.11489" lon="7.53968">
        <ele>211.80000305176</ele>
        <time>2019-09-09T09:49:19Z</time>
      </trkpt>
      <trkpt lat="48.11471" lon="7.54011">
        <ele>211.80000305176</ele>
        <time>2019-09-09T09:49:26Z</time>
      </trkpt>
      <trkpt lat="48.1146" lon="7.5404">
        <ele>211.60000610352</ele>
        <time>2019-09-09T09:49:32Z</time>
      </trkpt>
      <trkpt lat="48.11456" lon="7.5405">
        <ele>211.60000610352</ele>
        <time>2019-09-09T09:49:34Z</time>
      </trkpt>
      <trkpt lat="48.11444" lon="7.54068">
        <ele>211.60000610352</ele>
        <time>2019-09-09T09:49:38Z</time>
      </trkpt>
      <trkpt lat="48.11416" lon="7.54097">
        <ele>211.60000610352</ele>
        <time>2019-09-09T09:49:45Z</time>
      </trkpt>
      <trkpt lat="48.11384" lon="7.54127">
        <ele>211.60000610352</ele>
        <time>2019-09-09T09:49:52Z</time>
      </trkpt>
      <trkpt lat="48.11358" lon="7.54153">
        <ele>211.60000610352</ele>
        <time>2019-09-09T09:49:58Z</time>
      </trkpt>
      <trkpt lat="48.11319" lon="7.54191">
        <ele>211.60000610352</ele>
        <time>2019-09-09T09:50:07Z</time>
      </trkpt>
      <trkpt lat="48.11278" lon="7.54233">
        <ele>212.19999694824</ele>
        <time>2019-09-09T09:50:16Z</time>
      </trkpt>
      <trkpt lat="48.1124" lon="7.54269">
        <ele>212.19999694824</ele>
        <time>2019-09-09T09:50:24Z</time>
      </trkpt>
      <trkpt lat="48.11196" lon="7.54304">
        <ele>212.19999694824</ele>
        <time>2019-09-09T09:50:33Z</time>
      </trkpt>
      <trkpt lat="48.11146" lon="7.54336">
        <ele>212.39999389648</ele>
        <time>2019-09-09T09:50:43Z</time>
      </trkpt>
      <trkpt lat="48.11097" lon="7.54366">
        <ele>212.60000610352</ele>
        <time>2019-09-09T09:50:53Z</time>
      </trkpt>
      <trkpt lat="48.11059" lon="7.54389">
        <ele>212.60000610352</ele>
        <time>2019-09-09T09:51:01Z</time>
      </trkpt>
      <trkpt lat="48.11023" lon="7.54412">
        <ele>212.80000305176</ele>
        <time>2019-09-09T09:51:09Z</time>
      </trkpt>
      <trkpt lat="48.10982" lon="7.54439">
        <ele>213</ele>
        <time>2019-09-09T09:51:18Z</time>
      </trkpt>
      <trkpt lat="48.10946" lon="7.54465">
        <ele>213</ele>
        <time>2019-09-09T09:51:26Z</time>
      </trkpt>
      <trkpt lat="48.10901" lon="7.545">
        <ele>213</ele>
        <time>2019-09-09T09:51:36Z</time>
      </trkpt>
      <trkpt lat="48.10854" lon="7.54537">
        <ele>213.19999694824</ele>
        <time>2019-09-09T09:51:47Z</time>
      </trkpt>
      <trkpt lat="48.10815" lon="7.54573">
        <ele>213</ele>
        <time>2019-09-09T09:51:56Z</time>
      </trkpt>
      <trkpt lat="48.10767" lon="7.54617">
        <ele>212.60000610352</ele>
        <time>2019-09-09T09:52:06Z</time>
      </trkpt>
      <trkpt lat="48.10721" lon="7.54654">
        <ele>212.39999389648</ele>
        <time>2019-09-09T09:52:16Z</time>
      </trkpt>
      <trkpt lat="48.10672" lon="7.54688">
        <ele>212.60000610352</ele>
        <time>2019-09-09T09:52:27Z</time>
      </trkpt>
      <trkpt lat="48.10632" lon="7.54714">
        <ele>212.80000305176</ele>
        <time>2019-09-09T09:52:36Z</time>
      </trkpt>
      <trkpt lat="48.10594" lon="7.54739">
        <ele>213</ele>
        <time>2019-09-09T09:52:45Z</time>
      </trkpt>
      <trkpt lat="48.10552" lon="7.54767">
        <ele>213.60000610352</ele>
        <time>2019-09-09T09:52:55Z</time>
      </trkpt>
      <trkpt lat="48.10548" lon="7.54769">
        <ele>213.80000305176</ele>
        <time>2019-09-09T09:52:56Z</time>
      </trkpt>
      <trkpt lat="48.10528" lon="7.54783">
        <ele>213.80000305176</ele>
        <time>2019-09-09T09:53:02Z</time>
      </trkpt>
      <trkpt lat="48.10526" lon="7.54784">
        <ele>213.80000305176</ele>
        <time>2019-09-09T09:53:05Z</time>
      </trkpt>
      <trkpt lat="48.10525" lon="7.54785">
        <ele>213.80000305176</ele>
        <time>2019-09-09T09:53:26Z</time>
      </trkpt>
      <trkpt lat="48.10517" lon="7.54792">
        <ele>213.80000305176</ele>
        <time>2019-09-09T09:53:30Z</time>
      </trkpt>
      <trkpt lat="48.10512" lon="7.54796">
        <ele>213.80000305176</ele>
        <time>2019-09-09T09:53:32Z</time>
      </trkpt>
      <trkpt lat="48.10497" lon="7.54808">
        <ele>213.80000305176</ele>
        <time>2019-09-09T09:53:37Z</time>
      </trkpt>
      <trkpt lat="48.10476" lon="7.54828">
        <ele>213.60000610352</ele>
        <time>2019-09-09T09:53:44Z</time>
      </trkpt>
      <trkpt lat="48.10442" lon="7.54865">
        <ele>213.39999389648</ele>
        <time>2019-09-09T09:53:53Z</time>
      </trkpt>
      <trkpt lat="48.10406" lon="7.54899">
        <ele>213.39999389648</ele>
        <time>2019-09-09T09:54:02Z</time>
      </trkpt>
      <trkpt lat="48.10369" lon="7.54929">
        <ele>213.60000610352</ele>
        <time>2019-09-09T09:54:11Z</time>
      </trkpt>
      <trkpt lat="48.10322" lon="7.54967">
        <ele>213.80000305176</ele>
        <time>2019-09-09T09:54:22Z</time>
      </trkpt>
      <trkpt lat="48.10287" lon="7.54993">
        <ele>213.80000305176</ele>
        <time>2019-09-09T09:54:30Z</time>
      </trkpt>
      <trkpt lat="48.10237" lon="7.55028">
        <ele>213.80000305176</ele>
        <time>2019-09-09T09:54:41Z</time>
      </trkpt>
      <trkpt lat="48.10191" lon="7.55057">
        <ele>213.39999389648</ele>
        <time>2019-09-09T09:54:51Z</time>
      </trkpt>
      <trkpt lat="48.10178" lon="7.55066">
        <ele>213.19999694824</ele>
        <time>2019-09-09T09:54:54Z</time>
      </trkpt>
      <trkpt lat="48.10145" lon="7.55087">
        <ele>213.19999694824</ele>
        <time>2019-09-09T09:55:01Z</time>
      </trkpt>
      <trkpt lat="48.10108" lon="7.5511">
        <ele>212.80000305176</ele>
        <time>2019-09-09T09:55:09Z</time>
      </trkpt>
      <trkpt lat="48.10065" lon="7.55136">
        <ele>212.60000610352</ele>
        <time>2019-09-09T09:55:19Z</time>
      </trkpt>
      <trkpt lat="48.1001" lon="7.55167">
        <ele>213.39999389648</ele>
        <time>2019-09-09T09:55:31Z</time>
      </trkpt>
      <trkpt lat="48.09968" lon="7.55189">
        <ele>213.60000610352</ele>
        <time>2019-09-09T09:55:40Z</time>
      </trkpt>
      <trkpt lat="48.09927" lon="7.55214">
        <ele>213.80000305176</ele>
        <time>2019-09-09T09:55:49Z</time>
      </trkpt>
      <trkpt lat="48.09893" lon="7.55237">
        <ele>213.80000305176</ele>
        <time>2019-09-09T09:55:57Z</time>
      </trkpt>
      <trkpt lat="48.09842" lon="7.55274">
        <ele>214</ele>
        <time>2019-09-09T09:56:09Z</time>
      </trkpt>
      <trkpt lat="48.09817" lon="7.55294">
        <ele>214</ele>
        <time>2019-09-09T09:56:15Z</time>
      </trkpt>
      <trkpt lat="48.0978" lon="7.55331">
        <ele>214.39999389648</ele>
        <time>2019-09-09T09:56:24Z</time>
      </trkpt>
      <trkpt lat="48.09736" lon="7.55382">
        <ele>214.19999694824</ele>
        <time>2019-09-09T09:56:35Z</time>
      </trkpt>
      <trkpt lat="48.09728" lon="7.55391">
        <ele>214.19999694824</ele>
        <time>2019-09-09T09:56:37Z</time>
      </trkpt>
      <trkpt lat="48.09712" lon="7.5541">
        <ele>214.19999694824</ele>
        <time>2019-09-09T09:56:41Z</time>
      </trkpt>
      <trkpt lat="48.09679" lon="7.5544">
        <ele>214.19999694824</ele>
        <time>2019-09-09T09:56:49Z</time>
      </trkpt>
      <trkpt lat="48.09676" lon="7.55444">
        <ele>214.19999694824</ele>
        <time>2019-09-09T09:56:50Z</time>
      </trkpt>
      <trkpt lat="48.09656" lon="7.55463">
        <ele>214.39999389648</ele>
        <time>2019-09-09T09:56:55Z</time>
      </trkpt>
      <trkpt lat="48.09626" lon="7.55491">
        <ele>214.60000610352</ele>
        <time>2019-09-09T09:57:02Z</time>
      </trkpt>
      <trkpt lat="48.09606" lon="7.55511">
        <ele>214.60000610352</ele>
        <time>2019-09-09T09:57:07Z</time>
      </trkpt>
      <trkpt lat="48.09599" lon="7.55519">
        <ele>214.60000610352</ele>
        <time>2019-09-09T09:57:09Z</time>
      </trkpt>
      <trkpt lat="48.09572" lon="7.55548">
        <ele>214.39999389648</ele>
        <time>2019-09-09T09:57:16Z</time>
      </trkpt>
      <trkpt lat="48.09546" lon="7.55579">
        <ele>214.39999389648</ele>
        <time>2019-09-09T09:57:23Z</time>
      </trkpt>
      <trkpt lat="48.09515" lon="7.55611">
        <ele>214.39999389648</ele>
        <time>2019-09-09T09:57:31Z</time>
      </trkpt>
      <trkpt lat="48.09495" lon="7.55632">
        <ele>214.39999389648</ele>
        <time>2019-09-09T09:57:37Z</time>
      </trkpt>
      <trkpt lat="48.09478" lon="7.55652">
        <ele>214</ele>
        <time>2019-09-09T09:57:43Z</time>
      </trkpt>
      <trkpt lat="48.09452" lon="7.55665">
        <ele>214</ele>
        <time>2019-09-09T09:57:49Z</time>
      </trkpt>
      <trkpt lat="48.0941" lon="7.55679">
        <ele>214.19999694824</ele>
        <time>2019-09-09T09:57:58Z</time>
      </trkpt>
      <trkpt lat="48.09396" lon="7.55677">
        <ele>214</ele>
        <time>2019-09-09T09:58:01Z</time>
      </trkpt>
      <trkpt lat="48.09381" lon="7.55673">
        <ele>213.80000305176</ele>
        <time>2019-09-09T09:58:04Z</time>
      </trkpt>
      <trkpt lat="48.09366" lon="7.55657">
        <ele>213.80000305176</ele>
        <time>2019-09-09T09:58:08Z</time>
      </trkpt>
      <trkpt lat="48.09352" lon="7.5565">
        <ele>213.80000305176</ele>
        <time>2019-09-09T09:58:11Z</time>
      </trkpt>
      <trkpt lat="48.09335" lon="7.55636">
        <ele>213.80000305176</ele>
        <time>2019-09-09T09:58:15Z</time>
      </trkpt>
      <trkpt lat="48.09307" lon="7.5561">
        <ele>214</ele>
        <time>2019-09-09T09:58:22Z</time>
      </trkpt>
      <trkpt lat="48.09285" lon="7.55593">
        <ele>214</ele>
        <time>2019-09-09T09:58:27Z</time>
      </trkpt>
      <trkpt lat="48.09251" lon="7.55573">
        <ele>214</ele>
        <time>2019-09-09T09:58:34Z</time>
      </trkpt>
      <trkpt lat="48.09236" lon="7.55564">
        <ele>214</ele>
        <time>2019-09-09T09:58:37Z</time>
      </trkpt>
      <trkpt lat="48.09222" lon="7.55555">
        <ele>214.19999694824</ele>
        <time>2019-09-09T09:58:40Z</time>
      </trkpt>
      <trkpt lat="48.09192" lon="7.55537">
        <ele>214.39999389648</ele>
        <time>2019-09-09T09:58:46Z</time>
      </trkpt>
      <trkpt lat="48.09187" lon="7.55534">
        <ele>214.39999389648</ele>
        <time>2019-09-09T09:58:47Z</time>
      </trkpt>
      <trkpt lat="48.0917" lon="7.55516">
        <ele>214.80000305176</ele>
        <time>2019-09-09T09:58:51Z</time>
      </trkpt>
      <trkpt lat="48.09149" lon="7.55494">
        <ele>214.80000305176</ele>
        <time>2019-09-09T09:58:56Z</time>
      </trkpt>
      <trkpt lat="48.0914" lon="7.55486">
        <ele>214.80000305176</ele>
        <time>2019-09-09T09:58:58Z</time>
      </trkpt>
      <trkpt lat="48.09132" lon="7.55477">
        <ele>214.80000305176</ele>
        <time>2019-09-09T09:59:00Z</time>
      </trkpt>
      <trkpt lat="48.09117" lon="7.5546">
        <ele>214.80000305176</ele>
        <time>2019-09-09T09:59:04Z</time>
      </trkpt>
      <trkpt lat="48.09108" lon="7.55437">
        <ele>215</ele>
        <time>2019-09-09T09:59:08Z</time>
      </trkpt>
      <trkpt lat="48.09106" lon="7.55418">
        <ele>215</ele>
        <time>2019-09-09T09:59:11Z</time>
      </trkpt>
      <trkpt lat="48.09105" lon="7.55411">
        <ele>215</ele>
        <time>2019-09-09T09:59:12Z</time>
      </trkpt>
      <trkpt lat="48.09101" lon="7.55399">
        <ele>215</ele>
        <time>2019-09-09T09:59:14Z</time>
      </trkpt>
      <trkpt lat="48.09095" lon="7.55379">
        <ele>215.19999694824</ele>
        <time>2019-09-09T09:59:17Z</time>
      </trkpt>
      <trkpt lat="48.09089" lon="7.55358">
        <ele>215.19999694824</ele>
        <time>2019-09-09T09:59:20Z</time>
      </trkpt>
      <trkpt lat="48.09072" lon="7.55295">
        <ele>215.39999389648</ele>
        <time>2019-09-09T09:59:29Z</time>
      </trkpt>
      <trkpt lat="48.09052" lon="7.55219">
        <ele>215.39999389648</ele>
        <time>2019-09-09T09:59:40Z</time>
      </trkpt>
      <trkpt lat="48.0905" lon="7.55212">
        <ele>215.39999389648</ele>
        <time>2019-09-09T09:59:41Z</time>
      </trkpt>
      <trkpt lat="48.09034" lon="7.55156">
        <ele>215.39999389648</ele>
        <time>2019-09-09T09:59:49Z</time>
      </trkpt>
      <trkpt lat="48.09018" lon="7.55099">
        <ele>215.19999694824</ele>
        <time>2019-09-09T09:59:57Z</time>
      </trkpt>
      <trkpt lat="48.08998" lon="7.55036">
        <ele>215.19999694824</ele>
        <time>2019-09-09T10:00:06Z</time>
      </trkpt>
      <trkpt lat="48.08995" lon="7.55031">
        <ele>215.19999694824</ele>
        <time>2019-09-09T10:00:07Z</time>
      </trkpt>
      <trkpt lat="48.08969" lon="7.55007">
        <ele>215.19999694824</ele>
        <time>2019-09-09T10:00:13Z</time>
      </trkpt>
      <trkpt lat="48.0893" lon="7.54972">
        <ele>215</ele>
        <time>2019-09-09T10:00:22Z</time>
      </trkpt>
      <trkpt lat="48.08893" lon="7.54932">
        <ele>215</ele>
        <time>2019-09-09T10:00:31Z</time>
      </trkpt>
      <trkpt lat="48.08857" lon="7.54889">
        <ele>215</ele>
        <time>2019-09-09T10:00:40Z</time>
      </trkpt>
      <trkpt lat="48.08838" lon="7.54866">
        <ele>215.19999694824</ele>
        <time>2019-09-09T10:00:45Z</time>
      </trkpt>
      <trkpt lat="48.08819" lon="7.54844">
        <ele>215.39999389648</ele>
        <time>2019-09-09T10:00:50Z</time>
      </trkpt>
      <trkpt lat="48.08787" lon="7.54811">
        <ele>215.80000305176</ele>
        <time>2019-09-09T10:00:58Z</time>
      </trkpt>
      <trkpt lat="48.0875" lon="7.54789">
        <ele>215.80000305176</ele>
        <time>2019-09-09T10:01:06Z</time>
      </trkpt>
      <trkpt lat="48.08736" lon="7.54782">
        <ele>215.80000305176</ele>
        <time>2019-09-09T10:01:09Z</time>
      </trkpt>
      <trkpt lat="48.08716" lon="7.54774">
        <ele>215.80000305176</ele>
        <time>2019-09-09T10:01:13Z</time>
      </trkpt>
      <trkpt lat="48.08679" lon="7.54765">
        <ele>215.39999389648</ele>
        <time>2019-09-09T10:01:20Z</time>
      </trkpt>
      <trkpt lat="48.08629" lon="7.54757">
        <ele>215.19999694824</ele>
        <time>2019-09-09T10:01:30Z</time>
      </trkpt>
      <trkpt lat="48.08583" lon="7.54747">
        <ele>215.19999694824</ele>
        <time>2019-09-09T10:01:39Z</time>
      </trkpt>
      <trkpt lat="48.08574" lon="7.54742">
        <ele>215.39999389648</ele>
        <time>2019-09-09T10:01:41Z</time>
      </trkpt>
      <trkpt lat="48.08566" lon="7.54732">
        <ele>215.39999389648</ele>
        <time>2019-09-09T10:01:43Z</time>
      </trkpt>
      <trkpt lat="48.0856" lon="7.54721">
        <ele>215.39999389648</ele>
        <time>2019-09-09T10:01:45Z</time>
      </trkpt>
      <trkpt lat="48.08549" lon="7.54694">
        <ele>215.39999389648</ele>
        <time>2019-09-09T10:01:49Z</time>
      </trkpt>
      <trkpt lat="48.08525" lon="7.54635">
        <ele>215.80000305176</ele>
        <time>2019-09-09T10:01:58Z</time>
      </trkpt>
      <trkpt lat="48.08497" lon="7.54568">
        <ele>216</ele>
        <time>2019-09-09T10:02:08Z</time>
      </trkpt>
      <trkpt lat="48.08491" lon="7.54555">
        <ele>216</ele>
        <time>2019-09-09T10:02:10Z</time>
      </trkpt>
      <trkpt lat="48.08468" lon="7.545">
        <ele>216</ele>
        <time>2019-09-09T10:02:18Z</time>
      </trkpt>
      <trkpt lat="48.08438" lon="7.54431">
        <ele>216</ele>
        <time>2019-09-09T10:02:28Z</time>
      </trkpt>
      <trkpt lat="48.08409" lon="7.54362">
        <ele>216</ele>
        <time>2019-09-09T10:02:38Z</time>
      </trkpt>
      <trkpt lat="48.084" lon="7.54341">
        <ele>216.39999389648</ele>
        <time>2019-09-09T10:02:41Z</time>
      </trkpt>
      <trkpt lat="48.08389" lon="7.54313">
        <ele>216.60000610352</ele>
        <time>2019-09-09T10:02:45Z</time>
      </trkpt>
      <trkpt lat="48.0837" lon="7.54271">
        <ele>216.60000610352</ele>
        <time>2019-09-09T10:02:51Z</time>
      </trkpt>
      <trkpt lat="48.08345" lon="7.54213">
        <ele>216.60000610352</ele>
        <time>2019-09-09T10:02:59Z</time>
      </trkpt>
      <trkpt lat="48.08319" lon="7.54149">
        <ele>216.60000610352</ele>
        <time>2019-09-09T10:03:08Z</time>
      </trkpt>
      <trkpt lat="48.0829" lon="7.54082">
        <ele>216.39999389648</ele>
        <time>2019-09-09T10:03:18Z</time>
      </trkpt>
      <trkpt lat="48.08284" lon="7.5407">
        <ele>216.39999389648</ele>
        <time>2019-09-09T10:03:20Z</time>
      </trkpt>
      <trkpt lat="48.08274" lon="7.54061">
        <ele>216.39999389648</ele>
        <time>2019-09-09T10:03:23Z</time>
      </trkpt>
      <trkpt lat="48.08256" lon="7.54059">
        <ele>216.80000305176</ele>
        <time>2019-09-09T10:03:27Z</time>
      </trkpt>
      <trkpt lat="48.08252" lon="7.54059">
        <ele>216.80000305176</ele>
        <time>2019-09-09T10:03:28Z</time>
      </trkpt>
      <trkpt lat="48.08212" lon="7.54057">
        <ele>217.80000305176</ele>
        <time>2019-09-09T10:03:37Z</time>
      </trkpt>
      <trkpt lat="48.08163" lon="7.54054">
        <ele>218.39999389648</ele>
        <time>2019-09-09T10:03:48Z</time>
      </trkpt>
      <trkpt lat="48.08158" lon="7.54054">
        <ele>218.39999389648</ele>
        <time>2019-09-09T10:03:49Z</time>
      </trkpt>
      <trkpt lat="48.08133" lon="7.54051">
        <ele>218.39999389648</ele>
        <time>2019-09-09T10:03:54Z</time>
      </trkpt>
      <trkpt lat="48.08114" lon="7.5405">
        <ele>218.39999389648</ele>
        <time>2019-09-09T10:03:58Z</time>
      </trkpt>
      <trkpt lat="48.08104" lon="7.54049">
        <ele>218.39999389648</ele>
        <time>2019-09-09T10:04:00Z</time>
      </trkpt>
      <trkpt lat="48.08068" lon="7.54049">
        <ele>217.60000610352</ele>
        <time>2019-09-09T10:04:07Z</time>
      </trkpt>
      <trkpt lat="48.08034" lon="7.54047">
        <ele>217.19999694824</ele>
        <time>2019-09-09T10:04:14Z</time>
      </trkpt>
      <trkpt lat="48.08015" lon="7.54047">
        <ele>216.80000305176</ele>
        <time>2019-09-09T10:04:18Z</time>
      </trkpt>
      <trkpt lat="48.07995" lon="7.54045">
        <ele>216.80000305176</ele>
        <time>2019-09-09T10:04:22Z</time>
      </trkpt>
      <trkpt lat="48.07954" lon="7.54043">
        <ele>217</ele>
        <time>2019-09-09T10:04:30Z</time>
      </trkpt>
      <trkpt lat="48.07935" lon="7.54042">
        <ele>217</ele>
        <time>2019-09-09T10:04:34Z</time>
      </trkpt>
      <trkpt lat="48.07922" lon="7.5404">
        <ele>217</ele>
        <time>2019-09-09T10:04:37Z</time>
      </trkpt>
      <trkpt lat="48.07887" lon="7.54029">
        <ele>217.60000610352</ele>
        <time>2019-09-09T10:04:45Z</time>
      </trkpt>
      <trkpt lat="48.07851" lon="7.54029">
        <ele>218</ele>
        <time>2019-09-09T10:04:53Z</time>
      </trkpt>
      <trkpt lat="48.07819" lon="7.54043">
        <ele>217.80000305176</ele>
        <time>2019-09-09T10:05:00Z</time>
      </trkpt>
      <trkpt lat="48.07781" lon="7.54059">
        <ele>217.39999389648</ele>
        <time>2019-09-09T10:05:08Z</time>
      </trkpt>
      <trkpt lat="48.07776" lon="7.5406">
        <ele>217.60000610352</ele>
        <time>2019-09-09T10:05:09Z</time>
      </trkpt>
      <trkpt lat="48.07756" lon="7.54059">
        <ele>217.39999389648</ele>
        <time>2019-09-09T10:05:13Z</time>
      </trkpt>
      <trkpt lat="48.07712" lon="7.5405">
        <ele>217.19999694824</ele>
        <time>2019-09-09T10:05:22Z</time>
      </trkpt>
      <trkpt lat="48.07677" lon="7.54043">
        <ele>217</ele>
        <time>2019-09-09T10:05:29Z</time>
      </trkpt>
      <trkpt lat="48.07648" lon="7.54036">
        <ele>216.80000305176</ele>
        <time>2019-09-09T10:05:35Z</time>
      </trkpt>
      <trkpt lat="48.07644" lon="7.54034">
        <ele>216.60000610352</ele>
        <time>2019-09-09T10:05:36Z</time>
      </trkpt>
      <trkpt lat="48.07635" lon="7.54018">
        <ele>216.60000610352</ele>
        <time>2019-09-09T10:05:39Z</time>
      </trkpt>
      <trkpt lat="48.07633" lon="7.54012">
        <ele>216.60000610352</ele>
        <time>2019-09-09T10:05:40Z</time>
      </trkpt>
      <trkpt lat="48.07617" lon="7.5395">
        <ele>216.80000305176</ele>
        <time>2019-09-09T10:05:49Z</time>
      </trkpt>
      <trkpt lat="48.076" lon="7.53887">
        <ele>217</ele>
        <time>2019-09-09T10:05:58Z</time>
      </trkpt>
      <trkpt lat="48.07584" lon="7.53827">
        <ele>217</ele>
        <time>2019-09-09T10:06:06Z</time>
      </trkpt>
      <trkpt lat="48.0757" lon="7.53778">
        <ele>216.80000305176</ele>
        <time>2019-09-09T10:06:13Z</time>
      </trkpt>
      <trkpt lat="48.07555" lon="7.53725">
        <ele>217</ele>
        <time>2019-09-09T10:06:21Z</time>
      </trkpt>
      <trkpt lat="48.07546" lon="7.53693">
        <ele>217.19999694824</ele>
        <time>2019-09-09T10:06:26Z</time>
      </trkpt>
      <trkpt lat="48.0754" lon="7.53686">
        <ele>217.39999389648</ele>
        <time>2019-09-09T10:06:28Z</time>
      </trkpt>
      <trkpt lat="48.07531" lon="7.53686">
        <ele>217.60000610352</ele>
        <time>2019-09-09T10:06:30Z</time>
      </trkpt>
      <trkpt lat="48.07522" lon="7.53687">
        <ele>217.80000305176</ele>
        <time>2019-09-09T10:06:32Z</time>
      </trkpt>
      <trkpt lat="48.07499" lon="7.53689">
        <ele>218.19999694824</ele>
        <time>2019-09-09T10:06:37Z</time>
      </trkpt>
      <trkpt lat="48.07495" lon="7.53688">
        <ele>218.19999694824</ele>
        <time>2019-09-09T10:06:38Z</time>
      </trkpt>
      <trkpt lat="48.07481" lon="7.53686">
        <ele>218.39999389648</ele>
        <time>2019-09-09T10:06:42Z</time>
      </trkpt>
      <trkpt lat="48.07471" lon="7.53695">
        <ele>218.39999389648</ele>
        <time>2019-09-09T10:06:45Z</time>
      </trkpt>
      <trkpt lat="48.07467" lon="7.53697">
        <ele>218.39999389648</ele>
        <time>2019-09-09T10:06:46Z</time>
      </trkpt>
      <trkpt lat="48.07454" lon="7.53698">
        <ele>218.60000610352</ele>
        <time>2019-09-09T10:06:49Z</time>
      </trkpt>
      <trkpt lat="48.07444" lon="7.53699">
        <ele>218.80000305176</ele>
        <time>2019-09-09T10:06:51Z</time>
      </trkpt>
      <trkpt lat="48.074" lon="7.53697">
        <ele>218.80000305176</ele>
        <time>2019-09-09T10:07:00Z</time>
      </trkpt>
      <trkpt lat="48.0735" lon="7.53697">
        <ele>219</ele>
        <time>2019-09-09T10:07:10Z</time>
      </trkpt>
      <trkpt lat="48.07315" lon="7.53697">
        <ele>219</ele>
        <time>2019-09-09T10:07:17Z</time>
      </trkpt>
      <trkpt lat="48.0731" lon="7.53696">
        <ele>219</ele>
        <time>2019-09-09T10:07:18Z</time>
      </trkpt>
      <trkpt lat="48.07273" lon="7.53693">
        <ele>218.80000305176</ele>
        <time>2019-09-09T10:07:26Z</time>
      </trkpt>
      <trkpt lat="48.07269" lon="7.53691">
        <ele>218.80000305176</ele>
        <time>2019-09-09T10:07:27Z</time>
      </trkpt>
      <trkpt lat="48.07261" lon="7.53676">
        <ele>218.80000305176</ele>
        <time>2019-09-09T10:07:30Z</time>
      </trkpt>
      <trkpt lat="48.0725" lon="7.53651">
        <ele>218.80000305176</ele>
        <time>2019-09-09T10:07:34Z</time>
      </trkpt>
      <trkpt lat="48.07246" lon="7.53638">
        <ele>218.80000305176</ele>
        <time>2019-09-09T10:07:36Z</time>
      </trkpt>
      <trkpt lat="48.07236" lon="7.53614">
        <ele>218.80000305176</ele>
        <time>2019-09-09T10:07:40Z</time>
      </trkpt>
      <trkpt lat="48.07226" lon="7.53597">
        <ele>218.80000305176</ele>
        <time>2019-09-09T10:07:43Z</time>
      </trkpt>
      <trkpt lat="48.07214" lon="7.53565">
        <ele>219</ele>
        <time>2019-09-09T10:07:48Z</time>
      </trkpt>
      <trkpt lat="48.07212" lon="7.5355">
        <ele>219</ele>
        <time>2019-09-09T10:07:50Z</time>
      </trkpt>
      <trkpt lat="48.07212" lon="7.53535">
        <ele>219</ele>
        <time>2019-09-09T10:07:52Z</time>
      </trkpt>
      <trkpt lat="48.07212" lon="7.53504">
        <ele>219</ele>
        <time>2019-09-09T10:07:56Z</time>
      </trkpt>
      <trkpt lat="48.07212" lon="7.53446">
        <ele>218.80000305176</ele>
        <time>2019-09-09T10:08:04Z</time>
      </trkpt>
      <trkpt lat="48.07212" lon="7.53433">
        <ele>218.80000305176</ele>
        <time>2019-09-09T10:08:06Z</time>
      </trkpt>
      <trkpt lat="48.07212" lon="7.53415">
        <ele>218.80000305176</ele>
        <time>2019-09-09T10:08:09Z</time>
      </trkpt>
      <trkpt lat="48.07213" lon="7.5341">
        <ele>218.80000305176</ele>
        <time>2019-09-09T10:08:10Z</time>
      </trkpt>
      <trkpt lat="48.07212" lon="7.53401">
        <ele>218.80000305176</ele>
        <time>2019-09-09T10:08:13Z</time>
      </trkpt>
      <trkpt lat="48.07204" lon="7.53395">
        <ele>219</ele>
        <time>2019-09-09T10:08:16Z</time>
      </trkpt>
      <trkpt lat="48.07196" lon="7.53394">
        <ele>219</ele>
        <time>2019-09-09T10:08:18Z</time>
      </trkpt>
      <trkpt lat="48.07179" lon="7.53394">
        <ele>219</ele>
        <time>2019-09-09T10:08:22Z</time>
      </trkpt>
      <trkpt lat="48.07139" lon="7.53393">
        <ele>219.19999694824</ele>
        <time>2019-09-09T10:08:31Z</time>
      </trkpt>
      <trkpt lat="48.07104" lon="7.53391">
        <ele>219.80000305176</ele>
        <time>2019-09-09T10:08:40Z</time>
      </trkpt>
      <trkpt lat="48.07076" lon="7.53389">
        <ele>220.80000305176</ele>
        <time>2019-09-09T10:08:47Z</time>
      </trkpt>
      <trkpt lat="48.07053" lon="7.53389">
        <ele>222</ele>
        <time>2019-09-09T10:08:53Z</time>
      </trkpt>
      <trkpt lat="48.07049" lon="7.53389">
        <ele>222</ele>
        <time>2019-09-09T10:08:54Z</time>
      </trkpt>
      <trkpt lat="48.07017" lon="7.53388">
        <ele>222.80000305176</ele>
        <time>2019-09-09T10:09:02Z</time>
      </trkpt>
      <trkpt lat="48.06991" lon="7.53389">
        <ele>222.80000305176</ele>
        <time>2019-09-09T10:09:08Z</time>
      </trkpt>
      <trkpt lat="48.06986" lon="7.53388">
        <ele>222.80000305176</ele>
        <time>2019-09-09T10:09:09Z</time>
      </trkpt>
      <trkpt lat="48.06982" lon="7.53389">
        <ele>222.80000305176</ele>
        <time>2019-09-09T10:09:10Z</time>
      </trkpt>
      <trkpt lat="48.06974" lon="7.53396">
        <ele>222.80000305176</ele>
        <time>2019-09-09T10:09:12Z</time>
      </trkpt>
      <trkpt lat="48.06971" lon="7.5341">
        <ele>222.60000610352</ele>
        <time>2019-09-09T10:09:15Z</time>
      </trkpt>
      <trkpt lat="48.06971" lon="7.53423">
        <ele>222</ele>
        <time>2019-09-09T10:09:18Z</time>
      </trkpt>
      <trkpt lat="48.06971" lon="7.53438">
        <ele>221.19999694824</ele>
        <time>2019-09-09T10:09:22Z</time>
      </trkpt>
      <trkpt lat="48.0697" lon="7.53445">
        <ele>221</ele>
        <time>2019-09-09T10:09:27Z</time>
      </trkpt>
      <trkpt lat="48.0697" lon="7.53447">
        <ele>221</ele>
        <time>2019-09-09T10:09:29Z</time>
      </trkpt>
      <trkpt lat="48.0697" lon="7.53447">
        <ele>220.80000305176</ele>
        <time>2019-09-09T10:09:30Z</time>
      </trkpt>
      <trkpt lat="48.0697" lon="7.53448">
        <ele>220.80000305176</ele>
        <time>2019-09-09T10:09:32Z</time>
      </trkpt>
      <trkpt lat="48.06969" lon="7.5345">
        <ele>220.60000610352</ele>
        <time>2019-09-09T10:09:37Z</time>
      </trkpt>
      <trkpt lat="48.06968" lon="7.53457">
        <ele>220.60000610352</ele>
        <time>2019-09-09T10:09:40Z</time>
      </trkpt>
      <trkpt lat="48.06959" lon="7.53484">
        <ele>220.60000610352</ele>
        <time>2019-09-09T10:09:46Z</time>
      </trkpt>
      <trkpt lat="48.06942" lon="7.53523">
        <ele>220.60000610352</ele>
        <time>2019-09-09T10:09:54Z</time>
      </trkpt>
      <trkpt lat="48.06925" lon="7.53553">
        <ele>221</ele>
        <time>2019-09-09T10:10:00Z</time>
      </trkpt>
      <trkpt lat="48.06904" lon="7.53587">
        <ele>220.80000305176</ele>
        <time>2019-09-09T10:10:06Z</time>
      </trkpt>
      <trkpt lat="48.06902" lon="7.53593">
        <ele>221</ele>
        <time>2019-09-09T10:10:07Z</time>
      </trkpt>
      <trkpt lat="48.06878" lon="7.53636">
        <ele>221.19999694824</ele>
        <time>2019-09-09T10:10:14Z</time>
      </trkpt>
      <trkpt lat="48.06848" lon="7.53692">
        <ele>221.19999694824</ele>
        <time>2019-09-09T10:10:23Z</time>
      </trkpt>
      <trkpt lat="48.06818" lon="7.53747">
        <ele>221.19999694824</ele>
        <time>2019-09-09T10:10:32Z</time>
      </trkpt>
      <trkpt lat="48.06796" lon="7.53787">
        <ele>221.19999694824</ele>
        <time>2019-09-09T10:10:39Z</time>
      </trkpt>
      <trkpt lat="48.06781" lon="7.53813">
        <ele>221.19999694824</ele>
        <time>2019-09-09T10:10:44Z</time>
      </trkpt>
      <trkpt lat="48.06763" lon="7.53845">
        <ele>221.19999694824</ele>
        <time>2019-09-09T10:10:50Z</time>
      </trkpt>
      <trkpt lat="48.06746" lon="7.53871">
        <ele>221.39999389648</ele>
        <time>2019-09-09T10:10:55Z</time>
      </trkpt>
      <trkpt lat="48.0674" lon="7.53877">
        <ele>221.39999389648</ele>
        <time>2019-09-09T10:10:56Z</time>
      </trkpt>
      <trkpt lat="48.06709" lon="7.53913">
        <ele>221.39999389648</ele>
        <time>2019-09-09T10:11:03Z</time>
      </trkpt>
      <trkpt lat="48.06683" lon="7.53943">
        <ele>221.60000610352</ele>
        <time>2019-09-09T10:11:09Z</time>
      </trkpt>
      <trkpt lat="48.0666" lon="7.53971">
        <ele>221.39999389648</ele>
        <time>2019-09-09T10:11:14Z</time>
      </trkpt>
      <trkpt lat="48.06637" lon="7.54008">
        <ele>221.19999694824</ele>
        <time>2019-09-09T10:11:19Z</time>
      </trkpt>
      <trkpt lat="48.06629" lon="7.54022">
        <ele>221</ele>
        <time>2019-09-09T10:11:21Z</time>
      </trkpt>
      <trkpt lat="48.0662" lon="7.54033">
        <ele>221</ele>
        <time>2019-09-09T10:11:23Z</time>
      </trkpt>
      <trkpt lat="48.06602" lon="7.54053">
        <ele>219.80000305176</ele>
        <time>2019-09-09T10:11:27Z</time>
      </trkpt>
      <trkpt lat="48.06592" lon="7.54063">
        <ele>219.39999389648</ele>
        <time>2019-09-09T10:11:29Z</time>
      </trkpt>
      <trkpt lat="48.06556" lon="7.54101">
        <ele>219</ele>
        <time>2019-09-09T10:11:37Z</time>
      </trkpt>
      <trkpt lat="48.06529" lon="7.54129">
        <ele>219</ele>
        <time>2019-09-09T10:11:43Z</time>
      </trkpt>
      <trkpt lat="48.06482" lon="7.54179">
        <ele>219.39999389648</ele>
        <time>2019-09-09T10:11:54Z</time>
      </trkpt>
      <trkpt lat="48.06447" lon="7.54216">
        <ele>219.60000610352</ele>
        <time>2019-09-09T10:12:02Z</time>
      </trkpt>
      <trkpt lat="48.06413" lon="7.5425">
        <ele>219.39999389648</ele>
        <time>2019-09-09T10:12:10Z</time>
      </trkpt>
      <trkpt lat="48.06385" lon="7.54276">
        <ele>219.39999389648</ele>
        <time>2019-09-09T10:12:17Z</time>
      </trkpt>
      <trkpt lat="48.06368" lon="7.54293">
        <ele>219.39999389648</ele>
        <time>2019-09-09T10:12:21Z</time>
      </trkpt>
      <trkpt lat="48.0636" lon="7.54302">
        <ele>219.19999694824</ele>
        <time>2019-09-09T10:12:23Z</time>
      </trkpt>
      <trkpt lat="48.06354" lon="7.54311">
        <ele>219.19999694824</ele>
        <time>2019-09-09T10:12:25Z</time>
      </trkpt>
      <trkpt lat="48.06343" lon="7.54323">
        <ele>218.80000305176</ele>
        <time>2019-09-09T10:12:28Z</time>
      </trkpt>
      <trkpt lat="48.06315" lon="7.5435">
        <ele>218.80000305176</ele>
        <time>2019-09-09T10:12:35Z</time>
      </trkpt>
      <trkpt lat="48.06295" lon="7.5437">
        <ele>218.80000305176</ele>
        <time>2019-09-09T10:12:40Z</time>
      </trkpt>
      <trkpt lat="48.06287" lon="7.54379">
        <ele>218.80000305176</ele>
        <time>2019-09-09T10:12:42Z</time>
      </trkpt>
      <trkpt lat="48.06273" lon="7.54397">
        <ele>218.80000305176</ele>
        <time>2019-09-09T10:12:46Z</time>
      </trkpt>
      <trkpt lat="48.06252" lon="7.54419">
        <ele>218.80000305176</ele>
        <time>2019-09-09T10:12:51Z</time>
      </trkpt>
      <trkpt lat="48.06238" lon="7.54431">
        <ele>219</ele>
        <time>2019-09-09T10:12:54Z</time>
      </trkpt>
      <trkpt lat="48.06229" lon="7.5444">
        <ele>219</ele>
        <time>2019-09-09T10:12:56Z</time>
      </trkpt>
      <trkpt lat="48.06216" lon="7.54453">
        <ele>219.19999694824</ele>
        <time>2019-09-09T10:12:59Z</time>
      </trkpt>
      <trkpt lat="48.06188" lon="7.5448">
        <ele>219.39999389648</ele>
        <time>2019-09-09T10:13:05Z</time>
      </trkpt>
      <trkpt lat="48.06163" lon="7.54508">
        <ele>219.60000610352</ele>
        <time>2019-09-09T10:13:11Z</time>
      </trkpt>
      <trkpt lat="48.06159" lon="7.54512">
        <ele>219.60000610352</ele>
        <time>2019-09-09T10:13:12Z</time>
      </trkpt>
      <trkpt lat="48.06149" lon="7.54528">
        <ele>219.60000610352</ele>
        <time>2019-09-09T10:13:15Z</time>
      </trkpt>
      <trkpt lat="48.06146" lon="7.54533">
        <ele>219.60000610352</ele>
        <time>2019-09-09T10:13:16Z</time>
      </trkpt>
      <trkpt lat="48.06124" lon="7.54561">
        <ele>219.80000305176</ele>
        <time>2019-09-09T10:13:22Z</time>
      </trkpt>
      <trkpt lat="48.06103" lon="7.5458">
        <ele>219.80000305176</ele>
        <time>2019-09-09T10:13:27Z</time>
      </trkpt>
      <trkpt lat="48.06081" lon="7.54601">
        <ele>220</ele>
        <time>2019-09-09T10:13:32Z</time>
      </trkpt>
      <trkpt lat="48.06077" lon="7.54606">
        <ele>220</ele>
        <time>2019-09-09T10:13:33Z</time>
      </trkpt>
      <trkpt lat="48.06048" lon="7.54636">
        <ele>220</ele>
        <time>2019-09-09T10:13:40Z</time>
      </trkpt>
      <trkpt lat="48.06016" lon="7.54672">
        <ele>220.19999694824</ele>
        <time>2019-09-09T10:13:48Z</time>
      </trkpt>
      <trkpt lat="48.05995" lon="7.54694">
        <ele>220.60000610352</ele>
        <time>2019-09-09T10:13:53Z</time>
      </trkpt>
      <trkpt lat="48.0599" lon="7.54699">
        <ele>220.60000610352</ele>
        <time>2019-09-09T10:13:54Z</time>
      </trkpt>
      <trkpt lat="48.05957" lon="7.54728">
        <ele>220.80000305176</ele>
        <time>2019-09-09T10:14:01Z</time>
      </trkpt>
      <trkpt lat="48.05919" lon="7.54754">
        <ele>220.80000305176</ele>
        <time>2019-09-09T10:14:09Z</time>
      </trkpt>
      <trkpt lat="48.05882" lon="7.5477">
        <ele>220.80000305176</ele>
        <time>2019-09-09T10:14:16Z</time>
      </trkpt>
      <trkpt lat="48.05852" lon="7.54783">
        <ele>220.39999389648</ele>
        <time>2019-09-09T10:14:23Z</time>
      </trkpt>
      <trkpt lat="48.05816" lon="7.54797">
        <ele>221.39999389648</ele>
        <time>2019-09-09T10:14:32Z</time>
      </trkpt>
      <trkpt lat="48.05778" lon="7.54814">
        <ele>221.60000610352</ele>
        <time>2019-09-09T10:14:40Z</time>
      </trkpt>
      <trkpt lat="48.05734" lon="7.54833">
        <ele>221.60000610352</ele>
        <time>2019-09-09T10:14:49Z</time>
      </trkpt>
      <trkpt lat="48.0569" lon="7.54853">
        <ele>221.60000610352</ele>
        <time>2019-09-09T10:14:58Z</time>
      </trkpt>
      <trkpt lat="48.05672" lon="7.54861">
        <ele>221.80000305176</ele>
        <time>2019-09-09T10:15:02Z</time>
      </trkpt>
      <trkpt lat="48.05647" lon="7.54871">
        <ele>222.39999389648</ele>
        <time>2019-09-09T10:15:07Z</time>
      </trkpt>
      <trkpt lat="48.05593" lon="7.54896">
        <ele>222.39999389648</ele>
        <time>2019-09-09T10:15:18Z</time>
      </trkpt>
      <trkpt lat="48.05544" lon="7.54918">
        <ele>222.39999389648</ele>
        <time>2019-09-09T10:15:28Z</time>
      </trkpt>
      <trkpt lat="48.05513" lon="7.54932">
        <ele>222.39999389648</ele>
        <time>2019-09-09T10:15:35Z</time>
      </trkpt>
      <trkpt lat="48.05475" lon="7.54947">
        <ele>222.39999389648</ele>
        <time>2019-09-09T10:15:43Z</time>
      </trkpt>
      <trkpt lat="48.05456" lon="7.54956">
        <ele>222.39999389648</ele>
        <time>2019-09-09T10:15:48Z</time>
      </trkpt>
      <trkpt lat="48.0544" lon="7.54963">
        <ele>222.39999389648</ele>
        <time>2019-09-09T10:15:53Z</time>
      </trkpt>
      <trkpt lat="48.05408" lon="7.54976">
        <ele>222.39999389648</ele>
        <time>2019-09-09T10:16:01Z</time>
      </trkpt>
      <trkpt lat="48.05388" lon="7.54988">
        <ele>222.60000610352</ele>
        <time>2019-09-09T10:16:07Z</time>
      </trkpt>
      <trkpt lat="48.05363" lon="7.54999">
        <ele>222.39999389648</ele>
        <time>2019-09-09T10:16:12Z</time>
      </trkpt>
      <trkpt lat="48.05349" lon="7.55006">
        <ele>222.19999694824</ele>
        <time>2019-09-09T10:16:16Z</time>
      </trkpt>
      <trkpt lat="48.05327" lon="7.55014">
        <ele>221.39999389648</ele>
        <time>2019-09-09T10:16:23Z</time>
      </trkpt>
      <trkpt lat="48.05303" lon="7.55028">
        <ele>221.19999694824</ele>
        <time>2019-09-09T10:16:28Z</time>
      </trkpt>
      <trkpt lat="48.05291" lon="7.55035">
        <ele>221.19999694824</ele>
        <time>2019-09-09T10:16:30Z</time>
      </trkpt>
      <trkpt lat="48.05268" lon="7.55048">
        <ele>221</ele>
        <time>2019-09-09T10:16:34Z</time>
      </trkpt>
      <trkpt lat="48.05263" lon="7.55051">
        <ele>221</ele>
        <time>2019-09-09T10:16:35Z</time>
      </trkpt>
      <trkpt lat="48.05257" lon="7.55055">
        <ele>220.80000305176</ele>
        <time>2019-09-09T10:16:36Z</time>
      </trkpt>
      <trkpt lat="48.05241" lon="7.55063">
        <ele>220.19999694824</ele>
        <time>2019-09-09T10:16:39Z</time>
      </trkpt>
      <trkpt lat="48.05212" lon="7.55077">
        <ele>220</ele>
        <time>2019-09-09T10:16:45Z</time>
      </trkpt>
      <trkpt lat="48.05173" lon="7.55094">
        <ele>220</ele>
        <time>2019-09-09T10:16:52Z</time>
      </trkpt>
      <trkpt lat="48.05138" lon="7.55112">
        <ele>220</ele>
        <time>2019-09-09T10:16:58Z</time>
      </trkpt>
      <trkpt lat="48.05099" lon="7.5513">
        <ele>220</ele>
        <time>2019-09-09T10:17:05Z</time>
      </trkpt>
      <trkpt lat="48.05071" lon="7.55145">
        <ele>219.80000305176</ele>
        <time>2019-09-09T10:17:10Z</time>
      </trkpt>
      <trkpt lat="48.05066" lon="7.5515">
        <ele>219.80000305176</ele>
        <time>2019-09-09T10:17:11Z</time>
      </trkpt>
      <trkpt lat="48.05025" lon="7.55188">
        <ele>219.60000610352</ele>
        <time>2019-09-09T10:17:19Z</time>
      </trkpt>
      <trkpt lat="48.05015" lon="7.55198">
        <ele>219.60000610352</ele>
        <time>2019-09-09T10:17:21Z</time>
      </trkpt>
      <trkpt lat="48.05005" lon="7.55208">
        <ele>219.39999389648</ele>
        <time>2019-09-09T10:17:23Z</time>
      </trkpt>
      <trkpt lat="48.04995" lon="7.55218">
        <ele>219.39999389648</ele>
        <time>2019-09-09T10:17:25Z</time>
      </trkpt>
      <trkpt lat="48.04971" lon="7.55252">
        <ele>219.39999389648</ele>
        <time>2019-09-09T10:17:31Z</time>
      </trkpt>
      <trkpt lat="48.04961" lon="7.55269">
        <ele>219.39999389648</ele>
        <time>2019-09-09T10:17:34Z</time>
      </trkpt>
      <trkpt lat="48.04958" lon="7.55275">
        <ele>219.39999389648</ele>
        <time>2019-09-09T10:17:35Z</time>
      </trkpt>
      <trkpt lat="48.04951" lon="7.55288">
        <ele>219.39999389648</ele>
        <time>2019-09-09T10:17:37Z</time>
      </trkpt>
      <trkpt lat="48.04935" lon="7.55321">
        <ele>219.80000305176</ele>
        <time>2019-09-09T10:17:42Z</time>
      </trkpt>
      <trkpt lat="48.04928" lon="7.55335">
        <ele>219.80000305176</ele>
        <time>2019-09-09T10:17:44Z</time>
      </trkpt>
      <trkpt lat="48.04908" lon="7.55377">
        <ele>219.80000305176</ele>
        <time>2019-09-09T10:17:50Z</time>
      </trkpt>
      <trkpt lat="48.04894" lon="7.55409">
        <ele>219.60000610352</ele>
        <time>2019-09-09T10:17:55Z</time>
      </trkpt>
      <trkpt lat="48.04887" lon="7.55428">
        <ele>219.60000610352</ele>
        <time>2019-09-09T10:17:58Z</time>
      </trkpt>
      <trkpt lat="48.0488" lon="7.55441">
        <ele>219.60000610352</ele>
        <time>2019-09-09T10:18:00Z</time>
      </trkpt>
      <trkpt lat="48.04861" lon="7.55476">
        <ele>219.80000305176</ele>
        <time>2019-09-09T10:18:06Z</time>
      </trkpt>
      <trkpt lat="48.04842" lon="7.55507">
        <ele>220</ele>
        <time>2019-09-09T10:18:12Z</time>
      </trkpt>
      <trkpt lat="48.0484" lon="7.55512">
        <ele>220</ele>
        <time>2019-09-09T10:18:13Z</time>
      </trkpt>
      <trkpt lat="48.04836" lon="7.5552">
        <ele>220</ele>
        <time>2019-09-09T10:18:15Z</time>
      </trkpt>
      <trkpt lat="48.04828" lon="7.55531">
        <ele>220.19999694824</ele>
        <time>2019-09-09T10:18:18Z</time>
      </trkpt>
      <trkpt lat="48.04822" lon="7.55538">
        <ele>220.19999694824</ele>
        <time>2019-09-09T10:18:20Z</time>
      </trkpt>
      <trkpt lat="48.04797" lon="7.55554">
        <ele>220.19999694824</ele>
        <time>2019-09-09T10:18:26Z</time>
      </trkpt>
      <trkpt lat="48.04763" lon="7.55561">
        <ele>220.39999389648</ele>
        <time>2019-09-09T10:18:32Z</time>
      </trkpt>
      <trkpt lat="48.04721" lon="7.55563">
        <ele>219.39999389648</ele>
        <time>2019-09-09T10:18:40Z</time>
      </trkpt>
      <trkpt lat="48.04687" lon="7.55564">
        <ele>219.39999389648</ele>
        <time>2019-09-09T10:18:48Z</time>
      </trkpt>
      <trkpt lat="48.04687" lon="7.55563">
        <ele>219.39999389648</ele>
        <time>2019-09-09T10:18:49Z</time>
      </trkpt>
      <trkpt lat="48.04686" lon="7.55556">
        <ele>219.39999389648</ele>
        <time>2019-09-09T10:18:52Z</time>
      </trkpt>
      <trkpt lat="48.04687" lon="7.55533">
        <ele>219.39999389648</ele>
        <time>2019-09-09T10:18:58Z</time>
      </trkpt>
      <trkpt lat="48.04683" lon="7.55507">
        <ele>219.39999389648</ele>
        <time>2019-09-09T10:19:02Z</time>
      </trkpt>
      <trkpt lat="48.04675" lon="7.55458">
        <ele>219.60000610352</ele>
        <time>2019-09-09T10:19:09Z</time>
      </trkpt>
      <trkpt lat="48.04669" lon="7.5543">
        <ele>220</ele>
        <time>2019-09-09T10:19:13Z</time>
      </trkpt>
      <trkpt lat="48.04665" lon="7.55425">
        <ele>220</ele>
        <time>2019-09-09T10:19:14Z</time>
      </trkpt>
      <trkpt lat="48.0465" lon="7.55425">
        <ele>220</ele>
        <time>2019-09-09T10:19:17Z</time>
      </trkpt>
      <trkpt lat="48.04646" lon="7.55427">
        <ele>220.19999694824</ele>
        <time>2019-09-09T10:19:18Z</time>
      </trkpt>
      <trkpt lat="48.04609" lon="7.55443">
        <ele>220.19999694824</ele>
        <time>2019-09-09T10:19:26Z</time>
      </trkpt>
      <trkpt lat="48.0458" lon="7.55448">
        <ele>220.19999694824</ele>
        <time>2019-09-09T10:19:32Z</time>
      </trkpt>
      <trkpt lat="48.04541" lon="7.55451">
        <ele>220.19999694824</ele>
        <time>2019-09-09T10:19:40Z</time>
      </trkpt>
      <trkpt lat="48.04501" lon="7.55452">
        <ele>220.19999694824</ele>
        <time>2019-09-09T10:19:48Z</time>
      </trkpt>
      <trkpt lat="48.04466" lon="7.55448">
        <ele>220.19999694824</ele>
        <time>2019-09-09T10:19:55Z</time>
      </trkpt>
      <trkpt lat="48.0443" lon="7.55428">
        <ele>220.19999694824</ele>
        <time>2019-09-09T10:20:03Z</time>
      </trkpt>
      <trkpt lat="48.04398" lon="7.55404">
        <ele>220.60000610352</ele>
        <time>2019-09-09T10:20:10Z</time>
      </trkpt>
      <trkpt lat="48.04385" lon="7.55392">
        <ele>220.39999389648</ele>
        <time>2019-09-09T10:20:13Z</time>
      </trkpt>
      <trkpt lat="48.04377" lon="7.55381">
        <ele>220.39999389648</ele>
        <time>2019-09-09T10:20:15Z</time>
      </trkpt>
      <trkpt lat="48.04374" lon="7.55375">
        <ele>220.60000610352</ele>
        <time>2019-09-09T10:20:16Z</time>
      </trkpt>
      <trkpt lat="48.04354" lon="7.55342">
        <ele>220.39999389648</ele>
        <time>2019-09-09T10:20:22Z</time>
      </trkpt>
      <trkpt lat="48.04334" lon="7.55307">
        <ele>220.39999389648</ele>
        <time>2019-09-09T10:20:28Z</time>
      </trkpt>
      <trkpt lat="48.04328" lon="7.55294">
        <ele>220.39999389648</ele>
        <time>2019-09-09T10:20:30Z</time>
      </trkpt>
      <trkpt lat="48.04303" lon="7.55244">
        <ele>220.39999389648</ele>
        <time>2019-09-09T10:20:38Z</time>
      </trkpt>
      <trkpt lat="48.04281" lon="7.55188">
        <ele>220.39999389648</ele>
        <time>2019-09-09T10:20:46Z</time>
      </trkpt>
      <trkpt lat="48.04277" lon="7.55174">
        <ele>220.39999389648</ele>
        <time>2019-09-09T10:20:48Z</time>
      </trkpt>
      <trkpt lat="48.04274" lon="7.55151">
        <ele>220.60000610352</ele>
        <time>2019-09-09T10:20:51Z</time>
      </trkpt>
      <trkpt lat="48.04266" lon="7.5509">
        <ele>221</ele>
        <time>2019-09-09T10:20:59Z</time>
      </trkpt>
      <trkpt lat="48.04255" lon="7.55041">
        <ele>221</ele>
        <time>2019-09-09T10:21:06Z</time>
      </trkpt>
      <trkpt lat="48.04247" lon="7.55015">
        <ele>221</ele>
        <time>2019-09-09T10:21:10Z</time>
      </trkpt>
      <trkpt lat="48.0424" lon="7.55003">
        <ele>221</ele>
        <time>2019-09-09T10:21:12Z</time>
      </trkpt>
      <trkpt lat="48.04219" lon="7.54967">
        <ele>221</ele>
        <time>2019-09-09T10:21:18Z</time>
      </trkpt>
      <trkpt lat="48.04208" lon="7.54951">
        <ele>221</ele>
        <time>2019-09-09T10:21:21Z</time>
      </trkpt>
      <trkpt lat="48.042" lon="7.54945">
        <ele>221</ele>
        <time>2019-09-09T10:21:23Z</time>
      </trkpt>
      <trkpt lat="48.04193" lon="7.54932">
        <ele>221</ele>
        <time>2019-09-09T10:21:26Z</time>
      </trkpt>
      <trkpt lat="48.04192" lon="7.54927">
        <ele>221</ele>
        <time>2019-09-09T10:21:27Z</time>
      </trkpt>
      <trkpt lat="48.0419" lon="7.54921">
        <ele>221</ele>
        <time>2019-09-09T10:21:28Z</time>
      </trkpt>
      <trkpt lat="48.04184" lon="7.54913">
        <ele>221</ele>
        <time>2019-09-09T10:21:30Z</time>
      </trkpt>
      <trkpt lat="48.04177" lon="7.54907">
        <ele>221</ele>
        <time>2019-09-09T10:21:32Z</time>
      </trkpt>
      <trkpt lat="48.04173" lon="7.54898">
        <ele>221.19999694824</ele>
        <time>2019-09-09T10:21:34Z</time>
      </trkpt>
      <trkpt lat="48.04172" lon="7.54886">
        <ele>221.39999389648</ele>
        <time>2019-09-09T10:21:36Z</time>
      </trkpt>
      <trkpt lat="48.04167" lon="7.54872">
        <ele>221.39999389648</ele>
        <time>2019-09-09T10:21:39Z</time>
      </trkpt>
      <trkpt lat="48.04165" lon="7.54868">
        <ele>221.39999389648</ele>
        <time>2019-09-09T10:21:40Z</time>
      </trkpt>
      <trkpt lat="48.04163" lon="7.54852">
        <ele>221.60000610352</ele>
        <time>2019-09-09T10:21:43Z</time>
      </trkpt>
      <trkpt lat="48.0416" lon="7.54812">
        <ele>221.60000610352</ele>
        <time>2019-09-09T10:21:50Z</time>
      </trkpt>
      <trkpt lat="48.0416" lon="7.54801">
        <ele>221.80000305176</ele>
        <time>2019-09-09T10:21:53Z</time>
      </trkpt>
      <trkpt lat="48.04161" lon="7.54798">
        <ele>221.80000305176</ele>
        <time>2019-09-09T10:21:54Z</time>
      </trkpt>
      <trkpt lat="48.0416" lon="7.54787">
        <ele>222</ele>
        <time>2019-09-09T10:21:57Z</time>
      </trkpt>
      <trkpt lat="48.0416" lon="7.54782">
        <ele>222</ele>
        <time>2019-09-09T10:21:58Z</time>
      </trkpt>
      <trkpt lat="48.04162" lon="7.54757">
        <ele>222.19999694824</ele>
        <time>2019-09-09T10:22:03Z</time>
      </trkpt>
      <trkpt lat="48.04161" lon="7.5475">
        <ele>222.39999389648</ele>
        <time>2019-09-09T10:22:06Z</time>
      </trkpt>
      <trkpt lat="48.04153" lon="7.54755">
        <ele>222.60000610352</ele>
        <time>2019-09-09T10:22:10Z</time>
      </trkpt>
      <trkpt lat="48.04139" lon="7.54759">
        <ele>222.60000610352</ele>
        <time>2019-09-09T10:22:14Z</time>
      </trkpt>
      <trkpt lat="48.04136" lon="7.54759">
        <ele>222.60000610352</ele>
        <time>2019-09-09T10:22:15Z</time>
      </trkpt>
      <trkpt lat="48.04111" lon="7.54756">
        <ele>222.60000610352</ele>
        <time>2019-09-09T10:22:21Z</time>
      </trkpt>
      <trkpt lat="48.04094" lon="7.54757">
        <ele>222.60000610352</ele>
        <time>2019-09-09T10:22:25Z</time>
      </trkpt>
      <trkpt lat="48.04085" lon="7.54759">
        <ele>222.60000610352</ele>
        <time>2019-09-09T10:22:27Z</time>
      </trkpt>
      <trkpt lat="48.04077" lon="7.5476">
        <ele>222.80000305176</ele>
        <time>2019-09-09T10:22:29Z</time>
      </trkpt>
      <trkpt lat="48.04061" lon="7.5476">
        <ele>223</ele>
        <time>2019-09-09T10:22:33Z</time>
      </trkpt>
      <trkpt lat="48.04052" lon="7.54763">
        <ele>223</ele>
        <time>2019-09-09T10:22:36Z</time>
      </trkpt>
      <trkpt lat="48.04051" lon="7.54767">
        <ele>223</ele>
        <time>2019-09-09T10:22:37Z</time>
      </trkpt>
      <trkpt lat="48.04044" lon="7.54775">
        <ele>223.19999694824</ele>
        <time>2019-09-09T10:22:41Z</time>
      </trkpt>
      <trkpt lat="48.04039" lon="7.54768">
        <ele>223.19999694824</ele>
        <time>2019-09-09T10:22:44Z</time>
      </trkpt>
      <trkpt lat="48.04034" lon="7.54757">
        <ele>223.19999694824</ele>
        <time>2019-09-09T10:22:47Z</time>
      </trkpt>
      <trkpt lat="48.04031" lon="7.54755">
        <ele>223.39999389648</ele>
        <time>2019-09-09T10:22:48Z</time>
      </trkpt>
      <trkpt lat="48.04017" lon="7.54754">
        <ele>223.39999389648</ele>
        <time>2019-09-09T10:22:52Z</time>
      </trkpt>
      <trkpt lat="48.03997" lon="7.54755">
        <ele>223.39999389648</ele>
        <time>2019-09-09T10:22:57Z</time>
      </trkpt>
      <trkpt lat="48.03982" lon="7.54752">
        <ele>223.60000610352</ele>
        <time>2019-09-09T10:23:01Z</time>
      </trkpt>
      <trkpt lat="48.03974" lon="7.54748">
        <ele>223.60000610352</ele>
        <time>2019-09-09T10:23:03Z</time>
      </trkpt>
      <trkpt lat="48.03965" lon="7.54743">
        <ele>223.60000610352</ele>
        <time>2019-09-09T10:23:05Z</time>
      </trkpt>
      <trkpt lat="48.0396" lon="7.54741">
        <ele>223.60000610352</ele>
        <time>2019-09-09T10:23:06Z</time>
      </trkpt>
      <trkpt lat="48.03926" lon="7.54737">
        <ele>223.80000305176</ele>
        <time>2019-09-09T10:23:13Z</time>
      </trkpt>
      <trkpt lat="48.03912" lon="7.54739">
        <ele>223.80000305176</ele>
        <time>2019-09-09T10:23:16Z</time>
      </trkpt>
      <trkpt lat="48.03898" lon="7.54745">
        <ele>223.80000305176</ele>
        <time>2019-09-09T10:23:19Z</time>
      </trkpt>
      <trkpt lat="48.03859" lon="7.54759">
        <ele>224</ele>
        <time>2019-09-09T10:23:27Z</time>
      </trkpt>
      <trkpt lat="48.03816" lon="7.54779">
        <ele>223.80000305176</ele>
        <time>2019-09-09T10:23:36Z</time>
      </trkpt>
      <trkpt lat="48.03778" lon="7.54798">
        <ele>223.60000610352</ele>
        <time>2019-09-09T10:23:44Z</time>
      </trkpt>
      <trkpt lat="48.0374" lon="7.54817">
        <ele>223.80000305176</ele>
        <time>2019-09-09T10:23:53Z</time>
      </trkpt>
      <trkpt lat="48.03706" lon="7.54836">
        <ele>224.19999694824</ele>
        <time>2019-09-09T10:24:01Z</time>
      </trkpt>
      <trkpt lat="48.03677" lon="7.5485">
        <ele>224</ele>
        <time>2019-09-09T10:24:07Z</time>
      </trkpt>
      <trkpt lat="48.03668" lon="7.5485">
        <ele>224</ele>
        <time>2019-09-09T10:24:09Z</time>
      </trkpt>
      <trkpt lat="48.03663" lon="7.54834">
        <ele>224</ele>
        <time>2019-09-09T10:24:12Z</time>
      </trkpt>
      <trkpt lat="48.03663" lon="7.54827">
        <ele>224</ele>
        <time>2019-09-09T10:24:13Z</time>
      </trkpt>
      <trkpt lat="48.03662" lon="7.54805">
        <ele>224</ele>
        <time>2019-09-09T10:24:16Z</time>
      </trkpt>
      <trkpt lat="48.03663" lon="7.54792">
        <ele>224</ele>
        <time>2019-09-09T10:24:18Z</time>
      </trkpt>
      <trkpt lat="48.03663" lon="7.54749">
        <ele>224.19999694824</ele>
        <time>2019-09-09T10:24:24Z</time>
      </trkpt>
      <trkpt lat="48.03662" lon="7.54697">
        <ele>224.19999694824</ele>
        <time>2019-09-09T10:24:31Z</time>
      </trkpt>
      <trkpt lat="48.03661" lon="7.54642">
        <ele>224.19999694824</ele>
        <time>2019-09-09T10:24:38Z</time>
      </trkpt>
      <trkpt lat="48.03662" lon="7.54584">
        <ele>224.19999694824</ele>
        <time>2019-09-09T10:24:46Z</time>
      </trkpt>
      <trkpt lat="48.03664" lon="7.54541">
        <ele>224</ele>
        <time>2019-09-09T10:24:53Z</time>
      </trkpt>
      <trkpt lat="48.03665" lon="7.54493">
        <ele>224</ele>
        <time>2019-09-09T10:25:00Z</time>
      </trkpt>
      <trkpt lat="48.03667" lon="7.54442">
        <ele>224.39999389648</ele>
        <time>2019-09-09T10:25:07Z</time>
      </trkpt>
      <trkpt lat="48.03669" lon="7.54419">
        <ele>224.39999389648</ele>
        <time>2019-09-09T10:25:10Z</time>
      </trkpt>
      <trkpt lat="48.0367" lon="7.54394">
        <ele>224.39999389648</ele>
        <time>2019-09-09T10:25:14Z</time>
      </trkpt>
      <trkpt lat="48.03675" lon="7.54355">
        <ele>224.60000610352</ele>
        <time>2019-09-09T10:25:20Z</time>
      </trkpt>
      <trkpt lat="48.03675" lon="7.54348">
        <ele>224.60000610352</ele>
        <time>2019-09-09T10:25:21Z</time>
      </trkpt>
      <trkpt lat="48.03676" lon="7.54334">
        <ele>224.60000610352</ele>
        <time>2019-09-09T10:25:23Z</time>
      </trkpt>
      <trkpt lat="48.0368" lon="7.54305">
        <ele>224.60000610352</ele>
        <time>2019-09-09T10:25:27Z</time>
      </trkpt>
      <trkpt lat="48.03688" lon="7.54263">
        <ele>224.80000305176</ele>
        <time>2019-09-09T10:25:33Z</time>
      </trkpt>
      <trkpt lat="48.0369" lon="7.54257">
        <ele>224.80000305176</ele>
        <time>2019-09-09T10:25:34Z</time>
      </trkpt>
      <trkpt lat="48.03696" lon="7.5423">
        <ele>225</ele>
        <time>2019-09-09T10:25:38Z</time>
      </trkpt>
      <trkpt lat="48.03701" lon="7.54202">
        <ele>225</ele>
        <time>2019-09-09T10:25:42Z</time>
      </trkpt>
      <trkpt lat="48.03717" lon="7.54154">
        <ele>225.19999694824</ele>
        <time>2019-09-09T10:25:49Z</time>
      </trkpt>
      <trkpt lat="48.03734" lon="7.54107">
        <ele>225.19999694824</ele>
        <time>2019-09-09T10:25:56Z</time>
      </trkpt>
      <trkpt lat="48.03753" lon="7.54064">
        <ele>225.39999389648</ele>
        <time>2019-09-09T10:26:03Z</time>
      </trkpt>
      <trkpt lat="48.03765" lon="7.54038">
        <ele>225.60000610352</ele>
        <time>2019-09-09T10:26:07Z</time>
      </trkpt>
      <trkpt lat="48.03776" lon="7.54014">
        <ele>225.80000305176</ele>
        <time>2019-09-09T10:26:11Z</time>
      </trkpt>
      <trkpt lat="48.03787" lon="7.54">
        <ele>225.80000305176</ele>
        <time>2019-09-09T10:26:14Z</time>
      </trkpt>
      <trkpt lat="48.03791" lon="7.53997">
        <ele>225.80000305176</ele>
        <time>2019-09-09T10:26:15Z</time>
      </trkpt>
      <trkpt lat="48.03795" lon="7.53994">
        <ele>225.80000305176</ele>
        <time>2019-09-09T10:26:16Z</time>
      </trkpt>
      <trkpt lat="48.03804" lon="7.53989">
        <ele>226.19999694824</ele>
        <time>2019-09-09T10:26:18Z</time>
      </trkpt>
      <trkpt lat="48.0381" lon="7.53979">
        <ele>226.19999694824</ele>
        <time>2019-09-09T10:26:20Z</time>
      </trkpt>
      <trkpt lat="48.03809" lon="7.53961">
        <ele>226.19999694824</ele>
        <time>2019-09-09T10:26:23Z</time>
      </trkpt>
      <trkpt lat="48.03799" lon="7.53954">
        <ele>226.39999389648</ele>
        <time>2019-09-09T10:26:26Z</time>
      </trkpt>
      <trkpt lat="48.03787" lon="7.53966">
        <ele>226.60000610352</ele>
        <time>2019-09-09T10:26:30Z</time>
      </trkpt>
      <trkpt lat="48.03784" lon="7.53993">
        <ele>226.60000610352</ele>
        <time>2019-09-09T10:26:36Z</time>
      </trkpt>
      <trkpt lat="48.03782" lon="7.54002">
        <ele>226.60000610352</ele>
        <time>2019-09-09T10:26:38Z</time>
      </trkpt>
      <trkpt lat="48.03777" lon="7.5401">
        <ele>226.39999389648</ele>
        <time>2019-09-09T10:26:40Z</time>
      </trkpt>
      <trkpt lat="48.03772" lon="7.54012">
        <ele>226.39999389648</ele>
        <time>2019-09-09T10:26:41Z</time>
      </trkpt>
      <trkpt lat="48.03763" lon="7.54011">
        <ele>226.39999389648</ele>
        <time>2019-09-09T10:26:43Z</time>
      </trkpt>
      <trkpt lat="48.03748" lon="7.53995">
        <ele>226.19999694824</ele>
        <time>2019-09-09T10:26:47Z</time>
      </trkpt>
      <trkpt lat="48.03742" lon="7.53984">
        <ele>226.19999694824</ele>
        <time>2019-09-09T10:26:49Z</time>
      </trkpt>
      <trkpt lat="48.03736" lon="7.53975">
        <ele>226.19999694824</ele>
        <time>2019-09-09T10:26:51Z</time>
      </trkpt>
      <trkpt lat="48.03727" lon="7.5397">
        <ele>226.19999694824</ele>
        <time>2019-09-09T10:26:53Z</time>
      </trkpt>
      <trkpt lat="48.03718" lon="7.53969">
        <ele>226.39999389648</ele>
        <time>2019-09-09T10:26:55Z</time>
      </trkpt>
      <trkpt lat="48.03713" lon="7.5397">
        <ele>226.39999389648</ele>
        <time>2019-09-09T10:26:56Z</time>
      </trkpt>
      <trkpt lat="48.03704" lon="7.53972">
        <ele>226.60000610352</ele>
        <time>2019-09-09T10:26:58Z</time>
      </trkpt>
      <trkpt lat="48.03679" lon="7.53975">
        <ele>227</ele>
        <time>2019-09-09T10:27:03Z</time>
      </trkpt>
      <trkpt lat="48.03653" lon="7.53977">
        <ele>227.19999694824</ele>
        <time>2019-09-09T10:27:08Z</time>
      </trkpt>
      <trkpt lat="48.03603" lon="7.53978">
        <ele>227.39999389648</ele>
        <time>2019-09-09T10:27:18Z</time>
      </trkpt>
      <trkpt lat="48.0356" lon="7.53975">
        <ele>227.39999389648</ele>
        <time>2019-09-09T10:27:26Z</time>
      </trkpt>
      <trkpt lat="48.03524" lon="7.53971">
        <ele>227.19999694824</ele>
        <time>2019-09-09T10:27:33Z</time>
      </trkpt>
      <trkpt lat="48.03514" lon="7.53971">
        <ele>227</ele>
        <time>2019-09-09T10:27:35Z</time>
      </trkpt>
      <trkpt lat="48.03473" lon="7.53967">
        <ele>227</ele>
        <time>2019-09-09T10:27:43Z</time>
      </trkpt>
      <trkpt lat="48.03422" lon="7.53963">
        <ele>227</ele>
        <time>2019-09-09T10:27:53Z</time>
      </trkpt>
      <trkpt lat="48.03371" lon="7.53958">
        <ele>227</ele>
        <time>2019-09-09T10:28:03Z</time>
      </trkpt>
      <trkpt lat="48.03326" lon="7.53954">
        <ele>227.19999694824</ele>
        <time>2019-09-09T10:28:12Z</time>
      </trkpt>
      <trkpt lat="48.03281" lon="7.53952">
        <ele>227.60000610352</ele>
        <time>2019-09-09T10:28:21Z</time>
      </trkpt>
      <trkpt lat="48.03246" lon="7.53947">
        <ele>227.80000305176</ele>
        <time>2019-09-09T10:28:28Z</time>
      </trkpt>
      <trkpt lat="48.03206" lon="7.53942">
        <ele>227.80000305176</ele>
        <time>2019-09-09T10:28:36Z</time>
      </trkpt>
      <trkpt lat="48.03186" lon="7.53939">
        <ele>227.60000610352</ele>
        <time>2019-09-09T10:28:40Z</time>
      </trkpt>
      <trkpt lat="48.03176" lon="7.53938">
        <ele>227.60000610352</ele>
        <time>2019-09-09T10:28:42Z</time>
      </trkpt>
      <trkpt lat="48.03131" lon="7.53933">
        <ele>227.80000305176</ele>
        <time>2019-09-09T10:28:51Z</time>
      </trkpt>
      <trkpt lat="48.03084" lon="7.53927">
        <ele>227.60000610352</ele>
        <time>2019-09-09T10:29:00Z</time>
      </trkpt>
      <trkpt lat="48.0303" lon="7.5392">
        <ele>227.39999389648</ele>
        <time>2019-09-09T10:29:10Z</time>
      </trkpt>
      <trkpt lat="48.03024" lon="7.5392">
        <ele>227.19999694824</ele>
        <time>2019-09-09T10:29:11Z</time>
      </trkpt>
      <trkpt lat="48.0299" lon="7.53916">
        <ele>227</ele>
        <time>2019-09-09T10:29:17Z</time>
      </trkpt>
      <trkpt lat="48.02939" lon="7.53911">
        <ele>226.80000305176</ele>
        <time>2019-09-09T10:29:26Z</time>
      </trkpt>
      <trkpt lat="48.02891" lon="7.53906">
        <ele>226.80000305176</ele>
        <time>2019-09-09T10:29:35Z</time>
      </trkpt>
      <trkpt lat="48.02836" lon="7.53901">
        <ele>227</ele>
        <time>2019-09-09T10:29:46Z</time>
      </trkpt>
      <trkpt lat="48.02831" lon="7.539">
        <ele>227</ele>
        <time>2019-09-09T10:29:47Z</time>
      </trkpt>
      <trkpt lat="48.02776" lon="7.53892">
        <ele>227</ele>
        <time>2019-09-09T10:29:58Z</time>
      </trkpt>
      <trkpt lat="48.02766" lon="7.53891">
        <ele>227.19999694824</ele>
        <time>2019-09-09T10:30:00Z</time>
      </trkpt>
      <trkpt lat="48.02725" lon="7.53886">
        <ele>227.39999389648</ele>
        <time>2019-09-09T10:30:08Z</time>
      </trkpt>
      <trkpt lat="48.0268" lon="7.53883">
        <ele>227.39999389648</ele>
        <time>2019-09-09T10:30:17Z</time>
      </trkpt>
      <trkpt lat="48.02667" lon="7.53881">
        <ele>227.39999389648</ele>
        <time>2019-09-09T10:30:20Z</time>
      </trkpt>
      <trkpt lat="48.02659" lon="7.53881">
        <ele>227.39999389648</ele>
        <time>2019-09-09T10:30:22Z</time>
      </trkpt>
      <trkpt lat="48.02646" lon="7.5388">
        <ele>227.39999389648</ele>
        <time>2019-09-09T10:30:25Z</time>
      </trkpt>
      <trkpt lat="48.02638" lon="7.5388">
        <ele>227.39999389648</ele>
        <time>2019-09-09T10:30:28Z</time>
      </trkpt>
      <trkpt lat="48.02638" lon="7.5388">
        <ele>227.39999389648</ele>
        <time>2019-09-09T10:30:29Z</time>
      </trkpt>
      <trkpt lat="48.02635" lon="7.53879">
        <ele>227.39999389648</ele>
        <time>2019-09-09T10:30:32Z</time>
      </trkpt>
      <trkpt lat="48.0263" lon="7.53879">
        <ele>227.19999694824</ele>
        <time>2019-09-09T10:30:34Z</time>
      </trkpt>
      <trkpt lat="48.02607" lon="7.5388">
        <ele>227.19999694824</ele>
        <time>2019-09-09T10:30:40Z</time>
      </trkpt>
      <trkpt lat="48.02603" lon="7.5388">
        <ele>227.19999694824</ele>
        <time>2019-09-09T10:30:41Z</time>
      </trkpt>
      <trkpt lat="48.02581" lon="7.53874">
        <ele>227.19999694824</ele>
        <time>2019-09-09T10:30:46Z</time>
      </trkpt>
      <trkpt lat="48.02537" lon="7.53865">
        <ele>228</ele>
        <time>2019-09-09T10:30:55Z</time>
      </trkpt>
      <trkpt lat="48.02493" lon="7.53857">
        <ele>228</ele>
        <time>2019-09-09T10:31:04Z</time>
      </trkpt>
      <trkpt lat="48.0245" lon="7.5385">
        <ele>228.39999389648</ele>
        <time>2019-09-09T10:31:13Z</time>
      </trkpt>
      <trkpt lat="48.02411" lon="7.53845">
        <ele>228.39999389648</ele>
        <time>2019-09-09T10:31:21Z</time>
      </trkpt>
      <trkpt lat="48.0237" lon="7.53847">
        <ele>228.39999389648</ele>
        <time>2019-09-09T10:31:29Z</time>
      </trkpt>
      <trkpt lat="48.02331" lon="7.53854">
        <ele>228.60000610352</ele>
        <time>2019-09-09T10:31:37Z</time>
      </trkpt>
      <trkpt lat="48.023" lon="7.53864">
        <ele>228.80000305176</ele>
        <time>2019-09-09T10:31:43Z</time>
      </trkpt>
      <trkpt lat="48.02259" lon="7.53875">
        <ele>228.80000305176</ele>
        <time>2019-09-09T10:31:51Z</time>
      </trkpt>
      <trkpt lat="48.02218" lon="7.53883">
        <ele>228.80000305176</ele>
        <time>2019-09-09T10:31:59Z</time>
      </trkpt>
      <trkpt lat="48.02172" lon="7.53888">
        <ele>228.60000610352</ele>
        <time>2019-09-09T10:32:08Z</time>
      </trkpt>
      <trkpt lat="48.02143" lon="7.53891">
        <ele>228.39999389648</ele>
        <time>2019-09-09T10:32:14Z</time>
      </trkpt>
      <trkpt lat="48.02127" lon="7.53892">
        <ele>228.39999389648</ele>
        <time>2019-09-09T10:32:18Z</time>
      </trkpt>
      <trkpt lat="48.02122" lon="7.53893">
        <ele>228.39999389648</ele>
        <time>2019-09-09T10:32:19Z</time>
      </trkpt>
      <trkpt lat="48.02089" lon="7.53898">
        <ele>228.19999694824</ele>
        <time>2019-09-09T10:32:26Z</time>
      </trkpt>
      <trkpt lat="48.0206" lon="7.53901">
        <ele>228.19999694824</ele>
        <time>2019-09-09T10:32:32Z</time>
      </trkpt>
      <trkpt lat="48.02021" lon="7.53905">
        <ele>228.19999694824</ele>
        <time>2019-09-09T10:32:40Z</time>
      </trkpt>
      <trkpt lat="48.01981" lon="7.53911">
        <ele>228.19999694824</ele>
        <time>2019-09-09T10:32:48Z</time>
      </trkpt>
      <trkpt lat="48.01941" lon="7.5391">
        <ele>228.39999389648</ele>
        <time>2019-09-09T10:32:56Z</time>
      </trkpt>
      <trkpt lat="48.01907" lon="7.53908">
        <ele>228.39999389648</ele>
        <time>2019-09-09T10:33:03Z</time>
      </trkpt>
      <trkpt lat="48.01893" lon="7.53903">
        <ele>228.60000610352</ele>
        <time>2019-09-09T10:33:08Z</time>
      </trkpt>
      <trkpt lat="48.0188" lon="7.53896">
        <ele>228.60000610352</ele>
        <time>2019-09-09T10:33:12Z</time>
      </trkpt>
      <trkpt lat="48.01876" lon="7.53894">
        <ele>228.60000610352</ele>
        <time>2019-09-09T10:33:13Z</time>
      </trkpt>
      <trkpt lat="48.01868" lon="7.53895">
        <ele>228.60000610352</ele>
        <time>2019-09-09T10:33:15Z</time>
      </trkpt>
      <trkpt lat="48.01852" lon="7.53893">
        <ele>228.60000610352</ele>
        <time>2019-09-09T10:33:19Z</time>
      </trkpt>
      <trkpt lat="48.0185" lon="7.53891">
        <ele>228.60000610352</ele>
        <time>2019-09-09T10:33:20Z</time>
      </trkpt>
      <trkpt lat="48.01843" lon="7.53887">
        <ele>228.60000610352</ele>
        <time>2019-09-09T10:33:23Z</time>
      </trkpt>
      <trkpt lat="48.01826" lon="7.53881">
        <ele>228.80000305176</ele>
        <time>2019-09-09T10:33:28Z</time>
      </trkpt>
      <trkpt lat="48.01821" lon="7.53881">
        <ele>229</ele>
        <time>2019-09-09T10:33:29Z</time>
      </trkpt>
      <trkpt lat="48.01802" lon="7.53879">
        <ele>228.80000305176</ele>
        <time>2019-09-09T10:33:33Z</time>
      </trkpt>
      <trkpt lat="48.01768" lon="7.5387">
        <ele>228.80000305176</ele>
        <time>2019-09-09T10:33:40Z</time>
      </trkpt>
      <trkpt lat="48.01758" lon="7.53869">
        <ele>228.80000305176</ele>
        <time>2019-09-09T10:33:42Z</time>
      </trkpt>
      <trkpt lat="48.01718" lon="7.53856">
        <ele>228.80000305176</ele>
        <time>2019-09-09T10:33:50Z</time>
      </trkpt>
      <trkpt lat="48.01677" lon="7.53843">
        <ele>228.80000305176</ele>
        <time>2019-09-09T10:33:58Z</time>
      </trkpt>
      <trkpt lat="48.01636" lon="7.53833">
        <ele>228.60000610352</ele>
        <time>2019-09-09T10:34:06Z</time>
      </trkpt>
      <trkpt lat="48.01631" lon="7.53832">
        <ele>228.60000610352</ele>
        <time>2019-09-09T10:34:07Z</time>
      </trkpt>
      <trkpt lat="48.01591" lon="7.5382">
        <ele>228.60000610352</ele>
        <time>2019-09-09T10:34:15Z</time>
      </trkpt>
      <trkpt lat="48.01554" lon="7.5381">
        <ele>228.80000305176</ele>
        <time>2019-09-09T10:34:23Z</time>
      </trkpt>
      <trkpt lat="48.01509" lon="7.53801">
        <ele>228.80000305176</ele>
        <time>2019-09-09T10:34:32Z</time>
      </trkpt>
      <trkpt lat="48.01488" lon="7.53799">
        <ele>228.80000305176</ele>
        <time>2019-09-09T10:34:36Z</time>
      </trkpt>
      <trkpt lat="48.01474" lon="7.53797">
        <ele>228.80000305176</ele>
        <time>2019-09-09T10:34:39Z</time>
      </trkpt>
      <trkpt lat="48.01445" lon="7.53793">
        <ele>228.60000610352</ele>
        <time>2019-09-09T10:34:45Z</time>
      </trkpt>
      <trkpt lat="48.0144" lon="7.53791">
        <ele>228.60000610352</ele>
        <time>2019-09-09T10:34:46Z</time>
      </trkpt>
      <trkpt lat="48.01426" lon="7.5378">
        <ele>228.39999389648</ele>
        <time>2019-09-09T10:34:49Z</time>
      </trkpt>
      <trkpt lat="48.01417" lon="7.53778">
        <ele>228.39999389648</ele>
        <time>2019-09-09T10:34:51Z</time>
      </trkpt>
      <trkpt lat="48.01405" lon="7.53786">
        <ele>228.39999389648</ele>
        <time>2019-09-09T10:34:54Z</time>
      </trkpt>
      <trkpt lat="48.01391" lon="7.53786">
        <ele>228.39999389648</ele>
        <time>2019-09-09T10:34:57Z</time>
      </trkpt>
      <trkpt lat="48.01369" lon="7.53785">
        <ele>228.60000610352</ele>
        <time>2019-09-09T10:35:02Z</time>
      </trkpt>
      <trkpt lat="48.01359" lon="7.53786">
        <ele>228.60000610352</ele>
        <time>2019-09-09T10:35:04Z</time>
      </trkpt>
      <trkpt lat="48.0133" lon="7.53783">
        <ele>228.60000610352</ele>
        <time>2019-09-09T10:35:10Z</time>
      </trkpt>
      <trkpt lat="48.01292" lon="7.5378">
        <ele>228.60000610352</ele>
        <time>2019-09-09T10:35:18Z</time>
      </trkpt>
      <trkpt lat="48.01278" lon="7.53774">
        <ele>228.60000610352</ele>
        <time>2019-09-09T10:35:22Z</time>
      </trkpt>
      <trkpt lat="48.01265" lon="7.5378">
        <ele>228.60000610352</ele>
        <time>2019-09-09T10:35:26Z</time>
      </trkpt>
      <trkpt lat="48.0126" lon="7.53785">
        <ele>228.60000610352</ele>
        <time>2019-09-09T10:35:29Z</time>
      </trkpt>
      <trkpt lat="48.01266" lon="7.53788">
        <ele>228.60000610352</ele>
        <time>2019-09-09T10:35:32Z</time>
      </trkpt>
      <trkpt lat="48.01268" lon="7.53805">
        <ele>228.39999389648</ele>
        <time>2019-09-09T10:35:36Z</time>
      </trkpt>
      <trkpt lat="48.0126" lon="7.53823">
        <ele>228.39999389648</ele>
        <time>2019-09-09T10:35:40Z</time>
      </trkpt>
      <trkpt lat="48.01254" lon="7.53833">
        <ele>228.39999389648</ele>
        <time>2019-09-09T10:35:42Z</time>
      </trkpt>
      <trkpt lat="48.01244" lon="7.53857">
        <ele>228.39999389648</ele>
        <time>2019-09-09T10:35:46Z</time>
      </trkpt>
      <trkpt lat="48.01238" lon="7.53869">
        <ele>228.39999389648</ele>
        <time>2019-09-09T10:35:48Z</time>
      </trkpt>
      <trkpt lat="48.01227" lon="7.53885">
        <ele>228.39999389648</ele>
        <time>2019-09-09T10:35:51Z</time>
      </trkpt>
      <trkpt lat="48.01224" lon="7.53891">
        <ele>228.19999694824</ele>
        <time>2019-09-09T10:35:52Z</time>
      </trkpt>
      <trkpt lat="48.01207" lon="7.53921">
        <ele>228.19999694824</ele>
        <time>2019-09-09T10:35:57Z</time>
      </trkpt>
      <trkpt lat="48.01201" lon="7.53933">
        <ele>228</ele>
        <time>2019-09-09T10:35:59Z</time>
      </trkpt>
      <trkpt lat="48.01187" lon="7.53966">
        <ele>228</ele>
        <time>2019-09-09T10:36:04Z</time>
      </trkpt>
      <trkpt lat="48.01167" lon="7.54012">
        <ele>228.19999694824</ele>
        <time>2019-09-09T10:36:11Z</time>
      </trkpt>
      <trkpt lat="48.01141" lon="7.54069">
        <ele>228.19999694824</ele>
        <time>2019-09-09T10:36:20Z</time>
      </trkpt>
      <trkpt lat="48.0112" lon="7.54119">
        <ele>228.39999389648</ele>
        <time>2019-09-09T10:36:28Z</time>
      </trkpt>
      <trkpt lat="48.01098" lon="7.54168">
        <ele>228.39999389648</ele>
        <time>2019-09-09T10:36:36Z</time>
      </trkpt>
      <trkpt lat="48.01095" lon="7.54173">
        <ele>228.19999694824</ele>
        <time>2019-09-09T10:36:37Z</time>
      </trkpt>
      <trkpt lat="48.01084" lon="7.54182">
        <ele>228.19999694824</ele>
        <time>2019-09-09T10:36:40Z</time>
      </trkpt>
      <trkpt lat="48.0108" lon="7.54185">
        <ele>228.19999694824</ele>
        <time>2019-09-09T10:36:41Z</time>
      </trkpt>
      <trkpt lat="48.01074" lon="7.54195">
        <ele>228.19999694824</ele>
        <time>2019-09-09T10:36:43Z</time>
      </trkpt>
      <trkpt lat="48.01072" lon="7.54222">
        <ele>228</ele>
        <time>2019-09-09T10:36:47Z</time>
      </trkpt>
      <trkpt lat="48.01071" lon="7.54228">
        <ele>228</ele>
        <time>2019-09-09T10:36:48Z</time>
      </trkpt>
      <trkpt lat="48.01064" lon="7.54245">
        <ele>228</ele>
        <time>2019-09-09T10:36:51Z</time>
      </trkpt>
      <trkpt lat="48.01058" lon="7.54257">
        <ele>228</ele>
        <time>2019-09-09T10:36:53Z</time>
      </trkpt>
      <trkpt lat="48.01038" lon="7.54301">
        <ele>228.19999694824</ele>
        <time>2019-09-09T10:37:00Z</time>
      </trkpt>
      <trkpt lat="48.01013" lon="7.54361">
        <ele>228</ele>
        <time>2019-09-09T10:37:09Z</time>
      </trkpt>
      <trkpt lat="48.0101" lon="7.54385">
        <ele>228.19999694824</ele>
        <time>2019-09-09T10:37:13Z</time>
      </trkpt>
      <trkpt lat="48.01002" lon="7.54389">
        <ele>228.19999694824</ele>
        <time>2019-09-09T10:37:16Z</time>
      </trkpt>
      <trkpt lat="48.00995" lon="7.54396">
        <ele>228.19999694824</ele>
        <time>2019-09-09T10:37:19Z</time>
      </trkpt>
      <trkpt lat="48.00991" lon="7.54402">
        <ele>228.19999694824</ele>
        <time>2019-09-09T10:37:21Z</time>
      </trkpt>
      <trkpt lat="48.00984" lon="7.5441">
        <ele>228.19999694824</ele>
        <time>2019-09-09T10:37:23Z</time>
      </trkpt>
      <trkpt lat="48.00977" lon="7.54419">
        <ele>228.19999694824</ele>
        <time>2019-09-09T10:37:25Z</time>
      </trkpt>
      <trkpt lat="48.00966" lon="7.54433">
        <ele>228.19999694824</ele>
        <time>2019-09-09T10:37:28Z</time>
      </trkpt>
      <trkpt lat="48.00939" lon="7.54468">
        <ele>227.39999389648</ele>
        <time>2019-09-09T10:37:34Z</time>
      </trkpt>
      <trkpt lat="48.00934" lon="7.54473">
        <ele>227</ele>
        <time>2019-09-09T10:37:35Z</time>
      </trkpt>
      <trkpt lat="48.00919" lon="7.54492">
        <ele>226.19999694824</ele>
        <time>2019-09-09T10:37:39Z</time>
      </trkpt>
      <trkpt lat="48.00914" lon="7.54501">
        <ele>226</ele>
        <time>2019-09-09T10:37:41Z</time>
      </trkpt>
      <trkpt lat="48.00907" lon="7.5452">
        <ele>226</ele>
        <time>2019-09-09T10:37:45Z</time>
      </trkpt>
      <trkpt lat="48.00899" lon="7.54539">
        <ele>226.19999694824</ele>
        <time>2019-09-09T10:37:49Z</time>
      </trkpt>
      <trkpt lat="48.00894" lon="7.54546">
        <ele>226.60000610352</ele>
        <time>2019-09-09T10:37:51Z</time>
      </trkpt>
      <trkpt lat="48.0089" lon="7.54547">
        <ele>226.80000305176</ele>
        <time>2019-09-09T10:37:53Z</time>
      </trkpt>
      <trkpt lat="48.00887" lon="7.54543">
        <ele>227.19999694824</ele>
        <time>2019-09-09T10:37:56Z</time>
      </trkpt>
      <trkpt lat="48.00882" lon="7.5454">
        <ele>227.19999694824</ele>
        <time>2019-09-09T10:37:58Z</time>
      </trkpt>
      <trkpt lat="48.00879" lon="7.5454">
        <ele>227.39999389648</ele>
        <time>2019-09-09T10:37:59Z</time>
      </trkpt>
      <trkpt lat="48.00873" lon="7.54547">
        <ele>227.60000610352</ele>
        <time>2019-09-09T10:38:01Z</time>
      </trkpt>
      <trkpt lat="48.00861" lon="7.54575">
        <ele>227.80000305176</ele>
        <time>2019-09-09T10:38:06Z</time>
      </trkpt>
      <trkpt lat="48.00857" lon="7.54587">
        <ele>227.80000305176</ele>
        <time>2019-09-09T10:38:08Z</time>
      </trkpt>
      <trkpt lat="48.00839" lon="7.5463">
        <ele>227.80000305176</ele>
        <time>2019-09-09T10:38:15Z</time>
      </trkpt>
      <trkpt lat="48.00827" lon="7.54668">
        <ele>228</ele>
        <time>2019-09-09T10:38:21Z</time>
      </trkpt>
      <trkpt lat="48.00825" lon="7.54675">
        <ele>228.19999694824</ele>
        <time>2019-09-09T10:38:22Z</time>
      </trkpt>
      <trkpt lat="48.00824" lon="7.54682">
        <ele>228.19999694824</ele>
        <time>2019-09-09T10:38:23Z</time>
      </trkpt>
      <trkpt lat="48.0082" lon="7.54728">
        <ele>228.19999694824</ele>
        <time>2019-09-09T10:38:29Z</time>
      </trkpt>
      <trkpt lat="48.00817" lon="7.54788">
        <ele>227.80000305176</ele>
        <time>2019-09-09T10:38:37Z</time>
      </trkpt>
      <trkpt lat="48.00816" lon="7.54802">
        <ele>227.80000305176</ele>
        <time>2019-09-09T10:38:39Z</time>
      </trkpt>
      <trkpt lat="48.00815" lon="7.54833">
        <ele>227.60000610352</ele>
        <time>2019-09-09T10:38:43Z</time>
      </trkpt>
      <trkpt lat="48.00812" lon="7.54893">
        <ele>227.60000610352</ele>
        <time>2019-09-09T10:38:51Z</time>
      </trkpt>
      <trkpt lat="48.0081" lon="7.54954">
        <ele>227.60000610352</ele>
        <time>2019-09-09T10:38:59Z</time>
      </trkpt>
      <trkpt lat="48.0081" lon="7.54976">
        <ele>227.80000305176</ele>
        <time>2019-09-09T10:39:02Z</time>
      </trkpt>
      <trkpt lat="48.00807" lon="7.54999">
        <ele>228</ele>
        <time>2019-09-09T10:39:05Z</time>
      </trkpt>
      <trkpt lat="48.00806" lon="7.55016">
        <ele>228</ele>
        <time>2019-09-09T10:39:07Z</time>
      </trkpt>
      <trkpt lat="48.00804" lon="7.55048">
        <ele>228</ele>
        <time>2019-09-09T10:39:11Z</time>
      </trkpt>
      <trkpt lat="48.00802" lon="7.55103">
        <ele>227.60000610352</ele>
        <time>2019-09-09T10:39:18Z</time>
      </trkpt>
      <trkpt lat="48.00801" lon="7.5511">
        <ele>227.60000610352</ele>
        <time>2019-09-09T10:39:19Z</time>
      </trkpt>
      <trkpt lat="48.00798" lon="7.55168">
        <ele>227.60000610352</ele>
        <time>2019-09-09T10:39:27Z</time>
      </trkpt>
      <trkpt lat="48.00795" lon="7.55228">
        <ele>227.60000610352</ele>
        <time>2019-09-09T10:39:35Z</time>
      </trkpt>
      <trkpt lat="48.0079" lon="7.55266">
        <ele>227.60000610352</ele>
        <time>2019-09-09T10:39:40Z</time>
      </trkpt>
      <trkpt lat="48.00786" lon="7.55281">
        <ele>227.60000610352</ele>
        <time>2019-09-09T10:39:42Z</time>
      </trkpt>
      <trkpt lat="48.00771" lon="7.55338">
        <ele>227.80000305176</ele>
        <time>2019-09-09T10:39:51Z</time>
      </trkpt>
      <trkpt lat="48.00761" lon="7.55376">
        <ele>227.80000305176</ele>
        <time>2019-09-09T10:39:57Z</time>
      </trkpt>
      <trkpt lat="48.00748" lon="7.55424">
        <ele>227.80000305176</ele>
        <time>2019-09-09T10:40:04Z</time>
      </trkpt>
      <trkpt lat="48.00734" lon="7.55482">
        <ele>227.80000305176</ele>
        <time>2019-09-09T10:40:12Z</time>
      </trkpt>
      <trkpt lat="48.00726" lon="7.55509">
        <ele>227.39999389648</ele>
        <time>2019-09-09T10:40:16Z</time>
      </trkpt>
      <trkpt lat="48.0072" lon="7.55528">
        <ele>227.19999694824</ele>
        <time>2019-09-09T10:40:19Z</time>
      </trkpt>
      <trkpt lat="48.00717" lon="7.55534">
        <ele>227</ele>
        <time>2019-09-09T10:40:20Z</time>
      </trkpt>
      <trkpt lat="48.00704" lon="7.55551">
        <ele>226.80000305176</ele>
        <time>2019-09-09T10:40:24Z</time>
      </trkpt>
      <trkpt lat="48.007" lon="7.55555">
        <ele>226.80000305176</ele>
        <time>2019-09-09T10:40:25Z</time>
      </trkpt>
      <trkpt lat="48.00688" lon="7.55561">
        <ele>226.60000610352</ele>
        <time>2019-09-09T10:40:28Z</time>
      </trkpt>
      <trkpt lat="48.00676" lon="7.55552">
        <ele>226.60000610352</ele>
        <time>2019-09-09T10:40:31Z</time>
      </trkpt>
      <trkpt lat="48.00648" lon="7.5552">
        <ele>226.80000305176</ele>
        <time>2019-09-09T10:40:38Z</time>
      </trkpt>
      <trkpt lat="48.00631" lon="7.55502">
        <ele>226.80000305176</ele>
        <time>2019-09-09T10:40:43Z</time>
      </trkpt>
      <trkpt lat="48.00616" lon="7.55484">
        <ele>226.80000305176</ele>
        <time>2019-09-09T10:40:48Z</time>
      </trkpt>
      <trkpt lat="48.00588" lon="7.55455">
        <ele>226.80000305176</ele>
        <time>2019-09-09T10:40:55Z</time>
      </trkpt>
      <trkpt lat="48.00555" lon="7.55417">
        <ele>226.80000305176</ele>
        <time>2019-09-09T10:41:03Z</time>
      </trkpt>
      <trkpt lat="48.00514" lon="7.55371">
        <ele>226.80000305176</ele>
        <time>2019-09-09T10:41:13Z</time>
      </trkpt>
      <trkpt lat="48.00476" lon="7.55329">
        <ele>226.80000305176</ele>
        <time>2019-09-09T10:41:22Z</time>
      </trkpt>
      <trkpt lat="48.0045" lon="7.55299">
        <ele>227</ele>
        <time>2019-09-09T10:41:29Z</time>
      </trkpt>
      <trkpt lat="48.00421" lon="7.55267">
        <ele>227</ele>
        <time>2019-09-09T10:41:36Z</time>
      </trkpt>
      <trkpt lat="48.00386" lon="7.55231">
        <ele>227.19999694824</ele>
        <time>2019-09-09T10:41:44Z</time>
      </trkpt>
      <trkpt lat="48.00364" lon="7.55209">
        <ele>227.19999694824</ele>
        <time>2019-09-09T10:41:49Z</time>
      </trkpt>
      <trkpt lat="48.00359" lon="7.55206">
        <ele>227.39999389648</ele>
        <time>2019-09-09T10:41:50Z</time>
      </trkpt>
      <trkpt lat="48.00332" lon="7.55178">
        <ele>227.60000610352</ele>
        <time>2019-09-09T10:41:56Z</time>
      </trkpt>
      <trkpt lat="48.00296" lon="7.55147">
        <ele>227.60000610352</ele>
        <time>2019-09-09T10:42:04Z</time>
      </trkpt>
      <trkpt lat="48.00267" lon="7.55124">
        <ele>227.80000305176</ele>
        <time>2019-09-09T10:42:11Z</time>
      </trkpt>
      <trkpt lat="48.00259" lon="7.55118">
        <ele>228</ele>
        <time>2019-09-09T10:42:13Z</time>
      </trkpt>
      <trkpt lat="48.00242" lon="7.55105">
        <ele>228</ele>
        <time>2019-09-09T10:42:17Z</time>
      </trkpt>
      <trkpt lat="48.00202" lon="7.55078">
        <ele>228.39999389648</ele>
        <time>2019-09-09T10:42:26Z</time>
      </trkpt>
      <trkpt lat="48.00169" lon="7.5506">
        <ele>228.39999389648</ele>
        <time>2019-09-09T10:42:33Z</time>
      </trkpt>
      <trkpt lat="48.0014" lon="7.55044">
        <ele>228.39999389648</ele>
        <time>2019-09-09T10:42:39Z</time>
      </trkpt>
      <trkpt lat="48.00119" lon="7.55034">
        <ele>228.39999389648</ele>
        <time>2019-09-09T10:42:44Z</time>
      </trkpt>
      <trkpt lat="48.00091" lon="7.5502">
        <ele>228.60000610352</ele>
        <time>2019-09-09T10:42:50Z</time>
      </trkpt>
      <trkpt lat="48.00054" lon="7.55005">
        <ele>228.80000305176</ele>
        <time>2019-09-09T10:42:57Z</time>
      </trkpt>
      <trkpt lat="48.00012" lon="7.5499">
        <ele>229</ele>
        <time>2019-09-09T10:43:05Z</time>
      </trkpt>
      <trkpt lat="48.00007" lon="7.54988">
        <ele>229.19999694824</ele>
        <time>2019-09-09T10:43:06Z</time>
      </trkpt>
      <trkpt lat="47.99975" lon="7.54979">
        <ele>229.19999694824</ele>
        <time>2019-09-09T10:43:12Z</time>
      </trkpt>
      <trkpt lat="47.99918" lon="7.54966">
        <ele>229.39999389648</ele>
        <time>2019-09-09T10:43:23Z</time>
      </trkpt>
      <trkpt lat="47.99874" lon="7.54958">
        <ele>229.19999694824</ele>
        <time>2019-09-09T10:43:32Z</time>
      </trkpt>
      <trkpt lat="47.9983" lon="7.54954">
        <ele>229.39999389648</ele>
        <time>2019-09-09T10:43:41Z</time>
      </trkpt>
      <trkpt lat="47.99793" lon="7.54952">
        <ele>229.19999694824</ele>
        <time>2019-09-09T10:43:48Z</time>
      </trkpt>
      <trkpt lat="47.99756" lon="7.54952">
        <ele>229.19999694824</ele>
        <time>2019-09-09T10:43:55Z</time>
      </trkpt>
      <trkpt lat="47.99717" lon="7.54954">
        <ele>229.39999389648</ele>
        <time>2019-09-09T10:44:03Z</time>
      </trkpt>
      <trkpt lat="47.99675" lon="7.54958">
        <ele>229.19999694824</ele>
        <time>2019-09-09T10:44:11Z</time>
      </trkpt>
      <trkpt lat="47.99628" lon="7.54962">
        <ele>229.19999694824</ele>
        <time>2019-09-09T10:44:20Z</time>
      </trkpt>
      <trkpt lat="47.99613" lon="7.54964">
        <ele>229.19999694824</ele>
        <time>2019-09-09T10:44:23Z</time>
      </trkpt>
      <trkpt lat="47.99598" lon="7.54964">
        <ele>229.39999389648</ele>
        <time>2019-09-09T10:44:26Z</time>
      </trkpt>
      <trkpt lat="47.99564" lon="7.5497">
        <ele>229.60000610352</ele>
        <time>2019-09-09T10:44:33Z</time>
      </trkpt>
      <trkpt lat="47.99524" lon="7.54976">
        <ele>229.80000305176</ele>
        <time>2019-09-09T10:44:41Z</time>
      </trkpt>
      <trkpt lat="47.9948" lon="7.54979">
        <ele>229.80000305176</ele>
        <time>2019-09-09T10:44:50Z</time>
      </trkpt>
      <trkpt lat="47.99444" lon="7.5498">
        <ele>229.80000305176</ele>
        <time>2019-09-09T10:44:58Z</time>
      </trkpt>
      <trkpt lat="47.99423" lon="7.54982">
        <ele>229.80000305176</ele>
        <time>2019-09-09T10:45:03Z</time>
      </trkpt>
      <trkpt lat="47.99418" lon="7.54983">
        <ele>229.80000305176</ele>
        <time>2019-09-09T10:45:04Z</time>
      </trkpt>
      <trkpt lat="47.99385" lon="7.54987">
        <ele>230.19999694824</ele>
        <time>2019-09-09T10:45:11Z</time>
      </trkpt>
      <trkpt lat="47.99376" lon="7.54989">
        <ele>230</ele>
        <time>2019-09-09T10:45:13Z</time>
      </trkpt>
      <trkpt lat="47.99361" lon="7.54991">
        <ele>230</ele>
        <time>2019-09-09T10:45:16Z</time>
      </trkpt>
      <trkpt lat="47.99328" lon="7.54995">
        <ele>230</ele>
        <time>2019-09-09T10:45:22Z</time>
      </trkpt>
      <trkpt lat="47.99285" lon="7.54999">
        <ele>230</ele>
        <time>2019-09-09T10:45:30Z</time>
      </trkpt>
      <trkpt lat="47.9925" lon="7.55004">
        <ele>230</ele>
        <time>2019-09-09T10:45:37Z</time>
      </trkpt>
      <trkpt lat="47.99213" lon="7.55009">
        <ele>230</ele>
        <time>2019-09-09T10:45:45Z</time>
      </trkpt>
      <trkpt lat="47.99174" lon="7.55014">
        <ele>230.19999694824</ele>
        <time>2019-09-09T10:45:53Z</time>
      </trkpt>
      <trkpt lat="47.99145" lon="7.55017">
        <ele>230.39999389648</ele>
        <time>2019-09-09T10:45:59Z</time>
      </trkpt>
      <trkpt lat="47.9912" lon="7.55021">
        <ele>230.39999389648</ele>
        <time>2019-09-09T10:46:04Z</time>
      </trkpt>
      <trkpt lat="47.99086" lon="7.55025">
        <ele>230.39999389648</ele>
        <time>2019-09-09T10:46:11Z</time>
      </trkpt>
      <trkpt lat="47.99054" lon="7.55029">
        <ele>230.60000610352</ele>
        <time>2019-09-09T10:46:18Z</time>
      </trkpt>
      <trkpt lat="47.99035" lon="7.55031">
        <ele>230.60000610352</ele>
        <time>2019-09-09T10:46:22Z</time>
      </trkpt>
      <trkpt lat="47.9902" lon="7.55033">
        <ele>230.60000610352</ele>
        <time>2019-09-09T10:46:25Z</time>
      </trkpt>
      <trkpt lat="47.98982" lon="7.55039">
        <ele>230.60000610352</ele>
        <time>2019-09-09T10:46:33Z</time>
      </trkpt>
      <trkpt lat="47.98964" lon="7.55042">
        <ele>230.60000610352</ele>
        <time>2019-09-09T10:46:37Z</time>
      </trkpt>
      <trkpt lat="47.98956" lon="7.55039">
        <ele>230.60000610352</ele>
        <time>2019-09-09T10:46:39Z</time>
      </trkpt>
      <trkpt lat="47.98939" lon="7.55035">
        <ele>230.60000610352</ele>
        <time>2019-09-09T10:46:44Z</time>
      </trkpt>
      <trkpt lat="47.98928" lon="7.55045">
        <ele>231</ele>
        <time>2019-09-09T10:46:48Z</time>
      </trkpt>
      <trkpt lat="47.98925" lon="7.55046">
        <ele>231</ele>
        <time>2019-09-09T10:46:49Z</time>
      </trkpt>
      <trkpt lat="47.98918" lon="7.55045">
        <ele>231.19999694824</ele>
        <time>2019-09-09T10:46:51Z</time>
      </trkpt>
      <trkpt lat="47.98892" lon="7.55048">
        <ele>231.39999389648</ele>
        <time>2019-09-09T10:46:57Z</time>
      </trkpt>
      <trkpt lat="47.98854" lon="7.55053">
        <ele>231.39999389648</ele>
        <time>2019-09-09T10:47:05Z</time>
      </trkpt>
      <trkpt lat="47.98808" lon="7.5506">
        <ele>231.19999694824</ele>
        <time>2019-09-09T10:47:14Z</time>
      </trkpt>
      <trkpt lat="47.98773" lon="7.55063">
        <ele>231.19999694824</ele>
        <time>2019-09-09T10:47:21Z</time>
      </trkpt>
      <trkpt lat="47.98738" lon="7.55069">
        <ele>230.80000305176</ele>
        <time>2019-09-09T10:47:28Z</time>
      </trkpt>
      <trkpt lat="47.98703" lon="7.55074">
        <ele>230.60000610352</ele>
        <time>2019-09-09T10:47:35Z</time>
      </trkpt>
      <trkpt lat="47.98665" lon="7.55078">
        <ele>230.39999389648</ele>
        <time>2019-09-09T10:47:42Z</time>
      </trkpt>
      <trkpt lat="47.9863" lon="7.55082">
        <ele>230.19999694824</ele>
        <time>2019-09-09T10:47:48Z</time>
      </trkpt>
      <trkpt lat="47.98572" lon="7.55088">
        <ele>230</ele>
        <time>2019-09-09T10:47:58Z</time>
      </trkpt>
      <trkpt lat="47.98567" lon="7.55089">
        <ele>230</ele>
        <time>2019-09-09T10:47:59Z</time>
      </trkpt>
      <trkpt lat="47.98519" lon="7.55095">
        <ele>230</ele>
        <time>2019-09-09T10:48:08Z</time>
      </trkpt>
      <trkpt lat="47.98466" lon="7.55101">
        <ele>230.19999694824</ele>
        <time>2019-09-09T10:48:18Z</time>
      </trkpt>
      <trkpt lat="47.98414" lon="7.55108">
        <ele>230</ele>
        <time>2019-09-09T10:48:28Z</time>
      </trkpt>
      <trkpt lat="47.98358" lon="7.55115">
        <ele>230.19999694824</ele>
        <time>2019-09-09T10:48:39Z</time>
      </trkpt>
      <trkpt lat="47.98323" lon="7.55119">
        <ele>230.19999694824</ele>
        <time>2019-09-09T10:48:46Z</time>
      </trkpt>
      <trkpt lat="47.98281" lon="7.55122">
        <ele>230.19999694824</ele>
        <time>2019-09-09T10:48:55Z</time>
      </trkpt>
      <trkpt lat="47.98241" lon="7.55125">
        <ele>230.19999694824</ele>
        <time>2019-09-09T10:49:03Z</time>
      </trkpt>
      <trkpt lat="47.98231" lon="7.55126">
        <ele>230.19999694824</ele>
        <time>2019-09-09T10:49:05Z</time>
      </trkpt>
      <trkpt lat="47.98175" lon="7.55133">
        <ele>230.19999694824</ele>
        <time>2019-09-09T10:49:16Z</time>
      </trkpt>
      <trkpt lat="47.98164" lon="7.55134">
        <ele>230.19999694824</ele>
        <time>2019-09-09T10:49:18Z</time>
      </trkpt>
      <trkpt lat="47.98119" lon="7.55139">
        <ele>230.19999694824</ele>
        <time>2019-09-09T10:49:27Z</time>
      </trkpt>
      <trkpt lat="47.98113" lon="7.55138">
        <ele>230.19999694824</ele>
        <time>2019-09-09T10:49:30Z</time>
      </trkpt>
      <trkpt lat="47.98114" lon="7.55138">
        <ele>230.19999694824</ele>
        <time>2019-09-09T10:49:31Z</time>
      </trkpt>
      <trkpt lat="47.98112" lon="7.55139">
        <ele>230.19999694824</ele>
        <time>2019-09-09T10:50:36Z</time>
      </trkpt>
      <trkpt lat="47.98108" lon="7.5514">
        <ele>230.19999694824</ele>
        <time>2019-09-09T10:50:38Z</time>
      </trkpt>
      <trkpt lat="47.9809" lon="7.55141">
        <ele>230.19999694824</ele>
        <time>2019-09-09T10:50:43Z</time>
      </trkpt>
      <trkpt lat="47.98059" lon="7.55145">
        <ele>230.39999389648</ele>
        <time>2019-09-09T10:50:50Z</time>
      </trkpt>
      <trkpt lat="47.98013" lon="7.55151">
        <ele>230.39999389648</ele>
        <time>2019-09-09T10:51:00Z</time>
      </trkpt>
      <trkpt lat="47.97973" lon="7.55155">
        <ele>230.60000610352</ele>
        <time>2019-09-09T10:51:08Z</time>
      </trkpt>
      <trkpt lat="47.97934" lon="7.55161">
        <ele>230.60000610352</ele>
        <time>2019-09-09T10:51:16Z</time>
      </trkpt>
      <trkpt lat="47.97885" lon="7.55166">
        <ele>231</ele>
        <time>2019-09-09T10:51:26Z</time>
      </trkpt>
      <trkpt lat="47.97835" lon="7.55172">
        <ele>231.19999694824</ele>
        <time>2019-09-09T10:51:36Z</time>
      </trkpt>
      <trkpt lat="47.97781" lon="7.55179">
        <ele>231.19999694824</ele>
        <time>2019-09-09T10:51:47Z</time>
      </trkpt>
      <trkpt lat="47.97726" lon="7.55185">
        <ele>231</ele>
        <time>2019-09-09T10:51:58Z</time>
      </trkpt>
      <trkpt lat="47.97721" lon="7.55185">
        <ele>231</ele>
        <time>2019-09-09T10:51:59Z</time>
      </trkpt>
      <trkpt lat="47.97685" lon="7.55191">
        <ele>231</ele>
        <time>2019-09-09T10:52:07Z</time>
      </trkpt>
      <trkpt lat="47.97662" lon="7.55193">
        <ele>231.19999694824</ele>
        <time>2019-09-09T10:52:14Z</time>
      </trkpt>
      <trkpt lat="47.97629" lon="7.55196">
        <ele>231.39999389648</ele>
        <time>2019-09-09T10:52:21Z</time>
      </trkpt>
      <trkpt lat="47.97575" lon="7.55201">
        <ele>231.39999389648</ele>
        <time>2019-09-09T10:52:32Z</time>
      </trkpt>
      <trkpt lat="47.97526" lon="7.55207">
        <ele>231.19999694824</ele>
        <time>2019-09-09T10:52:42Z</time>
      </trkpt>
      <trkpt lat="47.9748" lon="7.55212">
        <ele>231.60000610352</ele>
        <time>2019-09-09T10:52:51Z</time>
      </trkpt>
      <trkpt lat="47.97434" lon="7.55216">
        <ele>231.80000305176</ele>
        <time>2019-09-09T10:53:00Z</time>
      </trkpt>
      <trkpt lat="47.97377" lon="7.55222">
        <ele>232</ele>
        <time>2019-09-09T10:53:11Z</time>
      </trkpt>
      <trkpt lat="47.97372" lon="7.55223">
        <ele>232</ele>
        <time>2019-09-09T10:53:12Z</time>
      </trkpt>
      <trkpt lat="47.97321" lon="7.55231">
        <ele>232.19999694824</ele>
        <time>2019-09-09T10:53:22Z</time>
      </trkpt>
      <trkpt lat="47.9727" lon="7.55237">
        <ele>232</ele>
        <time>2019-09-09T10:53:32Z</time>
      </trkpt>
      <trkpt lat="47.97224" lon="7.55238">
        <ele>232.19999694824</ele>
        <time>2019-09-09T10:53:41Z</time>
      </trkpt>
      <trkpt lat="47.97219" lon="7.55239">
        <ele>232.19999694824</ele>
        <time>2019-09-09T10:53:42Z</time>
      </trkpt>
      <trkpt lat="47.97197" lon="7.55242">
        <ele>232.19999694824</ele>
        <time>2019-09-09T10:53:47Z</time>
      </trkpt>
      <trkpt lat="47.97196" lon="7.55242">
        <ele>232.19999694824</ele>
        <time>2019-09-09T10:53:49Z</time>
      </trkpt>
      <trkpt lat="47.97194" lon="7.55243">
        <ele>232.19999694824</ele>
        <time>2019-09-09T10:54:05Z</time>
      </trkpt>
      <trkpt lat="47.9718" lon="7.55246">
        <ele>232</ele>
        <time>2019-09-09T10:54:10Z</time>
      </trkpt>
      <trkpt lat="47.97155" lon="7.55249">
        <ele>232.19999694824</ele>
        <time>2019-09-09T10:54:16Z</time>
      </trkpt>
      <trkpt lat="47.9715" lon="7.5525">
        <ele>232.19999694824</ele>
        <time>2019-09-09T10:54:17Z</time>
      </trkpt>
      <trkpt lat="47.97146" lon="7.5525">
        <ele>232.19999694824</ele>
        <time>2019-09-09T10:54:18Z</time>
      </trkpt>
      <trkpt lat="47.97121" lon="7.55252">
        <ele>232.19999694824</ele>
        <time>2019-09-09T10:54:23Z</time>
      </trkpt>
      <trkpt lat="47.97081" lon="7.55254">
        <ele>232.19999694824</ele>
        <time>2019-09-09T10:54:31Z</time>
      </trkpt>
      <trkpt lat="47.97035" lon="7.55256">
        <ele>232.39999389648</ele>
        <time>2019-09-09T10:54:40Z</time>
      </trkpt>
      <trkpt lat="47.96986" lon="7.55258">
        <ele>232.60000610352</ele>
        <time>2019-09-09T10:54:50Z</time>
      </trkpt>
      <trkpt lat="47.96941" lon="7.55258">
        <ele>232.60000610352</ele>
        <time>2019-09-09T10:54:59Z</time>
      </trkpt>
      <trkpt lat="47.96905" lon="7.55257">
        <ele>232.39999389648</ele>
        <time>2019-09-09T10:55:06Z</time>
      </trkpt>
      <trkpt lat="47.96859" lon="7.55255">
        <ele>232.19999694824</ele>
        <time>2019-09-09T10:55:15Z</time>
      </trkpt>
      <trkpt lat="47.96825" lon="7.55254">
        <ele>232.19999694824</ele>
        <time>2019-09-09T10:55:22Z</time>
      </trkpt>
      <trkpt lat="47.9679" lon="7.55252">
        <ele>232.39999389648</ele>
        <time>2019-09-09T10:55:29Z</time>
      </trkpt>
      <trkpt lat="47.96776" lon="7.5525">
        <ele>232.39999389648</ele>
        <time>2019-09-09T10:55:32Z</time>
      </trkpt>
      <trkpt lat="47.96761" lon="7.55246">
        <ele>232.39999389648</ele>
        <time>2019-09-09T10:55:35Z</time>
      </trkpt>
      <trkpt lat="47.96757" lon="7.55243">
        <ele>232.39999389648</ele>
        <time>2019-09-09T10:55:36Z</time>
      </trkpt>
      <trkpt lat="47.96753" lon="7.55233">
        <ele>232.39999389648</ele>
        <time>2019-09-09T10:55:38Z</time>
      </trkpt>
      <trkpt lat="47.96758" lon="7.55215">
        <ele>232.39999389648</ele>
        <time>2019-09-09T10:55:41Z</time>
      </trkpt>
      <trkpt lat="47.9676" lon="7.55208">
        <ele>232.39999389648</ele>
        <time>2019-09-09T10:55:42Z</time>
      </trkpt>
      <trkpt lat="47.96774" lon="7.55159">
        <ele>232.19999694824</ele>
        <time>2019-09-09T10:55:49Z</time>
      </trkpt>
      <trkpt lat="47.96796" lon="7.5509">
        <ele>232.19999694824</ele>
        <time>2019-09-09T10:55:59Z</time>
      </trkpt>
      <trkpt lat="47.96817" lon="7.55027">
        <ele>232.19999694824</ele>
        <time>2019-09-09T10:56:08Z</time>
      </trkpt>
      <trkpt lat="47.9683" lon="7.54983">
        <ele>232.19999694824</ele>
        <time>2019-09-09T10:56:14Z</time>
      </trkpt>
      <trkpt lat="47.96836" lon="7.5497">
        <ele>232.19999694824</ele>
        <time>2019-09-09T10:56:16Z</time>
      </trkpt>
      <trkpt lat="47.96853" lon="7.54913">
        <ele>232</ele>
        <time>2019-09-09T10:56:24Z</time>
      </trkpt>
      <trkpt lat="47.96861" lon="7.54887">
        <ele>232</ele>
        <time>2019-09-09T10:56:28Z</time>
      </trkpt>
      <trkpt lat="47.96866" lon="7.54868">
        <ele>231.80000305176</ele>
        <time>2019-09-09T10:56:31Z</time>
      </trkpt>
      <trkpt lat="47.96868" lon="7.54863">
        <ele>231.80000305176</ele>
        <time>2019-09-09T10:56:32Z</time>
      </trkpt>
      <trkpt lat="47.96876" lon="7.5483">
        <ele>231.80000305176</ele>
        <time>2019-09-09T10:56:37Z</time>
      </trkpt>
      <trkpt lat="47.96883" lon="7.54802">
        <ele>232</ele>
        <time>2019-09-09T10:56:41Z</time>
      </trkpt>
      <trkpt lat="47.96887" lon="7.5478">
        <ele>232.19999694824</ele>
        <time>2019-09-09T10:56:44Z</time>
      </trkpt>
      <trkpt lat="47.96896" lon="7.54712">
        <ele>232.19999694824</ele>
        <time>2019-09-09T10:56:53Z</time>
      </trkpt>
      <trkpt lat="47.96902" lon="7.54654">
        <ele>232</ele>
        <time>2019-09-09T10:57:01Z</time>
      </trkpt>
      <trkpt lat="47.96904" lon="7.54632">
        <ele>231.80000305176</ele>
        <time>2019-09-09T10:57:04Z</time>
      </trkpt>
      <trkpt lat="47.96906" lon="7.54618">
        <ele>231.80000305176</ele>
        <time>2019-09-09T10:57:06Z</time>
      </trkpt>
      <trkpt lat="47.96906" lon="7.5461">
        <ele>231.80000305176</ele>
        <time>2019-09-09T10:57:07Z</time>
      </trkpt>
      <trkpt lat="47.96908" lon="7.54526">
        <ele>231.60000610352</ele>
        <time>2019-09-09T10:57:18Z</time>
      </trkpt>
      <trkpt lat="47.96909" lon="7.54458">
        <ele>231.39999389648</ele>
        <time>2019-09-09T10:57:27Z</time>
      </trkpt>
      <trkpt lat="47.9691" lon="7.54443">
        <ele>231.19999694824</ele>
        <time>2019-09-09T10:57:29Z</time>
      </trkpt>
      <trkpt lat="47.9691" lon="7.54406">
        <ele>231.19999694824</ele>
        <time>2019-09-09T10:57:34Z</time>
      </trkpt>
      <trkpt lat="47.9691" lon="7.54398">
        <ele>231</ele>
        <time>2019-09-09T10:57:35Z</time>
      </trkpt>
      <trkpt lat="47.96911" lon="7.54339">
        <ele>231</ele>
        <time>2019-09-09T10:57:43Z</time>
      </trkpt>
      <trkpt lat="47.96912" lon="7.54308">
        <ele>230.80000305176</ele>
        <time>2019-09-09T10:57:47Z</time>
      </trkpt>
      <trkpt lat="47.96913" lon="7.54286">
        <ele>230.80000305176</ele>
        <time>2019-09-09T10:57:50Z</time>
      </trkpt>
      <trkpt lat="47.96914" lon="7.54266">
        <ele>230.80000305176</ele>
        <time>2019-09-09T10:57:53Z</time>
      </trkpt>
      <trkpt lat="47.96912" lon="7.54246">
        <ele>230.80000305176</ele>
        <time>2019-09-09T10:57:56Z</time>
      </trkpt>
      <trkpt lat="47.96917" lon="7.54224">
        <ele>230.60000610352</ele>
        <time>2019-09-09T10:58:00Z</time>
      </trkpt>
      <trkpt lat="47.96928" lon="7.54182">
        <ele>230.60000610352</ele>
        <time>2019-09-09T10:58:07Z</time>
      </trkpt>
      <trkpt lat="47.96931" lon="7.54169">
        <ele>230.60000610352</ele>
        <time>2019-09-09T10:58:09Z</time>
      </trkpt>
      <trkpt lat="47.9694" lon="7.54135">
        <ele>230.60000610352</ele>
        <time>2019-09-09T10:58:14Z</time>
      </trkpt>
      <trkpt lat="47.96942" lon="7.54128">
        <ele>230.60000610352</ele>
        <time>2019-09-09T10:58:15Z</time>
      </trkpt>
      <trkpt lat="47.9695" lon="7.54101">
        <ele>230.60000610352</ele>
        <time>2019-09-09T10:58:19Z</time>
      </trkpt>
      <trkpt lat="47.96962" lon="7.5405">
        <ele>230.80000305176</ele>
        <time>2019-09-09T10:58:27Z</time>
      </trkpt>
      <trkpt lat="47.96974" lon="7.54008">
        <ele>231.19999694824</ele>
        <time>2019-09-09T10:58:35Z</time>
      </trkpt>
      <trkpt lat="47.9698" lon="7.53977">
        <ele>232</ele>
        <time>2019-09-09T10:58:41Z</time>
      </trkpt>
      <trkpt lat="47.96983" lon="7.53962">
        <ele>232.39999389648</ele>
        <time>2019-09-09T10:58:44Z</time>
      </trkpt>
      <trkpt lat="47.96986" lon="7.53944">
        <ele>233.19999694824</ele>
        <time>2019-09-09T10:58:48Z</time>
      </trkpt>
      <trkpt lat="47.96989" lon="7.53937">
        <ele>233.60000610352</ele>
        <time>2019-09-09T10:58:51Z</time>
      </trkpt>
      <trkpt lat="47.96991" lon="7.53932">
        <ele>233.80000305176</ele>
        <time>2019-09-09T10:58:53Z</time>
      </trkpt>
      <trkpt lat="47.96992" lon="7.53926">
        <ele>234</ele>
        <time>2019-09-09T10:58:55Z</time>
      </trkpt>
      <trkpt lat="47.96989" lon="7.53919">
        <ele>234.39999389648</ele>
        <time>2019-09-09T10:58:57Z</time>
      </trkpt>
      <trkpt lat="47.96986" lon="7.53913">
        <ele>234.60000610352</ele>
        <time>2019-09-09T10:58:59Z</time>
      </trkpt>
      <trkpt lat="47.96986" lon="7.53907">
        <ele>234.60000610352</ele>
        <time>2019-09-09T10:59:01Z</time>
      </trkpt>
      <trkpt lat="47.96986" lon="7.53907">
        <ele>234.60000610352</ele>
        <time>2019-09-09T10:59:03Z</time>
      </trkpt>
      <trkpt lat="47.96986" lon="7.53905">
        <ele>234.60000610352</ele>
        <time>2019-09-09T10:59:44Z</time>
      </trkpt>
      <trkpt lat="47.96985" lon="7.53903">
        <ele>234.60000610352</ele>
        <time>2019-09-09T10:59:45Z</time>
      </trkpt>
      <trkpt lat="47.96982" lon="7.53891">
        <ele>234.80000305176</ele>
        <time>2019-09-09T10:59:49Z</time>
      </trkpt>
      <trkpt lat="47.96981" lon="7.53884">
        <ele>234.60000610352</ele>
        <time>2019-09-09T10:59:51Z</time>
      </trkpt>
      <trkpt lat="47.96978" lon="7.53863">
        <ele>234.60000610352</ele>
        <time>2019-09-09T10:59:57Z</time>
      </trkpt>
      <trkpt lat="47.96976" lon="7.53853">
        <ele>234.39999389648</ele>
        <time>2019-09-09T11:00:02Z</time>
      </trkpt>
      <trkpt lat="47.96976" lon="7.53852">
        <ele>234.39999389648</ele>
        <time>2019-09-09T11:00:03Z</time>
      </trkpt>
      <trkpt lat="47.96973" lon="7.53848">
        <ele>234.39999389648</ele>
        <time>2019-09-09T11:00:18Z</time>
      </trkpt>
      <trkpt lat="47.9697" lon="7.53842">
        <ele>234.39999389648</ele>
        <time>2019-09-09T11:00:20Z</time>
      </trkpt>
      <trkpt lat="47.96958" lon="7.53809">
        <ele>234.60000610352</ele>
        <time>2019-09-09T11:00:27Z</time>
      </trkpt>
      <trkpt lat="47.96942" lon="7.53778">
        <ele>234.60000610352</ele>
        <time>2019-09-09T11:00:34Z</time>
      </trkpt>
      <trkpt lat="47.9692" lon="7.53742">
        <ele>234.80000305176</ele>
        <time>2019-09-09T11:00:42Z</time>
      </trkpt>
      <trkpt lat="47.96903" lon="7.53712">
        <ele>235</ele>
        <time>2019-09-09T11:00:49Z</time>
      </trkpt>
      <trkpt lat="47.96882" lon="7.53689">
        <ele>235.19999694824</ele>
        <time>2019-09-09T11:00:56Z</time>
      </trkpt>
      <trkpt lat="47.96863" lon="7.53673">
        <ele>235.39999389648</ele>
        <time>2019-09-09T11:01:02Z</time>
      </trkpt>
      <trkpt lat="47.96856" lon="7.53669">
        <ele>235.39999389648</ele>
        <time>2019-09-09T11:01:04Z</time>
      </trkpt>
      <trkpt lat="47.96827" lon="7.53652">
        <ele>235.80000305176</ele>
        <time>2019-09-09T11:01:12Z</time>
      </trkpt>
      <trkpt lat="47.968" lon="7.53643">
        <ele>235.80000305176</ele>
        <time>2019-09-09T11:01:19Z</time>
      </trkpt>
      <trkpt lat="47.96765" lon="7.53641">
        <ele>235.80000305176</ele>
        <time>2019-09-09T11:01:27Z</time>
      </trkpt>
      <trkpt lat="47.96739" lon="7.53639">
        <ele>235.80000305176</ele>
        <time>2019-09-09T11:01:33Z</time>
      </trkpt>
      <trkpt lat="47.96735" lon="7.53639">
        <ele>235.80000305176</ele>
        <time>2019-09-09T11:01:34Z</time>
      </trkpt>
      <trkpt lat="47.96731" lon="7.5364">
        <ele>235.80000305176</ele>
        <time>2019-09-09T11:01:35Z</time>
      </trkpt>
      <trkpt lat="47.96713" lon="7.53638">
        <ele>235.80000305176</ele>
        <time>2019-09-09T11:01:39Z</time>
      </trkpt>
      <trkpt lat="47.96678" lon="7.53636">
        <ele>235.80000305176</ele>
        <time>2019-09-09T11:01:47Z</time>
      </trkpt>
      <trkpt lat="47.96643" lon="7.53634">
        <ele>236</ele>
        <time>2019-09-09T11:01:55Z</time>
      </trkpt>
      <trkpt lat="47.96608" lon="7.53631">
        <ele>236</ele>
        <time>2019-09-09T11:02:03Z</time>
      </trkpt>
      <trkpt lat="47.96565" lon="7.53624">
        <ele>236.39999389648</ele>
        <time>2019-09-09T11:02:13Z</time>
      </trkpt>
      <trkpt lat="47.96556" lon="7.53623">
        <ele>236.39999389648</ele>
        <time>2019-09-09T11:02:15Z</time>
      </trkpt>
      <trkpt lat="47.96512" lon="7.53614">
        <ele>236.60000610352</ele>
        <time>2019-09-09T11:02:25Z</time>
      </trkpt>
      <trkpt lat="47.96471" lon="7.53608">
        <ele>236.60000610352</ele>
        <time>2019-09-09T11:02:34Z</time>
      </trkpt>
      <trkpt lat="47.9645" lon="7.53607">
        <ele>236.60000610352</ele>
        <time>2019-09-09T11:02:39Z</time>
      </trkpt>
      <trkpt lat="47.96442" lon="7.53603">
        <ele>236.60000610352</ele>
        <time>2019-09-09T11:02:41Z</time>
      </trkpt>
      <trkpt lat="47.96424" lon="7.53598">
        <ele>236.60000610352</ele>
        <time>2019-09-09T11:02:46Z</time>
      </trkpt>
      <trkpt lat="47.96399" lon="7.53597">
        <ele>236.60000610352</ele>
        <time>2019-09-09T11:02:52Z</time>
      </trkpt>
      <trkpt lat="47.96359" lon="7.53599">
        <ele>236.39999389648</ele>
        <time>2019-09-09T11:03:01Z</time>
      </trkpt>
      <trkpt lat="47.96345" lon="7.53599">
        <ele>236.39999389648</ele>
        <time>2019-09-09T11:03:04Z</time>
      </trkpt>
      <trkpt lat="47.96332" lon="7.53603">
        <ele>236.39999389648</ele>
        <time>2019-09-09T11:03:07Z</time>
      </trkpt>
      <trkpt lat="47.96301" lon="7.53606">
        <ele>236.39999389648</ele>
        <time>2019-09-09T11:03:14Z</time>
      </trkpt>
      <trkpt lat="47.96265" lon="7.5361">
        <ele>236.39999389648</ele>
        <time>2019-09-09T11:03:22Z</time>
      </trkpt>
      <trkpt lat="47.96256" lon="7.53612">
        <ele>236.39999389648</ele>
        <time>2019-09-09T11:03:24Z</time>
      </trkpt>
      <trkpt lat="47.96243" lon="7.53618">
        <ele>236.39999389648</ele>
        <time>2019-09-09T11:03:27Z</time>
      </trkpt>
      <trkpt lat="47.96239" lon="7.5362">
        <ele>236.39999389648</ele>
        <time>2019-09-09T11:03:28Z</time>
      </trkpt>
      <trkpt lat="47.96198" lon="7.53644">
        <ele>236.60000610352</ele>
        <time>2019-09-09T11:03:38Z</time>
      </trkpt>
      <trkpt lat="47.96181" lon="7.53653">
        <ele>236.60000610352</ele>
        <time>2019-09-09T11:03:42Z</time>
      </trkpt>
      <trkpt lat="47.96167" lon="7.5366">
        <ele>236.60000610352</ele>
        <time>2019-09-09T11:03:45Z</time>
      </trkpt>
      <trkpt lat="47.96126" lon="7.53682">
        <ele>236.60000610352</ele>
        <time>2019-09-09T11:03:54Z</time>
      </trkpt>
      <trkpt lat="47.96087" lon="7.53701">
        <ele>236.80000305176</ele>
        <time>2019-09-09T11:04:02Z</time>
      </trkpt>
      <trkpt lat="47.96048" lon="7.53716">
        <ele>236.80000305176</ele>
        <time>2019-09-09T11:04:10Z</time>
      </trkpt>
      <trkpt lat="47.96009" lon="7.53732">
        <ele>236.80000305176</ele>
        <time>2019-09-09T11:04:18Z</time>
      </trkpt>
      <trkpt lat="47.95973" lon="7.53746">
        <ele>236.60000610352</ele>
        <time>2019-09-09T11:04:26Z</time>
      </trkpt>
      <trkpt lat="47.95935" lon="7.5376">
        <ele>236.39999389648</ele>
        <time>2019-09-09T11:04:34Z</time>
      </trkpt>
      <trkpt lat="47.95885" lon="7.53778">
        <ele>236.39999389648</ele>
        <time>2019-09-09T11:04:44Z</time>
      </trkpt>
      <trkpt lat="47.95846" lon="7.53792">
        <ele>236.60000610352</ele>
        <time>2019-09-09T11:04:52Z</time>
      </trkpt>
      <trkpt lat="47.95811" lon="7.53803">
        <ele>236.80000305176</ele>
        <time>2019-09-09T11:04:59Z</time>
      </trkpt>
      <trkpt lat="47.95772" lon="7.53805">
        <ele>237.19999694824</ele>
        <time>2019-09-09T11:05:07Z</time>
      </trkpt>
      <trkpt lat="47.95727" lon="7.53799">
        <ele>237.39999389648</ele>
        <time>2019-09-09T11:05:16Z</time>
      </trkpt>
      <trkpt lat="47.95703" lon="7.53795">
        <ele>237.39999389648</ele>
        <time>2019-09-09T11:05:21Z</time>
      </trkpt>
      <trkpt lat="47.95684" lon="7.5379">
        <ele>237.39999389648</ele>
        <time>2019-09-09T11:05:25Z</time>
      </trkpt>
      <trkpt lat="47.95646" lon="7.53782">
        <ele>237.80000305176</ele>
        <time>2019-09-09T11:05:33Z</time>
      </trkpt>
      <trkpt lat="47.95611" lon="7.53775">
        <ele>238</ele>
        <time>2019-09-09T11:05:40Z</time>
      </trkpt>
      <trkpt lat="47.95582" lon="7.5377">
        <ele>238.19999694824</ele>
        <time>2019-09-09T11:05:46Z</time>
      </trkpt>
      <trkpt lat="47.95542" lon="7.53762">
        <ele>238.19999694824</ele>
        <time>2019-09-09T11:05:54Z</time>
      </trkpt>
      <trkpt lat="47.95527" lon="7.53759">
        <ele>238.19999694824</ele>
        <time>2019-09-09T11:05:57Z</time>
      </trkpt>
      <trkpt lat="47.95495" lon="7.53754">
        <ele>238.19999694824</ele>
        <time>2019-09-09T11:06:03Z</time>
      </trkpt>
      <trkpt lat="47.95454" lon="7.53747">
        <ele>238.19999694824</ele>
        <time>2019-09-09T11:06:11Z</time>
      </trkpt>
      <trkpt lat="47.95417" lon="7.53742">
        <ele>238.19999694824</ele>
        <time>2019-09-09T11:06:19Z</time>
      </trkpt>
      <trkpt lat="47.95377" lon="7.5374">
        <ele>238.60000610352</ele>
        <time>2019-09-09T11:06:27Z</time>
      </trkpt>
      <trkpt lat="47.95367" lon="7.53741">
        <ele>238.60000610352</ele>
        <time>2019-09-09T11:06:29Z</time>
      </trkpt>
      <trkpt lat="47.95338" lon="7.53742">
        <ele>239</ele>
        <time>2019-09-09T11:06:35Z</time>
      </trkpt>
      <trkpt lat="47.95303" lon="7.53744">
        <ele>239.19999694824</ele>
        <time>2019-09-09T11:06:42Z</time>
      </trkpt>
      <trkpt lat="47.95265" lon="7.53748">
        <ele>239.19999694824</ele>
        <time>2019-09-09T11:06:50Z</time>
      </trkpt>
      <trkpt lat="47.95226" lon="7.53751">
        <ele>239</ele>
        <time>2019-09-09T11:06:58Z</time>
      </trkpt>
      <trkpt lat="47.95181" lon="7.53754">
        <ele>239</ele>
        <time>2019-09-09T11:07:07Z</time>
      </trkpt>
      <trkpt lat="47.95142" lon="7.53755">
        <ele>239</ele>
        <time>2019-09-09T11:07:15Z</time>
      </trkpt>
      <trkpt lat="47.95092" lon="7.53744">
        <ele>239</ele>
        <time>2019-09-09T11:07:25Z</time>
      </trkpt>
      <trkpt lat="47.9505" lon="7.53729">
        <ele>239.19999694824</ele>
        <time>2019-09-09T11:07:34Z</time>
      </trkpt>
      <trkpt lat="47.95041" lon="7.53724">
        <ele>239.19999694824</ele>
        <time>2019-09-09T11:07:36Z</time>
      </trkpt>
      <trkpt lat="47.95018" lon="7.53714">
        <ele>239.60000610352</ele>
        <time>2019-09-09T11:07:41Z</time>
      </trkpt>
      <trkpt lat="47.95008" lon="7.5371">
        <ele>239.60000610352</ele>
        <time>2019-09-09T11:07:43Z</time>
      </trkpt>
      <trkpt lat="47.94999" lon="7.53706">
        <ele>239.60000610352</ele>
        <time>2019-09-09T11:07:45Z</time>
      </trkpt>
      <trkpt lat="47.94984" lon="7.53701">
        <ele>239.60000610352</ele>
        <time>2019-09-09T11:07:48Z</time>
      </trkpt>
      <trkpt lat="47.94949" lon="7.53694">
        <ele>239.19999694824</ele>
        <time>2019-09-09T11:07:54Z</time>
      </trkpt>
      <trkpt lat="47.94932" lon="7.53695">
        <ele>238.60000610352</ele>
        <time>2019-09-09T11:07:57Z</time>
      </trkpt>
      <trkpt lat="47.94923" lon="7.53696">
        <ele>237.80000305176</ele>
        <time>2019-09-09T11:07:59Z</time>
      </trkpt>
      <trkpt lat="47.94918" lon="7.53696">
        <ele>237.39999389648</ele>
        <time>2019-09-09T11:08:00Z</time>
      </trkpt>
      <trkpt lat="47.9489" lon="7.537">
        <ele>237</ele>
        <time>2019-09-09T11:08:06Z</time>
      </trkpt>
      <trkpt lat="47.94847" lon="7.53708">
        <ele>237</ele>
        <time>2019-09-09T11:08:15Z</time>
      </trkpt>
      <trkpt lat="47.94794" lon="7.53728">
        <ele>237</ele>
        <time>2019-09-09T11:08:26Z</time>
      </trkpt>
      <trkpt lat="47.94766" lon="7.53744">
        <ele>237.19999694824</ele>
        <time>2019-09-09T11:08:32Z</time>
      </trkpt>
      <trkpt lat="47.94725" lon="7.53771">
        <ele>237.19999694824</ele>
        <time>2019-09-09T11:08:41Z</time>
      </trkpt>
      <trkpt lat="47.94688" lon="7.53804">
        <ele>237.60000610352</ele>
        <time>2019-09-09T11:08:50Z</time>
      </trkpt>
      <trkpt lat="47.94659" lon="7.53839">
        <ele>238</ele>
        <time>2019-09-09T11:08:58Z</time>
      </trkpt>
      <trkpt lat="47.94632" lon="7.53881">
        <ele>238</ele>
        <time>2019-09-09T11:09:06Z</time>
      </trkpt>
      <trkpt lat="47.94618" lon="7.53905">
        <ele>238</ele>
        <time>2019-09-09T11:09:10Z</time>
      </trkpt>
      <trkpt lat="47.94607" lon="7.53929">
        <ele>238</ele>
        <time>2019-09-09T11:09:14Z</time>
      </trkpt>
      <trkpt lat="47.94604" lon="7.53936">
        <ele>238</ele>
        <time>2019-09-09T11:09:15Z</time>
      </trkpt>
      <trkpt lat="47.94598" lon="7.53956">
        <ele>238</ele>
        <time>2019-09-09T11:09:18Z</time>
      </trkpt>
      <trkpt lat="47.94596" lon="7.53963">
        <ele>238</ele>
        <time>2019-09-09T11:09:19Z</time>
      </trkpt>
      <trkpt lat="47.94588" lon="7.53986">
        <ele>237.39999389648</ele>
        <time>2019-09-09T11:09:23Z</time>
      </trkpt>
      <trkpt lat="47.94584" lon="7.53997">
        <ele>237.39999389648</ele>
        <time>2019-09-09T11:09:25Z</time>
      </trkpt>
      <trkpt lat="47.94578" lon="7.54018">
        <ele>237.39999389648</ele>
        <time>2019-09-09T11:09:30Z</time>
      </trkpt>
      <trkpt lat="47.94578" lon="7.54018">
        <ele>237.39999389648</ele>
        <time>2019-09-09T11:09:32Z</time>
      </trkpt>
      <trkpt lat="47.94576" lon="7.54021">
        <ele>238</ele>
        <time>2019-09-09T11:09:54Z</time>
      </trkpt>
      <trkpt lat="47.94575" lon="7.54023">
        <ele>238</ele>
        <time>2019-09-09T11:09:55Z</time>
      </trkpt>
      <trkpt lat="47.94569" lon="7.54035">
        <ele>238</ele>
        <time>2019-09-09T11:09:58Z</time>
      </trkpt>
      <trkpt lat="47.94564" lon="7.54045">
        <ele>238</ele>
        <time>2019-09-09T11:10:00Z</time>
      </trkpt>
      <trkpt lat="47.9454" lon="7.54086">
        <ele>238</ele>
        <time>2019-09-09T11:10:08Z</time>
      </trkpt>
      <trkpt lat="47.94503" lon="7.54137">
        <ele>237.60000610352</ele>
        <time>2019-09-09T11:10:18Z</time>
      </trkpt>
      <trkpt lat="47.94477" lon="7.54173">
        <ele>236.80000305176</ele>
        <time>2019-09-09T11:10:25Z</time>
      </trkpt>
      <trkpt lat="47.94436" lon="7.54231">
        <ele>236.60000610352</ele>
        <time>2019-09-09T11:10:36Z</time>
      </trkpt>
      <trkpt lat="47.94424" lon="7.54245">
        <ele>236.60000610352</ele>
        <time>2019-09-09T11:10:39Z</time>
      </trkpt>
      <trkpt lat="47.94416" lon="7.54249">
        <ele>236.60000610352</ele>
        <time>2019-09-09T11:10:41Z</time>
      </trkpt>
      <trkpt lat="47.94407" lon="7.54246">
        <ele>236.60000610352</ele>
        <time>2019-09-09T11:10:43Z</time>
      </trkpt>
      <trkpt lat="47.94398" lon="7.54242">
        <ele>236.60000610352</ele>
        <time>2019-09-09T11:10:45Z</time>
      </trkpt>
      <trkpt lat="47.94357" lon="7.54221">
        <ele>236.60000610352</ele>
        <time>2019-09-09T11:10:54Z</time>
      </trkpt>
      <trkpt lat="47.94319" lon="7.54202">
        <ele>236.80000305176</ele>
        <time>2019-09-09T11:11:02Z</time>
      </trkpt>
      <trkpt lat="47.94282" lon="7.54183">
        <ele>237</ele>
        <time>2019-09-09T11:11:10Z</time>
      </trkpt>
      <trkpt lat="47.94234" lon="7.5416">
        <ele>237.19999694824</ele>
        <time>2019-09-09T11:11:20Z</time>
      </trkpt>
      <trkpt lat="47.94196" lon="7.54142">
        <ele>237.39999389648</ele>
        <time>2019-09-09T11:11:28Z</time>
      </trkpt>
      <trkpt lat="47.94158" lon="7.54124">
        <ele>237.39999389648</ele>
        <time>2019-09-09T11:11:36Z</time>
      </trkpt>
      <trkpt lat="47.9412" lon="7.54106">
        <ele>237.39999389648</ele>
        <time>2019-09-09T11:11:44Z</time>
      </trkpt>
      <trkpt lat="47.94082" lon="7.54088">
        <ele>237.39999389648</ele>
        <time>2019-09-09T11:11:52Z</time>
      </trkpt>
      <trkpt lat="47.94034" lon="7.54065">
        <ele>237.39999389648</ele>
        <time>2019-09-09T11:12:02Z</time>
      </trkpt>
      <trkpt lat="47.94005" lon="7.54052">
        <ele>237.39999389648</ele>
        <time>2019-09-09T11:12:08Z</time>
      </trkpt>
      <trkpt lat="47.93981" lon="7.54041">
        <ele>237.80000305176</ele>
        <time>2019-09-09T11:12:13Z</time>
      </trkpt>
      <trkpt lat="47.93972" lon="7.54035">
        <ele>237.80000305176</ele>
        <time>2019-09-09T11:12:15Z</time>
      </trkpt>
      <trkpt lat="47.93935" lon="7.54018">
        <ele>238</ele>
        <time>2019-09-09T11:12:23Z</time>
      </trkpt>
      <trkpt lat="47.93902" lon="7.54001">
        <ele>238.19999694824</ele>
        <time>2019-09-09T11:12:31Z</time>
      </trkpt>
      <trkpt lat="47.93874" lon="7.53989">
        <ele>238.39999389648</ele>
        <time>2019-09-09T11:12:39Z</time>
      </trkpt>
      <trkpt lat="47.93851" lon="7.53977">
        <ele>238.80000305176</ele>
        <time>2019-09-09T11:12:45Z</time>
      </trkpt>
      <trkpt lat="47.93816" lon="7.53961">
        <ele>238.80000305176</ele>
        <time>2019-09-09T11:12:53Z</time>
      </trkpt>
      <trkpt lat="47.93773" lon="7.5394">
        <ele>239</ele>
        <time>2019-09-09T11:13:02Z</time>
      </trkpt>
      <trkpt lat="47.9373" lon="7.5392">
        <ele>239</ele>
        <time>2019-09-09T11:13:11Z</time>
      </trkpt>
      <trkpt lat="47.9368" lon="7.53896">
        <ele>239.19999694824</ele>
        <time>2019-09-09T11:13:21Z</time>
      </trkpt>
      <trkpt lat="47.93634" lon="7.53874">
        <ele>239.19999694824</ele>
        <time>2019-09-09T11:13:31Z</time>
      </trkpt>
      <trkpt lat="47.93596" lon="7.53855">
        <ele>239.60000610352</ele>
        <time>2019-09-09T11:13:39Z</time>
      </trkpt>
      <trkpt lat="47.93586" lon="7.5385">
        <ele>239.80000305176</ele>
        <time>2019-09-09T11:13:41Z</time>
      </trkpt>
      <trkpt lat="47.93562" lon="7.53839">
        <ele>239.80000305176</ele>
        <time>2019-09-09T11:13:46Z</time>
      </trkpt>
      <trkpt lat="47.93533" lon="7.53825">
        <ele>239.80000305176</ele>
        <time>2019-09-09T11:13:53Z</time>
      </trkpt>
      <trkpt lat="47.93512" lon="7.53814">
        <ele>239.80000305176</ele>
        <time>2019-09-09T11:13:59Z</time>
      </trkpt>
      <trkpt lat="47.93476" lon="7.53798">
        <ele>239.60000610352</ele>
        <time>2019-09-09T11:14:07Z</time>
      </trkpt>
      <trkpt lat="47.93429" lon="7.53777">
        <ele>239.60000610352</ele>
        <time>2019-09-09T11:14:17Z</time>
      </trkpt>
      <trkpt lat="47.93396" lon="7.53761">
        <ele>239.80000305176</ele>
        <time>2019-09-09T11:14:24Z</time>
      </trkpt>
      <trkpt lat="47.93368" lon="7.53746">
        <ele>239.80000305176</ele>
        <time>2019-09-09T11:14:30Z</time>
      </trkpt>
      <trkpt lat="47.93337" lon="7.53731">
        <ele>239.80000305176</ele>
        <time>2019-09-09T11:14:37Z</time>
      </trkpt>
      <trkpt lat="47.93305" lon="7.53716">
        <ele>240</ele>
        <time>2019-09-09T11:14:44Z</time>
      </trkpt>
      <trkpt lat="47.93264" lon="7.53697">
        <ele>240.19999694824</ele>
        <time>2019-09-09T11:14:53Z</time>
      </trkpt>
      <trkpt lat="47.9326" lon="7.53696">
        <ele>240.19999694824</ele>
        <time>2019-09-09T11:14:54Z</time>
      </trkpt>
      <trkpt lat="47.9325" lon="7.53691">
        <ele>240.39999389648</ele>
        <time>2019-09-09T11:14:57Z</time>
      </trkpt>
      <trkpt lat="47.93247" lon="7.53691">
        <ele>240.39999389648</ele>
        <time>2019-09-09T11:14:58Z</time>
      </trkpt>
      <trkpt lat="47.9324" lon="7.53685">
        <ele>240.39999389648</ele>
        <time>2019-09-09T11:15:02Z</time>
      </trkpt>
      <trkpt lat="47.93238" lon="7.53684">
        <ele>240.39999389648</ele>
        <time>2019-09-09T11:15:03Z</time>
      </trkpt>
      <trkpt lat="47.93234" lon="7.53683">
        <ele>240.39999389648</ele>
        <time>2019-09-09T11:15:05Z</time>
      </trkpt>
      <trkpt lat="47.93229" lon="7.53683">
        <ele>240.60000610352</ele>
        <time>2019-09-09T11:15:07Z</time>
      </trkpt>
      <trkpt lat="47.9321" lon="7.53673">
        <ele>240.60000610352</ele>
        <time>2019-09-09T11:15:12Z</time>
      </trkpt>
      <trkpt lat="47.93174" lon="7.53655">
        <ele>240.60000610352</ele>
        <time>2019-09-09T11:15:20Z</time>
      </trkpt>
      <trkpt lat="47.93135" lon="7.53638">
        <ele>240.60000610352</ele>
        <time>2019-09-09T11:15:28Z</time>
      </trkpt>
      <trkpt lat="47.93097" lon="7.53619">
        <ele>240.60000610352</ele>
        <time>2019-09-09T11:15:36Z</time>
      </trkpt>
      <trkpt lat="47.93054" lon="7.53599">
        <ele>240.60000610352</ele>
        <time>2019-09-09T11:15:45Z</time>
      </trkpt>
      <trkpt lat="47.93049" lon="7.53597">
        <ele>240.60000610352</ele>
        <time>2019-09-09T11:15:46Z</time>
      </trkpt>
      <trkpt lat="47.93031" lon="7.53588">
        <ele>240.39999389648</ele>
        <time>2019-09-09T11:15:50Z</time>
      </trkpt>
      <trkpt lat="47.93026" lon="7.53586">
        <ele>240.39999389648</ele>
        <time>2019-09-09T11:15:51Z</time>
      </trkpt>
      <trkpt lat="47.93014" lon="7.5358">
        <ele>240.39999389648</ele>
        <time>2019-09-09T11:15:54Z</time>
      </trkpt>
      <trkpt lat="47.93002" lon="7.53573">
        <ele>240.39999389648</ele>
        <time>2019-09-09T11:15:57Z</time>
      </trkpt>
      <trkpt lat="47.92996" lon="7.53571">
        <ele>240.39999389648</ele>
        <time>2019-09-09T11:15:59Z</time>
      </trkpt>
      <trkpt lat="47.92991" lon="7.5357">
        <ele>240.60000610352</ele>
        <time>2019-09-09T11:16:01Z</time>
      </trkpt>
      <trkpt lat="47.92988" lon="7.53568">
        <ele>240.60000610352</ele>
        <time>2019-09-09T11:16:03Z</time>
      </trkpt>
      <trkpt lat="47.92984" lon="7.53565">
        <ele>240.60000610352</ele>
        <time>2019-09-09T11:16:05Z</time>
      </trkpt>
      <trkpt lat="47.92969" lon="7.5356">
        <ele>240.80000305176</ele>
        <time>2019-09-09T11:16:10Z</time>
      </trkpt>
      <trkpt lat="47.92966" lon="7.53559">
        <ele>240.80000305176</ele>
        <time>2019-09-09T11:16:11Z</time>
      </trkpt>
      <trkpt lat="47.9296" lon="7.53554">
        <ele>240.80000305176</ele>
        <time>2019-09-09T11:16:13Z</time>
      </trkpt>
      <trkpt lat="47.92935" lon="7.53542">
        <ele>240.80000305176</ele>
        <time>2019-09-09T11:16:19Z</time>
      </trkpt>
      <trkpt lat="47.92926" lon="7.53538">
        <ele>240.80000305176</ele>
        <time>2019-09-09T11:16:21Z</time>
      </trkpt>
      <trkpt lat="47.92916" lon="7.53533">
        <ele>240.80000305176</ele>
        <time>2019-09-09T11:16:23Z</time>
      </trkpt>
      <trkpt lat="47.92907" lon="7.53529">
        <ele>240.80000305176</ele>
        <time>2019-09-09T11:16:25Z</time>
      </trkpt>
      <trkpt lat="47.92865" lon="7.53509">
        <ele>240.60000610352</ele>
        <time>2019-09-09T11:16:34Z</time>
      </trkpt>
      <trkpt lat="47.92831" lon="7.53494">
        <ele>240.80000305176</ele>
        <time>2019-09-09T11:16:41Z</time>
      </trkpt>
      <trkpt lat="47.92826" lon="7.53492">
        <ele>240.80000305176</ele>
        <time>2019-09-09T11:16:42Z</time>
      </trkpt>
      <trkpt lat="47.92812" lon="7.53485">
        <ele>241</ele>
        <time>2019-09-09T11:16:45Z</time>
      </trkpt>
      <trkpt lat="47.92804" lon="7.53481">
        <ele>241</ele>
        <time>2019-09-09T11:16:47Z</time>
      </trkpt>
      <trkpt lat="47.92791" lon="7.53478">
        <ele>241</ele>
        <time>2019-09-09T11:16:51Z</time>
      </trkpt>
      <trkpt lat="47.92788" lon="7.53476">
        <ele>241</ele>
        <time>2019-09-09T11:16:52Z</time>
      </trkpt>
      <trkpt lat="47.92773" lon="7.5347">
        <ele>241</ele>
        <time>2019-09-09T11:16:57Z</time>
      </trkpt>
      <trkpt lat="47.92756" lon="7.53464">
        <ele>241</ele>
        <time>2019-09-09T11:17:02Z</time>
      </trkpt>
      <trkpt lat="47.92726" lon="7.53454">
        <ele>240.80000305176</ele>
        <time>2019-09-09T11:17:09Z</time>
      </trkpt>
      <trkpt lat="47.92689" lon="7.53442">
        <ele>240.80000305176</ele>
        <time>2019-09-09T11:17:17Z</time>
      </trkpt>
      <trkpt lat="47.92667" lon="7.53434">
        <ele>240.80000305176</ele>
        <time>2019-09-09T11:17:22Z</time>
      </trkpt>
      <trkpt lat="47.92662" lon="7.53434">
        <ele>240.80000305176</ele>
        <time>2019-09-09T11:17:23Z</time>
      </trkpt>
      <trkpt lat="47.92649" lon="7.53429">
        <ele>240.80000305176</ele>
        <time>2019-09-09T11:17:26Z</time>
      </trkpt>
      <trkpt lat="47.9264" lon="7.53427">
        <ele>240.80000305176</ele>
        <time>2019-09-09T11:17:28Z</time>
      </trkpt>
      <trkpt lat="47.92606" lon="7.53418">
        <ele>241.19999694824</ele>
        <time>2019-09-09T11:17:35Z</time>
      </trkpt>
      <trkpt lat="47.92562" lon="7.53407">
        <ele>241</ele>
        <time>2019-09-09T11:17:44Z</time>
      </trkpt>
      <trkpt lat="47.92524" lon="7.53396">
        <ele>241.39999389648</ele>
        <time>2019-09-09T11:17:52Z</time>
      </trkpt>
      <trkpt lat="47.92487" lon="7.53385">
        <ele>241.60000610352</ele>
        <time>2019-09-09T11:18:00Z</time>
      </trkpt>
      <trkpt lat="47.92447" lon="7.53375">
        <ele>241.60000610352</ele>
        <time>2019-09-09T11:18:09Z</time>
      </trkpt>
      <trkpt lat="47.92425" lon="7.5337">
        <ele>241.80000305176</ele>
        <time>2019-09-09T11:18:14Z</time>
      </trkpt>
      <trkpt lat="47.92411" lon="7.53366">
        <ele>241.80000305176</ele>
        <time>2019-09-09T11:18:17Z</time>
      </trkpt>
      <trkpt lat="47.92406" lon="7.53365">
        <ele>241.80000305176</ele>
        <time>2019-09-09T11:18:18Z</time>
      </trkpt>
      <trkpt lat="47.92358" lon="7.53352">
        <ele>241.80000305176</ele>
        <time>2019-09-09T11:18:28Z</time>
      </trkpt>
      <trkpt lat="47.92333" lon="7.53346">
        <ele>241.80000305176</ele>
        <time>2019-09-09T11:18:33Z</time>
      </trkpt>
      <trkpt lat="47.92324" lon="7.53343">
        <ele>241.80000305176</ele>
        <time>2019-09-09T11:18:35Z</time>
      </trkpt>
      <trkpt lat="47.92285" lon="7.53333">
        <ele>241.80000305176</ele>
        <time>2019-09-09T11:18:43Z</time>
      </trkpt>
      <trkpt lat="47.92246" lon="7.53323">
        <ele>241.80000305176</ele>
        <time>2019-09-09T11:18:51Z</time>
      </trkpt>
      <trkpt lat="47.92204" lon="7.53311">
        <ele>241.80000305176</ele>
        <time>2019-09-09T11:19:00Z</time>
      </trkpt>
      <trkpt lat="47.92177" lon="7.53304">
        <ele>241.80000305176</ele>
        <time>2019-09-09T11:19:06Z</time>
      </trkpt>
      <trkpt lat="47.92158" lon="7.53298">
        <ele>241.80000305176</ele>
        <time>2019-09-09T11:19:11Z</time>
      </trkpt>
      <trkpt lat="47.92154" lon="7.53297">
        <ele>241.80000305176</ele>
        <time>2019-09-09T11:19:16Z</time>
      </trkpt>
      <trkpt lat="47.92142" lon="7.53294">
        <ele>242</ele>
        <time>2019-09-09T11:19:20Z</time>
      </trkpt>
      <trkpt lat="47.92111" lon="7.53286">
        <ele>242</ele>
        <time>2019-09-09T11:19:27Z</time>
      </trkpt>
      <trkpt lat="47.92083" lon="7.53279">
        <ele>242.19999694824</ele>
        <time>2019-09-09T11:19:33Z</time>
      </trkpt>
      <trkpt lat="47.9204" lon="7.53267">
        <ele>242.80000305176</ele>
        <time>2019-09-09T11:19:42Z</time>
      </trkpt>
      <trkpt lat="47.92025" lon="7.53263">
        <ele>242.80000305176</ele>
        <time>2019-09-09T11:19:45Z</time>
      </trkpt>
      <trkpt lat="47.91991" lon="7.53255">
        <ele>243</ele>
        <time>2019-09-09T11:19:52Z</time>
      </trkpt>
      <trkpt lat="47.91953" lon="7.53246">
        <ele>243.19999694824</ele>
        <time>2019-09-09T11:20:00Z</time>
      </trkpt>
      <trkpt lat="47.91917" lon="7.53238">
        <ele>243.39999389648</ele>
        <time>2019-09-09T11:20:07Z</time>
      </trkpt>
      <trkpt lat="47.91867" lon="7.53223">
        <ele>243.60000610352</ele>
        <time>2019-09-09T11:20:17Z</time>
      </trkpt>
      <trkpt lat="47.91822" lon="7.53211">
        <ele>243.60000610352</ele>
        <time>2019-09-09T11:20:26Z</time>
      </trkpt>
      <trkpt lat="47.91791" lon="7.53203">
        <ele>243.80000305176</ele>
        <time>2019-09-09T11:20:33Z</time>
      </trkpt>
      <trkpt lat="47.91785" lon="7.532">
        <ele>243.80000305176</ele>
        <time>2019-09-09T11:20:36Z</time>
      </trkpt>
      <trkpt lat="47.91785" lon="7.53199">
        <ele>243.60000610352</ele>
        <time>2019-09-09T11:20:37Z</time>
      </trkpt>
      <trkpt lat="47.91778" lon="7.53195">
        <ele>243.80000305176</ele>
        <time>2019-09-09T11:20:41Z</time>
      </trkpt>
      <trkpt lat="47.91775" lon="7.53195">
        <ele>244</ele>
        <time>2019-09-09T11:20:42Z</time>
      </trkpt>
      <trkpt lat="47.9176" lon="7.53194">
        <ele>244.19999694824</ele>
        <time>2019-09-09T11:20:46Z</time>
      </trkpt>
      <trkpt lat="47.91724" lon="7.53185">
        <ele>244.19999694824</ele>
        <time>2019-09-09T11:20:54Z</time>
      </trkpt>
      <trkpt lat="47.91685" lon="7.53174">
        <ele>244.19999694824</ele>
        <time>2019-09-09T11:21:02Z</time>
      </trkpt>
      <trkpt lat="47.91648" lon="7.53164">
        <ele>244.19999694824</ele>
        <time>2019-09-09T11:21:10Z</time>
      </trkpt>
      <trkpt lat="47.9161" lon="7.53155">
        <ele>244</ele>
        <time>2019-09-09T11:21:18Z</time>
      </trkpt>
      <trkpt lat="47.91595" lon="7.53152">
        <ele>244</ele>
        <time>2019-09-09T11:21:21Z</time>
      </trkpt>
      <trkpt lat="47.91585" lon="7.5315">
        <ele>244</ele>
        <time>2019-09-09T11:21:23Z</time>
      </trkpt>
      <trkpt lat="47.91581" lon="7.53148">
        <ele>244</ele>
        <time>2019-09-09T11:21:24Z</time>
      </trkpt>
      <trkpt lat="47.91565" lon="7.53141">
        <ele>244</ele>
        <time>2019-09-09T11:21:28Z</time>
      </trkpt>
      <trkpt lat="47.91561" lon="7.53141">
        <ele>244</ele>
        <time>2019-09-09T11:21:29Z</time>
      </trkpt>
      <trkpt lat="47.91533" lon="7.53133">
        <ele>244</ele>
        <time>2019-09-09T11:21:35Z</time>
      </trkpt>
      <trkpt lat="47.91493" lon="7.53122">
        <ele>243.80000305176</ele>
        <time>2019-09-09T11:21:43Z</time>
      </trkpt>
      <trkpt lat="47.91451" lon="7.53106">
        <ele>243.60000610352</ele>
        <time>2019-09-09T11:21:51Z</time>
      </trkpt>
      <trkpt lat="47.91414" lon="7.531">
        <ele>243.39999389648</ele>
        <time>2019-09-09T11:21:58Z</time>
      </trkpt>
      <trkpt lat="47.91389" lon="7.53097">
        <ele>243.19999694824</ele>
        <time>2019-09-09T11:22:03Z</time>
      </trkpt>
      <trkpt lat="47.91385" lon="7.53095">
        <ele>243.19999694824</ele>
        <time>2019-09-09T11:22:04Z</time>
      </trkpt>
      <trkpt lat="47.91366" lon="7.5309">
        <ele>243.19999694824</ele>
        <time>2019-09-09T11:22:09Z</time>
      </trkpt>
      <trkpt lat="47.9135" lon="7.53085">
        <ele>243</ele>
        <time>2019-09-09T11:22:14Z</time>
      </trkpt>
      <trkpt lat="47.91337" lon="7.53081">
        <ele>243</ele>
        <time>2019-09-09T11:22:17Z</time>
      </trkpt>
      <trkpt lat="47.91327" lon="7.5308">
        <ele>243</ele>
        <time>2019-09-09T11:22:19Z</time>
      </trkpt>
      <trkpt lat="47.91312" lon="7.53077">
        <ele>243</ele>
        <time>2019-09-09T11:22:22Z</time>
      </trkpt>
      <trkpt lat="47.91296" lon="7.5307">
        <ele>243.19999694824</ele>
        <time>2019-09-09T11:22:25Z</time>
      </trkpt>
      <trkpt lat="47.91248" lon="7.53055">
        <ele>243</ele>
        <time>2019-09-09T11:22:34Z</time>
      </trkpt>
      <trkpt lat="47.9122" lon="7.53048">
        <ele>243</ele>
        <time>2019-09-09T11:22:40Z</time>
      </trkpt>
      <trkpt lat="47.91198" lon="7.53042">
        <ele>243</ele>
        <time>2019-09-09T11:22:46Z</time>
      </trkpt>
      <trkpt lat="47.91186" lon="7.5304">
        <ele>243.19999694824</ele>
        <time>2019-09-09T11:22:49Z</time>
      </trkpt>
      <trkpt lat="47.91173" lon="7.53035">
        <ele>243.39999389648</ele>
        <time>2019-09-09T11:22:52Z</time>
      </trkpt>
      <trkpt lat="47.91139" lon="7.53026">
        <ele>243.60000610352</ele>
        <time>2019-09-09T11:22:59Z</time>
      </trkpt>
      <trkpt lat="47.911" lon="7.53016">
        <ele>243.60000610352</ele>
        <time>2019-09-09T11:23:07Z</time>
      </trkpt>
      <trkpt lat="47.91071" lon="7.53008">
        <ele>243.60000610352</ele>
        <time>2019-09-09T11:23:13Z</time>
      </trkpt>
      <trkpt lat="47.91031" lon="7.52998">
        <ele>243.80000305176</ele>
        <time>2019-09-09T11:23:21Z</time>
      </trkpt>
      <trkpt lat="47.91002" lon="7.5299">
        <ele>244</ele>
        <time>2019-09-09T11:23:27Z</time>
      </trkpt>
      <trkpt lat="47.90986" lon="7.52988">
        <ele>244</ele>
        <time>2019-09-09T11:23:31Z</time>
      </trkpt>
      <trkpt lat="47.90983" lon="7.5299">
        <ele>244</ele>
        <time>2019-09-09T11:23:32Z</time>
      </trkpt>
      <trkpt lat="47.90979" lon="7.53002">
        <ele>244.19999694824</ele>
        <time>2019-09-09T11:23:35Z</time>
      </trkpt>
      <trkpt lat="47.9098" lon="7.53013">
        <ele>244.19999694824</ele>
        <time>2019-09-09T11:23:37Z</time>
      </trkpt>
      <trkpt lat="47.90981" lon="7.53025">
        <ele>244.19999694824</ele>
        <time>2019-09-09T11:23:39Z</time>
      </trkpt>
      <trkpt lat="47.90988" lon="7.53096">
        <ele>244.39999389648</ele>
        <time>2019-09-09T11:23:49Z</time>
      </trkpt>
      <trkpt lat="47.90997" lon="7.53176">
        <ele>244.39999389648</ele>
        <time>2019-09-09T11:24:00Z</time>
      </trkpt>
      <trkpt lat="47.91002" lon="7.53227">
        <ele>244.60000610352</ele>
        <time>2019-09-09T11:24:07Z</time>
      </trkpt>
      <trkpt lat="47.91005" lon="7.53256">
        <ele>244.60000610352</ele>
        <time>2019-09-09T11:24:11Z</time>
      </trkpt>
      <trkpt lat="47.91007" lon="7.53275">
        <ele>244.60000610352</ele>
        <time>2019-09-09T11:24:14Z</time>
      </trkpt>
      <trkpt lat="47.91011" lon="7.53311">
        <ele>244.39999389648</ele>
        <time>2019-09-09T11:24:20Z</time>
      </trkpt>
      <trkpt lat="47.91018" lon="7.53379">
        <ele>244.60000610352</ele>
        <time>2019-09-09T11:24:30Z</time>
      </trkpt>
      <trkpt lat="47.91024" lon="7.53435">
        <ele>244.60000610352</ele>
        <time>2019-09-09T11:24:38Z</time>
      </trkpt>
      <trkpt lat="47.91031" lon="7.53495">
        <ele>243.80000305176</ele>
        <time>2019-09-09T11:24:46Z</time>
      </trkpt>
      <trkpt lat="47.91037" lon="7.53565">
        <ele>243.39999389648</ele>
        <time>2019-09-09T11:24:55Z</time>
      </trkpt>
      <trkpt lat="47.91045" lon="7.53638">
        <ele>243.39999389648</ele>
        <time>2019-09-09T11:25:05Z</time>
      </trkpt>
      <trkpt lat="47.9105" lon="7.53687">
        <ele>243.39999389648</ele>
        <time>2019-09-09T11:25:12Z</time>
      </trkpt>
      <trkpt lat="47.9105" lon="7.53689">
        <ele>243.39999389648</ele>
        <time>2019-09-09T11:25:15Z</time>
      </trkpt>
      <trkpt lat="47.91048" lon="7.5369">
        <ele>243.39999389648</ele>
        <time>2019-09-09T11:49:32Z</time>
      </trkpt>
      <trkpt lat="47.91048" lon="7.53691">
        <ele>243.39999389648</ele>
        <time>2019-09-09T11:49:35Z</time>
      </trkpt>
      <trkpt lat="47.91049" lon="7.53691">
        <ele>243.60000610352</ele>
        <time>2019-09-09T11:49:38Z</time>
      </trkpt>
      <trkpt lat="47.9105" lon="7.5369">
        <ele>243.60000610352</ele>
        <time>2019-09-09T11:49:40Z</time>
      </trkpt>
      <trkpt lat="47.91052" lon="7.53689">
        <ele>243.39999389648</ele>
        <time>2019-09-09T11:50:40Z</time>
      </trkpt>
      <trkpt lat="47.91053" lon="7.5369">
        <ele>243.39999389648</ele>
        <time>2019-09-09T11:50:41Z</time>
      </trkpt>
      <trkpt lat="47.91053" lon="7.53699">
        <ele>243.39999389648</ele>
        <time>2019-09-09T11:50:45Z</time>
      </trkpt>
      <trkpt lat="47.91051" lon="7.53705">
        <ele>243.60000610352</ele>
        <time>2019-09-09T11:50:49Z</time>
      </trkpt>
      <trkpt lat="47.91053" lon="7.53723">
        <ele>243.60000610352</ele>
        <time>2019-09-09T11:50:54Z</time>
      </trkpt>
      <trkpt lat="47.91054" lon="7.5374">
        <ele>243.60000610352</ele>
        <time>2019-09-09T11:50:57Z</time>
      </trkpt>
      <trkpt lat="47.91055" lon="7.53752">
        <ele>243.60000610352</ele>
        <time>2019-09-09T11:50:59Z</time>
      </trkpt>
      <trkpt lat="47.9106" lon="7.53783">
        <ele>243.60000610352</ele>
        <time>2019-09-09T11:51:04Z</time>
      </trkpt>
      <trkpt lat="47.91061" lon="7.53797">
        <ele>243.39999389648</ele>
        <time>2019-09-09T11:51:06Z</time>
      </trkpt>
      <trkpt lat="47.91066" lon="7.53847">
        <ele>243.80000305176</ele>
        <time>2019-09-09T11:51:14Z</time>
      </trkpt>
      <trkpt lat="47.91068" lon="7.53874">
        <ele>243.80000305176</ele>
        <time>2019-09-09T11:51:19Z</time>
      </trkpt>
      <trkpt lat="47.91066" lon="7.53883">
        <ele>243.80000305176</ele>
        <time>2019-09-09T11:51:22Z</time>
      </trkpt>
      <trkpt lat="47.91063" lon="7.53884">
        <ele>244</ele>
        <time>2019-09-09T11:51:23Z</time>
      </trkpt>
      <trkpt lat="47.9105" lon="7.53883">
        <ele>244.19999694824</ele>
        <time>2019-09-09T11:51:28Z</time>
      </trkpt>
      <trkpt lat="47.91027" lon="7.5388">
        <ele>244.19999694824</ele>
        <time>2019-09-09T11:51:34Z</time>
      </trkpt>
      <trkpt lat="47.90995" lon="7.53876">
        <ele>244.39999389648</ele>
        <time>2019-09-09T11:51:41Z</time>
      </trkpt>
      <trkpt lat="47.90963" lon="7.53872">
        <ele>244.39999389648</ele>
        <time>2019-09-09T11:51:48Z</time>
      </trkpt>
      <trkpt lat="47.90926" lon="7.53868">
        <ele>244.39999389648</ele>
        <time>2019-09-09T11:51:56Z</time>
      </trkpt>
      <trkpt lat="47.90878" lon="7.53861">
        <ele>244.60000610352</ele>
        <time>2019-09-09T11:52:06Z</time>
      </trkpt>
      <trkpt lat="47.90825" lon="7.53855">
        <ele>245</ele>
        <time>2019-09-09T11:52:17Z</time>
      </trkpt>
      <trkpt lat="47.90797" lon="7.53851">
        <ele>245</ele>
        <time>2019-09-09T11:52:23Z</time>
      </trkpt>
      <trkpt lat="47.90788" lon="7.5385">
        <ele>245</ele>
        <time>2019-09-09T11:52:25Z</time>
      </trkpt>
      <trkpt lat="47.90783" lon="7.5385">
        <ele>245</ele>
        <time>2019-09-09T11:52:26Z</time>
      </trkpt>
      <trkpt lat="47.90756" lon="7.53846">
        <ele>245.19999694824</ele>
        <time>2019-09-09T11:52:32Z</time>
      </trkpt>
      <trkpt lat="47.90747" lon="7.53844">
        <ele>245.19999694824</ele>
        <time>2019-09-09T11:52:34Z</time>
      </trkpt>
      <trkpt lat="47.90715" lon="7.53839">
        <ele>245.39999389648</ele>
        <time>2019-09-09T11:52:41Z</time>
      </trkpt>
      <trkpt lat="47.90682" lon="7.53834">
        <ele>245.39999389648</ele>
        <time>2019-09-09T11:52:48Z</time>
      </trkpt>
      <trkpt lat="47.90648" lon="7.53827">
        <ele>245.19999694824</ele>
        <time>2019-09-09T11:52:55Z</time>
      </trkpt>
      <trkpt lat="47.90623" lon="7.53824">
        <ele>245.19999694824</ele>
        <time>2019-09-09T11:53:00Z</time>
      </trkpt>
      <trkpt lat="47.90618" lon="7.53823">
        <ele>245.19999694824</ele>
        <time>2019-09-09T11:53:01Z</time>
      </trkpt>
      <trkpt lat="47.90613" lon="7.53822">
        <ele>245</ele>
        <time>2019-09-09T11:53:02Z</time>
      </trkpt>
      <trkpt lat="47.90588" lon="7.5382">
        <ele>245</ele>
        <time>2019-09-09T11:53:07Z</time>
      </trkpt>
      <trkpt lat="47.90572" lon="7.53819">
        <ele>245</ele>
        <time>2019-09-09T11:53:11Z</time>
      </trkpt>
      <trkpt lat="47.90569" lon="7.53819">
        <ele>245</ele>
        <time>2019-09-09T11:53:12Z</time>
      </trkpt>
      <trkpt lat="47.90566" lon="7.53821">
        <ele>245</ele>
        <time>2019-09-09T11:53:14Z</time>
      </trkpt>
      <trkpt lat="47.90564" lon="7.53828">
        <ele>245</ele>
        <time>2019-09-09T11:53:16Z</time>
      </trkpt>
      <trkpt lat="47.90558" lon="7.53835">
        <ele>245.19999694824</ele>
        <time>2019-09-09T11:53:19Z</time>
      </trkpt>
      <trkpt lat="47.90555" lon="7.53834">
        <ele>245.19999694824</ele>
        <time>2019-09-09T11:53:20Z</time>
      </trkpt>
      <trkpt lat="47.90533" lon="7.53833">
        <ele>245.19999694824</ele>
        <time>2019-09-09T11:53:25Z</time>
      </trkpt>
      <trkpt lat="47.90499" lon="7.53828">
        <ele>244.80000305176</ele>
        <time>2019-09-09T11:53:32Z</time>
      </trkpt>
      <trkpt lat="47.9046" lon="7.53824">
        <ele>244.80000305176</ele>
        <time>2019-09-09T11:53:40Z</time>
      </trkpt>
      <trkpt lat="47.90425" lon="7.53819">
        <ele>245</ele>
        <time>2019-09-09T11:53:47Z</time>
      </trkpt>
      <trkpt lat="47.904" lon="7.53815">
        <ele>245.19999694824</ele>
        <time>2019-09-09T11:53:52Z</time>
      </trkpt>
      <trkpt lat="47.90375" lon="7.53812">
        <ele>245.19999694824</ele>
        <time>2019-09-09T11:53:57Z</time>
      </trkpt>
      <trkpt lat="47.9034" lon="7.53808">
        <ele>245.19999694824</ele>
        <time>2019-09-09T11:54:04Z</time>
      </trkpt>
      <trkpt lat="47.90335" lon="7.53807">
        <ele>245.19999694824</ele>
        <time>2019-09-09T11:54:05Z</time>
      </trkpt>
      <trkpt lat="47.903" lon="7.53803">
        <ele>245.19999694824</ele>
        <time>2019-09-09T11:54:12Z</time>
      </trkpt>
      <trkpt lat="47.90261" lon="7.53797">
        <ele>245.19999694824</ele>
        <time>2019-09-09T11:54:20Z</time>
      </trkpt>
      <trkpt lat="47.90221" lon="7.53793">
        <ele>245.19999694824</ele>
        <time>2019-09-09T11:54:28Z</time>
      </trkpt>
      <trkpt lat="47.90201" lon="7.5379">
        <ele>245.19999694824</ele>
        <time>2019-09-09T11:54:32Z</time>
      </trkpt>
      <trkpt lat="47.90171" lon="7.53787">
        <ele>245.39999389648</ele>
        <time>2019-09-09T11:54:38Z</time>
      </trkpt>
      <trkpt lat="47.90132" lon="7.53782">
        <ele>245.60000610352</ele>
        <time>2019-09-09T11:54:46Z</time>
      </trkpt>
      <trkpt lat="47.90097" lon="7.53777">
        <ele>245.80000305176</ele>
        <time>2019-09-09T11:54:53Z</time>
      </trkpt>
      <trkpt lat="47.90081" lon="7.53775">
        <ele>246</ele>
        <time>2019-09-09T11:54:56Z</time>
      </trkpt>
      <trkpt lat="47.90036" lon="7.53771">
        <ele>246.19999694824</ele>
        <time>2019-09-09T11:55:05Z</time>
      </trkpt>
      <trkpt lat="47.89995" lon="7.53764">
        <ele>246.19999694824</ele>
        <time>2019-09-09T11:55:13Z</time>
      </trkpt>
      <trkpt lat="47.89985" lon="7.53762">
        <ele>246.19999694824</ele>
        <time>2019-09-09T11:55:15Z</time>
      </trkpt>
      <trkpt lat="47.8996" lon="7.53759">
        <ele>246.39999389648</ele>
        <time>2019-09-09T11:55:20Z</time>
      </trkpt>
      <trkpt lat="47.89918" lon="7.53752">
        <ele>246.60000610352</ele>
        <time>2019-09-09T11:55:28Z</time>
      </trkpt>
      <trkpt lat="47.8988" lon="7.53747">
        <ele>246.80000305176</ele>
        <time>2019-09-09T11:55:35Z</time>
      </trkpt>
      <trkpt lat="47.89875" lon="7.53746">
        <ele>246.80000305176</ele>
        <time>2019-09-09T11:55:36Z</time>
      </trkpt>
      <trkpt lat="47.89831" lon="7.53739">
        <ele>247.19999694824</ele>
        <time>2019-09-09T11:55:45Z</time>
      </trkpt>
      <trkpt lat="47.89796" lon="7.53735">
        <ele>247.19999694824</ele>
        <time>2019-09-09T11:55:52Z</time>
      </trkpt>
      <trkpt lat="47.89746" lon="7.53727">
        <ele>246.80000305176</ele>
        <time>2019-09-09T11:56:02Z</time>
      </trkpt>
      <trkpt lat="47.89731" lon="7.53725">
        <ele>246.80000305176</ele>
        <time>2019-09-09T11:56:05Z</time>
      </trkpt>
      <trkpt lat="47.89711" lon="7.53722">
        <ele>246.80000305176</ele>
        <time>2019-09-09T11:56:09Z</time>
      </trkpt>
      <trkpt lat="47.89666" lon="7.53716">
        <ele>247.19999694824</ele>
        <time>2019-09-09T11:56:18Z</time>
      </trkpt>
      <trkpt lat="47.89625" lon="7.5371">
        <ele>247.39999389648</ele>
        <time>2019-09-09T11:56:26Z</time>
      </trkpt>
      <trkpt lat="47.89579" lon="7.53704">
        <ele>247.80000305176</ele>
        <time>2019-09-09T11:56:35Z</time>
      </trkpt>
      <trkpt lat="47.89533" lon="7.53699">
        <ele>247.60000610352</ele>
        <time>2019-09-09T11:56:44Z</time>
      </trkpt>
      <trkpt lat="47.89492" lon="7.53694">
        <ele>247.60000610352</ele>
        <time>2019-09-09T11:56:52Z</time>
      </trkpt>
      <trkpt lat="47.89471" lon="7.53692">
        <ele>247.60000610352</ele>
        <time>2019-09-09T11:56:56Z</time>
      </trkpt>
      <trkpt lat="47.89446" lon="7.5369">
        <ele>247.60000610352</ele>
        <time>2019-09-09T11:57:01Z</time>
      </trkpt>
      <trkpt lat="47.894" lon="7.53686">
        <ele>248</ele>
        <time>2019-09-09T11:57:10Z</time>
      </trkpt>
      <trkpt lat="47.8936" lon="7.53682">
        <ele>248</ele>
        <time>2019-09-09T11:57:18Z</time>
      </trkpt>
      <trkpt lat="47.8932" lon="7.53678">
        <ele>248</ele>
        <time>2019-09-09T11:57:26Z</time>
      </trkpt>
      <trkpt lat="47.89267" lon="7.53672">
        <ele>248</ele>
        <time>2019-09-09T11:57:36Z</time>
      </trkpt>
      <trkpt lat="47.89226" lon="7.53668">
        <ele>247.80000305176</ele>
        <time>2019-09-09T11:57:44Z</time>
      </trkpt>
      <trkpt lat="47.89184" lon="7.53662">
        <ele>248</ele>
        <time>2019-09-09T11:57:53Z</time>
      </trkpt>
      <trkpt lat="47.89165" lon="7.5366">
        <ele>248</ele>
        <time>2019-09-09T11:57:57Z</time>
      </trkpt>
      <trkpt lat="47.89139" lon="7.53657">
        <ele>248.19999694824</ele>
        <time>2019-09-09T11:58:02Z</time>
      </trkpt>
      <trkpt lat="47.89093" lon="7.53652">
        <ele>248</ele>
        <time>2019-09-09T11:58:11Z</time>
      </trkpt>
      <trkpt lat="47.89058" lon="7.53649">
        <ele>248</ele>
        <time>2019-09-09T11:58:18Z</time>
      </trkpt>
      <trkpt lat="47.89023" lon="7.53645">
        <ele>247.80000305176</ele>
        <time>2019-09-09T11:58:25Z</time>
      </trkpt>
      <trkpt lat="47.88989" lon="7.53642">
        <ele>247.60000610352</ele>
        <time>2019-09-09T11:58:32Z</time>
      </trkpt>
      <trkpt lat="47.88979" lon="7.5364">
        <ele>247.60000610352</ele>
        <time>2019-09-09T11:58:34Z</time>
      </trkpt>
      <trkpt lat="47.88972" lon="7.53634">
        <ele>247.60000610352</ele>
        <time>2019-09-09T11:58:36Z</time>
      </trkpt>
      <trkpt lat="47.88956" lon="7.53626">
        <ele>247.80000305176</ele>
        <time>2019-09-09T11:58:40Z</time>
      </trkpt>
      <trkpt lat="47.88951" lon="7.53625">
        <ele>247.80000305176</ele>
        <time>2019-09-09T11:58:41Z</time>
      </trkpt>
      <trkpt lat="47.88923" lon="7.53623">
        <ele>248.19999694824</ele>
        <time>2019-09-09T11:58:47Z</time>
      </trkpt>
      <trkpt lat="47.88877" lon="7.53622">
        <ele>248.60000610352</ele>
        <time>2019-09-09T11:58:56Z</time>
      </trkpt>
      <trkpt lat="47.88842" lon="7.53624">
        <ele>248.60000610352</ele>
        <time>2019-09-09T11:59:03Z</time>
      </trkpt>
      <trkpt lat="47.88796" lon="7.53627">
        <ele>248.19999694824</ele>
        <time>2019-09-09T11:59:12Z</time>
      </trkpt>
      <trkpt lat="47.88751" lon="7.53631">
        <ele>248.19999694824</ele>
        <time>2019-09-09T11:59:21Z</time>
      </trkpt>
      <trkpt lat="47.88731" lon="7.53632">
        <ele>248.19999694824</ele>
        <time>2019-09-09T11:59:25Z</time>
      </trkpt>
      <trkpt lat="47.88726" lon="7.53631">
        <ele>248.19999694824</ele>
        <time>2019-09-09T11:59:26Z</time>
      </trkpt>
      <trkpt lat="47.88716" lon="7.53628">
        <ele>248.19999694824</ele>
        <time>2019-09-09T11:59:28Z</time>
      </trkpt>
      <trkpt lat="47.8869" lon="7.53614">
        <ele>248.19999694824</ele>
        <time>2019-09-09T11:59:34Z</time>
      </trkpt>
      <trkpt lat="47.8866" lon="7.53593">
        <ele>248.19999694824</ele>
        <time>2019-09-09T11:59:42Z</time>
      </trkpt>
      <trkpt lat="47.88648" lon="7.53584">
        <ele>248.19999694824</ele>
        <time>2019-09-09T11:59:47Z</time>
      </trkpt>
      <trkpt lat="47.8863" lon="7.53572">
        <ele>248.19999694824</ele>
        <time>2019-09-09T11:59:52Z</time>
      </trkpt>
      <trkpt lat="47.88608" lon="7.53557">
        <ele>248.19999694824</ele>
        <time>2019-09-09T11:59:57Z</time>
      </trkpt>
      <trkpt lat="47.88603" lon="7.53554">
        <ele>248.19999694824</ele>
        <time>2019-09-09T11:59:58Z</time>
      </trkpt>
      <trkpt lat="47.88599" lon="7.5355">
        <ele>248.19999694824</ele>
        <time>2019-09-09T11:59:59Z</time>
      </trkpt>
      <trkpt lat="47.88581" lon="7.53536">
        <ele>248.19999694824</ele>
        <time>2019-09-09T12:00:03Z</time>
      </trkpt>
      <trkpt lat="47.88539" lon="7.53498">
        <ele>248.19999694824</ele>
        <time>2019-09-09T12:00:13Z</time>
      </trkpt>
      <trkpt lat="47.885" lon="7.53465">
        <ele>248.60000610352</ele>
        <time>2019-09-09T12:00:22Z</time>
      </trkpt>
      <trkpt lat="47.88467" lon="7.53434">
        <ele>248.80000305176</ele>
        <time>2019-09-09T12:00:30Z</time>
      </trkpt>
      <trkpt lat="47.88426" lon="7.53398">
        <ele>249</ele>
        <time>2019-09-09T12:00:40Z</time>
      </trkpt>
      <trkpt lat="47.88416" lon="7.53388">
        <ele>249</ele>
        <time>2019-09-09T12:00:43Z</time>
      </trkpt>
      <trkpt lat="47.88412" lon="7.53378">
        <ele>249</ele>
        <time>2019-09-09T12:00:45Z</time>
      </trkpt>
      <trkpt lat="47.88411" lon="7.53372">
        <ele>249.19999694824</ele>
        <time>2019-09-09T12:00:46Z</time>
      </trkpt>
      <trkpt lat="47.88411" lon="7.53353">
        <ele>249.39999389648</ele>
        <time>2019-09-09T12:00:49Z</time>
      </trkpt>
      <trkpt lat="47.88406" lon="7.53336">
        <ele>249.39999389648</ele>
        <time>2019-09-09T12:00:52Z</time>
      </trkpt>
      <trkpt lat="47.88405" lon="7.53331">
        <ele>249.39999389648</ele>
        <time>2019-09-09T12:00:53Z</time>
      </trkpt>
      <trkpt lat="47.88403" lon="7.53327">
        <ele>249.39999389648</ele>
        <time>2019-09-09T12:00:54Z</time>
      </trkpt>
      <trkpt lat="47.88398" lon="7.53326">
        <ele>249.60000610352</ele>
        <time>2019-09-09T12:00:56Z</time>
      </trkpt>
      <trkpt lat="47.88388" lon="7.53334">
        <ele>249.60000610352</ele>
        <time>2019-09-09T12:01:02Z</time>
      </trkpt>
      <trkpt lat="47.8838" lon="7.53331">
        <ele>249.60000610352</ele>
        <time>2019-09-09T12:01:05Z</time>
      </trkpt>
      <trkpt lat="47.88377" lon="7.53328">
        <ele>249.60000610352</ele>
        <time>2019-09-09T12:01:06Z</time>
      </trkpt>
      <trkpt lat="47.88361" lon="7.53298">
        <ele>249.80000305176</ele>
        <time>2019-09-09T12:01:12Z</time>
      </trkpt>
      <trkpt lat="47.88339" lon="7.53252">
        <ele>249.80000305176</ele>
        <time>2019-09-09T12:01:20Z</time>
      </trkpt>
      <trkpt lat="47.88313" lon="7.53206">
        <ele>249.80000305176</ele>
        <time>2019-09-09T12:01:28Z</time>
      </trkpt>
      <trkpt lat="47.88278" lon="7.53151">
        <ele>250</ele>
        <time>2019-09-09T12:01:38Z</time>
      </trkpt>
      <trkpt lat="47.88241" lon="7.53105">
        <ele>249.80000305176</ele>
        <time>2019-09-09T12:01:47Z</time>
      </trkpt>
      <trkpt lat="47.88207" lon="7.53076">
        <ele>249.80000305176</ele>
        <time>2019-09-09T12:01:55Z</time>
      </trkpt>
      <trkpt lat="47.88164" lon="7.53051">
        <ele>250</ele>
        <time>2019-09-09T12:02:04Z</time>
      </trkpt>
      <trkpt lat="47.8814" lon="7.53039">
        <ele>249.80000305176</ele>
        <time>2019-09-09T12:02:09Z</time>
      </trkpt>
      <trkpt lat="47.8813" lon="7.53039">
        <ele>249.80000305176</ele>
        <time>2019-09-09T12:02:11Z</time>
      </trkpt>
      <trkpt lat="47.88126" lon="7.53039">
        <ele>249.80000305176</ele>
        <time>2019-09-09T12:02:12Z</time>
      </trkpt>
      <trkpt lat="47.88113" lon="7.53032">
        <ele>249.39999389648</ele>
        <time>2019-09-09T12:02:15Z</time>
      </trkpt>
      <trkpt lat="47.88108" lon="7.53029">
        <ele>249.39999389648</ele>
        <time>2019-09-09T12:02:16Z</time>
      </trkpt>
      <trkpt lat="47.88083" lon="7.53011">
        <ele>249</ele>
        <time>2019-09-09T12:02:22Z</time>
      </trkpt>
      <trkpt lat="47.88042" lon="7.52983">
        <ele>249</ele>
        <time>2019-09-09T12:02:31Z</time>
      </trkpt>
      <trkpt lat="47.88006" lon="7.52958">
        <ele>249.39999389648</ele>
        <time>2019-09-09T12:02:39Z</time>
      </trkpt>
      <trkpt lat="47.87965" lon="7.52929">
        <ele>249.60000610352</ele>
        <time>2019-09-09T12:02:48Z</time>
      </trkpt>
      <trkpt lat="47.87915" lon="7.52893">
        <ele>249.60000610352</ele>
        <time>2019-09-09T12:02:59Z</time>
      </trkpt>
      <trkpt lat="47.87874" lon="7.52863">
        <ele>249.80000305176</ele>
        <time>2019-09-09T12:03:08Z</time>
      </trkpt>
      <trkpt lat="47.87824" lon="7.52829">
        <ele>250</ele>
        <time>2019-09-09T12:03:19Z</time>
      </trkpt>
      <trkpt lat="47.87797" lon="7.52809">
        <ele>250.19999694824</ele>
        <time>2019-09-09T12:03:25Z</time>
      </trkpt>
      <trkpt lat="47.87784" lon="7.528">
        <ele>250.19999694824</ele>
        <time>2019-09-09T12:03:28Z</time>
      </trkpt>
      <trkpt lat="47.87748" lon="7.52774">
        <ele>250.60000610352</ele>
        <time>2019-09-09T12:03:36Z</time>
      </trkpt>
      <trkpt lat="47.87712" lon="7.52748">
        <ele>251.19999694824</ele>
        <time>2019-09-09T12:03:44Z</time>
      </trkpt>
      <trkpt lat="47.87707" lon="7.52745">
        <ele>251.19999694824</ele>
        <time>2019-09-09T12:03:45Z</time>
      </trkpt>
      <trkpt lat="47.87667" lon="7.52714">
        <ele>251.19999694824</ele>
        <time>2019-09-09T12:03:53Z</time>
      </trkpt>
      <trkpt lat="47.87621" lon="7.5268">
        <ele>250.80000305176</ele>
        <time>2019-09-09T12:04:02Z</time>
      </trkpt>
      <trkpt lat="47.87572" lon="7.52643">
        <ele>250.80000305176</ele>
        <time>2019-09-09T12:04:12Z</time>
      </trkpt>
      <trkpt lat="47.87525" lon="7.52608">
        <ele>251</ele>
        <time>2019-09-09T12:04:22Z</time>
      </trkpt>
      <trkpt lat="47.87474" lon="7.52569">
        <ele>251</ele>
        <time>2019-09-09T12:04:33Z</time>
      </trkpt>
      <trkpt lat="47.87451" lon="7.52551">
        <ele>251</ele>
        <time>2019-09-09T12:04:38Z</time>
      </trkpt>
      <trkpt lat="47.87432" lon="7.52537">
        <ele>251</ele>
        <time>2019-09-09T12:04:42Z</time>
      </trkpt>
      <trkpt lat="47.87392" lon="7.52507">
        <ele>251.19999694824</ele>
        <time>2019-09-09T12:04:51Z</time>
      </trkpt>
      <trkpt lat="47.87388" lon="7.52504">
        <ele>251.39999389648</ele>
        <time>2019-09-09T12:04:52Z</time>
      </trkpt>
      <trkpt lat="47.87366" lon="7.52488">
        <ele>251.39999389648</ele>
        <time>2019-09-09T12:04:57Z</time>
      </trkpt>
      <trkpt lat="47.87333" lon="7.52463">
        <ele>251.80000305176</ele>
        <time>2019-09-09T12:05:05Z</time>
      </trkpt>
      <trkpt lat="47.87293" lon="7.52433">
        <ele>252</ele>
        <time>2019-09-09T12:05:14Z</time>
      </trkpt>
      <trkpt lat="47.87261" lon="7.52408">
        <ele>252.39999389648</ele>
        <time>2019-09-09T12:05:21Z</time>
      </trkpt>
      <trkpt lat="47.87256" lon="7.52405">
        <ele>252.39999389648</ele>
        <time>2019-09-09T12:05:22Z</time>
      </trkpt>
      <trkpt lat="47.87211" lon="7.52382">
        <ele>252.60000610352</ele>
        <time>2019-09-09T12:05:31Z</time>
      </trkpt>
      <trkpt lat="47.87179" lon="7.52366">
        <ele>252.60000610352</ele>
        <time>2019-09-09T12:05:38Z</time>
      </trkpt>
      <trkpt lat="47.87132" lon="7.52342">
        <ele>252.80000305176</ele>
        <time>2019-09-09T12:05:48Z</time>
      </trkpt>
      <trkpt lat="47.87079" lon="7.52316">
        <ele>253</ele>
        <time>2019-09-09T12:05:59Z</time>
      </trkpt>
      <trkpt lat="47.8703" lon="7.52291">
        <ele>252.80000305176</ele>
        <time>2019-09-09T12:06:09Z</time>
      </trkpt>
      <trkpt lat="47.86995" lon="7.52273">
        <ele>252.39999389648</ele>
        <time>2019-09-09T12:06:16Z</time>
      </trkpt>
      <trkpt lat="47.86955" lon="7.52254">
        <ele>252</ele>
        <time>2019-09-09T12:06:24Z</time>
      </trkpt>
      <trkpt lat="47.869" lon="7.52228">
        <ele>252</ele>
        <time>2019-09-09T12:06:35Z</time>
      </trkpt>
      <trkpt lat="47.86866" lon="7.52213">
        <ele>252.19999694824</ele>
        <time>2019-09-09T12:06:42Z</time>
      </trkpt>
      <trkpt lat="47.86822" lon="7.52197">
        <ele>252.19999694824</ele>
        <time>2019-09-09T12:06:51Z</time>
      </trkpt>
      <trkpt lat="47.86776" lon="7.52188">
        <ele>252.19999694824</ele>
        <time>2019-09-09T12:07:00Z</time>
      </trkpt>
      <trkpt lat="47.86724" lon="7.5218">
        <ele>252.19999694824</ele>
        <time>2019-09-09T12:07:11Z</time>
      </trkpt>
      <trkpt lat="47.86691" lon="7.52176">
        <ele>252.39999389648</ele>
        <time>2019-09-09T12:07:18Z</time>
      </trkpt>
      <trkpt lat="47.86687" lon="7.52174">
        <ele>252.39999389648</ele>
        <time>2019-09-09T12:07:19Z</time>
      </trkpt>
      <trkpt lat="47.86683" lon="7.52174">
        <ele>252.39999389648</ele>
        <time>2019-09-09T12:07:20Z</time>
      </trkpt>
      <trkpt lat="47.86663" lon="7.52175">
        <ele>252.60000610352</ele>
        <time>2019-09-09T12:07:24Z</time>
      </trkpt>
      <trkpt lat="47.86615" lon="7.52181">
        <ele>252.60000610352</ele>
        <time>2019-09-09T12:07:33Z</time>
      </trkpt>
      <trkpt lat="47.86563" lon="7.52195">
        <ele>252.39999389648</ele>
        <time>2019-09-09T12:07:42Z</time>
      </trkpt>
      <trkpt lat="47.86518" lon="7.52205">
        <ele>251.60000610352</ele>
        <time>2019-09-09T12:07:50Z</time>
      </trkpt>
      <trkpt lat="47.86507" lon="7.52206">
        <ele>251.60000610352</ele>
        <time>2019-09-09T12:07:52Z</time>
      </trkpt>
      <trkpt lat="47.86469" lon="7.5221">
        <ele>251.80000305176</ele>
        <time>2019-09-09T12:07:59Z</time>
      </trkpt>
      <trkpt lat="47.86424" lon="7.52204">
        <ele>252.19999694824</ele>
        <time>2019-09-09T12:08:08Z</time>
      </trkpt>
      <trkpt lat="47.86382" lon="7.5219">
        <ele>252.39999389648</ele>
        <time>2019-09-09T12:08:17Z</time>
      </trkpt>
      <trkpt lat="47.86344" lon="7.52172">
        <ele>252.80000305176</ele>
        <time>2019-09-09T12:08:26Z</time>
      </trkpt>
      <trkpt lat="47.86314" lon="7.5215">
        <ele>253.60000610352</ele>
        <time>2019-09-09T12:08:33Z</time>
      </trkpt>
      <trkpt lat="47.86301" lon="7.5214">
        <ele>253.39999389648</ele>
        <time>2019-09-09T12:08:36Z</time>
      </trkpt>
      <trkpt lat="47.86282" lon="7.52127">
        <ele>253.60000610352</ele>
        <time>2019-09-09T12:08:40Z</time>
      </trkpt>
      <trkpt lat="47.86244" lon="7.52099">
        <ele>253.60000610352</ele>
        <time>2019-09-09T12:08:48Z</time>
      </trkpt>
      <trkpt lat="47.86192" lon="7.52064">
        <ele>253.60000610352</ele>
        <time>2019-09-09T12:08:58Z</time>
      </trkpt>
      <trkpt lat="47.86187" lon="7.5206">
        <ele>253.39999389648</ele>
        <time>2019-09-09T12:08:59Z</time>
      </trkpt>
      <trkpt lat="47.86135" lon="7.52031">
        <ele>253.39999389648</ele>
        <time>2019-09-09T12:09:09Z</time>
      </trkpt>
      <trkpt lat="47.86094" lon="7.5201">
        <ele>253.39999389648</ele>
        <time>2019-09-09T12:09:17Z</time>
      </trkpt>
      <trkpt lat="47.86036" lon="7.51989">
        <ele>253.60000610352</ele>
        <time>2019-09-09T12:09:28Z</time>
      </trkpt>
      <trkpt lat="47.86015" lon="7.51983">
        <ele>253.80000305176</ele>
        <time>2019-09-09T12:09:32Z</time>
      </trkpt>
      <trkpt lat="47.85987" lon="7.51975">
        <ele>253.80000305176</ele>
        <time>2019-09-09T12:09:37Z</time>
      </trkpt>
      <trkpt lat="47.85936" lon="7.51957">
        <ele>253.60000610352</ele>
        <time>2019-09-09T12:09:46Z</time>
      </trkpt>
      <trkpt lat="47.85906" lon="7.5194">
        <ele>253.60000610352</ele>
        <time>2019-09-09T12:09:52Z</time>
      </trkpt>
      <trkpt lat="47.8587" lon="7.51913">
        <ele>253.60000610352</ele>
        <time>2019-09-09T12:10:00Z</time>
      </trkpt>
      <trkpt lat="47.85821" lon="7.51876">
        <ele>253.60000610352</ele>
        <time>2019-09-09T12:10:10Z</time>
      </trkpt>
      <trkpt lat="47.85785" lon="7.51851">
        <ele>253.39999389648</ele>
        <time>2019-09-09T12:10:17Z</time>
      </trkpt>
      <trkpt lat="47.85737" lon="7.51826">
        <ele>253.19999694824</ele>
        <time>2019-09-09T12:10:26Z</time>
      </trkpt>
      <trkpt lat="47.85704" lon="7.51812">
        <ele>253</ele>
        <time>2019-09-09T12:10:32Z</time>
      </trkpt>
      <trkpt lat="47.85687" lon="7.51805">
        <ele>253</ele>
        <time>2019-09-09T12:10:35Z</time>
      </trkpt>
      <trkpt lat="47.85636" lon="7.5179">
        <ele>252.80000305176</ele>
        <time>2019-09-09T12:10:44Z</time>
      </trkpt>
      <trkpt lat="47.85581" lon="7.51778">
        <ele>252.80000305176</ele>
        <time>2019-09-09T12:10:54Z</time>
      </trkpt>
      <trkpt lat="47.85526" lon="7.51771">
        <ele>252.80000305176</ele>
        <time>2019-09-09T12:11:04Z</time>
      </trkpt>
      <trkpt lat="47.85478" lon="7.51769">
        <ele>252.60000610352</ele>
        <time>2019-09-09T12:11:13Z</time>
      </trkpt>
      <trkpt lat="47.8544" lon="7.5177">
        <ele>252.60000610352</ele>
        <time>2019-09-09T12:11:21Z</time>
      </trkpt>
      <trkpt lat="47.85401" lon="7.51771">
        <ele>253.60000610352</ele>
        <time>2019-09-09T12:11:30Z</time>
      </trkpt>
      <trkpt lat="47.85356" lon="7.5177">
        <ele>253.60000610352</ele>
        <time>2019-09-09T12:11:39Z</time>
      </trkpt>
      <trkpt lat="47.85312" lon="7.51768">
        <ele>253.39999389648</ele>
        <time>2019-09-09T12:11:48Z</time>
      </trkpt>
      <trkpt lat="47.85295" lon="7.51769">
        <ele>253.60000610352</ele>
        <time>2019-09-09T12:11:52Z</time>
      </trkpt>
      <trkpt lat="47.85288" lon="7.51764">
        <ele>253.60000610352</ele>
        <time>2019-09-09T12:11:54Z</time>
      </trkpt>
      <trkpt lat="47.85276" lon="7.51753">
        <ele>253.80000305176</ele>
        <time>2019-09-09T12:11:58Z</time>
      </trkpt>
      <trkpt lat="47.85272" lon="7.51753">
        <ele>254</ele>
        <time>2019-09-09T12:11:59Z</time>
      </trkpt>
      <trkpt lat="47.85268" lon="7.51754">
        <ele>254</ele>
        <time>2019-09-09T12:12:00Z</time>
      </trkpt>
      <trkpt lat="47.85253" lon="7.51752">
        <ele>254.39999389648</ele>
        <time>2019-09-09T12:12:04Z</time>
      </trkpt>
      <trkpt lat="47.85224" lon="7.51751">
        <ele>254.60000610352</ele>
        <time>2019-09-09T12:12:11Z</time>
      </trkpt>
      <trkpt lat="47.85192" lon="7.51749">
        <ele>254.80000305176</ele>
        <time>2019-09-09T12:12:18Z</time>
      </trkpt>
      <trkpt lat="47.85159" lon="7.51747">
        <ele>254.80000305176</ele>
        <time>2019-09-09T12:12:25Z</time>
      </trkpt>
      <trkpt lat="47.85125" lon="7.51746">
        <ele>255.19999694824</ele>
        <time>2019-09-09T12:12:32Z</time>
      </trkpt>
      <trkpt lat="47.8511" lon="7.51745">
        <ele>255.39999389648</ele>
        <time>2019-09-09T12:12:35Z</time>
      </trkpt>
      <trkpt lat="47.8508" lon="7.51743">
        <ele>255.60000610352</ele>
        <time>2019-09-09T12:12:41Z</time>
      </trkpt>
      <trkpt lat="47.85039" lon="7.5174">
        <ele>255.80000305176</ele>
        <time>2019-09-09T12:12:49Z</time>
      </trkpt>
      <trkpt lat="47.8499" lon="7.51732">
        <ele>256</ele>
        <time>2019-09-09T12:12:59Z</time>
      </trkpt>
      <trkpt lat="47.84946" lon="7.5172">
        <ele>256.20001220703</ele>
        <time>2019-09-09T12:13:08Z</time>
      </trkpt>
      <trkpt lat="47.84907" lon="7.51709">
        <ele>256.20001220703</ele>
        <time>2019-09-09T12:13:16Z</time>
      </trkpt>
      <trkpt lat="47.84868" lon="7.51698">
        <ele>255.80000305176</ele>
        <time>2019-09-09T12:13:24Z</time>
      </trkpt>
      <trkpt lat="47.84828" lon="7.51686">
        <ele>256</ele>
        <time>2019-09-09T12:13:32Z</time>
      </trkpt>
      <trkpt lat="47.84779" lon="7.5167">
        <ele>256</ele>
        <time>2019-09-09T12:13:42Z</time>
      </trkpt>
      <trkpt lat="47.84744" lon="7.51659">
        <ele>255.80000305176</ele>
        <time>2019-09-09T12:13:49Z</time>
      </trkpt>
      <trkpt lat="47.84736" lon="7.51662">
        <ele>255.80000305176</ele>
        <time>2019-09-09T12:13:51Z</time>
      </trkpt>
      <trkpt lat="47.84725" lon="7.51674">
        <ele>255.80000305176</ele>
        <time>2019-09-09T12:13:55Z</time>
      </trkpt>
      <trkpt lat="47.84717" lon="7.5167">
        <ele>255.80000305176</ele>
        <time>2019-09-09T12:13:57Z</time>
      </trkpt>
      <trkpt lat="47.84708" lon="7.51665">
        <ele>255.80000305176</ele>
        <time>2019-09-09T12:13:59Z</time>
      </trkpt>
      <trkpt lat="47.84679" lon="7.51655">
        <ele>255.19999694824</ele>
        <time>2019-09-09T12:14:05Z</time>
      </trkpt>
      <trkpt lat="47.84645" lon="7.51642">
        <ele>255.19999694824</ele>
        <time>2019-09-09T12:14:12Z</time>
      </trkpt>
      <trkpt lat="47.84626" lon="7.51636">
        <ele>255.19999694824</ele>
        <time>2019-09-09T12:14:16Z</time>
      </trkpt>
      <trkpt lat="47.84611" lon="7.51631">
        <ele>255.19999694824</ele>
        <time>2019-09-09T12:14:19Z</time>
      </trkpt>
      <trkpt lat="47.84586" lon="7.51623">
        <ele>255.39999389648</ele>
        <time>2019-09-09T12:14:24Z</time>
      </trkpt>
      <trkpt lat="47.84582" lon="7.51618">
        <ele>255.39999389648</ele>
        <time>2019-09-09T12:14:25Z</time>
      </trkpt>
      <trkpt lat="47.84575" lon="7.51609">
        <ele>255.39999389648</ele>
        <time>2019-09-09T12:14:27Z</time>
      </trkpt>
      <trkpt lat="47.84565" lon="7.51603">
        <ele>255.39999389648</ele>
        <time>2019-09-09T12:14:29Z</time>
      </trkpt>
      <trkpt lat="47.84553" lon="7.51591">
        <ele>255.39999389648</ele>
        <time>2019-09-09T12:14:32Z</time>
      </trkpt>
      <trkpt lat="47.84538" lon="7.51585">
        <ele>255.39999389648</ele>
        <time>2019-09-09T12:14:35Z</time>
      </trkpt>
      <trkpt lat="47.84533" lon="7.51584">
        <ele>255.39999389648</ele>
        <time>2019-09-09T12:14:36Z</time>
      </trkpt>
      <trkpt lat="47.84488" lon="7.5157">
        <ele>255.39999389648</ele>
        <time>2019-09-09T12:14:45Z</time>
      </trkpt>
      <trkpt lat="47.84443" lon="7.51556">
        <ele>255.39999389648</ele>
        <time>2019-09-09T12:14:54Z</time>
      </trkpt>
      <trkpt lat="47.84399" lon="7.51541">
        <ele>255.39999389648</ele>
        <time>2019-09-09T12:15:03Z</time>
      </trkpt>
      <trkpt lat="47.84343" lon="7.51523">
        <ele>255.39999389648</ele>
        <time>2019-09-09T12:15:14Z</time>
      </trkpt>
      <trkpt lat="47.84303" lon="7.51509">
        <ele>255.39999389648</ele>
        <time>2019-09-09T12:15:22Z</time>
      </trkpt>
      <trkpt lat="47.84256" lon="7.51495">
        <ele>255.60000610352</ele>
        <time>2019-09-09T12:15:31Z</time>
      </trkpt>
      <trkpt lat="47.8422" lon="7.51484">
        <ele>255.80000305176</ele>
        <time>2019-09-09T12:15:38Z</time>
      </trkpt>
      <trkpt lat="47.8421" lon="7.51481">
        <ele>255.80000305176</ele>
        <time>2019-09-09T12:15:40Z</time>
      </trkpt>
      <trkpt lat="47.8419" lon="7.51475">
        <ele>255.80000305176</ele>
        <time>2019-09-09T12:15:44Z</time>
      </trkpt>
      <trkpt lat="47.84139" lon="7.51455">
        <ele>255.39999389648</ele>
        <time>2019-09-09T12:15:54Z</time>
      </trkpt>
      <trkpt lat="47.84129" lon="7.51451">
        <ele>255.39999389648</ele>
        <time>2019-09-09T12:15:56Z</time>
      </trkpt>
      <trkpt lat="47.84119" lon="7.51449">
        <ele>255.19999694824</ele>
        <time>2019-09-09T12:15:58Z</time>
      </trkpt>
      <trkpt lat="47.84115" lon="7.51446">
        <ele>255.19999694824</ele>
        <time>2019-09-09T12:15:59Z</time>
      </trkpt>
      <trkpt lat="47.84097" lon="7.51437">
        <ele>255.19999694824</ele>
        <time>2019-09-09T12:16:03Z</time>
      </trkpt>
      <trkpt lat="47.84088" lon="7.5143">
        <ele>255.39999389648</ele>
        <time>2019-09-09T12:16:05Z</time>
      </trkpt>
      <trkpt lat="47.8408" lon="7.51421">
        <ele>255.60000610352</ele>
        <time>2019-09-09T12:16:07Z</time>
      </trkpt>
      <trkpt lat="47.84063" lon="7.51405">
        <ele>256</ele>
        <time>2019-09-09T12:16:11Z</time>
      </trkpt>
      <trkpt lat="47.84055" lon="7.51396">
        <ele>256.39999389648</ele>
        <time>2019-09-09T12:16:13Z</time>
      </trkpt>
      <trkpt lat="47.84033" lon="7.51376">
        <ele>256.79998779297</ele>
        <time>2019-09-09T12:16:18Z</time>
      </trkpt>
      <trkpt lat="47.83995" lon="7.51344">
        <ele>256.60000610352</ele>
        <time>2019-09-09T12:16:26Z</time>
      </trkpt>
      <trkpt lat="47.83954" lon="7.51318">
        <ele>256.20001220703</ele>
        <time>2019-09-09T12:16:34Z</time>
      </trkpt>
      <trkpt lat="47.83913" lon="7.51298">
        <ele>256.20001220703</ele>
        <time>2019-09-09T12:16:42Z</time>
      </trkpt>
      <trkpt lat="47.83869" lon="7.5128">
        <ele>256</ele>
        <time>2019-09-09T12:16:51Z</time>
      </trkpt>
      <trkpt lat="47.83828" lon="7.51277">
        <ele>256</ele>
        <time>2019-09-09T12:16:59Z</time>
      </trkpt>
      <trkpt lat="47.83777" lon="7.51277">
        <ele>256</ele>
        <time>2019-09-09T12:17:09Z</time>
      </trkpt>
      <trkpt lat="47.83727" lon="7.51276">
        <ele>256.20001220703</ele>
        <time>2019-09-09T12:17:19Z</time>
      </trkpt>
      <trkpt lat="47.83677" lon="7.51278">
        <ele>256.39999389648</ele>
        <time>2019-09-09T12:17:29Z</time>
      </trkpt>
      <trkpt lat="47.83631" lon="7.51287">
        <ele>256.39999389648</ele>
        <time>2019-09-09T12:17:38Z</time>
      </trkpt>
      <trkpt lat="47.83592" lon="7.51299">
        <ele>256.39999389648</ele>
        <time>2019-09-09T12:17:46Z</time>
      </trkpt>
      <trkpt lat="47.83542" lon="7.51316">
        <ele>256.79998779297</ele>
        <time>2019-09-09T12:17:56Z</time>
      </trkpt>
      <trkpt lat="47.83515" lon="7.51326">
        <ele>257</ele>
        <time>2019-09-09T12:18:02Z</time>
      </trkpt>
      <trkpt lat="47.83481" lon="7.51338">
        <ele>257</ele>
        <time>2019-09-09T12:18:09Z</time>
      </trkpt>
      <trkpt lat="47.83427" lon="7.51356">
        <ele>257.20001220703</ele>
        <time>2019-09-09T12:18:20Z</time>
      </trkpt>
      <trkpt lat="47.83379" lon="7.51373">
        <ele>257.20001220703</ele>
        <time>2019-09-09T12:18:30Z</time>
      </trkpt>
      <trkpt lat="47.8334" lon="7.51387">
        <ele>257.60000610352</ele>
        <time>2019-09-09T12:18:38Z</time>
      </trkpt>
      <trkpt lat="47.83305" lon="7.51398">
        <ele>257.79998779297</ele>
        <time>2019-09-09T12:18:45Z</time>
      </trkpt>
      <trkpt lat="47.83299" lon="7.51399">
        <ele>257.79998779297</ele>
        <time>2019-09-09T12:18:46Z</time>
      </trkpt>
      <trkpt lat="47.83264" lon="7.51408">
        <ele>257.79998779297</ele>
        <time>2019-09-09T12:18:53Z</time>
      </trkpt>
      <trkpt lat="47.83235" lon="7.51412">
        <ele>257.79998779297</ele>
        <time>2019-09-09T12:18:59Z</time>
      </trkpt>
      <trkpt lat="47.83231" lon="7.51411">
        <ele>257.79998779297</ele>
        <time>2019-09-09T12:19:00Z</time>
      </trkpt>
      <trkpt lat="47.83222" lon="7.5141">
        <ele>257.60000610352</ele>
        <time>2019-09-09T12:19:02Z</time>
      </trkpt>
      <trkpt lat="47.83209" lon="7.51403">
        <ele>257.60000610352</ele>
        <time>2019-09-09T12:19:05Z</time>
      </trkpt>
      <trkpt lat="47.83192" lon="7.51404">
        <ele>257.60000610352</ele>
        <time>2019-09-09T12:19:09Z</time>
      </trkpt>
      <trkpt lat="47.83189" lon="7.51407">
        <ele>257.60000610352</ele>
        <time>2019-09-09T12:19:10Z</time>
      </trkpt>
      <trkpt lat="47.83175" lon="7.51413">
        <ele>257.60000610352</ele>
        <time>2019-09-09T12:19:14Z</time>
      </trkpt>
      <trkpt lat="47.83171" lon="7.51416">
        <ele>257.60000610352</ele>
        <time>2019-09-09T12:19:15Z</time>
      </trkpt>
      <trkpt lat="47.83154" lon="7.51421">
        <ele>257.79998779297</ele>
        <time>2019-09-09T12:19:19Z</time>
      </trkpt>
      <trkpt lat="47.831" lon="7.51417">
        <ele>258.39999389648</ele>
        <time>2019-09-09T12:19:30Z</time>
      </trkpt>
      <trkpt lat="47.83056" lon="7.51416">
        <ele>258.60000610352</ele>
        <time>2019-09-09T12:19:39Z</time>
      </trkpt>
      <trkpt lat="47.83026" lon="7.51416">
        <ele>258.79998779297</ele>
        <time>2019-09-09T12:19:45Z</time>
      </trkpt>
      <trkpt lat="47.8301" lon="7.51417">
        <ele>259</ele>
        <time>2019-09-09T12:19:48Z</time>
      </trkpt>
      <trkpt lat="47.82984" lon="7.51422">
        <ele>259.20001220703</ele>
        <time>2019-09-09T12:19:53Z</time>
      </trkpt>
      <trkpt lat="47.8294" lon="7.51433">
        <ele>259.20001220703</ele>
        <time>2019-09-09T12:20:02Z</time>
      </trkpt>
      <trkpt lat="47.8292" lon="7.51439">
        <ele>259.20001220703</ele>
        <time>2019-09-09T12:20:06Z</time>
      </trkpt>
      <trkpt lat="47.8289" lon="7.51447">
        <ele>259.60000610352</ele>
        <time>2019-09-09T12:20:12Z</time>
      </trkpt>
      <trkpt lat="47.8285" lon="7.51458">
        <ele>259.79998779297</ele>
        <time>2019-09-09T12:20:20Z</time>
      </trkpt>
      <trkpt lat="47.82799" lon="7.51468">
        <ele>260</ele>
        <time>2019-09-09T12:20:30Z</time>
      </trkpt>
      <trkpt lat="47.82789" lon="7.51469">
        <ele>260</ele>
        <time>2019-09-09T12:20:32Z</time>
      </trkpt>
      <trkpt lat="47.82761" lon="7.51469">
        <ele>260</ele>
        <time>2019-09-09T12:20:38Z</time>
      </trkpt>
      <trkpt lat="47.82742" lon="7.51467">
        <ele>260</ele>
        <time>2019-09-09T12:20:42Z</time>
      </trkpt>
      <trkpt lat="47.82727" lon="7.51465">
        <ele>260</ele>
        <time>2019-09-09T12:20:45Z</time>
      </trkpt>
      <trkpt lat="47.82677" lon="7.51457">
        <ele>260</ele>
        <time>2019-09-09T12:20:55Z</time>
      </trkpt>
      <trkpt lat="47.82632" lon="7.51451">
        <ele>260.39999389648</ele>
        <time>2019-09-09T12:21:04Z</time>
      </trkpt>
      <trkpt lat="47.82593" lon="7.51445">
        <ele>260.39999389648</ele>
        <time>2019-09-09T12:21:12Z</time>
      </trkpt>
      <trkpt lat="47.8256" lon="7.51437">
        <ele>260.39999389648</ele>
        <time>2019-09-09T12:21:20Z</time>
      </trkpt>
      <trkpt lat="47.82529" lon="7.51427">
        <ele>260.39999389648</ele>
        <time>2019-09-09T12:21:27Z</time>
      </trkpt>
      <trkpt lat="47.82491" lon="7.51415">
        <ele>260.39999389648</ele>
        <time>2019-09-09T12:21:35Z</time>
      </trkpt>
      <trkpt lat="47.82482" lon="7.51409">
        <ele>260.39999389648</ele>
        <time>2019-09-09T12:21:37Z</time>
      </trkpt>
      <trkpt lat="47.82469" lon="7.51396">
        <ele>260.39999389648</ele>
        <time>2019-09-09T12:21:40Z</time>
      </trkpt>
      <trkpt lat="47.82451" lon="7.51371">
        <ele>260.20001220703</ele>
        <time>2019-09-09T12:21:46Z</time>
      </trkpt>
      <trkpt lat="47.82448" lon="7.51368">
        <ele>260</ele>
        <time>2019-09-09T12:21:50Z</time>
      </trkpt>
      <trkpt lat="47.82447" lon="7.51365">
        <ele>259.60000610352</ele>
        <time>2019-09-09T12:22:05Z</time>
      </trkpt>
      <trkpt lat="47.82443" lon="7.51359">
        <ele>259.60000610352</ele>
        <time>2019-09-09T12:22:07Z</time>
      </trkpt>
      <trkpt lat="47.8243" lon="7.51327">
        <ele>259.60000610352</ele>
        <time>2019-09-09T12:22:13Z</time>
      </trkpt>
      <trkpt lat="47.82417" lon="7.5128">
        <ele>259.39999389648</ele>
        <time>2019-09-09T12:22:20Z</time>
      </trkpt>
      <trkpt lat="47.82398" lon="7.51213">
        <ele>259.39999389648</ele>
        <time>2019-09-09T12:22:30Z</time>
      </trkpt>
      <trkpt lat="47.82379" lon="7.51169">
        <ele>259.39999389648</ele>
        <time>2019-09-09T12:22:37Z</time>
      </trkpt>
      <trkpt lat="47.82361" lon="7.51134">
        <ele>259.60000610352</ele>
        <time>2019-09-09T12:22:43Z</time>
      </trkpt>
      <trkpt lat="47.82358" lon="7.51128">
        <ele>259.79998779297</ele>
        <time>2019-09-09T12:22:44Z</time>
      </trkpt>
      <trkpt lat="47.82332" lon="7.51083">
        <ele>260.20001220703</ele>
        <time>2019-09-09T12:22:52Z</time>
      </trkpt>
      <trkpt lat="47.82308" lon="7.51043">
        <ele>260.60000610352</ele>
        <time>2019-09-09T12:22:59Z</time>
      </trkpt>
      <trkpt lat="47.82279" lon="7.50996">
        <ele>261</ele>
        <time>2019-09-09T12:23:07Z</time>
      </trkpt>
      <trkpt lat="47.82239" lon="7.50938">
        <ele>261</ele>
        <time>2019-09-09T12:23:17Z</time>
      </trkpt>
      <trkpt lat="47.82205" lon="7.50888">
        <ele>261</ele>
        <time>2019-09-09T12:23:26Z</time>
      </trkpt>
      <trkpt lat="47.82164" lon="7.50829">
        <ele>261</ele>
        <time>2019-09-09T12:23:37Z</time>
      </trkpt>
      <trkpt lat="47.82131" lon="7.5078">
        <ele>261.39999389648</ele>
        <time>2019-09-09T12:23:46Z</time>
      </trkpt>
      <trkpt lat="47.82127" lon="7.50775">
        <ele>261.39999389648</ele>
        <time>2019-09-09T12:23:47Z</time>
      </trkpt>
      <trkpt lat="47.82095" lon="7.50725">
        <ele>261.79998779297</ele>
        <time>2019-09-09T12:23:56Z</time>
      </trkpt>
      <trkpt lat="47.82065" lon="7.50698">
        <ele>261.79998779297</ele>
        <time>2019-09-09T12:24:03Z</time>
      </trkpt>
      <trkpt lat="47.8203" lon="7.50686">
        <ele>262</ele>
        <time>2019-09-09T12:24:10Z</time>
      </trkpt>
      <trkpt lat="47.81984" lon="7.50678">
        <ele>262.20001220703</ele>
        <time>2019-09-09T12:24:19Z</time>
      </trkpt>
      <trkpt lat="47.81927" lon="7.50667">
        <ele>262.39999389648</ele>
        <time>2019-09-09T12:24:30Z</time>
      </trkpt>
      <trkpt lat="47.81922" lon="7.50667">
        <ele>262.39999389648</ele>
        <time>2019-09-09T12:24:31Z</time>
      </trkpt>
      <trkpt lat="47.81916" lon="7.50666">
        <ele>262.39999389648</ele>
        <time>2019-09-09T12:24:32Z</time>
      </trkpt>
      <trkpt lat="47.81869" lon="7.50659">
        <ele>263</ele>
        <time>2019-09-09T12:24:41Z</time>
      </trkpt>
      <trkpt lat="47.81811" lon="7.50654">
        <ele>263.39999389648</ele>
        <time>2019-09-09T12:24:52Z</time>
      </trkpt>
      <trkpt lat="47.81763" lon="7.50652">
        <ele>263.39999389648</ele>
        <time>2019-09-09T12:25:01Z</time>
      </trkpt>
      <trkpt lat="47.81716" lon="7.50649">
        <ele>263.39999389648</ele>
        <time>2019-09-09T12:25:10Z</time>
      </trkpt>
      <trkpt lat="47.81656" lon="7.50643">
        <ele>263.60000610352</ele>
        <time>2019-09-09T12:25:21Z</time>
      </trkpt>
      <trkpt lat="47.81599" lon="7.50637">
        <ele>263.60000610352</ele>
        <time>2019-09-09T12:25:31Z</time>
      </trkpt>
      <trkpt lat="47.8154" lon="7.50631">
        <ele>263.60000610352</ele>
        <time>2019-09-09T12:25:41Z</time>
      </trkpt>
      <trkpt lat="47.81534" lon="7.50631">
        <ele>263.60000610352</ele>
        <time>2019-09-09T12:25:42Z</time>
      </trkpt>
      <trkpt lat="47.81497" lon="7.50627">
        <ele>263.39999389648</ele>
        <time>2019-09-09T12:25:49Z</time>
      </trkpt>
      <trkpt lat="47.81475" lon="7.50623">
        <ele>263.39999389648</ele>
        <time>2019-09-09T12:25:53Z</time>
      </trkpt>
      <trkpt lat="47.81464" lon="7.5062">
        <ele>263.39999389648</ele>
        <time>2019-09-09T12:25:55Z</time>
      </trkpt>
      <trkpt lat="47.81453" lon="7.50618">
        <ele>263.39999389648</ele>
        <time>2019-09-09T12:25:57Z</time>
      </trkpt>
      <trkpt lat="47.81432" lon="7.50609">
        <ele>263.79998779297</ele>
        <time>2019-09-09T12:26:01Z</time>
      </trkpt>
      <trkpt lat="47.81412" lon="7.50597">
        <ele>263.79998779297</ele>
        <time>2019-09-09T12:26:05Z</time>
      </trkpt>
      <trkpt lat="47.81405" lon="7.50589">
        <ele>263.79998779297</ele>
        <time>2019-09-09T12:26:07Z</time>
      </trkpt>
      <trkpt lat="47.81394" lon="7.50579">
        <ele>263.79998779297</ele>
        <time>2019-09-09T12:26:10Z</time>
      </trkpt>
      <trkpt lat="47.81386" lon="7.50576">
        <ele>264</ele>
        <time>2019-09-09T12:26:12Z</time>
      </trkpt>
      <trkpt lat="47.81374" lon="7.50594">
        <ele>264</ele>
        <time>2019-09-09T12:26:16Z</time>
      </trkpt>
      <trkpt lat="47.81364" lon="7.50608">
        <ele>264</ele>
        <time>2019-09-09T12:26:19Z</time>
      </trkpt>
      <trkpt lat="47.81354" lon="7.5061">
        <ele>264</ele>
        <time>2019-09-09T12:26:21Z</time>
      </trkpt>
      <trkpt lat="47.81337" lon="7.50611">
        <ele>264</ele>
        <time>2019-09-09T12:26:24Z</time>
      </trkpt>
      <trkpt lat="47.81298" lon="7.50607">
        <ele>263.60000610352</ele>
        <time>2019-09-09T12:26:31Z</time>
      </trkpt>
      <trkpt lat="47.81258" lon="7.50606">
        <ele>263.60000610352</ele>
        <time>2019-09-09T12:26:38Z</time>
      </trkpt>
      <trkpt lat="47.81205" lon="7.50606">
        <ele>263.39999389648</ele>
        <time>2019-09-09T12:26:47Z</time>
      </trkpt>
      <trkpt lat="47.81164" lon="7.50607">
        <ele>263.39999389648</ele>
        <time>2019-09-09T12:26:54Z</time>
      </trkpt>
      <trkpt lat="47.81146" lon="7.50608">
        <ele>263.39999389648</ele>
        <time>2019-09-09T12:26:57Z</time>
      </trkpt>
      <trkpt lat="47.81135" lon="7.50611">
        <ele>263.60000610352</ele>
        <time>2019-09-09T12:26:59Z</time>
      </trkpt>
      <trkpt lat="47.81124" lon="7.50614">
        <ele>263.79998779297</ele>
        <time>2019-09-09T12:27:01Z</time>
      </trkpt>
      <trkpt lat="47.81107" lon="7.50618">
        <ele>263.79998779297</ele>
        <time>2019-09-09T12:27:04Z</time>
      </trkpt>
      <trkpt lat="47.81101" lon="7.50618">
        <ele>263.79998779297</ele>
        <time>2019-09-09T12:27:05Z</time>
      </trkpt>
      <trkpt lat="47.81055" lon="7.50615">
        <ele>263.79998779297</ele>
        <time>2019-09-09T12:27:13Z</time>
      </trkpt>
      <trkpt lat="47.81008" lon="7.50613">
        <ele>263.60000610352</ele>
        <time>2019-09-09T12:27:21Z</time>
      </trkpt>
      <trkpt lat="47.80968" lon="7.50612">
        <ele>263.60000610352</ele>
        <time>2019-09-09T12:27:28Z</time>
      </trkpt>
      <trkpt lat="47.8093" lon="7.50611">
        <ele>263.60000610352</ele>
        <time>2019-09-09T12:27:35Z</time>
      </trkpt>
      <trkpt lat="47.80894" lon="7.50609">
        <ele>263.79998779297</ele>
        <time>2019-09-09T12:27:42Z</time>
      </trkpt>
      <trkpt lat="47.80853" lon="7.50605">
        <ele>264</ele>
        <time>2019-09-09T12:27:50Z</time>
      </trkpt>
      <trkpt lat="47.80813" lon="7.50603">
        <ele>264.20001220703</ele>
        <time>2019-09-09T12:27:58Z</time>
      </trkpt>
      <trkpt lat="47.80766" lon="7.50597">
        <ele>264.79998779297</ele>
        <time>2019-09-09T12:28:07Z</time>
      </trkpt>
      <trkpt lat="47.80734" lon="7.50596">
        <ele>264.79998779297</ele>
        <time>2019-09-09T12:28:13Z</time>
      </trkpt>
      <trkpt lat="47.8068" lon="7.5059">
        <ele>264.20001220703</ele>
        <time>2019-09-09T12:28:22Z</time>
      </trkpt>
      <trkpt lat="47.80633" lon="7.50586">
        <ele>264.20001220703</ele>
        <time>2019-09-09T12:28:30Z</time>
      </trkpt>
      <trkpt lat="47.80576" lon="7.50584">
        <ele>264.20001220703</ele>
        <time>2019-09-09T12:28:40Z</time>
      </trkpt>
      <trkpt lat="47.80521" lon="7.50581">
        <ele>264.20001220703</ele>
        <time>2019-09-09T12:28:50Z</time>
      </trkpt>
      <trkpt lat="47.80479" lon="7.5058">
        <ele>264.20001220703</ele>
        <time>2019-09-09T12:28:58Z</time>
      </trkpt>
      <trkpt lat="47.80442" lon="7.50577">
        <ele>264.39999389648</ele>
        <time>2019-09-09T12:29:06Z</time>
      </trkpt>
      <trkpt lat="47.80402" lon="7.50572">
        <ele>264.79998779297</ele>
        <time>2019-09-09T12:29:14Z</time>
      </trkpt>
      <trkpt lat="47.80355" lon="7.50566">
        <ele>264.79998779297</ele>
        <time>2019-09-09T12:29:23Z</time>
      </trkpt>
      <trkpt lat="47.803" lon="7.50559">
        <ele>265</ele>
        <time>2019-09-09T12:29:33Z</time>
      </trkpt>
      <trkpt lat="47.80243" lon="7.50553">
        <ele>264.79998779297</ele>
        <time>2019-09-09T12:29:43Z</time>
      </trkpt>
      <trkpt lat="47.80204" lon="7.50547">
        <ele>264.79998779297</ele>
        <time>2019-09-09T12:29:50Z</time>
      </trkpt>
      <trkpt lat="47.80157" lon="7.50541">
        <ele>264.79998779297</ele>
        <time>2019-09-09T12:29:59Z</time>
      </trkpt>
      <trkpt lat="47.80112" lon="7.50536">
        <ele>265</ele>
        <time>2019-09-09T12:30:08Z</time>
      </trkpt>
      <trkpt lat="47.80062" lon="7.5053">
        <ele>265.20001220703</ele>
        <time>2019-09-09T12:30:18Z</time>
      </trkpt>
      <trkpt lat="47.8001" lon="7.50524">
        <ele>265.39999389648</ele>
        <time>2019-09-09T12:30:28Z</time>
      </trkpt>
      <trkpt lat="47.7996" lon="7.50519">
        <ele>265.60000610352</ele>
        <time>2019-09-09T12:30:38Z</time>
      </trkpt>
      <trkpt lat="47.79926" lon="7.50515">
        <ele>265.60000610352</ele>
        <time>2019-09-09T12:30:45Z</time>
      </trkpt>
      <trkpt lat="47.79875" lon="7.50509">
        <ele>265.39999389648</ele>
        <time>2019-09-09T12:30:55Z</time>
      </trkpt>
      <trkpt lat="47.79835" lon="7.50503">
        <ele>265.79998779297</ele>
        <time>2019-09-09T12:31:03Z</time>
      </trkpt>
      <trkpt lat="47.79799" lon="7.50498">
        <ele>265.79998779297</ele>
        <time>2019-09-09T12:31:10Z</time>
      </trkpt>
      <trkpt lat="47.79753" lon="7.5049">
        <ele>265.79998779297</ele>
        <time>2019-09-09T12:31:19Z</time>
      </trkpt>
      <trkpt lat="47.79743" lon="7.50487">
        <ele>265.79998779297</ele>
        <time>2019-09-09T12:31:21Z</time>
      </trkpt>
      <trkpt lat="47.79712" lon="7.50481">
        <ele>266</ele>
        <time>2019-09-09T12:31:27Z</time>
      </trkpt>
      <trkpt lat="47.79702" lon="7.50479">
        <ele>266</ele>
        <time>2019-09-09T12:31:29Z</time>
      </trkpt>
      <trkpt lat="47.79656" lon="7.5047">
        <ele>266</ele>
        <time>2019-09-09T12:31:38Z</time>
      </trkpt>
      <trkpt lat="47.79617" lon="7.50465">
        <ele>266</ele>
        <time>2019-09-09T12:31:46Z</time>
      </trkpt>
      <trkpt lat="47.79566" lon="7.50458">
        <ele>266.39999389648</ele>
        <time>2019-09-09T12:31:56Z</time>
      </trkpt>
      <trkpt lat="47.79516" lon="7.50452">
        <ele>266.39999389648</ele>
        <time>2019-09-09T12:32:06Z</time>
      </trkpt>
      <trkpt lat="47.79469" lon="7.50449">
        <ele>266.60000610352</ele>
        <time>2019-09-09T12:32:15Z</time>
      </trkpt>
      <trkpt lat="47.79464" lon="7.50448">
        <ele>266.60000610352</ele>
        <time>2019-09-09T12:32:16Z</time>
      </trkpt>
      <trkpt lat="47.79451" lon="7.50441">
        <ele>266.60000610352</ele>
        <time>2019-09-09T12:32:19Z</time>
      </trkpt>
      <trkpt lat="47.79447" lon="7.50438">
        <ele>266.60000610352</ele>
        <time>2019-09-09T12:32:20Z</time>
      </trkpt>
      <trkpt lat="47.79437" lon="7.50431">
        <ele>266.60000610352</ele>
        <time>2019-09-09T12:32:23Z</time>
      </trkpt>
      <trkpt lat="47.79432" lon="7.5043">
        <ele>266.60000610352</ele>
        <time>2019-09-09T12:32:24Z</time>
      </trkpt>
      <trkpt lat="47.79382" lon="7.50421">
        <ele>266.60000610352</ele>
        <time>2019-09-09T12:32:34Z</time>
      </trkpt>
      <trkpt lat="47.79332" lon="7.50412">
        <ele>266.60000610352</ele>
        <time>2019-09-09T12:32:44Z</time>
      </trkpt>
      <trkpt lat="47.79319" lon="7.50406">
        <ele>266.60000610352</ele>
        <time>2019-09-09T12:32:48Z</time>
      </trkpt>
      <trkpt lat="47.79319" lon="7.50404">
        <ele>266.60000610352</ele>
        <time>2019-09-09T12:32:51Z</time>
      </trkpt>
      <trkpt lat="47.79319" lon="7.504">
        <ele>266.79998779297</ele>
        <time>2019-09-09T12:32:55Z</time>
      </trkpt>
      <trkpt lat="47.79318" lon="7.50395">
        <ele>267.20001220703</ele>
        <time>2019-09-09T12:32:57Z</time>
      </trkpt>
      <trkpt lat="47.79312" lon="7.50393">
        <ele>267.79998779297</ele>
        <time>2019-09-09T12:32:59Z</time>
      </trkpt>
      <trkpt lat="47.79308" lon="7.50392">
        <ele>267.79998779297</ele>
        <time>2019-09-09T12:33:00Z</time>
      </trkpt>
      <trkpt lat="47.79285" lon="7.50389">
        <ele>268</ele>
        <time>2019-09-09T12:33:05Z</time>
      </trkpt>
      <trkpt lat="47.7925" lon="7.50393">
        <ele>268</ele>
        <time>2019-09-09T12:33:12Z</time>
      </trkpt>
      <trkpt lat="47.79234" lon="7.504">
        <ele>268</ele>
        <time>2019-09-09T12:33:15Z</time>
      </trkpt>
      <trkpt lat="47.79219" lon="7.50413">
        <ele>268</ele>
        <time>2019-09-09T12:33:18Z</time>
      </trkpt>
      <trkpt lat="47.79214" lon="7.50418">
        <ele>267.79998779297</ele>
        <time>2019-09-09T12:33:19Z</time>
      </trkpt>
      <trkpt lat="47.79197" lon="7.50442">
        <ele>267.39999389648</ele>
        <time>2019-09-09T12:33:23Z</time>
      </trkpt>
      <trkpt lat="47.79171" lon="7.50488">
        <ele>267</ele>
        <time>2019-09-09T12:33:30Z</time>
      </trkpt>
      <trkpt lat="47.79153" lon="7.50518">
        <ele>266.39999389648</ele>
        <time>2019-09-09T12:33:35Z</time>
      </trkpt>
      <trkpt lat="47.79148" lon="7.50523">
        <ele>266.39999389648</ele>
        <time>2019-09-09T12:33:36Z</time>
      </trkpt>
      <trkpt lat="47.79121" lon="7.50538">
        <ele>265.39999389648</ele>
        <time>2019-09-09T12:33:41Z</time>
      </trkpt>
      <trkpt lat="47.79115" lon="7.50538">
        <ele>265.20001220703</ele>
        <time>2019-09-09T12:33:42Z</time>
      </trkpt>
      <trkpt lat="47.79085" lon="7.5054">
        <ele>264.39999389648</ele>
        <time>2019-09-09T12:33:47Z</time>
      </trkpt>
      <trkpt lat="47.79073" lon="7.5054">
        <ele>264.20001220703</ele>
        <time>2019-09-09T12:33:49Z</time>
      </trkpt>
      <trkpt lat="47.79039" lon="7.50541">
        <ele>264.20001220703</ele>
        <time>2019-09-09T12:33:55Z</time>
      </trkpt>
      <trkpt lat="47.79034" lon="7.50542">
        <ele>264.20001220703</ele>
        <time>2019-09-09T12:33:56Z</time>
      </trkpt>
      <trkpt lat="47.7902" lon="7.50554">
        <ele>264.20001220703</ele>
        <time>2019-09-09T12:33:59Z</time>
      </trkpt>
      <trkpt lat="47.7901" lon="7.50574">
        <ele>264.20001220703</ele>
        <time>2019-09-09T12:34:02Z</time>
      </trkpt>
      <trkpt lat="47.79003" lon="7.50588">
        <ele>264.20001220703</ele>
        <time>2019-09-09T12:34:04Z</time>
      </trkpt>
      <trkpt lat="47.79" lon="7.506">
        <ele>264.20001220703</ele>
        <time>2019-09-09T12:34:06Z</time>
      </trkpt>
      <trkpt lat="47.79" lon="7.50604">
        <ele>264.20001220703</ele>
        <time>2019-09-09T12:34:07Z</time>
      </trkpt>
      <trkpt lat="47.79005" lon="7.50623">
        <ele>264</ele>
        <time>2019-09-09T12:34:12Z</time>
      </trkpt>
      <trkpt lat="47.79007" lon="7.50641">
        <ele>263.79998779297</ele>
        <time>2019-09-09T12:34:17Z</time>
      </trkpt>
      <trkpt lat="47.79014" lon="7.50639">
        <ele>263.60000610352</ele>
        <time>2019-09-09T12:34:21Z</time>
      </trkpt>
      <trkpt lat="47.79016" lon="7.50637">
        <ele>263.60000610352</ele>
        <time>2019-09-09T12:34:24Z</time>
      </trkpt>
      <trkpt lat="47.79016" lon="7.50637">
        <ele>263.39999389648</ele>
        <time>2019-09-09T12:34:25Z</time>
      </trkpt>
      <trkpt lat="47.79015" lon="7.50633">
        <ele>263.60000610352</ele>
        <time>2019-09-09T12:40:12Z</time>
      </trkpt>
      <trkpt lat="47.79011" lon="7.50615">
        <ele>263.60000610352</ele>
        <time>2019-09-09T12:40:17Z</time>
      </trkpt>
      <trkpt lat="47.79006" lon="7.50609">
        <ele>263.60000610352</ele>
        <time>2019-09-09T12:40:19Z</time>
      </trkpt>
      <trkpt lat="47.79002" lon="7.50608">
        <ele>263.60000610352</ele>
        <time>2019-09-09T12:40:20Z</time>
      </trkpt>
      <trkpt lat="47.78992" lon="7.50615">
        <ele>263.60000610352</ele>
        <time>2019-09-09T12:40:23Z</time>
      </trkpt>
      <trkpt lat="47.78989" lon="7.50618">
        <ele>263.60000610352</ele>
        <time>2019-09-09T12:40:24Z</time>
      </trkpt>
      <trkpt lat="47.78985" lon="7.50621">
        <ele>263.79998779297</ele>
        <time>2019-09-09T12:40:25Z</time>
      </trkpt>
      <trkpt lat="47.78977" lon="7.50624">
        <ele>264</ele>
        <time>2019-09-09T12:40:27Z</time>
      </trkpt>
      <trkpt lat="47.78969" lon="7.50626">
        <ele>264</ele>
        <time>2019-09-09T12:40:29Z</time>
      </trkpt>
      <trkpt lat="47.78937" lon="7.50629">
        <ele>264</ele>
        <time>2019-09-09T12:40:36Z</time>
      </trkpt>
      <trkpt lat="47.78918" lon="7.50631">
        <ele>263.79998779297</ele>
        <time>2019-09-09T12:40:40Z</time>
      </trkpt>
      <trkpt lat="47.78903" lon="7.50633">
        <ele>264</ele>
        <time>2019-09-09T12:40:43Z</time>
      </trkpt>
      <trkpt lat="47.78868" lon="7.50635">
        <ele>263.79998779297</ele>
        <time>2019-09-09T12:40:50Z</time>
      </trkpt>
      <trkpt lat="47.78826" lon="7.50637">
        <ele>264</ele>
        <time>2019-09-09T12:40:58Z</time>
      </trkpt>
      <trkpt lat="47.78784" lon="7.50639">
        <ele>264.20001220703</ele>
        <time>2019-09-09T12:41:06Z</time>
      </trkpt>
      <trkpt lat="47.78736" lon="7.50642">
        <ele>264</ele>
        <time>2019-09-09T12:41:15Z</time>
      </trkpt>
      <trkpt lat="47.78688" lon="7.50646">
        <ele>264.20001220703</ele>
        <time>2019-09-09T12:41:24Z</time>
      </trkpt>
      <trkpt lat="47.78647" lon="7.50648">
        <ele>264.20001220703</ele>
        <time>2019-09-09T12:41:32Z</time>
      </trkpt>
      <trkpt lat="47.78611" lon="7.50647">
        <ele>264.20001220703</ele>
        <time>2019-09-09T12:41:39Z</time>
      </trkpt>
      <trkpt lat="47.78581" lon="7.50631">
        <ele>264.39999389648</ele>
        <time>2019-09-09T12:41:45Z</time>
      </trkpt>
      <trkpt lat="47.78561" lon="7.50609">
        <ele>264.60000610352</ele>
        <time>2019-09-09T12:41:50Z</time>
      </trkpt>
      <trkpt lat="47.78539" lon="7.50579">
        <ele>264.79998779297</ele>
        <time>2019-09-09T12:41:56Z</time>
      </trkpt>
      <trkpt lat="47.78532" lon="7.50569">
        <ele>264.79998779297</ele>
        <time>2019-09-09T12:41:58Z</time>
      </trkpt>
      <trkpt lat="47.78511" lon="7.50539">
        <ele>264.79998779297</ele>
        <time>2019-09-09T12:42:04Z</time>
      </trkpt>
      <trkpt lat="47.7848" lon="7.50495">
        <ele>265.20001220703</ele>
        <time>2019-09-09T12:42:13Z</time>
      </trkpt>
      <trkpt lat="47.78457" lon="7.50458">
        <ele>266</ele>
        <time>2019-09-09T12:42:20Z</time>
      </trkpt>
      <trkpt lat="47.7845" lon="7.50448">
        <ele>266.20001220703</ele>
        <time>2019-09-09T12:42:22Z</time>
      </trkpt>
      <trkpt lat="47.78435" lon="7.50422">
        <ele>266.20001220703</ele>
        <time>2019-09-09T12:42:27Z</time>
      </trkpt>
      <trkpt lat="47.78428" lon="7.50409">
        <ele>266.39999389648</ele>
        <time>2019-09-09T12:42:30Z</time>
      </trkpt>
      <trkpt lat="47.78428" lon="7.50407">
        <ele>266.39999389648</ele>
        <time>2019-09-09T12:42:31Z</time>
      </trkpt>
      <trkpt lat="47.78428" lon="7.50407">
        <ele>266.39999389648</ele>
        <time>2019-09-09T12:42:33Z</time>
      </trkpt>
      <trkpt lat="47.78429" lon="7.50406">
        <ele>266.39999389648</ele>
        <time>2019-09-09T12:42:43Z</time>
      </trkpt>
      <trkpt lat="47.78432" lon="7.50404">
        <ele>266.39999389648</ele>
        <time>2019-09-09T12:42:45Z</time>
      </trkpt>
      <trkpt lat="47.78447" lon="7.50393">
        <ele>266.39999389648</ele>
        <time>2019-09-09T12:42:50Z</time>
      </trkpt>
      <trkpt lat="47.78467" lon="7.50376">
        <ele>266.20001220703</ele>
        <time>2019-09-09T12:42:55Z</time>
      </trkpt>
      <trkpt lat="47.7847" lon="7.50371">
        <ele>266.20001220703</ele>
        <time>2019-09-09T12:42:56Z</time>
      </trkpt>
      <trkpt lat="47.78494" lon="7.50338">
        <ele>266</ele>
        <time>2019-09-09T12:43:03Z</time>
      </trkpt>
      <trkpt lat="47.78519" lon="7.50304">
        <ele>265.79998779297</ele>
        <time>2019-09-09T12:43:10Z</time>
      </trkpt>
      <trkpt lat="47.78525" lon="7.5029">
        <ele>265.79998779297</ele>
        <time>2019-09-09T12:43:13Z</time>
      </trkpt>
      <trkpt lat="47.78521" lon="7.5029">
        <ele>265.79998779297</ele>
        <time>2019-09-09T12:43:16Z</time>
      </trkpt>
      <trkpt lat="47.78513" lon="7.50303">
        <ele>265.60000610352</ele>
        <time>2019-09-09T12:43:20Z</time>
      </trkpt>
      <trkpt lat="47.78496" lon="7.5033">
        <ele>265.39999389648</ele>
        <time>2019-09-09T12:43:26Z</time>
      </trkpt>
      <trkpt lat="47.78466" lon="7.5037">
        <ele>265.60000610352</ele>
        <time>2019-09-09T12:43:35Z</time>
      </trkpt>
      <trkpt lat="47.7844" lon="7.50397">
        <ele>266.39999389648</ele>
        <time>2019-09-09T12:43:42Z</time>
      </trkpt>
      <trkpt lat="47.7843" lon="7.50405">
        <ele>266.39999389648</ele>
        <time>2019-09-09T12:43:45Z</time>
      </trkpt>
      <trkpt lat="47.78427" lon="7.50406">
        <ele>266.39999389648</ele>
        <time>2019-09-09T12:43:46Z</time>
      </trkpt>
      <trkpt lat="47.78419" lon="7.50396">
        <ele>266.60000610352</ele>
        <time>2019-09-09T12:43:49Z</time>
      </trkpt>
      <trkpt lat="47.78417" lon="7.50391">
        <ele>266.60000610352</ele>
        <time>2019-09-09T12:43:50Z</time>
      </trkpt>
      <trkpt lat="47.78403" lon="7.50366">
        <ele>266.79998779297</ele>
        <time>2019-09-09T12:43:55Z</time>
      </trkpt>
      <trkpt lat="47.78381" lon="7.50331">
        <ele>267</ele>
        <time>2019-09-09T12:44:02Z</time>
      </trkpt>
      <trkpt lat="47.78357" lon="7.50291">
        <ele>267.20001220703</ele>
        <time>2019-09-09T12:44:10Z</time>
      </trkpt>
      <trkpt lat="47.78352" lon="7.50282">
        <ele>267.39999389648</ele>
        <time>2019-09-09T12:44:12Z</time>
      </trkpt>
      <trkpt lat="47.78338" lon="7.50254">
        <ele>267.60000610352</ele>
        <time>2019-09-09T12:44:17Z</time>
      </trkpt>
      <trkpt lat="47.78335" lon="7.50248">
        <ele>267.79998779297</ele>
        <time>2019-09-09T12:44:18Z</time>
      </trkpt>
      <trkpt lat="47.78331" lon="7.50228">
        <ele>267.79998779297</ele>
        <time>2019-09-09T12:44:21Z</time>
      </trkpt>
      <trkpt lat="47.78329" lon="7.50215">
        <ele>268</ele>
        <time>2019-09-09T12:44:23Z</time>
      </trkpt>
      <trkpt lat="47.78324" lon="7.50203">
        <ele>268.20001220703</ele>
        <time>2019-09-09T12:44:25Z</time>
      </trkpt>
      <trkpt lat="47.78316" lon="7.50198">
        <ele>268.39999389648</ele>
        <time>2019-09-09T12:44:27Z</time>
      </trkpt>
      <trkpt lat="47.78311" lon="7.50196">
        <ele>268.39999389648</ele>
        <time>2019-09-09T12:44:28Z</time>
      </trkpt>
      <trkpt lat="47.78307" lon="7.50194">
        <ele>268.39999389648</ele>
        <time>2019-09-09T12:44:29Z</time>
      </trkpt>
      <trkpt lat="47.78291" lon="7.50175">
        <ele>268.60000610352</ele>
        <time>2019-09-09T12:44:34Z</time>
      </trkpt>
      <trkpt lat="47.78289" lon="7.50169">
        <ele>268.60000610352</ele>
        <time>2019-09-09T12:44:35Z</time>
      </trkpt>
      <trkpt lat="47.7828" lon="7.50145">
        <ele>268.60000610352</ele>
        <time>2019-09-09T12:44:39Z</time>
      </trkpt>
      <trkpt lat="47.78277" lon="7.50132">
        <ele>268.79998779297</ele>
        <time>2019-09-09T12:44:41Z</time>
      </trkpt>
      <trkpt lat="47.78259" lon="7.50054">
        <ele>269</ele>
        <time>2019-09-09T12:44:52Z</time>
      </trkpt>
      <trkpt lat="47.78247" lon="7.50004">
        <ele>269.39999389648</ele>
        <time>2019-09-09T12:44:59Z</time>
      </trkpt>
      <trkpt lat="47.78241" lon="7.49976">
        <ele>269.79998779297</ele>
        <time>2019-09-09T12:45:03Z</time>
      </trkpt>
      <trkpt lat="47.78225" lon="7.49904">
        <ele>270.60000610352</ele>
        <time>2019-09-09T12:45:13Z</time>
      </trkpt>
      <trkpt lat="47.78218" lon="7.49875">
        <ele>270.60000610352</ele>
        <time>2019-09-09T12:45:17Z</time>
      </trkpt>
      <trkpt lat="47.7821" lon="7.49839">
        <ele>270.60000610352</ele>
        <time>2019-09-09T12:45:22Z</time>
      </trkpt>
      <trkpt lat="47.78192" lon="7.49759">
        <ele>271</ele>
        <time>2019-09-09T12:45:33Z</time>
      </trkpt>
      <trkpt lat="47.7819" lon="7.49752">
        <ele>271</ele>
        <time>2019-09-09T12:45:34Z</time>
      </trkpt>
      <trkpt lat="47.78177" lon="7.49695">
        <ele>271.20001220703</ele>
        <time>2019-09-09T12:45:42Z</time>
      </trkpt>
      <trkpt lat="47.78159" lon="7.49615">
        <ele>271.60000610352</ele>
        <time>2019-09-09T12:45:53Z</time>
      </trkpt>
      <trkpt lat="47.78144" lon="7.49551">
        <ele>271.60000610352</ele>
        <time>2019-09-09T12:46:02Z</time>
      </trkpt>
      <trkpt lat="47.78142" lon="7.49543">
        <ele>271.60000610352</ele>
        <time>2019-09-09T12:46:03Z</time>
      </trkpt>
      <trkpt lat="47.78126" lon="7.4947">
        <ele>271.79998779297</ele>
        <time>2019-09-09T12:46:13Z</time>
      </trkpt>
      <trkpt lat="47.78119" lon="7.49441">
        <ele>271.79998779297</ele>
        <time>2019-09-09T12:46:17Z</time>
      </trkpt>
      <trkpt lat="47.78111" lon="7.49405">
        <ele>272.20001220703</ele>
        <time>2019-09-09T12:46:22Z</time>
      </trkpt>
      <trkpt lat="47.78099" lon="7.49354">
        <ele>272.39999389648</ele>
        <time>2019-09-09T12:46:30Z</time>
      </trkpt>
      <trkpt lat="47.78086" lon="7.49293">
        <ele>272.79998779297</ele>
        <time>2019-09-09T12:46:40Z</time>
      </trkpt>
      <trkpt lat="47.78084" lon="7.49287">
        <ele>272.79998779297</ele>
        <time>2019-09-09T12:46:41Z</time>
      </trkpt>
      <trkpt lat="47.78069" lon="7.49219">
        <ele>273.60000610352</ele>
        <time>2019-09-09T12:46:52Z</time>
      </trkpt>
      <trkpt lat="47.78058" lon="7.49169">
        <ele>273.60000610352</ele>
        <time>2019-09-09T12:47:00Z</time>
      </trkpt>
      <trkpt lat="47.78044" lon="7.49116">
        <ele>273.60000610352</ele>
        <time>2019-09-09T12:47:08Z</time>
      </trkpt>
      <trkpt lat="47.78026" lon="7.49057">
        <ele>273.39999389648</ele>
        <time>2019-09-09T12:47:17Z</time>
      </trkpt>
      <trkpt lat="47.78024" lon="7.49052">
        <ele>273.39999389648</ele>
        <time>2019-09-09T12:47:18Z</time>
      </trkpt>
      <trkpt lat="47.78016" lon="7.49032">
        <ele>273.39999389648</ele>
        <time>2019-09-09T12:47:22Z</time>
      </trkpt>
      <trkpt lat="47.78009" lon="7.49018">
        <ele>273.39999389648</ele>
        <time>2019-09-09T12:47:25Z</time>
      </trkpt>
      <trkpt lat="47.78001" lon="7.49">
        <ele>273.39999389648</ele>
        <time>2019-09-09T12:47:28Z</time>
      </trkpt>
      <trkpt lat="47.77981" lon="7.48947">
        <ele>273.60000610352</ele>
        <time>2019-09-09T12:47:36Z</time>
      </trkpt>
      <trkpt lat="47.7797" lon="7.48922">
        <ele>273.79998779297</ele>
        <time>2019-09-09T12:47:40Z</time>
      </trkpt>
      <trkpt lat="47.77962" lon="7.48904">
        <ele>274</ele>
        <time>2019-09-09T12:47:43Z</time>
      </trkpt>
      <trkpt lat="47.77948" lon="7.48872">
        <ele>274</ele>
        <time>2019-09-09T12:47:48Z</time>
      </trkpt>
      <trkpt lat="47.77943" lon="7.4886">
        <ele>274.20001220703</ele>
        <time>2019-09-09T12:47:50Z</time>
      </trkpt>
      <trkpt lat="47.77932" lon="7.48827">
        <ele>274.20001220703</ele>
        <time>2019-09-09T12:47:55Z</time>
      </trkpt>
      <trkpt lat="47.77924" lon="7.48807">
        <ele>274.39999389648</ele>
        <time>2019-09-09T12:47:58Z</time>
      </trkpt>
      <trkpt lat="47.77914" lon="7.4878">
        <ele>274.39999389648</ele>
        <time>2019-09-09T12:48:02Z</time>
      </trkpt>
      <trkpt lat="47.77894" lon="7.48725">
        <ele>274.60000610352</ele>
        <time>2019-09-09T12:48:10Z</time>
      </trkpt>
      <trkpt lat="47.77877" lon="7.48678">
        <ele>275</ele>
        <time>2019-09-09T12:48:17Z</time>
      </trkpt>
      <trkpt lat="47.77873" lon="7.48664">
        <ele>275.20001220703</ele>
        <time>2019-09-09T12:48:19Z</time>
      </trkpt>
      <trkpt lat="47.77861" lon="7.48632">
        <ele>275.39999389648</ele>
        <time>2019-09-09T12:48:24Z</time>
      </trkpt>
      <trkpt lat="47.77859" lon="7.48626">
        <ele>275.39999389648</ele>
        <time>2019-09-09T12:48:25Z</time>
      </trkpt>
      <trkpt lat="47.77851" lon="7.48605">
        <ele>275.20001220703</ele>
        <time>2019-09-09T12:48:28Z</time>
      </trkpt>
      <trkpt lat="47.77835" lon="7.48566">
        <ele>275.39999389648</ele>
        <time>2019-09-09T12:48:34Z</time>
      </trkpt>
      <trkpt lat="47.77818" lon="7.48525">
        <ele>275.39999389648</ele>
        <time>2019-09-09T12:48:40Z</time>
      </trkpt>
      <trkpt lat="47.77797" lon="7.48467">
        <ele>275.39999389648</ele>
        <time>2019-09-09T12:48:48Z</time>
      </trkpt>
      <trkpt lat="47.77779" lon="7.48417">
        <ele>274.79998779297</ele>
        <time>2019-09-09T12:48:55Z</time>
      </trkpt>
      <trkpt lat="47.77761" lon="7.48375">
        <ele>274.60000610352</ele>
        <time>2019-09-09T12:49:01Z</time>
      </trkpt>
      <trkpt lat="47.77747" lon="7.48336">
        <ele>274.60000610352</ele>
        <time>2019-09-09T12:49:07Z</time>
      </trkpt>
      <trkpt lat="47.77728" lon="7.48285">
        <ele>275</ele>
        <time>2019-09-09T12:49:15Z</time>
      </trkpt>
      <trkpt lat="47.77725" lon="7.48278">
        <ele>275.20001220703</ele>
        <time>2019-09-09T12:49:16Z</time>
      </trkpt>
      <trkpt lat="47.77715" lon="7.48251">
        <ele>275.20001220703</ele>
        <time>2019-09-09T12:49:20Z</time>
      </trkpt>
      <trkpt lat="47.77698" lon="7.48204">
        <ele>275</ele>
        <time>2019-09-09T12:49:27Z</time>
      </trkpt>
      <trkpt lat="47.77678" lon="7.4815">
        <ele>275</ele>
        <time>2019-09-09T12:49:35Z</time>
      </trkpt>
      <trkpt lat="47.77664" lon="7.48114">
        <ele>275.20001220703</ele>
        <time>2019-09-09T12:49:41Z</time>
      </trkpt>
      <trkpt lat="47.77647" lon="7.48067">
        <ele>275.20001220703</ele>
        <time>2019-09-09T12:49:48Z</time>
      </trkpt>
      <trkpt lat="47.7763" lon="7.48019">
        <ele>275.20001220703</ele>
        <time>2019-09-09T12:49:55Z</time>
      </trkpt>
      <trkpt lat="47.77611" lon="7.47964">
        <ele>275.39999389648</ele>
        <time>2019-09-09T12:50:03Z</time>
      </trkpt>
      <trkpt lat="47.77597" lon="7.47923">
        <ele>275.39999389648</ele>
        <time>2019-09-09T12:50:09Z</time>
      </trkpt>
      <trkpt lat="47.77576" lon="7.47869">
        <ele>275.60000610352</ele>
        <time>2019-09-09T12:50:17Z</time>
      </trkpt>
      <trkpt lat="47.77559" lon="7.47822">
        <ele>275.39999389648</ele>
        <time>2019-09-09T12:50:24Z</time>
      </trkpt>
      <trkpt lat="47.77539" lon="7.47767">
        <ele>275.39999389648</ele>
        <time>2019-09-09T12:50:32Z</time>
      </trkpt>
      <trkpt lat="47.77523" lon="7.47727">
        <ele>275.39999389648</ele>
        <time>2019-09-09T12:50:38Z</time>
      </trkpt>
      <trkpt lat="47.77521" lon="7.4772">
        <ele>275.39999389648</ele>
        <time>2019-09-09T12:50:39Z</time>
      </trkpt>
      <trkpt lat="47.77504" lon="7.47673">
        <ele>275.39999389648</ele>
        <time>2019-09-09T12:50:46Z</time>
      </trkpt>
      <trkpt lat="47.77486" lon="7.47626">
        <ele>275.60000610352</ele>
        <time>2019-09-09T12:50:53Z</time>
      </trkpt>
      <trkpt lat="47.77464" lon="7.47567">
        <ele>275.79998779297</ele>
        <time>2019-09-09T12:51:02Z</time>
      </trkpt>
      <trkpt lat="47.77452" lon="7.47534">
        <ele>275.60000610352</ele>
        <time>2019-09-09T12:51:07Z</time>
      </trkpt>
      <trkpt lat="47.77445" lon="7.47514">
        <ele>275.60000610352</ele>
        <time>2019-09-09T12:51:10Z</time>
      </trkpt>
      <trkpt lat="47.77421" lon="7.47448">
        <ele>276</ele>
        <time>2019-09-09T12:51:20Z</time>
      </trkpt>
      <trkpt lat="47.77409" lon="7.47417">
        <ele>276</ele>
        <time>2019-09-09T12:51:25Z</time>
      </trkpt>
      <trkpt lat="47.7739" lon="7.47373">
        <ele>276.20001220703</ele>
        <time>2019-09-09T12:51:32Z</time>
      </trkpt>
      <trkpt lat="47.77373" lon="7.47331">
        <ele>276.39999389648</ele>
        <time>2019-09-09T12:51:39Z</time>
      </trkpt>
      <trkpt lat="47.77371" lon="7.47324">
        <ele>276.39999389648</ele>
        <time>2019-09-09T12:51:40Z</time>
      </trkpt>
      <trkpt lat="47.77349" lon="7.4726">
        <ele>276.60000610352</ele>
        <time>2019-09-09T12:51:49Z</time>
      </trkpt>
      <trkpt lat="47.7733" lon="7.47204">
        <ele>276.79998779297</ele>
        <time>2019-09-09T12:51:57Z</time>
      </trkpt>
      <trkpt lat="47.77306" lon="7.47136">
        <ele>277</ele>
        <time>2019-09-09T12:52:07Z</time>
      </trkpt>
      <trkpt lat="47.77279" lon="7.47062">
        <ele>277</ele>
        <time>2019-09-09T12:52:18Z</time>
      </trkpt>
      <trkpt lat="47.77257" lon="7.47001">
        <ele>277</ele>
        <time>2019-09-09T12:52:27Z</time>
      </trkpt>
      <trkpt lat="47.77237" lon="7.46947">
        <ele>277</ele>
        <time>2019-09-09T12:52:35Z</time>
      </trkpt>
      <trkpt lat="47.77212" lon="7.4688">
        <ele>277.20001220703</ele>
        <time>2019-09-09T12:52:45Z</time>
      </trkpt>
      <trkpt lat="47.77197" lon="7.46839">
        <ele>277.20001220703</ele>
        <time>2019-09-09T12:52:51Z</time>
      </trkpt>
      <trkpt lat="47.77195" lon="7.46832">
        <ele>277.20001220703</ele>
        <time>2019-09-09T12:52:52Z</time>
      </trkpt>
      <trkpt lat="47.7717" lon="7.46766">
        <ele>277.20001220703</ele>
        <time>2019-09-09T12:53:02Z</time>
      </trkpt>
      <trkpt lat="47.7715" lon="7.4671">
        <ele>277.20001220703</ele>
        <time>2019-09-09T12:53:10Z</time>
      </trkpt>
      <trkpt lat="47.77133" lon="7.46664">
        <ele>277.20001220703</ele>
        <time>2019-09-09T12:53:17Z</time>
      </trkpt>
      <trkpt lat="47.77112" lon="7.46609">
        <ele>277.39999389648</ele>
        <time>2019-09-09T12:53:25Z</time>
      </trkpt>
      <trkpt lat="47.77092" lon="7.46556">
        <ele>277.39999389648</ele>
        <time>2019-09-09T12:53:33Z</time>
      </trkpt>
      <trkpt lat="47.77072" lon="7.46503">
        <ele>277.39999389648</ele>
        <time>2019-09-09T12:53:41Z</time>
      </trkpt>
      <trkpt lat="47.77049" lon="7.46444">
        <ele>277.39999389648</ele>
        <time>2019-09-09T12:53:50Z</time>
      </trkpt>
      <trkpt lat="47.77024" lon="7.46377">
        <ele>277.60000610352</ele>
        <time>2019-09-09T12:54:00Z</time>
      </trkpt>
      <trkpt lat="47.77019" lon="7.46363">
        <ele>277.60000610352</ele>
        <time>2019-09-09T12:54:02Z</time>
      </trkpt>
      <trkpt lat="47.76996" lon="7.46302">
        <ele>277.60000610352</ele>
        <time>2019-09-09T12:54:11Z</time>
      </trkpt>
      <trkpt lat="47.76974" lon="7.46242">
        <ele>278</ele>
        <time>2019-09-09T12:54:20Z</time>
      </trkpt>
      <trkpt lat="47.76951" lon="7.46175">
        <ele>278.20001220703</ele>
        <time>2019-09-09T12:54:30Z</time>
      </trkpt>
      <trkpt lat="47.76933" lon="7.46127">
        <ele>278.39999389648</ele>
        <time>2019-09-09T12:54:38Z</time>
      </trkpt>
      <trkpt lat="47.76905" lon="7.46054">
        <ele>278.60000610352</ele>
        <time>2019-09-09T12:54:49Z</time>
      </trkpt>
      <trkpt lat="47.76902" lon="7.46047">
        <ele>278.60000610352</ele>
        <time>2019-09-09T12:54:50Z</time>
      </trkpt>
      <trkpt lat="47.76882" lon="7.45991">
        <ele>278.60000610352</ele>
        <time>2019-09-09T12:54:58Z</time>
      </trkpt>
      <trkpt lat="47.76859" lon="7.4593">
        <ele>278.60000610352</ele>
        <time>2019-09-09T12:55:07Z</time>
      </trkpt>
      <trkpt lat="47.76839" lon="7.45877">
        <ele>278.60000610352</ele>
        <time>2019-09-09T12:55:15Z</time>
      </trkpt>
      <trkpt lat="47.76815" lon="7.45811">
        <ele>278.79998779297</ele>
        <time>2019-09-09T12:55:25Z</time>
      </trkpt>
      <trkpt lat="47.76792" lon="7.45751">
        <ele>278.79998779297</ele>
        <time>2019-09-09T12:55:34Z</time>
      </trkpt>
      <trkpt lat="47.76772" lon="7.45696">
        <ele>278.60000610352</ele>
        <time>2019-09-09T12:55:42Z</time>
      </trkpt>
      <trkpt lat="47.76752" lon="7.45642">
        <ele>278.60000610352</ele>
        <time>2019-09-09T12:55:50Z</time>
      </trkpt>
      <trkpt lat="47.76727" lon="7.45576">
        <ele>278.60000610352</ele>
        <time>2019-09-09T12:56:00Z</time>
      </trkpt>
      <trkpt lat="47.76704" lon="7.45515">
        <ele>278.60000610352</ele>
        <time>2019-09-09T12:56:09Z</time>
      </trkpt>
      <trkpt lat="47.76685" lon="7.45462">
        <ele>278.39999389648</ele>
        <time>2019-09-09T12:56:17Z</time>
      </trkpt>
      <trkpt lat="47.76678" lon="7.45443">
        <ele>278.39999389648</ele>
        <time>2019-09-09T12:56:20Z</time>
      </trkpt>
      <trkpt lat="47.7666" lon="7.45398">
        <ele>278</ele>
        <time>2019-09-09T12:56:27Z</time>
      </trkpt>
      <trkpt lat="47.76639" lon="7.45338">
        <ele>278</ele>
        <time>2019-09-09T12:56:36Z</time>
      </trkpt>
      <trkpt lat="47.76615" lon="7.45273">
        <ele>278.39999389648</ele>
        <time>2019-09-09T12:56:46Z</time>
      </trkpt>
      <trkpt lat="47.76593" lon="7.45214">
        <ele>278.60000610352</ele>
        <time>2019-09-09T12:56:55Z</time>
      </trkpt>
      <trkpt lat="47.76574" lon="7.45163">
        <ele>278.79998779297</ele>
        <time>2019-09-09T12:57:03Z</time>
      </trkpt>
      <trkpt lat="47.76556" lon="7.4511">
        <ele>278.79998779297</ele>
        <time>2019-09-09T12:57:11Z</time>
      </trkpt>
      <trkpt lat="47.76534" lon="7.45049">
        <ele>278.79998779297</ele>
        <time>2019-09-09T12:57:20Z</time>
      </trkpt>
      <trkpt lat="47.76514" lon="7.4499">
        <ele>278.60000610352</ele>
        <time>2019-09-09T12:57:29Z</time>
      </trkpt>
      <trkpt lat="47.76512" lon="7.44983">
        <ele>278.60000610352</ele>
        <time>2019-09-09T12:57:30Z</time>
      </trkpt>
      <trkpt lat="47.76509" lon="7.44961">
        <ele>278.60000610352</ele>
        <time>2019-09-09T12:57:33Z</time>
      </trkpt>
      <trkpt lat="47.76508" lon="7.44953">
        <ele>278.60000610352</ele>
        <time>2019-09-09T12:57:34Z</time>
      </trkpt>
      <trkpt lat="47.76508" lon="7.44938">
        <ele>278.60000610352</ele>
        <time>2019-09-09T12:57:36Z</time>
      </trkpt>
      <trkpt lat="47.76509" lon="7.4493">
        <ele>278.39999389648</ele>
        <time>2019-09-09T12:57:37Z</time>
      </trkpt>
      <trkpt lat="47.76514" lon="7.44901">
        <ele>278.39999389648</ele>
        <time>2019-09-09T12:57:41Z</time>
      </trkpt>
      <trkpt lat="47.7653" lon="7.44837">
        <ele>278.39999389648</ele>
        <time>2019-09-09T12:57:50Z</time>
      </trkpt>
      <trkpt lat="47.76549" lon="7.44766">
        <ele>278.60000610352</ele>
        <time>2019-09-09T12:58:00Z</time>
      </trkpt>
      <trkpt lat="47.76574" lon="7.44691">
        <ele>278.39999389648</ele>
        <time>2019-09-09T12:58:11Z</time>
      </trkpt>
      <trkpt lat="47.76581" lon="7.44673">
        <ele>278.39999389648</ele>
        <time>2019-09-09T12:58:14Z</time>
      </trkpt>
      <trkpt lat="47.76586" lon="7.44654">
        <ele>278.39999389648</ele>
        <time>2019-09-09T12:58:17Z</time>
      </trkpt>
      <trkpt lat="47.7659" lon="7.44626">
        <ele>278.39999389648</ele>
        <time>2019-09-09T12:58:21Z</time>
      </trkpt>
      <trkpt lat="47.76588" lon="7.4462">
        <ele>278.39999389648</ele>
        <time>2019-09-09T12:58:22Z</time>
      </trkpt>
      <trkpt lat="47.76579" lon="7.44612">
        <ele>278.39999389648</ele>
        <time>2019-09-09T12:58:25Z</time>
      </trkpt>
      <trkpt lat="47.76575" lon="7.4461">
        <ele>278.20001220703</ele>
        <time>2019-09-09T12:58:26Z</time>
      </trkpt>
      <trkpt lat="47.7655" lon="7.446">
        <ele>278.20001220703</ele>
        <time>2019-09-09T12:58:31Z</time>
      </trkpt>
      <trkpt lat="47.76506" lon="7.44582">
        <ele>278.39999389648</ele>
        <time>2019-09-09T12:58:40Z</time>
      </trkpt>
      <trkpt lat="47.76491" lon="7.44575">
        <ele>278.39999389648</ele>
        <time>2019-09-09T12:58:43Z</time>
      </trkpt>
      <trkpt lat="47.76472" lon="7.44569">
        <ele>278.60000610352</ele>
        <time>2019-09-09T12:58:47Z</time>
      </trkpt>
      <trkpt lat="47.76441" lon="7.44556">
        <ele>278.60000610352</ele>
        <time>2019-09-09T12:58:53Z</time>
      </trkpt>
      <trkpt lat="47.76406" lon="7.44539">
        <ele>278.39999389648</ele>
        <time>2019-09-09T12:59:00Z</time>
      </trkpt>
      <trkpt lat="47.76394" lon="7.44528">
        <ele>278.20001220703</ele>
        <time>2019-09-09T12:59:03Z</time>
      </trkpt>
      <trkpt lat="47.7639" lon="7.44516">
        <ele>278.20001220703</ele>
        <time>2019-09-09T12:59:05Z</time>
      </trkpt>
      <trkpt lat="47.76379" lon="7.44474">
        <ele>278.60000610352</ele>
        <time>2019-09-09T12:59:11Z</time>
      </trkpt>
      <trkpt lat="47.76376" lon="7.44462">
        <ele>278.60000610352</ele>
        <time>2019-09-09T12:59:13Z</time>
      </trkpt>
      <trkpt lat="47.76374" lon="7.44455">
        <ele>278.60000610352</ele>
        <time>2019-09-09T12:59:14Z</time>
      </trkpt>
      <trkpt lat="47.76369" lon="7.44428">
        <ele>278.79998779297</ele>
        <time>2019-09-09T12:59:18Z</time>
      </trkpt>
      <trkpt lat="47.76362" lon="7.44393">
        <ele>279.20001220703</ele>
        <time>2019-09-09T12:59:24Z</time>
      </trkpt>
      <trkpt lat="47.76352" lon="7.44362">
        <ele>280.20001220703</ele>
        <time>2019-09-09T12:59:31Z</time>
      </trkpt>
      <trkpt lat="47.76349" lon="7.44349">
        <ele>281.20001220703</ele>
        <time>2019-09-09T12:59:35Z</time>
      </trkpt>
      <trkpt lat="47.76349" lon="7.44343">
        <ele>281.60000610352</ele>
        <time>2019-09-09T12:59:37Z</time>
      </trkpt>
      <trkpt lat="47.76351" lon="7.4432">
        <ele>282.39999389648</ele>
        <time>2019-09-09T12:59:43Z</time>
      </trkpt>
      <trkpt lat="47.76351" lon="7.44317">
        <ele>282.39999389648</ele>
        <time>2019-09-09T12:59:44Z</time>
      </trkpt>
      <trkpt lat="47.76351" lon="7.44304">
        <ele>282.39999389648</ele>
        <time>2019-09-09T12:59:50Z</time>
      </trkpt>
      <trkpt lat="47.7635" lon="7.44304">
        <ele>282.39999389648</ele>
        <time>2019-09-09T13:01:12Z</time>
      </trkpt>
      <trkpt lat="47.7635" lon="7.44308">
        <ele>282.20001220703</ele>
        <time>2019-09-09T13:01:15Z</time>
      </trkpt>
      <trkpt lat="47.7635" lon="7.44316">
        <ele>282.20001220703</ele>
        <time>2019-09-09T13:01:17Z</time>
      </trkpt>
      <trkpt lat="47.7635" lon="7.44326">
        <ele>282.20001220703</ele>
        <time>2019-09-09T13:01:19Z</time>
      </trkpt>
      <trkpt lat="47.76349" lon="7.44351">
        <ele>282.20001220703</ele>
        <time>2019-09-09T13:01:24Z</time>
      </trkpt>
      <trkpt lat="47.76358" lon="7.44374">
        <ele>282.20001220703</ele>
        <time>2019-09-09T13:01:29Z</time>
      </trkpt>
      <trkpt lat="47.76359" lon="7.4438">
        <ele>282.20001220703</ele>
        <time>2019-09-09T13:01:30Z</time>
      </trkpt>
      <trkpt lat="47.76362" lon="7.44387">
        <ele>282.20001220703</ele>
        <time>2019-09-09T13:01:31Z</time>
      </trkpt>
      <trkpt lat="47.76368" lon="7.44411">
        <ele>282.20001220703</ele>
        <time>2019-09-09T13:01:34Z</time>
      </trkpt>
      <trkpt lat="47.76376" lon="7.44446">
        <ele>281.60000610352</ele>
        <time>2019-09-09T13:01:38Z</time>
      </trkpt>
      <trkpt lat="47.76382" lon="7.44472">
        <ele>281</ele>
        <time>2019-09-09T13:01:41Z</time>
      </trkpt>
      <trkpt lat="47.76384" lon="7.44479">
        <ele>280.60000610352</ele>
        <time>2019-09-09T13:01:42Z</time>
      </trkpt>
      <trkpt lat="47.76385" lon="7.44487">
        <ele>280</ele>
        <time>2019-09-09T13:01:43Z</time>
      </trkpt>
      <trkpt lat="47.76386" lon="7.44494">
        <ele>279.39999389648</ele>
        <time>2019-09-09T13:01:44Z</time>
      </trkpt>
      <trkpt lat="47.76388" lon="7.44502">
        <ele>279.20001220703</ele>
        <time>2019-09-09T13:01:45Z</time>
      </trkpt>
      <trkpt lat="47.76392" lon="7.44517">
        <ele>279</ele>
        <time>2019-09-09T13:01:47Z</time>
      </trkpt>
      <trkpt lat="47.76403" lon="7.44533">
        <ele>278.79998779297</ele>
        <time>2019-09-09T13:01:50Z</time>
      </trkpt>
      <trkpt lat="47.76412" lon="7.44538">
        <ele>278.79998779297</ele>
        <time>2019-09-09T13:01:52Z</time>
      </trkpt>
      <trkpt lat="47.7643" lon="7.44545">
        <ele>278.60000610352</ele>
        <time>2019-09-09T13:01:56Z</time>
      </trkpt>
      <trkpt lat="47.76464" lon="7.4456">
        <ele>278.39999389648</ele>
        <time>2019-09-09T13:02:03Z</time>
      </trkpt>
      <trkpt lat="47.76502" lon="7.44574">
        <ele>278.60000610352</ele>
        <time>2019-09-09T13:02:11Z</time>
      </trkpt>
      <trkpt lat="47.76545" lon="7.44593">
        <ele>279</ele>
        <time>2019-09-09T13:02:19Z</time>
      </trkpt>
      <trkpt lat="47.76574" lon="7.44606">
        <ele>278.79998779297</ele>
        <time>2019-09-09T13:02:25Z</time>
      </trkpt>
      <trkpt lat="47.76581" lon="7.44611">
        <ele>278.79998779297</ele>
        <time>2019-09-09T13:02:27Z</time>
      </trkpt>
      <trkpt lat="47.76583" lon="7.44614">
        <ele>278.79998779297</ele>
        <time>2019-09-09T13:02:28Z</time>
      </trkpt>
      <trkpt lat="47.76585" lon="7.44617">
        <ele>278.39999389648</ele>
        <time>2019-09-09T13:02:31Z</time>
      </trkpt>
      <trkpt lat="47.76586" lon="7.44619">
        <ele>278.39999389648</ele>
        <time>2019-09-09T13:02:34Z</time>
      </trkpt>
      <trkpt lat="47.76583" lon="7.44628">
        <ele>278.39999389648</ele>
        <time>2019-09-09T13:02:37Z</time>
      </trkpt>
      <trkpt lat="47.7658" lon="7.44638">
        <ele>278.39999389648</ele>
        <time>2019-09-09T13:02:39Z</time>
      </trkpt>
      <trkpt lat="47.76576" lon="7.44656">
        <ele>278.39999389648</ele>
        <time>2019-09-09T13:02:42Z</time>
      </trkpt>
      <trkpt lat="47.76563" lon="7.44696">
        <ele>278.39999389648</ele>
        <time>2019-09-09T13:02:48Z</time>
      </trkpt>
      <trkpt lat="47.76552" lon="7.44738">
        <ele>278.39999389648</ele>
        <time>2019-09-09T13:02:54Z</time>
      </trkpt>
      <trkpt lat="47.76542" lon="7.44768">
        <ele>278.60000610352</ele>
        <time>2019-09-09T13:02:58Z</time>
      </trkpt>
      <trkpt lat="47.76538" lon="7.44775">
        <ele>278.60000610352</ele>
        <time>2019-09-09T13:02:59Z</time>
      </trkpt>
      <trkpt lat="47.76514" lon="7.44799">
        <ele>278.79998779297</ele>
        <time>2019-09-09T13:03:04Z</time>
      </trkpt>
      <trkpt lat="47.76508" lon="7.44802">
        <ele>278.79998779297</ele>
        <time>2019-09-09T13:03:05Z</time>
      </trkpt>
      <trkpt lat="47.76487" lon="7.44811">
        <ele>279</ele>
        <time>2019-09-09T13:03:09Z</time>
      </trkpt>
      <trkpt lat="47.76472" lon="7.44809">
        <ele>279.20001220703</ele>
        <time>2019-09-09T13:03:13Z</time>
      </trkpt>
      <trkpt lat="47.76455" lon="7.44796">
        <ele>280.20001220703</ele>
        <time>2019-09-09T13:03:18Z</time>
      </trkpt>
      <trkpt lat="47.76453" lon="7.44792">
        <ele>280.39999389648</ele>
        <time>2019-09-09T13:03:19Z</time>
      </trkpt>
      <trkpt lat="47.76445" lon="7.44781">
        <ele>281.20001220703</ele>
        <time>2019-09-09T13:03:22Z</time>
      </trkpt>
      <trkpt lat="47.76434" lon="7.4476">
        <ele>282.39999389648</ele>
        <time>2019-09-09T13:03:27Z</time>
      </trkpt>
      <trkpt lat="47.76427" lon="7.4474">
        <ele>283.39999389648</ele>
        <time>2019-09-09T13:03:32Z</time>
      </trkpt>
      <trkpt lat="47.7642" lon="7.44723">
        <ele>284</ele>
        <time>2019-09-09T13:03:36Z</time>
      </trkpt>
      <trkpt lat="47.76416" lon="7.44715">
        <ele>284.60000610352</ele>
        <time>2019-09-09T13:03:38Z</time>
      </trkpt>
      <trkpt lat="47.76409" lon="7.44699">
        <ele>285.20001220703</ele>
        <time>2019-09-09T13:03:42Z</time>
      </trkpt>
      <trkpt lat="47.76402" lon="7.44682">
        <ele>285.60000610352</ele>
        <time>2019-09-09T13:03:46Z</time>
      </trkpt>
      <trkpt lat="47.76395" lon="7.44666">
        <ele>286.20001220703</ele>
        <time>2019-09-09T13:03:50Z</time>
      </trkpt>
      <trkpt lat="47.76391" lon="7.44658">
        <ele>286.60000610352</ele>
        <time>2019-09-09T13:03:52Z</time>
      </trkpt>
      <trkpt lat="47.76379" lon="7.44634">
        <ele>287.60000610352</ele>
        <time>2019-09-09T13:03:58Z</time>
      </trkpt>
      <trkpt lat="47.76376" lon="7.44631">
        <ele>287.79998779297</ele>
        <time>2019-09-09T13:03:59Z</time>
      </trkpt>
      <trkpt lat="47.76364" lon="7.44608">
        <ele>288.79998779297</ele>
        <time>2019-09-09T13:04:05Z</time>
      </trkpt>
      <trkpt lat="47.76361" lon="7.446">
        <ele>289</ele>
        <time>2019-09-09T13:04:07Z</time>
      </trkpt>
      <trkpt lat="47.76345" lon="7.44568">
        <ele>289.79998779297</ele>
        <time>2019-09-09T13:04:15Z</time>
      </trkpt>
      <trkpt lat="47.76343" lon="7.44564">
        <ele>290.20001220703</ele>
        <time>2019-09-09T13:04:16Z</time>
      </trkpt>
      <trkpt lat="47.76327" lon="7.4453">
        <ele>290.79998779297</ele>
        <time>2019-09-09T13:04:24Z</time>
      </trkpt>
      <trkpt lat="47.76317" lon="7.44507">
        <ele>291.20001220703</ele>
        <time>2019-09-09T13:04:29Z</time>
      </trkpt>
      <trkpt lat="47.76305" lon="7.44483">
        <ele>291.39999389648</ele>
        <time>2019-09-09T13:04:34Z</time>
      </trkpt>
      <trkpt lat="47.76301" lon="7.44473">
        <ele>291.60000610352</ele>
        <time>2019-09-09T13:04:36Z</time>
      </trkpt>
      <trkpt lat="47.76286" lon="7.44441">
        <ele>291.60000610352</ele>
        <time>2019-09-09T13:04:42Z</time>
      </trkpt>
      <trkpt lat="47.76263" lon="7.44391">
        <ele>291.60000610352</ele>
        <time>2019-09-09T13:04:51Z</time>
      </trkpt>
      <trkpt lat="47.76256" lon="7.44375">
        <ele>291.60000610352</ele>
        <time>2019-09-09T13:04:54Z</time>
      </trkpt>
      <trkpt lat="47.76247" lon="7.44352">
        <ele>291.39999389648</ele>
        <time>2019-09-09T13:04:58Z</time>
      </trkpt>
      <trkpt lat="47.76226" lon="7.443">
        <ele>290.60000610352</ele>
        <time>2019-09-09T13:05:06Z</time>
      </trkpt>
      <trkpt lat="47.76219" lon="7.44279">
        <ele>290.20001220703</ele>
        <time>2019-09-09T13:05:09Z</time>
      </trkpt>
      <trkpt lat="47.76207" lon="7.4424">
        <ele>289.60000610352</ele>
        <time>2019-09-09T13:05:14Z</time>
      </trkpt>
      <trkpt lat="47.76207" lon="7.44221">
        <ele>289.20001220703</ele>
        <time>2019-09-09T13:05:16Z</time>
      </trkpt>
      <trkpt lat="47.76209" lon="7.44211">
        <ele>289.20001220703</ele>
        <time>2019-09-09T13:05:17Z</time>
      </trkpt>
      <trkpt lat="47.76221" lon="7.44183">
        <ele>288.60000610352</ele>
        <time>2019-09-09T13:05:20Z</time>
      </trkpt>
      <trkpt lat="47.76234" lon="7.44172">
        <ele>288.20001220703</ele>
        <time>2019-09-09T13:05:22Z</time>
      </trkpt>
      <trkpt lat="47.76242" lon="7.44169">
        <ele>288</ele>
        <time>2019-09-09T13:05:23Z</time>
      </trkpt>
      <trkpt lat="47.76265" lon="7.44175">
        <ele>287</ele>
        <time>2019-09-09T13:05:26Z</time>
      </trkpt>
      <trkpt lat="47.76286" lon="7.44185">
        <ele>285.39999389648</ele>
        <time>2019-09-09T13:05:29Z</time>
      </trkpt>
      <trkpt lat="47.76291" lon="7.44186">
        <ele>285</ele>
        <time>2019-09-09T13:05:30Z</time>
      </trkpt>
      <trkpt lat="47.76298" lon="7.44181">
        <ele>284</ele>
        <time>2019-09-09T13:05:32Z</time>
      </trkpt>
      <trkpt lat="47.763" lon="7.44168">
        <ele>283.60000610352</ele>
        <time>2019-09-09T13:05:34Z</time>
      </trkpt>
      <trkpt lat="47.76301" lon="7.44161">
        <ele>283.39999389648</ele>
        <time>2019-09-09T13:05:35Z</time>
      </trkpt>
      <trkpt lat="47.76301" lon="7.44154">
        <ele>283</ele>
        <time>2019-09-09T13:05:36Z</time>
      </trkpt>
      <trkpt lat="47.76305" lon="7.44097">
        <ele>282.60000610352</ele>
        <time>2019-09-09T13:05:44Z</time>
      </trkpt>
      <trkpt lat="47.76312" lon="7.44031">
        <ele>282.60000610352</ele>
        <time>2019-09-09T13:05:53Z</time>
      </trkpt>
      <trkpt lat="47.7632" lon="7.43972">
        <ele>282.79998779297</ele>
        <time>2019-09-09T13:06:01Z</time>
      </trkpt>
      <trkpt lat="47.76328" lon="7.43902">
        <ele>282.60000610352</ele>
        <time>2019-09-09T13:06:10Z</time>
      </trkpt>
      <trkpt lat="47.76331" lon="7.4384">
        <ele>282.60000610352</ele>
        <time>2019-09-09T13:06:18Z</time>
      </trkpt>
      <trkpt lat="47.76331" lon="7.43778">
        <ele>282.60000610352</ele>
        <time>2019-09-09T13:06:26Z</time>
      </trkpt>
      <trkpt lat="47.76337" lon="7.43716">
        <ele>283</ele>
        <time>2019-09-09T13:06:34Z</time>
      </trkpt>
      <trkpt lat="47.76339" lon="7.437">
        <ele>283.20001220703</ele>
        <time>2019-09-09T13:06:36Z</time>
      </trkpt>
      <trkpt lat="47.76343" lon="7.43678">
        <ele>283.20001220703</ele>
        <time>2019-09-09T13:06:39Z</time>
      </trkpt>
      <trkpt lat="47.76345" lon="7.4367">
        <ele>283.20001220703</ele>
        <time>2019-09-09T13:06:40Z</time>
      </trkpt>
      <trkpt lat="47.76357" lon="7.43627">
        <ele>283</ele>
        <time>2019-09-09T13:06:46Z</time>
      </trkpt>
      <trkpt lat="47.76359" lon="7.43619">
        <ele>283</ele>
        <time>2019-09-09T13:06:47Z</time>
      </trkpt>
      <trkpt lat="47.76365" lon="7.4356">
        <ele>282.79998779297</ele>
        <time>2019-09-09T13:06:54Z</time>
      </trkpt>
      <trkpt lat="47.76373" lon="7.43492">
        <ele>282.79998779297</ele>
        <time>2019-09-09T13:07:02Z</time>
      </trkpt>
      <trkpt lat="47.76382" lon="7.43415">
        <ele>283</ele>
        <time>2019-09-09T13:07:11Z</time>
      </trkpt>
      <trkpt lat="47.76392" lon="7.43331">
        <ele>283.20001220703</ele>
        <time>2019-09-09T13:07:21Z</time>
      </trkpt>
      <trkpt lat="47.76396" lon="7.4328">
        <ele>283</ele>
        <time>2019-09-09T13:07:27Z</time>
      </trkpt>
      <trkpt lat="47.76396" lon="7.43244">
        <ele>283</ele>
        <time>2019-09-09T13:07:32Z</time>
      </trkpt>
      <trkpt lat="47.76396" lon="7.43237">
        <ele>283</ele>
        <time>2019-09-09T13:07:33Z</time>
      </trkpt>
      <trkpt lat="47.76394" lon="7.43199">
        <ele>283.20001220703</ele>
        <time>2019-09-09T13:07:39Z</time>
      </trkpt>
      <trkpt lat="47.76395" lon="7.43186">
        <ele>283.60000610352</ele>
        <time>2019-09-09T13:07:41Z</time>
      </trkpt>
      <trkpt lat="47.76398" lon="7.43146">
        <ele>284.60000610352</ele>
        <time>2019-09-09T13:07:47Z</time>
      </trkpt>
      <trkpt lat="47.764" lon="7.43125">
        <ele>284.60000610352</ele>
        <time>2019-09-09T13:07:50Z</time>
      </trkpt>
      <trkpt lat="47.76402" lon="7.43117">
        <ele>284.79998779297</ele>
        <time>2019-09-09T13:07:51Z</time>
      </trkpt>
      <trkpt lat="47.76403" lon="7.4311">
        <ele>284.79998779297</ele>
        <time>2019-09-09T13:07:52Z</time>
      </trkpt>
      <trkpt lat="47.76412" lon="7.43089">
        <ele>284.79998779297</ele>
        <time>2019-09-09T13:07:55Z</time>
      </trkpt>
      <trkpt lat="47.76418" lon="7.43073">
        <ele>284.79998779297</ele>
        <time>2019-09-09T13:07:57Z</time>
      </trkpt>
      <trkpt lat="47.76421" lon="7.43054">
        <ele>284.79998779297</ele>
        <time>2019-09-09T13:07:59Z</time>
      </trkpt>
      <trkpt lat="47.76428" lon="7.43002">
        <ele>283.20001220703</ele>
        <time>2019-09-09T13:08:05Z</time>
      </trkpt>
      <trkpt lat="47.76429" lon="7.42993">
        <ele>283</ele>
        <time>2019-09-09T13:08:06Z</time>
      </trkpt>
      <trkpt lat="47.76436" lon="7.42918">
        <ele>282.60000610352</ele>
        <time>2019-09-09T13:08:15Z</time>
      </trkpt>
      <trkpt lat="47.76444" lon="7.42841">
        <ele>282.60000610352</ele>
        <time>2019-09-09T13:08:24Z</time>
      </trkpt>
      <trkpt lat="47.76454" lon="7.42755">
        <ele>282.60000610352</ele>
        <time>2019-09-09T13:08:34Z</time>
      </trkpt>
      <trkpt lat="47.76463" lon="7.42667">
        <ele>282.39999389648</ele>
        <time>2019-09-09T13:08:44Z</time>
      </trkpt>
      <trkpt lat="47.76472" lon="7.4259">
        <ele>282.79998779297</ele>
        <time>2019-09-09T13:08:53Z</time>
      </trkpt>
      <trkpt lat="47.76478" lon="7.42531">
        <ele>282.79998779297</ele>
        <time>2019-09-09T13:09:00Z</time>
      </trkpt>
      <trkpt lat="47.7648" lon="7.42515">
        <ele>282.79998779297</ele>
        <time>2019-09-09T13:09:02Z</time>
      </trkpt>
      <trkpt lat="47.76484" lon="7.42474">
        <ele>282.79998779297</ele>
        <time>2019-09-09T13:09:07Z</time>
      </trkpt>
      <trkpt lat="47.76483" lon="7.42458">
        <ele>282.79998779297</ele>
        <time>2019-09-09T13:09:09Z</time>
      </trkpt>
      <trkpt lat="47.76478" lon="7.42436">
        <ele>283</ele>
        <time>2019-09-09T13:09:12Z</time>
      </trkpt>
      <trkpt lat="47.76471" lon="7.42414">
        <ele>283</ele>
        <time>2019-09-09T13:09:15Z</time>
      </trkpt>
      <trkpt lat="47.76469" lon="7.42407">
        <ele>283.20001220703</ele>
        <time>2019-09-09T13:09:16Z</time>
      </trkpt>
      <trkpt lat="47.76468" lon="7.42399">
        <ele>283.20001220703</ele>
        <time>2019-09-09T13:09:17Z</time>
      </trkpt>
      <trkpt lat="47.76465" lon="7.42384">
        <ele>283.39999389648</ele>
        <time>2019-09-09T13:09:19Z</time>
      </trkpt>
      <trkpt lat="47.76464" lon="7.42369">
        <ele>283.39999389648</ele>
        <time>2019-09-09T13:09:21Z</time>
      </trkpt>
      <trkpt lat="47.76464" lon="7.42361">
        <ele>283.39999389648</ele>
        <time>2019-09-09T13:09:22Z</time>
      </trkpt>
      <trkpt lat="47.76468" lon="7.42331">
        <ele>283.39999389648</ele>
        <time>2019-09-09T13:09:26Z</time>
      </trkpt>
      <trkpt lat="47.7647" lon="7.42278">
        <ele>283.39999389648</ele>
        <time>2019-09-09T13:09:33Z</time>
      </trkpt>
      <trkpt lat="47.76471" lon="7.4227">
        <ele>283.39999389648</ele>
        <time>2019-09-09T13:09:34Z</time>
      </trkpt>
      <trkpt lat="47.76476" lon="7.42248">
        <ele>283.39999389648</ele>
        <time>2019-09-09T13:09:37Z</time>
      </trkpt>
      <trkpt lat="47.76484" lon="7.42236">
        <ele>283.39999389648</ele>
        <time>2019-09-09T13:09:39Z</time>
      </trkpt>
      <trkpt lat="47.76497" lon="7.4221">
        <ele>283.20001220703</ele>
        <time>2019-09-09T13:09:43Z</time>
      </trkpt>
      <trkpt lat="47.76499" lon="7.42203">
        <ele>283.39999389648</ele>
        <time>2019-09-09T13:09:44Z</time>
      </trkpt>
      <trkpt lat="47.76502" lon="7.42179">
        <ele>283.39999389648</ele>
        <time>2019-09-09T13:09:47Z</time>
      </trkpt>
      <trkpt lat="47.76501" lon="7.42163">
        <ele>283.39999389648</ele>
        <time>2019-09-09T13:09:49Z</time>
      </trkpt>
      <trkpt lat="47.76499" lon="7.42139">
        <ele>283.39999389648</ele>
        <time>2019-09-09T13:09:52Z</time>
      </trkpt>
      <trkpt lat="47.76499" lon="7.42066">
        <ele>283.39999389648</ele>
        <time>2019-09-09T13:10:01Z</time>
      </trkpt>
      <trkpt lat="47.765" lon="7.42043">
        <ele>283.39999389648</ele>
        <time>2019-09-09T13:10:04Z</time>
      </trkpt>
      <trkpt lat="47.76502" lon="7.42023">
        <ele>283.60000610352</ele>
        <time>2019-09-09T13:10:07Z</time>
      </trkpt>
      <trkpt lat="47.76518" lon="7.41978">
        <ele>283.60000610352</ele>
        <time>2019-09-09T13:10:14Z</time>
      </trkpt>
      <trkpt lat="47.76532" lon="7.41947">
        <ele>283.79998779297</ele>
        <time>2019-09-09T13:10:19Z</time>
      </trkpt>
      <trkpt lat="47.76536" lon="7.41933">
        <ele>283.60000610352</ele>
        <time>2019-09-09T13:10:21Z</time>
      </trkpt>
      <trkpt lat="47.76534" lon="7.41904">
        <ele>283.79998779297</ele>
        <time>2019-09-09T13:10:25Z</time>
      </trkpt>
      <trkpt lat="47.7653" lon="7.41874">
        <ele>283.60000610352</ele>
        <time>2019-09-09T13:10:29Z</time>
      </trkpt>
      <trkpt lat="47.76531" lon="7.41852">
        <ele>283.39999389648</ele>
        <time>2019-09-09T13:10:32Z</time>
      </trkpt>
      <trkpt lat="47.76539" lon="7.41801">
        <ele>283.39999389648</ele>
        <time>2019-09-09T13:10:39Z</time>
      </trkpt>
      <trkpt lat="47.76546" lon="7.41743">
        <ele>283.39999389648</ele>
        <time>2019-09-09T13:10:47Z</time>
      </trkpt>
      <trkpt lat="47.76551" lon="7.41698">
        <ele>283.39999389648</ele>
        <time>2019-09-09T13:10:53Z</time>
      </trkpt>
      <trkpt lat="47.76555" lon="7.41684">
        <ele>283.39999389648</ele>
        <time>2019-09-09T13:10:55Z</time>
      </trkpt>
      <trkpt lat="47.76572" lon="7.4163">
        <ele>283.39999389648</ele>
        <time>2019-09-09T13:11:03Z</time>
      </trkpt>
      <trkpt lat="47.76587" lon="7.41591">
        <ele>283.60000610352</ele>
        <time>2019-09-09T13:11:09Z</time>
      </trkpt>
      <trkpt lat="47.7659" lon="7.41576">
        <ele>283.60000610352</ele>
        <time>2019-09-09T13:11:11Z</time>
      </trkpt>
      <trkpt lat="47.76591" lon="7.41562">
        <ele>283.79998779297</ele>
        <time>2019-09-09T13:11:13Z</time>
      </trkpt>
      <trkpt lat="47.76589" lon="7.41535">
        <ele>283.79998779297</ele>
        <time>2019-09-09T13:11:17Z</time>
      </trkpt>
      <trkpt lat="47.76587" lon="7.41513">
        <ele>283.79998779297</ele>
        <time>2019-09-09T13:11:20Z</time>
      </trkpt>
      <trkpt lat="47.76587" lon="7.41491">
        <ele>283.79998779297</ele>
        <time>2019-09-09T13:11:23Z</time>
      </trkpt>
      <trkpt lat="47.76595" lon="7.41448">
        <ele>283.60000610352</ele>
        <time>2019-09-09T13:11:29Z</time>
      </trkpt>
      <trkpt lat="47.76604" lon="7.41372">
        <ele>283.79998779297</ele>
        <time>2019-09-09T13:11:39Z</time>
      </trkpt>
      <trkpt lat="47.76611" lon="7.41312">
        <ele>283.79998779297</ele>
        <time>2019-09-09T13:11:47Z</time>
      </trkpt>
      <trkpt lat="47.76617" lon="7.41252">
        <ele>283.79998779297</ele>
        <time>2019-09-09T13:11:55Z</time>
      </trkpt>
      <trkpt lat="47.76624" lon="7.41179">
        <ele>283.39999389648</ele>
        <time>2019-09-09T13:12:05Z</time>
      </trkpt>
      <trkpt lat="47.76632" lon="7.41112">
        <ele>283.20001220703</ele>
        <time>2019-09-09T13:12:14Z</time>
      </trkpt>
      <trkpt lat="47.76639" lon="7.4106">
        <ele>283.20001220703</ele>
        <time>2019-09-09T13:12:21Z</time>
      </trkpt>
      <trkpt lat="47.7664" lon="7.41052">
        <ele>283.20001220703</ele>
        <time>2019-09-09T13:12:22Z</time>
      </trkpt>
      <trkpt lat="47.76645" lon="7.41017">
        <ele>283.20001220703</ele>
        <time>2019-09-09T13:12:27Z</time>
      </trkpt>
      <trkpt lat="47.76646" lon="7.41003">
        <ele>283.20001220703</ele>
        <time>2019-09-09T13:12:29Z</time>
      </trkpt>
      <trkpt lat="47.76653" lon="7.40945">
        <ele>283.20001220703</ele>
        <time>2019-09-09T13:12:37Z</time>
      </trkpt>
      <trkpt lat="47.7666" lon="7.40879">
        <ele>283.39999389648</ele>
        <time>2019-09-09T13:12:46Z</time>
      </trkpt>
      <trkpt lat="47.76665" lon="7.40822">
        <ele>283.39999389648</ele>
        <time>2019-09-09T13:12:54Z</time>
      </trkpt>
      <trkpt lat="47.7667" lon="7.40762">
        <ele>283.20001220703</ele>
        <time>2019-09-09T13:13:02Z</time>
      </trkpt>
      <trkpt lat="47.76678" lon="7.40694">
        <ele>283.39999389648</ele>
        <time>2019-09-09T13:13:11Z</time>
      </trkpt>
      <trkpt lat="47.76679" lon="7.40686">
        <ele>283.39999389648</ele>
        <time>2019-09-09T13:13:12Z</time>
      </trkpt>
      <trkpt lat="47.76682" lon="7.40657">
        <ele>283.39999389648</ele>
        <time>2019-09-09T13:13:16Z</time>
      </trkpt>
      <trkpt lat="47.76689" lon="7.4059">
        <ele>283.60000610352</ele>
        <time>2019-09-09T13:13:25Z</time>
      </trkpt>
      <trkpt lat="47.76696" lon="7.40532">
        <ele>283.60000610352</ele>
        <time>2019-09-09T13:13:33Z</time>
      </trkpt>
      <trkpt lat="47.76706" lon="7.40459">
        <ele>283.20001220703</ele>
        <time>2019-09-09T13:13:43Z</time>
      </trkpt>
      <trkpt lat="47.76717" lon="7.404">
        <ele>283.20001220703</ele>
        <time>2019-09-09T13:13:51Z</time>
      </trkpt>
      <trkpt lat="47.76726" lon="7.40336">
        <ele>283.39999389648</ele>
        <time>2019-09-09T13:14:00Z</time>
      </trkpt>
      <trkpt lat="47.7673" lon="7.40308">
        <ele>283</ele>
        <time>2019-09-09T13:14:04Z</time>
      </trkpt>
      <trkpt lat="47.76729" lon="7.403">
        <ele>283</ele>
        <time>2019-09-09T13:14:05Z</time>
      </trkpt>
      <trkpt lat="47.76729" lon="7.40293">
        <ele>282.79998779297</ele>
        <time>2019-09-09T13:14:06Z</time>
      </trkpt>
      <trkpt lat="47.76725" lon="7.40271">
        <ele>282.79998779297</ele>
        <time>2019-09-09T13:14:09Z</time>
      </trkpt>
      <trkpt lat="47.76717" lon="7.40244">
        <ele>282.79998779297</ele>
        <time>2019-09-09T13:14:13Z</time>
      </trkpt>
      <trkpt lat="47.76696" lon="7.40198">
        <ele>282.79998779297</ele>
        <time>2019-09-09T13:14:20Z</time>
      </trkpt>
      <trkpt lat="47.76691" lon="7.40183">
        <ele>282.79998779297</ele>
        <time>2019-09-09T13:14:22Z</time>
      </trkpt>
      <trkpt lat="47.76687" lon="7.40157">
        <ele>282.79998779297</ele>
        <time>2019-09-09T13:14:25Z</time>
      </trkpt>
      <trkpt lat="47.7669" lon="7.40132">
        <ele>282.79998779297</ele>
        <time>2019-09-09T13:14:28Z</time>
      </trkpt>
      <trkpt lat="47.76692" lon="7.40116">
        <ele>282.60000610352</ele>
        <time>2019-09-09T13:14:30Z</time>
      </trkpt>
      <trkpt lat="47.76699" lon="7.40055">
        <ele>282.20001220703</ele>
        <time>2019-09-09T13:14:38Z</time>
      </trkpt>
      <trkpt lat="47.76706" lon="7.39988">
        <ele>282.39999389648</ele>
        <time>2019-09-09T13:14:47Z</time>
      </trkpt>
      <trkpt lat="47.76708" lon="7.39953">
        <ele>282.39999389648</ele>
        <time>2019-09-09T13:14:52Z</time>
      </trkpt>
      <trkpt lat="47.76709" lon="7.39948">
        <ele>282.39999389648</ele>
        <time>2019-09-09T13:14:53Z</time>
      </trkpt>
      <trkpt lat="47.76713" lon="7.39934">
        <ele>282.20001220703</ele>
        <time>2019-09-09T13:14:57Z</time>
      </trkpt>
      <trkpt lat="47.76717" lon="7.39913">
        <ele>282</ele>
        <time>2019-09-09T13:15:02Z</time>
      </trkpt>
      <trkpt lat="47.76717" lon="7.39901">
        <ele>282</ele>
        <time>2019-09-09T13:15:04Z</time>
      </trkpt>
      <trkpt lat="47.76719" lon="7.39881">
        <ele>282</ele>
        <time>2019-09-09T13:15:07Z</time>
      </trkpt>
      <trkpt lat="47.76724" lon="7.39822">
        <ele>281.79998779297</ele>
        <time>2019-09-09T13:15:15Z</time>
      </trkpt>
      <trkpt lat="47.76732" lon="7.39758">
        <ele>281.39999389648</ele>
        <time>2019-09-09T13:15:23Z</time>
      </trkpt>
      <trkpt lat="47.76738" lon="7.39699">
        <ele>281.39999389648</ele>
        <time>2019-09-09T13:15:30Z</time>
      </trkpt>
      <trkpt lat="47.76742" lon="7.39658">
        <ele>281.39999389648</ele>
        <time>2019-09-09T13:15:35Z</time>
      </trkpt>
      <trkpt lat="47.76746" lon="7.39624">
        <ele>281.20001220703</ele>
        <time>2019-09-09T13:15:39Z</time>
      </trkpt>
      <trkpt lat="47.76747" lon="7.39617">
        <ele>281.20001220703</ele>
        <time>2019-09-09T13:15:40Z</time>
      </trkpt>
      <trkpt lat="47.76748" lon="7.39609">
        <ele>281.20001220703</ele>
        <time>2019-09-09T13:15:41Z</time>
      </trkpt>
      <trkpt lat="47.76751" lon="7.39586">
        <ele>281.20001220703</ele>
        <time>2019-09-09T13:15:44Z</time>
      </trkpt>
      <trkpt lat="47.76753" lon="7.3958">
        <ele>281.20001220703</ele>
        <time>2019-09-09T13:15:45Z</time>
      </trkpt>
      <trkpt lat="47.76764" lon="7.39571">
        <ele>281.39999389648</ele>
        <time>2019-09-09T13:15:48Z</time>
      </trkpt>
      <trkpt lat="47.76774" lon="7.39556">
        <ele>281.20001220703</ele>
        <time>2019-09-09T13:15:51Z</time>
      </trkpt>
      <trkpt lat="47.76776" lon="7.39541">
        <ele>281.20001220703</ele>
        <time>2019-09-09T13:15:53Z</time>
      </trkpt>
      <trkpt lat="47.7678" lon="7.39504">
        <ele>281.20001220703</ele>
        <time>2019-09-09T13:15:58Z</time>
      </trkpt>
      <trkpt lat="47.76789" lon="7.39435">
        <ele>281.20001220703</ele>
        <time>2019-09-09T13:16:07Z</time>
      </trkpt>
      <trkpt lat="47.76795" lon="7.39371">
        <ele>281.39999389648</ele>
        <time>2019-09-09T13:16:15Z</time>
      </trkpt>
      <trkpt lat="47.76788" lon="7.39339">
        <ele>281.39999389648</ele>
        <time>2019-09-09T13:16:19Z</time>
      </trkpt>
      <trkpt lat="47.76779" lon="7.39321">
        <ele>281.39999389648</ele>
        <time>2019-09-09T13:16:22Z</time>
      </trkpt>
      <trkpt lat="47.76772" lon="7.3931">
        <ele>281.39999389648</ele>
        <time>2019-09-09T13:16:24Z</time>
      </trkpt>
      <trkpt lat="47.76754" lon="7.39276">
        <ele>281.39999389648</ele>
        <time>2019-09-09T13:16:31Z</time>
      </trkpt>
      <trkpt lat="47.76748" lon="7.3926">
        <ele>281.39999389648</ele>
        <time>2019-09-09T13:16:36Z</time>
      </trkpt>
      <trkpt lat="47.76741" lon="7.39244">
        <ele>281.39999389648</ele>
        <time>2019-09-09T13:16:40Z</time>
      </trkpt>
      <trkpt lat="47.76738" lon="7.39239">
        <ele>281.20001220703</ele>
        <time>2019-09-09T13:16:41Z</time>
      </trkpt>
      <trkpt lat="47.76731" lon="7.39229">
        <ele>281</ele>
        <time>2019-09-09T13:16:43Z</time>
      </trkpt>
      <trkpt lat="47.76727" lon="7.39217">
        <ele>281</ele>
        <time>2019-09-09T13:16:45Z</time>
      </trkpt>
      <trkpt lat="47.7671" lon="7.39171">
        <ele>280.79998779297</ele>
        <time>2019-09-09T13:16:52Z</time>
      </trkpt>
      <trkpt lat="47.76707" lon="7.39165">
        <ele>280.79998779297</ele>
        <time>2019-09-09T13:16:53Z</time>
      </trkpt>
      <trkpt lat="47.76695" lon="7.39149">
        <ele>280.79998779297</ele>
        <time>2019-09-09T13:16:56Z</time>
      </trkpt>
      <trkpt lat="47.76691" lon="7.39144">
        <ele>280.79998779297</ele>
        <time>2019-09-09T13:16:57Z</time>
      </trkpt>
      <trkpt lat="47.76683" lon="7.39136">
        <ele>280.79998779297</ele>
        <time>2019-09-09T13:16:59Z</time>
      </trkpt>
      <trkpt lat="47.76675" lon="7.39128">
        <ele>280.79998779297</ele>
        <time>2019-09-09T13:17:01Z</time>
      </trkpt>
      <trkpt lat="47.76666" lon="7.39112">
        <ele>280.79998779297</ele>
        <time>2019-09-09T13:17:04Z</time>
      </trkpt>
      <trkpt lat="47.76649" lon="7.39071">
        <ele>280.79998779297</ele>
        <time>2019-09-09T13:17:10Z</time>
      </trkpt>
      <trkpt lat="47.7663" lon="7.3902">
        <ele>280.79998779297</ele>
        <time>2019-09-09T13:17:17Z</time>
      </trkpt>
      <trkpt lat="47.76603" lon="7.38951">
        <ele>280.60000610352</ele>
        <time>2019-09-09T13:17:26Z</time>
      </trkpt>
      <trkpt lat="47.76587" lon="7.38895">
        <ele>280.39999389648</ele>
        <time>2019-09-09T13:17:33Z</time>
      </trkpt>
      <trkpt lat="47.7657" lon="7.38831">
        <ele>280.20001220703</ele>
        <time>2019-09-09T13:17:41Z</time>
      </trkpt>
      <trkpt lat="47.76554" lon="7.38773">
        <ele>280.39999389648</ele>
        <time>2019-09-09T13:17:48Z</time>
      </trkpt>
      <trkpt lat="47.76551" lon="7.38766">
        <ele>280.20001220703</ele>
        <time>2019-09-09T13:17:49Z</time>
      </trkpt>
      <trkpt lat="47.76537" lon="7.38738">
        <ele>280.20001220703</ele>
        <time>2019-09-09T13:17:53Z</time>
      </trkpt>
      <trkpt lat="47.76526" lon="7.38718">
        <ele>280</ele>
        <time>2019-09-09T13:17:56Z</time>
      </trkpt>
      <trkpt lat="47.76518" lon="7.38707">
        <ele>280</ele>
        <time>2019-09-09T13:17:58Z</time>
      </trkpt>
      <trkpt lat="47.76508" lon="7.38697">
        <ele>280</ele>
        <time>2019-09-09T13:18:00Z</time>
      </trkpt>
      <trkpt lat="47.76503" lon="7.38692">
        <ele>280.20001220703</ele>
        <time>2019-09-09T13:18:01Z</time>
      </trkpt>
      <trkpt lat="47.76499" lon="7.38686">
        <ele>280.20001220703</ele>
        <time>2019-09-09T13:18:02Z</time>
      </trkpt>
      <trkpt lat="47.76489" lon="7.38678">
        <ele>280.20001220703</ele>
        <time>2019-09-09T13:18:04Z</time>
      </trkpt>
      <trkpt lat="47.76478" lon="7.38672">
        <ele>280.20001220703</ele>
        <time>2019-09-09T13:18:06Z</time>
      </trkpt>
      <trkpt lat="47.76456" lon="7.38674">
        <ele>280.20001220703</ele>
        <time>2019-09-09T13:18:10Z</time>
      </trkpt>
      <trkpt lat="47.76441" lon="7.38686">
        <ele>280.20001220703</ele>
        <time>2019-09-09T13:18:13Z</time>
      </trkpt>
      <trkpt lat="47.76436" lon="7.3869">
        <ele>280.20001220703</ele>
        <time>2019-09-09T13:18:14Z</time>
      </trkpt>
      <trkpt lat="47.76409" lon="7.38719">
        <ele>280.20001220703</ele>
        <time>2019-09-09T13:18:20Z</time>
      </trkpt>
      <trkpt lat="47.7637" lon="7.38757">
        <ele>280.20001220703</ele>
        <time>2019-09-09T13:18:28Z</time>
      </trkpt>
      <trkpt lat="47.76337" lon="7.38789">
        <ele>280.20001220703</ele>
        <time>2019-09-09T13:18:35Z</time>
      </trkpt>
      <trkpt lat="47.76332" lon="7.38793">
        <ele>280.20001220703</ele>
        <time>2019-09-09T13:18:36Z</time>
      </trkpt>
      <trkpt lat="47.76316" lon="7.38808">
        <ele>280.20001220703</ele>
        <time>2019-09-09T13:18:40Z</time>
      </trkpt>
      <trkpt lat="47.76309" lon="7.38806">
        <ele>280.20001220703</ele>
        <time>2019-09-09T13:18:42Z</time>
      </trkpt>
      <trkpt lat="47.76307" lon="7.38801">
        <ele>280.20001220703</ele>
        <time>2019-09-09T13:18:43Z</time>
      </trkpt>
      <trkpt lat="47.76302" lon="7.38784">
        <ele>280.20001220703</ele>
        <time>2019-09-09T13:18:46Z</time>
      </trkpt>
      <trkpt lat="47.76299" lon="7.38771">
        <ele>280.20001220703</ele>
        <time>2019-09-09T13:18:48Z</time>
      </trkpt>
      <trkpt lat="47.76286" lon="7.38729">
        <ele>280.20001220703</ele>
        <time>2019-09-09T13:18:54Z</time>
      </trkpt>
      <trkpt lat="47.7628" lon="7.38715">
        <ele>280.20001220703</ele>
        <time>2019-09-09T13:18:56Z</time>
      </trkpt>
      <trkpt lat="47.76274" lon="7.38703">
        <ele>280</ele>
        <time>2019-09-09T13:18:58Z</time>
      </trkpt>
      <trkpt lat="47.76267" lon="7.38673">
        <ele>280</ele>
        <time>2019-09-09T13:19:02Z</time>
      </trkpt>
      <trkpt lat="47.76245" lon="7.38615">
        <ele>280</ele>
        <time>2019-09-09T13:19:10Z</time>
      </trkpt>
      <trkpt lat="47.76235" lon="7.38577">
        <ele>280.20001220703</ele>
        <time>2019-09-09T13:19:15Z</time>
      </trkpt>
      <trkpt lat="47.76219" lon="7.38522">
        <ele>280.60000610352</ele>
        <time>2019-09-09T13:19:22Z</time>
      </trkpt>
      <trkpt lat="47.76193" lon="7.38443">
        <ele>280.20001220703</ele>
        <time>2019-09-09T13:19:32Z</time>
      </trkpt>
      <trkpt lat="47.76177" lon="7.38387">
        <ele>279.79998779297</ele>
        <time>2019-09-09T13:19:39Z</time>
      </trkpt>
      <trkpt lat="47.76174" lon="7.38336">
        <ele>279.60000610352</ele>
        <time>2019-09-09T13:19:45Z</time>
      </trkpt>
      <trkpt lat="47.76173" lon="7.38285">
        <ele>279.39999389648</ele>
        <time>2019-09-09T13:19:51Z</time>
      </trkpt>
      <trkpt lat="47.76173" lon="7.38268">
        <ele>279.39999389648</ele>
        <time>2019-09-09T13:19:53Z</time>
      </trkpt>
      <trkpt lat="47.76168" lon="7.38218">
        <ele>279.60000610352</ele>
        <time>2019-09-09T13:19:59Z</time>
      </trkpt>
      <trkpt lat="47.76155" lon="7.38161">
        <ele>280</ele>
        <time>2019-09-09T13:20:06Z</time>
      </trkpt>
      <trkpt lat="47.76136" lon="7.38101">
        <ele>280</ele>
        <time>2019-09-09T13:20:14Z</time>
      </trkpt>
      <trkpt lat="47.76112" lon="7.38036">
        <ele>280.20001220703</ele>
        <time>2019-09-09T13:20:23Z</time>
      </trkpt>
      <trkpt lat="47.76094" lon="7.37975">
        <ele>280.39999389648</ele>
        <time>2019-09-09T13:20:31Z</time>
      </trkpt>
      <trkpt lat="47.76079" lon="7.37922">
        <ele>280.39999389648</ele>
        <time>2019-09-09T13:20:38Z</time>
      </trkpt>
      <trkpt lat="47.76061" lon="7.37863">
        <ele>280.39999389648</ele>
        <time>2019-09-09T13:20:46Z</time>
      </trkpt>
      <trkpt lat="47.76053" lon="7.37844">
        <ele>280.39999389648</ele>
        <time>2019-09-09T13:20:49Z</time>
      </trkpt>
      <trkpt lat="47.76044" lon="7.37828">
        <ele>280.39999389648</ele>
        <time>2019-09-09T13:20:52Z</time>
      </trkpt>
      <trkpt lat="47.76036" lon="7.37814">
        <ele>280.39999389648</ele>
        <time>2019-09-09T13:20:55Z</time>
      </trkpt>
      <trkpt lat="47.7603" lon="7.37804">
        <ele>280.39999389648</ele>
        <time>2019-09-09T13:20:57Z</time>
      </trkpt>
      <trkpt lat="47.76001" lon="7.37755">
        <ele>280.20001220703</ele>
        <time>2019-09-09T13:21:06Z</time>
      </trkpt>
      <trkpt lat="47.7598" lon="7.37716">
        <ele>280.39999389648</ele>
        <time>2019-09-09T13:21:13Z</time>
      </trkpt>
      <trkpt lat="47.75967" lon="7.37697">
        <ele>280.39999389648</ele>
        <time>2019-09-09T13:21:18Z</time>
      </trkpt>
      <trkpt lat="47.75964" lon="7.37692">
        <ele>280.39999389648</ele>
        <time>2019-09-09T13:21:19Z</time>
      </trkpt>
      <trkpt lat="47.75957" lon="7.37676">
        <ele>280.39999389648</ele>
        <time>2019-09-09T13:21:22Z</time>
      </trkpt>
      <trkpt lat="47.7595" lon="7.37667">
        <ele>280.39999389648</ele>
        <time>2019-09-09T13:21:24Z</time>
      </trkpt>
      <trkpt lat="47.75934" lon="7.37645">
        <ele>280.79998779297</ele>
        <time>2019-09-09T13:21:29Z</time>
      </trkpt>
      <trkpt lat="47.75931" lon="7.37641">
        <ele>280.79998779297</ele>
        <time>2019-09-09T13:21:30Z</time>
      </trkpt>
      <trkpt lat="47.75923" lon="7.37633">
        <ele>280.79998779297</ele>
        <time>2019-09-09T13:21:32Z</time>
      </trkpt>
      <trkpt lat="47.75912" lon="7.37618">
        <ele>280.79998779297</ele>
        <time>2019-09-09T13:21:35Z</time>
      </trkpt>
      <trkpt lat="47.75908" lon="7.37612">
        <ele>280.79998779297</ele>
        <time>2019-09-09T13:21:36Z</time>
      </trkpt>
      <trkpt lat="47.75889" lon="7.37577">
        <ele>280.79998779297</ele>
        <time>2019-09-09T13:21:42Z</time>
      </trkpt>
      <trkpt lat="47.75873" lon="7.37546">
        <ele>280.79998779297</ele>
        <time>2019-09-09T13:21:47Z</time>
      </trkpt>
      <trkpt lat="47.75867" lon="7.37531">
        <ele>280.79998779297</ele>
        <time>2019-09-09T13:21:49Z</time>
      </trkpt>
      <trkpt lat="47.75853" lon="7.3751">
        <ele>280.79998779297</ele>
        <time>2019-09-09T13:21:53Z</time>
      </trkpt>
      <trkpt lat="47.75844" lon="7.37495">
        <ele>280.79998779297</ele>
        <time>2019-09-09T13:21:56Z</time>
      </trkpt>
      <trkpt lat="47.75836" lon="7.37481">
        <ele>281</ele>
        <time>2019-09-09T13:21:59Z</time>
      </trkpt>
      <trkpt lat="47.7581" lon="7.3744">
        <ele>281</ele>
        <time>2019-09-09T13:22:07Z</time>
      </trkpt>
      <trkpt lat="47.75791" lon="7.37404">
        <ele>281</ele>
        <time>2019-09-09T13:22:13Z</time>
      </trkpt>
      <trkpt lat="47.7576" lon="7.37345">
        <ele>281</ele>
        <time>2019-09-09T13:22:22Z</time>
      </trkpt>
      <trkpt lat="47.75736" lon="7.373">
        <ele>280.79998779297</ele>
        <time>2019-09-09T13:22:29Z</time>
      </trkpt>
      <trkpt lat="47.75718" lon="7.37262">
        <ele>281</ele>
        <time>2019-09-09T13:22:35Z</time>
      </trkpt>
      <trkpt lat="47.75712" lon="7.3725">
        <ele>281</ele>
        <time>2019-09-09T13:22:37Z</time>
      </trkpt>
      <trkpt lat="47.75695" lon="7.37217">
        <ele>281.20001220703</ele>
        <time>2019-09-09T13:22:42Z</time>
      </trkpt>
      <trkpt lat="47.75687" lon="7.37205">
        <ele>281.20001220703</ele>
        <time>2019-09-09T13:22:44Z</time>
      </trkpt>
      <trkpt lat="47.75664" lon="7.37165">
        <ele>281.39999389648</ele>
        <time>2019-09-09T13:22:51Z</time>
      </trkpt>
      <trkpt lat="47.75634" lon="7.37116">
        <ele>281.60000610352</ele>
        <time>2019-09-09T13:23:00Z</time>
      </trkpt>
      <trkpt lat="47.7561" lon="7.37079">
        <ele>282.39999389648</ele>
        <time>2019-09-09T13:23:07Z</time>
      </trkpt>
      <trkpt lat="47.75607" lon="7.37074">
        <ele>282.39999389648</ele>
        <time>2019-09-09T13:23:08Z</time>
      </trkpt>
      <trkpt lat="47.75595" lon="7.37053">
        <ele>282.79998779297</ele>
        <time>2019-09-09T13:23:12Z</time>
      </trkpt>
      <trkpt lat="47.75586" lon="7.37036">
        <ele>283</ele>
        <time>2019-09-09T13:23:15Z</time>
      </trkpt>
      <trkpt lat="47.75581" lon="7.37026">
        <ele>283.39999389648</ele>
        <time>2019-09-09T13:23:17Z</time>
      </trkpt>
      <trkpt lat="47.7556" lon="7.36991">
        <ele>284.20001220703</ele>
        <time>2019-09-09T13:23:24Z</time>
      </trkpt>
      <trkpt lat="47.75534" lon="7.36955">
        <ele>284.39999389648</ele>
        <time>2019-09-09T13:23:32Z</time>
      </trkpt>
      <trkpt lat="47.75519" lon="7.3693">
        <ele>284.39999389648</ele>
        <time>2019-09-09T13:23:38Z</time>
      </trkpt>
      <trkpt lat="47.75508" lon="7.36895">
        <ele>284.60000610352</ele>
        <time>2019-09-09T13:23:44Z</time>
      </trkpt>
      <trkpt lat="47.75493" lon="7.36839">
        <ele>284.60000610352</ele>
        <time>2019-09-09T13:23:52Z</time>
      </trkpt>
      <trkpt lat="47.75483" lon="7.36798">
        <ele>284.39999389648</ele>
        <time>2019-09-09T13:23:58Z</time>
      </trkpt>
      <trkpt lat="47.75482" lon="7.36791">
        <ele>284.39999389648</ele>
        <time>2019-09-09T13:23:59Z</time>
      </trkpt>
      <trkpt lat="47.7548" lon="7.36776">
        <ele>284.39999389648</ele>
        <time>2019-09-09T13:24:01Z</time>
      </trkpt>
      <trkpt lat="47.75473" lon="7.36757">
        <ele>284.39999389648</ele>
        <time>2019-09-09T13:24:04Z</time>
      </trkpt>
      <trkpt lat="47.75468" lon="7.36741">
        <ele>284.20001220703</ele>
        <time>2019-09-09T13:24:07Z</time>
      </trkpt>
      <trkpt lat="47.75465" lon="7.3673">
        <ele>284.20001220703</ele>
        <time>2019-09-09T13:24:09Z</time>
      </trkpt>
      <trkpt lat="47.75454" lon="7.36681">
        <ele>284.79998779297</ele>
        <time>2019-09-09T13:24:18Z</time>
      </trkpt>
      <trkpt lat="47.75449" lon="7.36659">
        <ele>285.79998779297</ele>
        <time>2019-09-09T13:24:22Z</time>
      </trkpt>
      <trkpt lat="47.75444" lon="7.36636">
        <ele>286.20001220703</ele>
        <time>2019-09-09T13:24:26Z</time>
      </trkpt>
      <trkpt lat="47.75442" lon="7.36614">
        <ele>286.79998779297</ele>
        <time>2019-09-09T13:24:30Z</time>
      </trkpt>
      <trkpt lat="47.75439" lon="7.36592">
        <ele>287.39999389648</ele>
        <time>2019-09-09T13:24:34Z</time>
      </trkpt>
      <trkpt lat="47.75435" lon="7.36566">
        <ele>287.79998779297</ele>
        <time>2019-09-09T13:24:39Z</time>
      </trkpt>
      <trkpt lat="47.75436" lon="7.36555">
        <ele>288</ele>
        <time>2019-09-09T13:24:41Z</time>
      </trkpt>
      <trkpt lat="47.75437" lon="7.36526">
        <ele>288.79998779297</ele>
        <time>2019-09-09T13:24:47Z</time>
      </trkpt>
      <trkpt lat="47.75438" lon="7.36518">
        <ele>289</ele>
        <time>2019-09-09T13:24:49Z</time>
      </trkpt>
      <trkpt lat="47.75441" lon="7.36502">
        <ele>289.60000610352</ele>
        <time>2019-09-09T13:24:54Z</time>
      </trkpt>
      <trkpt lat="47.75448" lon="7.36486">
        <ele>289.60000610352</ele>
        <time>2019-09-09T13:24:58Z</time>
      </trkpt>
      <trkpt lat="47.75442" lon="7.36467">
        <ele>289.60000610352</ele>
        <time>2019-09-09T13:25:02Z</time>
      </trkpt>
      <trkpt lat="47.75439" lon="7.36462">
        <ele>289.39999389648</ele>
        <time>2019-09-09T13:25:03Z</time>
      </trkpt>
      <trkpt lat="47.75432" lon="7.36457">
        <ele>289.39999389648</ele>
        <time>2019-09-09T13:25:05Z</time>
      </trkpt>
      <trkpt lat="47.75424" lon="7.36457">
        <ele>289.39999389648</ele>
        <time>2019-09-09T13:25:07Z</time>
      </trkpt>
      <trkpt lat="47.7542" lon="7.36456">
        <ele>289.20001220703</ele>
        <time>2019-09-09T13:25:08Z</time>
      </trkpt>
      <trkpt lat="47.75405" lon="7.36442">
        <ele>289.20001220703</ele>
        <time>2019-09-09T13:25:12Z</time>
      </trkpt>
      <trkpt lat="47.75402" lon="7.36437">
        <ele>289.20001220703</ele>
        <time>2019-09-09T13:25:13Z</time>
      </trkpt>
      <trkpt lat="47.75383" lon="7.36405">
        <ele>289.20001220703</ele>
        <time>2019-09-09T13:25:19Z</time>
      </trkpt>
      <trkpt lat="47.75351" lon="7.36348">
        <ele>288.79998779297</ele>
        <time>2019-09-09T13:25:29Z</time>
      </trkpt>
      <trkpt lat="47.75341" lon="7.36331">
        <ele>288.60000610352</ele>
        <time>2019-09-09T13:25:32Z</time>
      </trkpt>
      <trkpt lat="47.75338" lon="7.36318">
        <ele>288.60000610352</ele>
        <time>2019-09-09T13:25:34Z</time>
      </trkpt>
      <trkpt lat="47.7534" lon="7.36295">
        <ele>288.39999389648</ele>
        <time>2019-09-09T13:25:38Z</time>
      </trkpt>
      <trkpt lat="47.75341" lon="7.3629">
        <ele>288.20001220703</ele>
        <time>2019-09-09T13:25:39Z</time>
      </trkpt>
      <trkpt lat="47.75342" lon="7.36285">
        <ele>288.20001220703</ele>
        <time>2019-09-09T13:25:40Z</time>
      </trkpt>
      <trkpt lat="47.75347" lon="7.36272">
        <ele>288.20001220703</ele>
        <time>2019-09-09T13:25:43Z</time>
      </trkpt>
      <trkpt lat="47.75348" lon="7.36269">
        <ele>288</ele>
        <time>2019-09-09T13:25:46Z</time>
      </trkpt>
      <trkpt lat="47.75348" lon="7.36266">
        <ele>287.20001220703</ele>
        <time>2019-09-09T13:29:29Z</time>
      </trkpt>
      <trkpt lat="47.75349" lon="7.36263">
        <ele>287.20001220703</ele>
        <time>2019-09-09T13:29:30Z</time>
      </trkpt>
      <trkpt lat="47.7535" lon="7.36261">
        <ele>287.20001220703</ele>
        <time>2019-09-09T13:29:31Z</time>
      </trkpt>
      <trkpt lat="47.75353" lon="7.3627">
        <ele>287.20001220703</ele>
        <time>2019-09-09T13:29:34Z</time>
      </trkpt>
      <trkpt lat="47.75349" lon="7.36285">
        <ele>287.20001220703</ele>
        <time>2019-09-09T13:29:37Z</time>
      </trkpt>
      <trkpt lat="47.75347" lon="7.3629">
        <ele>287.20001220703</ele>
        <time>2019-09-09T13:29:38Z</time>
      </trkpt>
      <trkpt lat="47.75342" lon="7.36313">
        <ele>286.60000610352</ele>
        <time>2019-09-09T13:29:42Z</time>
      </trkpt>
      <trkpt lat="47.75344" lon="7.36314">
        <ele>286.39999389648</ele>
        <time>2019-09-09T13:29:43Z</time>
      </trkpt>
      <trkpt lat="47.75349" lon="7.36307">
        <ele>286</ele>
        <time>2019-09-09T13:29:45Z</time>
      </trkpt>
      <trkpt lat="47.75352" lon="7.36297">
        <ele>285.60000610352</ele>
        <time>2019-09-09T13:29:47Z</time>
      </trkpt>
      <trkpt lat="47.75357" lon="7.36286">
        <ele>285.39999389648</ele>
        <time>2019-09-09T13:29:49Z</time>
      </trkpt>
      <trkpt lat="47.75359" lon="7.36282">
        <ele>285.20001220703</ele>
        <time>2019-09-09T13:29:50Z</time>
      </trkpt>
      <trkpt lat="47.75362" lon="7.3628">
        <ele>285</ele>
        <time>2019-09-09T13:29:51Z</time>
      </trkpt>
      <trkpt lat="47.75368" lon="7.36267">
        <ele>284.60000610352</ele>
        <time>2019-09-09T13:29:54Z</time>
      </trkpt>
      <trkpt lat="47.75364" lon="7.36251">
        <ele>284.20001220703</ele>
        <time>2019-09-09T13:29:57Z</time>
      </trkpt>
      <trkpt lat="47.75362" lon="7.36245">
        <ele>284</ele>
        <time>2019-09-09T13:29:58Z</time>
      </trkpt>
      <trkpt lat="47.75359" lon="7.3624">
        <ele>283.79998779297</ele>
        <time>2019-09-09T13:29:59Z</time>
      </trkpt>
      <trkpt lat="47.75349" lon="7.36222">
        <ele>283.39999389648</ele>
        <time>2019-09-09T13:30:03Z</time>
      </trkpt>
      <trkpt lat="47.75344" lon="7.36213">
        <ele>283.39999389648</ele>
        <time>2019-09-09T13:30:05Z</time>
      </trkpt>
      <trkpt lat="47.75335" lon="7.36193">
        <ele>283.39999389648</ele>
        <time>2019-09-09T13:30:09Z</time>
      </trkpt>
      <trkpt lat="47.75317" lon="7.36164">
        <ele>283.79998779297</ele>
        <time>2019-09-09T13:30:16Z</time>
      </trkpt>
      <trkpt lat="47.75293" lon="7.3614">
        <ele>285.20001220703</ele>
        <time>2019-09-09T13:30:24Z</time>
      </trkpt>
      <trkpt lat="47.75278" lon="7.36128">
        <ele>285.39999389648</ele>
        <time>2019-09-09T13:30:29Z</time>
      </trkpt>
      <trkpt lat="47.75253" lon="7.36104">
        <ele>286</ele>
        <time>2019-09-09T13:30:36Z</time>
      </trkpt>
      <trkpt lat="47.75227" lon="7.36065">
        <ele>286.20001220703</ele>
        <time>2019-09-09T13:30:43Z</time>
      </trkpt>
      <trkpt lat="47.752" lon="7.36022">
        <ele>285.79998779297</ele>
        <time>2019-09-09T13:30:50Z</time>
      </trkpt>
      <trkpt lat="47.75168" lon="7.35961">
        <ele>285.60000610352</ele>
        <time>2019-09-09T13:30:59Z</time>
      </trkpt>
      <trkpt lat="47.7515" lon="7.3591">
        <ele>285.39999389648</ele>
        <time>2019-09-09T13:31:06Z</time>
      </trkpt>
      <trkpt lat="47.75149" lon="7.35903">
        <ele>285.20001220703</ele>
        <time>2019-09-09T13:31:07Z</time>
      </trkpt>
      <trkpt lat="47.75143" lon="7.35879">
        <ele>285.20001220703</ele>
        <time>2019-09-09T13:31:10Z</time>
      </trkpt>
      <trkpt lat="47.7514" lon="7.35872">
        <ele>285.20001220703</ele>
        <time>2019-09-09T13:31:11Z</time>
      </trkpt>
      <trkpt lat="47.75125" lon="7.35842">
        <ele>285.20001220703</ele>
        <time>2019-09-09T13:31:16Z</time>
      </trkpt>
      <trkpt lat="47.75117" lon="7.35826">
        <ele>285.20001220703</ele>
        <time>2019-09-09T13:31:21Z</time>
      </trkpt>
      <trkpt lat="47.75111" lon="7.35811">
        <ele>285.60000610352</ele>
        <time>2019-09-09T13:31:26Z</time>
      </trkpt>
      <trkpt lat="47.75101" lon="7.35797">
        <ele>286</ele>
        <time>2019-09-09T13:31:30Z</time>
      </trkpt>
      <trkpt lat="47.75094" lon="7.35771">
        <ele>286</ele>
        <time>2019-09-09T13:31:34Z</time>
      </trkpt>
      <trkpt lat="47.75075" lon="7.35725">
        <ele>285.79998779297</ele>
        <time>2019-09-09T13:31:41Z</time>
      </trkpt>
      <trkpt lat="47.75042" lon="7.35661">
        <ele>285.60000610352</ele>
        <time>2019-09-09T13:31:51Z</time>
      </trkpt>
      <trkpt lat="47.75014" lon="7.35608">
        <ele>285.60000610352</ele>
        <time>2019-09-09T13:31:59Z</time>
      </trkpt>
      <trkpt lat="47.74986" lon="7.35555">
        <ele>285.39999389648</ele>
        <time>2019-09-09T13:32:07Z</time>
      </trkpt>
      <trkpt lat="47.74979" lon="7.35542">
        <ele>285.39999389648</ele>
        <time>2019-09-09T13:32:09Z</time>
      </trkpt>
      <trkpt lat="47.74951" lon="7.3549">
        <ele>285.39999389648</ele>
        <time>2019-09-09T13:32:17Z</time>
      </trkpt>
      <trkpt lat="47.74915" lon="7.35422">
        <ele>285.39999389648</ele>
        <time>2019-09-09T13:32:27Z</time>
      </trkpt>
      <trkpt lat="47.74911" lon="7.35416">
        <ele>285.39999389648</ele>
        <time>2019-09-09T13:32:28Z</time>
      </trkpt>
      <trkpt lat="47.74881" lon="7.35359">
        <ele>285.60000610352</ele>
        <time>2019-09-09T13:32:37Z</time>
      </trkpt>
      <trkpt lat="47.74858" lon="7.35317">
        <ele>285.60000610352</ele>
        <time>2019-09-09T13:32:44Z</time>
      </trkpt>
      <trkpt lat="47.74834" lon="7.35273">
        <ele>285.39999389648</ele>
        <time>2019-09-09T13:32:51Z</time>
      </trkpt>
      <trkpt lat="47.74806" lon="7.35219">
        <ele>285.20001220703</ele>
        <time>2019-09-09T13:32:59Z</time>
      </trkpt>
      <trkpt lat="47.74778" lon="7.35166">
        <ele>285.20001220703</ele>
        <time>2019-09-09T13:33:07Z</time>
      </trkpt>
      <trkpt lat="47.7475" lon="7.35113">
        <ele>285.60000610352</ele>
        <time>2019-09-09T13:33:15Z</time>
      </trkpt>
      <trkpt lat="47.74724" lon="7.35059">
        <ele>285.60000610352</ele>
        <time>2019-09-09T13:33:23Z</time>
      </trkpt>
      <trkpt lat="47.74695" lon="7.35006">
        <ele>285.39999389648</ele>
        <time>2019-09-09T13:33:31Z</time>
      </trkpt>
      <trkpt lat="47.74658" lon="7.34938">
        <ele>285.39999389648</ele>
        <time>2019-09-09T13:33:41Z</time>
      </trkpt>
      <trkpt lat="47.74651" lon="7.34925">
        <ele>285.39999389648</ele>
        <time>2019-09-09T13:33:43Z</time>
      </trkpt>
      <trkpt lat="47.74613" lon="7.34858">
        <ele>285.39999389648</ele>
        <time>2019-09-09T13:33:53Z</time>
      </trkpt>
      <trkpt lat="47.74583" lon="7.34803">
        <ele>285.39999389648</ele>
        <time>2019-09-09T13:34:01Z</time>
      </trkpt>
      <trkpt lat="47.74575" lon="7.3479">
        <ele>285.39999389648</ele>
        <time>2019-09-09T13:34:03Z</time>
      </trkpt>
      <trkpt lat="47.74559" lon="7.34766">
        <ele>285.39999389648</ele>
        <time>2019-09-09T13:34:07Z</time>
      </trkpt>
      <trkpt lat="47.74535" lon="7.34723">
        <ele>285.60000610352</ele>
        <time>2019-09-09T13:34:14Z</time>
      </trkpt>
      <trkpt lat="47.7452" lon="7.34681">
        <ele>285.79998779297</ele>
        <time>2019-09-09T13:34:20Z</time>
      </trkpt>
      <trkpt lat="47.745" lon="7.34643">
        <ele>285.79998779297</ele>
        <time>2019-09-09T13:34:26Z</time>
      </trkpt>
      <trkpt lat="47.74468" lon="7.34581">
        <ele>285.79998779297</ele>
        <time>2019-09-09T13:34:35Z</time>
      </trkpt>
      <trkpt lat="47.74445" lon="7.34538">
        <ele>286</ele>
        <time>2019-09-09T13:34:42Z</time>
      </trkpt>
      <trkpt lat="47.74436" lon="7.34525">
        <ele>286</ele>
        <time>2019-09-09T13:34:44Z</time>
      </trkpt>
      <trkpt lat="47.74428" lon="7.34513">
        <ele>286</ele>
        <time>2019-09-09T13:34:46Z</time>
      </trkpt>
      <trkpt lat="47.74425" lon="7.34507">
        <ele>286</ele>
        <time>2019-09-09T13:34:47Z</time>
      </trkpt>
      <trkpt lat="47.744" lon="7.34459">
        <ele>286.20001220703</ele>
        <time>2019-09-09T13:34:55Z</time>
      </trkpt>
      <trkpt lat="47.74373" lon="7.34408">
        <ele>286.20001220703</ele>
        <time>2019-09-09T13:35:03Z</time>
      </trkpt>
      <trkpt lat="47.74346" lon="7.34357">
        <ele>286.39999389648</ele>
        <time>2019-09-09T13:35:11Z</time>
      </trkpt>
      <trkpt lat="47.74332" lon="7.34327">
        <ele>286.60000610352</ele>
        <time>2019-09-09T13:35:17Z</time>
      </trkpt>
      <trkpt lat="47.74321" lon="7.34307">
        <ele>286.60000610352</ele>
        <time>2019-09-09T13:35:21Z</time>
      </trkpt>
      <trkpt lat="47.7431" lon="7.34294">
        <ele>286.60000610352</ele>
        <time>2019-09-09T13:35:24Z</time>
      </trkpt>
      <trkpt lat="47.74273" lon="7.34261">
        <ele>286.60000610352</ele>
        <time>2019-09-09T13:35:32Z</time>
      </trkpt>
      <trkpt lat="47.74259" lon="7.34219">
        <ele>286.60000610352</ele>
        <time>2019-09-09T13:35:36Z</time>
      </trkpt>
      <trkpt lat="47.74259" lon="7.34199">
        <ele>286.60000610352</ele>
        <time>2019-09-09T13:35:37Z</time>
      </trkpt>
      <trkpt lat="47.74239" lon="7.34155">
        <ele>286.60000610352</ele>
        <time>2019-09-09T13:35:43Z</time>
      </trkpt>
      <trkpt lat="47.7423" lon="7.34135">
        <ele>286.39999389648</ele>
        <time>2019-09-09T13:35:46Z</time>
      </trkpt>
      <trkpt lat="47.74225" lon="7.34122">
        <ele>286.39999389648</ele>
        <time>2019-09-09T13:35:48Z</time>
      </trkpt>
      <trkpt lat="47.74206" lon="7.34085">
        <ele>286.39999389648</ele>
        <time>2019-09-09T13:35:54Z</time>
      </trkpt>
      <trkpt lat="47.74192" lon="7.34057">
        <ele>286.39999389648</ele>
        <time>2019-09-09T13:35:59Z</time>
      </trkpt>
      <trkpt lat="47.74176" lon="7.34023">
        <ele>286.39999389648</ele>
        <time>2019-09-09T13:36:05Z</time>
      </trkpt>
      <trkpt lat="47.74155" lon="7.33976">
        <ele>286.39999389648</ele>
        <time>2019-09-09T13:36:13Z</time>
      </trkpt>
      <trkpt lat="47.74142" lon="7.33945">
        <ele>286.39999389648</ele>
        <time>2019-09-09T13:36:18Z</time>
      </trkpt>
      <trkpt lat="47.74135" lon="7.33932">
        <ele>286.39999389648</ele>
        <time>2019-09-09T13:36:20Z</time>
      </trkpt>
      <trkpt lat="47.74112" lon="7.33886">
        <ele>286.39999389648</ele>
        <time>2019-09-09T13:36:27Z</time>
      </trkpt>
      <trkpt lat="47.74095" lon="7.33851">
        <ele>286.20001220703</ele>
        <time>2019-09-09T13:36:33Z</time>
      </trkpt>
      <trkpt lat="47.74057" lon="7.33802">
        <ele>286.39999389648</ele>
        <time>2019-09-09T13:36:41Z</time>
      </trkpt>
      <trkpt lat="47.74043" lon="7.33779">
        <ele>286.79998779297</ele>
        <time>2019-09-09T13:36:45Z</time>
      </trkpt>
      <trkpt lat="47.74036" lon="7.33768">
        <ele>287</ele>
        <time>2019-09-09T13:36:47Z</time>
      </trkpt>
      <trkpt lat="47.74006" lon="7.33714">
        <ele>286.79998779297</ele>
        <time>2019-09-09T13:36:56Z</time>
      </trkpt>
      <trkpt lat="47.73986" lon="7.3368">
        <ele>286.60000610352</ele>
        <time>2019-09-09T13:37:02Z</time>
      </trkpt>
      <trkpt lat="47.73968" lon="7.33643">
        <ele>286.60000610352</ele>
        <time>2019-09-09T13:37:08Z</time>
      </trkpt>
      <trkpt lat="47.73958" lon="7.33625">
        <ele>286.60000610352</ele>
        <time>2019-09-09T13:37:11Z</time>
      </trkpt>
      <trkpt lat="47.73951" lon="7.33619">
        <ele>286.60000610352</ele>
        <time>2019-09-09T13:37:13Z</time>
      </trkpt>
      <trkpt lat="47.73938" lon="7.33602">
        <ele>286.60000610352</ele>
        <time>2019-09-09T13:37:17Z</time>
      </trkpt>
      <trkpt lat="47.73918" lon="7.33566">
        <ele>287</ele>
        <time>2019-09-09T13:37:24Z</time>
      </trkpt>
      <trkpt lat="47.73902" lon="7.33536">
        <ele>287.20001220703</ele>
        <time>2019-09-09T13:37:31Z</time>
      </trkpt>
      <trkpt lat="47.73891" lon="7.33516">
        <ele>287.20001220703</ele>
        <time>2019-09-09T13:37:37Z</time>
      </trkpt>
      <trkpt lat="47.73891" lon="7.33513">
        <ele>287.20001220703</ele>
        <time>2019-09-09T13:37:38Z</time>
      </trkpt>
      <trkpt lat="47.73893" lon="7.33511">
        <ele>287.20001220703</ele>
        <time>2019-09-09T13:37:42Z</time>
      </trkpt>
      <trkpt lat="47.73892" lon="7.33509">
        <ele>287.20001220703</ele>
        <time>2019-09-09T13:38:05Z</time>
      </trkpt>
      <trkpt lat="47.73889" lon="7.33506">
        <ele>287.20001220703</ele>
        <time>2019-09-09T13:38:09Z</time>
      </trkpt>
      <trkpt lat="47.73888" lon="7.33503">
        <ele>287.20001220703</ele>
        <time>2019-09-09T13:38:10Z</time>
      </trkpt>
      <trkpt lat="47.73879" lon="7.33484">
        <ele>287</ele>
        <time>2019-09-09T13:38:15Z</time>
      </trkpt>
      <trkpt lat="47.73866" lon="7.33458">
        <ele>286.60000610352</ele>
        <time>2019-09-09T13:38:20Z</time>
      </trkpt>
      <trkpt lat="47.73861" lon="7.33449">
        <ele>286.60000610352</ele>
        <time>2019-09-09T13:38:22Z</time>
      </trkpt>
      <trkpt lat="47.73849" lon="7.33428">
        <ele>286.20001220703</ele>
        <time>2019-09-09T13:38:26Z</time>
      </trkpt>
      <trkpt lat="47.73828" lon="7.33389">
        <ele>286.20001220703</ele>
        <time>2019-09-09T13:38:34Z</time>
      </trkpt>
      <trkpt lat="47.73811" lon="7.33351">
        <ele>286.60000610352</ele>
        <time>2019-09-09T13:38:41Z</time>
      </trkpt>
      <trkpt lat="47.73801" lon="7.33329">
        <ele>286.39999389648</ele>
        <time>2019-09-09T13:38:45Z</time>
      </trkpt>
      <trkpt lat="47.73793" lon="7.33315">
        <ele>286.39999389648</ele>
        <time>2019-09-09T13:38:48Z</time>
      </trkpt>
      <trkpt lat="47.73777" lon="7.33282">
        <ele>286.39999389648</ele>
        <time>2019-09-09T13:38:54Z</time>
      </trkpt>
      <trkpt lat="47.7377" lon="7.33271">
        <ele>286.39999389648</ele>
        <time>2019-09-09T13:38:56Z</time>
      </trkpt>
      <trkpt lat="47.73764" lon="7.3326">
        <ele>286.39999389648</ele>
        <time>2019-09-09T13:38:58Z</time>
      </trkpt>
      <trkpt lat="47.73744" lon="7.33223">
        <ele>286.39999389648</ele>
        <time>2019-09-09T13:39:04Z</time>
      </trkpt>
      <trkpt lat="47.73723" lon="7.33183">
        <ele>286.39999389648</ele>
        <time>2019-09-09T13:39:11Z</time>
      </trkpt>
      <trkpt lat="47.7372" lon="7.33176">
        <ele>286.39999389648</ele>
        <time>2019-09-09T13:39:12Z</time>
      </trkpt>
      <trkpt lat="47.73709" lon="7.33149">
        <ele>286.39999389648</ele>
        <time>2019-09-09T13:39:16Z</time>
      </trkpt>
      <trkpt lat="47.73698" lon="7.33128">
        <ele>286</ele>
        <time>2019-09-09T13:39:21Z</time>
      </trkpt>
      <trkpt lat="47.73683" lon="7.33101">
        <ele>286</ele>
        <time>2019-09-09T13:39:27Z</time>
      </trkpt>
      <trkpt lat="47.73666" lon="7.33082">
        <ele>286</ele>
        <time>2019-09-09T13:39:32Z</time>
      </trkpt>
      <trkpt lat="47.73642" lon="7.33048">
        <ele>286.20001220703</ele>
        <time>2019-09-09T13:39:40Z</time>
      </trkpt>
      <trkpt lat="47.73629" lon="7.33032">
        <ele>287</ele>
        <time>2019-09-09T13:39:44Z</time>
      </trkpt>
      <trkpt lat="47.73626" lon="7.33032">
        <ele>287.20001220703</ele>
        <time>2019-09-09T13:39:45Z</time>
      </trkpt>
      <trkpt lat="47.73625" lon="7.33035">
        <ele>287.60000610352</ele>
        <time>2019-09-09T13:39:47Z</time>
      </trkpt>
      <trkpt lat="47.73626" lon="7.33038">
        <ele>287.79998779297</ele>
        <time>2019-09-09T13:39:48Z</time>
      </trkpt>
      <trkpt lat="47.73629" lon="7.33045">
        <ele>288</ele>
        <time>2019-09-09T13:39:50Z</time>
      </trkpt>
      <trkpt lat="47.73631" lon="7.33053">
        <ele>288.39999389648</ele>
        <time>2019-09-09T13:39:52Z</time>
      </trkpt>
      <trkpt lat="47.73632" lon="7.33057">
        <ele>288.60000610352</ele>
        <time>2019-09-09T13:39:53Z</time>
      </trkpt>
      <trkpt lat="47.73641" lon="7.33075">
        <ele>289.20001220703</ele>
        <time>2019-09-09T13:39:58Z</time>
      </trkpt>
      <trkpt lat="47.73647" lon="7.33084">
        <ele>289.39999389648</ele>
        <time>2019-09-09T13:40:01Z</time>
      </trkpt>
      <trkpt lat="47.73652" lon="7.33093">
        <ele>289.79998779297</ele>
        <time>2019-09-09T13:40:04Z</time>
      </trkpt>
      <trkpt lat="47.73654" lon="7.33093">
        <ele>289.79998779297</ele>
        <time>2019-09-09T13:40:05Z</time>
      </trkpt>
      <trkpt lat="47.73662" lon="7.33089">
        <ele>289.79998779297</ele>
        <time>2019-09-09T13:40:08Z</time>
      </trkpt>
      <trkpt lat="47.73679" lon="7.33067">
        <ele>290</ele>
        <time>2019-09-09T13:40:15Z</time>
      </trkpt>
      <trkpt lat="47.73672" lon="7.33049">
        <ele>290</ele>
        <time>2019-09-09T13:40:19Z</time>
      </trkpt>
      <trkpt lat="47.7367" lon="7.33043">
        <ele>290</ele>
        <time>2019-09-09T13:40:20Z</time>
      </trkpt>
      <trkpt lat="47.73664" lon="7.33013">
        <ele>290</ele>
        <time>2019-09-09T13:40:24Z</time>
      </trkpt>
      <trkpt lat="47.73655" lon="7.32981">
        <ele>289.39999389648</ele>
        <time>2019-09-09T13:40:29Z</time>
      </trkpt>
      <trkpt lat="47.73648" lon="7.32964">
        <ele>289</ele>
        <time>2019-09-09T13:40:32Z</time>
      </trkpt>
      <trkpt lat="47.73634" lon="7.32938">
        <ele>288.79998779297</ele>
        <time>2019-09-09T13:40:37Z</time>
      </trkpt>
      <trkpt lat="47.73614" lon="7.32902">
        <ele>289.20001220703</ele>
        <time>2019-09-09T13:40:44Z</time>
      </trkpt>
      <trkpt lat="47.73593" lon="7.32868">
        <ele>289.20001220703</ele>
        <time>2019-09-09T13:40:50Z</time>
      </trkpt>
      <trkpt lat="47.73578" lon="7.32843">
        <ele>289.20001220703</ele>
        <time>2019-09-09T13:40:54Z</time>
      </trkpt>
      <trkpt lat="47.73571" lon="7.32831">
        <ele>289.20001220703</ele>
        <time>2019-09-09T13:40:56Z</time>
      </trkpt>
      <trkpt lat="47.73567" lon="7.32825">
        <ele>289.20001220703</ele>
        <time>2019-09-09T13:40:57Z</time>
      </trkpt>
      <trkpt lat="47.73559" lon="7.32807">
        <ele>288.60000610352</ele>
        <time>2019-09-09T13:41:00Z</time>
      </trkpt>
      <trkpt lat="47.73556" lon="7.32801">
        <ele>288.39999389648</ele>
        <time>2019-09-09T13:41:01Z</time>
      </trkpt>
      <trkpt lat="47.73554" lon="7.32794">
        <ele>288.39999389648</ele>
        <time>2019-09-09T13:41:02Z</time>
      </trkpt>
      <trkpt lat="47.73534" lon="7.32754">
        <ele>287.79998779297</ele>
        <time>2019-09-09T13:41:09Z</time>
      </trkpt>
      <trkpt lat="47.73528" lon="7.32743">
        <ele>287.60000610352</ele>
        <time>2019-09-09T13:41:11Z</time>
      </trkpt>
      <trkpt lat="47.73515" lon="7.32727">
        <ele>287.60000610352</ele>
        <time>2019-09-09T13:41:15Z</time>
      </trkpt>
      <trkpt lat="47.73483" lon="7.32699">
        <ele>288</ele>
        <time>2019-09-09T13:41:23Z</time>
      </trkpt>
      <trkpt lat="47.73453" lon="7.32682">
        <ele>289</ele>
        <time>2019-09-09T13:41:30Z</time>
      </trkpt>
      <trkpt lat="47.73421" lon="7.32662">
        <ele>289.39999389648</ele>
        <time>2019-09-09T13:41:38Z</time>
      </trkpt>
      <trkpt lat="47.73413" lon="7.32656">
        <ele>289.60000610352</ele>
        <time>2019-09-09T13:41:42Z</time>
      </trkpt>
      <trkpt lat="47.73412" lon="7.32656">
        <ele>289.60000610352</ele>
        <time>2019-09-09T13:41:43Z</time>
      </trkpt>
      <trkpt lat="47.73411" lon="7.32653">
        <ele>290.20001220703</ele>
        <time>2019-09-09T13:44:54Z</time>
      </trkpt>
      <trkpt lat="47.73408" lon="7.3265">
        <ele>290.20001220703</ele>
        <time>2019-09-09T13:44:56Z</time>
      </trkpt>
      <trkpt lat="47.73397" lon="7.3264">
        <ele>290.20001220703</ele>
        <time>2019-09-09T13:45:01Z</time>
      </trkpt>
      <trkpt lat="47.73397" lon="7.32637">
        <ele>290.20001220703</ele>
        <time>2019-09-09T13:45:02Z</time>
      </trkpt>
      <trkpt lat="47.734" lon="7.32626">
        <ele>290</ele>
        <time>2019-09-09T13:45:05Z</time>
      </trkpt>
      <trkpt lat="47.73411" lon="7.32624">
        <ele>289.79998779297</ele>
        <time>2019-09-09T13:45:09Z</time>
      </trkpt>
      <trkpt lat="47.73416" lon="7.32618">
        <ele>290</ele>
        <time>2019-09-09T13:45:11Z</time>
      </trkpt>
      <trkpt lat="47.73421" lon="7.32611">
        <ele>290</ele>
        <time>2019-09-09T13:45:13Z</time>
      </trkpt>
      <trkpt lat="47.73431" lon="7.32589">
        <ele>289.79998779297</ele>
        <time>2019-09-09T13:45:18Z</time>
      </trkpt>
      <trkpt lat="47.73444" lon="7.32549">
        <ele>289.79998779297</ele>
        <time>2019-09-09T13:45:26Z</time>
      </trkpt>
      <trkpt lat="47.73455" lon="7.32508">
        <ele>289.79998779297</ele>
        <time>2019-09-09T13:45:34Z</time>
      </trkpt>
      <trkpt lat="47.73462" lon="7.32478">
        <ele>289.60000610352</ele>
        <time>2019-09-09T13:45:40Z</time>
      </trkpt>
      <trkpt lat="47.7347" lon="7.32446">
        <ele>289.39999389648</ele>
        <time>2019-09-09T13:45:46Z</time>
      </trkpt>
      <trkpt lat="47.73467" lon="7.32432">
        <ele>289.20001220703</ele>
        <time>2019-09-09T13:45:49Z</time>
      </trkpt>
      <trkpt lat="47.73457" lon="7.32424">
        <ele>289</ele>
        <time>2019-09-09T13:45:54Z</time>
      </trkpt>
      <trkpt lat="47.73454" lon="7.32422">
        <ele>288.79998779297</ele>
        <time>2019-09-09T13:45:56Z</time>
      </trkpt>
      <trkpt lat="47.73453" lon="7.32417">
        <ele>288.79998779297</ele>
        <time>2019-09-09T13:45:58Z</time>
      </trkpt>
      <trkpt lat="47.73452" lon="7.32415">
        <ele>288.79998779297</ele>
        <time>2019-09-09T13:45:59Z</time>
      </trkpt>
      <trkpt lat="47.7345" lon="7.32411">
        <ele>288.79998779297</ele>
        <time>2019-09-09T13:46:03Z</time>
      </trkpt>
      <trkpt lat="47.73447" lon="7.3241">
        <ele>289</ele>
        <time>2019-09-09T13:49:33Z</time>
      </trkpt>
      <trkpt lat="47.7344" lon="7.32408">
        <ele>289</ele>
        <time>2019-09-09T13:49:36Z</time>
      </trkpt>
      <trkpt lat="47.73426" lon="7.32402">
        <ele>289</ele>
        <time>2019-09-09T13:49:42Z</time>
      </trkpt>
      <trkpt lat="47.73414" lon="7.32393">
        <ele>289.20001220703</ele>
        <time>2019-09-09T13:49:47Z</time>
      </trkpt>
      <trkpt lat="47.73412" lon="7.32392">
        <ele>289.20001220703</ele>
        <time>2019-09-09T13:49:48Z</time>
      </trkpt>
      <trkpt lat="47.73404" lon="7.32396">
        <ele>289.20001220703</ele>
        <time>2019-09-09T13:49:53Z</time>
      </trkpt>
      <trkpt lat="47.73401" lon="7.32407">
        <ele>289.20001220703</ele>
        <time>2019-09-09T13:49:57Z</time>
      </trkpt>
      <trkpt lat="47.73398" lon="7.32412">
        <ele>289</ele>
        <time>2019-09-09T13:50:00Z</time>
      </trkpt>
      <trkpt lat="47.73395" lon="7.3242">
        <ele>289.20001220703</ele>
        <time>2019-09-09T13:50:05Z</time>
      </trkpt>
      <trkpt lat="47.73392" lon="7.32423">
        <ele>289.20001220703</ele>
        <time>2019-09-09T13:50:07Z</time>
      </trkpt>
      <trkpt lat="47.73386" lon="7.32427">
        <ele>289</ele>
        <time>2019-09-09T13:50:11Z</time>
      </trkpt>
      <trkpt lat="47.73385" lon="7.32427">
        <ele>289</ele>
        <time>2019-09-09T13:50:12Z</time>
      </trkpt>
      <trkpt lat="47.73381" lon="7.32424">
        <ele>289</ele>
        <time>2019-09-09T13:50:16Z</time>
      </trkpt>
      <trkpt lat="47.73381" lon="7.32424">
        <ele>289</ele>
        <time>2019-09-09T13:50:17Z</time>
      </trkpt>
      <trkpt lat="47.7338" lon="7.32423">
        <ele>289</ele>
        <time>2019-09-09T13:50:22Z</time>
      </trkpt>
      <trkpt lat="47.73374" lon="7.32416">
        <ele>289</ele>
        <time>2019-09-09T13:50:26Z</time>
      </trkpt>
      <trkpt lat="47.73365" lon="7.32408">
        <ele>289</ele>
        <time>2019-09-09T13:50:31Z</time>
      </trkpt>
      <trkpt lat="47.73363" lon="7.32406">
        <ele>289</ele>
        <time>2019-09-09T13:50:32Z</time>
      </trkpt>
      <trkpt lat="47.73361" lon="7.32398">
        <ele>289</ele>
        <time>2019-09-09T13:50:35Z</time>
      </trkpt>
      <trkpt lat="47.7336" lon="7.32394">
        <ele>289</ele>
        <time>2019-09-09T13:50:39Z</time>
      </trkpt>
      <trkpt lat="47.73456" lon="7.32421">
        <ele>246</ele>
        <time>2019-09-09T14:52:54Z</time>
      </trkpt>
      <trkpt lat="47.7347" lon="7.32427">
        <ele>245.80000305176</ele>
        <time>2019-09-09T14:52:59Z</time>
      </trkpt>
      <trkpt lat="47.73474" lon="7.32426">
        <ele>246</ele>
        <time>2019-09-09T14:53:00Z</time>
      </trkpt>
      <trkpt lat="47.73479" lon="7.3242">
        <ele>245.80000305176</ele>
        <time>2019-09-09T14:53:02Z</time>
      </trkpt>
      <trkpt lat="47.73481" lon="7.3241">
        <ele>245.80000305176</ele>
        <time>2019-09-09T14:53:04Z</time>
      </trkpt>
      <trkpt lat="47.73482" lon="7.32394">
        <ele>246.19999694824</ele>
        <time>2019-09-09T14:53:07Z</time>
      </trkpt>
      <trkpt lat="47.73489" lon="7.32359">
        <ele>246.19999694824</ele>
        <time>2019-09-09T14:53:15Z</time>
      </trkpt>
      <trkpt lat="47.73491" lon="7.32351">
        <ele>246.39999389648</ele>
        <time>2019-09-09T14:53:20Z</time>
      </trkpt>
      <trkpt lat="47.73492" lon="7.32351">
        <ele>246.60000610352</ele>
        <time>2019-09-09T14:53:23Z</time>
      </trkpt>
      <trkpt lat="47.73495" lon="7.32353">
        <ele>246.60000610352</ele>
        <time>2019-09-09T14:53:25Z</time>
      </trkpt>
      <trkpt lat="47.73509" lon="7.32358">
        <ele>246.80000305176</ele>
        <time>2019-09-09T14:53:30Z</time>
      </trkpt>
      <trkpt lat="47.73535" lon="7.32366">
        <ele>246.80000305176</ele>
        <time>2019-09-09T14:53:37Z</time>
      </trkpt>
      <trkpt lat="47.73561" lon="7.32371">
        <ele>246.39999389648</ele>
        <time>2019-09-09T14:53:44Z</time>
      </trkpt>
      <trkpt lat="47.73579" lon="7.32372">
        <ele>246.39999389648</ele>
        <time>2019-09-09T14:53:49Z</time>
      </trkpt>
      <trkpt lat="47.73603" lon="7.32371">
        <ele>246.39999389648</ele>
        <time>2019-09-09T14:53:55Z</time>
      </trkpt>
      <trkpt lat="47.73629" lon="7.32369">
        <ele>246.60000610352</ele>
        <time>2019-09-09T14:54:01Z</time>
      </trkpt>
      <trkpt lat="47.73663" lon="7.3237">
        <ele>246.60000610352</ele>
        <time>2019-09-09T14:54:09Z</time>
      </trkpt>
      <trkpt lat="47.73689" lon="7.32373">
        <ele>246.80000305176</ele>
        <time>2019-09-09T14:54:15Z</time>
      </trkpt>
      <trkpt lat="47.73714" lon="7.32375">
        <ele>247</ele>
        <time>2019-09-09T14:54:21Z</time>
      </trkpt>
      <trkpt lat="47.73739" lon="7.32379">
        <ele>247</ele>
        <time>2019-09-09T14:54:27Z</time>
      </trkpt>
      <trkpt lat="47.73765" lon="7.32385">
        <ele>247.19999694824</ele>
        <time>2019-09-09T14:54:33Z</time>
      </trkpt>
      <trkpt lat="47.73784" lon="7.32395">
        <ele>247.19999694824</ele>
        <time>2019-09-09T14:54:38Z</time>
      </trkpt>
      <trkpt lat="47.73804" lon="7.32409">
        <ele>247.19999694824</ele>
        <time>2019-09-09T14:54:42Z</time>
      </trkpt>
      <trkpt lat="47.7381" lon="7.32416">
        <ele>247.19999694824</ele>
        <time>2019-09-09T14:54:43Z</time>
      </trkpt>
      <trkpt lat="47.73822" lon="7.32436">
        <ele>247.19999694824</ele>
        <time>2019-09-09T14:54:46Z</time>
      </trkpt>
      <trkpt lat="47.73824" lon="7.32443">
        <ele>247.19999694824</ele>
        <time>2019-09-09T14:54:47Z</time>
      </trkpt>
      <trkpt lat="47.73826" lon="7.3245">
        <ele>247</ele>
        <time>2019-09-09T14:54:48Z</time>
      </trkpt>
      <trkpt lat="47.7383" lon="7.32472">
        <ele>246.80000305176</ele>
        <time>2019-09-09T14:54:51Z</time>
      </trkpt>
      <trkpt lat="47.73832" lon="7.32479">
        <ele>246.80000305176</ele>
        <time>2019-09-09T14:54:52Z</time>
      </trkpt>
      <trkpt lat="47.73834" lon="7.32484">
        <ele>246.80000305176</ele>
        <time>2019-09-09T14:54:53Z</time>
      </trkpt>
      <trkpt lat="47.73843" lon="7.32489">
        <ele>246.80000305176</ele>
        <time>2019-09-09T14:54:57Z</time>
      </trkpt>
      <trkpt lat="47.73845" lon="7.3249">
        <ele>246.80000305176</ele>
        <time>2019-09-09T14:54:58Z</time>
      </trkpt>
      <trkpt lat="47.73861" lon="7.32493">
        <ele>247</ele>
        <time>2019-09-09T14:55:03Z</time>
      </trkpt>
      <trkpt lat="47.7387" lon="7.32507">
        <ele>247.19999694824</ele>
        <time>2019-09-09T14:55:07Z</time>
      </trkpt>
      <trkpt lat="47.73871" lon="7.32518">
        <ele>247.39999389648</ele>
        <time>2019-09-09T14:55:09Z</time>
      </trkpt>
      <trkpt lat="47.73874" lon="7.32535">
        <ele>247.39999389648</ele>
        <time>2019-09-09T14:55:12Z</time>
      </trkpt>
      <trkpt lat="47.73876" lon="7.3257">
        <ele>247.60000610352</ele>
        <time>2019-09-09T14:55:18Z</time>
      </trkpt>
      <trkpt lat="47.73866" lon="7.32594">
        <ele>247.60000610352</ele>
        <time>2019-09-09T14:55:23Z</time>
      </trkpt>
      <trkpt lat="47.73852" lon="7.3263">
        <ele>247.39999389648</ele>
        <time>2019-09-09T14:55:31Z</time>
      </trkpt>
      <trkpt lat="47.73855" lon="7.32645">
        <ele>247.19999694824</ele>
        <time>2019-09-09T14:55:34Z</time>
      </trkpt>
      <trkpt lat="47.73855" lon="7.32649">
        <ele>247.19999694824</ele>
        <time>2019-09-09T14:55:35Z</time>
      </trkpt>
      <trkpt lat="47.7385" lon="7.32662">
        <ele>247</ele>
        <time>2019-09-09T14:55:38Z</time>
      </trkpt>
      <trkpt lat="47.73845" lon="7.32669">
        <ele>246.80000305176</ele>
        <time>2019-09-09T14:55:40Z</time>
      </trkpt>
      <trkpt lat="47.7384" lon="7.32676">
        <ele>246.60000610352</ele>
        <time>2019-09-09T14:55:44Z</time>
      </trkpt>
      <trkpt lat="47.7384" lon="7.32676">
        <ele>246.39999389648</ele>
        <time>2019-09-09T14:55:46Z</time>
      </trkpt>
      <trkpt lat="47.73839" lon="7.32677">
        <ele>246.39999389648</ele>
        <time>2019-09-09T14:55:48Z</time>
      </trkpt>
      <trkpt lat="47.73837" lon="7.32678">
        <ele>246.39999389648</ele>
        <time>2019-09-09T14:55:49Z</time>
      </trkpt>
      <trkpt lat="47.73836" lon="7.32679">
        <ele>246.39999389648</ele>
        <time>2019-09-09T14:55:50Z</time>
      </trkpt>
      <trkpt lat="47.73826" lon="7.32689">
        <ele>246.39999389648</ele>
        <time>2019-09-09T14:55:55Z</time>
      </trkpt>
      <trkpt lat="47.73807" lon="7.32704">
        <ele>246.60000610352</ele>
        <time>2019-09-09T14:56:02Z</time>
      </trkpt>
      <trkpt lat="47.73789" lon="7.32717">
        <ele>247</ele>
        <time>2019-09-09T14:56:08Z</time>
      </trkpt>
      <trkpt lat="47.73771" lon="7.32735">
        <ele>247.39999389648</ele>
        <time>2019-09-09T14:56:16Z</time>
      </trkpt>
      <trkpt lat="47.73759" lon="7.32747">
        <ele>248.39999389648</ele>
        <time>2019-09-09T14:56:22Z</time>
      </trkpt>
      <trkpt lat="47.73754" lon="7.32754">
        <ele>249.19999694824</ele>
        <time>2019-09-09T14:56:25Z</time>
      </trkpt>
      <trkpt lat="47.73752" lon="7.32756">
        <ele>249.60000610352</ele>
        <time>2019-09-09T14:56:26Z</time>
      </trkpt>
      <trkpt lat="47.73744" lon="7.32762">
        <ele>250.80000305176</ele>
        <time>2019-09-09T14:56:30Z</time>
      </trkpt>
      <trkpt lat="47.73738" lon="7.32766">
        <ele>251.80000305176</ele>
        <time>2019-09-09T14:56:33Z</time>
      </trkpt>
      <trkpt lat="47.73736" lon="7.32767">
        <ele>252</ele>
        <time>2019-09-09T14:56:34Z</time>
      </trkpt>
      <trkpt lat="47.73727" lon="7.32771">
        <ele>253.19999694824</ele>
        <time>2019-09-09T14:56:38Z</time>
      </trkpt>
      <trkpt lat="47.73723" lon="7.32774">
        <ele>253.60000610352</ele>
        <time>2019-09-09T14:56:40Z</time>
      </trkpt>
      <trkpt lat="47.73714" lon="7.32777">
        <ele>254.39999389648</ele>
        <time>2019-09-09T14:56:44Z</time>
      </trkpt>
      <trkpt lat="47.73707" lon="7.32781">
        <ele>254.60000610352</ele>
        <time>2019-09-09T14:56:47Z</time>
      </trkpt>
      <trkpt lat="47.73702" lon="7.32794">
        <ele>255</ele>
        <time>2019-09-09T14:56:51Z</time>
      </trkpt>
      <trkpt lat="47.73704" lon="7.32812">
        <ele>255.39999389648</ele>
        <time>2019-09-09T14:56:55Z</time>
      </trkpt>
      <trkpt lat="47.73707" lon="7.32814">
        <ele>255.60000610352</ele>
        <time>2019-09-09T14:56:56Z</time>
      </trkpt>
      <trkpt lat="47.7372" lon="7.32815">
        <ele>255.60000610352</ele>
        <time>2019-09-09T14:57:00Z</time>
      </trkpt>
      <trkpt lat="47.73739" lon="7.32806">
        <ele>255.60000610352</ele>
        <time>2019-09-09T14:57:06Z</time>
      </trkpt>
      <trkpt lat="47.73752" lon="7.3281">
        <ele>255</ele>
        <time>2019-09-09T14:57:11Z</time>
      </trkpt>
      <trkpt lat="47.73763" lon="7.32828">
        <ele>254.80000305176</ele>
        <time>2019-09-09T14:57:16Z</time>
      </trkpt>
      <trkpt lat="47.7377" lon="7.32842">
        <ele>254.80000305176</ele>
        <time>2019-09-09T14:57:22Z</time>
      </trkpt>
      <trkpt lat="47.7377" lon="7.32842">
        <ele>254.80000305176</ele>
        <time>2019-09-09T14:57:23Z</time>
      </trkpt>
      <trkpt lat="47.73771" lon="7.32844">
        <ele>254.80000305176</ele>
        <time>2019-09-09T14:57:25Z</time>
      </trkpt>
      <trkpt lat="47.73773" lon="7.32849">
        <ele>254.80000305176</ele>
        <time>2019-09-09T14:57:31Z</time>
      </trkpt>
      <trkpt lat="47.73775" lon="7.32853">
        <ele>254.19999694824</ele>
        <time>2019-09-09T14:57:36Z</time>
      </trkpt>
      <trkpt lat="47.73777" lon="7.32856">
        <ele>253</ele>
        <time>2019-09-09T14:57:39Z</time>
      </trkpt>
      <trkpt lat="47.73778" lon="7.32858">
        <ele>251.80000305176</ele>
        <time>2019-09-09T14:57:42Z</time>
      </trkpt>
      <trkpt lat="47.7378" lon="7.32861">
        <ele>250.80000305176</ele>
        <time>2019-09-09T14:57:46Z</time>
      </trkpt>
      <trkpt lat="47.73781" lon="7.32863">
        <ele>250</ele>
        <time>2019-09-09T14:57:48Z</time>
      </trkpt>
      <trkpt lat="47.73781" lon="7.32863">
        <ele>249.80000305176</ele>
        <time>2019-09-09T14:57:49Z</time>
      </trkpt>
      <trkpt lat="47.73783" lon="7.32866">
        <ele>248.80000305176</ele>
        <time>2019-09-09T14:57:53Z</time>
      </trkpt>
      <trkpt lat="47.73786" lon="7.3287">
        <ele>247.80000305176</ele>
        <time>2019-09-09T14:57:56Z</time>
      </trkpt>
      <trkpt lat="47.73793" lon="7.32877">
        <ele>246.80000305176</ele>
        <time>2019-09-09T14:57:59Z</time>
      </trkpt>
      <trkpt lat="47.73798" lon="7.32883">
        <ele>246.39999389648</ele>
        <time>2019-09-09T14:58:01Z</time>
      </trkpt>
      <trkpt lat="47.73814" lon="7.32903">
        <ele>245.80000305176</ele>
        <time>2019-09-09T14:58:07Z</time>
      </trkpt>
      <trkpt lat="47.73816" lon="7.32906">
        <ele>245.80000305176</ele>
        <time>2019-09-09T14:58:08Z</time>
      </trkpt>
      <trkpt lat="47.73829" lon="7.32936">
        <ele>245.60000610352</ele>
        <time>2019-09-09T14:58:15Z</time>
      </trkpt>
      <trkpt lat="47.73846" lon="7.32973">
        <ele>245.60000610352</ele>
        <time>2019-09-09T14:58:23Z</time>
      </trkpt>
      <trkpt lat="47.73857" lon="7.32994">
        <ele>245.80000305176</ele>
        <time>2019-09-09T14:58:28Z</time>
      </trkpt>
      <trkpt lat="47.7387" lon="7.33013">
        <ele>245.80000305176</ele>
        <time>2019-09-09T14:58:33Z</time>
      </trkpt>
      <trkpt lat="47.73888" lon="7.33044">
        <ele>245.80000305176</ele>
        <time>2019-09-09T14:58:40Z</time>
      </trkpt>
      <trkpt lat="47.73907" lon="7.33083">
        <ele>246</ele>
        <time>2019-09-09T14:58:48Z</time>
      </trkpt>
      <trkpt lat="47.73915" lon="7.33097">
        <ele>245.80000305176</ele>
        <time>2019-09-09T14:58:53Z</time>
      </trkpt>
      <trkpt lat="47.7392" lon="7.33107">
        <ele>245.80000305176</ele>
        <time>2019-09-09T14:58:57Z</time>
      </trkpt>
      <trkpt lat="47.73928" lon="7.33123">
        <ele>245.60000610352</ele>
        <time>2019-09-09T14:59:02Z</time>
      </trkpt>
      <trkpt lat="47.73931" lon="7.33141">
        <ele>245.60000610352</ele>
        <time>2019-09-09T14:59:06Z</time>
      </trkpt>
      <trkpt lat="47.73944" lon="7.33162">
        <ele>245.80000305176</ele>
        <time>2019-09-09T14:59:11Z</time>
      </trkpt>
      <trkpt lat="47.73953" lon="7.33191">
        <ele>245.80000305176</ele>
        <time>2019-09-09T14:59:17Z</time>
      </trkpt>
      <trkpt lat="47.73958" lon="7.33201">
        <ele>246</ele>
        <time>2019-09-09T14:59:20Z</time>
      </trkpt>
      <trkpt lat="47.7396" lon="7.33202">
        <ele>246</ele>
        <time>2019-09-09T14:59:21Z</time>
      </trkpt>
      <trkpt lat="47.73967" lon="7.33212">
        <ele>246</ele>
        <time>2019-09-09T14:59:24Z</time>
      </trkpt>
      <trkpt lat="47.73978" lon="7.33233">
        <ele>246</ele>
        <time>2019-09-09T14:59:29Z</time>
      </trkpt>
      <trkpt lat="47.7399" lon="7.33263">
        <ele>245.39999389648</ele>
        <time>2019-09-09T14:59:35Z</time>
      </trkpt>
      <trkpt lat="47.74011" lon="7.33309">
        <ele>245.39999389648</ele>
        <time>2019-09-09T14:59:44Z</time>
      </trkpt>
      <trkpt lat="47.74024" lon="7.33331">
        <ele>245.39999389648</ele>
        <time>2019-09-09T14:59:50Z</time>
      </trkpt>
      <trkpt lat="47.74027" lon="7.33332">
        <ele>245.19999694824</ele>
        <time>2019-09-09T14:59:52Z</time>
      </trkpt>
      <trkpt lat="47.74029" lon="7.33333">
        <ele>245.19999694824</ele>
        <time>2019-09-09T14:59:53Z</time>
      </trkpt>
      <trkpt lat="47.74037" lon="7.3334">
        <ele>245.19999694824</ele>
        <time>2019-09-09T14:59:57Z</time>
      </trkpt>
      <trkpt lat="47.74058" lon="7.33348">
        <ele>245</ele>
        <time>2019-09-09T15:00:03Z</time>
      </trkpt>
      <trkpt lat="47.74081" lon="7.33356">
        <ele>245</ele>
        <time>2019-09-09T15:00:09Z</time>
      </trkpt>
      <trkpt lat="47.74105" lon="7.33367">
        <ele>245.19999694824</ele>
        <time>2019-09-09T15:00:16Z</time>
      </trkpt>
      <trkpt lat="47.74108" lon="7.33366">
        <ele>245.19999694824</ele>
        <time>2019-09-09T15:00:17Z</time>
      </trkpt>
      <trkpt lat="47.74114" lon="7.33364">
        <ele>245.19999694824</ele>
        <time>2019-09-09T15:00:19Z</time>
      </trkpt>
      <trkpt lat="47.74124" lon="7.33366">
        <ele>245.19999694824</ele>
        <time>2019-09-09T15:00:22Z</time>
      </trkpt>
      <trkpt lat="47.74132" lon="7.33368">
        <ele>245.19999694824</ele>
        <time>2019-09-09T15:00:24Z</time>
      </trkpt>
      <trkpt lat="47.74151" lon="7.3337">
        <ele>245</ele>
        <time>2019-09-09T15:00:29Z</time>
      </trkpt>
      <trkpt lat="47.74157" lon="7.33372">
        <ele>245</ele>
        <time>2019-09-09T15:00:31Z</time>
      </trkpt>
      <trkpt lat="47.74178" lon="7.33374">
        <ele>245</ele>
        <time>2019-09-09T15:00:36Z</time>
      </trkpt>
      <trkpt lat="47.7419" lon="7.33382">
        <ele>245</ele>
        <time>2019-09-09T15:00:40Z</time>
      </trkpt>
      <trkpt lat="47.74203" lon="7.33385">
        <ele>245</ele>
        <time>2019-09-09T15:00:44Z</time>
      </trkpt>
      <trkpt lat="47.74218" lon="7.33392">
        <ele>244.80000305176</ele>
        <time>2019-09-09T15:00:49Z</time>
      </trkpt>
      <trkpt lat="47.74227" lon="7.33393">
        <ele>244.80000305176</ele>
        <time>2019-09-09T15:00:51Z</time>
      </trkpt>
      <trkpt lat="47.74245" lon="7.33395">
        <ele>244.80000305176</ele>
        <time>2019-09-09T15:00:55Z</time>
      </trkpt>
      <trkpt lat="47.7425" lon="7.33396">
        <ele>244.80000305176</ele>
        <time>2019-09-09T15:00:56Z</time>
      </trkpt>
      <trkpt lat="47.74267" lon="7.33399">
        <ele>245</ele>
        <time>2019-09-09T15:01:00Z</time>
      </trkpt>
      <trkpt lat="47.74284" lon="7.33402">
        <ele>245</ele>
        <time>2019-09-09T15:01:05Z</time>
      </trkpt>
      <trkpt lat="47.74298" lon="7.33405">
        <ele>245</ele>
        <time>2019-09-09T15:01:09Z</time>
      </trkpt>
      <trkpt lat="47.74301" lon="7.33406">
        <ele>245</ele>
        <time>2019-09-09T15:01:10Z</time>
      </trkpt>
      <trkpt lat="47.74309" lon="7.33409">
        <ele>245.19999694824</ele>
        <time>2019-09-09T15:01:13Z</time>
      </trkpt>
      <trkpt lat="47.74311" lon="7.3341">
        <ele>245.19999694824</ele>
        <time>2019-09-09T15:01:15Z</time>
      </trkpt>
      <trkpt lat="47.74315" lon="7.33411">
        <ele>245.19999694824</ele>
        <time>2019-09-09T15:01:32Z</time>
      </trkpt>
      <trkpt lat="47.7432" lon="7.33415">
        <ele>245.39999389648</ele>
        <time>2019-09-09T15:01:35Z</time>
      </trkpt>
      <trkpt lat="47.74322" lon="7.33418">
        <ele>245.39999389648</ele>
        <time>2019-09-09T15:01:36Z</time>
      </trkpt>
      <trkpt lat="47.74329" lon="7.33425">
        <ele>245.39999389648</ele>
        <time>2019-09-09T15:01:38Z</time>
      </trkpt>
      <trkpt lat="47.74334" lon="7.33427">
        <ele>245.39999389648</ele>
        <time>2019-09-09T15:01:39Z</time>
      </trkpt>
      <trkpt lat="47.74346" lon="7.33447">
        <ele>245.60000610352</ele>
        <time>2019-09-09T15:01:43Z</time>
      </trkpt>
      <trkpt lat="47.74353" lon="7.33467">
        <ele>245.60000610352</ele>
        <time>2019-09-09T15:01:46Z</time>
      </trkpt>
      <trkpt lat="47.74358" lon="7.33479">
        <ele>245.60000610352</ele>
        <time>2019-09-09T15:01:48Z</time>
      </trkpt>
      <trkpt lat="47.74361" lon="7.33485">
        <ele>245.60000610352</ele>
        <time>2019-09-09T15:01:49Z</time>
      </trkpt>
      <trkpt lat="47.74373" lon="7.33509">
        <ele>245.39999389648</ele>
        <time>2019-09-09T15:01:53Z</time>
      </trkpt>
      <trkpt lat="47.74377" lon="7.33514">
        <ele>245.39999389648</ele>
        <time>2019-09-09T15:01:54Z</time>
      </trkpt>
      <trkpt lat="47.74399" lon="7.33539">
        <ele>245.39999389648</ele>
        <time>2019-09-09T15:01:59Z</time>
      </trkpt>
      <trkpt lat="47.74403" lon="7.33544">
        <ele>245.39999389648</ele>
        <time>2019-09-09T15:02:00Z</time>
      </trkpt>
      <trkpt lat="47.7441" lon="7.33562">
        <ele>245.39999389648</ele>
        <time>2019-09-09T15:02:03Z</time>
      </trkpt>
      <trkpt lat="47.74417" lon="7.33571">
        <ele>245.19999694824</ele>
        <time>2019-09-09T15:02:05Z</time>
      </trkpt>
      <trkpt lat="47.74423" lon="7.33583">
        <ele>245.19999694824</ele>
        <time>2019-09-09T15:02:08Z</time>
      </trkpt>
      <trkpt lat="47.74427" lon="7.3359">
        <ele>245.19999694824</ele>
        <time>2019-09-09T15:02:12Z</time>
      </trkpt>
      <trkpt lat="47.74436" lon="7.33607">
        <ele>245.39999389648</ele>
        <time>2019-09-09T15:02:17Z</time>
      </trkpt>
      <trkpt lat="47.74438" lon="7.33612">
        <ele>245.19999694824</ele>
        <time>2019-09-09T15:02:18Z</time>
      </trkpt>
      <trkpt lat="47.74441" lon="7.33623">
        <ele>245.39999389648</ele>
        <time>2019-09-09T15:02:20Z</time>
      </trkpt>
      <trkpt lat="47.7445" lon="7.33668">
        <ele>245.39999389648</ele>
        <time>2019-09-09T15:02:27Z</time>
      </trkpt>
      <trkpt lat="47.74451" lon="7.33674">
        <ele>245.39999389648</ele>
        <time>2019-09-09T15:02:28Z</time>
      </trkpt>
      <trkpt lat="47.74454" lon="7.33685">
        <ele>245.19999694824</ele>
        <time>2019-09-09T15:02:30Z</time>
      </trkpt>
      <trkpt lat="47.74458" lon="7.33704">
        <ele>245</ele>
        <time>2019-09-09T15:02:33Z</time>
      </trkpt>
      <trkpt lat="47.74464" lon="7.33732">
        <ele>244.80000305176</ele>
        <time>2019-09-09T15:02:37Z</time>
      </trkpt>
      <trkpt lat="47.74467" lon="7.33747">
        <ele>244.60000610352</ele>
        <time>2019-09-09T15:02:39Z</time>
      </trkpt>
      <trkpt lat="47.74473" lon="7.33781">
        <ele>244.39999389648</ele>
        <time>2019-09-09T15:02:43Z</time>
      </trkpt>
      <trkpt lat="47.74475" lon="7.33798">
        <ele>244.39999389648</ele>
        <time>2019-09-09T15:02:45Z</time>
      </trkpt>
      <trkpt lat="47.74481" lon="7.33841">
        <ele>244.39999389648</ele>
        <time>2019-09-09T15:02:50Z</time>
      </trkpt>
      <trkpt lat="47.7449" lon="7.33895">
        <ele>244.39999389648</ele>
        <time>2019-09-09T15:02:57Z</time>
      </trkpt>
      <trkpt lat="47.74491" lon="7.33902">
        <ele>244.39999389648</ele>
        <time>2019-09-09T15:02:58Z</time>
      </trkpt>
      <trkpt lat="47.74503" lon="7.33905">
        <ele>244.60000610352</ele>
        <time>2019-09-09T15:03:01Z</time>
      </trkpt>
      <trkpt lat="47.74511" lon="7.33895">
        <ele>244.60000610352</ele>
        <time>2019-09-09T15:03:04Z</time>
      </trkpt>
      <trkpt lat="47.74514" lon="7.33891">
        <ele>244.60000610352</ele>
        <time>2019-09-09T15:03:05Z</time>
      </trkpt>
      <trkpt lat="47.74529" lon="7.33873">
        <ele>244.39999389648</ele>
        <time>2019-09-09T15:03:11Z</time>
      </trkpt>
      <trkpt lat="47.7454" lon="7.33862">
        <ele>244.19999694824</ele>
        <time>2019-09-09T15:03:17Z</time>
      </trkpt>
      <trkpt lat="47.74547" lon="7.33856">
        <ele>244</ele>
        <time>2019-09-09T15:03:23Z</time>
      </trkpt>
      <trkpt lat="47.74548" lon="7.33856">
        <ele>244</ele>
        <time>2019-09-09T15:03:25Z</time>
      </trkpt>
      <trkpt lat="47.74549" lon="7.33853">
        <ele>244.19999694824</ele>
        <time>2019-09-09T15:04:56Z</time>
      </trkpt>
      <trkpt lat="47.74548" lon="7.3385">
        <ele>244.19999694824</ele>
        <time>2019-09-09T15:04:57Z</time>
      </trkpt>
      <trkpt lat="47.7455" lon="7.33842">
        <ele>244.19999694824</ele>
        <time>2019-09-09T15:05:00Z</time>
      </trkpt>
      <trkpt lat="47.74551" lon="7.33838">
        <ele>244.19999694824</ele>
        <time>2019-09-09T15:05:01Z</time>
      </trkpt>
      <trkpt lat="47.74553" lon="7.3382">
        <ele>244.19999694824</ele>
        <time>2019-09-09T15:05:05Z</time>
      </trkpt>
      <trkpt lat="47.74554" lon="7.33814">
        <ele>244.19999694824</ele>
        <time>2019-09-09T15:05:06Z</time>
      </trkpt>
      <trkpt lat="47.74554" lon="7.33786">
        <ele>244.60000610352</ele>
        <time>2019-09-09T15:05:11Z</time>
      </trkpt>
      <trkpt lat="47.74555" lon="7.3377">
        <ele>244.60000610352</ele>
        <time>2019-09-09T15:05:15Z</time>
      </trkpt>
      <trkpt lat="47.74556" lon="7.33747">
        <ele>244.60000610352</ele>
        <time>2019-09-09T15:05:21Z</time>
      </trkpt>
      <trkpt lat="47.74562" lon="7.33717">
        <ele>244.80000305176</ele>
        <time>2019-09-09T15:05:26Z</time>
      </trkpt>
      <trkpt lat="47.74564" lon="7.3371">
        <ele>244.80000305176</ele>
        <time>2019-09-09T15:05:27Z</time>
      </trkpt>
      <trkpt lat="47.74569" lon="7.33689">
        <ele>244.80000305176</ele>
        <time>2019-09-09T15:05:30Z</time>
      </trkpt>
      <trkpt lat="47.74573" lon="7.33668">
        <ele>244.80000305176</ele>
        <time>2019-09-09T15:05:33Z</time>
      </trkpt>
      <trkpt lat="47.74575" lon="7.33657">
        <ele>244.80000305176</ele>
        <time>2019-09-09T15:05:36Z</time>
      </trkpt>
      <trkpt lat="47.74576" lon="7.33655">
        <ele>244.80000305176</ele>
        <time>2019-09-09T15:05:37Z</time>
      </trkpt>
      <trkpt lat="47.74582" lon="7.33654">
        <ele>244.80000305176</ele>
        <time>2019-09-09T15:05:39Z</time>
      </trkpt>
      <trkpt lat="47.74596" lon="7.33657">
        <ele>244.60000610352</ele>
        <time>2019-09-09T15:05:44Z</time>
      </trkpt>
      <trkpt lat="47.74602" lon="7.33658">
        <ele>244.60000610352</ele>
        <time>2019-09-09T15:05:47Z</time>
      </trkpt>
      <trkpt lat="47.74604" lon="7.3366">
        <ele>244.39999389648</ele>
        <time>2019-09-09T15:05:49Z</time>
      </trkpt>
      <trkpt lat="47.74609" lon="7.33665">
        <ele>244.19999694824</ele>
        <time>2019-09-09T15:05:53Z</time>
      </trkpt>
      <trkpt lat="47.74611" lon="7.33668">
        <ele>244</ele>
        <time>2019-09-09T15:05:55Z</time>
      </trkpt>
      <trkpt lat="47.74613" lon="7.33671">
        <ele>244</ele>
        <time>2019-09-09T15:05:57Z</time>
      </trkpt>
      <trkpt lat="47.74618" lon="7.3368">
        <ele>244</ele>
        <time>2019-09-09T15:06:01Z</time>
      </trkpt>
      <trkpt lat="47.74626" lon="7.33699">
        <ele>244</ele>
        <time>2019-09-09T15:06:08Z</time>
      </trkpt>
      <trkpt lat="47.74634" lon="7.33721">
        <ele>244</ele>
        <time>2019-09-09T15:06:14Z</time>
      </trkpt>
      <trkpt lat="47.74633" lon="7.33722">
        <ele>244.19999694824</ele>
        <time>2019-09-09T15:06:17Z</time>
      </trkpt>
      <trkpt lat="47.74632" lon="7.33718">
        <ele>244.19999694824</ele>
        <time>2019-09-09T15:06:21Z</time>
      </trkpt>
      <trkpt lat="47.74631" lon="7.33718">
        <ele>244.19999694824</ele>
        <time>2019-09-09T15:06:22Z</time>
      </trkpt>
      <trkpt lat="47.7463" lon="7.33716">
        <ele>244.19999694824</ele>
        <time>2019-09-09T15:06:26Z</time>
      </trkpt>
      <trkpt lat="47.74631" lon="7.3372">
        <ele>244.19999694824</ele>
        <time>2019-09-09T15:06:31Z</time>
      </trkpt>
      <trkpt lat="47.74632" lon="7.33722">
        <ele>244.19999694824</ele>
        <time>2019-09-09T15:06:32Z</time>
      </trkpt>
      <trkpt lat="47.74639" lon="7.33743">
        <ele>244.19999694824</ele>
        <time>2019-09-09T15:06:38Z</time>
      </trkpt>
      <trkpt lat="47.74646" lon="7.33759">
        <ele>244.19999694824</ele>
        <time>2019-09-09T15:06:43Z</time>
      </trkpt>
      <trkpt lat="47.74654" lon="7.33772">
        <ele>244.39999389648</ele>
        <time>2019-09-09T15:06:47Z</time>
      </trkpt>
      <trkpt lat="47.74656" lon="7.33775">
        <ele>244.39999389648</ele>
        <time>2019-09-09T15:06:48Z</time>
      </trkpt>
      <trkpt lat="47.74667" lon="7.33791">
        <ele>244.39999389648</ele>
        <time>2019-09-09T15:06:54Z</time>
      </trkpt>
      <trkpt lat="47.74671" lon="7.33795">
        <ele>244.60000610352</ele>
        <time>2019-09-09T15:06:56Z</time>
      </trkpt>
      <trkpt lat="47.74675" lon="7.33802">
        <ele>244.39999389648</ele>
        <time>2019-09-09T15:06:59Z</time>
      </trkpt>
      <trkpt lat="47.74677" lon="7.33805">
        <ele>244.39999389648</ele>
        <time>2019-09-09T15:07:01Z</time>
      </trkpt>
      <trkpt lat="47.74674" lon="7.33811">
        <ele>244.39999389648</ele>
        <time>2019-09-09T15:07:03Z</time>
      </trkpt>
      <trkpt lat="47.74672" lon="7.33824">
        <ele>244.39999389648</ele>
        <time>2019-09-09T15:07:09Z</time>
      </trkpt>
      <trkpt lat="47.74674" lon="7.33842">
        <ele>244.39999389648</ele>
        <time>2019-09-09T15:07:15Z</time>
      </trkpt>
      <trkpt lat="47.74674" lon="7.33845">
        <ele>244.60000610352</ele>
        <time>2019-09-09T15:07:18Z</time>
      </trkpt>
      <trkpt lat="47.74668" lon="7.33853">
        <ele>244.39999389648</ele>
        <time>2019-09-09T15:07:48Z</time>
      </trkpt>
      <trkpt lat="47.74668" lon="7.33855">
        <ele>244.39999389648</ele>
        <time>2019-09-09T15:07:49Z</time>
      </trkpt>
      <trkpt lat="47.74669" lon="7.33866">
        <ele>244.39999389648</ele>
        <time>2019-09-09T15:07:55Z</time>
      </trkpt>
      <trkpt lat="47.74671" lon="7.33871">
        <ele>244.39999389648</ele>
        <time>2019-09-09T15:08:00Z</time>
      </trkpt>
      <trkpt lat="47.7467" lon="7.33875">
        <ele>244.39999389648</ele>
        <time>2019-09-09T15:08:02Z</time>
      </trkpt>
      <trkpt lat="47.74669" lon="7.33876">
        <ele>244.19999694824</ele>
        <time>2019-09-09T15:08:05Z</time>
      </trkpt>
      <trkpt lat="47.74668" lon="7.33877">
        <ele>244.19999694824</ele>
        <time>2019-09-09T15:08:15Z</time>
      </trkpt>
      <trkpt lat="47.74668" lon="7.33879">
        <ele>244.19999694824</ele>
        <time>2019-09-09T15:08:16Z</time>
      </trkpt>
      <trkpt lat="47.74667" lon="7.33899">
        <ele>244</ele>
        <time>2019-09-09T15:08:22Z</time>
      </trkpt>
      <trkpt lat="47.74664" lon="7.33909">
        <ele>244</ele>
        <time>2019-09-09T15:08:26Z</time>
      </trkpt>
      <trkpt lat="47.74663" lon="7.3391">
        <ele>244</ele>
        <time>2019-09-09T15:08:27Z</time>
      </trkpt>
      <trkpt lat="47.74652" lon="7.33911">
        <ele>243.80000305176</ele>
        <time>2019-09-09T15:08:33Z</time>
      </trkpt>
      <trkpt lat="47.7465" lon="7.3391">
        <ele>244</ele>
        <time>2019-09-09T15:08:35Z</time>
      </trkpt>
      <trkpt lat="47.74648" lon="7.33914">
        <ele>243.80000305176</ele>
        <time>2019-09-09T15:08:38Z</time>
      </trkpt>
      <trkpt lat="47.74649" lon="7.3392">
        <ele>243.60000610352</ele>
        <time>2019-09-09T15:08:41Z</time>
      </trkpt>
      <trkpt lat="47.74649" lon="7.33922">
        <ele>243.60000610352</ele>
        <time>2019-09-09T15:08:42Z</time>
      </trkpt>
      <trkpt lat="47.74649" lon="7.33924">
        <ele>243.60000610352</ele>
        <time>2019-09-09T15:08:43Z</time>
      </trkpt>
      <trkpt lat="47.74647" lon="7.33938">
        <ele>243.80000305176</ele>
        <time>2019-09-09T15:08:48Z</time>
      </trkpt>
      <trkpt lat="47.74644" lon="7.33947">
        <ele>243.80000305176</ele>
        <time>2019-09-09T15:08:50Z</time>
      </trkpt>
      <trkpt lat="47.74639" lon="7.33958">
        <ele>243.80000305176</ele>
        <time>2019-09-09T15:08:53Z</time>
      </trkpt>
      <trkpt lat="47.74636" lon="7.33963">
        <ele>244</ele>
        <time>2019-09-09T15:08:55Z</time>
      </trkpt>
      <trkpt lat="47.74635" lon="7.33966">
        <ele>244</ele>
        <time>2019-09-09T15:08:57Z</time>
      </trkpt>
      <trkpt lat="47.74629" lon="7.33981">
        <ele>244.39999389648</ele>
        <time>2019-09-09T15:09:02Z</time>
      </trkpt>
      <trkpt lat="47.74624" lon="7.34">
        <ele>244.80000305176</ele>
        <time>2019-09-09T15:09:08Z</time>
      </trkpt>
      <trkpt lat="47.74623" lon="7.34002">
        <ele>244.80000305176</ele>
        <time>2019-09-09T15:09:09Z</time>
      </trkpt>
      <trkpt lat="47.74615" lon="7.34016">
        <ele>245.19999694824</ele>
        <time>2019-09-09T15:09:14Z</time>
      </trkpt>
      <trkpt lat="47.74612" lon="7.34025">
        <ele>245.19999694824</ele>
        <time>2019-09-09T15:09:16Z</time>
      </trkpt>
      <trkpt lat="47.74608" lon="7.34039">
        <ele>245.39999389648</ele>
        <time>2019-09-09T15:09:19Z</time>
      </trkpt>
      <trkpt lat="47.7461" lon="7.34057">
        <ele>245.39999389648</ele>
        <time>2019-09-09T15:09:24Z</time>
      </trkpt>
      <trkpt lat="47.74611" lon="7.34061">
        <ele>245.60000610352</ele>
        <time>2019-09-09T15:09:27Z</time>
      </trkpt>
      <trkpt lat="47.74614" lon="7.34063">
        <ele>245.60000610352</ele>
        <time>2019-09-09T15:09:29Z</time>
      </trkpt>
      <trkpt lat="47.74616" lon="7.34065">
        <ele>245.60000610352</ele>
        <time>2019-09-09T15:09:30Z</time>
      </trkpt>
      <trkpt lat="47.74621" lon="7.34076">
        <ele>245.60000610352</ele>
        <time>2019-09-09T15:09:34Z</time>
      </trkpt>
      <trkpt lat="47.74627" lon="7.34083">
        <ele>245.60000610352</ele>
        <time>2019-09-09T15:09:38Z</time>
      </trkpt>
      <trkpt lat="47.74629" lon="7.34084">
        <ele>245.60000610352</ele>
        <time>2019-09-09T15:09:40Z</time>
      </trkpt>
      <trkpt lat="47.74631" lon="7.34087">
        <ele>245.60000610352</ele>
        <time>2019-09-09T15:09:43Z</time>
      </trkpt>
      <trkpt lat="47.74632" lon="7.34087">
        <ele>245.60000610352</ele>
        <time>2019-09-09T15:09:44Z</time>
      </trkpt>
      <trkpt lat="47.74644" lon="7.34085">
        <ele>245.60000610352</ele>
        <time>2019-09-09T15:09:49Z</time>
      </trkpt>
      <trkpt lat="47.74647" lon="7.34084">
        <ele>245.60000610352</ele>
        <time>2019-09-09T15:09:50Z</time>
      </trkpt>
      <trkpt lat="47.74657" lon="7.34082">
        <ele>245.39999389648</ele>
        <time>2019-09-09T15:09:56Z</time>
      </trkpt>
      <trkpt lat="47.74672" lon="7.34072">
        <ele>245.39999389648</ele>
        <time>2019-09-09T15:10:03Z</time>
      </trkpt>
      <trkpt lat="47.74688" lon="7.3406">
        <ele>245.19999694824</ele>
        <time>2019-09-09T15:10:10Z</time>
      </trkpt>
      <trkpt lat="47.74706" lon="7.34048">
        <ele>245.19999694824</ele>
        <time>2019-09-09T15:10:17Z</time>
      </trkpt>
      <trkpt lat="47.74721" lon="7.34034">
        <ele>245.19999694824</ele>
        <time>2019-09-09T15:10:23Z</time>
      </trkpt>
      <trkpt lat="47.74737" lon="7.3402">
        <ele>244.80000305176</ele>
        <time>2019-09-09T15:10:28Z</time>
      </trkpt>
      <trkpt lat="47.74752" lon="7.34009">
        <ele>244.80000305176</ele>
        <time>2019-09-09T15:10:32Z</time>
      </trkpt>
      <trkpt lat="47.74762" lon="7.33999">
        <ele>244.60000610352</ele>
        <time>2019-09-09T15:10:37Z</time>
      </trkpt>
      <trkpt lat="47.74763" lon="7.33994">
        <ele>244.19999694824</ele>
        <time>2019-09-09T15:10:41Z</time>
      </trkpt>
      <trkpt lat="47.74766" lon="7.33988">
        <ele>243.19999694824</ele>
        <time>2019-09-09T15:11:02Z</time>
      </trkpt>
      <trkpt lat="47.74772" lon="7.33977">
        <ele>243.19999694824</ele>
        <time>2019-09-09T15:11:07Z</time>
      </trkpt>
      <trkpt lat="47.74773" lon="7.33968">
        <ele>243.19999694824</ele>
        <time>2019-09-09T15:11:11Z</time>
      </trkpt>
      <trkpt lat="47.74773" lon="7.33967">
        <ele>243.19999694824</ele>
        <time>2019-09-09T15:11:13Z</time>
      </trkpt>
      <trkpt lat="47.74771" lon="7.33964">
        <ele>243.19999694824</ele>
        <time>2019-09-09T15:11:17Z</time>
      </trkpt>
      <trkpt lat="47.74769" lon="7.33961">
        <ele>243.19999694824</ele>
        <time>2019-09-09T15:11:19Z</time>
      </trkpt>
      <trkpt lat="47.74754" lon="7.33957">
        <ele>243.19999694824</ele>
        <time>2019-09-09T15:11:26Z</time>
      </trkpt>
      <trkpt lat="47.74743" lon="7.33953">
        <ele>243.19999694824</ele>
        <time>2019-09-09T15:11:30Z</time>
      </trkpt>
      <trkpt lat="47.74737" lon="7.33952">
        <ele>243.19999694824</ele>
        <time>2019-09-09T15:11:35Z</time>
      </trkpt>
      <trkpt lat="47.7473" lon="7.33948">
        <ele>243.19999694824</ele>
        <time>2019-09-09T15:11:41Z</time>
      </trkpt>
      <trkpt lat="47.74727" lon="7.33943">
        <ele>243.19999694824</ele>
        <time>2019-09-09T15:11:47Z</time>
      </trkpt>
      <trkpt lat="47.74724" lon="7.3394">
        <ele>243.19999694824</ele>
        <time>2019-09-09T15:11:56Z</time>
      </trkpt>
      <trkpt lat="47.74723" lon="7.33939">
        <ele>243.19999694824</ele>
        <time>2019-09-09T15:11:57Z</time>
      </trkpt>
      <trkpt lat="47.74717" lon="7.33936">
        <ele>243</ele>
        <time>2019-09-09T15:12:03Z</time>
      </trkpt>
      <trkpt lat="47.74717" lon="7.33937">
        <ele>243.19999694824</ele>
        <time>2019-09-09T15:12:29Z</time>
      </trkpt>
      <trkpt lat="47.74717" lon="7.33938">
        <ele>243.39999389648</ele>
        <time>2019-09-09T15:12:32Z</time>
      </trkpt>
      <trkpt lat="47.7472" lon="7.33938">
        <ele>243.19999694824</ele>
        <time>2019-09-09T15:12:37Z</time>
      </trkpt>
      <trkpt lat="47.74726" lon="7.33939">
        <ele>243.39999389648</ele>
        <time>2019-09-09T15:12:43Z</time>
      </trkpt>
      <trkpt lat="47.74731" lon="7.33939">
        <ele>243.39999389648</ele>
        <time>2019-09-09T15:12:48Z</time>
      </trkpt>
      <trkpt lat="47.74737" lon="7.33942">
        <ele>243.19999694824</ele>
        <time>2019-09-09T15:12:52Z</time>
      </trkpt>
      <trkpt lat="47.74741" lon="7.33944">
        <ele>243.19999694824</ele>
        <time>2019-09-09T15:12:54Z</time>
      </trkpt>
      <trkpt lat="47.74744" lon="7.33946">
        <ele>243.19999694824</ele>
        <time>2019-09-09T15:12:56Z</time>
      </trkpt>
      <trkpt lat="47.74744" lon="7.33946">
        <ele>243.19999694824</ele>
        <time>2019-09-09T15:12:58Z</time>
      </trkpt>
      <trkpt lat="47.74748" lon="7.33951">
        <ele>243</ele>
        <time>2019-09-09T15:14:35Z</time>
      </trkpt>
      <trkpt lat="47.7475" lon="7.33952">
        <ele>243</ele>
        <time>2019-09-09T15:14:37Z</time>
      </trkpt>
      <trkpt lat="47.74752" lon="7.33952">
        <ele>243</ele>
        <time>2019-09-09T15:14:39Z</time>
      </trkpt>
      <trkpt lat="47.74758" lon="7.33962">
        <ele>243</ele>
        <time>2019-09-09T15:14:45Z</time>
      </trkpt>
      <trkpt lat="47.74762" lon="7.33966">
        <ele>243.19999694824</ele>
        <time>2019-09-09T15:14:47Z</time>
      </trkpt>
      <trkpt lat="47.74766" lon="7.33967">
        <ele>243.19999694824</ele>
        <time>2019-09-09T15:14:49Z</time>
      </trkpt>
      <trkpt lat="47.74775" lon="7.33963">
        <ele>243.19999694824</ele>
        <time>2019-09-09T15:14:53Z</time>
      </trkpt>
      <trkpt lat="47.74783" lon="7.33957">
        <ele>243.19999694824</ele>
        <time>2019-09-09T15:14:55Z</time>
      </trkpt>
      <trkpt lat="47.74796" lon="7.33946">
        <ele>243</ele>
        <time>2019-09-09T15:15:00Z</time>
      </trkpt>
      <trkpt lat="47.74807" lon="7.33933">
        <ele>243</ele>
        <time>2019-09-09T15:15:06Z</time>
      </trkpt>
      <trkpt lat="47.74812" lon="7.33925">
        <ele>243</ele>
        <time>2019-09-09T15:15:12Z</time>
      </trkpt>
      <trkpt lat="47.7483" lon="7.33908">
        <ele>242.80000305176</ele>
        <time>2019-09-09T15:15:19Z</time>
      </trkpt>
      <trkpt lat="47.74842" lon="7.339">
        <ele>242.60000610352</ele>
        <time>2019-09-09T15:15:24Z</time>
      </trkpt>
      <trkpt lat="47.74855" lon="7.33886">
        <ele>242.39999389648</ele>
        <time>2019-09-09T15:15:33Z</time>
      </trkpt>
      <trkpt lat="47.74863" lon="7.33872">
        <ele>242.39999389648</ele>
        <time>2019-09-09T15:15:42Z</time>
      </trkpt>
      <trkpt lat="47.74873" lon="7.33867">
        <ele>242.19999694824</ele>
        <time>2019-09-09T15:15:48Z</time>
      </trkpt>
      <trkpt lat="47.74884" lon="7.33864">
        <ele>242.39999389648</ele>
        <time>2019-09-09T15:15:54Z</time>
      </trkpt>
      <trkpt lat="47.74886" lon="7.33864">
        <ele>242.39999389648</ele>
        <time>2019-09-09T15:15:55Z</time>
      </trkpt>
      <trkpt lat="47.74893" lon="7.33863">
        <ele>242.39999389648</ele>
        <time>2019-09-09T15:15:58Z</time>
      </trkpt>
      <trkpt lat="47.74897" lon="7.33864">
        <ele>242.60000610352</ele>
        <time>2019-09-09T15:15:59Z</time>
      </trkpt>
      <trkpt lat="47.74905" lon="7.33867">
        <ele>242.60000610352</ele>
        <time>2019-09-09T15:16:02Z</time>
      </trkpt>
      <trkpt lat="47.74909" lon="7.33869">
        <ele>242.60000610352</ele>
        <time>2019-09-09T15:16:04Z</time>
      </trkpt>
      <trkpt lat="47.74922" lon="7.33872">
        <ele>243</ele>
        <time>2019-09-09T15:16:08Z</time>
      </trkpt>
      <trkpt lat="47.74925" lon="7.33873">
        <ele>243.19999694824</ele>
        <time>2019-09-09T15:16:09Z</time>
      </trkpt>
      <trkpt lat="47.74932" lon="7.33879">
        <ele>243.39999389648</ele>
        <time>2019-09-09T15:16:15Z</time>
      </trkpt>
      <trkpt lat="47.74934" lon="7.3388">
        <ele>243.39999389648</ele>
        <time>2019-09-09T15:16:18Z</time>
      </trkpt>
      <trkpt lat="47.74937" lon="7.33879">
        <ele>243.60000610352</ele>
        <time>2019-09-09T15:16:21Z</time>
      </trkpt>
      <trkpt lat="47.74965" lon="7.3388">
        <ele>243.39999389648</ele>
        <time>2019-09-09T15:18:50Z</time>
      </trkpt>
      <trkpt lat="47.74961" lon="7.33874">
        <ele>243.60000610352</ele>
        <time>2019-09-09T15:18:55Z</time>
      </trkpt>
      <trkpt lat="47.74947" lon="7.33863">
        <ele>243.60000610352</ele>
        <time>2019-09-09T15:19:05Z</time>
      </trkpt>
      <trkpt lat="47.74933" lon="7.33857">
        <ele>243.39999389648</ele>
        <time>2019-09-09T15:19:12Z</time>
      </trkpt>
      <trkpt lat="47.74916" lon="7.33859">
        <ele>243.19999694824</ele>
        <time>2019-09-09T15:19:17Z</time>
      </trkpt>
      <trkpt lat="47.74898" lon="7.33866">
        <ele>242.60000610352</ele>
        <time>2019-09-09T15:19:22Z</time>
      </trkpt>
      <trkpt lat="47.74895" lon="7.33867">
        <ele>242.39999389648</ele>
        <time>2019-09-09T15:19:23Z</time>
      </trkpt>
      <trkpt lat="47.74884" lon="7.33868">
        <ele>242.39999389648</ele>
        <time>2019-09-09T15:19:27Z</time>
      </trkpt>
      <trkpt lat="47.74872" lon="7.33869">
        <ele>242</ele>
        <time>2019-09-09T15:19:33Z</time>
      </trkpt>
      <trkpt lat="47.74867" lon="7.3387">
        <ele>241.80000305176</ele>
        <time>2019-09-09T15:19:35Z</time>
      </trkpt>
      <trkpt lat="47.74863" lon="7.33871">
        <ele>241.80000305176</ele>
        <time>2019-09-09T15:19:38Z</time>
      </trkpt>
      <trkpt lat="47.7486" lon="7.33869">
        <ele>241.80000305176</ele>
        <time>2019-09-09T15:19:40Z</time>
      </trkpt>
      <trkpt lat="47.74853" lon="7.33853">
        <ele>241.80000305176</ele>
        <time>2019-09-09T15:19:47Z</time>
      </trkpt>
      <trkpt lat="47.74819" lon="7.33783">
        <ele>242</ele>
        <time>2019-09-09T15:20:04Z</time>
      </trkpt>
      <trkpt lat="47.74815" lon="7.33768">
        <ele>242.19999694824</ele>
        <time>2019-09-09T15:20:08Z</time>
      </trkpt>
      <trkpt lat="47.74816" lon="7.33752">
        <ele>242.39999389648</ele>
        <time>2019-09-09T15:20:13Z</time>
      </trkpt>
      <trkpt lat="47.74812" lon="7.33744">
        <ele>242.39999389648</ele>
        <time>2019-09-09T15:20:15Z</time>
      </trkpt>
      <trkpt lat="47.7481" lon="7.33736">
        <ele>242.39999389648</ele>
        <time>2019-09-09T15:20:17Z</time>
      </trkpt>
      <trkpt lat="47.74805" lon="7.33724">
        <ele>242.39999389648</ele>
        <time>2019-09-09T15:20:21Z</time>
      </trkpt>
      <trkpt lat="47.74805" lon="7.33721">
        <ele>242.39999389648</ele>
        <time>2019-09-09T15:20:22Z</time>
      </trkpt>
      <trkpt lat="47.748" lon="7.3371">
        <ele>242.39999389648</ele>
        <time>2019-09-09T15:20:26Z</time>
      </trkpt>
      <trkpt lat="47.74791" lon="7.33697">
        <ele>242.39999389648</ele>
        <time>2019-09-09T15:20:31Z</time>
      </trkpt>
      <trkpt lat="47.74782" lon="7.33688">
        <ele>242.19999694824</ele>
        <time>2019-09-09T15:20:36Z</time>
      </trkpt>
      <trkpt lat="47.74782" lon="7.33685">
        <ele>242.19999694824</ele>
        <time>2019-09-09T15:20:40Z</time>
      </trkpt>
      <trkpt lat="47.74784" lon="7.33683">
        <ele>242.19999694824</ele>
        <time>2019-09-09T15:20:41Z</time>
      </trkpt>
      <trkpt lat="47.74783" lon="7.33684">
        <ele>242.19999694824</ele>
        <time>2019-09-09T15:20:45Z</time>
      </trkpt>
      <trkpt lat="47.74783" lon="7.33685">
        <ele>242.19999694824</ele>
        <time>2019-09-09T15:20:47Z</time>
      </trkpt>
      <trkpt lat="47.74783" lon="7.33686">
        <ele>242.19999694824</ele>
        <time>2019-09-09T15:20:50Z</time>
      </trkpt>
      <trkpt lat="47.74787" lon="7.33686">
        <ele>242.19999694824</ele>
        <time>2019-09-09T15:21:04Z</time>
      </trkpt>
      <trkpt lat="47.74792" lon="7.33691">
        <ele>242.19999694824</ele>
        <time>2019-09-09T15:21:07Z</time>
      </trkpt>
      <trkpt lat="47.74792" lon="7.33691">
        <ele>242.19999694824</ele>
        <time>2019-09-09T15:21:08Z</time>
      </trkpt>
      <trkpt lat="47.74791" lon="7.33696">
        <ele>242.19999694824</ele>
        <time>2019-09-09T15:21:11Z</time>
      </trkpt>
      <trkpt lat="47.74788" lon="7.33702">
        <ele>242.19999694824</ele>
        <time>2019-09-09T15:21:13Z</time>
      </trkpt>
      <trkpt lat="47.74787" lon="7.33705">
        <ele>242.19999694824</ele>
        <time>2019-09-09T15:21:14Z</time>
      </trkpt>
      <trkpt lat="47.74789" lon="7.3371">
        <ele>242.19999694824</ele>
        <time>2019-09-09T15:21:17Z</time>
      </trkpt>
      <trkpt lat="47.74792" lon="7.3371">
        <ele>242.39999389648</ele>
        <time>2019-09-09T15:21:18Z</time>
      </trkpt>
      <trkpt lat="47.74797" lon="7.33712">
        <ele>242.39999389648</ele>
        <time>2019-09-09T15:21:24Z</time>
      </trkpt>
      <trkpt lat="47.74796" lon="7.3372">
        <ele>242.39999389648</ele>
        <time>2019-09-09T15:21:26Z</time>
      </trkpt>
      <trkpt lat="47.74793" lon="7.33728">
        <ele>242.39999389648</ele>
        <time>2019-09-09T15:21:28Z</time>
      </trkpt>
      <trkpt lat="47.7479" lon="7.33738">
        <ele>242.39999389648</ele>
        <time>2019-09-09T15:21:30Z</time>
      </trkpt>
      <trkpt lat="47.74782" lon="7.33759">
        <ele>242.60000610352</ele>
        <time>2019-09-09T15:21:35Z</time>
      </trkpt>
      <trkpt lat="47.74775" lon="7.33773">
        <ele>242.60000610352</ele>
        <time>2019-09-09T15:21:39Z</time>
      </trkpt>
      <trkpt lat="47.74773" lon="7.33776">
        <ele>242.80000305176</ele>
        <time>2019-09-09T15:21:40Z</time>
      </trkpt>
      <trkpt lat="47.74772" lon="7.33779">
        <ele>242.80000305176</ele>
        <time>2019-09-09T15:21:41Z</time>
      </trkpt>
      <trkpt lat="47.74768" lon="7.3379">
        <ele>242.60000610352</ele>
        <time>2019-09-09T15:21:45Z</time>
      </trkpt>
      <trkpt lat="47.74761" lon="7.33799">
        <ele>242.60000610352</ele>
        <time>2019-09-09T15:21:51Z</time>
      </trkpt>
      <trkpt lat="47.74758" lon="7.33802">
        <ele>242.60000610352</ele>
        <time>2019-09-09T15:21:54Z</time>
      </trkpt>
      <trkpt lat="47.74756" lon="7.33803">
        <ele>242.60000610352</ele>
        <time>2019-09-09T15:21:56Z</time>
      </trkpt>
      <trkpt lat="47.74749" lon="7.33807">
        <ele>242.80000305176</ele>
        <time>2019-09-09T15:22:00Z</time>
      </trkpt>
      <trkpt lat="47.74744" lon="7.33807">
        <ele>242.80000305176</ele>
        <time>2019-09-09T15:22:02Z</time>
      </trkpt>
      <trkpt lat="47.74742" lon="7.33807">
        <ele>242.60000610352</ele>
        <time>2019-09-09T15:22:03Z</time>
      </trkpt>
      <trkpt lat="47.74736" lon="7.338">
        <ele>242.60000610352</ele>
        <time>2019-09-09T15:22:06Z</time>
      </trkpt>
      <trkpt lat="47.7473" lon="7.33794">
        <ele>242.60000610352</ele>
        <time>2019-09-09T15:22:09Z</time>
      </trkpt>
      <trkpt lat="47.74725" lon="7.33791">
        <ele>242.60000610352</ele>
        <time>2019-09-09T15:22:11Z</time>
      </trkpt>
      <trkpt lat="47.74722" lon="7.33789">
        <ele>242.60000610352</ele>
        <time>2019-09-09T15:22:12Z</time>
      </trkpt>
      <trkpt lat="47.74717" lon="7.33785">
        <ele>242.60000610352</ele>
        <time>2019-09-09T15:22:14Z</time>
      </trkpt>
      <trkpt lat="47.74707" lon="7.33772">
        <ele>242.39999389648</ele>
        <time>2019-09-09T15:22:19Z</time>
      </trkpt>
      <trkpt lat="47.74703" lon="7.33776">
        <ele>242</ele>
        <time>2019-09-09T15:22:23Z</time>
      </trkpt>
      <trkpt lat="47.74702" lon="7.3378">
        <ele>242</ele>
        <time>2019-09-09T15:22:24Z</time>
      </trkpt>
      <trkpt lat="47.74696" lon="7.33792">
        <ele>242</ele>
        <time>2019-09-09T15:22:29Z</time>
      </trkpt>
      <trkpt lat="47.74693" lon="7.338">
        <ele>242.19999694824</ele>
        <time>2019-09-09T15:22:32Z</time>
      </trkpt>
      <trkpt lat="47.74697" lon="7.33802">
        <ele>242.19999694824</ele>
        <time>2019-09-09T15:22:33Z</time>
      </trkpt>
      <trkpt lat="47.74705" lon="7.33815">
        <ele>242.39999389648</ele>
        <time>2019-09-09T15:22:36Z</time>
      </trkpt>
      <trkpt lat="47.74704" lon="7.33831">
        <ele>242.19999694824</ele>
        <time>2019-09-09T15:22:41Z</time>
      </trkpt>
      <trkpt lat="47.74704" lon="7.33835">
        <ele>242.39999389648</ele>
        <time>2019-09-09T15:22:42Z</time>
      </trkpt>
      <trkpt lat="47.74703" lon="7.33842">
        <ele>242.19999694824</ele>
        <time>2019-09-09T15:22:44Z</time>
      </trkpt>
      <trkpt lat="47.74704" lon="7.3385">
        <ele>242.39999389648</ele>
        <time>2019-09-09T15:22:46Z</time>
      </trkpt>
      <trkpt lat="47.74703" lon="7.33861">
        <ele>242.39999389648</ele>
        <time>2019-09-09T15:22:49Z</time>
      </trkpt>
      <trkpt lat="47.74703" lon="7.33865">
        <ele>242.60000610352</ele>
        <time>2019-09-09T15:22:50Z</time>
      </trkpt>
      <trkpt lat="47.74701" lon="7.33881">
        <ele>242.60000610352</ele>
        <time>2019-09-09T15:22:55Z</time>
      </trkpt>
      <trkpt lat="47.74695" lon="7.33894">
        <ele>242.60000610352</ele>
        <time>2019-09-09T15:23:00Z</time>
      </trkpt>
      <trkpt lat="47.74687" lon="7.33897">
        <ele>242.39999389648</ele>
        <time>2019-09-09T15:23:02Z</time>
      </trkpt>
      <trkpt lat="47.74683" lon="7.33901">
        <ele>242.39999389648</ele>
        <time>2019-09-09T15:23:04Z</time>
      </trkpt>
      <trkpt lat="47.74672" lon="7.33898">
        <ele>242</ele>
        <time>2019-09-09T15:23:10Z</time>
      </trkpt>
      <trkpt lat="47.7467" lon="7.33897">
        <ele>242</ele>
        <time>2019-09-09T15:23:13Z</time>
      </trkpt>
      <trkpt lat="47.74662" lon="7.33894">
        <ele>242.19999694824</ele>
        <time>2019-09-09T15:23:22Z</time>
      </trkpt>
      <trkpt lat="47.74661" lon="7.33894">
        <ele>242.19999694824</ele>
        <time>2019-09-09T15:23:23Z</time>
      </trkpt>
      <trkpt lat="47.7466" lon="7.33894">
        <ele>242.19999694824</ele>
        <time>2019-09-09T15:23:26Z</time>
      </trkpt>
      <trkpt lat="47.74667" lon="7.33897">
        <ele>242.80000305176</ele>
        <time>2019-09-09T15:41:40Z</time>
      </trkpt>
      <trkpt lat="47.74667" lon="7.33897">
        <ele>242.80000305176</ele>
        <time>2019-09-09T15:41:41Z</time>
      </trkpt>
      <trkpt lat="47.74665" lon="7.33899">
        <ele>242.80000305176</ele>
        <time>2019-09-09T15:41:44Z</time>
      </trkpt>
      <trkpt lat="47.74666" lon="7.33904">
        <ele>242.80000305176</ele>
        <time>2019-09-09T15:41:46Z</time>
      </trkpt>
      <trkpt lat="47.74666" lon="7.33915">
        <ele>243</ele>
        <time>2019-09-09T15:41:50Z</time>
      </trkpt>
      <trkpt lat="47.74667" lon="7.33918">
        <ele>243</ele>
        <time>2019-09-09T15:41:51Z</time>
      </trkpt>
      <trkpt lat="47.74667" lon="7.3392">
        <ele>242.80000305176</ele>
        <time>2019-09-09T15:41:52Z</time>
      </trkpt>
      <trkpt lat="47.74665" lon="7.33924">
        <ele>242.80000305176</ele>
        <time>2019-09-09T15:41:55Z</time>
      </trkpt>
      <trkpt lat="47.74663" lon="7.33924">
        <ele>242.80000305176</ele>
        <time>2019-09-09T15:41:56Z</time>
      </trkpt>
      <trkpt lat="47.74654" lon="7.33921">
        <ele>242.80000305176</ele>
        <time>2019-09-09T15:41:59Z</time>
      </trkpt>
      <trkpt lat="47.74634" lon="7.33917">
        <ele>242.80000305176</ele>
        <time>2019-09-09T15:42:03Z</time>
      </trkpt>
      <trkpt lat="47.74627" lon="7.33912">
        <ele>242.80000305176</ele>
        <time>2019-09-09T15:42:05Z</time>
      </trkpt>
      <trkpt lat="47.74616" lon="7.33902">
        <ele>242.80000305176</ele>
        <time>2019-09-09T15:42:08Z</time>
      </trkpt>
      <trkpt lat="47.74597" lon="7.33885">
        <ele>243</ele>
        <time>2019-09-09T15:42:14Z</time>
      </trkpt>
      <trkpt lat="47.74587" lon="7.33872">
        <ele>243.19999694824</ele>
        <time>2019-09-09T15:42:19Z</time>
      </trkpt>
      <trkpt lat="47.74586" lon="7.33867">
        <ele>243.39999389648</ele>
        <time>2019-09-09T15:42:20Z</time>
      </trkpt>
      <trkpt lat="47.74583" lon="7.33857">
        <ele>243.39999389648</ele>
        <time>2019-09-09T15:42:22Z</time>
      </trkpt>
      <trkpt lat="47.74579" lon="7.33837">
        <ele>243.39999389648</ele>
        <time>2019-09-09T15:42:27Z</time>
      </trkpt>
      <trkpt lat="47.74577" lon="7.33822">
        <ele>243.39999389648</ele>
        <time>2019-09-09T15:42:31Z</time>
      </trkpt>
      <trkpt lat="47.74576" lon="7.33818">
        <ele>243.39999389648</ele>
        <time>2019-09-09T15:42:32Z</time>
      </trkpt>
      <trkpt lat="47.74575" lon="7.33808">
        <ele>243.39999389648</ele>
        <time>2019-09-09T15:42:37Z</time>
      </trkpt>
      <trkpt lat="47.74577" lon="7.33809">
        <ele>243.39999389648</ele>
        <time>2019-09-09T15:42:57Z</time>
      </trkpt>
      <trkpt lat="47.74576" lon="7.33809">
        <ele>243.39999389648</ele>
        <time>2019-09-09T15:42:58Z</time>
      </trkpt>
      <trkpt lat="47.7457" lon="7.33808">
        <ele>243.60000610352</ele>
        <time>2019-09-09T15:43:00Z</time>
      </trkpt>
      <trkpt lat="47.74563" lon="7.33793">
        <ele>243.60000610352</ele>
        <time>2019-09-09T15:43:03Z</time>
      </trkpt>
      <trkpt lat="47.74562" lon="7.33787">
        <ele>243.60000610352</ele>
        <time>2019-09-09T15:43:04Z</time>
      </trkpt>
      <trkpt lat="47.74563" lon="7.33755">
        <ele>243.60000610352</ele>
        <time>2019-09-09T15:43:09Z</time>
      </trkpt>
      <trkpt lat="47.74564" lon="7.3375">
        <ele>243.80000305176</ele>
        <time>2019-09-09T15:43:10Z</time>
      </trkpt>
      <trkpt lat="47.74567" lon="7.33733">
        <ele>243.80000305176</ele>
        <time>2019-09-09T15:43:13Z</time>
      </trkpt>
      <trkpt lat="47.74573" lon="7.33705">
        <ele>243.80000305176</ele>
        <time>2019-09-09T15:43:18Z</time>
      </trkpt>
      <trkpt lat="47.74578" lon="7.3368">
        <ele>243.60000610352</ele>
        <time>2019-09-09T15:43:23Z</time>
      </trkpt>
      <trkpt lat="47.74582" lon="7.33666">
        <ele>243.39999389648</ele>
        <time>2019-09-09T15:43:27Z</time>
      </trkpt>
      <trkpt lat="47.74582" lon="7.33666">
        <ele>243.39999389648</ele>
        <time>2019-09-09T15:43:29Z</time>
      </trkpt>
      <trkpt lat="47.74581" lon="7.33664">
        <ele>243.39999389648</ele>
        <time>2019-09-09T15:43:34Z</time>
      </trkpt>
      <trkpt lat="47.74581" lon="7.33661">
        <ele>243.39999389648</ele>
        <time>2019-09-09T15:43:35Z</time>
      </trkpt>
      <trkpt lat="47.74574" lon="7.33656">
        <ele>243.39999389648</ele>
        <time>2019-09-09T15:43:38Z</time>
      </trkpt>
      <trkpt lat="47.74571" lon="7.33656">
        <ele>243.39999389648</ele>
        <time>2019-09-09T15:43:39Z</time>
      </trkpt>
      <trkpt lat="47.74559" lon="7.33657">
        <ele>243.39999389648</ele>
        <time>2019-09-09T15:43:43Z</time>
      </trkpt>
      <trkpt lat="47.74538" lon="7.33658">
        <ele>243.80000305176</ele>
        <time>2019-09-09T15:43:48Z</time>
      </trkpt>
      <trkpt lat="47.74514" lon="7.33652">
        <ele>244</ele>
        <time>2019-09-09T15:43:52Z</time>
      </trkpt>
      <trkpt lat="47.7451" lon="7.33648">
        <ele>244</ele>
        <time>2019-09-09T15:43:53Z</time>
      </trkpt>
      <trkpt lat="47.745" lon="7.33635">
        <ele>244.19999694824</ele>
        <time>2019-09-09T15:43:56Z</time>
      </trkpt>
      <trkpt lat="47.74482" lon="7.33617">
        <ele>244.39999389648</ele>
        <time>2019-09-09T15:44:00Z</time>
      </trkpt>
      <trkpt lat="47.74461" lon="7.33591">
        <ele>244.39999389648</ele>
        <time>2019-09-09T15:44:05Z</time>
      </trkpt>
      <trkpt lat="47.74458" lon="7.33587">
        <ele>244.39999389648</ele>
        <time>2019-09-09T15:44:06Z</time>
      </trkpt>
      <trkpt lat="47.74455" lon="7.33581">
        <ele>244.39999389648</ele>
        <time>2019-09-09T15:44:07Z</time>
      </trkpt>
      <trkpt lat="47.74452" lon="7.3357">
        <ele>244.39999389648</ele>
        <time>2019-09-09T15:44:09Z</time>
      </trkpt>
      <trkpt lat="47.74452" lon="7.33565">
        <ele>244.39999389648</ele>
        <time>2019-09-09T15:44:10Z</time>
      </trkpt>
      <trkpt lat="47.74458" lon="7.33552">
        <ele>244.39999389648</ele>
        <time>2019-09-09T15:44:13Z</time>
      </trkpt>
      <trkpt lat="47.74459" lon="7.3355">
        <ele>244.39999389648</ele>
        <time>2019-09-09T15:44:14Z</time>
      </trkpt>
      <trkpt lat="47.74462" lon="7.33546">
        <ele>244.19999694824</ele>
        <time>2019-09-09T15:44:16Z</time>
      </trkpt>
      <trkpt lat="47.7446" lon="7.33542">
        <ele>244.19999694824</ele>
        <time>2019-09-09T15:44:19Z</time>
      </trkpt>
      <trkpt lat="47.7446" lon="7.33543">
        <ele>244.19999694824</ele>
        <time>2019-09-09T15:44:20Z</time>
      </trkpt>
      <trkpt lat="47.74459" lon="7.33541">
        <ele>244.19999694824</ele>
        <time>2019-09-09T15:44:25Z</time>
      </trkpt>
      <trkpt lat="47.74457" lon="7.33539">
        <ele>244.19999694824</ele>
        <time>2019-09-09T15:44:27Z</time>
      </trkpt>
      <trkpt lat="47.74454" lon="7.33535">
        <ele>244.19999694824</ele>
        <time>2019-09-09T15:44:31Z</time>
      </trkpt>
      <trkpt lat="47.74452" lon="7.33533">
        <ele>244.19999694824</ele>
        <time>2019-09-09T15:44:39Z</time>
      </trkpt>
      <trkpt lat="47.74444" lon="7.33527">
        <ele>244.19999694824</ele>
        <time>2019-09-09T15:44:43Z</time>
      </trkpt>
      <trkpt lat="47.7443" lon="7.3352">
        <ele>244</ele>
        <time>2019-09-09T15:44:47Z</time>
      </trkpt>
      <trkpt lat="47.74427" lon="7.33518">
        <ele>244</ele>
        <time>2019-09-09T15:44:48Z</time>
      </trkpt>
      <trkpt lat="47.74418" lon="7.335">
        <ele>244.19999694824</ele>
        <time>2019-09-09T15:44:52Z</time>
      </trkpt>
      <trkpt lat="47.74411" lon="7.33484">
        <ele>244.19999694824</ele>
        <time>2019-09-09T15:44:55Z</time>
      </trkpt>
      <trkpt lat="47.74407" lon="7.33473">
        <ele>244.19999694824</ele>
        <time>2019-09-09T15:44:57Z</time>
      </trkpt>
      <trkpt lat="47.74403" lon="7.33468">
        <ele>244.19999694824</ele>
        <time>2019-09-09T15:44:58Z</time>
      </trkpt>
      <trkpt lat="47.74383" lon="7.33443">
        <ele>244.39999389648</ele>
        <time>2019-09-09T15:45:04Z</time>
      </trkpt>
      <trkpt lat="47.7438" lon="7.33439">
        <ele>244.60000610352</ele>
        <time>2019-09-09T15:45:05Z</time>
      </trkpt>
      <trkpt lat="47.74364" lon="7.33424">
        <ele>244.60000610352</ele>
        <time>2019-09-09T15:45:10Z</time>
      </trkpt>
      <trkpt lat="47.74361" lon="7.33412">
        <ele>244.60000610352</ele>
        <time>2019-09-09T15:45:13Z</time>
      </trkpt>
      <trkpt lat="47.74362" lon="7.33408">
        <ele>244.60000610352</ele>
        <time>2019-09-09T15:45:14Z</time>
      </trkpt>
      <trkpt lat="47.74363" lon="7.33404">
        <ele>244.60000610352</ele>
        <time>2019-09-09T15:45:16Z</time>
      </trkpt>
      <trkpt lat="47.74361" lon="7.33399">
        <ele>244.80000305176</ele>
        <time>2019-09-09T15:45:19Z</time>
      </trkpt>
      <trkpt lat="47.74361" lon="7.33398">
        <ele>244.80000305176</ele>
        <time>2019-09-09T15:45:21Z</time>
      </trkpt>
      <trkpt lat="47.74365" lon="7.33389">
        <ele>245</ele>
        <time>2019-09-09T15:45:55Z</time>
      </trkpt>
      <trkpt lat="47.74366" lon="7.33389">
        <ele>245</ele>
        <time>2019-09-09T15:45:56Z</time>
      </trkpt>
      <trkpt lat="47.7438" lon="7.33382">
        <ele>245</ele>
        <time>2019-09-09T15:46:01Z</time>
      </trkpt>
      <trkpt lat="47.74399" lon="7.33372">
        <ele>245</ele>
        <time>2019-09-09T15:46:07Z</time>
      </trkpt>
      <trkpt lat="47.74416" lon="7.33355">
        <ele>244.80000305176</ele>
        <time>2019-09-09T15:46:13Z</time>
      </trkpt>
      <trkpt lat="47.74419" lon="7.33355">
        <ele>244.60000610352</ele>
        <time>2019-09-09T15:46:14Z</time>
      </trkpt>
      <trkpt lat="47.74422" lon="7.33359">
        <ele>244.60000610352</ele>
        <time>2019-09-09T15:46:16Z</time>
      </trkpt>
      <trkpt lat="47.74423" lon="7.33363">
        <ele>244.19999694824</ele>
        <time>2019-09-09T15:46:19Z</time>
      </trkpt>
      <trkpt lat="47.74422" lon="7.33365">
        <ele>244</ele>
        <time>2019-09-09T15:46:21Z</time>
      </trkpt>
      <trkpt lat="47.74422" lon="7.33366">
        <ele>244</ele>
        <time>2019-09-09T15:46:22Z</time>
      </trkpt>
      <trkpt lat="47.74419" lon="7.33371">
        <ele>243.80000305176</ele>
        <time>2019-09-09T15:46:27Z</time>
      </trkpt>
      <trkpt lat="47.74421" lon="7.33373">
        <ele>243.60000610352</ele>
        <time>2019-09-09T15:46:33Z</time>
      </trkpt>
      <trkpt lat="47.74423" lon="7.33378">
        <ele>243.39999389648</ele>
        <time>2019-09-09T15:47:06Z</time>
      </trkpt>
      <trkpt lat="47.74424" lon="7.3338">
        <ele>243.39999389648</ele>
        <time>2019-09-09T15:47:11Z</time>
      </trkpt>
      <trkpt lat="47.74426" lon="7.33381">
        <ele>243.39999389648</ele>
        <time>2019-09-09T15:47:26Z</time>
      </trkpt>
      <trkpt lat="47.74427" lon="7.33382">
        <ele>243.39999389648</ele>
        <time>2019-09-09T15:47:27Z</time>
      </trkpt>
      <trkpt lat="47.74427" lon="7.33382">
        <ele>243.39999389648</ele>
        <time>2019-09-09T15:47:28Z</time>
      </trkpt>
      <trkpt lat="47.74431" lon="7.33388">
        <ele>243.39999389648</ele>
        <time>2019-09-09T15:47:32Z</time>
      </trkpt>
      <trkpt lat="47.74438" lon="7.33397">
        <ele>243.39999389648</ele>
        <time>2019-09-09T15:47:37Z</time>
      </trkpt>
      <trkpt lat="47.7444" lon="7.33402">
        <ele>243.39999389648</ele>
        <time>2019-09-09T15:47:42Z</time>
      </trkpt>
      <trkpt lat="47.74436" lon="7.33405">
        <ele>243.80000305176</ele>
        <time>2019-09-09T15:49:03Z</time>
      </trkpt>
      <trkpt lat="47.74433" lon="7.33401">
        <ele>243.80000305176</ele>
        <time>2019-09-09T15:49:05Z</time>
      </trkpt>
      <trkpt lat="47.74419" lon="7.33391">
        <ele>243.80000305176</ele>
        <time>2019-09-09T15:49:10Z</time>
      </trkpt>
      <trkpt lat="47.74415" lon="7.33385">
        <ele>243.80000305176</ele>
        <time>2019-09-09T15:49:12Z</time>
      </trkpt>
      <trkpt lat="47.74408" lon="7.3337">
        <ele>243.80000305176</ele>
        <time>2019-09-09T15:49:17Z</time>
      </trkpt>
      <trkpt lat="47.74402" lon="7.33361">
        <ele>244</ele>
        <time>2019-09-09T15:49:22Z</time>
      </trkpt>
      <trkpt lat="47.74401" lon="7.3336">
        <ele>244.19999694824</ele>
        <time>2019-09-09T15:49:26Z</time>
      </trkpt>
      <trkpt lat="47.74401" lon="7.33365">
        <ele>244.19999694824</ele>
        <time>2019-09-09T15:50:16Z</time>
      </trkpt>
      <trkpt lat="47.74402" lon="7.33364">
        <ele>244.19999694824</ele>
        <time>2019-09-09T15:50:17Z</time>
      </trkpt>
      <trkpt lat="47.74405" lon="7.3336">
        <ele>244.19999694824</ele>
        <time>2019-09-09T15:50:20Z</time>
      </trkpt>
      <trkpt lat="47.74406" lon="7.33358">
        <ele>244.19999694824</ele>
        <time>2019-09-09T15:50:21Z</time>
      </trkpt>
      <trkpt lat="47.7441" lon="7.33346">
        <ele>244.19999694824</ele>
        <time>2019-09-09T15:50:25Z</time>
      </trkpt>
      <trkpt lat="47.74413" lon="7.33328">
        <ele>244.19999694824</ele>
        <time>2019-09-09T15:50:29Z</time>
      </trkpt>
      <trkpt lat="47.74415" lon="7.33316">
        <ele>244.19999694824</ele>
        <time>2019-09-09T15:50:31Z</time>
      </trkpt>
      <trkpt lat="47.74415" lon="7.33298">
        <ele>244</ele>
        <time>2019-09-09T15:50:34Z</time>
      </trkpt>
      <trkpt lat="47.74414" lon="7.33278">
        <ele>244</ele>
        <time>2019-09-09T15:50:38Z</time>
      </trkpt>
      <trkpt lat="47.74418" lon="7.33266">
        <ele>243.80000305176</ele>
        <time>2019-09-09T15:50:41Z</time>
      </trkpt>
      <trkpt lat="47.74419" lon="7.33263">
        <ele>243.80000305176</ele>
        <time>2019-09-09T15:50:42Z</time>
      </trkpt>
      <trkpt lat="47.7443" lon="7.33245">
        <ele>243.39999389648</ele>
        <time>2019-09-09T15:50:48Z</time>
      </trkpt>
      <trkpt lat="47.74435" lon="7.33234">
        <ele>243.39999389648</ele>
        <time>2019-09-09T15:50:50Z</time>
      </trkpt>
      <trkpt lat="47.74443" lon="7.33224">
        <ele>243.39999389648</ele>
        <time>2019-09-09T15:50:52Z</time>
      </trkpt>
      <trkpt lat="47.74447" lon="7.33218">
        <ele>243.39999389648</ele>
        <time>2019-09-09T15:50:53Z</time>
      </trkpt>
      <trkpt lat="47.74462" lon="7.33192">
        <ele>243.60000610352</ele>
        <time>2019-09-09T15:50:57Z</time>
      </trkpt>
      <trkpt lat="47.74479" lon="7.33157">
        <ele>243.60000610352</ele>
        <time>2019-09-09T15:51:02Z</time>
      </trkpt>
      <trkpt lat="47.74489" lon="7.33137">
        <ele>243.80000305176</ele>
        <time>2019-09-09T15:51:06Z</time>
      </trkpt>
      <trkpt lat="47.74498" lon="7.33114">
        <ele>243.80000305176</ele>
        <time>2019-09-09T15:51:11Z</time>
      </trkpt>
      <trkpt lat="47.74501" lon="7.3311">
        <ele>243.60000610352</ele>
        <time>2019-09-09T15:51:15Z</time>
      </trkpt>
      <trkpt lat="47.74509" lon="7.33098">
        <ele>243.60000610352</ele>
        <time>2019-09-09T15:51:21Z</time>
      </trkpt>
      <trkpt lat="47.74519" lon="7.33074">
        <ele>243.60000610352</ele>
        <time>2019-09-09T15:51:27Z</time>
      </trkpt>
      <trkpt lat="47.74521" lon="7.33074">
        <ele>243.60000610352</ele>
        <time>2019-09-09T15:51:28Z</time>
      </trkpt>
      <trkpt lat="47.74523" lon="7.33069">
        <ele>243.39999389648</ele>
        <time>2019-09-09T15:51:30Z</time>
      </trkpt>
      <trkpt lat="47.7453" lon="7.33061">
        <ele>243.60000610352</ele>
        <time>2019-09-09T15:51:33Z</time>
      </trkpt>
      <trkpt lat="47.74533" lon="7.33059">
        <ele>243.60000610352</ele>
        <time>2019-09-09T15:51:34Z</time>
      </trkpt>
      <trkpt lat="47.74546" lon="7.33046">
        <ele>243.60000610352</ele>
        <time>2019-09-09T15:51:38Z</time>
      </trkpt>
      <trkpt lat="47.74558" lon="7.33032">
        <ele>243.80000305176</ele>
        <time>2019-09-09T15:51:43Z</time>
      </trkpt>
      <trkpt lat="47.74559" lon="7.3303">
        <ele>244</ele>
        <time>2019-09-09T15:51:44Z</time>
      </trkpt>
      <trkpt lat="47.74562" lon="7.33027">
        <ele>244</ele>
        <time>2019-09-09T15:51:47Z</time>
      </trkpt>
      <trkpt lat="47.74559" lon="7.33024">
        <ele>244</ele>
        <time>2019-09-09T15:52:28Z</time>
      </trkpt>
      <trkpt lat="47.74558" lon="7.33021">
        <ele>244</ele>
        <time>2019-09-09T15:52:30Z</time>
      </trkpt>
      <trkpt lat="47.74557" lon="7.33019">
        <ele>244</ele>
        <time>2019-09-09T15:52:31Z</time>
      </trkpt>
      <trkpt lat="47.74549" lon="7.33012">
        <ele>244</ele>
        <time>2019-09-09T15:52:36Z</time>
      </trkpt>
      <trkpt lat="47.74547" lon="7.33005">
        <ele>243.80000305176</ele>
        <time>2019-09-09T15:52:38Z</time>
      </trkpt>
      <trkpt lat="47.74542" lon="7.32992">
        <ele>243.80000305176</ele>
        <time>2019-09-09T15:52:41Z</time>
      </trkpt>
      <trkpt lat="47.74532" lon="7.32966">
        <ele>244.19999694824</ele>
        <time>2019-09-09T15:52:46Z</time>
      </trkpt>
      <trkpt lat="47.7452" lon="7.3293">
        <ele>244.39999389648</ele>
        <time>2019-09-09T15:52:52Z</time>
      </trkpt>
      <trkpt lat="47.74509" lon="7.32895">
        <ele>244.39999389648</ele>
        <time>2019-09-09T15:52:58Z</time>
      </trkpt>
      <trkpt lat="47.745" lon="7.32864">
        <ele>244.80000305176</ele>
        <time>2019-09-09T15:53:03Z</time>
      </trkpt>
      <trkpt lat="47.74494" lon="7.32841">
        <ele>245</ele>
        <time>2019-09-09T15:53:07Z</time>
      </trkpt>
      <trkpt lat="47.74483" lon="7.32814">
        <ele>245</ele>
        <time>2019-09-09T15:53:13Z</time>
      </trkpt>
      <trkpt lat="47.74482" lon="7.32806">
        <ele>245</ele>
        <time>2019-09-09T15:53:17Z</time>
      </trkpt>
      <trkpt lat="47.74482" lon="7.32806">
        <ele>245</ele>
        <time>2019-09-09T15:53:18Z</time>
      </trkpt>
      <trkpt lat="47.7448" lon="7.32802">
        <ele>244.80000305176</ele>
        <time>2019-09-09T15:54:02Z</time>
      </trkpt>
      <trkpt lat="47.74478" lon="7.32796">
        <ele>244.80000305176</ele>
        <time>2019-09-09T15:54:04Z</time>
      </trkpt>
      <trkpt lat="47.74472" lon="7.32774">
        <ele>244.80000305176</ele>
        <time>2019-09-09T15:54:09Z</time>
      </trkpt>
      <trkpt lat="47.7447" lon="7.32768">
        <ele>244.80000305176</ele>
        <time>2019-09-09T15:54:10Z</time>
      </trkpt>
      <trkpt lat="47.7446" lon="7.32745">
        <ele>244.80000305176</ele>
        <time>2019-09-09T15:54:14Z</time>
      </trkpt>
      <trkpt lat="47.74438" lon="7.32711">
        <ele>245.39999389648</ele>
        <time>2019-09-09T15:54:20Z</time>
      </trkpt>
      <trkpt lat="47.74415" lon="7.32674">
        <ele>245.80000305176</ele>
        <time>2019-09-09T15:54:27Z</time>
      </trkpt>
      <trkpt lat="47.74399" lon="7.32649">
        <ele>245.80000305176</ele>
        <time>2019-09-09T15:54:33Z</time>
      </trkpt>
      <trkpt lat="47.74373" lon="7.32612">
        <ele>246</ele>
        <time>2019-09-09T15:54:41Z</time>
      </trkpt>
      <trkpt lat="47.7435" lon="7.32578">
        <ele>246</ele>
        <time>2019-09-09T15:54:48Z</time>
      </trkpt>
      <trkpt lat="47.74347" lon="7.32575">
        <ele>246</ele>
        <time>2019-09-09T15:54:49Z</time>
      </trkpt>
      <trkpt lat="47.74342" lon="7.32578">
        <ele>246</ele>
        <time>2019-09-09T15:54:51Z</time>
      </trkpt>
      <trkpt lat="47.74331" lon="7.32584">
        <ele>246.19999694824</ele>
        <time>2019-09-09T15:54:55Z</time>
      </trkpt>
      <trkpt lat="47.74322" lon="7.32593">
        <ele>246</ele>
        <time>2019-09-09T15:54:58Z</time>
      </trkpt>
      <trkpt lat="47.74317" lon="7.32596">
        <ele>246</ele>
        <time>2019-09-09T15:55:00Z</time>
      </trkpt>
      <trkpt lat="47.74306" lon="7.32595">
        <ele>246</ele>
        <time>2019-09-09T15:55:03Z</time>
      </trkpt>
      <trkpt lat="47.74293" lon="7.32591">
        <ele>245.80000305176</ele>
        <time>2019-09-09T15:55:06Z</time>
      </trkpt>
      <trkpt lat="47.74275" lon="7.32586">
        <ele>246</ele>
        <time>2019-09-09T15:55:10Z</time>
      </trkpt>
      <trkpt lat="47.74267" lon="7.32586">
        <ele>246</ele>
        <time>2019-09-09T15:55:12Z</time>
      </trkpt>
      <trkpt lat="47.74242" lon="7.32583">
        <ele>245.80000305176</ele>
        <time>2019-09-09T15:55:18Z</time>
      </trkpt>
      <trkpt lat="47.7422" lon="7.32579">
        <ele>245.80000305176</ele>
        <time>2019-09-09T15:55:23Z</time>
      </trkpt>
      <trkpt lat="47.7421" lon="7.32578">
        <ele>245.19999694824</ele>
        <time>2019-09-09T15:55:25Z</time>
      </trkpt>
      <trkpt lat="47.74187" lon="7.32572">
        <ele>245</ele>
        <time>2019-09-09T15:55:30Z</time>
      </trkpt>
      <trkpt lat="47.74182" lon="7.3257">
        <ele>245</ele>
        <time>2019-09-09T15:55:31Z</time>
      </trkpt>
      <trkpt lat="47.74178" lon="7.32569">
        <ele>245</ele>
        <time>2019-09-09T15:55:32Z</time>
      </trkpt>
      <trkpt lat="47.74164" lon="7.32567">
        <ele>244.80000305176</ele>
        <time>2019-09-09T15:55:36Z</time>
      </trkpt>
      <trkpt lat="47.74145" lon="7.32566">
        <ele>244.80000305176</ele>
        <time>2019-09-09T15:55:41Z</time>
      </trkpt>
      <trkpt lat="47.74129" lon="7.32561">
        <ele>245</ele>
        <time>2019-09-09T15:55:45Z</time>
      </trkpt>
      <trkpt lat="47.74112" lon="7.32553">
        <ele>245</ele>
        <time>2019-09-09T15:55:49Z</time>
      </trkpt>
      <trkpt lat="47.74106" lon="7.32548">
        <ele>245</ele>
        <time>2019-09-09T15:55:51Z</time>
      </trkpt>
      <trkpt lat="47.74098" lon="7.32547">
        <ele>245</ele>
        <time>2019-09-09T15:55:54Z</time>
      </trkpt>
      <trkpt lat="47.74088" lon="7.32545">
        <ele>245.39999389648</ele>
        <time>2019-09-09T15:55:57Z</time>
      </trkpt>
      <trkpt lat="47.74074" lon="7.32534">
        <ele>245.60000610352</ele>
        <time>2019-09-09T15:56:01Z</time>
      </trkpt>
      <trkpt lat="47.74063" lon="7.3252">
        <ele>245.60000610352</ele>
        <time>2019-09-09T15:56:05Z</time>
      </trkpt>
      <trkpt lat="47.74049" lon="7.32499">
        <ele>245.19999694824</ele>
        <time>2019-09-09T15:56:10Z</time>
      </trkpt>
      <trkpt lat="47.74043" lon="7.32491">
        <ele>245.19999694824</ele>
        <time>2019-09-09T15:56:12Z</time>
      </trkpt>
      <trkpt lat="47.74035" lon="7.32478">
        <ele>245</ele>
        <time>2019-09-09T15:56:15Z</time>
      </trkpt>
      <trkpt lat="47.74033" lon="7.32474">
        <ele>245</ele>
        <time>2019-09-09T15:56:16Z</time>
      </trkpt>
      <trkpt lat="47.74016" lon="7.3245">
        <ele>244.39999389648</ele>
        <time>2019-09-09T15:56:22Z</time>
      </trkpt>
      <trkpt lat="47.74011" lon="7.32444">
        <ele>243.80000305176</ele>
        <time>2019-09-09T15:56:26Z</time>
      </trkpt>
      <trkpt lat="47.7401" lon="7.32443">
        <ele>243.80000305176</ele>
        <time>2019-09-09T15:56:27Z</time>
      </trkpt>
      <trkpt lat="47.7401" lon="7.32443">
        <ele>243.80000305176</ele>
        <time>2019-09-09T15:56:29Z</time>
      </trkpt>
      <trkpt lat="47.74004" lon="7.32434">
        <ele>243.60000610352</ele>
        <time>2019-09-09T15:56:33Z</time>
      </trkpt>
      <trkpt lat="47.74002" lon="7.3243">
        <ele>243.60000610352</ele>
        <time>2019-09-09T15:56:34Z</time>
      </trkpt>
      <trkpt lat="47.73989" lon="7.3242">
        <ele>243.60000610352</ele>
        <time>2019-09-09T15:56:39Z</time>
      </trkpt>
      <trkpt lat="47.73973" lon="7.32404">
        <ele>244.39999389648</ele>
        <time>2019-09-09T15:56:44Z</time>
      </trkpt>
      <trkpt lat="47.73963" lon="7.32393">
        <ele>245.39999389648</ele>
        <time>2019-09-09T15:56:47Z</time>
      </trkpt>
      <trkpt lat="47.73941" lon="7.32374">
        <ele>246.39999389648</ele>
        <time>2019-09-09T15:56:53Z</time>
      </trkpt>
      <trkpt lat="47.73924" lon="7.32359">
        <ele>246.39999389648</ele>
        <time>2019-09-09T15:56:59Z</time>
      </trkpt>
      <trkpt lat="47.73909" lon="7.32345">
        <ele>246.39999389648</ele>
        <time>2019-09-09T15:57:04Z</time>
      </trkpt>
      <trkpt lat="47.73893" lon="7.32333">
        <ele>246.39999389648</ele>
        <time>2019-09-09T15:57:10Z</time>
      </trkpt>
      <trkpt lat="47.73874" lon="7.32318">
        <ele>246.39999389648</ele>
        <time>2019-09-09T15:57:17Z</time>
      </trkpt>
      <trkpt lat="47.73864" lon="7.32312">
        <ele>246.19999694824</ele>
        <time>2019-09-09T15:57:23Z</time>
      </trkpt>
      <trkpt lat="47.73856" lon="7.32308">
        <ele>246.19999694824</ele>
        <time>2019-09-09T15:57:27Z</time>
      </trkpt>
      <trkpt lat="47.73854" lon="7.32306">
        <ele>246.19999694824</ele>
        <time>2019-09-09T15:57:28Z</time>
      </trkpt>
      <trkpt lat="47.73843" lon="7.323">
        <ele>246.39999389648</ele>
        <time>2019-09-09T15:57:31Z</time>
      </trkpt>
      <trkpt lat="47.73828" lon="7.32292">
        <ele>246.39999389648</ele>
        <time>2019-09-09T15:57:35Z</time>
      </trkpt>
      <trkpt lat="47.73824" lon="7.32289">
        <ele>246.60000610352</ele>
        <time>2019-09-09T15:57:36Z</time>
      </trkpt>
      <trkpt lat="47.73799" lon="7.32277">
        <ele>246.60000610352</ele>
        <time>2019-09-09T15:57:42Z</time>
      </trkpt>
      <trkpt lat="47.73782" lon="7.32271">
        <ele>246.60000610352</ele>
        <time>2019-09-09T15:57:46Z</time>
      </trkpt>
      <trkpt lat="47.73777" lon="7.32269">
        <ele>246.60000610352</ele>
        <time>2019-09-09T15:57:47Z</time>
      </trkpt>
      <trkpt lat="47.73752" lon="7.32263">
        <ele>246.60000610352</ele>
        <time>2019-09-09T15:57:52Z</time>
      </trkpt>
      <trkpt lat="47.73747" lon="7.32262">
        <ele>246.60000610352</ele>
        <time>2019-09-09T15:57:53Z</time>
      </trkpt>
      <trkpt lat="47.73718" lon="7.32252">
        <ele>246.60000610352</ele>
        <time>2019-09-09T15:57:59Z</time>
      </trkpt>
      <trkpt lat="47.73713" lon="7.32251">
        <ele>246.60000610352</ele>
        <time>2019-09-09T15:58:00Z</time>
      </trkpt>
      <trkpt lat="47.73696" lon="7.32251">
        <ele>246.60000610352</ele>
        <time>2019-09-09T15:58:04Z</time>
      </trkpt>
      <trkpt lat="47.73691" lon="7.3225">
        <ele>246.60000610352</ele>
        <time>2019-09-09T15:58:05Z</time>
      </trkpt>
      <trkpt lat="47.73666" lon="7.32249">
        <ele>246.60000610352</ele>
        <time>2019-09-09T15:58:10Z</time>
      </trkpt>
      <trkpt lat="47.7364" lon="7.32247">
        <ele>246.60000610352</ele>
        <time>2019-09-09T15:58:15Z</time>
      </trkpt>
      <trkpt lat="47.73613" lon="7.32245">
        <ele>247</ele>
        <time>2019-09-09T15:58:20Z</time>
      </trkpt>
      <trkpt lat="47.73609" lon="7.32244">
        <ele>247</ele>
        <time>2019-09-09T15:58:21Z</time>
      </trkpt>
      <trkpt lat="47.73595" lon="7.32241">
        <ele>247</ele>
        <time>2019-09-09T15:58:24Z</time>
      </trkpt>
      <trkpt lat="47.7359" lon="7.3224">
        <ele>247</ele>
        <time>2019-09-09T15:58:25Z</time>
      </trkpt>
      <trkpt lat="47.73559" lon="7.32234">
        <ele>247</ele>
        <time>2019-09-09T15:58:31Z</time>
      </trkpt>
      <trkpt lat="47.73536" lon="7.32225">
        <ele>246.80000305176</ele>
        <time>2019-09-09T15:58:36Z</time>
      </trkpt>
      <trkpt lat="47.73524" lon="7.32219">
        <ele>247</ele>
        <time>2019-09-09T15:58:40Z</time>
      </trkpt>
      <trkpt lat="47.73523" lon="7.3222">
        <ele>247</ele>
        <time>2019-09-09T15:58:42Z</time>
      </trkpt>
      <trkpt lat="47.73521" lon="7.32225">
        <ele>247.19999694824</ele>
        <time>2019-09-09T15:58:44Z</time>
      </trkpt>
      <trkpt lat="47.7352" lon="7.32231">
        <ele>247.19999694824</ele>
        <time>2019-09-09T15:58:46Z</time>
      </trkpt>
      <trkpt lat="47.73516" lon="7.32245">
        <ele>248.19999694824</ele>
        <time>2019-09-09T15:58:50Z</time>
      </trkpt>
      <trkpt lat="47.73515" lon="7.32249">
        <ele>248.19999694824</ele>
        <time>2019-09-09T15:58:51Z</time>
      </trkpt>
      <trkpt lat="47.73511" lon="7.32263">
        <ele>249.60000610352</ele>
        <time>2019-09-09T15:58:56Z</time>
      </trkpt>
      <trkpt lat="47.7351" lon="7.32266">
        <ele>250</ele>
        <time>2019-09-09T15:58:57Z</time>
      </trkpt>
      <trkpt lat="47.73507" lon="7.32272">
        <ele>251</ele>
        <time>2019-09-09T15:58:59Z</time>
      </trkpt>
      <trkpt lat="47.73505" lon="7.32281">
        <ele>252.19999694824</ele>
        <time>2019-09-09T15:59:02Z</time>
      </trkpt>
      <trkpt lat="47.73503" lon="7.32292">
        <ele>253</ele>
        <time>2019-09-09T15:59:05Z</time>
      </trkpt>
      <trkpt lat="47.73502" lon="7.32297">
        <ele>253.19999694824</ele>
        <time>2019-09-09T15:59:06Z</time>
      </trkpt>
      <trkpt lat="47.73496" lon="7.3232">
        <ele>253.19999694824</ele>
        <time>2019-09-09T15:59:10Z</time>
      </trkpt>
      <trkpt lat="47.73493" lon="7.32343">
        <ele>253.19999694824</ele>
        <time>2019-09-09T15:59:14Z</time>
      </trkpt>
      <trkpt lat="47.73491" lon="7.32361">
        <ele>251.80000305176</ele>
        <time>2019-09-09T15:59:17Z</time>
      </trkpt>
      <trkpt lat="47.73489" lon="7.32375">
        <ele>250.60000610352</ele>
        <time>2019-09-09T15:59:19Z</time>
      </trkpt>
      <trkpt lat="47.73488" lon="7.32382">
        <ele>249.60000610352</ele>
        <time>2019-09-09T15:59:20Z</time>
      </trkpt>
      <trkpt lat="47.73488" lon="7.32388">
        <ele>248.80000305176</ele>
        <time>2019-09-09T15:59:21Z</time>
      </trkpt>
      <trkpt lat="47.73487" lon="7.32395">
        <ele>248.19999694824</ele>
        <time>2019-09-09T15:59:22Z</time>
      </trkpt>
      <trkpt lat="47.73485" lon="7.32409">
        <ele>248</ele>
        <time>2019-09-09T15:59:24Z</time>
      </trkpt>
      <trkpt lat="47.73478" lon="7.32426">
        <ele>247.39999389648</ele>
        <time>2019-09-09T15:59:27Z</time>
      </trkpt>
      <trkpt lat="47.73475" lon="7.32429">
        <ele>247.19999694824</ele>
        <time>2019-09-09T15:59:28Z</time>
      </trkpt>
      <trkpt lat="47.73468" lon="7.32431">
        <ele>246.80000305176</ele>
        <time>2019-09-09T15:59:30Z</time>
      </trkpt>
      <trkpt lat="47.73463" lon="7.3243">
        <ele>246.60000610352</ele>
        <time>2019-09-09T15:59:32Z</time>
      </trkpt>
      <trkpt lat="47.7345" lon="7.32422">
        <ele>246.19999694824</ele>
        <time>2019-09-09T15:59:38Z</time>
      </trkpt>
      <trkpt lat="47.73448" lon="7.32422">
        <ele>246.19999694824</ele>
        <time>2019-09-09T15:59:39Z</time>
      </trkpt>
      <trkpt lat="47.73446" lon="7.32421">
        <ele>246.19999694824</ele>
        <time>2019-09-09T15:59:41Z</time>
      </trkpt>
      <trkpt lat="47.73445" lon="7.32418">
        <ele>246</ele>
        <time>2019-09-09T15:59:42Z</time>
      </trkpt>
      <trkpt lat="47.73434" lon="7.32407">
        <ele>246.19999694824</ele>
        <time>2019-09-09T15:59:48Z</time>
      </trkpt>
      <trkpt lat="47.73425" lon="7.32398">
        <ele>246.19999694824</ele>
        <time>2019-09-09T15:59:52Z</time>
      </trkpt>
      <trkpt lat="47.73425" lon="7.32395">
        <ele>246.19999694824</ele>
        <time>2019-09-09T15:59:53Z</time>
      </trkpt>
      <trkpt lat="47.73433" lon="7.32384">
        <ele>246</ele>
        <time>2019-09-09T15:59:57Z</time>
      </trkpt>
      <trkpt lat="47.73445" lon="7.32372">
        <ele>246.19999694824</ele>
        <time>2019-09-09T16:00:03Z</time>
      </trkpt>
      <trkpt lat="47.73443" lon="7.32365">
        <ele>246.19999694824</ele>
        <time>2019-09-09T16:00:06Z</time>
      </trkpt>
      <trkpt lat="47.73437" lon="7.32371">
        <ele>246.19999694824</ele>
        <time>2019-09-09T16:00:09Z</time>
      </trkpt>
      <trkpt lat="47.73433" lon="7.32378">
        <ele>246.19999694824</ele>
        <time>2019-09-09T16:00:11Z</time>
      </trkpt>
      <trkpt lat="47.73424" lon="7.32394">
        <ele>246.19999694824</ele>
        <time>2019-09-09T16:00:15Z</time>
      </trkpt>
      <trkpt lat="47.73422" lon="7.32396">
        <ele>246.19999694824</ele>
        <time>2019-09-09T16:00:16Z</time>
      </trkpt>
      <trkpt lat="47.73416" lon="7.32395">
        <ele>246.19999694824</ele>
        <time>2019-09-09T16:00:18Z</time>
      </trkpt>
      <trkpt lat="47.73404" lon="7.32391">
        <ele>246.19999694824</ele>
        <time>2019-09-09T16:00:22Z</time>
      </trkpt>
      <trkpt lat="47.734" lon="7.32387">
        <ele>246.19999694824</ele>
        <time>2019-09-09T16:00:24Z</time>
      </trkpt>
      <trkpt lat="47.73397" lon="7.32385">
        <ele>246.19999694824</ele>
        <time>2019-09-09T16:00:25Z</time>
      </trkpt>
      <trkpt lat="47.73391" lon="7.32383">
        <ele>246.39999389648</ele>
        <time>2019-09-09T16:00:27Z</time>
      </trkpt>
      <trkpt lat="47.73383" lon="7.32383">
        <ele>246.19999694824</ele>
        <time>2019-09-09T16:00:31Z</time>
      </trkpt>
      <trkpt lat="47.73377" lon="7.32384">
        <ele>245.80000305176</ele>
        <time>2019-09-09T16:00:35Z</time>
      </trkpt>
      <trkpt lat="47.73372" lon="7.32396">
        <ele>245.80000305176</ele>
        <time>2019-09-09T16:00:40Z</time>
      </trkpt>
      <trkpt lat="47.73373" lon="7.32403">
        <ele>245.80000305176</ele>
        <time>2019-09-09T16:00:44Z</time>
      </trkpt>
      <trkpt lat="47.73372" lon="7.32404">
        <ele>245.80000305176</ele>
        <time>2019-09-09T16:00:46Z</time>
      </trkpt>
      <trkpt lat="47.7337" lon="7.32406">
        <ele>245.39999389648</ele>
        <time>2019-09-09T16:01:15Z</time>
      </trkpt>
      <trkpt lat="47.73368" lon="7.32408">
        <ele>245.60000610352</ele>
        <time>2019-09-09T16:01:17Z</time>
      </trkpt>
      <trkpt lat="47.73364" lon="7.32401">
        <ele>245.60000610352</ele>
        <time>2019-09-09T16:01:22Z</time>
      </trkpt>
      <trkpt lat="47.73362" lon="7.32395">
        <ele>245.60000610352</ele>
        <time>2019-09-09T16:01:25Z</time>
      </trkpt>
      <trkpt lat="47.73362" lon="7.32393">
        <ele>245.60000610352</ele>
        <time>2019-09-09T16:01:26Z</time>
      </trkpt>
      <trkpt lat="47.73362" lon="7.32392">
        <ele>245.60000610352</ele>
        <time>2019-09-09T16:01:28Z</time>
      </trkpt>
      <trkpt lat="47.73362" lon="7.32391">
        <ele>245.39999389648</ele>
        <time>2019-09-09T16:01:30Z</time>
      </trkpt>
      <trkpt lat="47.72963" lon="7.32175">
        <ele>242.60000610352</ele>
        <time>2019-09-10T07:04:47Z</time>
      </trkpt>
      <trkpt lat="47.72959" lon="7.32176">
        <ele>242.60000610352</ele>
        <time>2019-09-10T07:04:48Z</time>
      </trkpt>
      <trkpt lat="47.7295" lon="7.32183">
        <ele>243.19999694824</ele>
        <time>2019-09-10T07:04:51Z</time>
      </trkpt>
      <trkpt lat="47.72932" lon="7.32178">
        <ele>243.19999694824</ele>
        <time>2019-09-10T07:04:56Z</time>
      </trkpt>
      <trkpt lat="47.72908" lon="7.32155">
        <ele>243</ele>
        <time>2019-09-10T07:05:02Z</time>
      </trkpt>
      <trkpt lat="47.72881" lon="7.3213">
        <ele>243.19999694824</ele>
        <time>2019-09-10T07:05:09Z</time>
      </trkpt>
      <trkpt lat="47.72853" lon="7.32104">
        <ele>243.19999694824</ele>
        <time>2019-09-10T07:05:16Z</time>
      </trkpt>
      <trkpt lat="47.72816" lon="7.32069">
        <ele>243.19999694824</ele>
        <time>2019-09-10T07:05:26Z</time>
      </trkpt>
      <trkpt lat="47.72762" lon="7.32042">
        <ele>243.19999694824</ele>
        <time>2019-09-10T07:05:35Z</time>
      </trkpt>
      <trkpt lat="47.72726" lon="7.32012">
        <ele>243.19999694824</ele>
        <time>2019-09-10T07:05:43Z</time>
      </trkpt>
      <trkpt lat="47.72685" lon="7.31977">
        <ele>243.19999694824</ele>
        <time>2019-09-10T07:05:52Z</time>
      </trkpt>
      <trkpt lat="47.7266" lon="7.31953">
        <ele>243.19999694824</ele>
        <time>2019-09-10T07:05:58Z</time>
      </trkpt>
      <trkpt lat="47.72652" lon="7.31945">
        <ele>243.19999694824</ele>
        <time>2019-09-10T07:06:00Z</time>
      </trkpt>
      <trkpt lat="47.72614" lon="7.31908">
        <ele>243.19999694824</ele>
        <time>2019-09-10T07:06:09Z</time>
      </trkpt>
      <trkpt lat="47.72576" lon="7.31871">
        <ele>243.19999694824</ele>
        <time>2019-09-10T07:06:18Z</time>
      </trkpt>
      <trkpt lat="47.72538" lon="7.31835">
        <ele>243</ele>
        <time>2019-09-10T07:06:27Z</time>
      </trkpt>
      <trkpt lat="47.72496" lon="7.31795">
        <ele>242.80000305176</ele>
        <time>2019-09-10T07:06:37Z</time>
      </trkpt>
      <trkpt lat="47.72453" lon="7.31754">
        <ele>242.80000305176</ele>
        <time>2019-09-10T07:06:47Z</time>
      </trkpt>
      <trkpt lat="47.72406" lon="7.3171">
        <ele>243.19999694824</ele>
        <time>2019-09-10T07:06:58Z</time>
      </trkpt>
      <trkpt lat="47.72402" lon="7.31706">
        <ele>243.19999694824</ele>
        <time>2019-09-10T07:06:59Z</time>
      </trkpt>
      <trkpt lat="47.72369" lon="7.31674">
        <ele>243.39999389648</ele>
        <time>2019-09-10T07:07:07Z</time>
      </trkpt>
      <trkpt lat="47.7233" lon="7.31639">
        <ele>243.19999694824</ele>
        <time>2019-09-10T07:07:16Z</time>
      </trkpt>
      <trkpt lat="47.72302" lon="7.31616">
        <ele>243.19999694824</ele>
        <time>2019-09-10T07:07:22Z</time>
      </trkpt>
      <trkpt lat="47.72261" lon="7.31575">
        <ele>243</ele>
        <time>2019-09-10T07:07:32Z</time>
      </trkpt>
      <trkpt lat="47.72224" lon="7.31538">
        <ele>243</ele>
        <time>2019-09-10T07:07:41Z</time>
      </trkpt>
      <trkpt lat="47.72182" lon="7.31498">
        <ele>243</ele>
        <time>2019-09-10T07:07:51Z</time>
      </trkpt>
      <trkpt lat="47.72178" lon="7.31494">
        <ele>243</ele>
        <time>2019-09-10T07:07:52Z</time>
      </trkpt>
      <trkpt lat="47.72139" lon="7.3146">
        <ele>243.39999389648</ele>
        <time>2019-09-10T07:08:01Z</time>
      </trkpt>
      <trkpt lat="47.721" lon="7.31429">
        <ele>243.19999694824</ele>
        <time>2019-09-10T07:08:10Z</time>
      </trkpt>
      <trkpt lat="47.72063" lon="7.31408">
        <ele>243.39999389648</ele>
        <time>2019-09-10T07:08:18Z</time>
      </trkpt>
      <trkpt lat="47.72035" lon="7.31392">
        <ele>243.39999389648</ele>
        <time>2019-09-10T07:08:24Z</time>
      </trkpt>
      <trkpt lat="47.72031" lon="7.31389">
        <ele>243.19999694824</ele>
        <time>2019-09-10T07:08:25Z</time>
      </trkpt>
      <trkpt lat="47.72" lon="7.31374">
        <ele>243.19999694824</ele>
        <time>2019-09-10T07:08:32Z</time>
      </trkpt>
      <trkpt lat="47.71961" lon="7.31364">
        <ele>243.39999389648</ele>
        <time>2019-09-10T07:08:40Z</time>
      </trkpt>
      <trkpt lat="47.71933" lon="7.31357">
        <ele>243.19999694824</ele>
        <time>2019-09-10T07:08:46Z</time>
      </trkpt>
      <trkpt lat="47.71924" lon="7.31356">
        <ele>243.39999389648</ele>
        <time>2019-09-10T07:08:48Z</time>
      </trkpt>
      <trkpt lat="47.71901" lon="7.31351">
        <ele>243.39999389648</ele>
        <time>2019-09-10T07:08:54Z</time>
      </trkpt>
      <trkpt lat="47.71897" lon="7.3135">
        <ele>243.39999389648</ele>
        <time>2019-09-10T07:08:56Z</time>
      </trkpt>
      <trkpt lat="47.71889" lon="7.31352">
        <ele>244</ele>
        <time>2019-09-10T07:09:00Z</time>
      </trkpt>
      <trkpt lat="47.71883" lon="7.31353">
        <ele>244.39999389648</ele>
        <time>2019-09-10T07:09:02Z</time>
      </trkpt>
      <trkpt lat="47.71874" lon="7.31353">
        <ele>245.19999694824</ele>
        <time>2019-09-10T07:09:05Z</time>
      </trkpt>
      <trkpt lat="47.71868" lon="7.31352">
        <ele>245.39999389648</ele>
        <time>2019-09-10T07:09:07Z</time>
      </trkpt>
      <trkpt lat="47.71849" lon="7.31347">
        <ele>245.60000610352</ele>
        <time>2019-09-10T07:09:12Z</time>
      </trkpt>
      <trkpt lat="47.7181" lon="7.31333">
        <ele>245.60000610352</ele>
        <time>2019-09-10T07:09:21Z</time>
      </trkpt>
      <trkpt lat="47.71803" lon="7.31329">
        <ele>245.60000610352</ele>
        <time>2019-09-10T07:09:23Z</time>
      </trkpt>
      <trkpt lat="47.71796" lon="7.31323">
        <ele>245.60000610352</ele>
        <time>2019-09-10T07:09:25Z</time>
      </trkpt>
      <trkpt lat="47.71787" lon="7.31319">
        <ele>245.60000610352</ele>
        <time>2019-09-10T07:09:27Z</time>
      </trkpt>
      <trkpt lat="47.71773" lon="7.31314">
        <ele>245.60000610352</ele>
        <time>2019-09-10T07:09:30Z</time>
      </trkpt>
      <trkpt lat="47.7175" lon="7.31308">
        <ele>245.39999389648</ele>
        <time>2019-09-10T07:09:35Z</time>
      </trkpt>
      <trkpt lat="47.71719" lon="7.31299">
        <ele>245.39999389648</ele>
        <time>2019-09-10T07:09:41Z</time>
      </trkpt>
      <trkpt lat="47.71713" lon="7.31298">
        <ele>245.39999389648</ele>
        <time>2019-09-10T07:09:42Z</time>
      </trkpt>
      <trkpt lat="47.71673" lon="7.31288">
        <ele>245.39999389648</ele>
        <time>2019-09-10T07:09:50Z</time>
      </trkpt>
      <trkpt lat="47.71632" lon="7.31276">
        <ele>245.39999389648</ele>
        <time>2019-09-10T07:09:58Z</time>
      </trkpt>
      <trkpt lat="47.71588" lon="7.31263">
        <ele>245.39999389648</ele>
        <time>2019-09-10T07:10:07Z</time>
      </trkpt>
      <trkpt lat="47.71539" lon="7.31248">
        <ele>245.39999389648</ele>
        <time>2019-09-10T07:10:17Z</time>
      </trkpt>
      <trkpt lat="47.7149" lon="7.31233">
        <ele>245.39999389648</ele>
        <time>2019-09-10T07:10:27Z</time>
      </trkpt>
      <trkpt lat="47.7144" lon="7.31219">
        <ele>245.80000305176</ele>
        <time>2019-09-10T07:10:37Z</time>
      </trkpt>
      <trkpt lat="47.7139" lon="7.31204">
        <ele>245.80000305176</ele>
        <time>2019-09-10T07:10:47Z</time>
      </trkpt>
      <trkpt lat="47.71361" lon="7.31196">
        <ele>245.80000305176</ele>
        <time>2019-09-10T07:10:53Z</time>
      </trkpt>
      <trkpt lat="47.71316" lon="7.31182">
        <ele>245.60000610352</ele>
        <time>2019-09-10T07:11:02Z</time>
      </trkpt>
      <trkpt lat="47.71266" lon="7.31168">
        <ele>245.80000305176</ele>
        <time>2019-09-10T07:11:12Z</time>
      </trkpt>
      <trkpt lat="47.71217" lon="7.31153">
        <ele>245.80000305176</ele>
        <time>2019-09-10T07:11:22Z</time>
      </trkpt>
      <trkpt lat="47.71173" lon="7.31139">
        <ele>245.80000305176</ele>
        <time>2019-09-10T07:11:31Z</time>
      </trkpt>
      <trkpt lat="47.71133" lon="7.31129">
        <ele>245.80000305176</ele>
        <time>2019-09-10T07:11:39Z</time>
      </trkpt>
      <trkpt lat="47.71092" lon="7.31119">
        <ele>245.80000305176</ele>
        <time>2019-09-10T07:11:48Z</time>
      </trkpt>
      <trkpt lat="47.71085" lon="7.31117">
        <ele>245.80000305176</ele>
        <time>2019-09-10T07:11:50Z</time>
      </trkpt>
      <trkpt lat="47.7107" lon="7.31116">
        <ele>246.19999694824</ele>
        <time>2019-09-10T07:11:54Z</time>
      </trkpt>
      <trkpt lat="47.71068" lon="7.31118">
        <ele>246.19999694824</ele>
        <time>2019-09-10T07:11:55Z</time>
      </trkpt>
      <trkpt lat="47.71065" lon="7.31126">
        <ele>246.60000610352</ele>
        <time>2019-09-10T07:11:57Z</time>
      </trkpt>
      <trkpt lat="47.71066" lon="7.31133">
        <ele>247.19999694824</ele>
        <time>2019-09-10T07:11:59Z</time>
      </trkpt>
      <trkpt lat="47.71068" lon="7.31136">
        <ele>248</ele>
        <time>2019-09-10T07:12:01Z</time>
      </trkpt>
      <trkpt lat="47.71068" lon="7.31136">
        <ele>248.39999389648</ele>
        <time>2019-09-10T07:12:03Z</time>
      </trkpt>
      <trkpt lat="47.71066" lon="7.3114">
        <ele>249.39999389648</ele>
        <time>2019-09-10T07:13:53Z</time>
      </trkpt>
      <trkpt lat="47.71066" lon="7.31141">
        <ele>249.39999389648</ele>
        <time>2019-09-10T07:13:54Z</time>
      </trkpt>
      <trkpt lat="47.71066" lon="7.31143">
        <ele>249.39999389648</ele>
        <time>2019-09-10T07:13:55Z</time>
      </trkpt>
      <trkpt lat="47.71059" lon="7.31152">
        <ele>249.39999389648</ele>
        <time>2019-09-10T07:13:58Z</time>
      </trkpt>
      <trkpt lat="47.71055" lon="7.31152">
        <ele>249.39999389648</ele>
        <time>2019-09-10T07:13:59Z</time>
      </trkpt>
      <trkpt lat="47.71047" lon="7.31146">
        <ele>249.39999389648</ele>
        <time>2019-09-10T07:14:01Z</time>
      </trkpt>
      <trkpt lat="47.71029" lon="7.31138">
        <ele>249.19999694824</ele>
        <time>2019-09-10T07:14:05Z</time>
      </trkpt>
      <trkpt lat="47.71014" lon="7.31136">
        <ele>248.39999389648</ele>
        <time>2019-09-10T07:14:08Z</time>
      </trkpt>
      <trkpt lat="47.70969" lon="7.31125">
        <ele>248.19999694824</ele>
        <time>2019-09-10T07:14:17Z</time>
      </trkpt>
      <trkpt lat="47.70915" lon="7.31109">
        <ele>248.19999694824</ele>
        <time>2019-09-10T07:14:27Z</time>
      </trkpt>
      <trkpt lat="47.70861" lon="7.31094">
        <ele>247.80000305176</ele>
        <time>2019-09-10T07:14:37Z</time>
      </trkpt>
      <trkpt lat="47.70817" lon="7.31082">
        <ele>247.80000305176</ele>
        <time>2019-09-10T07:14:45Z</time>
      </trkpt>
      <trkpt lat="47.70763" lon="7.31067">
        <ele>248</ele>
        <time>2019-09-10T07:14:55Z</time>
      </trkpt>
      <trkpt lat="47.70757" lon="7.31065">
        <ele>248</ele>
        <time>2019-09-10T07:14:56Z</time>
      </trkpt>
      <trkpt lat="47.70707" lon="7.3105">
        <ele>248</ele>
        <time>2019-09-10T07:15:05Z</time>
      </trkpt>
      <trkpt lat="47.70657" lon="7.31037">
        <ele>248</ele>
        <time>2019-09-10T07:15:14Z</time>
      </trkpt>
      <trkpt lat="47.70603" lon="7.31021">
        <ele>248.19999694824</ele>
        <time>2019-09-10T07:15:24Z</time>
      </trkpt>
      <trkpt lat="47.706" lon="7.31019">
        <ele>248.19999694824</ele>
        <time>2019-09-10T07:15:27Z</time>
      </trkpt>
      <trkpt lat="47.70596" lon="7.3102">
        <ele>248.19999694824</ele>
        <time>2019-09-10T07:15:47Z</time>
      </trkpt>
      <trkpt lat="47.70592" lon="7.31018">
        <ele>248.19999694824</ele>
        <time>2019-09-10T07:15:49Z</time>
      </trkpt>
      <trkpt lat="47.70576" lon="7.31009">
        <ele>248.19999694824</ele>
        <time>2019-09-10T07:15:53Z</time>
      </trkpt>
      <trkpt lat="47.70572" lon="7.31006">
        <ele>248.19999694824</ele>
        <time>2019-09-10T07:15:54Z</time>
      </trkpt>
      <trkpt lat="47.70561" lon="7.30992">
        <ele>248.19999694824</ele>
        <time>2019-09-10T07:15:57Z</time>
      </trkpt>
      <trkpt lat="47.70553" lon="7.30981">
        <ele>248.19999694824</ele>
        <time>2019-09-10T07:15:59Z</time>
      </trkpt>
      <trkpt lat="47.7052" lon="7.30926">
        <ele>248</ele>
        <time>2019-09-10T07:16:08Z</time>
      </trkpt>
      <trkpt lat="47.7049" lon="7.30875">
        <ele>248</ele>
        <time>2019-09-10T07:16:16Z</time>
      </trkpt>
      <trkpt lat="47.70465" lon="7.3083">
        <ele>248</ele>
        <time>2019-09-10T07:16:23Z</time>
      </trkpt>
      <trkpt lat="47.70438" lon="7.30784">
        <ele>248</ele>
        <time>2019-09-10T07:16:30Z</time>
      </trkpt>
      <trkpt lat="47.70402" lon="7.30725">
        <ele>248</ele>
        <time>2019-09-10T07:16:39Z</time>
      </trkpt>
      <trkpt lat="47.7037" lon="7.30673">
        <ele>248</ele>
        <time>2019-09-10T07:16:47Z</time>
      </trkpt>
      <trkpt lat="47.70334" lon="7.30614">
        <ele>248</ele>
        <time>2019-09-10T07:16:56Z</time>
      </trkpt>
      <trkpt lat="47.70295" lon="7.30548">
        <ele>248</ele>
        <time>2019-09-10T07:17:06Z</time>
      </trkpt>
      <trkpt lat="47.70291" lon="7.30541">
        <ele>248</ele>
        <time>2019-09-10T07:17:07Z</time>
      </trkpt>
      <trkpt lat="47.70263" lon="7.30495">
        <ele>248</ele>
        <time>2019-09-10T07:17:14Z</time>
      </trkpt>
      <trkpt lat="47.70223" lon="7.30429">
        <ele>248</ele>
        <time>2019-09-10T07:17:24Z</time>
      </trkpt>
      <trkpt lat="47.70219" lon="7.30422">
        <ele>248</ele>
        <time>2019-09-10T07:17:25Z</time>
      </trkpt>
      <trkpt lat="47.70182" lon="7.30362">
        <ele>248</ele>
        <time>2019-09-10T07:17:34Z</time>
      </trkpt>
      <trkpt lat="47.70146" lon="7.30303">
        <ele>248</ele>
        <time>2019-09-10T07:17:43Z</time>
      </trkpt>
      <trkpt lat="47.70141" lon="7.30296">
        <ele>248</ele>
        <time>2019-09-10T07:17:44Z</time>
      </trkpt>
      <trkpt lat="47.70105" lon="7.30236">
        <ele>248</ele>
        <time>2019-09-10T07:17:53Z</time>
      </trkpt>
      <trkpt lat="47.70074" lon="7.30182">
        <ele>248</ele>
        <time>2019-09-10T07:18:01Z</time>
      </trkpt>
      <trkpt lat="47.70038" lon="7.30123">
        <ele>248.19999694824</ele>
        <time>2019-09-10T07:18:10Z</time>
      </trkpt>
      <trkpt lat="47.7" lon="7.30058">
        <ele>248.19999694824</ele>
        <time>2019-09-10T07:18:20Z</time>
      </trkpt>
      <trkpt lat="47.6997" lon="7.30005">
        <ele>248.19999694824</ele>
        <time>2019-09-10T07:18:28Z</time>
      </trkpt>
      <trkpt lat="47.6993" lon="7.29939">
        <ele>248.39999389648</ele>
        <time>2019-09-10T07:18:38Z</time>
      </trkpt>
      <trkpt lat="47.69923" lon="7.29926">
        <ele>248.39999389648</ele>
        <time>2019-09-10T07:18:40Z</time>
      </trkpt>
      <trkpt lat="47.69913" lon="7.29908">
        <ele>248.39999389648</ele>
        <time>2019-09-10T07:18:43Z</time>
      </trkpt>
      <trkpt lat="47.69904" lon="7.29896">
        <ele>248.39999389648</ele>
        <time>2019-09-10T07:18:46Z</time>
      </trkpt>
      <trkpt lat="47.69898" lon="7.29888">
        <ele>248.39999389648</ele>
        <time>2019-09-10T07:18:48Z</time>
      </trkpt>
      <trkpt lat="47.69888" lon="7.29873">
        <ele>248.60000610352</ele>
        <time>2019-09-10T07:18:51Z</time>
      </trkpt>
      <trkpt lat="47.69872" lon="7.29844">
        <ele>248.60000610352</ele>
        <time>2019-09-10T07:18:56Z</time>
      </trkpt>
      <trkpt lat="47.69842" lon="7.29792">
        <ele>248.60000610352</ele>
        <time>2019-09-10T07:19:04Z</time>
      </trkpt>
      <trkpt lat="47.6981" lon="7.29737">
        <ele>248.80000305176</ele>
        <time>2019-09-10T07:19:13Z</time>
      </trkpt>
      <trkpt lat="47.69786" lon="7.29698">
        <ele>249.60000610352</ele>
        <time>2019-09-10T07:19:20Z</time>
      </trkpt>
      <trkpt lat="47.69777" lon="7.29678">
        <ele>249.80000305176</ele>
        <time>2019-09-10T07:19:23Z</time>
      </trkpt>
      <trkpt lat="47.69763" lon="7.29641">
        <ele>249.80000305176</ele>
        <time>2019-09-10T07:19:28Z</time>
      </trkpt>
      <trkpt lat="47.69749" lon="7.29595">
        <ele>249.80000305176</ele>
        <time>2019-09-10T07:19:34Z</time>
      </trkpt>
      <trkpt lat="47.69747" lon="7.29587">
        <ele>249.80000305176</ele>
        <time>2019-09-10T07:19:35Z</time>
      </trkpt>
      <trkpt lat="47.69737" lon="7.2953">
        <ele>249.80000305176</ele>
        <time>2019-09-10T07:19:42Z</time>
      </trkpt>
      <trkpt lat="47.69728" lon="7.29445">
        <ele>249.80000305176</ele>
        <time>2019-09-10T07:19:52Z</time>
      </trkpt>
      <trkpt lat="47.69717" lon="7.29363">
        <ele>249.80000305176</ele>
        <time>2019-09-10T07:20:02Z</time>
      </trkpt>
      <trkpt lat="47.69714" lon="7.29339">
        <ele>249.80000305176</ele>
        <time>2019-09-10T07:20:06Z</time>
      </trkpt>
      <trkpt lat="47.69712" lon="7.29316">
        <ele>249.80000305176</ele>
        <time>2019-09-10T07:20:10Z</time>
      </trkpt>
      <trkpt lat="47.6971" lon="7.2931">
        <ele>249.80000305176</ele>
        <time>2019-09-10T07:20:11Z</time>
      </trkpt>
      <trkpt lat="47.69703" lon="7.29261">
        <ele>249.80000305176</ele>
        <time>2019-09-10T07:20:18Z</time>
      </trkpt>
      <trkpt lat="47.69696" lon="7.29214">
        <ele>249.80000305176</ele>
        <time>2019-09-10T07:20:25Z</time>
      </trkpt>
      <trkpt lat="47.69692" lon="7.29189">
        <ele>249.80000305176</ele>
        <time>2019-09-10T07:20:30Z</time>
      </trkpt>
      <trkpt lat="47.69685" lon="7.2916">
        <ele>249.80000305176</ele>
        <time>2019-09-10T07:20:36Z</time>
      </trkpt>
      <trkpt lat="47.69671" lon="7.29119">
        <ele>249.80000305176</ele>
        <time>2019-09-10T07:20:42Z</time>
      </trkpt>
      <trkpt lat="47.69668" lon="7.29113">
        <ele>249.80000305176</ele>
        <time>2019-09-10T07:20:43Z</time>
      </trkpt>
      <trkpt lat="47.6965" lon="7.29084">
        <ele>249.80000305176</ele>
        <time>2019-09-10T07:20:48Z</time>
      </trkpt>
      <trkpt lat="47.69613" lon="7.29023">
        <ele>249.80000305176</ele>
        <time>2019-09-10T07:20:58Z</time>
      </trkpt>
      <trkpt lat="47.6961" lon="7.29017">
        <ele>249.80000305176</ele>
        <time>2019-09-10T07:20:59Z</time>
      </trkpt>
      <trkpt lat="47.69571" lon="7.28954">
        <ele>249.80000305176</ele>
        <time>2019-09-10T07:21:09Z</time>
      </trkpt>
      <trkpt lat="47.69535" lon="7.28897">
        <ele>250</ele>
        <time>2019-09-10T07:21:18Z</time>
      </trkpt>
      <trkpt lat="47.69503" lon="7.28845">
        <ele>250.39999389648</ele>
        <time>2019-09-10T07:21:26Z</time>
      </trkpt>
      <trkpt lat="47.69471" lon="7.28793">
        <ele>250.19999694824</ele>
        <time>2019-09-10T07:21:34Z</time>
      </trkpt>
      <trkpt lat="47.69433" lon="7.28735">
        <ele>250.39999389648</ele>
        <time>2019-09-10T07:21:43Z</time>
      </trkpt>
      <trkpt lat="47.69423" lon="7.28725">
        <ele>250.39999389648</ele>
        <time>2019-09-10T07:21:45Z</time>
      </trkpt>
      <trkpt lat="47.69407" lon="7.28712">
        <ele>250.39999389648</ele>
        <time>2019-09-10T07:21:48Z</time>
      </trkpt>
      <trkpt lat="47.69363" lon="7.28667">
        <ele>250.19999694824</ele>
        <time>2019-09-10T07:21:57Z</time>
      </trkpt>
      <trkpt lat="47.69321" lon="7.28621">
        <ele>250.39999389648</ele>
        <time>2019-09-10T07:22:06Z</time>
      </trkpt>
      <trkpt lat="47.69304" lon="7.28603">
        <ele>250.39999389648</ele>
        <time>2019-09-10T07:22:10Z</time>
      </trkpt>
      <trkpt lat="47.69301" lon="7.28597">
        <ele>250.39999389648</ele>
        <time>2019-09-10T07:22:11Z</time>
      </trkpt>
      <trkpt lat="47.69297" lon="7.28591">
        <ele>250.39999389648</ele>
        <time>2019-09-10T07:22:12Z</time>
      </trkpt>
      <trkpt lat="47.69287" lon="7.28562">
        <ele>250.39999389648</ele>
        <time>2019-09-10T07:22:16Z</time>
      </trkpt>
      <trkpt lat="47.69281" lon="7.2854">
        <ele>250.80000305176</ele>
        <time>2019-09-10T07:22:19Z</time>
      </trkpt>
      <trkpt lat="47.69275" lon="7.28508">
        <ele>250.80000305176</ele>
        <time>2019-09-10T07:22:23Z</time>
      </trkpt>
      <trkpt lat="47.69267" lon="7.28474">
        <ele>251</ele>
        <time>2019-09-10T07:22:28Z</time>
      </trkpt>
      <trkpt lat="47.69265" lon="7.28468">
        <ele>251</ele>
        <time>2019-09-10T07:22:29Z</time>
      </trkpt>
      <trkpt lat="47.69249" lon="7.28436">
        <ele>251.19999694824</ele>
        <time>2019-09-10T07:22:35Z</time>
      </trkpt>
      <trkpt lat="47.69239" lon="7.28421">
        <ele>251.60000610352</ele>
        <time>2019-09-10T07:22:39Z</time>
      </trkpt>
      <trkpt lat="47.69233" lon="7.28411">
        <ele>251.80000305176</ele>
        <time>2019-09-10T07:22:41Z</time>
      </trkpt>
      <trkpt lat="47.69227" lon="7.28401">
        <ele>252.19999694824</ele>
        <time>2019-09-10T07:22:43Z</time>
      </trkpt>
      <trkpt lat="47.69221" lon="7.28392">
        <ele>252.60000610352</ele>
        <time>2019-09-10T07:22:45Z</time>
      </trkpt>
      <trkpt lat="47.69209" lon="7.28379">
        <ele>252.60000610352</ele>
        <time>2019-09-10T07:22:48Z</time>
      </trkpt>
      <trkpt lat="47.69176" lon="7.28343">
        <ele>252.80000305176</ele>
        <time>2019-09-10T07:22:56Z</time>
      </trkpt>
      <trkpt lat="47.69146" lon="7.28313">
        <ele>252.80000305176</ele>
        <time>2019-09-10T07:23:03Z</time>
      </trkpt>
      <trkpt lat="47.6911" lon="7.2828">
        <ele>252.80000305176</ele>
        <time>2019-09-10T07:23:11Z</time>
      </trkpt>
      <trkpt lat="47.69083" lon="7.28256">
        <ele>253</ele>
        <time>2019-09-10T07:23:17Z</time>
      </trkpt>
      <trkpt lat="47.69036" lon="7.28222">
        <ele>253</ele>
        <time>2019-09-10T07:23:27Z</time>
      </trkpt>
      <trkpt lat="47.69026" lon="7.28215">
        <ele>252.80000305176</ele>
        <time>2019-09-10T07:23:29Z</time>
      </trkpt>
      <trkpt lat="47.69006" lon="7.28204">
        <ele>252.80000305176</ele>
        <time>2019-09-10T07:23:33Z</time>
      </trkpt>
      <trkpt lat="47.68959" lon="7.28177">
        <ele>252.80000305176</ele>
        <time>2019-09-10T07:23:42Z</time>
      </trkpt>
      <trkpt lat="47.68907" lon="7.28146">
        <ele>252.60000610352</ele>
        <time>2019-09-10T07:23:52Z</time>
      </trkpt>
      <trkpt lat="47.68875" lon="7.28127">
        <ele>252.60000610352</ele>
        <time>2019-09-10T07:23:58Z</time>
      </trkpt>
      <trkpt lat="47.68822" lon="7.28094">
        <ele>252.60000610352</ele>
        <time>2019-09-10T07:24:08Z</time>
      </trkpt>
      <trkpt lat="47.68781" lon="7.28064">
        <ele>252.60000610352</ele>
        <time>2019-09-10T07:24:16Z</time>
      </trkpt>
      <trkpt lat="47.68751" lon="7.28037">
        <ele>252.80000305176</ele>
        <time>2019-09-10T07:24:22Z</time>
      </trkpt>
      <trkpt lat="47.68741" lon="7.28027">
        <ele>252.80000305176</ele>
        <time>2019-09-10T07:24:24Z</time>
      </trkpt>
      <trkpt lat="47.68702" lon="7.27987">
        <ele>253.19999694824</ele>
        <time>2019-09-10T07:24:32Z</time>
      </trkpt>
      <trkpt lat="47.68672" lon="7.27948">
        <ele>253.39999389648</ele>
        <time>2019-09-10T07:24:39Z</time>
      </trkpt>
      <trkpt lat="47.6864" lon="7.27902">
        <ele>253.60000610352</ele>
        <time>2019-09-10T07:24:47Z</time>
      </trkpt>
      <trkpt lat="47.68617" lon="7.27868">
        <ele>253.60000610352</ele>
        <time>2019-09-10T07:24:53Z</time>
      </trkpt>
      <trkpt lat="47.68613" lon="7.27863">
        <ele>253.60000610352</ele>
        <time>2019-09-10T07:24:54Z</time>
      </trkpt>
      <trkpt lat="47.68578" lon="7.2781">
        <ele>254</ele>
        <time>2019-09-10T07:25:04Z</time>
      </trkpt>
      <trkpt lat="47.68545" lon="7.27762">
        <ele>254</ele>
        <time>2019-09-10T07:25:13Z</time>
      </trkpt>
      <trkpt lat="47.68513" lon="7.27713">
        <ele>254</ele>
        <time>2019-09-10T07:25:22Z</time>
      </trkpt>
      <trkpt lat="47.68478" lon="7.27657">
        <ele>254.19999694824</ele>
        <time>2019-09-10T07:25:32Z</time>
      </trkpt>
      <trkpt lat="47.68448" lon="7.27612">
        <ele>254.19999694824</ele>
        <time>2019-09-10T07:25:40Z</time>
      </trkpt>
      <trkpt lat="47.68409" lon="7.27551">
        <ele>254.19999694824</ele>
        <time>2019-09-10T07:25:51Z</time>
      </trkpt>
      <trkpt lat="47.68375" lon="7.27495">
        <ele>254.19999694824</ele>
        <time>2019-09-10T07:26:01Z</time>
      </trkpt>
      <trkpt lat="47.68366" lon="7.27478">
        <ele>254.19999694824</ele>
        <time>2019-09-10T07:26:04Z</time>
      </trkpt>
      <trkpt lat="47.68357" lon="7.27461">
        <ele>254.39999389648</ele>
        <time>2019-09-10T07:26:07Z</time>
      </trkpt>
      <trkpt lat="47.68332" lon="7.27424">
        <ele>254.60000610352</ele>
        <time>2019-09-10T07:26:14Z</time>
      </trkpt>
      <trkpt lat="47.68303" lon="7.27383">
        <ele>255</ele>
        <time>2019-09-10T07:26:22Z</time>
      </trkpt>
      <trkpt lat="47.68274" lon="7.2734">
        <ele>255.39999389648</ele>
        <time>2019-09-10T07:26:30Z</time>
      </trkpt>
      <trkpt lat="47.68233" lon="7.2728">
        <ele>255.19999694824</ele>
        <time>2019-09-10T07:26:41Z</time>
      </trkpt>
      <trkpt lat="47.6823" lon="7.27274">
        <ele>255.19999694824</ele>
        <time>2019-09-10T07:26:42Z</time>
      </trkpt>
      <trkpt lat="47.68189" lon="7.27212">
        <ele>255.19999694824</ele>
        <time>2019-09-10T07:26:53Z</time>
      </trkpt>
      <trkpt lat="47.68185" lon="7.27207">
        <ele>255.19999694824</ele>
        <time>2019-09-10T07:26:54Z</time>
      </trkpt>
      <trkpt lat="47.68148" lon="7.2715">
        <ele>255.39999389648</ele>
        <time>2019-09-10T07:27:04Z</time>
      </trkpt>
      <trkpt lat="47.68111" lon="7.27093">
        <ele>255.19999694824</ele>
        <time>2019-09-10T07:27:14Z</time>
      </trkpt>
      <trkpt lat="47.68107" lon="7.27087">
        <ele>255.19999694824</ele>
        <time>2019-09-10T07:27:15Z</time>
      </trkpt>
      <trkpt lat="47.68077" lon="7.27043">
        <ele>255.19999694824</ele>
        <time>2019-09-10T07:27:23Z</time>
      </trkpt>
      <trkpt lat="47.6804" lon="7.26989">
        <ele>255.19999694824</ele>
        <time>2019-09-10T07:27:33Z</time>
      </trkpt>
      <trkpt lat="47.68006" lon="7.26939">
        <ele>255.19999694824</ele>
        <time>2019-09-10T07:27:42Z</time>
      </trkpt>
      <trkpt lat="47.68002" lon="7.26934">
        <ele>255.19999694824</ele>
        <time>2019-09-10T07:27:43Z</time>
      </trkpt>
      <trkpt lat="47.67981" lon="7.269">
        <ele>255</ele>
        <time>2019-09-10T07:27:49Z</time>
      </trkpt>
      <trkpt lat="47.67952" lon="7.26856">
        <ele>255</ele>
        <time>2019-09-10T07:27:57Z</time>
      </trkpt>
      <trkpt lat="47.67921" lon="7.2681">
        <ele>255</ele>
        <time>2019-09-10T07:28:05Z</time>
      </trkpt>
      <trkpt lat="47.67883" lon="7.26752">
        <ele>255</ele>
        <time>2019-09-10T07:28:15Z</time>
      </trkpt>
      <trkpt lat="47.67853" lon="7.26705">
        <ele>255</ele>
        <time>2019-09-10T07:28:23Z</time>
      </trkpt>
      <trkpt lat="47.67812" lon="7.26644">
        <ele>255</ele>
        <time>2019-09-10T07:28:33Z</time>
      </trkpt>
      <trkpt lat="47.6778" lon="7.26594">
        <ele>255</ele>
        <time>2019-09-10T07:28:41Z</time>
      </trkpt>
      <trkpt lat="47.67739" lon="7.26532">
        <ele>255</ele>
        <time>2019-09-10T07:28:51Z</time>
      </trkpt>
      <trkpt lat="47.67705" lon="7.26478">
        <ele>255.19999694824</ele>
        <time>2019-09-10T07:29:00Z</time>
      </trkpt>
      <trkpt lat="47.67663" lon="7.26416">
        <ele>255.39999389648</ele>
        <time>2019-09-10T07:29:10Z</time>
      </trkpt>
      <trkpt lat="47.67659" lon="7.26409">
        <ele>255.39999389648</ele>
        <time>2019-09-10T07:29:11Z</time>
      </trkpt>
      <trkpt lat="47.67622" lon="7.26353">
        <ele>255.19999694824</ele>
        <time>2019-09-10T07:29:20Z</time>
      </trkpt>
      <trkpt lat="47.6758" lon="7.26291">
        <ele>255</ele>
        <time>2019-09-10T07:29:30Z</time>
      </trkpt>
      <trkpt lat="47.67541" lon="7.2623">
        <ele>255</ele>
        <time>2019-09-10T07:29:40Z</time>
      </trkpt>
      <trkpt lat="47.67537" lon="7.26225">
        <ele>255</ele>
        <time>2019-09-10T07:29:41Z</time>
      </trkpt>
      <trkpt lat="47.6753" lon="7.26214">
        <ele>255</ele>
        <time>2019-09-10T07:29:43Z</time>
      </trkpt>
      <trkpt lat="47.67519" lon="7.26192">
        <ele>255</ele>
        <time>2019-09-10T07:29:47Z</time>
      </trkpt>
      <trkpt lat="47.67514" lon="7.26179">
        <ele>255.19999694824</ele>
        <time>2019-09-10T07:29:49Z</time>
      </trkpt>
      <trkpt lat="47.6751" lon="7.26169">
        <ele>255.19999694824</ele>
        <time>2019-09-10T07:29:51Z</time>
      </trkpt>
      <trkpt lat="47.675" lon="7.26154">
        <ele>255.19999694824</ele>
        <time>2019-09-10T07:29:55Z</time>
      </trkpt>
      <trkpt lat="47.6748" lon="7.26129">
        <ele>255.39999389648</ele>
        <time>2019-09-10T07:30:02Z</time>
      </trkpt>
      <trkpt lat="47.6746" lon="7.26105">
        <ele>255.80000305176</ele>
        <time>2019-09-10T07:30:08Z</time>
      </trkpt>
      <trkpt lat="47.67437" lon="7.26078">
        <ele>256.20001220703</ele>
        <time>2019-09-10T07:30:15Z</time>
      </trkpt>
      <trkpt lat="47.67401" lon="7.26037">
        <ele>256.39999389648</ele>
        <time>2019-09-10T07:30:24Z</time>
      </trkpt>
      <trkpt lat="47.67394" lon="7.26028">
        <ele>256.39999389648</ele>
        <time>2019-09-10T07:30:26Z</time>
      </trkpt>
      <trkpt lat="47.67386" lon="7.26011">
        <ele>256.39999389648</ele>
        <time>2019-09-10T07:30:29Z</time>
      </trkpt>
      <trkpt lat="47.67383" lon="7.26">
        <ele>256.60000610352</ele>
        <time>2019-09-10T07:30:31Z</time>
      </trkpt>
      <trkpt lat="47.67378" lon="7.25982">
        <ele>256.79998779297</ele>
        <time>2019-09-10T07:30:34Z</time>
      </trkpt>
      <trkpt lat="47.67363" lon="7.2596">
        <ele>256.79998779297</ele>
        <time>2019-09-10T07:30:38Z</time>
      </trkpt>
      <trkpt lat="47.67359" lon="7.25955">
        <ele>256.79998779297</ele>
        <time>2019-09-10T07:30:39Z</time>
      </trkpt>
      <trkpt lat="47.67334" lon="7.25936">
        <ele>256.60000610352</ele>
        <time>2019-09-10T07:30:44Z</time>
      </trkpt>
      <trkpt lat="47.67309" lon="7.25902">
        <ele>256.20001220703</ele>
        <time>2019-09-10T07:30:50Z</time>
      </trkpt>
      <trkpt lat="47.67275" lon="7.25849">
        <ele>255.80000305176</ele>
        <time>2019-09-10T07:30:59Z</time>
      </trkpt>
      <trkpt lat="47.67242" lon="7.25799">
        <ele>256</ele>
        <time>2019-09-10T07:31:08Z</time>
      </trkpt>
      <trkpt lat="47.67213" lon="7.25755">
        <ele>256</ele>
        <time>2019-09-10T07:31:16Z</time>
      </trkpt>
      <trkpt lat="47.67207" lon="7.25743">
        <ele>256</ele>
        <time>2019-09-10T07:31:18Z</time>
      </trkpt>
      <trkpt lat="47.672" lon="7.2572">
        <ele>255.80000305176</ele>
        <time>2019-09-10T07:31:21Z</time>
      </trkpt>
      <trkpt lat="47.67196" lon="7.25706">
        <ele>255.80000305176</ele>
        <time>2019-09-10T07:31:23Z</time>
      </trkpt>
      <trkpt lat="47.67186" lon="7.25688">
        <ele>255.80000305176</ele>
        <time>2019-09-10T07:31:26Z</time>
      </trkpt>
      <trkpt lat="47.67156" lon="7.25644">
        <ele>255.60000610352</ele>
        <time>2019-09-10T07:31:34Z</time>
      </trkpt>
      <trkpt lat="47.67125" lon="7.25599">
        <ele>256</ele>
        <time>2019-09-10T07:31:43Z</time>
      </trkpt>
      <trkpt lat="47.67114" lon="7.25581">
        <ele>256.39999389648</ele>
        <time>2019-09-10T07:31:47Z</time>
      </trkpt>
      <trkpt lat="47.67098" lon="7.25555">
        <ele>256.39999389648</ele>
        <time>2019-09-10T07:31:53Z</time>
      </trkpt>
      <trkpt lat="47.6709" lon="7.25535">
        <ele>256.39999389648</ele>
        <time>2019-09-10T07:31:57Z</time>
      </trkpt>
      <trkpt lat="47.67084" lon="7.25524">
        <ele>256.39999389648</ele>
        <time>2019-09-10T07:31:59Z</time>
      </trkpt>
      <trkpt lat="47.67057" lon="7.25486">
        <ele>256.60000610352</ele>
        <time>2019-09-10T07:32:07Z</time>
      </trkpt>
      <trkpt lat="47.67023" lon="7.25439">
        <ele>256.60000610352</ele>
        <time>2019-09-10T07:32:16Z</time>
      </trkpt>
      <trkpt lat="47.6699" lon="7.2539">
        <ele>256.60000610352</ele>
        <time>2019-09-10T07:32:25Z</time>
      </trkpt>
      <trkpt lat="47.66953" lon="7.25336">
        <ele>256.60000610352</ele>
        <time>2019-09-10T07:32:35Z</time>
      </trkpt>
      <trkpt lat="47.66925" lon="7.25291">
        <ele>256.60000610352</ele>
        <time>2019-09-10T07:32:43Z</time>
      </trkpt>
      <trkpt lat="47.66892" lon="7.2524">
        <ele>256.60000610352</ele>
        <time>2019-09-10T07:32:52Z</time>
      </trkpt>
      <trkpt lat="47.66866" lon="7.25201">
        <ele>256.60000610352</ele>
        <time>2019-09-10T07:32:59Z</time>
      </trkpt>
      <trkpt lat="47.66833" lon="7.2515">
        <ele>256.60000610352</ele>
        <time>2019-09-10T07:33:08Z</time>
      </trkpt>
      <trkpt lat="47.66799" lon="7.251">
        <ele>256.60000610352</ele>
        <time>2019-09-10T07:33:17Z</time>
      </trkpt>
      <trkpt lat="47.6677" lon="7.25054">
        <ele>256.60000610352</ele>
        <time>2019-09-10T07:33:25Z</time>
      </trkpt>
      <trkpt lat="47.66734" lon="7.24999">
        <ele>256.79998779297</ele>
        <time>2019-09-10T07:33:35Z</time>
      </trkpt>
      <trkpt lat="47.667" lon="7.24951">
        <ele>256.79998779297</ele>
        <time>2019-09-10T07:33:44Z</time>
      </trkpt>
      <trkpt lat="47.66671" lon="7.24906">
        <ele>256.79998779297</ele>
        <time>2019-09-10T07:33:52Z</time>
      </trkpt>
      <trkpt lat="47.66638" lon="7.24856">
        <ele>256.79998779297</ele>
        <time>2019-09-10T07:34:01Z</time>
      </trkpt>
      <trkpt lat="47.66599" lon="7.24795">
        <ele>257.20001220703</ele>
        <time>2019-09-10T07:34:12Z</time>
      </trkpt>
      <trkpt lat="47.6656" lon="7.24734">
        <ele>257.20001220703</ele>
        <time>2019-09-10T07:34:23Z</time>
      </trkpt>
      <trkpt lat="47.66523" lon="7.2468">
        <ele>257.20001220703</ele>
        <time>2019-09-10T07:34:33Z</time>
      </trkpt>
      <trkpt lat="47.66489" lon="7.24623">
        <ele>257.20001220703</ele>
        <time>2019-09-10T07:34:43Z</time>
      </trkpt>
      <trkpt lat="47.66467" lon="7.24583">
        <ele>257.20001220703</ele>
        <time>2019-09-10T07:34:50Z</time>
      </trkpt>
      <trkpt lat="47.66439" lon="7.24529">
        <ele>257.39999389648</ele>
        <time>2019-09-10T07:34:59Z</time>
      </trkpt>
      <trkpt lat="47.66407" lon="7.24469">
        <ele>257.39999389648</ele>
        <time>2019-09-10T07:35:09Z</time>
      </trkpt>
      <trkpt lat="47.66378" lon="7.24415">
        <ele>257.39999389648</ele>
        <time>2019-09-10T07:35:18Z</time>
      </trkpt>
      <trkpt lat="47.66357" lon="7.24382">
        <ele>257.79998779297</ele>
        <time>2019-09-10T07:35:25Z</time>
      </trkpt>
      <trkpt lat="47.66348" lon="7.24368">
        <ele>258</ele>
        <time>2019-09-10T07:35:29Z</time>
      </trkpt>
      <trkpt lat="47.66345" lon="7.24363">
        <ele>258.39999389648</ele>
        <time>2019-09-10T07:35:31Z</time>
      </trkpt>
      <trkpt lat="47.66344" lon="7.24351">
        <ele>259</ele>
        <time>2019-09-10T07:35:34Z</time>
      </trkpt>
      <trkpt lat="47.66343" lon="7.24342">
        <ele>259.39999389648</ele>
        <time>2019-09-10T07:35:36Z</time>
      </trkpt>
      <trkpt lat="47.66335" lon="7.24316">
        <ele>259.39999389648</ele>
        <time>2019-09-10T07:35:41Z</time>
      </trkpt>
      <trkpt lat="47.66332" lon="7.24311">
        <ele>259.39999389648</ele>
        <time>2019-09-10T07:35:42Z</time>
      </trkpt>
      <trkpt lat="47.66324" lon="7.24298">
        <ele>259.39999389648</ele>
        <time>2019-09-10T07:35:45Z</time>
      </trkpt>
      <trkpt lat="47.66315" lon="7.24285">
        <ele>259.39999389648</ele>
        <time>2019-09-10T07:35:48Z</time>
      </trkpt>
      <trkpt lat="47.66301" lon="7.24258">
        <ele>259.20001220703</ele>
        <time>2019-09-10T07:35:53Z</time>
      </trkpt>
      <trkpt lat="47.66284" lon="7.2422">
        <ele>259.20001220703</ele>
        <time>2019-09-10T07:35:59Z</time>
      </trkpt>
      <trkpt lat="47.66269" lon="7.24188">
        <ele>259.39999389648</ele>
        <time>2019-09-10T07:36:04Z</time>
      </trkpt>
      <trkpt lat="47.66263" lon="7.24175">
        <ele>259.39999389648</ele>
        <time>2019-09-10T07:36:06Z</time>
      </trkpt>
      <trkpt lat="47.66236" lon="7.24116">
        <ele>259.20001220703</ele>
        <time>2019-09-10T07:36:15Z</time>
      </trkpt>
      <trkpt lat="47.6621" lon="7.24058">
        <ele>259.20001220703</ele>
        <time>2019-09-10T07:36:24Z</time>
      </trkpt>
      <trkpt lat="47.66183" lon="7.24">
        <ele>259.20001220703</ele>
        <time>2019-09-10T07:36:33Z</time>
      </trkpt>
      <trkpt lat="47.66156" lon="7.23942">
        <ele>259.20001220703</ele>
        <time>2019-09-10T07:36:42Z</time>
      </trkpt>
      <trkpt lat="47.66127" lon="7.23879">
        <ele>259.20001220703</ele>
        <time>2019-09-10T07:36:52Z</time>
      </trkpt>
      <trkpt lat="47.66098" lon="7.23816">
        <ele>259.39999389648</ele>
        <time>2019-09-10T07:37:02Z</time>
      </trkpt>
      <trkpt lat="47.66075" lon="7.23766">
        <ele>259.39999389648</ele>
        <time>2019-09-10T07:37:10Z</time>
      </trkpt>
      <trkpt lat="47.66049" lon="7.23709">
        <ele>259.60000610352</ele>
        <time>2019-09-10T07:37:19Z</time>
      </trkpt>
      <trkpt lat="47.66023" lon="7.23653">
        <ele>259.39999389648</ele>
        <time>2019-09-10T07:37:28Z</time>
      </trkpt>
      <trkpt lat="47.66006" lon="7.23615">
        <ele>259.39999389648</ele>
        <time>2019-09-10T07:37:35Z</time>
      </trkpt>
      <trkpt lat="47.65989" lon="7.23577">
        <ele>259.60000610352</ele>
        <time>2019-09-10T07:37:41Z</time>
      </trkpt>
      <trkpt lat="47.65967" lon="7.23525">
        <ele>259.79998779297</ele>
        <time>2019-09-10T07:37:49Z</time>
      </trkpt>
      <trkpt lat="47.65945" lon="7.23476">
        <ele>259.79998779297</ele>
        <time>2019-09-10T07:37:57Z</time>
      </trkpt>
      <trkpt lat="47.65933" lon="7.23457">
        <ele>260</ele>
        <time>2019-09-10T07:38:02Z</time>
      </trkpt>
      <trkpt lat="47.65926" lon="7.23444">
        <ele>260.39999389648</ele>
        <time>2019-09-10T07:38:06Z</time>
      </trkpt>
      <trkpt lat="47.65921" lon="7.23434">
        <ele>261</ele>
        <time>2019-09-10T07:38:09Z</time>
      </trkpt>
      <trkpt lat="47.6592" lon="7.23427">
        <ele>261.60000610352</ele>
        <time>2019-09-10T07:38:11Z</time>
      </trkpt>
      <trkpt lat="47.65916" lon="7.23411">
        <ele>262.20001220703</ele>
        <time>2019-09-10T07:38:14Z</time>
      </trkpt>
      <trkpt lat="47.65909" lon="7.23387">
        <ele>262.39999389648</ele>
        <time>2019-09-10T07:38:18Z</time>
      </trkpt>
      <trkpt lat="47.65903" lon="7.23378">
        <ele>262.39999389648</ele>
        <time>2019-09-10T07:38:20Z</time>
      </trkpt>
      <trkpt lat="47.65895" lon="7.23364">
        <ele>262.39999389648</ele>
        <time>2019-09-10T07:38:23Z</time>
      </trkpt>
      <trkpt lat="47.65893" lon="7.23359">
        <ele>262.20001220703</ele>
        <time>2019-09-10T07:38:24Z</time>
      </trkpt>
      <trkpt lat="47.65873" lon="7.23319">
        <ele>262</ele>
        <time>2019-09-10T07:38:31Z</time>
      </trkpt>
      <trkpt lat="47.6585" lon="7.23269">
        <ele>262</ele>
        <time>2019-09-10T07:38:39Z</time>
      </trkpt>
      <trkpt lat="47.65848" lon="7.23262">
        <ele>262</ele>
        <time>2019-09-10T07:38:40Z</time>
      </trkpt>
      <trkpt lat="47.65831" lon="7.23224">
        <ele>262</ele>
        <time>2019-09-10T07:38:46Z</time>
      </trkpt>
      <trkpt lat="47.65811" lon="7.23181">
        <ele>262.20001220703</ele>
        <time>2019-09-10T07:38:53Z</time>
      </trkpt>
      <trkpt lat="47.65794" lon="7.23144">
        <ele>262.39999389648</ele>
        <time>2019-09-10T07:38:59Z</time>
      </trkpt>
      <trkpt lat="47.65789" lon="7.23131">
        <ele>262.39999389648</ele>
        <time>2019-09-10T07:39:01Z</time>
      </trkpt>
      <trkpt lat="47.65773" lon="7.23082">
        <ele>262.60000610352</ele>
        <time>2019-09-10T07:39:08Z</time>
      </trkpt>
      <trkpt lat="47.65766" lon="7.2303">
        <ele>262.60000610352</ele>
        <time>2019-09-10T07:39:15Z</time>
      </trkpt>
      <trkpt lat="47.65763" lon="7.22952">
        <ele>262.60000610352</ele>
        <time>2019-09-10T07:39:25Z</time>
      </trkpt>
      <trkpt lat="47.6576" lon="7.22883">
        <ele>262.39999389648</ele>
        <time>2019-09-10T07:39:34Z</time>
      </trkpt>
      <trkpt lat="47.65758" lon="7.22815">
        <ele>262.39999389648</ele>
        <time>2019-09-10T07:39:43Z</time>
      </trkpt>
      <trkpt lat="47.65758" lon="7.22754">
        <ele>262.39999389648</ele>
        <time>2019-09-10T07:39:51Z</time>
      </trkpt>
      <trkpt lat="47.65756" lon="7.22669">
        <ele>262.60000610352</ele>
        <time>2019-09-10T07:40:02Z</time>
      </trkpt>
      <trkpt lat="47.65754" lon="7.22585">
        <ele>262.60000610352</ele>
        <time>2019-09-10T07:40:13Z</time>
      </trkpt>
      <trkpt lat="47.65753" lon="7.22539">
        <ele>262.79998779297</ele>
        <time>2019-09-10T07:40:20Z</time>
      </trkpt>
      <trkpt lat="47.65755" lon="7.22512">
        <ele>263.20001220703</ele>
        <time>2019-09-10T07:40:25Z</time>
      </trkpt>
      <trkpt lat="47.65755" lon="7.22506">
        <ele>263.39999389648</ele>
        <time>2019-09-10T07:40:26Z</time>
      </trkpt>
      <trkpt lat="47.65756" lon="7.225">
        <ele>263.79998779297</ele>
        <time>2019-09-10T07:40:27Z</time>
      </trkpt>
      <trkpt lat="47.65755" lon="7.22488">
        <ele>264.60000610352</ele>
        <time>2019-09-10T07:40:29Z</time>
      </trkpt>
      <trkpt lat="47.65755" lon="7.22482">
        <ele>264.79998779297</ele>
        <time>2019-09-10T07:40:30Z</time>
      </trkpt>
      <trkpt lat="47.65752" lon="7.22463">
        <ele>265</ele>
        <time>2019-09-10T07:40:33Z</time>
      </trkpt>
      <trkpt lat="47.65747" lon="7.2241">
        <ele>265.20001220703</ele>
        <time>2019-09-10T07:40:41Z</time>
      </trkpt>
      <trkpt lat="47.65745" lon="7.22337">
        <ele>265.39999389648</ele>
        <time>2019-09-10T07:40:51Z</time>
      </trkpt>
      <trkpt lat="47.65744" lon="7.2227">
        <ele>265.60000610352</ele>
        <time>2019-09-10T07:41:00Z</time>
      </trkpt>
      <trkpt lat="47.65745" lon="7.22255">
        <ele>265.60000610352</ele>
        <time>2019-09-10T07:41:02Z</time>
      </trkpt>
      <trkpt lat="47.65749" lon="7.22196">
        <ele>265.79998779297</ele>
        <time>2019-09-10T07:41:10Z</time>
      </trkpt>
      <trkpt lat="47.65751" lon="7.22182">
        <ele>265.79998779297</ele>
        <time>2019-09-10T07:41:12Z</time>
      </trkpt>
      <trkpt lat="47.65751" lon="7.22168">
        <ele>265.79998779297</ele>
        <time>2019-09-10T07:41:14Z</time>
      </trkpt>
      <trkpt lat="47.65751" lon="7.22112">
        <ele>265.39999389648</ele>
        <time>2019-09-10T07:41:22Z</time>
      </trkpt>
      <trkpt lat="47.65757" lon="7.22037">
        <ele>265.39999389648</ele>
        <time>2019-09-10T07:41:32Z</time>
      </trkpt>
      <trkpt lat="47.65762" lon="7.21973">
        <ele>265.39999389648</ele>
        <time>2019-09-10T07:41:40Z</time>
      </trkpt>
      <trkpt lat="47.65768" lon="7.21907">
        <ele>265.20001220703</ele>
        <time>2019-09-10T07:41:48Z</time>
      </trkpt>
      <trkpt lat="47.65774" lon="7.21844">
        <ele>265.20001220703</ele>
        <time>2019-09-10T07:41:56Z</time>
      </trkpt>
      <trkpt lat="47.65781" lon="7.21782">
        <ele>265.20001220703</ele>
        <time>2019-09-10T07:42:04Z</time>
      </trkpt>
      <trkpt lat="47.65795" lon="7.21717">
        <ele>265.39999389648</ele>
        <time>2019-09-10T07:42:13Z</time>
      </trkpt>
      <trkpt lat="47.65813" lon="7.21655">
        <ele>265.39999389648</ele>
        <time>2019-09-10T07:42:22Z</time>
      </trkpt>
      <trkpt lat="47.6583" lon="7.21607">
        <ele>265.39999389648</ele>
        <time>2019-09-10T07:42:29Z</time>
      </trkpt>
      <trkpt lat="47.65856" lon="7.21537">
        <ele>265.39999389648</ele>
        <time>2019-09-10T07:42:39Z</time>
      </trkpt>
      <trkpt lat="47.65859" lon="7.2153">
        <ele>265.39999389648</ele>
        <time>2019-09-10T07:42:40Z</time>
      </trkpt>
      <trkpt lat="47.65886" lon="7.21454">
        <ele>265.39999389648</ele>
        <time>2019-09-10T07:42:51Z</time>
      </trkpt>
      <trkpt lat="47.65908" lon="7.21394">
        <ele>265.39999389648</ele>
        <time>2019-09-10T07:43:00Z</time>
      </trkpt>
      <trkpt lat="47.6593" lon="7.21336">
        <ele>265.39999389648</ele>
        <time>2019-09-10T07:43:09Z</time>
      </trkpt>
      <trkpt lat="47.65948" lon="7.21282">
        <ele>265.39999389648</ele>
        <time>2019-09-10T07:43:17Z</time>
      </trkpt>
      <trkpt lat="47.6597" lon="7.21224">
        <ele>265.39999389648</ele>
        <time>2019-09-10T07:43:26Z</time>
      </trkpt>
      <trkpt lat="47.6599" lon="7.21173">
        <ele>265.60000610352</ele>
        <time>2019-09-10T07:43:34Z</time>
      </trkpt>
      <trkpt lat="47.65998" lon="7.2115">
        <ele>265.60000610352</ele>
        <time>2019-09-10T07:43:39Z</time>
      </trkpt>
      <trkpt lat="47.65998" lon="7.2115">
        <ele>265.60000610352</ele>
        <time>2019-09-10T07:43:41Z</time>
      </trkpt>
      <trkpt lat="47.65999" lon="7.21147">
        <ele>265.60000610352</ele>
        <time>2019-09-10T07:44:06Z</time>
      </trkpt>
      <trkpt lat="47.65999" lon="7.21147">
        <ele>265.60000610352</ele>
        <time>2019-09-10T07:44:07Z</time>
      </trkpt>
      <trkpt lat="47.65999" lon="7.21147">
        <ele>265.60000610352</ele>
        <time>2019-09-10T07:44:08Z</time>
      </trkpt>
      <trkpt lat="47.66" lon="7.21142">
        <ele>265.39999389648</ele>
        <time>2019-09-10T07:45:35Z</time>
      </trkpt>
      <trkpt lat="47.66003" lon="7.21135">
        <ele>265.39999389648</ele>
        <time>2019-09-10T07:45:37Z</time>
      </trkpt>
      <trkpt lat="47.66015" lon="7.21102">
        <ele>265.20001220703</ele>
        <time>2019-09-10T07:45:44Z</time>
      </trkpt>
      <trkpt lat="47.66023" lon="7.21083">
        <ele>265</ele>
        <time>2019-09-10T07:45:49Z</time>
      </trkpt>
      <trkpt lat="47.66023" lon="7.21082">
        <ele>265</ele>
        <time>2019-09-10T07:45:50Z</time>
      </trkpt>
      <trkpt lat="47.66024" lon="7.21078">
        <ele>265.20001220703</ele>
        <time>2019-09-10T07:46:07Z</time>
      </trkpt>
      <trkpt lat="47.66026" lon="7.21072">
        <ele>265.20001220703</ele>
        <time>2019-09-10T07:46:09Z</time>
      </trkpt>
      <trkpt lat="47.66037" lon="7.21045">
        <ele>265.20001220703</ele>
        <time>2019-09-10T07:46:15Z</time>
      </trkpt>
      <trkpt lat="47.66052" lon="7.21001">
        <ele>265.20001220703</ele>
        <time>2019-09-10T07:46:23Z</time>
      </trkpt>
      <trkpt lat="47.66054" lon="7.20999">
        <ele>265</ele>
        <time>2019-09-10T07:46:26Z</time>
      </trkpt>
      <trkpt lat="47.66054" lon="7.20997">
        <ele>264.79998779297</ele>
        <time>2019-09-10T07:46:47Z</time>
      </trkpt>
      <trkpt lat="47.66057" lon="7.20988">
        <ele>264.79998779297</ele>
        <time>2019-09-10T07:46:50Z</time>
      </trkpt>
      <trkpt lat="47.66067" lon="7.20962">
        <ele>264.79998779297</ele>
        <time>2019-09-10T07:46:56Z</time>
      </trkpt>
      <trkpt lat="47.66081" lon="7.20923">
        <ele>264.79998779297</ele>
        <time>2019-09-10T07:47:03Z</time>
      </trkpt>
      <trkpt lat="47.66086" lon="7.2091">
        <ele>264.79998779297</ele>
        <time>2019-09-10T07:47:05Z</time>
      </trkpt>
      <trkpt lat="47.66104" lon="7.20859">
        <ele>264.79998779297</ele>
        <time>2019-09-10T07:47:13Z</time>
      </trkpt>
      <trkpt lat="47.66124" lon="7.20806">
        <ele>264.79998779297</ele>
        <time>2019-09-10T07:47:21Z</time>
      </trkpt>
      <trkpt lat="47.6615" lon="7.2074">
        <ele>264.79998779297</ele>
        <time>2019-09-10T07:47:31Z</time>
      </trkpt>
      <trkpt lat="47.6617" lon="7.20687">
        <ele>265</ele>
        <time>2019-09-10T07:47:39Z</time>
      </trkpt>
      <trkpt lat="47.6619" lon="7.20632">
        <ele>264.79998779297</ele>
        <time>2019-09-10T07:47:48Z</time>
      </trkpt>
      <trkpt lat="47.66199" lon="7.20603">
        <ele>265</ele>
        <time>2019-09-10T07:47:55Z</time>
      </trkpt>
      <trkpt lat="47.66207" lon="7.20582">
        <ele>266</ele>
        <time>2019-09-10T07:48:01Z</time>
      </trkpt>
      <trkpt lat="47.6621" lon="7.20575">
        <ele>266.60000610352</ele>
        <time>2019-09-10T07:48:03Z</time>
      </trkpt>
      <trkpt lat="47.66218" lon="7.20564">
        <ele>267.39999389648</ele>
        <time>2019-09-10T07:48:06Z</time>
      </trkpt>
      <trkpt lat="47.66221" lon="7.20559">
        <ele>267.39999389648</ele>
        <time>2019-09-10T07:48:07Z</time>
      </trkpt>
      <trkpt lat="47.66227" lon="7.20536">
        <ele>267.60000610352</ele>
        <time>2019-09-10T07:48:11Z</time>
      </trkpt>
      <trkpt lat="47.6623" lon="7.20525">
        <ele>267.60000610352</ele>
        <time>2019-09-10T07:48:13Z</time>
      </trkpt>
      <trkpt lat="47.66242" lon="7.20491">
        <ele>267.60000610352</ele>
        <time>2019-09-10T07:48:19Z</time>
      </trkpt>
      <trkpt lat="47.66254" lon="7.20457">
        <ele>267.60000610352</ele>
        <time>2019-09-10T07:48:25Z</time>
      </trkpt>
      <trkpt lat="47.66258" lon="7.20445">
        <ele>267.60000610352</ele>
        <time>2019-09-10T07:48:27Z</time>
      </trkpt>
      <trkpt lat="47.66281" lon="7.20382">
        <ele>267.60000610352</ele>
        <time>2019-09-10T07:48:37Z</time>
      </trkpt>
      <trkpt lat="47.66304" lon="7.20323">
        <ele>267.60000610352</ele>
        <time>2019-09-10T07:48:46Z</time>
      </trkpt>
      <trkpt lat="47.66323" lon="7.20271">
        <ele>267.60000610352</ele>
        <time>2019-09-10T07:48:54Z</time>
      </trkpt>
      <trkpt lat="47.66347" lon="7.20205">
        <ele>267.79998779297</ele>
        <time>2019-09-10T07:49:04Z</time>
      </trkpt>
      <trkpt lat="47.66367" lon="7.20147">
        <ele>268</ele>
        <time>2019-09-10T07:49:13Z</time>
      </trkpt>
      <trkpt lat="47.66385" lon="7.20098">
        <ele>268</ele>
        <time>2019-09-10T07:49:21Z</time>
      </trkpt>
      <trkpt lat="47.66398" lon="7.20051">
        <ele>267.79998779297</ele>
        <time>2019-09-10T07:49:28Z</time>
      </trkpt>
      <trkpt lat="47.66417" lon="7.1999">
        <ele>267.60000610352</ele>
        <time>2019-09-10T07:49:37Z</time>
      </trkpt>
      <trkpt lat="47.6644" lon="7.19914">
        <ele>267.39999389648</ele>
        <time>2019-09-10T07:49:48Z</time>
      </trkpt>
      <trkpt lat="47.6646" lon="7.19844">
        <ele>267.60000610352</ele>
        <time>2019-09-10T07:49:58Z</time>
      </trkpt>
      <trkpt lat="47.66476" lon="7.1979">
        <ele>267.60000610352</ele>
        <time>2019-09-10T07:50:06Z</time>
      </trkpt>
      <trkpt lat="47.66494" lon="7.19735">
        <ele>267.79998779297</ele>
        <time>2019-09-10T07:50:15Z</time>
      </trkpt>
      <trkpt lat="47.66503" lon="7.19697">
        <ele>268.20001220703</ele>
        <time>2019-09-10T07:50:22Z</time>
      </trkpt>
      <trkpt lat="47.66507" lon="7.1968">
        <ele>268.39999389648</ele>
        <time>2019-09-10T07:50:26Z</time>
      </trkpt>
      <trkpt lat="47.66509" lon="7.19672">
        <ele>268.79998779297</ele>
        <time>2019-09-10T07:50:28Z</time>
      </trkpt>
      <trkpt lat="47.66516" lon="7.19652">
        <ele>269.79998779297</ele>
        <time>2019-09-10T07:50:33Z</time>
      </trkpt>
      <trkpt lat="47.66518" lon="7.19647">
        <ele>270</ele>
        <time>2019-09-10T07:50:34Z</time>
      </trkpt>
      <trkpt lat="47.66526" lon="7.1961">
        <ele>270.20001220703</ele>
        <time>2019-09-10T07:50:40Z</time>
      </trkpt>
      <trkpt lat="47.66526" lon="7.19604">
        <ele>270.20001220703</ele>
        <time>2019-09-10T07:50:41Z</time>
      </trkpt>
      <trkpt lat="47.66528" lon="7.19584">
        <ele>270.20001220703</ele>
        <time>2019-09-10T07:50:44Z</time>
      </trkpt>
      <trkpt lat="47.66532" lon="7.19558">
        <ele>270</ele>
        <time>2019-09-10T07:50:48Z</time>
      </trkpt>
      <trkpt lat="47.66539" lon="7.19508">
        <ele>270</ele>
        <time>2019-09-10T07:50:55Z</time>
      </trkpt>
      <trkpt lat="47.66551" lon="7.19427">
        <ele>270</ele>
        <time>2019-09-10T07:51:06Z</time>
      </trkpt>
      <trkpt lat="47.66553" lon="7.19413">
        <ele>270</ele>
        <time>2019-09-10T07:51:08Z</time>
      </trkpt>
      <trkpt lat="47.6656" lon="7.19354">
        <ele>270</ele>
        <time>2019-09-10T07:51:16Z</time>
      </trkpt>
      <trkpt lat="47.66571" lon="7.19273">
        <ele>270.20001220703</ele>
        <time>2019-09-10T07:51:27Z</time>
      </trkpt>
      <trkpt lat="47.66579" lon="7.19212">
        <ele>270.20001220703</ele>
        <time>2019-09-10T07:51:35Z</time>
      </trkpt>
      <trkpt lat="47.66586" lon="7.19135">
        <ele>270.20001220703</ele>
        <time>2019-09-10T07:51:45Z</time>
      </trkpt>
      <trkpt lat="47.6659" lon="7.19066">
        <ele>270</ele>
        <time>2019-09-10T07:51:54Z</time>
      </trkpt>
      <trkpt lat="47.66594" lon="7.18997">
        <ele>269.79998779297</ele>
        <time>2019-09-10T07:52:03Z</time>
      </trkpt>
      <trkpt lat="47.66598" lon="7.18928">
        <ele>269.79998779297</ele>
        <time>2019-09-10T07:52:12Z</time>
      </trkpt>
      <trkpt lat="47.66603" lon="7.18843">
        <ele>270</ele>
        <time>2019-09-10T07:52:23Z</time>
      </trkpt>
      <trkpt lat="47.66603" lon="7.18827">
        <ele>270</ele>
        <time>2019-09-10T07:52:25Z</time>
      </trkpt>
      <trkpt lat="47.66607" lon="7.18757">
        <ele>270</ele>
        <time>2019-09-10T07:52:34Z</time>
      </trkpt>
      <trkpt lat="47.6661" lon="7.18687">
        <ele>270</ele>
        <time>2019-09-10T07:52:43Z</time>
      </trkpt>
      <trkpt lat="47.66614" lon="7.18619">
        <ele>270</ele>
        <time>2019-09-10T07:52:52Z</time>
      </trkpt>
      <trkpt lat="47.66618" lon="7.18534">
        <ele>270</ele>
        <time>2019-09-10T07:53:03Z</time>
      </trkpt>
      <trkpt lat="47.66619" lon="7.18511">
        <ele>270</ele>
        <time>2019-09-10T07:53:06Z</time>
      </trkpt>
      <trkpt lat="47.66622" lon="7.18425">
        <ele>270.20001220703</ele>
        <time>2019-09-10T07:53:17Z</time>
      </trkpt>
      <trkpt lat="47.66622" lon="7.18371">
        <ele>270.39999389648</ele>
        <time>2019-09-10T07:53:24Z</time>
      </trkpt>
      <trkpt lat="47.66619" lon="7.18311">
        <ele>270.20001220703</ele>
        <time>2019-09-10T07:53:32Z</time>
      </trkpt>
      <trkpt lat="47.66615" lon="7.18263">
        <ele>270.20001220703</ele>
        <time>2019-09-10T07:53:39Z</time>
      </trkpt>
      <trkpt lat="47.66612" lon="7.18233">
        <ele>270.60000610352</ele>
        <time>2019-09-10T07:53:46Z</time>
      </trkpt>
      <trkpt lat="47.66611" lon="7.1823">
        <ele>270.79998779297</ele>
        <time>2019-09-10T07:53:47Z</time>
      </trkpt>
      <trkpt lat="47.6661" lon="7.18211">
        <ele>272</ele>
        <time>2019-09-10T07:53:52Z</time>
      </trkpt>
      <trkpt lat="47.6661" lon="7.18202">
        <ele>272.39999389648</ele>
        <time>2019-09-10T07:53:54Z</time>
      </trkpt>
      <trkpt lat="47.66608" lon="7.1817">
        <ele>272.79998779297</ele>
        <time>2019-09-10T07:53:59Z</time>
      </trkpt>
      <trkpt lat="47.66609" lon="7.18159">
        <ele>272.79998779297</ele>
        <time>2019-09-10T07:54:02Z</time>
      </trkpt>
      <trkpt lat="47.66607" lon="7.18165">
        <ele>272.39999389648</ele>
        <time>2019-09-10T07:54:05Z</time>
      </trkpt>
      <trkpt lat="47.66607" lon="7.18168">
        <ele>272.39999389648</ele>
        <time>2019-09-10T07:54:06Z</time>
      </trkpt>
      <trkpt lat="47.66607" lon="7.18179">
        <ele>272.20001220703</ele>
        <time>2019-09-10T07:54:11Z</time>
      </trkpt>
      <trkpt lat="47.66607" lon="7.18179">
        <ele>272.20001220703</ele>
        <time>2019-09-10T07:54:12Z</time>
      </trkpt>
      <trkpt lat="47.66608" lon="7.18175">
        <ele>272</ele>
        <time>2019-09-10T07:57:13Z</time>
      </trkpt>
      <trkpt lat="47.66607" lon="7.18169">
        <ele>272</ele>
        <time>2019-09-10T07:57:15Z</time>
      </trkpt>
      <trkpt lat="47.66603" lon="7.18147">
        <ele>271.79998779297</ele>
        <time>2019-09-10T07:57:20Z</time>
      </trkpt>
      <trkpt lat="47.66597" lon="7.18117">
        <ele>272</ele>
        <time>2019-09-10T07:57:27Z</time>
      </trkpt>
      <trkpt lat="47.66589" lon="7.18076">
        <ele>272.20001220703</ele>
        <time>2019-09-10T07:57:34Z</time>
      </trkpt>
      <trkpt lat="47.66576" lon="7.18012">
        <ele>272</ele>
        <time>2019-09-10T07:57:44Z</time>
      </trkpt>
      <trkpt lat="47.66563" lon="7.17954">
        <ele>272</ele>
        <time>2019-09-10T07:57:53Z</time>
      </trkpt>
      <trkpt lat="47.66546" lon="7.17891">
        <ele>272</ele>
        <time>2019-09-10T07:58:03Z</time>
      </trkpt>
      <trkpt lat="47.6654" lon="7.17867">
        <ele>272</ele>
        <time>2019-09-10T07:58:07Z</time>
      </trkpt>
      <trkpt lat="47.66536" lon="7.17855">
        <ele>272</ele>
        <time>2019-09-10T07:58:09Z</time>
      </trkpt>
      <trkpt lat="47.66519" lon="7.17806">
        <ele>271.79998779297</ele>
        <time>2019-09-10T07:58:17Z</time>
      </trkpt>
      <trkpt lat="47.66495" lon="7.17746">
        <ele>271.79998779297</ele>
        <time>2019-09-10T07:58:27Z</time>
      </trkpt>
      <trkpt lat="47.66466" lon="7.17679">
        <ele>271.79998779297</ele>
        <time>2019-09-10T07:58:38Z</time>
      </trkpt>
      <trkpt lat="47.66438" lon="7.17623">
        <ele>271.79998779297</ele>
        <time>2019-09-10T07:58:47Z</time>
      </trkpt>
      <trkpt lat="47.66407" lon="7.1757">
        <ele>272</ele>
        <time>2019-09-10T07:58:56Z</time>
      </trkpt>
      <trkpt lat="47.6638" lon="7.17524">
        <ele>272</ele>
        <time>2019-09-10T07:59:04Z</time>
      </trkpt>
      <trkpt lat="47.66349" lon="7.17476">
        <ele>272</ele>
        <time>2019-09-10T07:59:13Z</time>
      </trkpt>
      <trkpt lat="47.66334" lon="7.17451">
        <ele>272.20001220703</ele>
        <time>2019-09-10T07:59:19Z</time>
      </trkpt>
      <trkpt lat="47.66329" lon="7.17442">
        <ele>272.60000610352</ele>
        <time>2019-09-10T07:59:21Z</time>
      </trkpt>
      <trkpt lat="47.66315" lon="7.17422">
        <ele>273.39999389648</ele>
        <time>2019-09-10T07:59:26Z</time>
      </trkpt>
      <trkpt lat="47.66304" lon="7.17408">
        <ele>273.60000610352</ele>
        <time>2019-09-10T07:59:30Z</time>
      </trkpt>
      <trkpt lat="47.66296" lon="7.17396">
        <ele>273.79998779297</ele>
        <time>2019-09-10T07:59:33Z</time>
      </trkpt>
      <trkpt lat="47.66267" lon="7.17356">
        <ele>274.60000610352</ele>
        <time>2019-09-10T07:59:42Z</time>
      </trkpt>
      <trkpt lat="47.6626" lon="7.17346">
        <ele>274.60000610352</ele>
        <time>2019-09-10T07:59:44Z</time>
      </trkpt>
      <trkpt lat="47.66221" lon="7.17291">
        <ele>274.60000610352</ele>
        <time>2019-09-10T07:59:55Z</time>
      </trkpt>
      <trkpt lat="47.66182" lon="7.17234">
        <ele>274.60000610352</ele>
        <time>2019-09-10T08:00:06Z</time>
      </trkpt>
      <trkpt lat="47.66142" lon="7.17176">
        <ele>274.39999389648</ele>
        <time>2019-09-10T08:00:17Z</time>
      </trkpt>
      <trkpt lat="47.66123" lon="7.17149">
        <ele>274.39999389648</ele>
        <time>2019-09-10T08:00:22Z</time>
      </trkpt>
      <trkpt lat="47.66116" lon="7.17138">
        <ele>274.39999389648</ele>
        <time>2019-09-10T08:00:24Z</time>
      </trkpt>
      <trkpt lat="47.66086" lon="7.17095">
        <ele>274.39999389648</ele>
        <time>2019-09-10T08:00:32Z</time>
      </trkpt>
      <trkpt lat="47.66051" lon="7.17041">
        <ele>274.60000610352</ele>
        <time>2019-09-10T08:00:42Z</time>
      </trkpt>
      <trkpt lat="47.66011" lon="7.16981">
        <ele>274.20001220703</ele>
        <time>2019-09-10T08:00:53Z</time>
      </trkpt>
      <trkpt lat="47.65972" lon="7.16922">
        <ele>274.20001220703</ele>
        <time>2019-09-10T08:01:04Z</time>
      </trkpt>
      <trkpt lat="47.65968" lon="7.16916">
        <ele>274.39999389648</ele>
        <time>2019-09-10T08:01:05Z</time>
      </trkpt>
      <trkpt lat="47.65928" lon="7.16857">
        <ele>274.39999389648</ele>
        <time>2019-09-10T08:01:16Z</time>
      </trkpt>
      <trkpt lat="47.65925" lon="7.16851">
        <ele>274.39999389648</ele>
        <time>2019-09-10T08:01:17Z</time>
      </trkpt>
      <trkpt lat="47.65887" lon="7.16799">
        <ele>274.20001220703</ele>
        <time>2019-09-10T08:01:27Z</time>
      </trkpt>
      <trkpt lat="47.65859" lon="7.16757">
        <ele>274.20001220703</ele>
        <time>2019-09-10T08:01:35Z</time>
      </trkpt>
      <trkpt lat="47.65833" lon="7.16716">
        <ele>274.39999389648</ele>
        <time>2019-09-10T08:01:43Z</time>
      </trkpt>
      <trkpt lat="47.65817" lon="7.16691">
        <ele>274.60000610352</ele>
        <time>2019-09-10T08:01:48Z</time>
      </trkpt>
      <trkpt lat="47.65809" lon="7.16676">
        <ele>274.60000610352</ele>
        <time>2019-09-10T08:01:51Z</time>
      </trkpt>
      <trkpt lat="47.65798" lon="7.16661">
        <ele>274.60000610352</ele>
        <time>2019-09-10T08:01:54Z</time>
      </trkpt>
      <trkpt lat="47.65774" lon="7.16624">
        <ele>274.60000610352</ele>
        <time>2019-09-10T08:02:01Z</time>
      </trkpt>
      <trkpt lat="47.65753" lon="7.16589">
        <ele>274.60000610352</ele>
        <time>2019-09-10T08:02:07Z</time>
      </trkpt>
      <trkpt lat="47.65726" lon="7.16551">
        <ele>274.79998779297</ele>
        <time>2019-09-10T08:02:14Z</time>
      </trkpt>
      <trkpt lat="47.65693" lon="7.16503">
        <ele>274.79998779297</ele>
        <time>2019-09-10T08:02:23Z</time>
      </trkpt>
      <trkpt lat="47.65666" lon="7.16467">
        <ele>274.60000610352</ele>
        <time>2019-09-10T08:02:30Z</time>
      </trkpt>
      <trkpt lat="47.65643" lon="7.16437">
        <ele>274.79998779297</ele>
        <time>2019-09-10T08:02:36Z</time>
      </trkpt>
      <trkpt lat="47.65604" lon="7.16386">
        <ele>274.79998779297</ele>
        <time>2019-09-10T08:02:46Z</time>
      </trkpt>
      <trkpt lat="47.65569" lon="7.16339">
        <ele>274.60000610352</ele>
        <time>2019-09-10T08:02:55Z</time>
      </trkpt>
      <trkpt lat="47.65529" lon="7.16287">
        <ele>274.60000610352</ele>
        <time>2019-09-10T08:03:05Z</time>
      </trkpt>
      <trkpt lat="47.65491" lon="7.16235">
        <ele>274.39999389648</ele>
        <time>2019-09-10T08:03:15Z</time>
      </trkpt>
      <trkpt lat="47.65475" lon="7.16214">
        <ele>274.39999389648</ele>
        <time>2019-09-10T08:03:20Z</time>
      </trkpt>
      <trkpt lat="47.65455" lon="7.16186">
        <ele>274.39999389648</ele>
        <time>2019-09-10T08:03:26Z</time>
      </trkpt>
      <trkpt lat="47.6543" lon="7.16151">
        <ele>274</ele>
        <time>2019-09-10T08:03:33Z</time>
      </trkpt>
      <trkpt lat="47.65412" lon="7.16125">
        <ele>274</ele>
        <time>2019-09-10T08:03:38Z</time>
      </trkpt>
      <trkpt lat="47.65388" lon="7.16089">
        <ele>274.20001220703</ele>
        <time>2019-09-10T08:03:44Z</time>
      </trkpt>
      <trkpt lat="47.65382" lon="7.16076">
        <ele>274.20001220703</ele>
        <time>2019-09-10T08:03:46Z</time>
      </trkpt>
      <trkpt lat="47.65363" lon="7.16031">
        <ele>274.20001220703</ele>
        <time>2019-09-10T08:03:53Z</time>
      </trkpt>
      <trkpt lat="47.65361" lon="7.16025">
        <ele>274.20001220703</ele>
        <time>2019-09-10T08:03:54Z</time>
      </trkpt>
      <trkpt lat="47.65352" lon="7.15999">
        <ele>274.20001220703</ele>
        <time>2019-09-10T08:03:59Z</time>
      </trkpt>
      <trkpt lat="47.65345" lon="7.15973">
        <ele>275</ele>
        <time>2019-09-10T08:04:04Z</time>
      </trkpt>
      <trkpt lat="47.65342" lon="7.15961">
        <ele>275.60000610352</ele>
        <time>2019-09-10T08:04:06Z</time>
      </trkpt>
      <trkpt lat="47.65339" lon="7.15943">
        <ele>276</ele>
        <time>2019-09-10T08:04:09Z</time>
      </trkpt>
      <trkpt lat="47.65336" lon="7.15919">
        <ele>276.60000610352</ele>
        <time>2019-09-10T08:04:13Z</time>
      </trkpt>
      <trkpt lat="47.65325" lon="7.1587">
        <ele>276.60000610352</ele>
        <time>2019-09-10T08:04:21Z</time>
      </trkpt>
      <trkpt lat="47.65315" lon="7.15823">
        <ele>276.79998779297</ele>
        <time>2019-09-10T08:04:28Z</time>
      </trkpt>
      <trkpt lat="47.65313" lon="7.15809">
        <ele>277</ele>
        <time>2019-09-10T08:04:30Z</time>
      </trkpt>
      <trkpt lat="47.65299" lon="7.1574">
        <ele>277.20001220703</ele>
        <time>2019-09-10T08:04:40Z</time>
      </trkpt>
      <trkpt lat="47.65288" lon="7.15683">
        <ele>277.20001220703</ele>
        <time>2019-09-10T08:04:48Z</time>
      </trkpt>
      <trkpt lat="47.65275" lon="7.15618">
        <ele>277.20001220703</ele>
        <time>2019-09-10T08:04:57Z</time>
      </trkpt>
      <trkpt lat="47.65263" lon="7.15552">
        <ele>277</ele>
        <time>2019-09-10T08:05:06Z</time>
      </trkpt>
      <trkpt lat="47.65251" lon="7.15486">
        <ele>276.60000610352</ele>
        <time>2019-09-10T08:05:15Z</time>
      </trkpt>
      <trkpt lat="47.65237" lon="7.15413">
        <ele>276.79998779297</ele>
        <time>2019-09-10T08:05:25Z</time>
      </trkpt>
      <trkpt lat="47.65226" lon="7.15355">
        <ele>277</ele>
        <time>2019-09-10T08:05:33Z</time>
      </trkpt>
      <trkpt lat="47.65211" lon="7.15281">
        <ele>277.20001220703</ele>
        <time>2019-09-10T08:05:43Z</time>
      </trkpt>
      <trkpt lat="47.65199" lon="7.15216">
        <ele>277.20001220703</ele>
        <time>2019-09-10T08:05:52Z</time>
      </trkpt>
      <trkpt lat="47.65185" lon="7.15143">
        <ele>277.39999389648</ele>
        <time>2019-09-10T08:06:02Z</time>
      </trkpt>
      <trkpt lat="47.65175" lon="7.15094">
        <ele>277.60000610352</ele>
        <time>2019-09-10T08:06:09Z</time>
      </trkpt>
      <trkpt lat="47.65161" lon="7.15024">
        <ele>277.60000610352</ele>
        <time>2019-09-10T08:06:19Z</time>
      </trkpt>
      <trkpt lat="47.65151" lon="7.14969">
        <ele>277.79998779297</ele>
        <time>2019-09-10T08:06:27Z</time>
      </trkpt>
      <trkpt lat="47.65145" lon="7.14936">
        <ele>277.79998779297</ele>
        <time>2019-09-10T08:06:33Z</time>
      </trkpt>
      <trkpt lat="47.65142" lon="7.14921">
        <ele>277.79998779297</ele>
        <time>2019-09-10T08:06:38Z</time>
      </trkpt>
      <trkpt lat="47.65143" lon="7.14918">
        <ele>277.79998779297</ele>
        <time>2019-09-10T08:06:39Z</time>
      </trkpt>
      <trkpt lat="47.65142" lon="7.14913">
        <ele>277.79998779297</ele>
        <time>2019-09-10T08:06:41Z</time>
      </trkpt>
      <trkpt lat="47.6514" lon="7.14905">
        <ele>278</ele>
        <time>2019-09-10T08:06:43Z</time>
      </trkpt>
      <trkpt lat="47.65134" lon="7.14869">
        <ele>278.20001220703</ele>
        <time>2019-09-10T08:06:50Z</time>
      </trkpt>
      <trkpt lat="47.65125" lon="7.14823">
        <ele>278.20001220703</ele>
        <time>2019-09-10T08:06:58Z</time>
      </trkpt>
      <trkpt lat="47.65118" lon="7.14777">
        <ele>278.39999389648</ele>
        <time>2019-09-10T08:07:06Z</time>
      </trkpt>
      <trkpt lat="47.65112" lon="7.14739">
        <ele>279</ele>
        <time>2019-09-10T08:07:13Z</time>
      </trkpt>
      <trkpt lat="47.65101" lon="7.14688">
        <ele>280</ele>
        <time>2019-09-10T08:07:22Z</time>
      </trkpt>
      <trkpt lat="47.65091" lon="7.14637">
        <ele>280.60000610352</ele>
        <time>2019-09-10T08:07:30Z</time>
      </trkpt>
      <trkpt lat="47.65079" lon="7.14573">
        <ele>280.60000610352</ele>
        <time>2019-09-10T08:07:39Z</time>
      </trkpt>
      <trkpt lat="47.65069" lon="7.14523">
        <ele>280.60000610352</ele>
        <time>2019-09-10T08:07:46Z</time>
      </trkpt>
      <trkpt lat="47.65054" lon="7.14449">
        <ele>280.60000610352</ele>
        <time>2019-09-10T08:07:56Z</time>
      </trkpt>
      <trkpt lat="47.65042" lon="7.14383">
        <ele>280.60000610352</ele>
        <time>2019-09-10T08:08:05Z</time>
      </trkpt>
      <trkpt lat="47.65028" lon="7.14317">
        <ele>280.60000610352</ele>
        <time>2019-09-10T08:08:14Z</time>
      </trkpt>
      <trkpt lat="47.65018" lon="7.14259">
        <ele>280.79998779297</ele>
        <time>2019-09-10T08:08:22Z</time>
      </trkpt>
      <trkpt lat="47.65006" lon="7.14193">
        <ele>280.79998779297</ele>
        <time>2019-09-10T08:08:31Z</time>
      </trkpt>
      <trkpt lat="47.64996" lon="7.14143">
        <ele>281</ele>
        <time>2019-09-10T08:08:38Z</time>
      </trkpt>
      <trkpt lat="47.6499" lon="7.14111">
        <ele>281.20001220703</ele>
        <time>2019-09-10T08:08:44Z</time>
      </trkpt>
      <trkpt lat="47.64985" lon="7.14076">
        <ele>282</ele>
        <time>2019-09-10T08:08:50Z</time>
      </trkpt>
      <trkpt lat="47.64984" lon="7.1407">
        <ele>282.20001220703</ele>
        <time>2019-09-10T08:08:51Z</time>
      </trkpt>
      <trkpt lat="47.64982" lon="7.14064">
        <ele>282.20001220703</ele>
        <time>2019-09-10T08:08:52Z</time>
      </trkpt>
      <trkpt lat="47.64971" lon="7.14007">
        <ele>283</ele>
        <time>2019-09-10T08:09:01Z</time>
      </trkpt>
      <trkpt lat="47.64969" lon="7.13994">
        <ele>283.20001220703</ele>
        <time>2019-09-10T08:09:03Z</time>
      </trkpt>
      <trkpt lat="47.6496" lon="7.13952">
        <ele>283.39999389648</ele>
        <time>2019-09-10T08:09:09Z</time>
      </trkpt>
      <trkpt lat="47.64948" lon="7.13885">
        <ele>283.39999389648</ele>
        <time>2019-09-10T08:09:18Z</time>
      </trkpt>
      <trkpt lat="47.64935" lon="7.13819">
        <ele>283.39999389648</ele>
        <time>2019-09-10T08:09:27Z</time>
      </trkpt>
      <trkpt lat="47.64921" lon="7.13744">
        <ele>283.39999389648</ele>
        <time>2019-09-10T08:09:37Z</time>
      </trkpt>
      <trkpt lat="47.64907" lon="7.1367">
        <ele>283.60000610352</ele>
        <time>2019-09-10T08:09:47Z</time>
      </trkpt>
      <trkpt lat="47.64894" lon="7.13602">
        <ele>283.60000610352</ele>
        <time>2019-09-10T08:09:56Z</time>
      </trkpt>
      <trkpt lat="47.64885" lon="7.13552">
        <ele>283.39999389648</ele>
        <time>2019-09-10T08:10:03Z</time>
      </trkpt>
      <trkpt lat="47.6488" lon="7.13524">
        <ele>283.39999389648</ele>
        <time>2019-09-10T08:10:09Z</time>
      </trkpt>
      <trkpt lat="47.64876" lon="7.13501">
        <ele>284.20001220703</ele>
        <time>2019-09-10T08:10:14Z</time>
      </trkpt>
      <trkpt lat="47.64872" lon="7.13479">
        <ele>285.20001220703</ele>
        <time>2019-09-10T08:10:18Z</time>
      </trkpt>
      <trkpt lat="47.6487" lon="7.13474">
        <ele>285.39999389648</ele>
        <time>2019-09-10T08:10:19Z</time>
      </trkpt>
      <trkpt lat="47.64862" lon="7.13441">
        <ele>285.79998779297</ele>
        <time>2019-09-10T08:10:25Z</time>
      </trkpt>
      <trkpt lat="47.64853" lon="7.13391">
        <ele>286.20001220703</ele>
        <time>2019-09-10T08:10:33Z</time>
      </trkpt>
      <trkpt lat="47.64842" lon="7.13337">
        <ele>286.39999389648</ele>
        <time>2019-09-10T08:10:41Z</time>
      </trkpt>
      <trkpt lat="47.64833" lon="7.13285">
        <ele>286.39999389648</ele>
        <time>2019-09-10T08:10:48Z</time>
      </trkpt>
      <trkpt lat="47.64822" lon="7.13225">
        <ele>286.20001220703</ele>
        <time>2019-09-10T08:10:56Z</time>
      </trkpt>
      <trkpt lat="47.64809" lon="7.13159">
        <ele>286.20001220703</ele>
        <time>2019-09-10T08:11:05Z</time>
      </trkpt>
      <trkpt lat="47.64794" lon="7.13085">
        <ele>286.20001220703</ele>
        <time>2019-09-10T08:11:15Z</time>
      </trkpt>
      <trkpt lat="47.64775" lon="7.1303">
        <ele>286.20001220703</ele>
        <time>2019-09-10T08:11:23Z</time>
      </trkpt>
      <trkpt lat="47.64751" lon="7.12971">
        <ele>286.39999389648</ele>
        <time>2019-09-10T08:11:32Z</time>
      </trkpt>
      <trkpt lat="47.64721" lon="7.12917">
        <ele>286.20001220703</ele>
        <time>2019-09-10T08:11:41Z</time>
      </trkpt>
      <trkpt lat="47.64684" lon="7.12867">
        <ele>286.20001220703</ele>
        <time>2019-09-10T08:11:51Z</time>
      </trkpt>
      <trkpt lat="47.64654" lon="7.12831">
        <ele>286.20001220703</ele>
        <time>2019-09-10T08:11:59Z</time>
      </trkpt>
      <trkpt lat="47.64632" lon="7.12808">
        <ele>286.39999389648</ele>
        <time>2019-09-10T08:12:06Z</time>
      </trkpt>
      <trkpt lat="47.64624" lon="7.128">
        <ele>286.39999389648</ele>
        <time>2019-09-10T08:12:09Z</time>
      </trkpt>
      <trkpt lat="47.6462" lon="7.12796">
        <ele>286.39999389648</ele>
        <time>2019-09-10T08:12:11Z</time>
      </trkpt>
      <trkpt lat="47.64607" lon="7.12782">
        <ele>287.60000610352</ele>
        <time>2019-09-10T08:12:18Z</time>
      </trkpt>
      <trkpt lat="47.64606" lon="7.1278">
        <ele>287.79998779297</ele>
        <time>2019-09-10T08:12:19Z</time>
      </trkpt>
      <trkpt lat="47.64599" lon="7.12771">
        <ele>288.60000610352</ele>
        <time>2019-09-10T08:12:23Z</time>
      </trkpt>
      <trkpt lat="47.64595" lon="7.12763">
        <ele>289</ele>
        <time>2019-09-10T08:12:25Z</time>
      </trkpt>
      <trkpt lat="47.64576" lon="7.12737">
        <ele>289.20001220703</ele>
        <time>2019-09-10T08:12:31Z</time>
      </trkpt>
      <trkpt lat="47.6456" lon="7.12722">
        <ele>289.20001220703</ele>
        <time>2019-09-10T08:12:36Z</time>
      </trkpt>
      <trkpt lat="47.64527" lon="7.12685">
        <ele>289</ele>
        <time>2019-09-10T08:12:46Z</time>
      </trkpt>
      <trkpt lat="47.64495" lon="7.12649">
        <ele>289</ele>
        <time>2019-09-10T08:12:55Z</time>
      </trkpt>
      <trkpt lat="47.64465" lon="7.12614">
        <ele>288.79998779297</ele>
        <time>2019-09-10T08:13:03Z</time>
      </trkpt>
      <trkpt lat="47.64425" lon="7.12569">
        <ele>288.79998779297</ele>
        <time>2019-09-10T08:13:13Z</time>
      </trkpt>
      <trkpt lat="47.64389" lon="7.12526">
        <ele>288.79998779297</ele>
        <time>2019-09-10T08:13:22Z</time>
      </trkpt>
      <trkpt lat="47.64352" lon="7.12483">
        <ele>288.60000610352</ele>
        <time>2019-09-10T08:13:31Z</time>
      </trkpt>
      <trkpt lat="47.64312" lon="7.12435">
        <ele>288.60000610352</ele>
        <time>2019-09-10T08:13:41Z</time>
      </trkpt>
      <trkpt lat="47.64279" lon="7.12398">
        <ele>288.60000610352</ele>
        <time>2019-09-10T08:13:49Z</time>
      </trkpt>
      <trkpt lat="47.64246" lon="7.12361">
        <ele>288.60000610352</ele>
        <time>2019-09-10T08:13:57Z</time>
      </trkpt>
      <trkpt lat="47.64206" lon="7.12313">
        <ele>288.60000610352</ele>
        <time>2019-09-10T08:14:07Z</time>
      </trkpt>
      <trkpt lat="47.6419" lon="7.12294">
        <ele>288.60000610352</ele>
        <time>2019-09-10T08:14:11Z</time>
      </trkpt>
      <trkpt lat="47.64177" lon="7.1228">
        <ele>288.39999389648</ele>
        <time>2019-09-10T08:14:14Z</time>
      </trkpt>
      <trkpt lat="47.64144" lon="7.12243">
        <ele>288.39999389648</ele>
        <time>2019-09-10T08:14:22Z</time>
      </trkpt>
      <trkpt lat="47.64134" lon="7.12234">
        <ele>288.60000610352</ele>
        <time>2019-09-10T08:14:26Z</time>
      </trkpt>
      <trkpt lat="47.64124" lon="7.12223">
        <ele>289.60000610352</ele>
        <time>2019-09-10T08:14:32Z</time>
      </trkpt>
      <trkpt lat="47.64122" lon="7.12221">
        <ele>290</ele>
        <time>2019-09-10T08:14:33Z</time>
      </trkpt>
      <trkpt lat="47.64119" lon="7.12216">
        <ele>290.39999389648</ele>
        <time>2019-09-10T08:14:35Z</time>
      </trkpt>
      <trkpt lat="47.64114" lon="7.12207">
        <ele>291</ele>
        <time>2019-09-10T08:14:38Z</time>
      </trkpt>
      <trkpt lat="47.64106" lon="7.12193">
        <ele>291.39999389648</ele>
        <time>2019-09-10T08:14:41Z</time>
      </trkpt>
      <trkpt lat="47.64099" lon="7.12183">
        <ele>291.60000610352</ele>
        <time>2019-09-10T08:14:43Z</time>
      </trkpt>
      <trkpt lat="47.64091" lon="7.12174">
        <ele>291.79998779297</ele>
        <time>2019-09-10T08:14:45Z</time>
      </trkpt>
      <trkpt lat="47.64087" lon="7.12171">
        <ele>291.79998779297</ele>
        <time>2019-09-10T08:14:46Z</time>
      </trkpt>
      <trkpt lat="47.64068" lon="7.12152">
        <ele>292</ele>
        <time>2019-09-10T08:14:52Z</time>
      </trkpt>
      <trkpt lat="47.64041" lon="7.12122">
        <ele>292</ele>
        <time>2019-09-10T08:15:00Z</time>
      </trkpt>
      <trkpt lat="47.64003" lon="7.12077">
        <ele>292</ele>
        <time>2019-09-10T08:15:10Z</time>
      </trkpt>
      <trkpt lat="47.63968" lon="7.12036">
        <ele>292</ele>
        <time>2019-09-10T08:15:19Z</time>
      </trkpt>
      <trkpt lat="47.63931" lon="7.11994">
        <ele>292</ele>
        <time>2019-09-10T08:15:28Z</time>
      </trkpt>
      <trkpt lat="47.63906" lon="7.11966">
        <ele>291.79998779297</ele>
        <time>2019-09-10T08:15:34Z</time>
      </trkpt>
      <trkpt lat="47.63873" lon="7.11927">
        <ele>291.60000610352</ele>
        <time>2019-09-10T08:15:42Z</time>
      </trkpt>
      <trkpt lat="47.63833" lon="7.1188">
        <ele>291.79998779297</ele>
        <time>2019-09-10T08:15:52Z</time>
      </trkpt>
      <trkpt lat="47.63788" lon="7.11829">
        <ele>291.79998779297</ele>
        <time>2019-09-10T08:16:03Z</time>
      </trkpt>
      <trkpt lat="47.63761" lon="7.11795">
        <ele>292</ele>
        <time>2019-09-10T08:16:10Z</time>
      </trkpt>
      <trkpt lat="47.63751" lon="7.11784">
        <ele>292</ele>
        <time>2019-09-10T08:16:13Z</time>
      </trkpt>
      <trkpt lat="47.63735" lon="7.11764">
        <ele>292.20001220703</ele>
        <time>2019-09-10T08:16:19Z</time>
      </trkpt>
      <trkpt lat="47.63721" lon="7.11743">
        <ele>293.20001220703</ele>
        <time>2019-09-10T08:16:25Z</time>
      </trkpt>
      <trkpt lat="47.63718" lon="7.1174">
        <ele>293.39999389648</ele>
        <time>2019-09-10T08:16:26Z</time>
      </trkpt>
      <trkpt lat="47.63705" lon="7.11727">
        <ele>294</ele>
        <time>2019-09-10T08:16:30Z</time>
      </trkpt>
      <trkpt lat="47.63671" lon="7.1169">
        <ele>294.20001220703</ele>
        <time>2019-09-10T08:16:39Z</time>
      </trkpt>
      <trkpt lat="47.63642" lon="7.11658">
        <ele>294.20001220703</ele>
        <time>2019-09-10T08:16:47Z</time>
      </trkpt>
      <trkpt lat="47.63616" lon="7.11627">
        <ele>294.20001220703</ele>
        <time>2019-09-10T08:16:55Z</time>
      </trkpt>
      <trkpt lat="47.63585" lon="7.11592">
        <ele>294.20001220703</ele>
        <time>2019-09-10T08:17:04Z</time>
      </trkpt>
      <trkpt lat="47.63566" lon="7.11569">
        <ele>294.20001220703</ele>
        <time>2019-09-10T08:17:11Z</time>
      </trkpt>
      <trkpt lat="47.63559" lon="7.1154">
        <ele>294.20001220703</ele>
        <time>2019-09-10T08:17:18Z</time>
      </trkpt>
      <trkpt lat="47.63558" lon="7.11505">
        <ele>294.20001220703</ele>
        <time>2019-09-10T08:17:25Z</time>
      </trkpt>
      <trkpt lat="47.63559" lon="7.11465">
        <ele>294.60000610352</ele>
        <time>2019-09-10T08:17:32Z</time>
      </trkpt>
      <trkpt lat="47.63559" lon="7.11441">
        <ele>294.60000610352</ele>
        <time>2019-09-10T08:17:36Z</time>
      </trkpt>
      <trkpt lat="47.63562" lon="7.11412">
        <ele>294.79998779297</ele>
        <time>2019-09-10T08:17:41Z</time>
      </trkpt>
      <trkpt lat="47.63563" lon="7.11406">
        <ele>294.79998779297</ele>
        <time>2019-09-10T08:17:42Z</time>
      </trkpt>
      <trkpt lat="47.63566" lon="7.11366">
        <ele>294.79998779297</ele>
        <time>2019-09-10T08:17:48Z</time>
      </trkpt>
      <trkpt lat="47.63567" lon="7.11353">
        <ele>294.60000610352</ele>
        <time>2019-09-10T08:17:50Z</time>
      </trkpt>
      <trkpt lat="47.63566" lon="7.11335">
        <ele>294.20001220703</ele>
        <time>2019-09-10T08:17:53Z</time>
      </trkpt>
      <trkpt lat="47.63563" lon="7.11301">
        <ele>294.20001220703</ele>
        <time>2019-09-10T08:17:59Z</time>
      </trkpt>
      <trkpt lat="47.63563" lon="7.11295">
        <ele>294.20001220703</ele>
        <time>2019-09-10T08:18:00Z</time>
      </trkpt>
      <trkpt lat="47.63565" lon="7.1126">
        <ele>294.20001220703</ele>
        <time>2019-09-10T08:18:06Z</time>
      </trkpt>
      <trkpt lat="47.63567" lon="7.1124">
        <ele>294.39999389648</ele>
        <time>2019-09-10T08:18:12Z</time>
      </trkpt>
      <trkpt lat="47.63571" lon="7.11223">
        <ele>295.39999389648</ele>
        <time>2019-09-10T08:18:17Z</time>
      </trkpt>
      <trkpt lat="47.63571" lon="7.11215">
        <ele>296</ele>
        <time>2019-09-10T08:18:19Z</time>
      </trkpt>
      <trkpt lat="47.63571" lon="7.11196">
        <ele>296.39999389648</ele>
        <time>2019-09-10T08:18:23Z</time>
      </trkpt>
      <trkpt lat="47.63567" lon="7.11174">
        <ele>296.60000610352</ele>
        <time>2019-09-10T08:18:28Z</time>
      </trkpt>
      <trkpt lat="47.63566" lon="7.11145">
        <ele>296.60000610352</ele>
        <time>2019-09-10T08:18:34Z</time>
      </trkpt>
      <trkpt lat="47.63566" lon="7.11091">
        <ele>296.60000610352</ele>
        <time>2019-09-10T08:18:43Z</time>
      </trkpt>
      <trkpt lat="47.63566" lon="7.11043">
        <ele>296.60000610352</ele>
        <time>2019-09-10T08:18:50Z</time>
      </trkpt>
      <trkpt lat="47.63564" lon="7.10978">
        <ele>296.60000610352</ele>
        <time>2019-09-10T08:18:59Z</time>
      </trkpt>
      <trkpt lat="47.63558" lon="7.10919">
        <ele>296.60000610352</ele>
        <time>2019-09-10T08:19:07Z</time>
      </trkpt>
      <trkpt lat="47.63545" lon="7.10862">
        <ele>296.79998779297</ele>
        <time>2019-09-10T08:19:15Z</time>
      </trkpt>
      <trkpt lat="47.63523" lon="7.10812">
        <ele>296.79998779297</ele>
        <time>2019-09-10T08:19:23Z</time>
      </trkpt>
      <trkpt lat="47.63501" lon="7.10771">
        <ele>297</ele>
        <time>2019-09-10T08:19:30Z</time>
      </trkpt>
      <trkpt lat="47.63498" lon="7.10765">
        <ele>297</ele>
        <time>2019-09-10T08:19:31Z</time>
      </trkpt>
      <trkpt lat="47.63468" lon="7.10715">
        <ele>297</ele>
        <time>2019-09-10T08:19:40Z</time>
      </trkpt>
      <trkpt lat="47.63465" lon="7.10709">
        <ele>297.20001220703</ele>
        <time>2019-09-10T08:19:41Z</time>
      </trkpt>
      <trkpt lat="47.6346" lon="7.10692">
        <ele>297</ele>
        <time>2019-09-10T08:19:44Z</time>
      </trkpt>
      <trkpt lat="47.63458" lon="7.10688">
        <ele>297</ele>
        <time>2019-09-10T08:19:45Z</time>
      </trkpt>
      <trkpt lat="47.63452" lon="7.10679">
        <ele>297</ele>
        <time>2019-09-10T08:19:48Z</time>
      </trkpt>
      <trkpt lat="47.63432" lon="7.10651">
        <ele>297.39999389648</ele>
        <time>2019-09-10T08:19:56Z</time>
      </trkpt>
      <trkpt lat="47.63418" lon="7.10635">
        <ele>298.20001220703</ele>
        <time>2019-09-10T08:20:01Z</time>
      </trkpt>
      <trkpt lat="47.63416" lon="7.10631">
        <ele>298.39999389648</ele>
        <time>2019-09-10T08:20:02Z</time>
      </trkpt>
      <trkpt lat="47.63395" lon="7.10597">
        <ele>299.20001220703</ele>
        <time>2019-09-10T08:20:09Z</time>
      </trkpt>
      <trkpt lat="47.63368" lon="7.10554">
        <ele>299.20001220703</ele>
        <time>2019-09-10T08:20:17Z</time>
      </trkpt>
      <trkpt lat="47.63337" lon="7.10502">
        <ele>299.20001220703</ele>
        <time>2019-09-10T08:20:26Z</time>
      </trkpt>
      <trkpt lat="47.63314" lon="7.10462">
        <ele>299.20001220703</ele>
        <time>2019-09-10T08:20:33Z</time>
      </trkpt>
      <trkpt lat="47.63295" lon="7.10425">
        <ele>299.39999389648</ele>
        <time>2019-09-10T08:20:39Z</time>
      </trkpt>
      <trkpt lat="47.63267" lon="7.1036">
        <ele>299.60000610352</ele>
        <time>2019-09-10T08:20:49Z</time>
      </trkpt>
      <trkpt lat="47.63246" lon="7.10307">
        <ele>299.60000610352</ele>
        <time>2019-09-10T08:20:57Z</time>
      </trkpt>
      <trkpt lat="47.63244" lon="7.10301">
        <ele>299.60000610352</ele>
        <time>2019-09-10T08:20:58Z</time>
      </trkpt>
      <trkpt lat="47.63239" lon="7.10283">
        <ele>299.60000610352</ele>
        <time>2019-09-10T08:21:01Z</time>
      </trkpt>
      <trkpt lat="47.63237" lon="7.10269">
        <ele>299.79998779297</ele>
        <time>2019-09-10T08:21:03Z</time>
      </trkpt>
      <trkpt lat="47.63234" lon="7.10256">
        <ele>299.79998779297</ele>
        <time>2019-09-10T08:21:05Z</time>
      </trkpt>
      <trkpt lat="47.63225" lon="7.10231">
        <ele>300.79998779297</ele>
        <time>2019-09-10T08:21:09Z</time>
      </trkpt>
      <trkpt lat="47.6322" lon="7.1022">
        <ele>301.20001220703</ele>
        <time>2019-09-10T08:21:11Z</time>
      </trkpt>
      <trkpt lat="47.63206" lon="7.10174">
        <ele>301.39999389648</ele>
        <time>2019-09-10T08:21:18Z</time>
      </trkpt>
      <trkpt lat="47.63197" lon="7.10129">
        <ele>301.79998779297</ele>
        <time>2019-09-10T08:21:24Z</time>
      </trkpt>
      <trkpt lat="47.63195" lon="7.10122">
        <ele>302</ele>
        <time>2019-09-10T08:21:25Z</time>
      </trkpt>
      <trkpt lat="47.63187" lon="7.10052">
        <ele>302.20001220703</ele>
        <time>2019-09-10T08:21:34Z</time>
      </trkpt>
      <trkpt lat="47.63183" lon="7.09981">
        <ele>302.39999389648</ele>
        <time>2019-09-10T08:21:43Z</time>
      </trkpt>
      <trkpt lat="47.63184" lon="7.09932">
        <ele>302.60000610352</ele>
        <time>2019-09-10T08:21:49Z</time>
      </trkpt>
      <trkpt lat="47.6319" lon="7.09869">
        <ele>302.60000610352</ele>
        <time>2019-09-10T08:21:57Z</time>
      </trkpt>
      <trkpt lat="47.63203" lon="7.09814">
        <ele>302.60000610352</ele>
        <time>2019-09-10T08:22:04Z</time>
      </trkpt>
      <trkpt lat="47.63225" lon="7.09756">
        <ele>302.39999389648</ele>
        <time>2019-09-10T08:22:12Z</time>
      </trkpt>
      <trkpt lat="47.63257" lon="7.09686">
        <ele>302.39999389648</ele>
        <time>2019-09-10T08:22:22Z</time>
      </trkpt>
      <trkpt lat="47.6328" lon="7.09636">
        <ele>302.39999389648</ele>
        <time>2019-09-10T08:22:29Z</time>
      </trkpt>
      <trkpt lat="47.63308" lon="7.09569">
        <ele>302.39999389648</ele>
        <time>2019-09-10T08:22:38Z</time>
      </trkpt>
      <trkpt lat="47.63335" lon="7.09511">
        <ele>302.20001220703</ele>
        <time>2019-09-10T08:22:46Z</time>
      </trkpt>
      <trkpt lat="47.6337" lon="7.09439">
        <ele>302.20001220703</ele>
        <time>2019-09-10T08:22:56Z</time>
      </trkpt>
      <trkpt lat="47.63397" lon="7.0938">
        <ele>302.20001220703</ele>
        <time>2019-09-10T08:23:04Z</time>
      </trkpt>
      <trkpt lat="47.63421" lon="7.0933">
        <ele>302.39999389648</ele>
        <time>2019-09-10T08:23:11Z</time>
      </trkpt>
      <trkpt lat="47.63445" lon="7.09269">
        <ele>302.39999389648</ele>
        <time>2019-09-10T08:23:19Z</time>
      </trkpt>
      <trkpt lat="47.63466" lon="7.09199">
        <ele>302.39999389648</ele>
        <time>2019-09-10T08:23:28Z</time>
      </trkpt>
      <trkpt lat="47.63475" lon="7.09171">
        <ele>302.39999389648</ele>
        <time>2019-09-10T08:23:32Z</time>
      </trkpt>
      <trkpt lat="47.63481" lon="7.09159">
        <ele>302.39999389648</ele>
        <time>2019-09-10T08:23:34Z</time>
      </trkpt>
      <trkpt lat="47.63487" lon="7.09147">
        <ele>302.39999389648</ele>
        <time>2019-09-10T08:23:36Z</time>
      </trkpt>
      <trkpt lat="47.63489" lon="7.09141">
        <ele>302.39999389648</ele>
        <time>2019-09-10T08:23:37Z</time>
      </trkpt>
      <trkpt lat="47.63492" lon="7.09129">
        <ele>302.60000610352</ele>
        <time>2019-09-10T08:23:39Z</time>
      </trkpt>
      <trkpt lat="47.63497" lon="7.09101">
        <ele>302.79998779297</ele>
        <time>2019-09-10T08:23:44Z</time>
      </trkpt>
      <trkpt lat="47.63497" lon="7.0909">
        <ele>302.79998779297</ele>
        <time>2019-09-10T08:23:46Z</time>
      </trkpt>
      <trkpt lat="47.63501" lon="7.09063">
        <ele>303.79998779297</ele>
        <time>2019-09-10T08:23:51Z</time>
      </trkpt>
      <trkpt lat="47.63502" lon="7.09058">
        <ele>304</ele>
        <time>2019-09-10T08:23:52Z</time>
      </trkpt>
      <trkpt lat="47.6351" lon="7.09018">
        <ele>304.79998779297</ele>
        <time>2019-09-10T08:23:58Z</time>
      </trkpt>
      <trkpt lat="47.63512" lon="7.09011">
        <ele>304.79998779297</ele>
        <time>2019-09-10T08:23:59Z</time>
      </trkpt>
      <trkpt lat="47.6353" lon="7.0894">
        <ele>305</ele>
        <time>2019-09-10T08:24:09Z</time>
      </trkpt>
      <trkpt lat="47.63542" lon="7.08874">
        <ele>305</ele>
        <time>2019-09-10T08:24:18Z</time>
      </trkpt>
      <trkpt lat="47.63547" lon="7.08843">
        <ele>305</ele>
        <time>2019-09-10T08:24:22Z</time>
      </trkpt>
      <trkpt lat="47.63549" lon="7.08827">
        <ele>305</ele>
        <time>2019-09-10T08:24:24Z</time>
      </trkpt>
      <trkpt lat="47.63554" lon="7.08767">
        <ele>304.60000610352</ele>
        <time>2019-09-10T08:24:32Z</time>
      </trkpt>
      <trkpt lat="47.63554" lon="7.0876">
        <ele>304.60000610352</ele>
        <time>2019-09-10T08:24:33Z</time>
      </trkpt>
      <trkpt lat="47.63557" lon="7.08714">
        <ele>304.60000610352</ele>
        <time>2019-09-10T08:24:39Z</time>
      </trkpt>
      <trkpt lat="47.63557" lon="7.08649">
        <ele>304.79998779297</ele>
        <time>2019-09-10T08:24:47Z</time>
      </trkpt>
      <trkpt lat="47.63557" lon="7.08641">
        <ele>304.79998779297</ele>
        <time>2019-09-10T08:24:48Z</time>
      </trkpt>
      <trkpt lat="47.63553" lon="7.08581">
        <ele>305</ele>
        <time>2019-09-10T08:24:56Z</time>
      </trkpt>
      <trkpt lat="47.63549" lon="7.08546">
        <ele>305.39999389648</ele>
        <time>2019-09-10T08:25:02Z</time>
      </trkpt>
      <trkpt lat="47.63549" lon="7.08534">
        <ele>305.79998779297</ele>
        <time>2019-09-10T08:25:04Z</time>
      </trkpt>
      <trkpt lat="47.63544" lon="7.08496">
        <ele>306.79998779297</ele>
        <time>2019-09-10T08:25:10Z</time>
      </trkpt>
      <trkpt lat="47.63543" lon="7.0849">
        <ele>307</ele>
        <time>2019-09-10T08:25:11Z</time>
      </trkpt>
      <trkpt lat="47.63537" lon="7.08459">
        <ele>307.39999389648</ele>
        <time>2019-09-10T08:25:16Z</time>
      </trkpt>
      <trkpt lat="47.63532" lon="7.08419">
        <ele>307.60000610352</ele>
        <time>2019-09-10T08:25:22Z</time>
      </trkpt>
      <trkpt lat="47.63531" lon="7.08413">
        <ele>307.79998779297</ele>
        <time>2019-09-10T08:25:23Z</time>
      </trkpt>
      <trkpt lat="47.63528" lon="7.08387">
        <ele>307.79998779297</ele>
        <time>2019-09-10T08:25:27Z</time>
      </trkpt>
      <trkpt lat="47.63524" lon="7.08351">
        <ele>308</ele>
        <time>2019-09-10T08:25:32Z</time>
      </trkpt>
      <trkpt lat="47.63515" lon="7.08277">
        <ele>307.79998779297</ele>
        <time>2019-09-10T08:25:42Z</time>
      </trkpt>
      <trkpt lat="47.63513" lon="7.08263">
        <ele>307.79998779297</ele>
        <time>2019-09-10T08:25:44Z</time>
      </trkpt>
      <trkpt lat="47.63509" lon="7.08225">
        <ele>307.79998779297</ele>
        <time>2019-09-10T08:25:49Z</time>
      </trkpt>
      <trkpt lat="47.63501" lon="7.08158">
        <ele>307.79998779297</ele>
        <time>2019-09-10T08:25:58Z</time>
      </trkpt>
      <trkpt lat="47.63495" lon="7.08098">
        <ele>308</ele>
        <time>2019-09-10T08:26:06Z</time>
      </trkpt>
      <trkpt lat="47.63491" lon="7.0806">
        <ele>308</ele>
        <time>2019-09-10T08:26:12Z</time>
      </trkpt>
      <trkpt lat="47.6349" lon="7.08034">
        <ele>308.39999389648</ele>
        <time>2019-09-10T08:26:17Z</time>
      </trkpt>
      <trkpt lat="47.63488" lon="7.08018">
        <ele>309</ele>
        <time>2019-09-10T08:26:20Z</time>
      </trkpt>
      <trkpt lat="47.63485" lon="7.07996">
        <ele>309.79998779297</ele>
        <time>2019-09-10T08:26:24Z</time>
      </trkpt>
      <trkpt lat="47.6348" lon="7.07975">
        <ele>310</ele>
        <time>2019-09-10T08:26:29Z</time>
      </trkpt>
      <trkpt lat="47.63478" lon="7.07967">
        <ele>310.20001220703</ele>
        <time>2019-09-10T08:26:31Z</time>
      </trkpt>
      <trkpt lat="47.63475" lon="7.07935">
        <ele>310.39999389648</ele>
        <time>2019-09-10T08:26:37Z</time>
      </trkpt>
      <trkpt lat="47.63468" lon="7.07877">
        <ele>310.60000610352</ele>
        <time>2019-09-10T08:26:46Z</time>
      </trkpt>
      <trkpt lat="47.63461" lon="7.07822">
        <ele>310.60000610352</ele>
        <time>2019-09-10T08:26:54Z</time>
      </trkpt>
      <trkpt lat="47.63453" lon="7.07749">
        <ele>310.60000610352</ele>
        <time>2019-09-10T08:27:04Z</time>
      </trkpt>
      <trkpt lat="47.63446" lon="7.07688">
        <ele>310.60000610352</ele>
        <time>2019-09-10T08:27:12Z</time>
      </trkpt>
      <trkpt lat="47.63438" lon="7.07613">
        <ele>310.60000610352</ele>
        <time>2019-09-10T08:27:22Z</time>
      </trkpt>
      <trkpt lat="47.63431" lon="7.0756">
        <ele>310.79998779297</ele>
        <time>2019-09-10T08:27:30Z</time>
      </trkpt>
      <trkpt lat="47.63429" lon="7.07527">
        <ele>311.39999389648</ele>
        <time>2019-09-10T08:27:36Z</time>
      </trkpt>
      <trkpt lat="47.63429" lon="7.07522">
        <ele>311.79998779297</ele>
        <time>2019-09-10T08:27:37Z</time>
      </trkpt>
      <trkpt lat="47.63426" lon="7.07499">
        <ele>312.60000610352</ele>
        <time>2019-09-10T08:27:41Z</time>
      </trkpt>
      <trkpt lat="47.63427" lon="7.07486">
        <ele>312.79998779297</ele>
        <time>2019-09-10T08:27:44Z</time>
      </trkpt>
      <trkpt lat="47.63426" lon="7.07484">
        <ele>313</ele>
        <time>2019-09-10T08:27:47Z</time>
      </trkpt>
      <trkpt lat="47.63425" lon="7.07484">
        <ele>313.20001220703</ele>
        <time>2019-09-10T08:28:30Z</time>
      </trkpt>
      <trkpt lat="47.63424" lon="7.07485">
        <ele>313.20001220703</ele>
        <time>2019-09-10T08:28:31Z</time>
      </trkpt>
      <trkpt lat="47.63422" lon="7.0748">
        <ele>313.20001220703</ele>
        <time>2019-09-10T08:28:34Z</time>
      </trkpt>
      <trkpt lat="47.63421" lon="7.07477">
        <ele>313.20001220703</ele>
        <time>2019-09-10T08:28:35Z</time>
      </trkpt>
      <trkpt lat="47.63419" lon="7.07458">
        <ele>313.39999389648</ele>
        <time>2019-09-10T08:28:39Z</time>
      </trkpt>
      <trkpt lat="47.63413" lon="7.07411">
        <ele>313.39999389648</ele>
        <time>2019-09-10T08:28:47Z</time>
      </trkpt>
      <trkpt lat="47.63405" lon="7.07343">
        <ele>313.39999389648</ele>
        <time>2019-09-10T08:28:57Z</time>
      </trkpt>
      <trkpt lat="47.63397" lon="7.07277">
        <ele>313.39999389648</ele>
        <time>2019-09-10T08:29:06Z</time>
      </trkpt>
      <trkpt lat="47.63392" lon="7.07237">
        <ele>313.39999389648</ele>
        <time>2019-09-10T08:29:12Z</time>
      </trkpt>
      <trkpt lat="47.63391" lon="7.0722">
        <ele>313.60000610352</ele>
        <time>2019-09-10T08:29:15Z</time>
      </trkpt>
      <trkpt lat="47.63389" lon="7.07198">
        <ele>313.79998779297</ele>
        <time>2019-09-10T08:29:19Z</time>
      </trkpt>
      <trkpt lat="47.63387" lon="7.07181">
        <ele>314.79998779297</ele>
        <time>2019-09-10T08:29:22Z</time>
      </trkpt>
      <trkpt lat="47.63385" lon="7.07169">
        <ele>315.20001220703</ele>
        <time>2019-09-10T08:29:24Z</time>
      </trkpt>
      <trkpt lat="47.63381" lon="7.07158">
        <ele>315.39999389648</ele>
        <time>2019-09-10T08:29:26Z</time>
      </trkpt>
      <trkpt lat="47.63377" lon="7.07141">
        <ele>315.60000610352</ele>
        <time>2019-09-10T08:29:29Z</time>
      </trkpt>
      <trkpt lat="47.63375" lon="7.07129">
        <ele>315.60000610352</ele>
        <time>2019-09-10T08:29:31Z</time>
      </trkpt>
      <trkpt lat="47.63369" lon="7.07075">
        <ele>315.79998779297</ele>
        <time>2019-09-10T08:29:39Z</time>
      </trkpt>
      <trkpt lat="47.63368" lon="7.07068">
        <ele>315.79998779297</ele>
        <time>2019-09-10T08:29:40Z</time>
      </trkpt>
      <trkpt lat="47.63363" lon="7.07027">
        <ele>316</ele>
        <time>2019-09-10T08:29:46Z</time>
      </trkpt>
      <trkpt lat="47.6336" lon="7.06973">
        <ele>316</ele>
        <time>2019-09-10T08:29:54Z</time>
      </trkpt>
      <trkpt lat="47.63356" lon="7.06937">
        <ele>316.60000610352</ele>
        <time>2019-09-10T08:30:00Z</time>
      </trkpt>
      <trkpt lat="47.63355" lon="7.06931">
        <ele>316.60000610352</ele>
        <time>2019-09-10T08:30:01Z</time>
      </trkpt>
      <trkpt lat="47.63351" lon="7.06915">
        <ele>317</ele>
        <time>2019-09-10T08:30:04Z</time>
      </trkpt>
      <trkpt lat="47.63349" lon="7.06898">
        <ele>317.60000610352</ele>
        <time>2019-09-10T08:30:07Z</time>
      </trkpt>
      <trkpt lat="47.63346" lon="7.06879">
        <ele>318.20001220703</ele>
        <time>2019-09-10T08:30:10Z</time>
      </trkpt>
      <trkpt lat="47.63342" lon="7.06846">
        <ele>318.79998779297</ele>
        <time>2019-09-10T08:30:15Z</time>
      </trkpt>
      <trkpt lat="47.63333" lon="7.06766">
        <ele>319.20001220703</ele>
        <time>2019-09-10T08:30:27Z</time>
      </trkpt>
      <trkpt lat="47.6333" lon="7.06724">
        <ele>319.20001220703</ele>
        <time>2019-09-10T08:30:34Z</time>
      </trkpt>
      <trkpt lat="47.63324" lon="7.06692">
        <ele>320.20001220703</ele>
        <time>2019-09-10T08:30:40Z</time>
      </trkpt>
      <trkpt lat="47.63323" lon="7.06686">
        <ele>320.39999389648</ele>
        <time>2019-09-10T08:30:41Z</time>
      </trkpt>
      <trkpt lat="47.63319" lon="7.06652">
        <ele>321.60000610352</ele>
        <time>2019-09-10T08:30:47Z</time>
      </trkpt>
      <trkpt lat="47.63317" lon="7.06639">
        <ele>322</ele>
        <time>2019-09-10T08:30:49Z</time>
      </trkpt>
      <trkpt lat="47.6331" lon="7.06586">
        <ele>322.20001220703</ele>
        <time>2019-09-10T08:30:57Z</time>
      </trkpt>
      <trkpt lat="47.63306" lon="7.06526">
        <ele>322.39999389648</ele>
        <time>2019-09-10T08:31:06Z</time>
      </trkpt>
      <trkpt lat="47.63303" lon="7.06493">
        <ele>322.39999389648</ele>
        <time>2019-09-10T08:31:12Z</time>
      </trkpt>
      <trkpt lat="47.63302" lon="7.06488">
        <ele>322.60000610352</ele>
        <time>2019-09-10T08:31:13Z</time>
      </trkpt>
      <trkpt lat="47.63296" lon="7.06458">
        <ele>323.60000610352</ele>
        <time>2019-09-10T08:31:19Z</time>
      </trkpt>
      <trkpt lat="47.63291" lon="7.06425">
        <ele>324.79998779297</ele>
        <time>2019-09-10T08:31:25Z</time>
      </trkpt>
      <trkpt lat="47.63289" lon="7.06413">
        <ele>324.79998779297</ele>
        <time>2019-09-10T08:31:27Z</time>
      </trkpt>
      <trkpt lat="47.63282" lon="7.06344">
        <ele>325</ele>
        <time>2019-09-10T08:31:38Z</time>
      </trkpt>
      <trkpt lat="47.6328" lon="7.06311">
        <ele>325</ele>
        <time>2019-09-10T08:31:43Z</time>
      </trkpt>
      <trkpt lat="47.63281" lon="7.06298">
        <ele>325</ele>
        <time>2019-09-10T08:31:45Z</time>
      </trkpt>
      <trkpt lat="47.6328" lon="7.06291">
        <ele>325</ele>
        <time>2019-09-10T08:31:46Z</time>
      </trkpt>
      <trkpt lat="47.63278" lon="7.06279">
        <ele>325</ele>
        <time>2019-09-10T08:31:48Z</time>
      </trkpt>
      <trkpt lat="47.63275" lon="7.06259">
        <ele>325.20001220703</ele>
        <time>2019-09-10T08:31:52Z</time>
      </trkpt>
      <trkpt lat="47.63276" lon="7.06252">
        <ele>325.79998779297</ele>
        <time>2019-09-10T08:31:56Z</time>
      </trkpt>
      <trkpt lat="47.63272" lon="7.06252">
        <ele>326.60000610352</ele>
        <time>2019-09-10T08:34:46Z</time>
      </trkpt>
      <trkpt lat="47.63269" lon="7.06247">
        <ele>326.60000610352</ele>
        <time>2019-09-10T08:34:48Z</time>
      </trkpt>
      <trkpt lat="47.63266" lon="7.06218">
        <ele>326.79998779297</ele>
        <time>2019-09-10T08:34:54Z</time>
      </trkpt>
      <trkpt lat="47.6326" lon="7.06169">
        <ele>327</ele>
        <time>2019-09-10T08:35:02Z</time>
      </trkpt>
      <trkpt lat="47.63252" lon="7.06094">
        <ele>327.20001220703</ele>
        <time>2019-09-10T08:35:13Z</time>
      </trkpt>
      <trkpt lat="47.63252" lon="7.06067">
        <ele>327.20001220703</ele>
        <time>2019-09-10T08:35:17Z</time>
      </trkpt>
      <trkpt lat="47.63251" lon="7.06055">
        <ele>327.20001220703</ele>
        <time>2019-09-10T08:35:19Z</time>
      </trkpt>
      <trkpt lat="47.63247" lon="7.06032">
        <ele>327.79998779297</ele>
        <time>2019-09-10T08:35:23Z</time>
      </trkpt>
      <trkpt lat="47.63243" lon="7.06015">
        <ele>328.39999389648</ele>
        <time>2019-09-10T08:35:26Z</time>
      </trkpt>
      <trkpt lat="47.63241" lon="7.05998">
        <ele>328.79998779297</ele>
        <time>2019-09-10T08:35:29Z</time>
      </trkpt>
      <trkpt lat="47.63236" lon="7.05965">
        <ele>329.39999389648</ele>
        <time>2019-09-10T08:35:34Z</time>
      </trkpt>
      <trkpt lat="47.63223" lon="7.05919">
        <ele>329.79998779297</ele>
        <time>2019-09-10T08:35:41Z</time>
      </trkpt>
      <trkpt lat="47.63206" lon="7.05871">
        <ele>330</ele>
        <time>2019-09-10T08:35:49Z</time>
      </trkpt>
      <trkpt lat="47.63204" lon="7.05865">
        <ele>330</ele>
        <time>2019-09-10T08:35:50Z</time>
      </trkpt>
      <trkpt lat="47.63194" lon="7.05846">
        <ele>330.20001220703</ele>
        <time>2019-09-10T08:35:54Z</time>
      </trkpt>
      <trkpt lat="47.63179" lon="7.05826">
        <ele>330.60000610352</ele>
        <time>2019-09-10T08:35:59Z</time>
      </trkpt>
      <trkpt lat="47.63175" lon="7.05822">
        <ele>331</ele>
        <time>2019-09-10T08:36:00Z</time>
      </trkpt>
      <trkpt lat="47.63162" lon="7.05798">
        <ele>332</ele>
        <time>2019-09-10T08:36:05Z</time>
      </trkpt>
      <trkpt lat="47.63156" lon="7.05787">
        <ele>332.20001220703</ele>
        <time>2019-09-10T08:36:07Z</time>
      </trkpt>
      <trkpt lat="47.63142" lon="7.05761">
        <ele>332.20001220703</ele>
        <time>2019-09-10T08:36:12Z</time>
      </trkpt>
      <trkpt lat="47.63142" lon="7.05755">
        <ele>332.20001220703</ele>
        <time>2019-09-10T08:36:13Z</time>
      </trkpt>
      <trkpt lat="47.6314" lon="7.05731">
        <ele>332.20001220703</ele>
        <time>2019-09-10T08:36:17Z</time>
      </trkpt>
      <trkpt lat="47.63132" lon="7.05708">
        <ele>332.20001220703</ele>
        <time>2019-09-10T08:36:22Z</time>
      </trkpt>
      <trkpt lat="47.63129" lon="7.05704">
        <ele>332.20001220703</ele>
        <time>2019-09-10T08:36:23Z</time>
      </trkpt>
      <trkpt lat="47.63116" lon="7.05694">
        <ele>332.20001220703</ele>
        <time>2019-09-10T08:36:27Z</time>
      </trkpt>
      <trkpt lat="47.63097" lon="7.05678">
        <ele>333</ele>
        <time>2019-09-10T08:36:34Z</time>
      </trkpt>
      <trkpt lat="47.63086" lon="7.05673">
        <ele>334.20001220703</ele>
        <time>2019-09-10T08:36:38Z</time>
      </trkpt>
      <trkpt lat="47.63065" lon="7.05685">
        <ele>335.20001220703</ele>
        <time>2019-09-10T08:36:45Z</time>
      </trkpt>
      <trkpt lat="47.63062" lon="7.05686">
        <ele>335.20001220703</ele>
        <time>2019-09-10T08:36:46Z</time>
      </trkpt>
      <trkpt lat="47.63046" lon="7.05696">
        <ele>336</ele>
        <time>2019-09-10T08:36:52Z</time>
      </trkpt>
      <trkpt lat="47.63041" lon="7.05699">
        <ele>336.39999389648</ele>
        <time>2019-09-10T08:36:54Z</time>
      </trkpt>
      <trkpt lat="47.63028" lon="7.057">
        <ele>337.39999389648</ele>
        <time>2019-09-10T08:36:59Z</time>
      </trkpt>
      <trkpt lat="47.63022" lon="7.05686">
        <ele>338.20001220703</ele>
        <time>2019-09-10T08:37:03Z</time>
      </trkpt>
      <trkpt lat="47.6302" lon="7.05682">
        <ele>338.39999389648</ele>
        <time>2019-09-10T08:37:04Z</time>
      </trkpt>
      <trkpt lat="47.63008" lon="7.05659">
        <ele>339</ele>
        <time>2019-09-10T08:37:10Z</time>
      </trkpt>
      <trkpt lat="47.62996" lon="7.05633">
        <ele>339.20001220703</ele>
        <time>2019-09-10T08:37:16Z</time>
      </trkpt>
      <trkpt lat="47.62986" lon="7.05618">
        <ele>339.60000610352</ele>
        <time>2019-09-10T08:37:20Z</time>
      </trkpt>
      <trkpt lat="47.62975" lon="7.05608">
        <ele>339.60000610352</ele>
        <time>2019-09-10T08:37:24Z</time>
      </trkpt>
      <trkpt lat="47.6296" lon="7.05604">
        <ele>340.20001220703</ele>
        <time>2019-09-10T08:37:29Z</time>
      </trkpt>
      <trkpt lat="47.62944" lon="7.05602">
        <ele>340.60000610352</ele>
        <time>2019-09-10T08:37:34Z</time>
      </trkpt>
      <trkpt lat="47.62935" lon="7.05597">
        <ele>341</ele>
        <time>2019-09-10T08:37:37Z</time>
      </trkpt>
      <trkpt lat="47.62923" lon="7.05586">
        <ele>341.60000610352</ele>
        <time>2019-09-10T08:37:41Z</time>
      </trkpt>
      <trkpt lat="47.62916" lon="7.05576">
        <ele>342</ele>
        <time>2019-09-10T08:37:44Z</time>
      </trkpt>
      <trkpt lat="47.629" lon="7.05567">
        <ele>342.60000610352</ele>
        <time>2019-09-10T08:37:49Z</time>
      </trkpt>
      <trkpt lat="47.62894" lon="7.05566">
        <ele>342.79998779297</ele>
        <time>2019-09-10T08:37:51Z</time>
      </trkpt>
      <trkpt lat="47.62875" lon="7.05563">
        <ele>343.20001220703</ele>
        <time>2019-09-10T08:37:57Z</time>
      </trkpt>
      <trkpt lat="47.6286" lon="7.05562">
        <ele>343.79998779297</ele>
        <time>2019-09-10T08:38:03Z</time>
      </trkpt>
      <trkpt lat="47.62835" lon="7.0556">
        <ele>344.79998779297</ele>
        <time>2019-09-10T08:38:11Z</time>
      </trkpt>
      <trkpt lat="47.62832" lon="7.05559">
        <ele>344.79998779297</ele>
        <time>2019-09-10T08:38:12Z</time>
      </trkpt>
      <trkpt lat="47.62815" lon="7.05564">
        <ele>345.20001220703</ele>
        <time>2019-09-10T08:38:17Z</time>
      </trkpt>
      <trkpt lat="47.62801" lon="7.05569">
        <ele>346</ele>
        <time>2019-09-10T08:38:21Z</time>
      </trkpt>
      <trkpt lat="47.62788" lon="7.05575">
        <ele>346.39999389648</ele>
        <time>2019-09-10T08:38:25Z</time>
      </trkpt>
      <trkpt lat="47.62772" lon="7.05583">
        <ele>347</ele>
        <time>2019-09-10T08:38:30Z</time>
      </trkpt>
      <trkpt lat="47.62753" lon="7.05591">
        <ele>347.60000610352</ele>
        <time>2019-09-10T08:38:36Z</time>
      </trkpt>
      <trkpt lat="47.62743" lon="7.05596">
        <ele>348</ele>
        <time>2019-09-10T08:38:39Z</time>
      </trkpt>
      <trkpt lat="47.62723" lon="7.05604">
        <ele>348.60000610352</ele>
        <time>2019-09-10T08:38:45Z</time>
      </trkpt>
      <trkpt lat="47.62707" lon="7.05615">
        <ele>349</ele>
        <time>2019-09-10T08:38:50Z</time>
      </trkpt>
      <trkpt lat="47.62704" lon="7.05618">
        <ele>349.20001220703</ele>
        <time>2019-09-10T08:38:51Z</time>
      </trkpt>
      <trkpt lat="47.62688" lon="7.05639">
        <ele>349.60000610352</ele>
        <time>2019-09-10T08:38:57Z</time>
      </trkpt>
      <trkpt lat="47.62665" lon="7.05668">
        <ele>349.79998779297</ele>
        <time>2019-09-10T08:39:05Z</time>
      </trkpt>
      <trkpt lat="47.62641" lon="7.05698">
        <ele>349.20001220703</ele>
        <time>2019-09-10T08:39:12Z</time>
      </trkpt>
      <trkpt lat="47.62634" lon="7.05708">
        <ele>349</ele>
        <time>2019-09-10T08:39:14Z</time>
      </trkpt>
      <trkpt lat="47.62619" lon="7.05726">
        <ele>348.60000610352</ele>
        <time>2019-09-10T08:39:18Z</time>
      </trkpt>
      <trkpt lat="47.62607" lon="7.05737">
        <ele>348</ele>
        <time>2019-09-10T08:39:21Z</time>
      </trkpt>
      <trkpt lat="47.62594" lon="7.05746">
        <ele>347.39999389648</ele>
        <time>2019-09-10T08:39:24Z</time>
      </trkpt>
      <trkpt lat="47.62575" lon="7.0576">
        <ele>347</ele>
        <time>2019-09-10T08:39:28Z</time>
      </trkpt>
      <trkpt lat="47.62559" lon="7.0577">
        <ele>346.79998779297</ele>
        <time>2019-09-10T08:39:31Z</time>
      </trkpt>
      <trkpt lat="47.62531" lon="7.0578">
        <ele>346.39999389648</ele>
        <time>2019-09-10T08:39:36Z</time>
      </trkpt>
      <trkpt lat="47.6252" lon="7.05781">
        <ele>345.79998779297</ele>
        <time>2019-09-10T08:39:38Z</time>
      </trkpt>
      <trkpt lat="47.62496" lon="7.0578">
        <ele>345.60000610352</ele>
        <time>2019-09-10T08:39:42Z</time>
      </trkpt>
      <trkpt lat="47.62448" lon="7.05781">
        <ele>345.39999389648</ele>
        <time>2019-09-10T08:39:50Z</time>
      </trkpt>
      <trkpt lat="47.6243" lon="7.05783">
        <ele>345.39999389648</ele>
        <time>2019-09-10T08:39:53Z</time>
      </trkpt>
      <trkpt lat="47.62412" lon="7.05779">
        <ele>345.20001220703</ele>
        <time>2019-09-10T08:39:56Z</time>
      </trkpt>
      <trkpt lat="47.62399" lon="7.05761">
        <ele>345</ele>
        <time>2019-09-10T08:39:59Z</time>
      </trkpt>
      <trkpt lat="47.62396" lon="7.05752">
        <ele>345</ele>
        <time>2019-09-10T08:40:00Z</time>
      </trkpt>
      <trkpt lat="47.62393" lon="7.05744">
        <ele>344.79998779297</ele>
        <time>2019-09-10T08:40:01Z</time>
      </trkpt>
      <trkpt lat="47.62378" lon="7.05701">
        <ele>343.79998779297</ele>
        <time>2019-09-10T08:40:06Z</time>
      </trkpt>
      <trkpt lat="47.62355" lon="7.05645">
        <ele>342.79998779297</ele>
        <time>2019-09-10T08:40:13Z</time>
      </trkpt>
      <trkpt lat="47.62352" lon="7.05639">
        <ele>342.60000610352</ele>
        <time>2019-09-10T08:40:14Z</time>
      </trkpt>
      <trkpt lat="47.62348" lon="7.05632">
        <ele>342.39999389648</ele>
        <time>2019-09-10T08:40:15Z</time>
      </trkpt>
      <trkpt lat="47.62346" lon="7.05614">
        <ele>342</ele>
        <time>2019-09-10T08:40:17Z</time>
      </trkpt>
      <trkpt lat="47.62349" lon="7.05598">
        <ele>341.79998779297</ele>
        <time>2019-09-10T08:40:19Z</time>
      </trkpt>
      <trkpt lat="47.62353" lon="7.05581">
        <ele>341.60000610352</ele>
        <time>2019-09-10T08:40:21Z</time>
      </trkpt>
      <trkpt lat="47.62356" lon="7.05556">
        <ele>341.60000610352</ele>
        <time>2019-09-10T08:40:24Z</time>
      </trkpt>
      <trkpt lat="47.62359" lon="7.05523">
        <ele>341.60000610352</ele>
        <time>2019-09-10T08:40:28Z</time>
      </trkpt>
      <trkpt lat="47.62363" lon="7.05478">
        <ele>341.60000610352</ele>
        <time>2019-09-10T08:40:34Z</time>
      </trkpt>
      <trkpt lat="47.62367" lon="7.05429">
        <ele>342</ele>
        <time>2019-09-10T08:40:41Z</time>
      </trkpt>
      <trkpt lat="47.62371" lon="7.05397">
        <ele>342.60000610352</ele>
        <time>2019-09-10T08:40:46Z</time>
      </trkpt>
      <trkpt lat="47.62372" lon="7.0539">
        <ele>342.79998779297</ele>
        <time>2019-09-10T08:40:47Z</time>
      </trkpt>
      <trkpt lat="47.62373" lon="7.05377">
        <ele>343</ele>
        <time>2019-09-10T08:40:49Z</time>
      </trkpt>
      <trkpt lat="47.62379" lon="7.05326">
        <ele>343.20001220703</ele>
        <time>2019-09-10T08:40:56Z</time>
      </trkpt>
      <trkpt lat="47.62381" lon="7.05318">
        <ele>343.39999389648</ele>
        <time>2019-09-10T08:40:57Z</time>
      </trkpt>
      <trkpt lat="47.62395" lon="7.05266">
        <ele>343.20001220703</ele>
        <time>2019-09-10T08:41:04Z</time>
      </trkpt>
      <trkpt lat="47.62412" lon="7.05202">
        <ele>342</ele>
        <time>2019-09-10T08:41:12Z</time>
      </trkpt>
      <trkpt lat="47.6242" lon="7.0517">
        <ele>341.60000610352</ele>
        <time>2019-09-10T08:41:16Z</time>
      </trkpt>
      <trkpt lat="47.62427" lon="7.05131">
        <ele>340.60000610352</ele>
        <time>2019-09-10T08:41:21Z</time>
      </trkpt>
      <trkpt lat="47.62425" lon="7.05089">
        <ele>340.39999389648</ele>
        <time>2019-09-10T08:41:26Z</time>
      </trkpt>
      <trkpt lat="47.62415" lon="7.05035">
        <ele>340.39999389648</ele>
        <time>2019-09-10T08:41:33Z</time>
      </trkpt>
      <trkpt lat="47.62409" lon="7.05005">
        <ele>340.79998779297</ele>
        <time>2019-09-10T08:41:37Z</time>
      </trkpt>
      <trkpt lat="47.62404" lon="7.04983">
        <ele>341.20001220703</ele>
        <time>2019-09-10T08:41:40Z</time>
      </trkpt>
      <trkpt lat="47.62388" lon="7.04906">
        <ele>342.20001220703</ele>
        <time>2019-09-10T08:41:50Z</time>
      </trkpt>
      <trkpt lat="47.62382" lon="7.04875">
        <ele>342.39999389648</ele>
        <time>2019-09-10T08:41:54Z</time>
      </trkpt>
      <trkpt lat="47.62372" lon="7.04825">
        <ele>342.39999389648</ele>
        <time>2019-09-10T08:42:00Z</time>
      </trkpt>
      <trkpt lat="47.62361" lon="7.04766">
        <ele>342.39999389648</ele>
        <time>2019-09-10T08:42:07Z</time>
      </trkpt>
      <trkpt lat="47.62349" lon="7.04703">
        <ele>342</ele>
        <time>2019-09-10T08:42:14Z</time>
      </trkpt>
      <trkpt lat="47.62342" lon="7.04664">
        <ele>341.20001220703</ele>
        <time>2019-09-10T08:42:18Z</time>
      </trkpt>
      <trkpt lat="47.62335" lon="7.04635">
        <ele>340.60000610352</ele>
        <time>2019-09-10T08:42:21Z</time>
      </trkpt>
      <trkpt lat="47.62329" lon="7.04615">
        <ele>340</ele>
        <time>2019-09-10T08:42:23Z</time>
      </trkpt>
      <trkpt lat="47.62311" lon="7.04549">
        <ele>339.39999389648</ele>
        <time>2019-09-10T08:42:30Z</time>
      </trkpt>
      <trkpt lat="47.62312" lon="7.0452">
        <ele>339.20001220703</ele>
        <time>2019-09-10T08:42:33Z</time>
      </trkpt>
      <trkpt lat="47.62324" lon="7.04498">
        <ele>339.20001220703</ele>
        <time>2019-09-10T08:42:36Z</time>
      </trkpt>
      <trkpt lat="47.62334" lon="7.04488">
        <ele>339.20001220703</ele>
        <time>2019-09-10T08:42:38Z</time>
      </trkpt>
      <trkpt lat="47.62353" lon="7.04469">
        <ele>339.20001220703</ele>
        <time>2019-09-10T08:42:42Z</time>
      </trkpt>
      <trkpt lat="47.62375" lon="7.04446">
        <ele>339.20001220703</ele>
        <time>2019-09-10T08:42:47Z</time>
      </trkpt>
      <trkpt lat="47.62382" lon="7.04436">
        <ele>339.20001220703</ele>
        <time>2019-09-10T08:42:49Z</time>
      </trkpt>
      <trkpt lat="47.62387" lon="7.04409">
        <ele>339.39999389648</ele>
        <time>2019-09-10T08:42:53Z</time>
      </trkpt>
      <trkpt lat="47.62381" lon="7.04379">
        <ele>339.60000610352</ele>
        <time>2019-09-10T08:42:57Z</time>
      </trkpt>
      <trkpt lat="47.62371" lon="7.04359">
        <ele>339.60000610352</ele>
        <time>2019-09-10T08:43:00Z</time>
      </trkpt>
      <trkpt lat="47.6236" lon="7.04339">
        <ele>339.39999389648</ele>
        <time>2019-09-10T08:43:03Z</time>
      </trkpt>
      <trkpt lat="47.62345" lon="7.04315">
        <ele>339</ele>
        <time>2019-09-10T08:43:07Z</time>
      </trkpt>
      <trkpt lat="47.62333" lon="7.04295">
        <ele>338.79998779297</ele>
        <time>2019-09-10T08:43:10Z</time>
      </trkpt>
      <trkpt lat="47.62303" lon="7.04243">
        <ele>338.79998779297</ele>
        <time>2019-09-10T08:43:18Z</time>
      </trkpt>
      <trkpt lat="47.62297" lon="7.04235">
        <ele>338.79998779297</ele>
        <time>2019-09-10T08:43:21Z</time>
      </trkpt>
      <trkpt lat="47.62297" lon="7.04235">
        <ele>339</ele>
        <time>2019-09-10T08:43:23Z</time>
      </trkpt>
      <trkpt lat="47.62296" lon="7.04233">
        <ele>339</ele>
        <time>2019-09-10T08:44:20Z</time>
      </trkpt>
      <trkpt lat="47.62293" lon="7.04228">
        <ele>339</ele>
        <time>2019-09-10T08:44:22Z</time>
      </trkpt>
      <trkpt lat="47.62284" lon="7.04212">
        <ele>339</ele>
        <time>2019-09-10T08:44:26Z</time>
      </trkpt>
      <trkpt lat="47.62281" lon="7.04207">
        <ele>339</ele>
        <time>2019-09-10T08:44:27Z</time>
      </trkpt>
      <trkpt lat="47.6226" lon="7.04174">
        <ele>338.79998779297</ele>
        <time>2019-09-10T08:44:33Z</time>
      </trkpt>
      <trkpt lat="47.62234" lon="7.04129">
        <ele>338.79998779297</ele>
        <time>2019-09-10T08:44:40Z</time>
      </trkpt>
      <trkpt lat="47.62204" lon="7.04074">
        <ele>338.79998779297</ele>
        <time>2019-09-10T08:44:48Z</time>
      </trkpt>
      <trkpt lat="47.6217" lon="7.04011">
        <ele>339</ele>
        <time>2019-09-10T08:44:57Z</time>
      </trkpt>
      <trkpt lat="47.62166" lon="7.04005">
        <ele>339</ele>
        <time>2019-09-10T08:44:58Z</time>
      </trkpt>
      <trkpt lat="47.62135" lon="7.0395">
        <ele>338.79998779297</ele>
        <time>2019-09-10T08:45:06Z</time>
      </trkpt>
      <trkpt lat="47.62113" lon="7.03911">
        <ele>338.79998779297</ele>
        <time>2019-09-10T08:45:12Z</time>
      </trkpt>
      <trkpt lat="47.62082" lon="7.03854">
        <ele>338.60000610352</ele>
        <time>2019-09-10T08:45:20Z</time>
      </trkpt>
      <trkpt lat="47.62055" lon="7.03806">
        <ele>338.39999389648</ele>
        <time>2019-09-10T08:45:27Z</time>
      </trkpt>
      <trkpt lat="47.62024" lon="7.0375">
        <ele>338.39999389648</ele>
        <time>2019-09-10T08:45:35Z</time>
      </trkpt>
      <trkpt lat="47.61991" lon="7.03689">
        <ele>338.20001220703</ele>
        <time>2019-09-10T08:45:44Z</time>
      </trkpt>
      <trkpt lat="47.61962" lon="7.03634">
        <ele>337.79998779297</ele>
        <time>2019-09-10T08:45:52Z</time>
      </trkpt>
      <trkpt lat="47.61936" lon="7.03588">
        <ele>337.60000610352</ele>
        <time>2019-09-10T08:45:59Z</time>
      </trkpt>
      <trkpt lat="47.61903" lon="7.03525">
        <ele>337.79998779297</ele>
        <time>2019-09-10T08:46:08Z</time>
      </trkpt>
      <trkpt lat="47.61874" lon="7.03469">
        <ele>337.79998779297</ele>
        <time>2019-09-10T08:46:16Z</time>
      </trkpt>
      <trkpt lat="47.61848" lon="7.03421">
        <ele>338</ele>
        <time>2019-09-10T08:46:23Z</time>
      </trkpt>
      <trkpt lat="47.61817" lon="7.03367">
        <ele>338.20001220703</ele>
        <time>2019-09-10T08:46:31Z</time>
      </trkpt>
      <trkpt lat="47.61787" lon="7.03314">
        <ele>338.20001220703</ele>
        <time>2019-09-10T08:46:39Z</time>
      </trkpt>
      <trkpt lat="47.61756" lon="7.03258">
        <ele>338.20001220703</ele>
        <time>2019-09-10T08:46:47Z</time>
      </trkpt>
      <trkpt lat="47.61722" lon="7.03194">
        <ele>338</ele>
        <time>2019-09-10T08:46:56Z</time>
      </trkpt>
      <trkpt lat="47.61683" lon="7.03128">
        <ele>338</ele>
        <time>2019-09-10T08:47:06Z</time>
      </trkpt>
      <trkpt lat="47.61659" lon="7.03081">
        <ele>338.20001220703</ele>
        <time>2019-09-10T08:47:13Z</time>
      </trkpt>
      <trkpt lat="47.61638" lon="7.03043">
        <ele>338.20001220703</ele>
        <time>2019-09-10T08:47:20Z</time>
      </trkpt>
      <trkpt lat="47.61628" lon="7.0302">
        <ele>338.39999389648</ele>
        <time>2019-09-10T08:47:25Z</time>
      </trkpt>
      <trkpt lat="47.61621" lon="7.03013">
        <ele>338.39999389648</ele>
        <time>2019-09-10T08:47:27Z</time>
      </trkpt>
      <trkpt lat="47.61612" lon="7.02999">
        <ele>338.39999389648</ele>
        <time>2019-09-10T08:47:30Z</time>
      </trkpt>
      <trkpt lat="47.61609" lon="7.02991">
        <ele>338.20001220703</ele>
        <time>2019-09-10T08:47:32Z</time>
      </trkpt>
      <trkpt lat="47.61608" lon="7.02987">
        <ele>338.20001220703</ele>
        <time>2019-09-10T08:47:33Z</time>
      </trkpt>
      <trkpt lat="47.61597" lon="7.02972">
        <ele>338.20001220703</ele>
        <time>2019-09-10T08:47:37Z</time>
      </trkpt>
      <trkpt lat="47.61595" lon="7.02966">
        <ele>338.20001220703</ele>
        <time>2019-09-10T08:47:38Z</time>
      </trkpt>
      <trkpt lat="47.61589" lon="7.02955">
        <ele>338.20001220703</ele>
        <time>2019-09-10T08:47:40Z</time>
      </trkpt>
      <trkpt lat="47.61577" lon="7.0294">
        <ele>338.20001220703</ele>
        <time>2019-09-10T08:47:43Z</time>
      </trkpt>
      <trkpt lat="47.61545" lon="7.02895">
        <ele>338.20001220703</ele>
        <time>2019-09-10T08:47:51Z</time>
      </trkpt>
      <trkpt lat="47.61512" lon="7.02862">
        <ele>338.39999389648</ele>
        <time>2019-09-10T08:47:58Z</time>
      </trkpt>
      <trkpt lat="47.61496" lon="7.02849">
        <ele>338.39999389648</ele>
        <time>2019-09-10T08:48:01Z</time>
      </trkpt>
      <trkpt lat="47.6148" lon="7.02839">
        <ele>338.20001220703</ele>
        <time>2019-09-10T08:48:04Z</time>
      </trkpt>
      <trkpt lat="47.61438" lon="7.02805">
        <ele>338.20001220703</ele>
        <time>2019-09-10T08:48:12Z</time>
      </trkpt>
      <trkpt lat="47.61402" lon="7.02775">
        <ele>338</ele>
        <time>2019-09-10T08:48:19Z</time>
      </trkpt>
      <trkpt lat="47.61358" lon="7.02738">
        <ele>338</ele>
        <time>2019-09-10T08:48:27Z</time>
      </trkpt>
      <trkpt lat="47.6132" lon="7.02704">
        <ele>338.20001220703</ele>
        <time>2019-09-10T08:48:34Z</time>
      </trkpt>
      <trkpt lat="47.61283" lon="7.02669">
        <ele>338.20001220703</ele>
        <time>2019-09-10T08:48:41Z</time>
      </trkpt>
      <trkpt lat="47.61242" lon="7.02637">
        <ele>338</ele>
        <time>2019-09-10T08:48:48Z</time>
      </trkpt>
      <trkpt lat="47.61208" lon="7.02608">
        <ele>337.60000610352</ele>
        <time>2019-09-10T08:48:54Z</time>
      </trkpt>
      <trkpt lat="47.61196" lon="7.02598">
        <ele>336.79998779297</ele>
        <time>2019-09-10T08:48:56Z</time>
      </trkpt>
      <trkpt lat="47.61175" lon="7.02581">
        <ele>336.60000610352</ele>
        <time>2019-09-10T08:49:00Z</time>
      </trkpt>
      <trkpt lat="47.61164" lon="7.02573">
        <ele>336.60000610352</ele>
        <time>2019-09-10T08:49:02Z</time>
      </trkpt>
      <trkpt lat="47.61132" lon="7.02548">
        <ele>336.60000610352</ele>
        <time>2019-09-10T08:49:08Z</time>
      </trkpt>
      <trkpt lat="47.61091" lon="7.02511">
        <ele>336.60000610352</ele>
        <time>2019-09-10T08:49:16Z</time>
      </trkpt>
      <trkpt lat="47.61069" lon="7.02492">
        <ele>336.39999389648</ele>
        <time>2019-09-10T08:49:20Z</time>
      </trkpt>
      <trkpt lat="47.61052" lon="7.02478">
        <ele>336.39999389648</ele>
        <time>2019-09-10T08:49:23Z</time>
      </trkpt>
      <trkpt lat="47.61026" lon="7.02453">
        <ele>336.39999389648</ele>
        <time>2019-09-10T08:49:28Z</time>
      </trkpt>
      <trkpt lat="47.61022" lon="7.02447">
        <ele>336.39999389648</ele>
        <time>2019-09-10T08:49:29Z</time>
      </trkpt>
      <trkpt lat="47.60986" lon="7.02399">
        <ele>336.39999389648</ele>
        <time>2019-09-10T08:49:37Z</time>
      </trkpt>
      <trkpt lat="47.60975" lon="7.02389">
        <ele>336.39999389648</ele>
        <time>2019-09-10T08:49:39Z</time>
      </trkpt>
      <trkpt lat="47.60957" lon="7.02363">
        <ele>336.39999389648</ele>
        <time>2019-09-10T08:49:43Z</time>
      </trkpt>
      <trkpt lat="47.60934" lon="7.02327">
        <ele>336.20001220703</ele>
        <time>2019-09-10T08:49:48Z</time>
      </trkpt>
      <trkpt lat="47.60921" lon="7.02306">
        <ele>335.79998779297</ele>
        <time>2019-09-10T08:49:51Z</time>
      </trkpt>
      <trkpt lat="47.60912" lon="7.02292">
        <ele>335.20001220703</ele>
        <time>2019-09-10T08:49:53Z</time>
      </trkpt>
      <trkpt lat="47.60896" lon="7.02263">
        <ele>335</ele>
        <time>2019-09-10T08:49:57Z</time>
      </trkpt>
      <trkpt lat="47.60862" lon="7.02196">
        <ele>335</ele>
        <time>2019-09-10T08:50:06Z</time>
      </trkpt>
      <trkpt lat="47.60838" lon="7.02145">
        <ele>335.20001220703</ele>
        <time>2019-09-10T08:50:13Z</time>
      </trkpt>
      <trkpt lat="47.60835" lon="7.02138">
        <ele>335.20001220703</ele>
        <time>2019-09-10T08:50:14Z</time>
      </trkpt>
      <trkpt lat="47.60819" lon="7.02099">
        <ele>335.20001220703</ele>
        <time>2019-09-10T08:50:19Z</time>
      </trkpt>
      <trkpt lat="47.60793" lon="7.02038">
        <ele>335.60000610352</ele>
        <time>2019-09-10T08:50:27Z</time>
      </trkpt>
      <trkpt lat="47.60765" lon="7.01978">
        <ele>335.60000610352</ele>
        <time>2019-09-10T08:50:35Z</time>
      </trkpt>
      <trkpt lat="47.60736" lon="7.01909">
        <ele>335.39999389648</ele>
        <time>2019-09-10T08:50:44Z</time>
      </trkpt>
      <trkpt lat="47.60707" lon="7.01848">
        <ele>335</ele>
        <time>2019-09-10T08:50:52Z</time>
      </trkpt>
      <trkpt lat="47.60677" lon="7.0178">
        <ele>335</ele>
        <time>2019-09-10T08:51:01Z</time>
      </trkpt>
      <trkpt lat="47.60647" lon="7.01712">
        <ele>335.20001220703</ele>
        <time>2019-09-10T08:51:10Z</time>
      </trkpt>
      <trkpt lat="47.6064" lon="7.01697">
        <ele>335.39999389648</ele>
        <time>2019-09-10T08:51:12Z</time>
      </trkpt>
      <trkpt lat="47.60609" lon="7.0163">
        <ele>335.60000610352</ele>
        <time>2019-09-10T08:51:21Z</time>
      </trkpt>
      <trkpt lat="47.60581" lon="7.01572">
        <ele>335.60000610352</ele>
        <time>2019-09-10T08:51:29Z</time>
      </trkpt>
      <trkpt lat="47.60559" lon="7.0152">
        <ele>335.39999389648</ele>
        <time>2019-09-10T08:51:36Z</time>
      </trkpt>
      <trkpt lat="47.60528" lon="7.01456">
        <ele>335.20001220703</ele>
        <time>2019-09-10T08:51:45Z</time>
      </trkpt>
      <trkpt lat="47.60508" lon="7.01414">
        <ele>335.20001220703</ele>
        <time>2019-09-10T08:51:51Z</time>
      </trkpt>
      <trkpt lat="47.60483" lon="7.01355">
        <ele>335.39999389648</ele>
        <time>2019-09-10T08:51:59Z</time>
      </trkpt>
      <trkpt lat="47.60458" lon="7.01302">
        <ele>335.60000610352</ele>
        <time>2019-09-10T08:52:06Z</time>
      </trkpt>
      <trkpt lat="47.60426" lon="7.01234">
        <ele>335.60000610352</ele>
        <time>2019-09-10T08:52:15Z</time>
      </trkpt>
      <trkpt lat="47.60422" lon="7.01227">
        <ele>335.60000610352</ele>
        <time>2019-09-10T08:52:16Z</time>
      </trkpt>
      <trkpt lat="47.60403" lon="7.01184">
        <ele>335.60000610352</ele>
        <time>2019-09-10T08:52:22Z</time>
      </trkpt>
      <trkpt lat="47.60385" lon="7.0115">
        <ele>335.79998779297</ele>
        <time>2019-09-10T08:52:27Z</time>
      </trkpt>
      <trkpt lat="47.60378" lon="7.01137">
        <ele>335.79998779297</ele>
        <time>2019-09-10T08:52:29Z</time>
      </trkpt>
      <trkpt lat="47.60345" lon="7.01083">
        <ele>335.79998779297</ele>
        <time>2019-09-10T08:52:37Z</time>
      </trkpt>
      <trkpt lat="47.60313" lon="7.01034">
        <ele>335.79998779297</ele>
        <time>2019-09-10T08:52:45Z</time>
      </trkpt>
      <trkpt lat="47.60277" lon="7.00982">
        <ele>335.60000610352</ele>
        <time>2019-09-10T08:52:53Z</time>
      </trkpt>
      <trkpt lat="47.60244" lon="7.00931">
        <ele>335.39999389648</ele>
        <time>2019-09-10T08:53:01Z</time>
      </trkpt>
      <trkpt lat="47.60218" lon="7.00889">
        <ele>335.39999389648</ele>
        <time>2019-09-10T08:53:08Z</time>
      </trkpt>
      <trkpt lat="47.6019" lon="7.00852">
        <ele>335.60000610352</ele>
        <time>2019-09-10T08:53:15Z</time>
      </trkpt>
      <trkpt lat="47.6016" lon="7.00806">
        <ele>335.60000610352</ele>
        <time>2019-09-10T08:53:23Z</time>
      </trkpt>
      <trkpt lat="47.60156" lon="7.008">
        <ele>335.79998779297</ele>
        <time>2019-09-10T08:53:24Z</time>
      </trkpt>
      <trkpt lat="47.60138" lon="7.00764">
        <ele>335.79998779297</ele>
        <time>2019-09-10T08:53:29Z</time>
      </trkpt>
      <trkpt lat="47.60121" lon="7.00714">
        <ele>336</ele>
        <time>2019-09-10T08:53:35Z</time>
      </trkpt>
      <trkpt lat="47.60108" lon="7.0064">
        <ele>335.79998779297</ele>
        <time>2019-09-10T08:53:43Z</time>
      </trkpt>
      <trkpt lat="47.60098" lon="7.00566">
        <ele>335.60000610352</ele>
        <time>2019-09-10T08:53:51Z</time>
      </trkpt>
      <trkpt lat="47.60094" lon="7.00482">
        <ele>335.39999389648</ele>
        <time>2019-09-10T08:54:00Z</time>
      </trkpt>
      <trkpt lat="47.60093" lon="7.00474">
        <ele>335.39999389648</ele>
        <time>2019-09-10T08:54:01Z</time>
      </trkpt>
      <trkpt lat="47.60093" lon="7.00404">
        <ele>335.39999389648</ele>
        <time>2019-09-10T08:54:09Z</time>
      </trkpt>
      <trkpt lat="47.60095" lon="7.00387">
        <ele>335.39999389648</ele>
        <time>2019-09-10T08:54:11Z</time>
      </trkpt>
      <trkpt lat="47.60098" lon="7.00357">
        <ele>335.39999389648</ele>
        <time>2019-09-10T08:54:15Z</time>
      </trkpt>
      <trkpt lat="47.60111" lon="7.00297">
        <ele>335.60000610352</ele>
        <time>2019-09-10T08:54:23Z</time>
      </trkpt>
      <trkpt lat="47.60126" lon="7.00231">
        <ele>335.79998779297</ele>
        <time>2019-09-10T08:54:32Z</time>
      </trkpt>
      <trkpt lat="47.60134" lon="7.00205">
        <ele>335.79998779297</ele>
        <time>2019-09-10T08:54:36Z</time>
      </trkpt>
      <trkpt lat="47.60135" lon="7.00197">
        <ele>335.79998779297</ele>
        <time>2019-09-10T08:54:37Z</time>
      </trkpt>
      <trkpt lat="47.60136" lon="7.0019">
        <ele>335.79998779297</ele>
        <time>2019-09-10T08:54:38Z</time>
      </trkpt>
      <trkpt lat="47.60143" lon="7.00165">
        <ele>335.79998779297</ele>
        <time>2019-09-10T08:54:41Z</time>
      </trkpt>
      <trkpt lat="47.60148" lon="7.00146">
        <ele>335.79998779297</ele>
        <time>2019-09-10T08:54:43Z</time>
      </trkpt>
      <trkpt lat="47.60147" lon="7.00128">
        <ele>335.79998779297</ele>
        <time>2019-09-10T08:54:45Z</time>
      </trkpt>
      <trkpt lat="47.60147" lon="7.00119">
        <ele>335.79998779297</ele>
        <time>2019-09-10T08:54:46Z</time>
      </trkpt>
      <trkpt lat="47.60147" lon="7.00102">
        <ele>335</ele>
        <time>2019-09-10T08:54:48Z</time>
      </trkpt>
      <trkpt lat="47.60145" lon="7.00085">
        <ele>334.20001220703</ele>
        <time>2019-09-10T08:54:50Z</time>
      </trkpt>
      <trkpt lat="47.6014" lon="7.0006">
        <ele>334</ele>
        <time>2019-09-10T08:54:53Z</time>
      </trkpt>
      <trkpt lat="47.60135" lon="7.00034">
        <ele>333.79998779297</ele>
        <time>2019-09-10T08:54:56Z</time>
      </trkpt>
      <trkpt lat="47.60115" lon="6.99977">
        <ele>333.39999389648</ele>
        <time>2019-09-10T08:55:03Z</time>
      </trkpt>
      <trkpt lat="47.60087" lon="6.99918">
        <ele>333</ele>
        <time>2019-09-10T08:55:11Z</time>
      </trkpt>
      <trkpt lat="47.60074" lon="6.99897">
        <ele>333</ele>
        <time>2019-09-10T08:55:14Z</time>
      </trkpt>
      <trkpt lat="47.60046" lon="6.99859">
        <ele>332.60000610352</ele>
        <time>2019-09-10T08:55:20Z</time>
      </trkpt>
      <trkpt lat="47.60007" lon="6.99815">
        <ele>332.39999389648</ele>
        <time>2019-09-10T08:55:28Z</time>
      </trkpt>
      <trkpt lat="47.59962" lon="6.99766">
        <ele>332.20001220703</ele>
        <time>2019-09-10T08:55:37Z</time>
      </trkpt>
      <trkpt lat="47.59915" lon="6.99715">
        <ele>332.60000610352</ele>
        <time>2019-09-10T08:55:46Z</time>
      </trkpt>
      <trkpt lat="47.5991" lon="6.99709">
        <ele>332.60000610352</ele>
        <time>2019-09-10T08:55:47Z</time>
      </trkpt>
      <trkpt lat="47.59869" lon="6.99665">
        <ele>332.79998779297</ele>
        <time>2019-09-10T08:55:55Z</time>
      </trkpt>
      <trkpt lat="47.59828" lon="6.99618">
        <ele>333</ele>
        <time>2019-09-10T08:56:03Z</time>
      </trkpt>
      <trkpt lat="47.59779" lon="6.99567">
        <ele>332.79998779297</ele>
        <time>2019-09-10T08:56:12Z</time>
      </trkpt>
      <trkpt lat="47.59738" lon="6.99522">
        <ele>332.79998779297</ele>
        <time>2019-09-10T08:56:20Z</time>
      </trkpt>
      <trkpt lat="47.59701" lon="6.99474">
        <ele>333.20001220703</ele>
        <time>2019-09-10T08:56:28Z</time>
      </trkpt>
      <trkpt lat="47.59662" lon="6.99408">
        <ele>333.60000610352</ele>
        <time>2019-09-10T08:56:37Z</time>
      </trkpt>
      <trkpt lat="47.59636" lon="6.99353">
        <ele>333.39999389648</ele>
        <time>2019-09-10T08:56:44Z</time>
      </trkpt>
      <trkpt lat="47.59615" lon="6.99292">
        <ele>333.39999389648</ele>
        <time>2019-09-10T08:56:51Z</time>
      </trkpt>
      <trkpt lat="47.59598" lon="6.99218">
        <ele>333.60000610352</ele>
        <time>2019-09-10T08:56:59Z</time>
      </trkpt>
      <trkpt lat="47.59586" lon="6.9914">
        <ele>333.60000610352</ele>
        <time>2019-09-10T08:57:07Z</time>
      </trkpt>
      <trkpt lat="47.59585" lon="6.99131">
        <ele>333.39999389648</ele>
        <time>2019-09-10T08:57:08Z</time>
      </trkpt>
      <trkpt lat="47.59581" lon="6.99042">
        <ele>333</ele>
        <time>2019-09-10T08:57:17Z</time>
      </trkpt>
      <trkpt lat="47.59581" lon="6.99032">
        <ele>333</ele>
        <time>2019-09-10T08:57:18Z</time>
      </trkpt>
      <trkpt lat="47.59578" lon="6.98957">
        <ele>333</ele>
        <time>2019-09-10T08:57:26Z</time>
      </trkpt>
      <trkpt lat="47.59577" lon="6.98891">
        <ele>333</ele>
        <time>2019-09-10T08:57:33Z</time>
      </trkpt>
      <trkpt lat="47.5957" lon="6.98825">
        <ele>333.20001220703</ele>
        <time>2019-09-10T08:57:40Z</time>
      </trkpt>
      <trkpt lat="47.59557" lon="6.9875">
        <ele>333.39999389648</ele>
        <time>2019-09-10T08:57:48Z</time>
      </trkpt>
      <trkpt lat="47.59531" lon="6.98672">
        <ele>333.39999389648</ele>
        <time>2019-09-10T08:57:57Z</time>
      </trkpt>
      <trkpt lat="47.59501" lon="6.98611">
        <ele>333.20001220703</ele>
        <time>2019-09-10T08:58:05Z</time>
      </trkpt>
      <trkpt lat="47.59461" lon="6.98548">
        <ele>333</ele>
        <time>2019-09-10T08:58:14Z</time>
      </trkpt>
      <trkpt lat="47.59456" lon="6.98541">
        <ele>333</ele>
        <time>2019-09-10T08:58:15Z</time>
      </trkpt>
      <trkpt lat="47.5942" lon="6.98485">
        <ele>332.79998779297</ele>
        <time>2019-09-10T08:58:23Z</time>
      </trkpt>
      <trkpt lat="47.59379" lon="6.98423">
        <ele>332.79998779297</ele>
        <time>2019-09-10T08:58:32Z</time>
      </trkpt>
      <trkpt lat="47.59375" lon="6.98416">
        <ele>332.79998779297</ele>
        <time>2019-09-10T08:58:33Z</time>
      </trkpt>
      <trkpt lat="47.59338" lon="6.98353">
        <ele>332.60000610352</ele>
        <time>2019-09-10T08:58:42Z</time>
      </trkpt>
      <trkpt lat="47.59334" lon="6.98346">
        <ele>332.60000610352</ele>
        <time>2019-09-10T08:58:43Z</time>
      </trkpt>
      <trkpt lat="47.5931" lon="6.98303">
        <ele>332.79998779297</ele>
        <time>2019-09-10T08:58:50Z</time>
      </trkpt>
      <trkpt lat="47.59286" lon="6.9826">
        <ele>332.79998779297</ele>
        <time>2019-09-10T08:58:57Z</time>
      </trkpt>
      <trkpt lat="47.59275" lon="6.9824">
        <ele>332.39999389648</ele>
        <time>2019-09-10T08:59:00Z</time>
      </trkpt>
      <trkpt lat="47.59271" lon="6.98234">
        <ele>332.39999389648</ele>
        <time>2019-09-10T08:59:01Z</time>
      </trkpt>
      <trkpt lat="47.59265" lon="6.9823">
        <ele>332.39999389648</ele>
        <time>2019-09-10T08:59:02Z</time>
      </trkpt>
      <trkpt lat="47.59245" lon="6.98207">
        <ele>331.79998779297</ele>
        <time>2019-09-10T08:59:06Z</time>
      </trkpt>
      <trkpt lat="47.5924" lon="6.982">
        <ele>331.60000610352</ele>
        <time>2019-09-10T08:59:07Z</time>
      </trkpt>
      <trkpt lat="47.59232" lon="6.98186">
        <ele>331.39999389648</ele>
        <time>2019-09-10T08:59:09Z</time>
      </trkpt>
      <trkpt lat="47.59206" lon="6.98145">
        <ele>331.20001220703</ele>
        <time>2019-09-10T08:59:15Z</time>
      </trkpt>
      <trkpt lat="47.59176" lon="6.981">
        <ele>331.39999389648</ele>
        <time>2019-09-10T08:59:22Z</time>
      </trkpt>
      <trkpt lat="47.59146" lon="6.98054">
        <ele>331.20001220703</ele>
        <time>2019-09-10T08:59:29Z</time>
      </trkpt>
      <trkpt lat="47.59105" lon="6.97992">
        <ele>331.20001220703</ele>
        <time>2019-09-10T08:59:38Z</time>
      </trkpt>
      <trkpt lat="47.591" lon="6.97985">
        <ele>331.20001220703</ele>
        <time>2019-09-10T08:59:39Z</time>
      </trkpt>
      <trkpt lat="47.59065" lon="6.9793">
        <ele>331.20001220703</ele>
        <time>2019-09-10T08:59:47Z</time>
      </trkpt>
      <trkpt lat="47.5903" lon="6.97878">
        <ele>331.20001220703</ele>
        <time>2019-09-10T08:59:55Z</time>
      </trkpt>
      <trkpt lat="47.58991" lon="6.97817">
        <ele>331.20001220703</ele>
        <time>2019-09-10T09:00:04Z</time>
      </trkpt>
      <trkpt lat="47.5896" lon="6.97768">
        <ele>331</ele>
        <time>2019-09-10T09:00:11Z</time>
      </trkpt>
      <trkpt lat="47.58919" lon="6.97705">
        <ele>330.79998779297</ele>
        <time>2019-09-10T09:00:20Z</time>
      </trkpt>
      <trkpt lat="47.5891" lon="6.97692">
        <ele>330.60000610352</ele>
        <time>2019-09-10T09:00:22Z</time>
      </trkpt>
      <trkpt lat="47.58873" lon="6.97633">
        <ele>330.60000610352</ele>
        <time>2019-09-10T09:00:31Z</time>
      </trkpt>
      <trkpt lat="47.58869" lon="6.97627">
        <ele>330.60000610352</ele>
        <time>2019-09-10T09:00:32Z</time>
      </trkpt>
      <trkpt lat="47.58831" lon="6.97567">
        <ele>330.60000610352</ele>
        <time>2019-09-10T09:00:41Z</time>
      </trkpt>
      <trkpt lat="47.58793" lon="6.97506">
        <ele>330.39999389648</ele>
        <time>2019-09-10T09:00:50Z</time>
      </trkpt>
      <trkpt lat="47.58754" lon="6.97446">
        <ele>330.60000610352</ele>
        <time>2019-09-10T09:00:59Z</time>
      </trkpt>
      <trkpt lat="47.58749" lon="6.9744">
        <ele>330.60000610352</ele>
        <time>2019-09-10T09:01:00Z</time>
      </trkpt>
      <trkpt lat="47.5871" lon="6.9738">
        <ele>330.60000610352</ele>
        <time>2019-09-10T09:01:09Z</time>
      </trkpt>
      <trkpt lat="47.58705" lon="6.97374">
        <ele>330.60000610352</ele>
        <time>2019-09-10T09:01:10Z</time>
      </trkpt>
      <trkpt lat="47.58666" lon="6.97314">
        <ele>330.39999389648</ele>
        <time>2019-09-10T09:01:19Z</time>
      </trkpt>
      <trkpt lat="47.58629" lon="6.97258">
        <ele>330.20001220703</ele>
        <time>2019-09-10T09:01:28Z</time>
      </trkpt>
      <trkpt lat="47.58591" lon="6.972">
        <ele>330.20001220703</ele>
        <time>2019-09-10T09:01:37Z</time>
      </trkpt>
      <trkpt lat="47.58552" lon="6.9714">
        <ele>330.20001220703</ele>
        <time>2019-09-10T09:01:46Z</time>
      </trkpt>
      <trkpt lat="47.58539" lon="6.9712">
        <ele>330.20001220703</ele>
        <time>2019-09-10T09:01:49Z</time>
      </trkpt>
      <trkpt lat="47.58525" lon="6.97099">
        <ele>330.20001220703</ele>
        <time>2019-09-10T09:01:52Z</time>
      </trkpt>
      <trkpt lat="47.58503" lon="6.97064">
        <ele>330</ele>
        <time>2019-09-10T09:01:57Z</time>
      </trkpt>
      <trkpt lat="47.58464" lon="6.97004">
        <ele>330</ele>
        <time>2019-09-10T09:02:06Z</time>
      </trkpt>
      <trkpt lat="47.58425" lon="6.96945">
        <ele>330.20001220703</ele>
        <time>2019-09-10T09:02:15Z</time>
      </trkpt>
      <trkpt lat="47.5839" lon="6.96892">
        <ele>330.60000610352</ele>
        <time>2019-09-10T09:02:23Z</time>
      </trkpt>
      <trkpt lat="47.58352" lon="6.96833">
        <ele>330.39999389648</ele>
        <time>2019-09-10T09:02:32Z</time>
      </trkpt>
      <trkpt lat="47.58347" lon="6.96826">
        <ele>330.20001220703</ele>
        <time>2019-09-10T09:02:33Z</time>
      </trkpt>
      <trkpt lat="47.5831" lon="6.96768">
        <ele>330.20001220703</ele>
        <time>2019-09-10T09:02:42Z</time>
      </trkpt>
      <trkpt lat="47.58302" lon="6.96755">
        <ele>330.20001220703</ele>
        <time>2019-09-10T09:02:44Z</time>
      </trkpt>
      <trkpt lat="47.58272" lon="6.96708">
        <ele>330</ele>
        <time>2019-09-10T09:02:52Z</time>
      </trkpt>
      <trkpt lat="47.58265" lon="6.96697">
        <ele>330</ele>
        <time>2019-09-10T09:02:54Z</time>
      </trkpt>
      <trkpt lat="47.5825" lon="6.96674">
        <ele>330</ele>
        <time>2019-09-10T09:02:58Z</time>
      </trkpt>
      <trkpt lat="47.58222" lon="6.96627">
        <ele>330</ele>
        <time>2019-09-10T09:03:06Z</time>
      </trkpt>
      <trkpt lat="47.58193" lon="6.96583">
        <ele>330</ele>
        <time>2019-09-10T09:03:14Z</time>
      </trkpt>
      <trkpt lat="47.5816" lon="6.96535">
        <ele>330.39999389648</ele>
        <time>2019-09-10T09:03:23Z</time>
      </trkpt>
      <trkpt lat="47.58126" lon="6.96484">
        <ele>330.39999389648</ele>
        <time>2019-09-10T09:03:32Z</time>
      </trkpt>
      <trkpt lat="47.58099" lon="6.96443">
        <ele>330.60000610352</ele>
        <time>2019-09-10T09:03:39Z</time>
      </trkpt>
      <trkpt lat="47.58066" lon="6.96394">
        <ele>330.39999389648</ele>
        <time>2019-09-10T09:03:47Z</time>
      </trkpt>
      <trkpt lat="47.58058" lon="6.96381">
        <ele>330.39999389648</ele>
        <time>2019-09-10T09:03:49Z</time>
      </trkpt>
      <trkpt lat="47.58021" lon="6.96324">
        <ele>330</ele>
        <time>2019-09-10T09:03:58Z</time>
      </trkpt>
      <trkpt lat="47.57984" lon="6.96266">
        <ele>330</ele>
        <time>2019-09-10T09:04:07Z</time>
      </trkpt>
      <trkpt lat="47.57948" lon="6.96206">
        <ele>330</ele>
        <time>2019-09-10T09:04:16Z</time>
      </trkpt>
      <trkpt lat="47.57943" lon="6.962">
        <ele>330</ele>
        <time>2019-09-10T09:04:17Z</time>
      </trkpt>
      <trkpt lat="47.57906" lon="6.96141">
        <ele>330.20001220703</ele>
        <time>2019-09-10T09:04:26Z</time>
      </trkpt>
      <trkpt lat="47.57893" lon="6.96123">
        <ele>330.20001220703</ele>
        <time>2019-09-10T09:04:29Z</time>
      </trkpt>
      <trkpt lat="47.57859" lon="6.96077">
        <ele>330.20001220703</ele>
        <time>2019-09-10T09:04:36Z</time>
      </trkpt>
      <trkpt lat="47.5784" lon="6.96052">
        <ele>329.60000610352</ele>
        <time>2019-09-10T09:04:40Z</time>
      </trkpt>
      <trkpt lat="47.57818" lon="6.96019">
        <ele>328.79998779297</ele>
        <time>2019-09-10T09:04:45Z</time>
      </trkpt>
      <trkpt lat="47.57781" lon="6.95961">
        <ele>328.79998779297</ele>
        <time>2019-09-10T09:04:54Z</time>
      </trkpt>
      <trkpt lat="47.57772" lon="6.95948">
        <ele>328.79998779297</ele>
        <time>2019-09-10T09:04:56Z</time>
      </trkpt>
      <trkpt lat="47.57734" lon="6.9589">
        <ele>329</ele>
        <time>2019-09-10T09:05:05Z</time>
      </trkpt>
      <trkpt lat="47.5773" lon="6.95884">
        <ele>328.79998779297</ele>
        <time>2019-09-10T09:05:06Z</time>
      </trkpt>
      <trkpt lat="47.57696" lon="6.95833">
        <ele>328.79998779297</ele>
        <time>2019-09-10T09:05:14Z</time>
      </trkpt>
      <trkpt lat="47.57662" lon="6.95782">
        <ele>329.20001220703</ele>
        <time>2019-09-10T09:05:22Z</time>
      </trkpt>
      <trkpt lat="47.57623" lon="6.95725">
        <ele>329.20001220703</ele>
        <time>2019-09-10T09:05:31Z</time>
      </trkpt>
      <trkpt lat="47.57619" lon="6.95719">
        <ele>329.20001220703</ele>
        <time>2019-09-10T09:05:32Z</time>
      </trkpt>
      <trkpt lat="47.57583" lon="6.95669">
        <ele>329</ele>
        <time>2019-09-10T09:05:40Z</time>
      </trkpt>
      <trkpt lat="47.5757" lon="6.95651">
        <ele>329</ele>
        <time>2019-09-10T09:05:43Z</time>
      </trkpt>
      <trkpt lat="47.57538" lon="6.95612">
        <ele>329</ele>
        <time>2019-09-10T09:05:50Z</time>
      </trkpt>
      <trkpt lat="47.57494" lon="6.95561">
        <ele>329.20001220703</ele>
        <time>2019-09-10T09:05:59Z</time>
      </trkpt>
      <trkpt lat="47.57489" lon="6.95555">
        <ele>329.20001220703</ele>
        <time>2019-09-10T09:06:00Z</time>
      </trkpt>
      <trkpt lat="47.57446" lon="6.95506">
        <ele>329</ele>
        <time>2019-09-10T09:06:09Z</time>
      </trkpt>
      <trkpt lat="47.57441" lon="6.95501">
        <ele>329</ele>
        <time>2019-09-10T09:06:10Z</time>
      </trkpt>
      <trkpt lat="47.57407" lon="6.95462">
        <ele>329</ele>
        <time>2019-09-10T09:06:17Z</time>
      </trkpt>
      <trkpt lat="47.57364" lon="6.95412">
        <ele>329</ele>
        <time>2019-09-10T09:06:26Z</time>
      </trkpt>
      <trkpt lat="47.57331" lon="6.95375">
        <ele>329</ele>
        <time>2019-09-10T09:06:33Z</time>
      </trkpt>
      <trkpt lat="47.57288" lon="6.95327">
        <ele>329</ele>
        <time>2019-09-10T09:06:42Z</time>
      </trkpt>
      <trkpt lat="47.57274" lon="6.95311">
        <ele>329</ele>
        <time>2019-09-10T09:06:45Z</time>
      </trkpt>
      <trkpt lat="47.57261" lon="6.95295">
        <ele>329</ele>
        <time>2019-09-10T09:06:48Z</time>
      </trkpt>
      <trkpt lat="47.57233" lon="6.95263">
        <ele>328.79998779297</ele>
        <time>2019-09-10T09:06:54Z</time>
      </trkpt>
      <trkpt lat="47.57191" lon="6.95216">
        <ele>328.60000610352</ele>
        <time>2019-09-10T09:07:03Z</time>
      </trkpt>
      <trkpt lat="47.57148" lon="6.95167">
        <ele>328.60000610352</ele>
        <time>2019-09-10T09:07:12Z</time>
      </trkpt>
      <trkpt lat="47.57139" lon="6.95156">
        <ele>328.60000610352</ele>
        <time>2019-09-10T09:07:14Z</time>
      </trkpt>
      <trkpt lat="47.57092" lon="6.95102">
        <ele>328.60000610352</ele>
        <time>2019-09-10T09:07:24Z</time>
      </trkpt>
      <trkpt lat="47.57045" lon="6.95048">
        <ele>328.39999389648</ele>
        <time>2019-09-10T09:07:34Z</time>
      </trkpt>
      <trkpt lat="47.5704" lon="6.95042">
        <ele>328.39999389648</ele>
        <time>2019-09-10T09:07:35Z</time>
      </trkpt>
      <trkpt lat="47.57003" lon="6.94999">
        <ele>328</ele>
        <time>2019-09-10T09:07:43Z</time>
      </trkpt>
      <trkpt lat="47.5696" lon="6.94949">
        <ele>328</ele>
        <time>2019-09-10T09:07:52Z</time>
      </trkpt>
      <trkpt lat="47.56918" lon="6.94896">
        <ele>328</ele>
        <time>2019-09-10T09:08:01Z</time>
      </trkpt>
      <trkpt lat="47.56879" lon="6.9484">
        <ele>328.20001220703</ele>
        <time>2019-09-10T09:08:10Z</time>
      </trkpt>
      <trkpt lat="47.56842" lon="6.94781">
        <ele>328</ele>
        <time>2019-09-10T09:08:19Z</time>
      </trkpt>
      <trkpt lat="47.56838" lon="6.94774">
        <ele>328</ele>
        <time>2019-09-10T09:08:20Z</time>
      </trkpt>
      <trkpt lat="47.56801" lon="6.94716">
        <ele>328</ele>
        <time>2019-09-10T09:08:29Z</time>
      </trkpt>
      <trkpt lat="47.56764" lon="6.94657">
        <ele>328.20001220703</ele>
        <time>2019-09-10T09:08:38Z</time>
      </trkpt>
      <trkpt lat="47.56727" lon="6.94598">
        <ele>328.39999389648</ele>
        <time>2019-09-10T09:08:47Z</time>
      </trkpt>
      <trkpt lat="47.56689" lon="6.94539">
        <ele>328.39999389648</ele>
        <time>2019-09-10T09:08:56Z</time>
      </trkpt>
      <trkpt lat="47.56658" lon="6.94488">
        <ele>328.20001220703</ele>
        <time>2019-09-10T09:09:04Z</time>
      </trkpt>
      <trkpt lat="47.56643" lon="6.94454">
        <ele>328</ele>
        <time>2019-09-10T09:09:09Z</time>
      </trkpt>
      <trkpt lat="47.56639" lon="6.94448">
        <ele>328</ele>
        <time>2019-09-10T09:09:10Z</time>
      </trkpt>
      <trkpt lat="47.56617" lon="6.94423">
        <ele>328</ele>
        <time>2019-09-10T09:09:15Z</time>
      </trkpt>
      <trkpt lat="47.566" lon="6.944">
        <ele>328.20001220703</ele>
        <time>2019-09-10T09:09:20Z</time>
      </trkpt>
      <trkpt lat="47.56597" lon="6.94399">
        <ele>328.20001220703</ele>
        <time>2019-09-10T09:09:21Z</time>
      </trkpt>
      <trkpt lat="47.56591" lon="6.94404">
        <ele>328.20001220703</ele>
        <time>2019-09-10T09:09:23Z</time>
      </trkpt>
      <trkpt lat="47.56583" lon="6.94418">
        <ele>328.20001220703</ele>
        <time>2019-09-10T09:09:26Z</time>
      </trkpt>
      <trkpt lat="47.56578" lon="6.94429">
        <ele>328.39999389648</ele>
        <time>2019-09-10T09:09:28Z</time>
      </trkpt>
      <trkpt lat="47.56563" lon="6.94448">
        <ele>328.39999389648</ele>
        <time>2019-09-10T09:09:33Z</time>
      </trkpt>
      <trkpt lat="47.5656" lon="6.94469">
        <ele>327.60000610352</ele>
        <time>2019-09-10T09:09:37Z</time>
      </trkpt>
      <trkpt lat="47.56559" lon="6.94484">
        <ele>327.20001220703</ele>
        <time>2019-09-10T09:09:40Z</time>
      </trkpt>
      <trkpt lat="47.56559" lon="6.94489">
        <ele>327.20001220703</ele>
        <time>2019-09-10T09:09:41Z</time>
      </trkpt>
      <trkpt lat="47.5656" lon="6.94496">
        <ele>327.20001220703</ele>
        <time>2019-09-10T09:09:43Z</time>
      </trkpt>
      <trkpt lat="47.56564" lon="6.94496">
        <ele>327.20001220703</ele>
        <time>2019-09-10T09:09:46Z</time>
      </trkpt>
      <trkpt lat="47.56564" lon="6.94491">
        <ele>327</ele>
        <time>2019-09-10T09:09:48Z</time>
      </trkpt>
      <trkpt lat="47.56565" lon="6.94484">
        <ele>327</ele>
        <time>2019-09-10T09:09:50Z</time>
      </trkpt>
      <trkpt lat="47.56567" lon="6.9446">
        <ele>327</ele>
        <time>2019-09-10T09:09:56Z</time>
      </trkpt>
      <trkpt lat="47.56567" lon="6.94458">
        <ele>327</ele>
        <time>2019-09-10T09:09:59Z</time>
      </trkpt>
      <trkpt lat="47.56568" lon="6.94455">
        <ele>326.60000610352</ele>
        <time>2019-09-10T09:10:20Z</time>
      </trkpt>
      <trkpt lat="47.5657" lon="6.94449">
        <ele>326.60000610352</ele>
        <time>2019-09-10T09:10:23Z</time>
      </trkpt>
      <trkpt lat="47.56579" lon="6.94436">
        <ele>326.60000610352</ele>
        <time>2019-09-10T09:10:29Z</time>
      </trkpt>
      <trkpt lat="47.56591" lon="6.94415">
        <ele>326.79998779297</ele>
        <time>2019-09-10T09:10:35Z</time>
      </trkpt>
      <trkpt lat="47.56593" lon="6.94392">
        <ele>327.39999389648</ele>
        <time>2019-09-10T09:10:40Z</time>
      </trkpt>
      <trkpt lat="47.56584" lon="6.94374">
        <ele>328</ele>
        <time>2019-09-10T09:10:44Z</time>
      </trkpt>
      <trkpt lat="47.56578" lon="6.94364">
        <ele>328.20001220703</ele>
        <time>2019-09-10T09:10:46Z</time>
      </trkpt>
      <trkpt lat="47.56565" lon="6.94343">
        <ele>328.39999389648</ele>
        <time>2019-09-10T09:10:50Z</time>
      </trkpt>
      <trkpt lat="47.56536" lon="6.94299">
        <ele>328.60000610352</ele>
        <time>2019-09-10T09:10:58Z</time>
      </trkpt>
      <trkpt lat="47.56507" lon="6.94252">
        <ele>328.60000610352</ele>
        <time>2019-09-10T09:11:06Z</time>
      </trkpt>
      <trkpt lat="47.56475" lon="6.94199">
        <ele>329</ele>
        <time>2019-09-10T09:11:15Z</time>
      </trkpt>
      <trkpt lat="47.5645" lon="6.94153">
        <ele>329</ele>
        <time>2019-09-10T09:11:23Z</time>
      </trkpt>
      <trkpt lat="47.56433" lon="6.94125">
        <ele>329.39999389648</ele>
        <time>2019-09-10T09:11:28Z</time>
      </trkpt>
      <trkpt lat="47.56415" lon="6.94094">
        <ele>329.60000610352</ele>
        <time>2019-09-10T09:11:33Z</time>
      </trkpt>
      <trkpt lat="47.56387" lon="6.94042">
        <ele>329.60000610352</ele>
        <time>2019-09-10T09:11:41Z</time>
      </trkpt>
      <trkpt lat="47.56351" lon="6.93973">
        <ele>328.60000610352</ele>
        <time>2019-09-10T09:11:51Z</time>
      </trkpt>
      <trkpt lat="47.56334" lon="6.93939">
        <ele>328.39999389648</ele>
        <time>2019-09-10T09:11:56Z</time>
      </trkpt>
      <trkpt lat="47.56331" lon="6.93933">
        <ele>328.39999389648</ele>
        <time>2019-09-10T09:11:57Z</time>
      </trkpt>
      <trkpt lat="47.5632" lon="6.93916">
        <ele>328.20001220703</ele>
        <time>2019-09-10T09:12:00Z</time>
      </trkpt>
      <trkpt lat="47.56312" lon="6.93908">
        <ele>328.20001220703</ele>
        <time>2019-09-10T09:12:02Z</time>
      </trkpt>
      <trkpt lat="47.563" lon="6.9389">
        <ele>328.20001220703</ele>
        <time>2019-09-10T09:12:05Z</time>
      </trkpt>
      <trkpt lat="47.56296" lon="6.93883">
        <ele>328.20001220703</ele>
        <time>2019-09-10T09:12:06Z</time>
      </trkpt>
      <trkpt lat="47.56266" lon="6.93833">
        <ele>328</ele>
        <time>2019-09-10T09:12:13Z</time>
      </trkpt>
      <trkpt lat="47.56255" lon="6.93815">
        <ele>327.20001220703</ele>
        <time>2019-09-10T09:12:16Z</time>
      </trkpt>
      <trkpt lat="47.56241" lon="6.93791">
        <ele>327</ele>
        <time>2019-09-10T09:12:20Z</time>
      </trkpt>
      <trkpt lat="47.5621" lon="6.93736">
        <ele>326.60000610352</ele>
        <time>2019-09-10T09:12:29Z</time>
      </trkpt>
      <trkpt lat="47.56185" lon="6.93693">
        <ele>326.60000610352</ele>
        <time>2019-09-10T09:12:36Z</time>
      </trkpt>
      <trkpt lat="47.56151" lon="6.93626">
        <ele>326.60000610352</ele>
        <time>2019-09-10T09:12:46Z</time>
      </trkpt>
      <trkpt lat="47.56121" lon="6.93563">
        <ele>326.60000610352</ele>
        <time>2019-09-10T09:12:55Z</time>
      </trkpt>
      <trkpt lat="47.56095" lon="6.93508">
        <ele>326.39999389648</ele>
        <time>2019-09-10T09:13:03Z</time>
      </trkpt>
      <trkpt lat="47.56067" lon="6.93441">
        <ele>326.60000610352</ele>
        <time>2019-09-10T09:13:12Z</time>
      </trkpt>
      <trkpt lat="47.56046" lon="6.93381">
        <ele>326.39999389648</ele>
        <time>2019-09-10T09:13:20Z</time>
      </trkpt>
      <trkpt lat="47.5604" lon="6.93367">
        <ele>326.39999389648</ele>
        <time>2019-09-10T09:13:22Z</time>
      </trkpt>
      <trkpt lat="47.56023" lon="6.93324">
        <ele>326.39999389648</ele>
        <time>2019-09-10T09:13:28Z</time>
      </trkpt>
      <trkpt lat="47.55994" lon="6.93254">
        <ele>326.39999389648</ele>
        <time>2019-09-10T09:13:38Z</time>
      </trkpt>
      <trkpt lat="47.55968" lon="6.93182">
        <ele>326.60000610352</ele>
        <time>2019-09-10T09:13:47Z</time>
      </trkpt>
      <trkpt lat="47.55965" lon="6.93175">
        <ele>326.60000610352</ele>
        <time>2019-09-10T09:13:48Z</time>
      </trkpt>
      <trkpt lat="47.55938" lon="6.93106">
        <ele>326.60000610352</ele>
        <time>2019-09-10T09:13:57Z</time>
      </trkpt>
      <trkpt lat="47.55913" lon="6.93038">
        <ele>326.39999389648</ele>
        <time>2019-09-10T09:14:06Z</time>
      </trkpt>
      <trkpt lat="47.55909" lon="6.93022">
        <ele>326.20001220703</ele>
        <time>2019-09-10T09:14:08Z</time>
      </trkpt>
      <trkpt lat="47.55905" lon="6.92996">
        <ele>326.20001220703</ele>
        <time>2019-09-10T09:14:11Z</time>
      </trkpt>
      <trkpt lat="47.55897" lon="6.92972">
        <ele>326.20001220703</ele>
        <time>2019-09-10T09:14:14Z</time>
      </trkpt>
      <trkpt lat="47.55891" lon="6.92957">
        <ele>326.20001220703</ele>
        <time>2019-09-10T09:14:16Z</time>
      </trkpt>
      <trkpt lat="47.55864" lon="6.9289">
        <ele>325.79998779297</ele>
        <time>2019-09-10T09:14:25Z</time>
      </trkpt>
      <trkpt lat="47.55843" lon="6.92832">
        <ele>325.79998779297</ele>
        <time>2019-09-10T09:14:33Z</time>
      </trkpt>
      <trkpt lat="47.5583" lon="6.92795">
        <ele>325.79998779297</ele>
        <time>2019-09-10T09:14:38Z</time>
      </trkpt>
      <trkpt lat="47.55828" lon="6.92779">
        <ele>325.79998779297</ele>
        <time>2019-09-10T09:14:40Z</time>
      </trkpt>
      <trkpt lat="47.55824" lon="6.92764">
        <ele>325.79998779297</ele>
        <time>2019-09-10T09:14:42Z</time>
      </trkpt>
      <trkpt lat="47.55818" lon="6.92752">
        <ele>325.79998779297</ele>
        <time>2019-09-10T09:14:44Z</time>
      </trkpt>
      <trkpt lat="47.55808" lon="6.92733">
        <ele>325.60000610352</ele>
        <time>2019-09-10T09:14:47Z</time>
      </trkpt>
      <trkpt lat="47.55803" lon="6.9272">
        <ele>325.60000610352</ele>
        <time>2019-09-10T09:14:49Z</time>
      </trkpt>
      <trkpt lat="47.55785" lon="6.92676">
        <ele>325.39999389648</ele>
        <time>2019-09-10T09:14:55Z</time>
      </trkpt>
      <trkpt lat="47.55782" lon="6.92668">
        <ele>325.39999389648</ele>
        <time>2019-09-10T09:14:56Z</time>
      </trkpt>
      <trkpt lat="47.55755" lon="6.9261">
        <ele>325.39999389648</ele>
        <time>2019-09-10T09:15:04Z</time>
      </trkpt>
      <trkpt lat="47.55732" lon="6.92561">
        <ele>325.39999389648</ele>
        <time>2019-09-10T09:15:11Z</time>
      </trkpt>
      <trkpt lat="47.55729" lon="6.92555">
        <ele>325.39999389648</ele>
        <time>2019-09-10T09:15:12Z</time>
      </trkpt>
      <trkpt lat="47.55719" lon="6.92537">
        <ele>325.60000610352</ele>
        <time>2019-09-10T09:15:17Z</time>
      </trkpt>
      <trkpt lat="47.55716" lon="6.92532">
        <ele>325.60000610352</ele>
        <time>2019-09-10T09:15:19Z</time>
      </trkpt>
      <trkpt lat="47.55717" lon="6.92526">
        <ele>326.20001220703</ele>
        <time>2019-09-10T09:15:21Z</time>
      </trkpt>
      <trkpt lat="47.55718" lon="6.92523">
        <ele>326.60000610352</ele>
        <time>2019-09-10T09:15:22Z</time>
      </trkpt>
      <trkpt lat="47.5572" lon="6.92518">
        <ele>327.39999389648</ele>
        <time>2019-09-10T09:15:24Z</time>
      </trkpt>
      <trkpt lat="47.55721" lon="6.92515">
        <ele>327.60000610352</ele>
        <time>2019-09-10T09:15:25Z</time>
      </trkpt>
      <trkpt lat="47.55724" lon="6.92508">
        <ele>328.20001220703</ele>
        <time>2019-09-10T09:15:27Z</time>
      </trkpt>
      <trkpt lat="47.55727" lon="6.92503">
        <ele>329</ele>
        <time>2019-09-10T09:15:29Z</time>
      </trkpt>
      <trkpt lat="47.55729" lon="6.92497">
        <ele>329.39999389648</ele>
        <time>2019-09-10T09:15:32Z</time>
      </trkpt>
      <trkpt lat="47.55725" lon="6.92485">
        <ele>329.39999389648</ele>
        <time>2019-09-10T09:15:36Z</time>
      </trkpt>
      <trkpt lat="47.55722" lon="6.92482">
        <ele>329.39999389648</ele>
        <time>2019-09-10T09:15:37Z</time>
      </trkpt>
      <trkpt lat="47.55711" lon="6.9247">
        <ele>329.20001220703</ele>
        <time>2019-09-10T09:15:40Z</time>
      </trkpt>
      <trkpt lat="47.55707" lon="6.92464">
        <ele>329</ele>
        <time>2019-09-10T09:15:41Z</time>
      </trkpt>
      <trkpt lat="47.55687" lon="6.92431">
        <ele>328</ele>
        <time>2019-09-10T09:15:46Z</time>
      </trkpt>
      <trkpt lat="47.55675" lon="6.92409">
        <ele>326.79998779297</ele>
        <time>2019-09-10T09:15:49Z</time>
      </trkpt>
      <trkpt lat="47.55656" lon="6.92369">
        <ele>326</ele>
        <time>2019-09-10T09:15:55Z</time>
      </trkpt>
      <trkpt lat="47.55648" lon="6.9235">
        <ele>325.79998779297</ele>
        <time>2019-09-10T09:15:58Z</time>
      </trkpt>
      <trkpt lat="47.55637" lon="6.92323">
        <ele>325.20001220703</ele>
        <time>2019-09-10T09:16:02Z</time>
      </trkpt>
      <trkpt lat="47.55612" lon="6.92281">
        <ele>325.20001220703</ele>
        <time>2019-09-10T09:16:09Z</time>
      </trkpt>
      <trkpt lat="47.55583" lon="6.92224">
        <ele>325.20001220703</ele>
        <time>2019-09-10T09:16:17Z</time>
      </trkpt>
      <trkpt lat="47.5555" lon="6.9216">
        <ele>325.20001220703</ele>
        <time>2019-09-10T09:16:26Z</time>
      </trkpt>
      <trkpt lat="47.55546" lon="6.92153">
        <ele>325.20001220703</ele>
        <time>2019-09-10T09:16:27Z</time>
      </trkpt>
      <trkpt lat="47.55514" lon="6.92092">
        <ele>325.20001220703</ele>
        <time>2019-09-10T09:16:36Z</time>
      </trkpt>
      <trkpt lat="47.55481" lon="6.9203">
        <ele>325.20001220703</ele>
        <time>2019-09-10T09:16:45Z</time>
      </trkpt>
      <trkpt lat="47.55448" lon="6.91969">
        <ele>325.20001220703</ele>
        <time>2019-09-10T09:16:54Z</time>
      </trkpt>
      <trkpt lat="47.55422" lon="6.9192">
        <ele>325.20001220703</ele>
        <time>2019-09-10T09:17:01Z</time>
      </trkpt>
      <trkpt lat="47.55393" lon="6.91864">
        <ele>325.20001220703</ele>
        <time>2019-09-10T09:17:09Z</time>
      </trkpt>
      <trkpt lat="47.55367" lon="6.91813">
        <ele>325.20001220703</ele>
        <time>2019-09-10T09:17:17Z</time>
      </trkpt>
      <trkpt lat="47.55331" lon="6.91745">
        <ele>325.39999389648</ele>
        <time>2019-09-10T09:17:27Z</time>
      </trkpt>
      <trkpt lat="47.55328" lon="6.91738">
        <ele>325.39999389648</ele>
        <time>2019-09-10T09:17:28Z</time>
      </trkpt>
      <trkpt lat="47.55297" lon="6.91678">
        <ele>325.39999389648</ele>
        <time>2019-09-10T09:17:37Z</time>
      </trkpt>
      <trkpt lat="47.55263" lon="6.91615">
        <ele>325.20001220703</ele>
        <time>2019-09-10T09:17:46Z</time>
      </trkpt>
      <trkpt lat="47.55259" lon="6.91608">
        <ele>325.20001220703</ele>
        <time>2019-09-10T09:17:47Z</time>
      </trkpt>
      <trkpt lat="47.55224" lon="6.91542">
        <ele>325.39999389648</ele>
        <time>2019-09-10T09:17:57Z</time>
      </trkpt>
      <trkpt lat="47.5522" lon="6.91535">
        <ele>325.39999389648</ele>
        <time>2019-09-10T09:17:58Z</time>
      </trkpt>
      <trkpt lat="47.55192" lon="6.91482">
        <ele>325.39999389648</ele>
        <time>2019-09-10T09:18:06Z</time>
      </trkpt>
      <trkpt lat="47.55164" lon="6.91428">
        <ele>325.20001220703</ele>
        <time>2019-09-10T09:18:14Z</time>
      </trkpt>
      <trkpt lat="47.55127" lon="6.9136">
        <ele>325</ele>
        <time>2019-09-10T09:18:24Z</time>
      </trkpt>
      <trkpt lat="47.55124" lon="6.91353">
        <ele>325</ele>
        <time>2019-09-10T09:18:25Z</time>
      </trkpt>
      <trkpt lat="47.55091" lon="6.9129">
        <ele>325</ele>
        <time>2019-09-10T09:18:34Z</time>
      </trkpt>
      <trkpt lat="47.55054" lon="6.9122">
        <ele>324.79998779297</ele>
        <time>2019-09-10T09:18:44Z</time>
      </trkpt>
      <trkpt lat="47.55051" lon="6.91213">
        <ele>324.79998779297</ele>
        <time>2019-09-10T09:18:45Z</time>
      </trkpt>
      <trkpt lat="47.55035" lon="6.91186">
        <ele>324.79998779297</ele>
        <time>2019-09-10T09:18:49Z</time>
      </trkpt>
      <trkpt lat="47.55012" lon="6.91143">
        <ele>324.79998779297</ele>
        <time>2019-09-10T09:18:55Z</time>
      </trkpt>
      <trkpt lat="47.54979" lon="6.9108">
        <ele>324.79998779297</ele>
        <time>2019-09-10T09:19:04Z</time>
      </trkpt>
      <trkpt lat="47.54958" lon="6.91039">
        <ele>324.79998779297</ele>
        <time>2019-09-10T09:19:10Z</time>
      </trkpt>
      <trkpt lat="47.54924" lon="6.90976">
        <ele>324.79998779297</ele>
        <time>2019-09-10T09:19:19Z</time>
      </trkpt>
      <trkpt lat="47.54916" lon="6.90962">
        <ele>324.79998779297</ele>
        <time>2019-09-10T09:19:21Z</time>
      </trkpt>
      <trkpt lat="47.54895" lon="6.90919">
        <ele>324.60000610352</ele>
        <time>2019-09-10T09:19:27Z</time>
      </trkpt>
      <trkpt lat="47.5486" lon="6.90857">
        <ele>324.20001220703</ele>
        <time>2019-09-10T09:19:36Z</time>
      </trkpt>
      <trkpt lat="47.54833" lon="6.9081">
        <ele>324.20001220703</ele>
        <time>2019-09-10T09:19:43Z</time>
      </trkpt>
      <trkpt lat="47.54814" lon="6.90776">
        <ele>324.20001220703</ele>
        <time>2019-09-10T09:19:48Z</time>
      </trkpt>
      <trkpt lat="47.54797" lon="6.90749">
        <ele>324.39999389648</ele>
        <time>2019-09-10T09:19:53Z</time>
      </trkpt>
      <trkpt lat="47.54793" lon="6.90745">
        <ele>324.39999389648</ele>
        <time>2019-09-10T09:19:54Z</time>
      </trkpt>
      <trkpt lat="47.54778" lon="6.90717">
        <ele>324.39999389648</ele>
        <time>2019-09-10T09:19:59Z</time>
      </trkpt>
      <trkpt lat="47.54764" lon="6.90682">
        <ele>324.20001220703</ele>
        <time>2019-09-10T09:20:05Z</time>
      </trkpt>
      <trkpt lat="47.54756" lon="6.90664">
        <ele>324.20001220703</ele>
        <time>2019-09-10T09:20:08Z</time>
      </trkpt>
      <trkpt lat="47.54749" lon="6.90653">
        <ele>324</ele>
        <time>2019-09-10T09:20:10Z</time>
      </trkpt>
      <trkpt lat="47.54745" lon="6.90647">
        <ele>324</ele>
        <time>2019-09-10T09:20:11Z</time>
      </trkpt>
      <trkpt lat="47.54741" lon="6.90643">
        <ele>324</ele>
        <time>2019-09-10T09:20:12Z</time>
      </trkpt>
      <trkpt lat="47.54726" lon="6.90633">
        <ele>324</ele>
        <time>2019-09-10T09:20:15Z</time>
      </trkpt>
      <trkpt lat="47.5472" lon="6.9063">
        <ele>324</ele>
        <time>2019-09-10T09:20:16Z</time>
      </trkpt>
      <trkpt lat="47.54705" lon="6.90622">
        <ele>323.79998779297</ele>
        <time>2019-09-10T09:20:19Z</time>
      </trkpt>
      <trkpt lat="47.54698" lon="6.90612">
        <ele>323.79998779297</ele>
        <time>2019-09-10T09:20:21Z</time>
      </trkpt>
      <trkpt lat="47.54692" lon="6.90598">
        <ele>323.79998779297</ele>
        <time>2019-09-10T09:20:24Z</time>
      </trkpt>
      <trkpt lat="47.54688" lon="6.90588">
        <ele>323.79998779297</ele>
        <time>2019-09-10T09:20:26Z</time>
      </trkpt>
      <trkpt lat="47.54679" lon="6.90576">
        <ele>324</ele>
        <time>2019-09-10T09:20:30Z</time>
      </trkpt>
      <trkpt lat="47.54669" lon="6.9058">
        <ele>324</ele>
        <time>2019-09-10T09:20:34Z</time>
      </trkpt>
      <trkpt lat="47.54653" lon="6.9059">
        <ele>324.20001220703</ele>
        <time>2019-09-10T09:20:38Z</time>
      </trkpt>
      <trkpt lat="47.54624" lon="6.90606">
        <ele>324</ele>
        <time>2019-09-10T09:20:43Z</time>
      </trkpt>
      <trkpt lat="47.54592" lon="6.90622">
        <ele>323.60000610352</ele>
        <time>2019-09-10T09:20:49Z</time>
      </trkpt>
      <trkpt lat="47.54587" lon="6.90625">
        <ele>323.60000610352</ele>
        <time>2019-09-10T09:20:50Z</time>
      </trkpt>
      <trkpt lat="47.54568" lon="6.90636">
        <ele>323.39999389648</ele>
        <time>2019-09-10T09:20:54Z</time>
      </trkpt>
      <trkpt lat="47.54533" lon="6.90653">
        <ele>323.39999389648</ele>
        <time>2019-09-10T09:21:01Z</time>
      </trkpt>
      <trkpt lat="47.54501" lon="6.90669">
        <ele>323.39999389648</ele>
        <time>2019-09-10T09:21:07Z</time>
      </trkpt>
      <trkpt lat="47.54467" lon="6.90681">
        <ele>323.79998779297</ele>
        <time>2019-09-10T09:21:13Z</time>
      </trkpt>
      <trkpt lat="47.54427" lon="6.90677">
        <ele>323.79998779297</ele>
        <time>2019-09-10T09:21:19Z</time>
      </trkpt>
      <trkpt lat="47.54384" lon="6.90664">
        <ele>324</ele>
        <time>2019-09-10T09:21:25Z</time>
      </trkpt>
      <trkpt lat="47.54352" lon="6.90665">
        <ele>323.79998779297</ele>
        <time>2019-09-10T09:21:31Z</time>
      </trkpt>
      <trkpt lat="47.54323" lon="6.90675">
        <ele>324</ele>
        <time>2019-09-10T09:21:37Z</time>
      </trkpt>
      <trkpt lat="47.54319" lon="6.90677">
        <ele>324</ele>
        <time>2019-09-10T09:21:38Z</time>
      </trkpt>
      <trkpt lat="47.54306" lon="6.90682">
        <ele>324.20001220703</ele>
        <time>2019-09-10T09:21:41Z</time>
      </trkpt>
      <trkpt lat="47.54298" lon="6.90688">
        <ele>324.20001220703</ele>
        <time>2019-09-10T09:21:43Z</time>
      </trkpt>
      <trkpt lat="47.54271" lon="6.90703">
        <ele>324.60000610352</ele>
        <time>2019-09-10T09:21:49Z</time>
      </trkpt>
      <trkpt lat="47.5425" lon="6.90711">
        <ele>324.79998779297</ele>
        <time>2019-09-10T09:21:53Z</time>
      </trkpt>
      <trkpt lat="47.54244" lon="6.90713">
        <ele>324.79998779297</ele>
        <time>2019-09-10T09:21:54Z</time>
      </trkpt>
      <trkpt lat="47.54239" lon="6.90714">
        <ele>324.60000610352</ele>
        <time>2019-09-10T09:21:55Z</time>
      </trkpt>
      <trkpt lat="47.54216" lon="6.90722">
        <ele>324.79998779297</ele>
        <time>2019-09-10T09:21:59Z</time>
      </trkpt>
      <trkpt lat="47.54181" lon="6.90738">
        <ele>324.79998779297</ele>
        <time>2019-09-10T09:22:05Z</time>
      </trkpt>
      <trkpt lat="47.54158" lon="6.90752">
        <ele>324.60000610352</ele>
        <time>2019-09-10T09:22:10Z</time>
      </trkpt>
      <trkpt lat="47.54137" lon="6.90765">
        <ele>324.60000610352</ele>
        <time>2019-09-10T09:22:14Z</time>
      </trkpt>
      <trkpt lat="47.54132" lon="6.90769">
        <ele>324.20001220703</ele>
        <time>2019-09-10T09:22:15Z</time>
      </trkpt>
      <trkpt lat="47.54099" lon="6.90798">
        <ele>323.79998779297</ele>
        <time>2019-09-10T09:22:22Z</time>
      </trkpt>
      <trkpt lat="47.54082" lon="6.90819">
        <ele>323.60000610352</ele>
        <time>2019-09-10T09:22:26Z</time>
      </trkpt>
      <trkpt lat="47.54071" lon="6.90839">
        <ele>323.60000610352</ele>
        <time>2019-09-10T09:22:29Z</time>
      </trkpt>
      <trkpt lat="47.54063" lon="6.90852">
        <ele>323.60000610352</ele>
        <time>2019-09-10T09:22:31Z</time>
      </trkpt>
      <trkpt lat="47.54049" lon="6.90878">
        <ele>323.79998779297</ele>
        <time>2019-09-10T09:22:35Z</time>
      </trkpt>
      <trkpt lat="47.54037" lon="6.90903">
        <ele>324</ele>
        <time>2019-09-10T09:22:39Z</time>
      </trkpt>
      <trkpt lat="47.54032" lon="6.90917">
        <ele>323.79998779297</ele>
        <time>2019-09-10T09:22:41Z</time>
      </trkpt>
      <trkpt lat="47.54005" lon="6.90969">
        <ele>324</ele>
        <time>2019-09-10T09:22:49Z</time>
      </trkpt>
      <trkpt lat="47.53979" lon="6.91012">
        <ele>323.79998779297</ele>
        <time>2019-09-10T09:22:56Z</time>
      </trkpt>
      <trkpt lat="47.53952" lon="6.91041">
        <ele>323.60000610352</ele>
        <time>2019-09-10T09:23:02Z</time>
      </trkpt>
      <trkpt lat="47.53927" lon="6.91053">
        <ele>323.60000610352</ele>
        <time>2019-09-10T09:23:07Z</time>
      </trkpt>
      <trkpt lat="47.53921" lon="6.91054">
        <ele>323.79998779297</ele>
        <time>2019-09-10T09:23:08Z</time>
      </trkpt>
      <trkpt lat="47.53916" lon="6.91054">
        <ele>323.79998779297</ele>
        <time>2019-09-10T09:23:09Z</time>
      </trkpt>
      <trkpt lat="47.53895" lon="6.91051">
        <ele>323.79998779297</ele>
        <time>2019-09-10T09:23:13Z</time>
      </trkpt>
      <trkpt lat="47.53857" lon="6.91038">
        <ele>324</ele>
        <time>2019-09-10T09:23:20Z</time>
      </trkpt>
      <trkpt lat="47.53816" lon="6.9102">
        <ele>324</ele>
        <time>2019-09-10T09:23:28Z</time>
      </trkpt>
      <trkpt lat="47.53783" lon="6.91">
        <ele>324.20001220703</ele>
        <time>2019-09-10T09:23:35Z</time>
      </trkpt>
      <trkpt lat="47.53747" lon="6.90971">
        <ele>324</ele>
        <time>2019-09-10T09:23:43Z</time>
      </trkpt>
      <trkpt lat="47.53734" lon="6.9096">
        <ele>324</ele>
        <time>2019-09-10T09:23:46Z</time>
      </trkpt>
      <trkpt lat="47.53716" lon="6.90944">
        <ele>324</ele>
        <time>2019-09-10T09:23:50Z</time>
      </trkpt>
      <trkpt lat="47.53695" lon="6.90924">
        <ele>323.79998779297</ele>
        <time>2019-09-10T09:23:55Z</time>
      </trkpt>
      <trkpt lat="47.53686" lon="6.90917">
        <ele>323.60000610352</ele>
        <time>2019-09-10T09:23:57Z</time>
      </trkpt>
      <trkpt lat="47.53656" lon="6.90894">
        <ele>323.60000610352</ele>
        <time>2019-09-10T09:24:03Z</time>
      </trkpt>
      <trkpt lat="47.53628" lon="6.90869">
        <ele>323.60000610352</ele>
        <time>2019-09-10T09:24:09Z</time>
      </trkpt>
      <trkpt lat="47.53598" lon="6.90841">
        <ele>323.60000610352</ele>
        <time>2019-09-10T09:24:15Z</time>
      </trkpt>
      <trkpt lat="47.53564" lon="6.90809">
        <ele>323.60000610352</ele>
        <time>2019-09-10T09:24:22Z</time>
      </trkpt>
      <trkpt lat="47.53527" lon="6.90779">
        <ele>323.79998779297</ele>
        <time>2019-09-10T09:24:29Z</time>
      </trkpt>
      <trkpt lat="47.53492" lon="6.90747">
        <ele>323.60000610352</ele>
        <time>2019-09-10T09:24:36Z</time>
      </trkpt>
      <trkpt lat="47.53458" lon="6.90715">
        <ele>323.60000610352</ele>
        <time>2019-09-10T09:24:43Z</time>
      </trkpt>
      <trkpt lat="47.53419" lon="6.90672">
        <ele>323.60000610352</ele>
        <time>2019-09-10T09:24:51Z</time>
      </trkpt>
      <trkpt lat="47.53384" lon="6.90625">
        <ele>323.79998779297</ele>
        <time>2019-09-10T09:24:59Z</time>
      </trkpt>
      <trkpt lat="47.53352" lon="6.9058">
        <ele>323.60000610352</ele>
        <time>2019-09-10T09:25:07Z</time>
      </trkpt>
      <trkpt lat="47.53323" lon="6.90541">
        <ele>323.60000610352</ele>
        <time>2019-09-10T09:25:14Z</time>
      </trkpt>
      <trkpt lat="47.53288" lon="6.90493">
        <ele>323.60000610352</ele>
        <time>2019-09-10T09:25:22Z</time>
      </trkpt>
      <trkpt lat="47.53253" lon="6.9045">
        <ele>323.39999389648</ele>
        <time>2019-09-10T09:25:30Z</time>
      </trkpt>
      <trkpt lat="47.53241" lon="6.90439">
        <ele>323.60000610352</ele>
        <time>2019-09-10T09:25:33Z</time>
      </trkpt>
      <trkpt lat="47.53234" lon="6.90431">
        <ele>323.60000610352</ele>
        <time>2019-09-10T09:25:35Z</time>
      </trkpt>
      <trkpt lat="47.53214" lon="6.90405">
        <ele>323.60000610352</ele>
        <time>2019-09-10T09:25:40Z</time>
      </trkpt>
      <trkpt lat="47.5321" lon="6.90399">
        <ele>323.60000610352</ele>
        <time>2019-09-10T09:25:41Z</time>
      </trkpt>
      <trkpt lat="47.53199" lon="6.90377">
        <ele>323.39999389648</ele>
        <time>2019-09-10T09:25:44Z</time>
      </trkpt>
      <trkpt lat="47.53173" lon="6.9034">
        <ele>322.20001220703</ele>
        <time>2019-09-10T09:25:50Z</time>
      </trkpt>
      <trkpt lat="47.53164" lon="6.90328">
        <ele>321.79998779297</ele>
        <time>2019-09-10T09:25:52Z</time>
      </trkpt>
      <trkpt lat="47.53124" lon="6.90275">
        <ele>321.20001220703</ele>
        <time>2019-09-10T09:26:01Z</time>
      </trkpt>
      <trkpt lat="47.53086" lon="6.90223">
        <ele>321.20001220703</ele>
        <time>2019-09-10T09:26:10Z</time>
      </trkpt>
      <trkpt lat="47.53042" lon="6.90165">
        <ele>321.60000610352</ele>
        <time>2019-09-10T09:26:20Z</time>
      </trkpt>
      <trkpt lat="47.53007" lon="6.90119">
        <ele>321.60000610352</ele>
        <time>2019-09-10T09:26:28Z</time>
      </trkpt>
      <trkpt lat="47.52967" lon="6.90066">
        <ele>321.60000610352</ele>
        <time>2019-09-10T09:26:37Z</time>
      </trkpt>
      <trkpt lat="47.52933" lon="6.90019">
        <ele>321.60000610352</ele>
        <time>2019-09-10T09:26:45Z</time>
      </trkpt>
      <trkpt lat="47.52902" lon="6.89979">
        <ele>321.39999389648</ele>
        <time>2019-09-10T09:26:52Z</time>
      </trkpt>
      <trkpt lat="47.52877" lon="6.89946">
        <ele>321.20001220703</ele>
        <time>2019-09-10T09:26:58Z</time>
      </trkpt>
      <trkpt lat="47.52869" lon="6.89933">
        <ele>321.20001220703</ele>
        <time>2019-09-10T09:27:00Z</time>
      </trkpt>
      <trkpt lat="47.52835" lon="6.89876">
        <ele>321.20001220703</ele>
        <time>2019-09-10T09:27:09Z</time>
      </trkpt>
      <trkpt lat="47.52822" lon="6.89848">
        <ele>321.20001220703</ele>
        <time>2019-09-10T09:27:13Z</time>
      </trkpt>
      <trkpt lat="47.52817" lon="6.89833">
        <ele>321.20001220703</ele>
        <time>2019-09-10T09:27:15Z</time>
      </trkpt>
      <trkpt lat="47.52801" lon="6.89769">
        <ele>321.39999389648</ele>
        <time>2019-09-10T09:27:23Z</time>
      </trkpt>
      <trkpt lat="47.52792" lon="6.8972">
        <ele>321.60000610352</ele>
        <time>2019-09-10T09:27:29Z</time>
      </trkpt>
      <trkpt lat="47.52788" lon="6.89653">
        <ele>321.60000610352</ele>
        <time>2019-09-10T09:27:37Z</time>
      </trkpt>
      <trkpt lat="47.52784" lon="6.89629">
        <ele>321.60000610352</ele>
        <time>2019-09-10T09:27:40Z</time>
      </trkpt>
      <trkpt lat="47.52783" lon="6.89614">
        <ele>321.60000610352</ele>
        <time>2019-09-10T09:27:42Z</time>
      </trkpt>
      <trkpt lat="47.52786" lon="6.89599">
        <ele>321.60000610352</ele>
        <time>2019-09-10T09:27:44Z</time>
      </trkpt>
      <trkpt lat="47.52788" lon="6.89583">
        <ele>321.60000610352</ele>
        <time>2019-09-10T09:27:46Z</time>
      </trkpt>
      <trkpt lat="47.52789" lon="6.89575">
        <ele>321.39999389648</ele>
        <time>2019-09-10T09:27:47Z</time>
      </trkpt>
      <trkpt lat="47.52791" lon="6.89518">
        <ele>321.39999389648</ele>
        <time>2019-09-10T09:27:54Z</time>
      </trkpt>
      <trkpt lat="47.52794" lon="6.89442">
        <ele>321.39999389648</ele>
        <time>2019-09-10T09:28:03Z</time>
      </trkpt>
      <trkpt lat="47.52797" lon="6.89366">
        <ele>321.20001220703</ele>
        <time>2019-09-10T09:28:12Z</time>
      </trkpt>
      <trkpt lat="47.52799" lon="6.89308">
        <ele>321.20001220703</ele>
        <time>2019-09-10T09:28:19Z</time>
      </trkpt>
      <trkpt lat="47.52801" lon="6.89249">
        <ele>321.20001220703</ele>
        <time>2019-09-10T09:28:26Z</time>
      </trkpt>
      <trkpt lat="47.52805" lon="6.89193">
        <ele>321.20001220703</ele>
        <time>2019-09-10T09:28:33Z</time>
      </trkpt>
      <trkpt lat="47.52806" lon="6.89171">
        <ele>321.20001220703</ele>
        <time>2019-09-10T09:28:36Z</time>
      </trkpt>
      <trkpt lat="47.52806" lon="6.89148">
        <ele>321.20001220703</ele>
        <time>2019-09-10T09:28:39Z</time>
      </trkpt>
      <trkpt lat="47.52808" lon="6.89075">
        <ele>321.20001220703</ele>
        <time>2019-09-10T09:28:48Z</time>
      </trkpt>
      <trkpt lat="47.5281" lon="6.88998">
        <ele>321.20001220703</ele>
        <time>2019-09-10T09:28:57Z</time>
      </trkpt>
      <trkpt lat="47.52809" lon="6.88949">
        <ele>321.20001220703</ele>
        <time>2019-09-10T09:29:03Z</time>
      </trkpt>
      <trkpt lat="47.52807" lon="6.88925">
        <ele>321</ele>
        <time>2019-09-10T09:29:06Z</time>
      </trkpt>
      <trkpt lat="47.528" lon="6.88857">
        <ele>320.79998779297</ele>
        <time>2019-09-10T09:29:15Z</time>
      </trkpt>
      <trkpt lat="47.52806" lon="6.88841">
        <ele>320.79998779297</ele>
        <time>2019-09-10T09:29:18Z</time>
      </trkpt>
      <trkpt lat="47.52813" lon="6.88832">
        <ele>320.79998779297</ele>
        <time>2019-09-10T09:29:22Z</time>
      </trkpt>
      <trkpt lat="47.52808" lon="6.88826">
        <ele>321.20001220703</ele>
        <time>2019-09-10T09:29:25Z</time>
      </trkpt>
      <trkpt lat="47.528" lon="6.88826">
        <ele>322.60000610352</ele>
        <time>2019-09-10T09:29:28Z</time>
      </trkpt>
      <trkpt lat="47.5279" lon="6.8883">
        <ele>323.39999389648</ele>
        <time>2019-09-10T09:29:31Z</time>
      </trkpt>
      <trkpt lat="47.52786" lon="6.88832">
        <ele>323.79998779297</ele>
        <time>2019-09-10T09:29:32Z</time>
      </trkpt>
      <trkpt lat="47.52773" lon="6.88834">
        <ele>324.60000610352</ele>
        <time>2019-09-10T09:29:36Z</time>
      </trkpt>
      <trkpt lat="47.52762" lon="6.88817">
        <ele>324.79998779297</ele>
        <time>2019-09-10T09:29:39Z</time>
      </trkpt>
      <trkpt lat="47.52759" lon="6.88809">
        <ele>324.79998779297</ele>
        <time>2019-09-10T09:29:40Z</time>
      </trkpt>
      <trkpt lat="47.52748" lon="6.88774">
        <ele>324.79998779297</ele>
        <time>2019-09-10T09:29:44Z</time>
      </trkpt>
      <trkpt lat="47.52744" lon="6.88754">
        <ele>324.39999389648</ele>
        <time>2019-09-10T09:29:46Z</time>
      </trkpt>
      <trkpt lat="47.52742" lon="6.88733">
        <ele>323.60000610352</ele>
        <time>2019-09-10T09:29:48Z</time>
      </trkpt>
      <trkpt lat="47.52737" lon="6.88714">
        <ele>322.79998779297</ele>
        <time>2019-09-10T09:29:50Z</time>
      </trkpt>
      <trkpt lat="47.52732" lon="6.88697">
        <ele>322</ele>
        <time>2019-09-10T09:29:52Z</time>
      </trkpt>
      <trkpt lat="47.52727" lon="6.88682">
        <ele>321.79998779297</ele>
        <time>2019-09-10T09:29:54Z</time>
      </trkpt>
      <trkpt lat="47.52719" lon="6.88661">
        <ele>321.60000610352</ele>
        <time>2019-09-10T09:29:57Z</time>
      </trkpt>
      <trkpt lat="47.52697" lon="6.88616">
        <ele>321.60000610352</ele>
        <time>2019-09-10T09:30:04Z</time>
      </trkpt>
      <trkpt lat="47.52668" lon="6.8857">
        <ele>321.79998779297</ele>
        <time>2019-09-10T09:30:12Z</time>
      </trkpt>
      <trkpt lat="47.52642" lon="6.88531">
        <ele>321.79998779297</ele>
        <time>2019-09-10T09:30:19Z</time>
      </trkpt>
      <trkpt lat="47.52612" lon="6.88488">
        <ele>321.60000610352</ele>
        <time>2019-09-10T09:30:27Z</time>
      </trkpt>
      <trkpt lat="47.52587" lon="6.88452">
        <ele>321.60000610352</ele>
        <time>2019-09-10T09:30:34Z</time>
      </trkpt>
      <trkpt lat="47.52561" lon="6.88413">
        <ele>321.60000610352</ele>
        <time>2019-09-10T09:30:41Z</time>
      </trkpt>
      <trkpt lat="47.5253" lon="6.88368">
        <ele>321.39999389648</ele>
        <time>2019-09-10T09:30:49Z</time>
      </trkpt>
      <trkpt lat="47.52509" lon="6.88335">
        <ele>321.39999389648</ele>
        <time>2019-09-10T09:30:55Z</time>
      </trkpt>
      <trkpt lat="47.52489" lon="6.88304">
        <ele>321.39999389648</ele>
        <time>2019-09-10T09:31:00Z</time>
      </trkpt>
      <trkpt lat="47.52485" lon="6.88297">
        <ele>321.39999389648</ele>
        <time>2019-09-10T09:31:01Z</time>
      </trkpt>
      <trkpt lat="47.52458" lon="6.88253">
        <ele>321.39999389648</ele>
        <time>2019-09-10T09:31:08Z</time>
      </trkpt>
      <trkpt lat="47.52435" lon="6.88204">
        <ele>321.79998779297</ele>
        <time>2019-09-10T09:31:15Z</time>
      </trkpt>
      <trkpt lat="47.5242" lon="6.88154">
        <ele>322</ele>
        <time>2019-09-10T09:31:22Z</time>
      </trkpt>
      <trkpt lat="47.52405" lon="6.88109">
        <ele>322</ele>
        <time>2019-09-10T09:31:28Z</time>
      </trkpt>
      <trkpt lat="47.52387" lon="6.88048">
        <ele>322</ele>
        <time>2019-09-10T09:31:36Z</time>
      </trkpt>
      <trkpt lat="47.52373" lon="6.88035">
        <ele>322</ele>
        <time>2019-09-10T09:31:39Z</time>
      </trkpt>
      <trkpt lat="47.52349" lon="6.88038">
        <ele>322</ele>
        <time>2019-09-10T09:31:44Z</time>
      </trkpt>
      <trkpt lat="47.52331" lon="6.88043">
        <ele>322.20001220703</ele>
        <time>2019-09-10T09:31:49Z</time>
      </trkpt>
      <trkpt lat="47.52319" lon="6.88055">
        <ele>322.20001220703</ele>
        <time>2019-09-10T09:31:56Z</time>
      </trkpt>
      <trkpt lat="47.52307" lon="6.88069">
        <ele>322</ele>
        <time>2019-09-10T09:32:03Z</time>
      </trkpt>
      <trkpt lat="47.5229" lon="6.88088">
        <ele>322</ele>
        <time>2019-09-10T09:32:11Z</time>
      </trkpt>
      <trkpt lat="47.52276" lon="6.88114">
        <ele>322</ele>
        <time>2019-09-10T09:32:18Z</time>
      </trkpt>
      <trkpt lat="47.52262" lon="6.88139">
        <ele>322</ele>
        <time>2019-09-10T09:32:25Z</time>
      </trkpt>
      <trkpt lat="47.5226" lon="6.8814">
        <ele>322</ele>
        <time>2019-09-10T09:32:26Z</time>
      </trkpt>
      <trkpt lat="47.52254" lon="6.88134">
        <ele>322.20001220703</ele>
        <time>2019-09-10T09:32:29Z</time>
      </trkpt>
      <trkpt lat="47.52252" lon="6.88131">
        <ele>322.20001220703</ele>
        <time>2019-09-10T09:32:30Z</time>
      </trkpt>
      <trkpt lat="47.52248" lon="6.88123">
        <ele>322.60000610352</ele>
        <time>2019-09-10T09:32:33Z</time>
      </trkpt>
      <trkpt lat="47.52243" lon="6.88114">
        <ele>323</ele>
        <time>2019-09-10T09:32:36Z</time>
      </trkpt>
      <trkpt lat="47.52241" lon="6.88113">
        <ele>323</ele>
        <time>2019-09-10T09:32:37Z</time>
      </trkpt>
      <trkpt lat="47.52235" lon="6.88117">
        <ele>323</ele>
        <time>2019-09-10T09:32:39Z</time>
      </trkpt>
      <trkpt lat="47.52225" lon="6.88128">
        <ele>323</ele>
        <time>2019-09-10T09:32:42Z</time>
      </trkpt>
      <trkpt lat="47.52214" lon="6.88141">
        <ele>323</ele>
        <time>2019-09-10T09:32:45Z</time>
      </trkpt>
      <trkpt lat="47.52198" lon="6.88162">
        <ele>322.79998779297</ele>
        <time>2019-09-10T09:32:49Z</time>
      </trkpt>
      <trkpt lat="47.52185" lon="6.88175">
        <ele>322.20001220703</ele>
        <time>2019-09-10T09:32:52Z</time>
      </trkpt>
      <trkpt lat="47.52174" lon="6.88186">
        <ele>321.20001220703</ele>
        <time>2019-09-10T09:32:55Z</time>
      </trkpt>
      <trkpt lat="47.52158" lon="6.88197">
        <ele>321.20001220703</ele>
        <time>2019-09-10T09:32:59Z</time>
      </trkpt>
      <trkpt lat="47.5215" lon="6.88201">
        <ele>321.20001220703</ele>
        <time>2019-09-10T09:33:01Z</time>
      </trkpt>
      <trkpt lat="47.52133" lon="6.88208">
        <ele>321.20001220703</ele>
        <time>2019-09-10T09:33:05Z</time>
      </trkpt>
      <trkpt lat="47.52105" lon="6.88212">
        <ele>321.39999389648</ele>
        <time>2019-09-10T09:33:11Z</time>
      </trkpt>
      <trkpt lat="47.52079" lon="6.88205">
        <ele>321.39999389648</ele>
        <time>2019-09-10T09:33:17Z</time>
      </trkpt>
      <trkpt lat="47.52078" lon="6.88204">
        <ele>321.20001220703</ele>
        <time>2019-09-10T09:33:21Z</time>
      </trkpt>
      <trkpt lat="47.52076" lon="6.88203">
        <ele>321.20001220703</ele>
        <time>2019-09-10T09:34:12Z</time>
      </trkpt>
      <trkpt lat="47.5207" lon="6.882">
        <ele>321.20001220703</ele>
        <time>2019-09-10T09:34:15Z</time>
      </trkpt>
      <trkpt lat="47.5205" lon="6.88186">
        <ele>321</ele>
        <time>2019-09-10T09:34:21Z</time>
      </trkpt>
      <trkpt lat="47.52046" lon="6.88183">
        <ele>321</ele>
        <time>2019-09-10T09:34:22Z</time>
      </trkpt>
      <trkpt lat="47.5203" lon="6.88165">
        <ele>321</ele>
        <time>2019-09-10T09:34:26Z</time>
      </trkpt>
      <trkpt lat="47.52011" lon="6.88138">
        <ele>320.79998779297</ele>
        <time>2019-09-10T09:34:31Z</time>
      </trkpt>
      <trkpt lat="47.52007" lon="6.88131">
        <ele>320.60000610352</ele>
        <time>2019-09-10T09:34:32Z</time>
      </trkpt>
      <trkpt lat="47.51997" lon="6.88104">
        <ele>320.20001220703</ele>
        <time>2019-09-10T09:34:36Z</time>
      </trkpt>
      <trkpt lat="47.51991" lon="6.88084">
        <ele>320</ele>
        <time>2019-09-10T09:34:39Z</time>
      </trkpt>
      <trkpt lat="47.51977" lon="6.88042">
        <ele>319.79998779297</ele>
        <time>2019-09-10T09:34:46Z</time>
      </trkpt>
      <trkpt lat="47.51974" lon="6.88029">
        <ele>319.79998779297</ele>
        <time>2019-09-10T09:34:48Z</time>
      </trkpt>
      <trkpt lat="47.51964" lon="6.88001">
        <ele>319.79998779297</ele>
        <time>2019-09-10T09:34:52Z</time>
      </trkpt>
      <trkpt lat="47.51943" lon="6.87938">
        <ele>319.60000610352</ele>
        <time>2019-09-10T09:34:59Z</time>
      </trkpt>
      <trkpt lat="47.51941" lon="6.8793">
        <ele>319</ele>
        <time>2019-09-10T09:35:00Z</time>
      </trkpt>
      <trkpt lat="47.51934" lon="6.87906">
        <ele>317.79998779297</ele>
        <time>2019-09-10T09:35:03Z</time>
      </trkpt>
      <trkpt lat="47.51928" lon="6.87884">
        <ele>317.39999389648</ele>
        <time>2019-09-10T09:35:06Z</time>
      </trkpt>
      <trkpt lat="47.51905" lon="6.8781">
        <ele>317.39999389648</ele>
        <time>2019-09-10T09:35:16Z</time>
      </trkpt>
      <trkpt lat="47.51882" lon="6.8774">
        <ele>317.20001220703</ele>
        <time>2019-09-10T09:35:25Z</time>
      </trkpt>
      <trkpt lat="47.51864" lon="6.87678">
        <ele>316.79998779297</ele>
        <time>2019-09-10T09:35:33Z</time>
      </trkpt>
      <trkpt lat="47.51844" lon="6.87617">
        <ele>316.79998779297</ele>
        <time>2019-09-10T09:35:41Z</time>
      </trkpt>
      <trkpt lat="47.51842" lon="6.87609">
        <ele>317</ele>
        <time>2019-09-10T09:35:42Z</time>
      </trkpt>
      <trkpt lat="47.51823" lon="6.87547">
        <ele>317.20001220703</ele>
        <time>2019-09-10T09:35:50Z</time>
      </trkpt>
      <trkpt lat="47.51801" lon="6.87477">
        <ele>317.39999389648</ele>
        <time>2019-09-10T09:35:59Z</time>
      </trkpt>
      <trkpt lat="47.5178" lon="6.87408">
        <ele>317.39999389648</ele>
        <time>2019-09-10T09:36:08Z</time>
      </trkpt>
      <trkpt lat="47.51762" lon="6.87348">
        <ele>317.39999389648</ele>
        <time>2019-09-10T09:36:16Z</time>
      </trkpt>
      <trkpt lat="47.51743" lon="6.87286">
        <ele>317.39999389648</ele>
        <time>2019-09-10T09:36:24Z</time>
      </trkpt>
      <trkpt lat="47.51722" lon="6.87217">
        <ele>317.60000610352</ele>
        <time>2019-09-10T09:36:33Z</time>
      </trkpt>
      <trkpt lat="47.51704" lon="6.87163">
        <ele>317.39999389648</ele>
        <time>2019-09-10T09:36:40Z</time>
      </trkpt>
      <trkpt lat="47.51702" lon="6.87156">
        <ele>317.39999389648</ele>
        <time>2019-09-10T09:36:41Z</time>
      </trkpt>
      <trkpt lat="47.5169" lon="6.87122">
        <ele>317.39999389648</ele>
        <time>2019-09-10T09:36:46Z</time>
      </trkpt>
      <trkpt lat="47.51671" lon="6.87073">
        <ele>317.20001220703</ele>
        <time>2019-09-10T09:36:53Z</time>
      </trkpt>
      <trkpt lat="47.51668" lon="6.87065">
        <ele>317.20001220703</ele>
        <time>2019-09-10T09:36:54Z</time>
      </trkpt>
      <trkpt lat="47.51659" lon="6.87035">
        <ele>317.20001220703</ele>
        <time>2019-09-10T09:36:58Z</time>
      </trkpt>
      <trkpt lat="47.51642" lon="6.86986">
        <ele>317.20001220703</ele>
        <time>2019-09-10T09:37:05Z</time>
      </trkpt>
      <trkpt lat="47.51623" lon="6.86939">
        <ele>317.39999389648</ele>
        <time>2019-09-10T09:37:12Z</time>
      </trkpt>
      <trkpt lat="47.51609" lon="6.86895">
        <ele>317.39999389648</ele>
        <time>2019-09-10T09:37:18Z</time>
      </trkpt>
      <trkpt lat="47.51595" lon="6.86851">
        <ele>317.39999389648</ele>
        <time>2019-09-10T09:37:24Z</time>
      </trkpt>
      <trkpt lat="47.5159" lon="6.86838">
        <ele>317.20001220703</ele>
        <time>2019-09-10T09:37:26Z</time>
      </trkpt>
      <trkpt lat="47.5158" lon="6.86809">
        <ele>317.20001220703</ele>
        <time>2019-09-10T09:37:30Z</time>
      </trkpt>
      <trkpt lat="47.51562" lon="6.86751">
        <ele>317.20001220703</ele>
        <time>2019-09-10T09:37:38Z</time>
      </trkpt>
      <trkpt lat="47.51548" lon="6.86704">
        <ele>317.20001220703</ele>
        <time>2019-09-10T09:37:44Z</time>
      </trkpt>
      <trkpt lat="47.51544" lon="6.86689">
        <ele>317.20001220703</ele>
        <time>2019-09-10T09:37:46Z</time>
      </trkpt>
      <trkpt lat="47.51538" lon="6.86668">
        <ele>317.20001220703</ele>
        <time>2019-09-10T09:37:49Z</time>
      </trkpt>
      <trkpt lat="47.5153" lon="6.86645">
        <ele>317.20001220703</ele>
        <time>2019-09-10T09:37:52Z</time>
      </trkpt>
      <trkpt lat="47.51522" lon="6.8661">
        <ele>317</ele>
        <time>2019-09-10T09:37:56Z</time>
      </trkpt>
      <trkpt lat="47.51507" lon="6.86553">
        <ele>316.79998779297</ele>
        <time>2019-09-10T09:38:03Z</time>
      </trkpt>
      <trkpt lat="47.51489" lon="6.8649">
        <ele>316.79998779297</ele>
        <time>2019-09-10T09:38:11Z</time>
      </trkpt>
      <trkpt lat="47.5147" lon="6.86427">
        <ele>317.20001220703</ele>
        <time>2019-09-10T09:38:19Z</time>
      </trkpt>
      <trkpt lat="47.51455" lon="6.86372">
        <ele>317</ele>
        <time>2019-09-10T09:38:26Z</time>
      </trkpt>
      <trkpt lat="47.51431" lon="6.86298">
        <ele>317</ele>
        <time>2019-09-10T09:38:36Z</time>
      </trkpt>
      <trkpt lat="47.51408" lon="6.8622">
        <ele>317</ele>
        <time>2019-09-10T09:38:46Z</time>
      </trkpt>
      <trkpt lat="47.51405" lon="6.86212">
        <ele>317</ele>
        <time>2019-09-10T09:38:47Z</time>
      </trkpt>
      <trkpt lat="47.51382" lon="6.86133">
        <ele>317.20001220703</ele>
        <time>2019-09-10T09:38:57Z</time>
      </trkpt>
      <trkpt lat="47.51358" lon="6.86059">
        <ele>317.20001220703</ele>
        <time>2019-09-10T09:39:07Z</time>
      </trkpt>
      <trkpt lat="47.51343" lon="6.86018">
        <ele>317.20001220703</ele>
        <time>2019-09-10T09:39:13Z</time>
      </trkpt>
      <trkpt lat="47.51339" lon="6.86005">
        <ele>317</ele>
        <time>2019-09-10T09:39:15Z</time>
      </trkpt>
      <trkpt lat="47.51328" lon="6.85968">
        <ele>317</ele>
        <time>2019-09-10T09:39:20Z</time>
      </trkpt>
      <trkpt lat="47.51311" lon="6.85911">
        <ele>317</ele>
        <time>2019-09-10T09:39:28Z</time>
      </trkpt>
      <trkpt lat="47.51299" lon="6.85866">
        <ele>317.39999389648</ele>
        <time>2019-09-10T09:39:35Z</time>
      </trkpt>
      <trkpt lat="47.51298" lon="6.8585">
        <ele>317.60000610352</ele>
        <time>2019-09-10T09:39:39Z</time>
      </trkpt>
      <trkpt lat="47.51291" lon="6.8585">
        <ele>317.79998779297</ele>
        <time>2019-09-10T09:39:42Z</time>
      </trkpt>
      <trkpt lat="47.51289" lon="6.85852">
        <ele>317.79998779297</ele>
        <time>2019-09-10T09:39:43Z</time>
      </trkpt>
      <trkpt lat="47.51285" lon="6.85855">
        <ele>318.20001220703</ele>
        <time>2019-09-10T09:39:45Z</time>
      </trkpt>
      <trkpt lat="47.51279" lon="6.8586">
        <ele>318.20001220703</ele>
        <time>2019-09-10T09:39:48Z</time>
      </trkpt>
      <trkpt lat="47.51266" lon="6.85867">
        <ele>318.79998779297</ele>
        <time>2019-09-10T09:39:55Z</time>
      </trkpt>
      <trkpt lat="47.51247" lon="6.8588">
        <ele>318.79998779297</ele>
        <time>2019-09-10T09:40:01Z</time>
      </trkpt>
      <trkpt lat="47.51221" lon="6.85895">
        <ele>318.20001220703</ele>
        <time>2019-09-10T09:40:06Z</time>
      </trkpt>
      <trkpt lat="47.51201" lon="6.85904">
        <ele>317</ele>
        <time>2019-09-10T09:40:10Z</time>
      </trkpt>
      <trkpt lat="47.51187" lon="6.85912">
        <ele>316.20001220703</ele>
        <time>2019-09-10T09:40:13Z</time>
      </trkpt>
      <trkpt lat="47.51183" lon="6.85915">
        <ele>316</ele>
        <time>2019-09-10T09:40:14Z</time>
      </trkpt>
      <trkpt lat="47.51154" lon="6.85932">
        <ele>315.79998779297</ele>
        <time>2019-09-10T09:40:21Z</time>
      </trkpt>
      <trkpt lat="47.51137" lon="6.85941">
        <ele>315.79998779297</ele>
        <time>2019-09-10T09:40:25Z</time>
      </trkpt>
      <trkpt lat="47.5112" lon="6.8595">
        <ele>315.79998779297</ele>
        <time>2019-09-10T09:40:29Z</time>
      </trkpt>
      <trkpt lat="47.51102" lon="6.85955">
        <ele>316</ele>
        <time>2019-09-10T09:40:34Z</time>
      </trkpt>
      <trkpt lat="47.51095" lon="6.85952">
        <ele>316.20001220703</ele>
        <time>2019-09-10T09:40:40Z</time>
      </trkpt>
      <trkpt lat="47.51083" lon="6.85947">
        <ele>316.39999389648</ele>
        <time>2019-09-10T09:40:44Z</time>
      </trkpt>
      <trkpt lat="47.51073" lon="6.85955">
        <ele>316.39999389648</ele>
        <time>2019-09-10T09:40:47Z</time>
      </trkpt>
      <trkpt lat="47.51067" lon="6.85962">
        <ele>316.39999389648</ele>
        <time>2019-09-10T09:40:49Z</time>
      </trkpt>
      <trkpt lat="47.51059" lon="6.85967">
        <ele>316.60000610352</ele>
        <time>2019-09-10T09:40:51Z</time>
      </trkpt>
      <trkpt lat="47.51026" lon="6.85979">
        <ele>316.79998779297</ele>
        <time>2019-09-10T09:40:59Z</time>
      </trkpt>
      <trkpt lat="47.50995" lon="6.85985">
        <ele>317</ele>
        <time>2019-09-10T09:41:06Z</time>
      </trkpt>
      <trkpt lat="47.50986" lon="6.85987">
        <ele>317.20001220703</ele>
        <time>2019-09-10T09:41:08Z</time>
      </trkpt>
      <trkpt lat="47.50977" lon="6.85988">
        <ele>317.39999389648</ele>
        <time>2019-09-10T09:41:10Z</time>
      </trkpt>
      <trkpt lat="47.50963" lon="6.85988">
        <ele>317.60000610352</ele>
        <time>2019-09-10T09:41:13Z</time>
      </trkpt>
      <trkpt lat="47.50923" lon="6.85993">
        <ele>317.79998779297</ele>
        <time>2019-09-10T09:41:22Z</time>
      </trkpt>
      <trkpt lat="47.50919" lon="6.85993">
        <ele>318</ele>
        <time>2019-09-10T09:41:23Z</time>
      </trkpt>
      <trkpt lat="47.50915" lon="6.85993">
        <ele>318</ele>
        <time>2019-09-10T09:41:24Z</time>
      </trkpt>
      <trkpt lat="47.50898" lon="6.85989">
        <ele>318.20001220703</ele>
        <time>2019-09-10T09:41:28Z</time>
      </trkpt>
      <trkpt lat="47.5087" lon="6.85983">
        <ele>318.60000610352</ele>
        <time>2019-09-10T09:41:35Z</time>
      </trkpt>
      <trkpt lat="47.50837" lon="6.85985">
        <ele>319</ele>
        <time>2019-09-10T09:41:42Z</time>
      </trkpt>
      <trkpt lat="47.50833" lon="6.85986">
        <ele>319</ele>
        <time>2019-09-10T09:41:43Z</time>
      </trkpt>
      <trkpt lat="47.50798" lon="6.85995">
        <ele>319.39999389648</ele>
        <time>2019-09-10T09:41:51Z</time>
      </trkpt>
      <trkpt lat="47.50778" lon="6.86007">
        <ele>320.20001220703</ele>
        <time>2019-09-10T09:41:57Z</time>
      </trkpt>
      <trkpt lat="47.50774" lon="6.8601">
        <ele>320.20001220703</ele>
        <time>2019-09-10T09:41:58Z</time>
      </trkpt>
      <trkpt lat="47.50748" lon="6.86034">
        <ele>320.39999389648</ele>
        <time>2019-09-10T09:42:04Z</time>
      </trkpt>
      <trkpt lat="47.50741" lon="6.86041">
        <ele>320.39999389648</ele>
        <time>2019-09-10T09:42:06Z</time>
      </trkpt>
      <trkpt lat="47.50728" lon="6.86052">
        <ele>320.79998779297</ele>
        <time>2019-09-10T09:42:10Z</time>
      </trkpt>
      <trkpt lat="47.50713" lon="6.86062">
        <ele>321</ele>
        <time>2019-09-10T09:42:16Z</time>
      </trkpt>
      <trkpt lat="47.50708" lon="6.86065">
        <ele>321.20001220703</ele>
        <time>2019-09-10T09:42:18Z</time>
      </trkpt>
      <trkpt lat="47.50704" lon="6.86065">
        <ele>321.20001220703</ele>
        <time>2019-09-10T09:42:20Z</time>
      </trkpt>
      <trkpt lat="47.50702" lon="6.86064">
        <ele>321.20001220703</ele>
        <time>2019-09-10T09:42:21Z</time>
      </trkpt>
      <trkpt lat="47.507" lon="6.86064">
        <ele>321.39999389648</ele>
        <time>2019-09-10T09:42:24Z</time>
      </trkpt>
      <trkpt lat="47.50699" lon="6.86062">
        <ele>321.60000610352</ele>
        <time>2019-09-10T09:42:26Z</time>
      </trkpt>
      <trkpt lat="47.50698" lon="6.8606">
        <ele>321.60000610352</ele>
        <time>2019-09-10T09:42:27Z</time>
      </trkpt>
      <trkpt lat="47.50697" lon="6.86051">
        <ele>322</ele>
        <time>2019-09-10T09:42:30Z</time>
      </trkpt>
      <trkpt lat="47.50697" lon="6.86043">
        <ele>322</ele>
        <time>2019-09-10T09:42:32Z</time>
      </trkpt>
      <trkpt lat="47.50698" lon="6.86024">
        <ele>322.20001220703</ele>
        <time>2019-09-10T09:42:36Z</time>
      </trkpt>
      <trkpt lat="47.50697" lon="6.86018">
        <ele>322.20001220703</ele>
        <time>2019-09-10T09:42:37Z</time>
      </trkpt>
      <trkpt lat="47.50692" lon="6.85995">
        <ele>322.20001220703</ele>
        <time>2019-09-10T09:42:41Z</time>
      </trkpt>
      <trkpt lat="47.50684" lon="6.85956">
        <ele>322.39999389648</ele>
        <time>2019-09-10T09:42:48Z</time>
      </trkpt>
      <trkpt lat="47.50681" lon="6.8595">
        <ele>322.60000610352</ele>
        <time>2019-09-10T09:42:52Z</time>
      </trkpt>
      <trkpt lat="47.5068" lon="6.8595">
        <ele>322.60000610352</ele>
        <time>2019-09-10T09:42:53Z</time>
      </trkpt>
      <trkpt lat="47.50675" lon="6.85952">
        <ele>322.79998779297</ele>
        <time>2019-09-10T09:42:57Z</time>
      </trkpt>
      <trkpt lat="47.50672" lon="6.85945">
        <ele>323</ele>
        <time>2019-09-10T09:43:01Z</time>
      </trkpt>
      <trkpt lat="47.50671" lon="6.85943">
        <ele>323</ele>
        <time>2019-09-10T09:43:02Z</time>
      </trkpt>
      <trkpt lat="47.5067" lon="6.85937">
        <ele>323.39999389648</ele>
        <time>2019-09-10T09:43:07Z</time>
      </trkpt>
      <trkpt lat="47.50671" lon="6.85942">
        <ele>324</ele>
        <time>2019-09-10T09:48:00Z</time>
      </trkpt>
      <trkpt lat="47.50672" lon="6.85945">
        <ele>324</ele>
        <time>2019-09-10T09:48:03Z</time>
      </trkpt>
      <trkpt lat="47.50673" lon="6.85948">
        <ele>324</ele>
        <time>2019-09-10T09:48:08Z</time>
      </trkpt>
      <trkpt lat="47.50676" lon="6.85949">
        <ele>324</ele>
        <time>2019-09-10T09:48:16Z</time>
      </trkpt>
      <trkpt lat="47.50683" lon="6.85957">
        <ele>323.79998779297</ele>
        <time>2019-09-10T09:48:20Z</time>
      </trkpt>
      <trkpt lat="47.50684" lon="6.8596">
        <ele>323.60000610352</ele>
        <time>2019-09-10T09:48:21Z</time>
      </trkpt>
      <trkpt lat="47.50687" lon="6.85982">
        <ele>323</ele>
        <time>2019-09-10T09:48:26Z</time>
      </trkpt>
      <trkpt lat="47.50693" lon="6.86027">
        <ele>322.39999389648</ele>
        <time>2019-09-10T09:48:34Z</time>
      </trkpt>
      <trkpt lat="47.50693" lon="6.86055">
        <ele>322</ele>
        <time>2019-09-10T09:48:39Z</time>
      </trkpt>
      <trkpt lat="47.50692" lon="6.86065">
        <ele>322</ele>
        <time>2019-09-10T09:48:41Z</time>
      </trkpt>
      <trkpt lat="47.50691" lon="6.86077">
        <ele>322</ele>
        <time>2019-09-10T09:48:45Z</time>
      </trkpt>
      <trkpt lat="47.50692" lon="6.86079">
        <ele>322</ele>
        <time>2019-09-10T09:48:46Z</time>
      </trkpt>
      <trkpt lat="47.50696" lon="6.86076">
        <ele>322</ele>
        <time>2019-09-10T09:48:48Z</time>
      </trkpt>
      <trkpt lat="47.50701" lon="6.86064">
        <ele>322</ele>
        <time>2019-09-10T09:48:52Z</time>
      </trkpt>
      <trkpt lat="47.50707" lon="6.8606">
        <ele>322</ele>
        <time>2019-09-10T09:48:54Z</time>
      </trkpt>
      <trkpt lat="47.50718" lon="6.86053">
        <ele>322</ele>
        <time>2019-09-10T09:48:57Z</time>
      </trkpt>
      <trkpt lat="47.50738" lon="6.86044">
        <ele>321.79998779297</ele>
        <time>2019-09-10T09:49:02Z</time>
      </trkpt>
      <trkpt lat="47.50742" lon="6.86043">
        <ele>321.79998779297</ele>
        <time>2019-09-10T09:49:03Z</time>
      </trkpt>
      <trkpt lat="47.50754" lon="6.86034">
        <ele>321.20001220703</ele>
        <time>2019-09-10T09:49:06Z</time>
      </trkpt>
      <trkpt lat="47.50761" lon="6.86026">
        <ele>321</ele>
        <time>2019-09-10T09:49:08Z</time>
      </trkpt>
      <trkpt lat="47.50765" lon="6.86022">
        <ele>321</ele>
        <time>2019-09-10T09:49:09Z</time>
      </trkpt>
      <trkpt lat="47.50789" lon="6.86004">
        <ele>320.60000610352</ele>
        <time>2019-09-10T09:49:15Z</time>
      </trkpt>
      <trkpt lat="47.50793" lon="6.86003">
        <ele>320.60000610352</ele>
        <time>2019-09-10T09:49:16Z</time>
      </trkpt>
      <trkpt lat="47.5082" lon="6.85995">
        <ele>320.20001220703</ele>
        <time>2019-09-10T09:49:22Z</time>
      </trkpt>
      <trkpt lat="47.50849" lon="6.85989">
        <ele>320</ele>
        <time>2019-09-10T09:49:28Z</time>
      </trkpt>
      <trkpt lat="47.50854" lon="6.85988">
        <ele>319.79998779297</ele>
        <time>2019-09-10T09:49:29Z</time>
      </trkpt>
      <trkpt lat="47.50891" lon="6.85993">
        <ele>319.39999389648</ele>
        <time>2019-09-10T09:49:36Z</time>
      </trkpt>
      <trkpt lat="47.50926" lon="6.85998">
        <ele>319</ele>
        <time>2019-09-10T09:49:43Z</time>
      </trkpt>
      <trkpt lat="47.50931" lon="6.85998">
        <ele>319</ele>
        <time>2019-09-10T09:49:44Z</time>
      </trkpt>
      <trkpt lat="47.50947" lon="6.85995">
        <ele>318.79998779297</ele>
        <time>2019-09-10T09:49:47Z</time>
      </trkpt>
      <trkpt lat="47.50974" lon="6.85991">
        <ele>318.60000610352</ele>
        <time>2019-09-10T09:49:52Z</time>
      </trkpt>
      <trkpt lat="47.51019" lon="6.85985">
        <ele>317.79998779297</ele>
        <time>2019-09-10T09:50:01Z</time>
      </trkpt>
      <trkpt lat="47.51059" lon="6.85974">
        <ele>317.39999389648</ele>
        <time>2019-09-10T09:50:09Z</time>
      </trkpt>
      <trkpt lat="47.51063" lon="6.85972">
        <ele>317.20001220703</ele>
        <time>2019-09-10T09:50:10Z</time>
      </trkpt>
      <trkpt lat="47.51077" lon="6.85977">
        <ele>317.20001220703</ele>
        <time>2019-09-10T09:50:13Z</time>
      </trkpt>
      <trkpt lat="47.51091" lon="6.85974">
        <ele>316.79998779297</ele>
        <time>2019-09-10T09:50:16Z</time>
      </trkpt>
      <trkpt lat="47.51095" lon="6.8597">
        <ele>316.79998779297</ele>
        <time>2019-09-10T09:50:17Z</time>
      </trkpt>
      <trkpt lat="47.51099" lon="6.85965">
        <ele>316.60000610352</ele>
        <time>2019-09-10T09:50:18Z</time>
      </trkpt>
      <trkpt lat="47.51103" lon="6.85961">
        <ele>316.60000610352</ele>
        <time>2019-09-10T09:50:19Z</time>
      </trkpt>
      <trkpt lat="47.51107" lon="6.85957">
        <ele>316.60000610352</ele>
        <time>2019-09-10T09:50:20Z</time>
      </trkpt>
      <trkpt lat="47.51137" lon="6.85945">
        <ele>316.39999389648</ele>
        <time>2019-09-10T09:50:26Z</time>
      </trkpt>
      <trkpt lat="47.51151" lon="6.85938">
        <ele>316.20001220703</ele>
        <time>2019-09-10T09:50:29Z</time>
      </trkpt>
      <trkpt lat="47.51164" lon="6.85929">
        <ele>316</ele>
        <time>2019-09-10T09:50:32Z</time>
      </trkpt>
      <trkpt lat="47.51201" lon="6.85907">
        <ele>315.79998779297</ele>
        <time>2019-09-10T09:50:40Z</time>
      </trkpt>
      <trkpt lat="47.51236" lon="6.85887">
        <ele>315.60000610352</ele>
        <time>2019-09-10T09:50:48Z</time>
      </trkpt>
      <trkpt lat="47.51252" lon="6.85871">
        <ele>316</ele>
        <time>2019-09-10T09:50:53Z</time>
      </trkpt>
      <trkpt lat="47.51265" lon="6.85856">
        <ele>316.20001220703</ele>
        <time>2019-09-10T09:50:57Z</time>
      </trkpt>
      <trkpt lat="47.51268" lon="6.85843">
        <ele>316.20001220703</ele>
        <time>2019-09-10T09:50:59Z</time>
      </trkpt>
      <trkpt lat="47.51268" lon="6.85837">
        <ele>316.20001220703</ele>
        <time>2019-09-10T09:51:00Z</time>
      </trkpt>
      <trkpt lat="47.51264" lon="6.85825">
        <ele>316.20001220703</ele>
        <time>2019-09-10T09:51:02Z</time>
      </trkpt>
      <trkpt lat="47.51258" lon="6.85805">
        <ele>316</ele>
        <time>2019-09-10T09:51:05Z</time>
      </trkpt>
      <trkpt lat="47.51245" lon="6.85763">
        <ele>315.79998779297</ele>
        <time>2019-09-10T09:51:11Z</time>
      </trkpt>
      <trkpt lat="47.51225" lon="6.85699">
        <ele>315.60000610352</ele>
        <time>2019-09-10T09:51:20Z</time>
      </trkpt>
      <trkpt lat="47.5121" lon="6.8565">
        <ele>315.39999389648</ele>
        <time>2019-09-10T09:51:27Z</time>
      </trkpt>
      <trkpt lat="47.51195" lon="6.85601">
        <ele>315.39999389648</ele>
        <time>2019-09-10T09:51:34Z</time>
      </trkpt>
      <trkpt lat="47.51178" lon="6.85544">
        <ele>315.60000610352</ele>
        <time>2019-09-10T09:51:42Z</time>
      </trkpt>
      <trkpt lat="47.51162" lon="6.8549">
        <ele>315.39999389648</ele>
        <time>2019-09-10T09:51:50Z</time>
      </trkpt>
      <trkpt lat="47.51141" lon="6.85423">
        <ele>315.39999389648</ele>
        <time>2019-09-10T09:52:00Z</time>
      </trkpt>
      <trkpt lat="47.51122" lon="6.85361">
        <ele>315.20001220703</ele>
        <time>2019-09-10T09:52:09Z</time>
      </trkpt>
      <trkpt lat="47.51108" lon="6.85316">
        <ele>315.20001220703</ele>
        <time>2019-09-10T09:52:16Z</time>
      </trkpt>
      <trkpt lat="47.51088" lon="6.85256">
        <ele>315.20001220703</ele>
        <time>2019-09-10T09:52:25Z</time>
      </trkpt>
      <trkpt lat="47.51071" lon="6.85202">
        <ele>315.20001220703</ele>
        <time>2019-09-10T09:52:33Z</time>
      </trkpt>
      <trkpt lat="47.51057" lon="6.85157">
        <ele>315</ele>
        <time>2019-09-10T09:52:41Z</time>
      </trkpt>
      <trkpt lat="47.51045" lon="6.85119">
        <ele>315</ele>
        <time>2019-09-10T09:52:48Z</time>
      </trkpt>
      <trkpt lat="47.51036" lon="6.8509">
        <ele>315</ele>
        <time>2019-09-10T09:52:53Z</time>
      </trkpt>
      <trkpt lat="47.51032" lon="6.85085">
        <ele>315</ele>
        <time>2019-09-10T09:52:54Z</time>
      </trkpt>
      <trkpt lat="47.51019" lon="6.85082">
        <ele>315</ele>
        <time>2019-09-10T09:52:57Z</time>
      </trkpt>
      <trkpt lat="47.51008" lon="6.85071">
        <ele>315</ele>
        <time>2019-09-10T09:53:00Z</time>
      </trkpt>
      <trkpt lat="47.51003" lon="6.85058">
        <ele>315</ele>
        <time>2019-09-10T09:53:02Z</time>
      </trkpt>
      <trkpt lat="47.50994" lon="6.8503">
        <ele>314.60000610352</ele>
        <time>2019-09-10T09:53:06Z</time>
      </trkpt>
      <trkpt lat="47.50983" lon="6.84983">
        <ele>314.20001220703</ele>
        <time>2019-09-10T09:53:13Z</time>
      </trkpt>
      <trkpt lat="47.50974" lon="6.84949">
        <ele>314.20001220703</ele>
        <time>2019-09-10T09:53:18Z</time>
      </trkpt>
      <trkpt lat="47.50973" lon="6.84934">
        <ele>314.20001220703</ele>
        <time>2019-09-10T09:53:20Z</time>
      </trkpt>
      <trkpt lat="47.50972" lon="6.8489">
        <ele>314.20001220703</ele>
        <time>2019-09-10T09:53:26Z</time>
      </trkpt>
      <trkpt lat="47.50969" lon="6.84876">
        <ele>314.20001220703</ele>
        <time>2019-09-10T09:53:28Z</time>
      </trkpt>
      <trkpt lat="47.50961" lon="6.8485">
        <ele>314.39999389648</ele>
        <time>2019-09-10T09:53:32Z</time>
      </trkpt>
      <trkpt lat="47.50944" lon="6.84795">
        <ele>314.39999389648</ele>
        <time>2019-09-10T09:53:40Z</time>
      </trkpt>
      <trkpt lat="47.50926" lon="6.84735">
        <ele>314.39999389648</ele>
        <time>2019-09-10T09:53:49Z</time>
      </trkpt>
      <trkpt lat="47.50915" lon="6.84692">
        <ele>314.60000610352</ele>
        <time>2019-09-10T09:53:55Z</time>
      </trkpt>
      <trkpt lat="47.50897" lon="6.84641">
        <ele>314.39999389648</ele>
        <time>2019-09-10T09:54:02Z</time>
      </trkpt>
      <trkpt lat="47.50883" lon="6.84618">
        <ele>313.60000610352</ele>
        <time>2019-09-10T09:54:06Z</time>
      </trkpt>
      <trkpt lat="47.50872" lon="6.84602">
        <ele>313.39999389648</ele>
        <time>2019-09-10T09:54:09Z</time>
      </trkpt>
      <trkpt lat="47.50845" lon="6.84552">
        <ele>313.20001220703</ele>
        <time>2019-09-10T09:54:18Z</time>
      </trkpt>
      <trkpt lat="47.50824" lon="6.84512">
        <ele>313.20001220703</ele>
        <time>2019-09-10T09:54:25Z</time>
      </trkpt>
      <trkpt lat="47.50821" lon="6.84506">
        <ele>313.20001220703</ele>
        <time>2019-09-10T09:54:26Z</time>
      </trkpt>
      <trkpt lat="47.50801" lon="6.84464">
        <ele>313.39999389648</ele>
        <time>2019-09-10T09:54:33Z</time>
      </trkpt>
      <trkpt lat="47.50779" lon="6.84419">
        <ele>313.20001220703</ele>
        <time>2019-09-10T09:54:40Z</time>
      </trkpt>
      <trkpt lat="47.50756" lon="6.84367">
        <ele>313</ele>
        <time>2019-09-10T09:54:48Z</time>
      </trkpt>
      <trkpt lat="47.50733" lon="6.84314">
        <ele>313.20001220703</ele>
        <time>2019-09-10T09:54:56Z</time>
      </trkpt>
      <trkpt lat="47.50716" lon="6.8427">
        <ele>313</ele>
        <time>2019-09-10T09:55:03Z</time>
      </trkpt>
      <trkpt lat="47.50695" lon="6.84218">
        <ele>313.20001220703</ele>
        <time>2019-09-10T09:55:11Z</time>
      </trkpt>
      <trkpt lat="47.50693" lon="6.84211">
        <ele>313.20001220703</ele>
        <time>2019-09-10T09:55:12Z</time>
      </trkpt>
      <trkpt lat="47.50692" lon="6.84196">
        <ele>313.20001220703</ele>
        <time>2019-09-10T09:55:14Z</time>
      </trkpt>
      <trkpt lat="47.50695" lon="6.84179">
        <ele>313.20001220703</ele>
        <time>2019-09-10T09:55:16Z</time>
      </trkpt>
      <trkpt lat="47.50694" lon="6.84171">
        <ele>313.20001220703</ele>
        <time>2019-09-10T09:55:17Z</time>
      </trkpt>
      <trkpt lat="47.50693" lon="6.84163">
        <ele>313.20001220703</ele>
        <time>2019-09-10T09:55:18Z</time>
      </trkpt>
      <trkpt lat="47.50689" lon="6.84144">
        <ele>313</ele>
        <time>2019-09-10T09:55:21Z</time>
      </trkpt>
      <trkpt lat="47.50684" lon="6.84134">
        <ele>312.39999389648</ele>
        <time>2019-09-10T09:55:23Z</time>
      </trkpt>
      <trkpt lat="47.50679" lon="6.84131">
        <ele>311.79998779297</ele>
        <time>2019-09-10T09:55:24Z</time>
      </trkpt>
      <trkpt lat="47.50667" lon="6.84126">
        <ele>311.39999389648</ele>
        <time>2019-09-10T09:55:27Z</time>
      </trkpt>
      <trkpt lat="47.50656" lon="6.84114">
        <ele>311.39999389648</ele>
        <time>2019-09-10T09:55:32Z</time>
      </trkpt>
      <trkpt lat="47.50647" lon="6.84087">
        <ele>312.39999389648</ele>
        <time>2019-09-10T09:55:38Z</time>
      </trkpt>
      <trkpt lat="47.50635" lon="6.84047">
        <ele>312.79998779297</ele>
        <time>2019-09-10T09:55:45Z</time>
      </trkpt>
      <trkpt lat="47.5063" lon="6.84028">
        <ele>312.79998779297</ele>
        <time>2019-09-10T09:55:48Z</time>
      </trkpt>
      <trkpt lat="47.50625" lon="6.84007">
        <ele>312.79998779297</ele>
        <time>2019-09-10T09:55:51Z</time>
      </trkpt>
      <trkpt lat="47.50616" lon="6.83975">
        <ele>312.79998779297</ele>
        <time>2019-09-10T09:55:56Z</time>
      </trkpt>
      <trkpt lat="47.50612" lon="6.83964">
        <ele>312.79998779297</ele>
        <time>2019-09-10T09:55:58Z</time>
      </trkpt>
      <trkpt lat="47.50601" lon="6.8393">
        <ele>312.79998779297</ele>
        <time>2019-09-10T09:56:04Z</time>
      </trkpt>
      <trkpt lat="47.506" lon="6.83924">
        <ele>313</ele>
        <time>2019-09-10T09:56:05Z</time>
      </trkpt>
      <trkpt lat="47.50595" lon="6.83902">
        <ele>313.20001220703</ele>
        <time>2019-09-10T09:56:08Z</time>
      </trkpt>
      <trkpt lat="47.50592" lon="6.83888">
        <ele>313.20001220703</ele>
        <time>2019-09-10T09:56:10Z</time>
      </trkpt>
      <trkpt lat="47.50575" lon="6.83813">
        <ele>313.79998779297</ele>
        <time>2019-09-10T09:56:20Z</time>
      </trkpt>
      <trkpt lat="47.50564" lon="6.83762">
        <ele>313.79998779297</ele>
        <time>2019-09-10T09:56:27Z</time>
      </trkpt>
      <trkpt lat="47.50557" lon="6.83723">
        <ele>313.60000610352</ele>
        <time>2019-09-10T09:56:33Z</time>
      </trkpt>
      <trkpt lat="47.50556" lon="6.83717">
        <ele>313.60000610352</ele>
        <time>2019-09-10T09:56:34Z</time>
      </trkpt>
      <trkpt lat="47.50547" lon="6.83687">
        <ele>313.39999389648</ele>
        <time>2019-09-10T09:56:39Z</time>
      </trkpt>
      <trkpt lat="47.50532" lon="6.83642">
        <ele>313.39999389648</ele>
        <time>2019-09-10T09:56:46Z</time>
      </trkpt>
      <trkpt lat="47.5053" lon="6.83635">
        <ele>313.39999389648</ele>
        <time>2019-09-10T09:56:47Z</time>
      </trkpt>
      <trkpt lat="47.50517" lon="6.83594">
        <ele>313.39999389648</ele>
        <time>2019-09-10T09:56:53Z</time>
      </trkpt>
      <trkpt lat="47.50502" lon="6.83549">
        <ele>313.39999389648</ele>
        <time>2019-09-10T09:57:00Z</time>
      </trkpt>
      <trkpt lat="47.50492" lon="6.83514">
        <ele>313.39999389648</ele>
        <time>2019-09-10T09:57:05Z</time>
      </trkpt>
      <trkpt lat="47.50489" lon="6.83501">
        <ele>313.20001220703</ele>
        <time>2019-09-10T09:57:07Z</time>
      </trkpt>
      <trkpt lat="47.50475" lon="6.83451">
        <ele>313</ele>
        <time>2019-09-10T09:57:14Z</time>
      </trkpt>
      <trkpt lat="47.50465" lon="6.83413">
        <ele>313</ele>
        <time>2019-09-10T09:57:20Z</time>
      </trkpt>
      <trkpt lat="47.50464" lon="6.83406">
        <ele>313</ele>
        <time>2019-09-10T09:57:21Z</time>
      </trkpt>
      <trkpt lat="47.50464" lon="6.83375">
        <ele>313</ele>
        <time>2019-09-10T09:57:26Z</time>
      </trkpt>
      <trkpt lat="47.50467" lon="6.83355">
        <ele>313</ele>
        <time>2019-09-10T09:57:30Z</time>
      </trkpt>
      <trkpt lat="47.50473" lon="6.83325">
        <ele>313</ele>
        <time>2019-09-10T09:57:34Z</time>
      </trkpt>
      <trkpt lat="47.50467" lon="6.83303">
        <ele>312.20001220703</ele>
        <time>2019-09-10T09:57:38Z</time>
      </trkpt>
      <trkpt lat="47.50463" lon="6.833">
        <ele>311.60000610352</ele>
        <time>2019-09-10T09:57:39Z</time>
      </trkpt>
      <trkpt lat="47.5046" lon="6.83296">
        <ele>311.20001220703</ele>
        <time>2019-09-10T09:57:40Z</time>
      </trkpt>
      <trkpt lat="47.50456" lon="6.83291">
        <ele>311</ele>
        <time>2019-09-10T09:57:41Z</time>
      </trkpt>
      <trkpt lat="47.50454" lon="6.83286">
        <ele>311</ele>
        <time>2019-09-10T09:57:42Z</time>
      </trkpt>
      <trkpt lat="47.50446" lon="6.83267">
        <ele>310.79998779297</ele>
        <time>2019-09-10T09:57:47Z</time>
      </trkpt>
      <trkpt lat="47.50437" lon="6.83241">
        <ele>311.79998779297</ele>
        <time>2019-09-10T09:57:53Z</time>
      </trkpt>
      <trkpt lat="47.50436" lon="6.83235">
        <ele>312</ele>
        <time>2019-09-10T09:57:54Z</time>
      </trkpt>
      <trkpt lat="47.50433" lon="6.83218">
        <ele>312.60000610352</ele>
        <time>2019-09-10T09:57:57Z</time>
      </trkpt>
      <trkpt lat="47.50429" lon="6.83199">
        <ele>313</ele>
        <time>2019-09-10T09:58:00Z</time>
      </trkpt>
      <trkpt lat="47.50425" lon="6.83187">
        <ele>313</ele>
        <time>2019-09-10T09:58:02Z</time>
      </trkpt>
      <trkpt lat="47.50423" lon="6.83181">
        <ele>313</ele>
        <time>2019-09-10T09:58:03Z</time>
      </trkpt>
      <trkpt lat="47.50418" lon="6.83168">
        <ele>313</ele>
        <time>2019-09-10T09:58:05Z</time>
      </trkpt>
      <trkpt lat="47.50415" lon="6.83147">
        <ele>313</ele>
        <time>2019-09-10T09:58:08Z</time>
      </trkpt>
      <trkpt lat="47.50413" lon="6.83133">
        <ele>313</ele>
        <time>2019-09-10T09:58:10Z</time>
      </trkpt>
      <trkpt lat="47.50406" lon="6.83077">
        <ele>313</ele>
        <time>2019-09-10T09:58:18Z</time>
      </trkpt>
      <trkpt lat="47.50398" lon="6.83027">
        <ele>312.79998779297</ele>
        <time>2019-09-10T09:58:25Z</time>
      </trkpt>
      <trkpt lat="47.50391" lon="6.82986">
        <ele>312.79998779297</ele>
        <time>2019-09-10T09:58:31Z</time>
      </trkpt>
      <trkpt lat="47.50381" lon="6.82926">
        <ele>313</ele>
        <time>2019-09-10T09:58:39Z</time>
      </trkpt>
      <trkpt lat="47.50371" lon="6.82864">
        <ele>313</ele>
        <time>2019-09-10T09:58:47Z</time>
      </trkpt>
      <trkpt lat="47.50361" lon="6.8282">
        <ele>312.60000610352</ele>
        <time>2019-09-10T09:58:53Z</time>
      </trkpt>
      <trkpt lat="47.5036" lon="6.82814">
        <ele>312.60000610352</ele>
        <time>2019-09-10T09:58:54Z</time>
      </trkpt>
      <trkpt lat="47.50354" lon="6.82787">
        <ele>312.60000610352</ele>
        <time>2019-09-10T09:58:58Z</time>
      </trkpt>
      <trkpt lat="47.50349" lon="6.82731">
        <ele>312.60000610352</ele>
        <time>2019-09-10T09:59:05Z</time>
      </trkpt>
      <trkpt lat="47.5035" lon="6.82661">
        <ele>312.60000610352</ele>
        <time>2019-09-10T09:59:13Z</time>
      </trkpt>
      <trkpt lat="47.5035" lon="6.82635">
        <ele>312.39999389648</ele>
        <time>2019-09-10T09:59:16Z</time>
      </trkpt>
      <trkpt lat="47.5035" lon="6.8261">
        <ele>312.39999389648</ele>
        <time>2019-09-10T09:59:19Z</time>
      </trkpt>
      <trkpt lat="47.50352" lon="6.82572">
        <ele>312.39999389648</ele>
        <time>2019-09-10T09:59:24Z</time>
      </trkpt>
      <trkpt lat="47.50354" lon="6.82566">
        <ele>312.39999389648</ele>
        <time>2019-09-10T09:59:25Z</time>
      </trkpt>
      <trkpt lat="47.50361" lon="6.8255">
        <ele>312.39999389648</ele>
        <time>2019-09-10T09:59:28Z</time>
      </trkpt>
      <trkpt lat="47.50367" lon="6.82543">
        <ele>312.39999389648</ele>
        <time>2019-09-10T09:59:30Z</time>
      </trkpt>
      <trkpt lat="47.50373" lon="6.82537">
        <ele>312.39999389648</ele>
        <time>2019-09-10T09:59:33Z</time>
      </trkpt>
      <trkpt lat="47.50375" lon="6.82533">
        <ele>312.39999389648</ele>
        <time>2019-09-10T09:59:35Z</time>
      </trkpt>
      <trkpt lat="47.50375" lon="6.82518">
        <ele>312.20001220703</ele>
        <time>2019-09-10T09:59:41Z</time>
      </trkpt>
      <trkpt lat="47.50374" lon="6.82515">
        <ele>312.20001220703</ele>
        <time>2019-09-10T09:59:42Z</time>
      </trkpt>
      <trkpt lat="47.5037" lon="6.82487">
        <ele>312.20001220703</ele>
        <time>2019-09-10T09:59:46Z</time>
      </trkpt>
      <trkpt lat="47.50362" lon="6.8246">
        <ele>312.20001220703</ele>
        <time>2019-09-10T09:59:50Z</time>
      </trkpt>
      <trkpt lat="47.50357" lon="6.82428">
        <ele>312.20001220703</ele>
        <time>2019-09-10T09:59:55Z</time>
      </trkpt>
      <trkpt lat="47.50352" lon="6.82417">
        <ele>312.20001220703</ele>
        <time>2019-09-10T09:59:57Z</time>
      </trkpt>
      <trkpt lat="47.50349" lon="6.82396">
        <ele>312.20001220703</ele>
        <time>2019-09-10T10:00:00Z</time>
      </trkpt>
      <trkpt lat="47.50348" lon="6.8238">
        <ele>312.20001220703</ele>
        <time>2019-09-10T10:00:02Z</time>
      </trkpt>
      <trkpt lat="47.50348" lon="6.82373">
        <ele>312</ele>
        <time>2019-09-10T10:00:03Z</time>
      </trkpt>
      <trkpt lat="47.50348" lon="6.82342">
        <ele>312</ele>
        <time>2019-09-10T10:00:07Z</time>
      </trkpt>
      <trkpt lat="47.5035" lon="6.82289">
        <ele>312</ele>
        <time>2019-09-10T10:00:14Z</time>
      </trkpt>
      <trkpt lat="47.50354" lon="6.8223">
        <ele>312</ele>
        <time>2019-09-10T10:00:22Z</time>
      </trkpt>
      <trkpt lat="47.50361" lon="6.82165">
        <ele>312</ele>
        <time>2019-09-10T10:00:31Z</time>
      </trkpt>
      <trkpt lat="47.50364" lon="6.82114">
        <ele>312</ele>
        <time>2019-09-10T10:00:38Z</time>
      </trkpt>
      <trkpt lat="47.50369" lon="6.82057">
        <ele>312</ele>
        <time>2019-09-10T10:00:45Z</time>
      </trkpt>
      <trkpt lat="47.50375" lon="6.81974">
        <ele>312</ele>
        <time>2019-09-10T10:00:55Z</time>
      </trkpt>
      <trkpt lat="47.5038" lon="6.81908">
        <ele>312</ele>
        <time>2019-09-10T10:01:03Z</time>
      </trkpt>
      <trkpt lat="47.50384" lon="6.81843">
        <ele>311.79998779297</ele>
        <time>2019-09-10T10:01:11Z</time>
      </trkpt>
      <trkpt lat="47.5039" lon="6.81781">
        <ele>311.79998779297</ele>
        <time>2019-09-10T10:01:19Z</time>
      </trkpt>
      <trkpt lat="47.50394" lon="6.81728">
        <ele>312</ele>
        <time>2019-09-10T10:01:26Z</time>
      </trkpt>
      <trkpt lat="47.50398" lon="6.81664">
        <ele>312</ele>
        <time>2019-09-10T10:01:34Z</time>
      </trkpt>
      <trkpt lat="47.504" lon="6.81631">
        <ele>312</ele>
        <time>2019-09-10T10:01:38Z</time>
      </trkpt>
      <trkpt lat="47.50401" lon="6.81615">
        <ele>311.79998779297</ele>
        <time>2019-09-10T10:01:40Z</time>
      </trkpt>
      <trkpt lat="47.50401" lon="6.81606">
        <ele>311.79998779297</ele>
        <time>2019-09-10T10:01:41Z</time>
      </trkpt>
      <trkpt lat="47.50405" lon="6.81532">
        <ele>311.79998779297</ele>
        <time>2019-09-10T10:01:50Z</time>
      </trkpt>
      <trkpt lat="47.50407" lon="6.81474">
        <ele>311.79998779297</ele>
        <time>2019-09-10T10:01:57Z</time>
      </trkpt>
      <trkpt lat="47.50408" lon="6.81458">
        <ele>311.79998779297</ele>
        <time>2019-09-10T10:01:59Z</time>
      </trkpt>
      <trkpt lat="47.50413" lon="6.81392">
        <ele>311.79998779297</ele>
        <time>2019-09-10T10:02:07Z</time>
      </trkpt>
      <trkpt lat="47.50415" lon="6.81324">
        <ele>311.79998779297</ele>
        <time>2019-09-10T10:02:15Z</time>
      </trkpt>
      <trkpt lat="47.50419" lon="6.81266">
        <ele>311.79998779297</ele>
        <time>2019-09-10T10:02:22Z</time>
      </trkpt>
      <trkpt lat="47.50421" lon="6.81252">
        <ele>311.79998779297</ele>
        <time>2019-09-10T10:02:24Z</time>
      </trkpt>
      <trkpt lat="47.50429" lon="6.81222">
        <ele>312</ele>
        <time>2019-09-10T10:02:28Z</time>
      </trkpt>
      <trkpt lat="47.50436" lon="6.81173">
        <ele>312.20001220703</ele>
        <time>2019-09-10T10:02:34Z</time>
      </trkpt>
      <trkpt lat="47.50438" lon="6.81127">
        <ele>312.20001220703</ele>
        <time>2019-09-10T10:02:39Z</time>
      </trkpt>
      <trkpt lat="47.50442" lon="6.81058">
        <ele>311.79998779297</ele>
        <time>2019-09-10T10:02:46Z</time>
      </trkpt>
      <trkpt lat="47.50446" lon="6.80985">
        <ele>311.39999389648</ele>
        <time>2019-09-10T10:02:54Z</time>
      </trkpt>
      <trkpt lat="47.50451" lon="6.80897">
        <ele>311.39999389648</ele>
        <time>2019-09-10T10:03:04Z</time>
      </trkpt>
      <trkpt lat="47.50451" lon="6.80888">
        <ele>311.39999389648</ele>
        <time>2019-09-10T10:03:05Z</time>
      </trkpt>
      <trkpt lat="47.50451" lon="6.80844">
        <ele>311.39999389648</ele>
        <time>2019-09-10T10:03:10Z</time>
      </trkpt>
      <trkpt lat="47.50449" lon="6.80828">
        <ele>311.39999389648</ele>
        <time>2019-09-10T10:03:12Z</time>
      </trkpt>
      <trkpt lat="47.5045" lon="6.80803">
        <ele>311.60000610352</ele>
        <time>2019-09-10T10:03:15Z</time>
      </trkpt>
      <trkpt lat="47.50451" lon="6.80795">
        <ele>311.60000610352</ele>
        <time>2019-09-10T10:03:16Z</time>
      </trkpt>
      <trkpt lat="47.50458" lon="6.8074">
        <ele>311.60000610352</ele>
        <time>2019-09-10T10:03:22Z</time>
      </trkpt>
      <trkpt lat="47.50461" lon="6.8067">
        <ele>311.39999389648</ele>
        <time>2019-09-10T10:03:30Z</time>
      </trkpt>
      <trkpt lat="47.50463" lon="6.80619">
        <ele>311.39999389648</ele>
        <time>2019-09-10T10:03:36Z</time>
      </trkpt>
      <trkpt lat="47.50465" lon="6.80593">
        <ele>311.39999389648</ele>
        <time>2019-09-10T10:03:39Z</time>
      </trkpt>
      <trkpt lat="47.5047" lon="6.80527">
        <ele>311.20001220703</ele>
        <time>2019-09-10T10:03:47Z</time>
      </trkpt>
      <trkpt lat="47.50473" lon="6.80476">
        <ele>311</ele>
        <time>2019-09-10T10:03:53Z</time>
      </trkpt>
      <trkpt lat="47.50472" lon="6.8045">
        <ele>311</ele>
        <time>2019-09-10T10:03:57Z</time>
      </trkpt>
      <trkpt lat="47.50469" lon="6.80432">
        <ele>311</ele>
        <time>2019-09-10T10:04:02Z</time>
      </trkpt>
      <trkpt lat="47.50457" lon="6.80421">
        <ele>311.60000610352</ele>
        <time>2019-09-10T10:04:07Z</time>
      </trkpt>
      <trkpt lat="47.50444" lon="6.80427">
        <ele>312.20001220703</ele>
        <time>2019-09-10T10:04:11Z</time>
      </trkpt>
      <trkpt lat="47.5044" lon="6.80441">
        <ele>312.60000610352</ele>
        <time>2019-09-10T10:04:14Z</time>
      </trkpt>
      <trkpt lat="47.5044" lon="6.80446">
        <ele>312.79998779297</ele>
        <time>2019-09-10T10:04:15Z</time>
      </trkpt>
      <trkpt lat="47.50449" lon="6.80454">
        <ele>313.79998779297</ele>
        <time>2019-09-10T10:04:18Z</time>
      </trkpt>
      <trkpt lat="47.50452" lon="6.80456">
        <ele>314</ele>
        <time>2019-09-10T10:04:19Z</time>
      </trkpt>
      <trkpt lat="47.50474" lon="6.80459">
        <ele>314.79998779297</ele>
        <time>2019-09-10T10:04:25Z</time>
      </trkpt>
      <trkpt lat="47.50504" lon="6.80457">
        <ele>315.20001220703</ele>
        <time>2019-09-10T10:04:32Z</time>
      </trkpt>
      <trkpt lat="47.50509" lon="6.80456">
        <ele>315.39999389648</ele>
        <time>2019-09-10T10:04:33Z</time>
      </trkpt>
      <trkpt lat="47.50523" lon="6.80458">
        <ele>315.39999389648</ele>
        <time>2019-09-10T10:04:36Z</time>
      </trkpt>
      <trkpt lat="47.50527" lon="6.80459">
        <ele>315.39999389648</ele>
        <time>2019-09-10T10:04:37Z</time>
      </trkpt>
      <trkpt lat="47.50539" lon="6.80454">
        <ele>315.20001220703</ele>
        <time>2019-09-10T10:04:40Z</time>
      </trkpt>
      <trkpt lat="47.50543" lon="6.80431">
        <ele>315</ele>
        <time>2019-09-10T10:04:44Z</time>
      </trkpt>
      <trkpt lat="47.50543" lon="6.80424">
        <ele>314.79998779297</ele>
        <time>2019-09-10T10:04:45Z</time>
      </trkpt>
      <trkpt lat="47.50541" lon="6.80411">
        <ele>314.60000610352</ele>
        <time>2019-09-10T10:04:47Z</time>
      </trkpt>
      <trkpt lat="47.50534" lon="6.80411">
        <ele>314.39999389648</ele>
        <time>2019-09-10T10:04:49Z</time>
      </trkpt>
      <trkpt lat="47.50533" lon="6.80421">
        <ele>314.20001220703</ele>
        <time>2019-09-10T10:04:51Z</time>
      </trkpt>
      <trkpt lat="47.50532" lon="6.80439">
        <ele>313.60000610352</ele>
        <time>2019-09-10T10:04:54Z</time>
      </trkpt>
      <trkpt lat="47.50525" lon="6.80437">
        <ele>313.20001220703</ele>
        <time>2019-09-10T10:04:56Z</time>
      </trkpt>
      <trkpt lat="47.50509" lon="6.80415">
        <ele>312.39999389648</ele>
        <time>2019-09-10T10:05:00Z</time>
      </trkpt>
      <trkpt lat="47.50506" lon="6.80392">
        <ele>311.79998779297</ele>
        <time>2019-09-10T10:05:03Z</time>
      </trkpt>
      <trkpt lat="47.50507" lon="6.80377">
        <ele>311.20001220703</ele>
        <time>2019-09-10T10:05:05Z</time>
      </trkpt>
      <trkpt lat="47.50507" lon="6.80354">
        <ele>310.60000610352</ele>
        <time>2019-09-10T10:05:08Z</time>
      </trkpt>
      <trkpt lat="47.50506" lon="6.80339">
        <ele>310.39999389648</ele>
        <time>2019-09-10T10:05:10Z</time>
      </trkpt>
      <trkpt lat="47.50504" lon="6.80317">
        <ele>310.20001220703</ele>
        <time>2019-09-10T10:05:13Z</time>
      </trkpt>
      <trkpt lat="47.50504" lon="6.80309">
        <ele>310.20001220703</ele>
        <time>2019-09-10T10:05:14Z</time>
      </trkpt>
      <trkpt lat="47.50504" lon="6.80287">
        <ele>310.20001220703</ele>
        <time>2019-09-10T10:05:17Z</time>
      </trkpt>
      <trkpt lat="47.50507" lon="6.80221">
        <ele>310.39999389648</ele>
        <time>2019-09-10T10:05:26Z</time>
      </trkpt>
      <trkpt lat="47.50508" lon="6.80169">
        <ele>310.60000610352</ele>
        <time>2019-09-10T10:05:33Z</time>
      </trkpt>
      <trkpt lat="47.50511" lon="6.80111">
        <ele>310.60000610352</ele>
        <time>2019-09-10T10:05:41Z</time>
      </trkpt>
      <trkpt lat="47.50514" lon="6.80054">
        <ele>310.39999389648</ele>
        <time>2019-09-10T10:05:49Z</time>
      </trkpt>
      <trkpt lat="47.50516" lon="6.80005">
        <ele>310.60000610352</ele>
        <time>2019-09-10T10:05:56Z</time>
      </trkpt>
      <trkpt lat="47.50518" lon="6.79947">
        <ele>310.60000610352</ele>
        <time>2019-09-10T10:06:04Z</time>
      </trkpt>
      <trkpt lat="47.50518" lon="6.7994">
        <ele>310.60000610352</ele>
        <time>2019-09-10T10:06:05Z</time>
      </trkpt>
      <trkpt lat="47.50518" lon="6.79913">
        <ele>310.60000610352</ele>
        <time>2019-09-10T10:06:09Z</time>
      </trkpt>
      <trkpt lat="47.50519" lon="6.79906">
        <ele>310.60000610352</ele>
        <time>2019-09-10T10:06:10Z</time>
      </trkpt>
      <trkpt lat="47.50521" lon="6.7987">
        <ele>310.79998779297</ele>
        <time>2019-09-10T10:06:15Z</time>
      </trkpt>
      <trkpt lat="47.5052" lon="6.79854">
        <ele>310.79998779297</ele>
        <time>2019-09-10T10:06:17Z</time>
      </trkpt>
      <trkpt lat="47.50521" lon="6.7982">
        <ele>310.79998779297</ele>
        <time>2019-09-10T10:06:22Z</time>
      </trkpt>
      <trkpt lat="47.50521" lon="6.79791">
        <ele>310.79998779297</ele>
        <time>2019-09-10T10:06:26Z</time>
      </trkpt>
      <trkpt lat="47.50521" lon="6.79774">
        <ele>310.79998779297</ele>
        <time>2019-09-10T10:06:28Z</time>
      </trkpt>
      <trkpt lat="47.50514" lon="6.79715">
        <ele>310.39999389648</ele>
        <time>2019-09-10T10:06:35Z</time>
      </trkpt>
      <trkpt lat="47.50506" lon="6.79658">
        <ele>310.20001220703</ele>
        <time>2019-09-10T10:06:42Z</time>
      </trkpt>
      <trkpt lat="47.50499" lon="6.79599">
        <ele>310.20001220703</ele>
        <time>2019-09-10T10:06:50Z</time>
      </trkpt>
      <trkpt lat="47.50492" lon="6.79558">
        <ele>310</ele>
        <time>2019-09-10T10:06:56Z</time>
      </trkpt>
      <trkpt lat="47.5049" lon="6.79544">
        <ele>310</ele>
        <time>2019-09-10T10:06:58Z</time>
      </trkpt>
      <trkpt lat="47.50486" lon="6.79512">
        <ele>310</ele>
        <time>2019-09-10T10:07:03Z</time>
      </trkpt>
      <trkpt lat="47.50483" lon="6.79475">
        <ele>310</ele>
        <time>2019-09-10T10:07:09Z</time>
      </trkpt>
      <trkpt lat="47.50486" lon="6.79441">
        <ele>310</ele>
        <time>2019-09-10T10:07:15Z</time>
      </trkpt>
      <trkpt lat="47.50489" lon="6.79438">
        <ele>310</ele>
        <time>2019-09-10T10:07:16Z</time>
      </trkpt>
      <trkpt lat="47.505" lon="6.79432">
        <ele>310.20001220703</ele>
        <time>2019-09-10T10:07:21Z</time>
      </trkpt>
      <trkpt lat="47.505" lon="6.79432">
        <ele>310</ele>
        <time>2019-09-10T10:07:22Z</time>
      </trkpt>
      <trkpt lat="47.50497" lon="6.7943">
        <ele>309.60000610352</ele>
        <time>2019-09-10T10:47:38Z</time>
      </trkpt>
      <trkpt lat="47.50497" lon="6.79426">
        <ele>309.60000610352</ele>
        <time>2019-09-10T10:47:40Z</time>
      </trkpt>
      <trkpt lat="47.50491" lon="6.79427">
        <ele>309.60000610352</ele>
        <time>2019-09-10T10:47:44Z</time>
      </trkpt>
      <trkpt lat="47.50489" lon="6.79429">
        <ele>309.60000610352</ele>
        <time>2019-09-10T10:47:45Z</time>
      </trkpt>
      <trkpt lat="47.50487" lon="6.79431">
        <ele>309.60000610352</ele>
        <time>2019-09-10T10:47:46Z</time>
      </trkpt>
      <trkpt lat="47.50484" lon="6.79429">
        <ele>309.60000610352</ele>
        <time>2019-09-10T10:47:48Z</time>
      </trkpt>
      <trkpt lat="47.50484" lon="6.79422">
        <ele>309.60000610352</ele>
        <time>2019-09-10T10:47:50Z</time>
      </trkpt>
      <trkpt lat="47.50485" lon="6.79412">
        <ele>309.60000610352</ele>
        <time>2019-09-10T10:47:52Z</time>
      </trkpt>
      <trkpt lat="47.50486" lon="6.794">
        <ele>309.79998779297</ele>
        <time>2019-09-10T10:47:54Z</time>
      </trkpt>
      <trkpt lat="47.50483" lon="6.79389">
        <ele>309.79998779297</ele>
        <time>2019-09-10T10:47:56Z</time>
      </trkpt>
      <trkpt lat="47.5048" lon="6.79377">
        <ele>309.79998779297</ele>
        <time>2019-09-10T10:47:58Z</time>
      </trkpt>
      <trkpt lat="47.50476" lon="6.79353">
        <ele>310</ele>
        <time>2019-09-10T10:48:02Z</time>
      </trkpt>
      <trkpt lat="47.50469" lon="6.79309">
        <ele>310.20001220703</ele>
        <time>2019-09-10T10:48:09Z</time>
      </trkpt>
      <trkpt lat="47.50464" lon="6.79272">
        <ele>310.20001220703</ele>
        <time>2019-09-10T10:48:15Z</time>
      </trkpt>
      <trkpt lat="47.50461" lon="6.7926">
        <ele>310.20001220703</ele>
        <time>2019-09-10T10:48:17Z</time>
      </trkpt>
      <trkpt lat="47.50459" lon="6.79247">
        <ele>310.20001220703</ele>
        <time>2019-09-10T10:48:19Z</time>
      </trkpt>
      <trkpt lat="47.50455" lon="6.79221">
        <ele>310.20001220703</ele>
        <time>2019-09-10T10:48:23Z</time>
      </trkpt>
      <trkpt lat="47.50453" lon="6.79201">
        <ele>310.20001220703</ele>
        <time>2019-09-10T10:48:26Z</time>
      </trkpt>
      <trkpt lat="47.50449" lon="6.7918">
        <ele>310.20001220703</ele>
        <time>2019-09-10T10:48:29Z</time>
      </trkpt>
      <trkpt lat="47.50447" lon="6.79166">
        <ele>310.20001220703</ele>
        <time>2019-09-10T10:48:31Z</time>
      </trkpt>
      <trkpt lat="47.50439" lon="6.79146">
        <ele>310.39999389648</ele>
        <time>2019-09-10T10:48:34Z</time>
      </trkpt>
      <trkpt lat="47.50432" lon="6.79135">
        <ele>310.39999389648</ele>
        <time>2019-09-10T10:48:36Z</time>
      </trkpt>
      <trkpt lat="47.50426" lon="6.79123">
        <ele>310.39999389648</ele>
        <time>2019-09-10T10:48:38Z</time>
      </trkpt>
      <trkpt lat="47.5042" lon="6.7911">
        <ele>310.39999389648</ele>
        <time>2019-09-10T10:48:40Z</time>
      </trkpt>
      <trkpt lat="47.50417" lon="6.79094">
        <ele>310.39999389648</ele>
        <time>2019-09-10T10:48:42Z</time>
      </trkpt>
      <trkpt lat="47.50413" lon="6.79062">
        <ele>310.39999389648</ele>
        <time>2019-09-10T10:48:46Z</time>
      </trkpt>
      <trkpt lat="47.50405" lon="6.78999">
        <ele>310.20001220703</ele>
        <time>2019-09-10T10:48:54Z</time>
      </trkpt>
      <trkpt lat="47.50402" lon="6.78946">
        <ele>310.20001220703</ele>
        <time>2019-09-10T10:49:01Z</time>
      </trkpt>
      <trkpt lat="47.50402" lon="6.78878">
        <ele>310</ele>
        <time>2019-09-10T10:49:09Z</time>
      </trkpt>
      <trkpt lat="47.50404" lon="6.7883">
        <ele>309.79998779297</ele>
        <time>2019-09-10T10:49:15Z</time>
      </trkpt>
      <trkpt lat="47.50405" lon="6.78814">
        <ele>309.79998779297</ele>
        <time>2019-09-10T10:49:17Z</time>
      </trkpt>
      <trkpt lat="47.50408" lon="6.78787">
        <ele>309.79998779297</ele>
        <time>2019-09-10T10:49:20Z</time>
      </trkpt>
      <trkpt lat="47.50417" lon="6.78719">
        <ele>309.79998779297</ele>
        <time>2019-09-10T10:49:28Z</time>
      </trkpt>
      <trkpt lat="47.50425" lon="6.78679">
        <ele>309.79998779297</ele>
        <time>2019-09-10T10:49:33Z</time>
      </trkpt>
      <trkpt lat="47.50427" lon="6.78662">
        <ele>309.79998779297</ele>
        <time>2019-09-10T10:49:35Z</time>
      </trkpt>
      <trkpt lat="47.50441" lon="6.78595">
        <ele>309.79998779297</ele>
        <time>2019-09-10T10:49:43Z</time>
      </trkpt>
      <trkpt lat="47.50454" lon="6.7853">
        <ele>310</ele>
        <time>2019-09-10T10:49:51Z</time>
      </trkpt>
      <trkpt lat="47.50468" lon="6.78465">
        <ele>310</ele>
        <time>2019-09-10T10:49:59Z</time>
      </trkpt>
      <trkpt lat="47.5048" lon="6.78412">
        <ele>310</ele>
        <time>2019-09-10T10:50:05Z</time>
      </trkpt>
      <trkpt lat="47.5049" lon="6.7836">
        <ele>309.39999389648</ele>
        <time>2019-09-10T10:50:11Z</time>
      </trkpt>
      <trkpt lat="47.50502" lon="6.78298">
        <ele>309</ele>
        <time>2019-09-10T10:50:18Z</time>
      </trkpt>
      <trkpt lat="47.50513" lon="6.78235">
        <ele>308.79998779297</ele>
        <time>2019-09-10T10:50:25Z</time>
      </trkpt>
      <trkpt lat="47.5052" lon="6.78201">
        <ele>308.39999389648</ele>
        <time>2019-09-10T10:50:29Z</time>
      </trkpt>
      <trkpt lat="47.50523" lon="6.78184">
        <ele>308.39999389648</ele>
        <time>2019-09-10T10:50:31Z</time>
      </trkpt>
      <trkpt lat="47.50528" lon="6.78161">
        <ele>308.39999389648</ele>
        <time>2019-09-10T10:50:34Z</time>
      </trkpt>
      <trkpt lat="47.50537" lon="6.78106">
        <ele>308.20001220703</ele>
        <time>2019-09-10T10:50:41Z</time>
      </trkpt>
      <trkpt lat="47.50543" lon="6.78058">
        <ele>308.20001220703</ele>
        <time>2019-09-10T10:50:47Z</time>
      </trkpt>
      <trkpt lat="47.50543" lon="6.78001">
        <ele>308.39999389648</ele>
        <time>2019-09-10T10:50:54Z</time>
      </trkpt>
      <trkpt lat="47.50538" lon="6.7795">
        <ele>308.60000610352</ele>
        <time>2019-09-10T10:51:01Z</time>
      </trkpt>
      <trkpt lat="47.50531" lon="6.77896">
        <ele>308.60000610352</ele>
        <time>2019-09-10T10:51:08Z</time>
      </trkpt>
      <trkpt lat="47.5052" lon="6.77838">
        <ele>308.60000610352</ele>
        <time>2019-09-10T10:51:15Z</time>
      </trkpt>
      <trkpt lat="47.50508" lon="6.77799">
        <ele>308.39999389648</ele>
        <time>2019-09-10T10:51:20Z</time>
      </trkpt>
      <trkpt lat="47.50487" lon="6.77737">
        <ele>308</ele>
        <time>2019-09-10T10:51:28Z</time>
      </trkpt>
      <trkpt lat="47.50468" lon="6.77689">
        <ele>308</ele>
        <time>2019-09-10T10:51:35Z</time>
      </trkpt>
      <trkpt lat="47.50447" lon="6.77649">
        <ele>307.79998779297</ele>
        <time>2019-09-10T10:51:41Z</time>
      </trkpt>
      <trkpt lat="47.50432" lon="6.77625">
        <ele>308</ele>
        <time>2019-09-10T10:51:45Z</time>
      </trkpt>
      <trkpt lat="47.50421" lon="6.77608">
        <ele>308</ele>
        <time>2019-09-10T10:51:48Z</time>
      </trkpt>
      <trkpt lat="47.50391" lon="6.77571">
        <ele>308</ele>
        <time>2019-09-10T10:51:55Z</time>
      </trkpt>
      <trkpt lat="47.50387" lon="6.77568">
        <ele>308</ele>
        <time>2019-09-10T10:51:56Z</time>
      </trkpt>
      <trkpt lat="47.50367" lon="6.77557">
        <ele>308</ele>
        <time>2019-09-10T10:52:00Z</time>
      </trkpt>
      <trkpt lat="47.50332" lon="6.7753">
        <ele>308.20001220703</ele>
        <time>2019-09-10T10:52:07Z</time>
      </trkpt>
      <trkpt lat="47.50293" lon="6.77492">
        <ele>307.79998779297</ele>
        <time>2019-09-10T10:52:14Z</time>
      </trkpt>
      <trkpt lat="47.50283" lon="6.77483">
        <ele>307.20001220703</ele>
        <time>2019-09-10T10:52:16Z</time>
      </trkpt>
      <trkpt lat="47.50254" lon="6.77456">
        <ele>306.20001220703</ele>
        <time>2019-09-10T10:52:22Z</time>
      </trkpt>
      <trkpt lat="47.50245" lon="6.77445">
        <ele>306.20001220703</ele>
        <time>2019-09-10T10:52:24Z</time>
      </trkpt>
      <trkpt lat="47.50237" lon="6.77431">
        <ele>306.20001220703</ele>
        <time>2019-09-10T10:52:26Z</time>
      </trkpt>
      <trkpt lat="47.50219" lon="6.77413">
        <ele>306.20001220703</ele>
        <time>2019-09-10T10:52:30Z</time>
      </trkpt>
      <trkpt lat="47.50184" lon="6.77392">
        <ele>306.39999389648</ele>
        <time>2019-09-10T10:52:37Z</time>
      </trkpt>
      <trkpt lat="47.50148" lon="6.77372">
        <ele>306.60000610352</ele>
        <time>2019-09-10T10:52:44Z</time>
      </trkpt>
      <trkpt lat="47.50129" lon="6.77372">
        <ele>306.79998779297</ele>
        <time>2019-09-10T10:52:48Z</time>
      </trkpt>
      <trkpt lat="47.5012" lon="6.77375">
        <ele>306.79998779297</ele>
        <time>2019-09-10T10:52:51Z</time>
      </trkpt>
      <trkpt lat="47.50115" lon="6.77375">
        <ele>306.79998779297</ele>
        <time>2019-09-10T10:52:53Z</time>
      </trkpt>
      <trkpt lat="47.50097" lon="6.77376">
        <ele>307.39999389648</ele>
        <time>2019-09-10T10:52:58Z</time>
      </trkpt>
      <trkpt lat="47.50067" lon="6.77385">
        <ele>308</ele>
        <time>2019-09-10T10:53:05Z</time>
      </trkpt>
      <trkpt lat="47.5006" lon="6.77381">
        <ele>308</ele>
        <time>2019-09-10T10:53:07Z</time>
      </trkpt>
      <trkpt lat="47.50057" lon="6.77376">
        <ele>308</ele>
        <time>2019-09-10T10:53:08Z</time>
      </trkpt>
      <trkpt lat="47.50055" lon="6.77371">
        <ele>308</ele>
        <time>2019-09-10T10:53:09Z</time>
      </trkpt>
      <trkpt lat="47.50047" lon="6.77358">
        <ele>308</ele>
        <time>2019-09-10T10:53:12Z</time>
      </trkpt>
      <trkpt lat="47.50044" lon="6.77354">
        <ele>308.20001220703</ele>
        <time>2019-09-10T10:53:13Z</time>
      </trkpt>
      <trkpt lat="47.50034" lon="6.77325">
        <ele>308.39999389648</ele>
        <time>2019-09-10T10:53:19Z</time>
      </trkpt>
      <trkpt lat="47.5003" lon="6.77303">
        <ele>309</ele>
        <time>2019-09-10T10:53:23Z</time>
      </trkpt>
      <trkpt lat="47.50027" lon="6.77285">
        <ele>309.60000610352</ele>
        <time>2019-09-10T10:53:26Z</time>
      </trkpt>
      <trkpt lat="47.50019" lon="6.77245">
        <ele>310</ele>
        <time>2019-09-10T10:53:33Z</time>
      </trkpt>
      <trkpt lat="47.50017" lon="6.77234">
        <ele>310</ele>
        <time>2019-09-10T10:53:35Z</time>
      </trkpt>
      <trkpt lat="47.50009" lon="6.7723">
        <ele>310</ele>
        <time>2019-09-10T10:53:37Z</time>
      </trkpt>
      <trkpt lat="47.49995" lon="6.77236">
        <ele>310</ele>
        <time>2019-09-10T10:53:40Z</time>
      </trkpt>
      <trkpt lat="47.49991" lon="6.77238">
        <ele>310</ele>
        <time>2019-09-10T10:53:41Z</time>
      </trkpt>
      <trkpt lat="47.49958" lon="6.77255">
        <ele>309</ele>
        <time>2019-09-10T10:53:48Z</time>
      </trkpt>
      <trkpt lat="47.49944" lon="6.77263">
        <ele>308.79998779297</ele>
        <time>2019-09-10T10:53:51Z</time>
      </trkpt>
      <trkpt lat="47.4993" lon="6.77272">
        <ele>308.79998779297</ele>
        <time>2019-09-10T10:53:54Z</time>
      </trkpt>
      <trkpt lat="47.49898" lon="6.77291">
        <ele>308.60000610352</ele>
        <time>2019-09-10T10:54:01Z</time>
      </trkpt>
      <trkpt lat="47.4988" lon="6.77299">
        <ele>308.60000610352</ele>
        <time>2019-09-10T10:54:05Z</time>
      </trkpt>
      <trkpt lat="47.49875" lon="6.773">
        <ele>308.60000610352</ele>
        <time>2019-09-10T10:54:06Z</time>
      </trkpt>
      <trkpt lat="47.49841" lon="6.77304">
        <ele>308.60000610352</ele>
        <time>2019-09-10T10:54:12Z</time>
      </trkpt>
      <trkpt lat="47.49812" lon="6.7731">
        <ele>308.39999389648</ele>
        <time>2019-09-10T10:54:18Z</time>
      </trkpt>
      <trkpt lat="47.4978" lon="6.77313">
        <ele>308.20001220703</ele>
        <time>2019-09-10T10:54:24Z</time>
      </trkpt>
      <trkpt lat="47.49747" lon="6.77319">
        <ele>308.20001220703</ele>
        <time>2019-09-10T10:54:30Z</time>
      </trkpt>
      <trkpt lat="47.49742" lon="6.77322">
        <ele>308.20001220703</ele>
        <time>2019-09-10T10:54:31Z</time>
      </trkpt>
      <trkpt lat="47.49732" lon="6.77329">
        <ele>308.20001220703</ele>
        <time>2019-09-10T10:54:33Z</time>
      </trkpt>
      <trkpt lat="47.49722" lon="6.77333">
        <ele>308</ele>
        <time>2019-09-10T10:54:35Z</time>
      </trkpt>
      <trkpt lat="47.49717" lon="6.77333">
        <ele>308</ele>
        <time>2019-09-10T10:54:36Z</time>
      </trkpt>
      <trkpt lat="47.4968" lon="6.7734">
        <ele>308</ele>
        <time>2019-09-10T10:54:43Z</time>
      </trkpt>
      <trkpt lat="47.49624" lon="6.77353">
        <ele>308</ele>
        <time>2019-09-10T10:54:54Z</time>
      </trkpt>
      <trkpt lat="47.49584" lon="6.7736">
        <ele>307.79998779297</ele>
        <time>2019-09-10T10:55:02Z</time>
      </trkpt>
      <trkpt lat="47.49542" lon="6.77359">
        <ele>307.79998779297</ele>
        <time>2019-09-10T10:55:10Z</time>
      </trkpt>
      <trkpt lat="47.49515" lon="6.77357">
        <ele>307.79998779297</ele>
        <time>2019-09-10T10:55:15Z</time>
      </trkpt>
      <trkpt lat="47.49487" lon="6.77355">
        <ele>307.79998779297</ele>
        <time>2019-09-10T10:55:20Z</time>
      </trkpt>
      <trkpt lat="47.49441" lon="6.77351">
        <ele>307.60000610352</ele>
        <time>2019-09-10T10:55:28Z</time>
      </trkpt>
      <trkpt lat="47.49395" lon="6.77348">
        <ele>307.60000610352</ele>
        <time>2019-09-10T10:55:36Z</time>
      </trkpt>
      <trkpt lat="47.49349" lon="6.77345">
        <ele>307.60000610352</ele>
        <time>2019-09-10T10:55:44Z</time>
      </trkpt>
      <trkpt lat="47.49344" lon="6.77345">
        <ele>307.60000610352</ele>
        <time>2019-09-10T10:55:45Z</time>
      </trkpt>
      <trkpt lat="47.49339" lon="6.77344">
        <ele>307.60000610352</ele>
        <time>2019-09-10T10:55:46Z</time>
      </trkpt>
      <trkpt lat="47.49323" lon="6.77335">
        <ele>307.39999389648</ele>
        <time>2019-09-10T10:55:49Z</time>
      </trkpt>
      <trkpt lat="47.49297" lon="6.77329">
        <ele>307.39999389648</ele>
        <time>2019-09-10T10:55:53Z</time>
      </trkpt>
      <trkpt lat="47.49266" lon="6.77326">
        <ele>307.20001220703</ele>
        <time>2019-09-10T10:55:58Z</time>
      </trkpt>
      <trkpt lat="47.49248" lon="6.77333">
        <ele>307</ele>
        <time>2019-09-10T10:56:02Z</time>
      </trkpt>
      <trkpt lat="47.49244" lon="6.77336">
        <ele>307</ele>
        <time>2019-09-10T10:56:03Z</time>
      </trkpt>
      <trkpt lat="47.4923" lon="6.77337">
        <ele>307</ele>
        <time>2019-09-10T10:56:06Z</time>
      </trkpt>
      <trkpt lat="47.49201" lon="6.77335">
        <ele>307.60000610352</ele>
        <time>2019-09-10T10:56:12Z</time>
      </trkpt>
      <trkpt lat="47.49156" lon="6.77332">
        <ele>308</ele>
        <time>2019-09-10T10:56:21Z</time>
      </trkpt>
      <trkpt lat="47.49107" lon="6.77328">
        <ele>307.79998779297</ele>
        <time>2019-09-10T10:56:30Z</time>
      </trkpt>
      <trkpt lat="47.49058" lon="6.77326">
        <ele>307.60000610352</ele>
        <time>2019-09-10T10:56:39Z</time>
      </trkpt>
      <trkpt lat="47.49029" lon="6.77323">
        <ele>308</ele>
        <time>2019-09-10T10:56:45Z</time>
      </trkpt>
      <trkpt lat="47.48994" lon="6.77319">
        <ele>308</ele>
        <time>2019-09-10T10:56:52Z</time>
      </trkpt>
      <trkpt lat="47.48977" lon="6.77318">
        <ele>308</ele>
        <time>2019-09-10T10:56:56Z</time>
      </trkpt>
      <trkpt lat="47.48964" lon="6.77319">
        <ele>308</ele>
        <time>2019-09-10T10:56:59Z</time>
      </trkpt>
      <trkpt lat="47.48954" lon="6.77316">
        <ele>308</ele>
        <time>2019-09-10T10:57:01Z</time>
      </trkpt>
      <trkpt lat="47.48939" lon="6.7731">
        <ele>308</ele>
        <time>2019-09-10T10:57:04Z</time>
      </trkpt>
      <trkpt lat="47.48898" lon="6.77293">
        <ele>308</ele>
        <time>2019-09-10T10:57:12Z</time>
      </trkpt>
      <trkpt lat="47.48865" lon="6.77283">
        <ele>307.79998779297</ele>
        <time>2019-09-10T10:57:18Z</time>
      </trkpt>
      <trkpt lat="47.48823" lon="6.77257">
        <ele>307.79998779297</ele>
        <time>2019-09-10T10:57:26Z</time>
      </trkpt>
      <trkpt lat="47.48787" lon="6.7723">
        <ele>307.79998779297</ele>
        <time>2019-09-10T10:57:33Z</time>
      </trkpt>
      <trkpt lat="47.48751" lon="6.77203">
        <ele>307.79998779297</ele>
        <time>2019-09-10T10:57:40Z</time>
      </trkpt>
      <trkpt lat="47.48706" lon="6.77167">
        <ele>307.60000610352</ele>
        <time>2019-09-10T10:57:49Z</time>
      </trkpt>
      <trkpt lat="47.48663" lon="6.77125">
        <ele>307.60000610352</ele>
        <time>2019-09-10T10:57:58Z</time>
      </trkpt>
      <trkpt lat="47.48622" lon="6.77083">
        <ele>307.60000610352</ele>
        <time>2019-09-10T10:58:07Z</time>
      </trkpt>
      <trkpt lat="47.48614" lon="6.77078">
        <ele>307.60000610352</ele>
        <time>2019-09-10T10:58:09Z</time>
      </trkpt>
      <trkpt lat="47.48602" lon="6.77069">
        <ele>307.60000610352</ele>
        <time>2019-09-10T10:58:12Z</time>
      </trkpt>
      <trkpt lat="47.48598" lon="6.77066">
        <ele>307.79998779297</ele>
        <time>2019-09-10T10:58:13Z</time>
      </trkpt>
      <trkpt lat="47.48586" lon="6.77059">
        <ele>307.79998779297</ele>
        <time>2019-09-10T10:58:16Z</time>
      </trkpt>
      <trkpt lat="47.48558" lon="6.77046">
        <ele>308.20001220703</ele>
        <time>2019-09-10T10:58:23Z</time>
      </trkpt>
      <trkpt lat="47.48548" lon="6.77043">
        <ele>308.39999389648</ele>
        <time>2019-09-10T10:58:25Z</time>
      </trkpt>
      <trkpt lat="47.48538" lon="6.77037">
        <ele>308.20001220703</ele>
        <time>2019-09-10T10:58:27Z</time>
      </trkpt>
      <trkpt lat="47.48509" lon="6.77014">
        <ele>308</ele>
        <time>2019-09-10T10:58:33Z</time>
      </trkpt>
      <trkpt lat="47.48474" lon="6.7699">
        <ele>307.20001220703</ele>
        <time>2019-09-10T10:58:40Z</time>
      </trkpt>
      <trkpt lat="47.48438" lon="6.76966">
        <ele>307.20001220703</ele>
        <time>2019-09-10T10:58:47Z</time>
      </trkpt>
      <trkpt lat="47.48395" lon="6.76944">
        <ele>306.79998779297</ele>
        <time>2019-09-10T10:58:55Z</time>
      </trkpt>
      <trkpt lat="47.48373" lon="6.76931">
        <ele>306.79998779297</ele>
        <time>2019-09-10T10:58:59Z</time>
      </trkpt>
      <trkpt lat="47.48347" lon="6.76915">
        <ele>306.79998779297</ele>
        <time>2019-09-10T10:59:04Z</time>
      </trkpt>
      <trkpt lat="47.48303" lon="6.76881">
        <ele>306.60000610352</ele>
        <time>2019-09-10T10:59:13Z</time>
      </trkpt>
      <trkpt lat="47.48283" lon="6.76861">
        <ele>306.60000610352</ele>
        <time>2019-09-10T10:59:18Z</time>
      </trkpt>
      <trkpt lat="47.4828" lon="6.76857">
        <ele>306.60000610352</ele>
        <time>2019-09-10T10:59:19Z</time>
      </trkpt>
      <trkpt lat="47.48261" lon="6.76828">
        <ele>306.79998779297</ele>
        <time>2019-09-10T10:59:25Z</time>
      </trkpt>
      <trkpt lat="47.48245" lon="6.76806">
        <ele>306.79998779297</ele>
        <time>2019-09-10T10:59:29Z</time>
      </trkpt>
      <trkpt lat="47.48235" lon="6.76799">
        <ele>306.79998779297</ele>
        <time>2019-09-10T10:59:31Z</time>
      </trkpt>
      <trkpt lat="47.48197" lon="6.76781">
        <ele>306.79998779297</ele>
        <time>2019-09-10T10:59:38Z</time>
      </trkpt>
      <trkpt lat="47.48186" lon="6.76774">
        <ele>306.79998779297</ele>
        <time>2019-09-10T10:59:40Z</time>
      </trkpt>
      <trkpt lat="47.48173" lon="6.76761">
        <ele>306.79998779297</ele>
        <time>2019-09-10T10:59:43Z</time>
      </trkpt>
      <trkpt lat="47.48149" lon="6.76723">
        <ele>306.79998779297</ele>
        <time>2019-09-10T10:59:49Z</time>
      </trkpt>
      <trkpt lat="47.48125" lon="6.76677">
        <ele>306.60000610352</ele>
        <time>2019-09-10T10:59:56Z</time>
      </trkpt>
      <trkpt lat="47.48112" lon="6.76655">
        <ele>306.60000610352</ele>
        <time>2019-09-10T11:00:00Z</time>
      </trkpt>
      <trkpt lat="47.48106" lon="6.76645">
        <ele>306.79998779297</ele>
        <time>2019-09-10T11:00:02Z</time>
      </trkpt>
      <trkpt lat="47.48099" lon="6.76631">
        <ele>307.20001220703</ele>
        <time>2019-09-10T11:00:05Z</time>
      </trkpt>
      <trkpt lat="47.48096" lon="6.76619">
        <ele>307.20001220703</ele>
        <time>2019-09-10T11:00:07Z</time>
      </trkpt>
      <trkpt lat="47.48096" lon="6.76605">
        <ele>307.39999389648</ele>
        <time>2019-09-10T11:00:09Z</time>
      </trkpt>
      <trkpt lat="47.48097" lon="6.76599">
        <ele>307.39999389648</ele>
        <time>2019-09-10T11:00:10Z</time>
      </trkpt>
      <trkpt lat="47.481" lon="6.76588">
        <ele>307.60000610352</ele>
        <time>2019-09-10T11:00:12Z</time>
      </trkpt>
      <trkpt lat="47.48105" lon="6.76578">
        <ele>307.60000610352</ele>
        <time>2019-09-10T11:00:14Z</time>
      </trkpt>
      <trkpt lat="47.4811" lon="6.76569">
        <ele>307.60000610352</ele>
        <time>2019-09-10T11:00:16Z</time>
      </trkpt>
      <trkpt lat="47.48121" lon="6.7655">
        <ele>307.60000610352</ele>
        <time>2019-09-10T11:00:21Z</time>
      </trkpt>
      <trkpt lat="47.48122" lon="6.76549">
        <ele>307.60000610352</ele>
        <time>2019-09-10T11:00:22Z</time>
      </trkpt>
      <trkpt lat="47.48123" lon="6.76547">
        <ele>307.60000610352</ele>
        <time>2019-09-10T11:00:25Z</time>
      </trkpt>
      <trkpt lat="47.48122" lon="6.76544">
        <ele>308.39999389648</ele>
        <time>2019-09-10T11:00:34Z</time>
      </trkpt>
      <trkpt lat="47.48122" lon="6.76543">
        <ele>308.39999389648</ele>
        <time>2019-09-10T11:00:35Z</time>
      </trkpt>
      <trkpt lat="47.48119" lon="6.76536">
        <ele>308.39999389648</ele>
        <time>2019-09-10T11:00:38Z</time>
      </trkpt>
      <trkpt lat="47.4811" lon="6.76521">
        <ele>308.39999389648</ele>
        <time>2019-09-10T11:00:43Z</time>
      </trkpt>
      <trkpt lat="47.48099" lon="6.76524">
        <ele>308.39999389648</ele>
        <time>2019-09-10T11:00:46Z</time>
      </trkpt>
      <trkpt lat="47.48092" lon="6.76529">
        <ele>308.60000610352</ele>
        <time>2019-09-10T11:00:48Z</time>
      </trkpt>
      <trkpt lat="47.48084" lon="6.76537">
        <ele>308.79998779297</ele>
        <time>2019-09-10T11:00:51Z</time>
      </trkpt>
      <trkpt lat="47.48082" lon="6.76538">
        <ele>309</ele>
        <time>2019-09-10T11:00:54Z</time>
      </trkpt>
      <trkpt lat="47.4808" lon="6.76538">
        <ele>309.39999389648</ele>
        <time>2019-09-10T11:01:17Z</time>
      </trkpt>
      <trkpt lat="47.48074" lon="6.76543">
        <ele>309.39999389648</ele>
        <time>2019-09-10T11:01:20Z</time>
      </trkpt>
      <trkpt lat="47.48056" lon="6.76559">
        <ele>309.39999389648</ele>
        <time>2019-09-10T11:01:26Z</time>
      </trkpt>
      <trkpt lat="47.48032" lon="6.7658">
        <ele>309.60000610352</ele>
        <time>2019-09-10T11:01:33Z</time>
      </trkpt>
      <trkpt lat="47.48004" lon="6.76598">
        <ele>309.79998779297</ele>
        <time>2019-09-10T11:01:40Z</time>
      </trkpt>
      <trkpt lat="47.48" lon="6.766">
        <ele>309.79998779297</ele>
        <time>2019-09-10T11:01:41Z</time>
      </trkpt>
      <trkpt lat="47.47975" lon="6.76615">
        <ele>310.20001220703</ele>
        <time>2019-09-10T11:01:48Z</time>
      </trkpt>
      <trkpt lat="47.47969" lon="6.76618">
        <ele>310.20001220703</ele>
        <time>2019-09-10T11:01:50Z</time>
      </trkpt>
      <trkpt lat="47.47964" lon="6.76623">
        <ele>310.20001220703</ele>
        <time>2019-09-10T11:01:53Z</time>
      </trkpt>
      <trkpt lat="47.47966" lon="6.76635">
        <ele>310.20001220703</ele>
        <time>2019-09-10T11:01:56Z</time>
      </trkpt>
      <trkpt lat="47.47968" lon="6.7664">
        <ele>310.20001220703</ele>
        <time>2019-09-10T11:01:57Z</time>
      </trkpt>
      <trkpt lat="47.47973" lon="6.76662">
        <ele>310</ele>
        <time>2019-09-10T11:02:01Z</time>
      </trkpt>
      <trkpt lat="47.47975" lon="6.76664">
        <ele>310</ele>
        <time>2019-09-10T11:02:02Z</time>
      </trkpt>
      <trkpt lat="47.47977" lon="6.76661">
        <ele>309.79998779297</ele>
        <time>2019-09-10T11:02:04Z</time>
      </trkpt>
      <trkpt lat="47.47976" lon="6.76654">
        <ele>309</ele>
        <time>2019-09-10T11:02:06Z</time>
      </trkpt>
      <trkpt lat="47.47974" lon="6.76644">
        <ele>308.39999389648</ele>
        <time>2019-09-10T11:02:08Z</time>
      </trkpt>
      <trkpt lat="47.47971" lon="6.76633">
        <ele>308</ele>
        <time>2019-09-10T11:02:10Z</time>
      </trkpt>
      <trkpt lat="47.47965" lon="6.76614">
        <ele>307.79998779297</ele>
        <time>2019-09-10T11:02:13Z</time>
      </trkpt>
      <trkpt lat="47.47964" lon="6.76607">
        <ele>307.79998779297</ele>
        <time>2019-09-10T11:02:14Z</time>
      </trkpt>
      <trkpt lat="47.47955" lon="6.76594">
        <ele>307.60000610352</ele>
        <time>2019-09-10T11:02:17Z</time>
      </trkpt>
      <trkpt lat="47.47948" lon="6.76577">
        <ele>307.60000610352</ele>
        <time>2019-09-10T11:02:21Z</time>
      </trkpt>
      <trkpt lat="47.47938" lon="6.76538">
        <ele>308</ele>
        <time>2019-09-10T11:02:28Z</time>
      </trkpt>
      <trkpt lat="47.47923" lon="6.76478">
        <ele>308.20001220703</ele>
        <time>2019-09-10T11:02:38Z</time>
      </trkpt>
      <trkpt lat="47.47914" lon="6.76436">
        <ele>308.39999389648</ele>
        <time>2019-09-10T11:02:45Z</time>
      </trkpt>
      <trkpt lat="47.47897" lon="6.76389">
        <ele>308.39999389648</ele>
        <time>2019-09-10T11:02:53Z</time>
      </trkpt>
      <trkpt lat="47.47876" lon="6.76345">
        <ele>308.39999389648</ele>
        <time>2019-09-10T11:03:01Z</time>
      </trkpt>
      <trkpt lat="47.47846" lon="6.76291">
        <ele>308.20001220703</ele>
        <time>2019-09-10T11:03:11Z</time>
      </trkpt>
      <trkpt lat="47.47839" lon="6.76281">
        <ele>308.20001220703</ele>
        <time>2019-09-10T11:03:13Z</time>
      </trkpt>
      <trkpt lat="47.47827" lon="6.7627">
        <ele>308.20001220703</ele>
        <time>2019-09-10T11:03:16Z</time>
      </trkpt>
      <trkpt lat="47.47818" lon="6.76264">
        <ele>308.20001220703</ele>
        <time>2019-09-10T11:03:18Z</time>
      </trkpt>
      <trkpt lat="47.47799" lon="6.76256">
        <ele>308.20001220703</ele>
        <time>2019-09-10T11:03:22Z</time>
      </trkpt>
      <trkpt lat="47.47791" lon="6.76251">
        <ele>308.20001220703</ele>
        <time>2019-09-10T11:03:24Z</time>
      </trkpt>
      <trkpt lat="47.47778" lon="6.76239">
        <ele>308.20001220703</ele>
        <time>2019-09-10T11:03:27Z</time>
      </trkpt>
      <trkpt lat="47.47771" lon="6.76229">
        <ele>308.20001220703</ele>
        <time>2019-09-10T11:03:29Z</time>
      </trkpt>
      <trkpt lat="47.47759" lon="6.76207">
        <ele>308.39999389648</ele>
        <time>2019-09-10T11:03:33Z</time>
      </trkpt>
      <trkpt lat="47.47741" lon="6.76182">
        <ele>308.39999389648</ele>
        <time>2019-09-10T11:03:39Z</time>
      </trkpt>
      <trkpt lat="47.4774" lon="6.76181">
        <ele>308.39999389648</ele>
        <time>2019-09-10T11:03:41Z</time>
      </trkpt>
      <trkpt lat="47.4774" lon="6.7618">
        <ele>308.60000610352</ele>
        <time>2019-09-10T11:04:05Z</time>
      </trkpt>
      <trkpt lat="47.4774" lon="6.76179">
        <ele>308.60000610352</ele>
        <time>2019-09-10T11:04:06Z</time>
      </trkpt>
      <trkpt lat="47.47739" lon="6.76179">
        <ele>308.60000610352</ele>
        <time>2019-09-10T11:04:08Z</time>
      </trkpt>
      <trkpt lat="47.47738" lon="6.76176">
        <ele>308.60000610352</ele>
        <time>2019-09-10T11:04:26Z</time>
      </trkpt>
      <trkpt lat="47.47736" lon="6.76173">
        <ele>308.60000610352</ele>
        <time>2019-09-10T11:04:27Z</time>
      </trkpt>
      <trkpt lat="47.47723" lon="6.76153">
        <ele>308.60000610352</ele>
        <time>2019-09-10T11:04:32Z</time>
      </trkpt>
      <trkpt lat="47.47697" lon="6.76111">
        <ele>308.60000610352</ele>
        <time>2019-09-10T11:04:41Z</time>
      </trkpt>
      <trkpt lat="47.47674" lon="6.76076">
        <ele>308.60000610352</ele>
        <time>2019-09-10T11:04:48Z</time>
      </trkpt>
      <trkpt lat="47.47672" lon="6.7607">
        <ele>308.60000610352</ele>
        <time>2019-09-10T11:04:49Z</time>
      </trkpt>
      <trkpt lat="47.47665" lon="6.76044">
        <ele>308.60000610352</ele>
        <time>2019-09-10T11:04:53Z</time>
      </trkpt>
      <trkpt lat="47.47666" lon="6.76008">
        <ele>308.60000610352</ele>
        <time>2019-09-10T11:04:58Z</time>
      </trkpt>
      <trkpt lat="47.47667" lon="6.76001">
        <ele>308.60000610352</ele>
        <time>2019-09-10T11:04:59Z</time>
      </trkpt>
      <trkpt lat="47.47674" lon="6.75982">
        <ele>308.60000610352</ele>
        <time>2019-09-10T11:05:02Z</time>
      </trkpt>
      <trkpt lat="47.47677" lon="6.75976">
        <ele>308.79998779297</ele>
        <time>2019-09-10T11:05:03Z</time>
      </trkpt>
      <trkpt lat="47.47688" lon="6.75952">
        <ele>308.79998779297</ele>
        <time>2019-09-10T11:05:07Z</time>
      </trkpt>
      <trkpt lat="47.47691" lon="6.75946">
        <ele>308.79998779297</ele>
        <time>2019-09-10T11:05:08Z</time>
      </trkpt>
      <trkpt lat="47.47695" lon="6.75931">
        <ele>308.79998779297</ele>
        <time>2019-09-10T11:05:10Z</time>
      </trkpt>
      <trkpt lat="47.47697" lon="6.75916">
        <ele>308.79998779297</ele>
        <time>2019-09-10T11:05:12Z</time>
      </trkpt>
      <trkpt lat="47.47697" lon="6.75909">
        <ele>308.79998779297</ele>
        <time>2019-09-10T11:05:13Z</time>
      </trkpt>
      <trkpt lat="47.47697" lon="6.75886">
        <ele>308.79998779297</ele>
        <time>2019-09-10T11:05:16Z</time>
      </trkpt>
      <trkpt lat="47.47698" lon="6.75863">
        <ele>308.60000610352</ele>
        <time>2019-09-10T11:05:19Z</time>
      </trkpt>
      <trkpt lat="47.47701" lon="6.75804">
        <ele>308</ele>
        <time>2019-09-10T11:05:27Z</time>
      </trkpt>
      <trkpt lat="47.47702" lon="6.75745">
        <ele>307.79998779297</ele>
        <time>2019-09-10T11:05:35Z</time>
      </trkpt>
      <trkpt lat="47.47704" lon="6.75712">
        <ele>307.60000610352</ele>
        <time>2019-09-10T11:05:41Z</time>
      </trkpt>
      <trkpt lat="47.47704" lon="6.75691">
        <ele>307.60000610352</ele>
        <time>2019-09-10T11:05:45Z</time>
      </trkpt>
      <trkpt lat="47.47705" lon="6.75684">
        <ele>307.60000610352</ele>
        <time>2019-09-10T11:05:46Z</time>
      </trkpt>
      <trkpt lat="47.47706" lon="6.75629">
        <ele>307.60000610352</ele>
        <time>2019-09-10T11:05:53Z</time>
      </trkpt>
      <trkpt lat="47.47706" lon="6.7559">
        <ele>307</ele>
        <time>2019-09-10T11:05:58Z</time>
      </trkpt>
      <trkpt lat="47.47706" lon="6.75576">
        <ele>306.79998779297</ele>
        <time>2019-09-10T11:06:00Z</time>
      </trkpt>
      <trkpt lat="47.47707" lon="6.75541">
        <ele>306.60000610352</ele>
        <time>2019-09-10T11:06:05Z</time>
      </trkpt>
      <trkpt lat="47.47707" lon="6.75527">
        <ele>306.39999389648</ele>
        <time>2019-09-10T11:06:07Z</time>
      </trkpt>
      <trkpt lat="47.47711" lon="6.75459">
        <ele>306.39999389648</ele>
        <time>2019-09-10T11:06:16Z</time>
      </trkpt>
      <trkpt lat="47.47712" lon="6.75413">
        <ele>306.39999389648</ele>
        <time>2019-09-10T11:06:22Z</time>
      </trkpt>
      <trkpt lat="47.47714" lon="6.7535">
        <ele>306.39999389648</ele>
        <time>2019-09-10T11:06:30Z</time>
      </trkpt>
      <trkpt lat="47.47715" lon="6.75288">
        <ele>306.39999389648</ele>
        <time>2019-09-10T11:06:38Z</time>
      </trkpt>
      <trkpt lat="47.47716" lon="6.75224">
        <ele>306.79998779297</ele>
        <time>2019-09-10T11:06:46Z</time>
      </trkpt>
      <trkpt lat="47.47717" lon="6.75159">
        <ele>306.79998779297</ele>
        <time>2019-09-10T11:06:54Z</time>
      </trkpt>
      <trkpt lat="47.4772" lon="6.75077">
        <ele>306.60000610352</ele>
        <time>2019-09-10T11:07:04Z</time>
      </trkpt>
      <trkpt lat="47.47722" lon="6.7501">
        <ele>306.39999389648</ele>
        <time>2019-09-10T11:07:12Z</time>
      </trkpt>
      <trkpt lat="47.47724" lon="6.74928">
        <ele>306.39999389648</ele>
        <time>2019-09-10T11:07:22Z</time>
      </trkpt>
      <trkpt lat="47.47724" lon="6.74872">
        <ele>306.39999389648</ele>
        <time>2019-09-10T11:07:29Z</time>
      </trkpt>
      <trkpt lat="47.47726" lon="6.74799">
        <ele>306.60000610352</ele>
        <time>2019-09-10T11:07:38Z</time>
      </trkpt>
      <trkpt lat="47.47728" lon="6.74734">
        <ele>306.79998779297</ele>
        <time>2019-09-10T11:07:46Z</time>
      </trkpt>
      <trkpt lat="47.4773" lon="6.74659">
        <ele>307</ele>
        <time>2019-09-10T11:07:55Z</time>
      </trkpt>
      <trkpt lat="47.47729" lon="6.74594">
        <ele>307</ele>
        <time>2019-09-10T11:08:03Z</time>
      </trkpt>
      <trkpt lat="47.47726" lon="6.74544">
        <ele>306.79998779297</ele>
        <time>2019-09-10T11:08:09Z</time>
      </trkpt>
      <trkpt lat="47.47722" lon="6.74529">
        <ele>306.79998779297</ele>
        <time>2019-09-10T11:08:11Z</time>
      </trkpt>
      <trkpt lat="47.47718" lon="6.74515">
        <ele>306.79998779297</ele>
        <time>2019-09-10T11:08:13Z</time>
      </trkpt>
      <trkpt lat="47.47716" lon="6.74492">
        <ele>306.79998779297</ele>
        <time>2019-09-10T11:08:16Z</time>
      </trkpt>
      <trkpt lat="47.47713" lon="6.74449">
        <ele>306.79998779297</ele>
        <time>2019-09-10T11:08:22Z</time>
      </trkpt>
      <trkpt lat="47.47715" lon="6.74442">
        <ele>306.79998779297</ele>
        <time>2019-09-10T11:08:23Z</time>
      </trkpt>
      <trkpt lat="47.4772" lon="6.74423">
        <ele>306.79998779297</ele>
        <time>2019-09-10T11:08:26Z</time>
      </trkpt>
      <trkpt lat="47.47718" lon="6.74409">
        <ele>306.79998779297</ele>
        <time>2019-09-10T11:08:28Z</time>
      </trkpt>
      <trkpt lat="47.47714" lon="6.74373">
        <ele>306.60000610352</ele>
        <time>2019-09-10T11:08:33Z</time>
      </trkpt>
      <trkpt lat="47.47706" lon="6.74311">
        <ele>306.39999389648</ele>
        <time>2019-09-10T11:08:41Z</time>
      </trkpt>
      <trkpt lat="47.47694" lon="6.74231">
        <ele>306.60000610352</ele>
        <time>2019-09-10T11:08:51Z</time>
      </trkpt>
      <trkpt lat="47.47692" lon="6.74223">
        <ele>306.60000610352</ele>
        <time>2019-09-10T11:08:52Z</time>
      </trkpt>
      <trkpt lat="47.4768" lon="6.74158">
        <ele>306.39999389648</ele>
        <time>2019-09-10T11:09:00Z</time>
      </trkpt>
      <trkpt lat="47.47668" lon="6.741">
        <ele>306.39999389648</ele>
        <time>2019-09-10T11:09:07Z</time>
      </trkpt>
      <trkpt lat="47.47655" lon="6.74034">
        <ele>306.20001220703</ele>
        <time>2019-09-10T11:09:15Z</time>
      </trkpt>
      <trkpt lat="47.4764" lon="6.73959">
        <ele>306.20001220703</ele>
        <time>2019-09-10T11:09:24Z</time>
      </trkpt>
      <trkpt lat="47.47626" lon="6.73884">
        <ele>306.39999389648</ele>
        <time>2019-09-10T11:09:33Z</time>
      </trkpt>
      <trkpt lat="47.47613" lon="6.73818">
        <ele>306.39999389648</ele>
        <time>2019-09-10T11:09:41Z</time>
      </trkpt>
      <trkpt lat="47.47596" lon="6.73738">
        <ele>306.60000610352</ele>
        <time>2019-09-10T11:09:51Z</time>
      </trkpt>
      <trkpt lat="47.47595" lon="6.7373">
        <ele>306.60000610352</ele>
        <time>2019-09-10T11:09:52Z</time>
      </trkpt>
      <trkpt lat="47.47585" lon="6.73679">
        <ele>306.39999389648</ele>
        <time>2019-09-10T11:09:59Z</time>
      </trkpt>
      <trkpt lat="47.47574" lon="6.73608">
        <ele>306</ele>
        <time>2019-09-10T11:10:08Z</time>
      </trkpt>
      <trkpt lat="47.47573" lon="6.73593">
        <ele>306</ele>
        <time>2019-09-10T11:10:10Z</time>
      </trkpt>
      <trkpt lat="47.47567" lon="6.73583">
        <ele>306</ele>
        <time>2019-09-10T11:10:12Z</time>
      </trkpt>
      <trkpt lat="47.47562" lon="6.73582">
        <ele>306</ele>
        <time>2019-09-10T11:10:13Z</time>
      </trkpt>
      <trkpt lat="47.47554" lon="6.73579">
        <ele>306</ele>
        <time>2019-09-10T11:10:15Z</time>
      </trkpt>
      <trkpt lat="47.4755" lon="6.73563">
        <ele>305.79998779297</ele>
        <time>2019-09-10T11:10:18Z</time>
      </trkpt>
      <trkpt lat="47.47545" lon="6.73536">
        <ele>305.79998779297</ele>
        <time>2019-09-10T11:10:22Z</time>
      </trkpt>
      <trkpt lat="47.47544" lon="6.73528">
        <ele>305.79998779297</ele>
        <time>2019-09-10T11:10:23Z</time>
      </trkpt>
      <trkpt lat="47.47533" lon="6.73467">
        <ele>305.39999389648</ele>
        <time>2019-09-10T11:10:31Z</time>
      </trkpt>
      <trkpt lat="47.47531" lon="6.73452">
        <ele>305.20001220703</ele>
        <time>2019-09-10T11:10:33Z</time>
      </trkpt>
      <trkpt lat="47.47523" lon="6.73424">
        <ele>305</ele>
        <time>2019-09-10T11:10:37Z</time>
      </trkpt>
      <trkpt lat="47.47521" lon="6.73417">
        <ele>305</ele>
        <time>2019-09-10T11:10:38Z</time>
      </trkpt>
      <trkpt lat="47.47515" lon="6.7339">
        <ele>305</ele>
        <time>2019-09-10T11:10:42Z</time>
      </trkpt>
      <trkpt lat="47.47514" lon="6.73383">
        <ele>305</ele>
        <time>2019-09-10T11:10:43Z</time>
      </trkpt>
      <trkpt lat="47.47504" lon="6.73359">
        <ele>305</ele>
        <time>2019-09-10T11:10:48Z</time>
      </trkpt>
      <trkpt lat="47.47493" lon="6.73362">
        <ele>305</ele>
        <time>2019-09-10T11:10:51Z</time>
      </trkpt>
      <trkpt lat="47.47482" lon="6.73359">
        <ele>305</ele>
        <time>2019-09-10T11:10:54Z</time>
      </trkpt>
      <trkpt lat="47.47473" lon="6.73336">
        <ele>305.20001220703</ele>
        <time>2019-09-10T11:10:58Z</time>
      </trkpt>
      <trkpt lat="47.47466" lon="6.73312">
        <ele>305.20001220703</ele>
        <time>2019-09-10T11:11:02Z</time>
      </trkpt>
      <trkpt lat="47.47462" lon="6.733">
        <ele>305.20001220703</ele>
        <time>2019-09-10T11:11:04Z</time>
      </trkpt>
      <trkpt lat="47.47453" lon="6.73272">
        <ele>305.20001220703</ele>
        <time>2019-09-10T11:11:10Z</time>
      </trkpt>
      <trkpt lat="47.47442" lon="6.73245">
        <ele>306</ele>
        <time>2019-09-10T11:11:16Z</time>
      </trkpt>
      <trkpt lat="47.47442" lon="6.7324">
        <ele>306</ele>
        <time>2019-09-10T11:11:17Z</time>
      </trkpt>
      <trkpt lat="47.47445" lon="6.73232">
        <ele>306.20001220703</ele>
        <time>2019-09-10T11:11:19Z</time>
      </trkpt>
      <trkpt lat="47.47451" lon="6.73223">
        <ele>306.60000610352</ele>
        <time>2019-09-10T11:11:22Z</time>
      </trkpt>
      <trkpt lat="47.47459" lon="6.73209">
        <ele>306.79998779297</ele>
        <time>2019-09-10T11:11:26Z</time>
      </trkpt>
      <trkpt lat="47.47461" lon="6.73202">
        <ele>307.20001220703</ele>
        <time>2019-09-10T11:11:28Z</time>
      </trkpt>
      <trkpt lat="47.47465" lon="6.73188">
        <ele>307.79998779297</ele>
        <time>2019-09-10T11:11:32Z</time>
      </trkpt>
      <trkpt lat="47.47466" lon="6.73181">
        <ele>308.20001220703</ele>
        <time>2019-09-10T11:11:34Z</time>
      </trkpt>
      <trkpt lat="47.47469" lon="6.73162">
        <ele>309</ele>
        <time>2019-09-10T11:11:39Z</time>
      </trkpt>
      <trkpt lat="47.47469" lon="6.73158">
        <ele>309.20001220703</ele>
        <time>2019-09-10T11:11:40Z</time>
      </trkpt>
      <trkpt lat="47.4747" lon="6.73124">
        <ele>310</ele>
        <time>2019-09-10T11:11:47Z</time>
      </trkpt>
      <trkpt lat="47.4747" lon="6.73106">
        <ele>310</ele>
        <time>2019-09-10T11:11:51Z</time>
      </trkpt>
      <trkpt lat="47.47467" lon="6.73096">
        <ele>310</ele>
        <time>2019-09-10T11:11:53Z</time>
      </trkpt>
      <trkpt lat="47.47464" lon="6.73084">
        <ele>309.79998779297</ele>
        <time>2019-09-10T11:11:55Z</time>
      </trkpt>
      <trkpt lat="47.47454" lon="6.73062">
        <ele>309.39999389648</ele>
        <time>2019-09-10T11:11:59Z</time>
      </trkpt>
      <trkpt lat="47.47452" lon="6.73056">
        <ele>308.79998779297</ele>
        <time>2019-09-10T11:12:00Z</time>
      </trkpt>
      <trkpt lat="47.47445" lon="6.73044">
        <ele>308.20001220703</ele>
        <time>2019-09-10T11:12:03Z</time>
      </trkpt>
      <trkpt lat="47.47443" lon="6.73042">
        <ele>307.79998779297</ele>
        <time>2019-09-10T11:12:04Z</time>
      </trkpt>
      <trkpt lat="47.4744" lon="6.7304">
        <ele>307.60000610352</ele>
        <time>2019-09-10T11:12:08Z</time>
      </trkpt>
      <trkpt lat="47.47439" lon="6.73039">
        <ele>307.39999389648</ele>
        <time>2019-09-10T11:12:52Z</time>
      </trkpt>
      <trkpt lat="47.47437" lon="6.73038">
        <ele>307.39999389648</ele>
        <time>2019-09-10T11:12:53Z</time>
      </trkpt>
      <trkpt lat="47.47435" lon="6.73038">
        <ele>307.39999389648</ele>
        <time>2019-09-10T11:12:54Z</time>
      </trkpt>
      <trkpt lat="47.47419" lon="6.73042">
        <ele>307.39999389648</ele>
        <time>2019-09-10T11:13:00Z</time>
      </trkpt>
      <trkpt lat="47.47405" lon="6.73036">
        <ele>307.39999389648</ele>
        <time>2019-09-10T11:13:06Z</time>
      </trkpt>
      <trkpt lat="47.47388" lon="6.73027">
        <ele>308.60000610352</ele>
        <time>2019-09-10T11:13:14Z</time>
      </trkpt>
      <trkpt lat="47.47384" lon="6.73026">
        <ele>309.20001220703</ele>
        <time>2019-09-10T11:13:16Z</time>
      </trkpt>
      <trkpt lat="47.47374" lon="6.73024">
        <ele>310.39999389648</ele>
        <time>2019-09-10T11:13:20Z</time>
      </trkpt>
      <trkpt lat="47.47362" lon="6.73023">
        <ele>311.39999389648</ele>
        <time>2019-09-10T11:13:25Z</time>
      </trkpt>
      <trkpt lat="47.47351" lon="6.73023">
        <ele>312</ele>
        <time>2019-09-10T11:13:29Z</time>
      </trkpt>
      <trkpt lat="47.47335" lon="6.73014">
        <ele>312.20001220703</ele>
        <time>2019-09-10T11:13:35Z</time>
      </trkpt>
      <trkpt lat="47.47321" lon="6.7299">
        <ele>312.60000610352</ele>
        <time>2019-09-10T11:13:43Z</time>
      </trkpt>
      <trkpt lat="47.47319" lon="6.72987">
        <ele>312.79998779297</ele>
        <time>2019-09-10T11:13:44Z</time>
      </trkpt>
      <trkpt lat="47.47309" lon="6.72972">
        <ele>313.60000610352</ele>
        <time>2019-09-10T11:13:49Z</time>
      </trkpt>
      <trkpt lat="47.47296" lon="6.72954">
        <ele>314.39999389648</ele>
        <time>2019-09-10T11:13:55Z</time>
      </trkpt>
      <trkpt lat="47.47294" lon="6.72951">
        <ele>314.60000610352</ele>
        <time>2019-09-10T11:13:56Z</time>
      </trkpt>
      <trkpt lat="47.4728" lon="6.72934">
        <ele>315.39999389648</ele>
        <time>2019-09-10T11:14:02Z</time>
      </trkpt>
      <trkpt lat="47.47276" lon="6.72928">
        <ele>315.60000610352</ele>
        <time>2019-09-10T11:14:04Z</time>
      </trkpt>
      <trkpt lat="47.47258" lon="6.72907">
        <ele>316.39999389648</ele>
        <time>2019-09-10T11:14:12Z</time>
      </trkpt>
      <trkpt lat="47.47253" lon="6.72902">
        <ele>316.60000610352</ele>
        <time>2019-09-10T11:14:14Z</time>
      </trkpt>
      <trkpt lat="47.47238" lon="6.7289">
        <ele>317.60000610352</ele>
        <time>2019-09-10T11:14:20Z</time>
      </trkpt>
      <trkpt lat="47.4722" lon="6.72885">
        <ele>318.20001220703</ele>
        <time>2019-09-10T11:14:27Z</time>
      </trkpt>
      <trkpt lat="47.47206" lon="6.72882">
        <ele>318.60000610352</ele>
        <time>2019-09-10T11:14:32Z</time>
      </trkpt>
      <trkpt lat="47.47195" lon="6.72878">
        <ele>319.20001220703</ele>
        <time>2019-09-10T11:14:36Z</time>
      </trkpt>
      <trkpt lat="47.47186" lon="6.72874">
        <ele>319.79998779297</ele>
        <time>2019-09-10T11:14:39Z</time>
      </trkpt>
      <trkpt lat="47.47166" lon="6.72862">
        <ele>320.20001220703</ele>
        <time>2019-09-10T11:14:46Z</time>
      </trkpt>
      <trkpt lat="47.47143" lon="6.72843">
        <ele>321</ele>
        <time>2019-09-10T11:14:54Z</time>
      </trkpt>
      <trkpt lat="47.47131" lon="6.72834">
        <ele>321.20001220703</ele>
        <time>2019-09-10T11:14:58Z</time>
      </trkpt>
      <trkpt lat="47.47112" lon="6.72816">
        <ele>322</ele>
        <time>2019-09-10T11:15:05Z</time>
      </trkpt>
      <trkpt lat="47.47098" lon="6.72804">
        <ele>322.39999389648</ele>
        <time>2019-09-10T11:15:10Z</time>
      </trkpt>
      <trkpt lat="47.47086" lon="6.72792">
        <ele>323</ele>
        <time>2019-09-10T11:15:15Z</time>
      </trkpt>
      <trkpt lat="47.47077" lon="6.72783">
        <ele>323.39999389648</ele>
        <time>2019-09-10T11:15:19Z</time>
      </trkpt>
      <trkpt lat="47.47068" lon="6.72775">
        <ele>324.20001220703</ele>
        <time>2019-09-10T11:15:23Z</time>
      </trkpt>
      <trkpt lat="47.47058" lon="6.72765">
        <ele>324.79998779297</ele>
        <time>2019-09-10T11:15:28Z</time>
      </trkpt>
      <trkpt lat="47.47052" lon="6.72758">
        <ele>325.20001220703</ele>
        <time>2019-09-10T11:15:31Z</time>
      </trkpt>
      <trkpt lat="47.47042" lon="6.72746">
        <ele>326.20001220703</ele>
        <time>2019-09-10T11:15:37Z</time>
      </trkpt>
      <trkpt lat="47.4704" lon="6.72743">
        <ele>326.20001220703</ele>
        <time>2019-09-10T11:15:38Z</time>
      </trkpt>
      <trkpt lat="47.47031" lon="6.72727">
        <ele>327.39999389648</ele>
        <time>2019-09-10T11:15:45Z</time>
      </trkpt>
      <trkpt lat="47.47025" lon="6.72718">
        <ele>328</ele>
        <time>2019-09-10T11:15:49Z</time>
      </trkpt>
      <trkpt lat="47.47023" lon="6.72713">
        <ele>328.39999389648</ele>
        <time>2019-09-10T11:15:51Z</time>
      </trkpt>
      <trkpt lat="47.47018" lon="6.72704">
        <ele>329.39999389648</ele>
        <time>2019-09-10T11:15:55Z</time>
      </trkpt>
      <trkpt lat="47.47013" lon="6.72695">
        <ele>330.20001220703</ele>
        <time>2019-09-10T11:15:59Z</time>
      </trkpt>
      <trkpt lat="47.47009" lon="6.72688">
        <ele>330.60000610352</ele>
        <time>2019-09-10T11:16:02Z</time>
      </trkpt>
      <trkpt lat="47.47" lon="6.72676">
        <ele>331.79998779297</ele>
        <time>2019-09-10T11:16:08Z</time>
      </trkpt>
      <trkpt lat="47.46991" lon="6.72666">
        <ele>332.79998779297</ele>
        <time>2019-09-10T11:16:13Z</time>
      </trkpt>
      <trkpt lat="47.46982" lon="6.72657">
        <ele>333.79998779297</ele>
        <time>2019-09-10T11:16:18Z</time>
      </trkpt>
      <trkpt lat="47.4698" lon="6.72655">
        <ele>334.20001220703</ele>
        <time>2019-09-10T11:16:19Z</time>
      </trkpt>
      <trkpt lat="47.46971" lon="6.72646">
        <ele>335</ele>
        <time>2019-09-10T11:16:24Z</time>
      </trkpt>
      <trkpt lat="47.46962" lon="6.72638">
        <ele>335.79998779297</ele>
        <time>2019-09-10T11:16:29Z</time>
      </trkpt>
      <trkpt lat="47.46959" lon="6.72634">
        <ele>336</ele>
        <time>2019-09-10T11:16:31Z</time>
      </trkpt>
      <trkpt lat="47.46948" lon="6.72623">
        <ele>337</ele>
        <time>2019-09-10T11:16:37Z</time>
      </trkpt>
      <trkpt lat="47.46945" lon="6.7262">
        <ele>337.20001220703</ele>
        <time>2019-09-10T11:16:39Z</time>
      </trkpt>
      <trkpt lat="47.46934" lon="6.72612">
        <ele>338.20001220703</ele>
        <time>2019-09-10T11:16:45Z</time>
      </trkpt>
      <trkpt lat="47.46932" lon="6.7261">
        <ele>338.39999389648</ele>
        <time>2019-09-10T11:16:46Z</time>
      </trkpt>
      <trkpt lat="47.46924" lon="6.72602">
        <ele>339.39999389648</ele>
        <time>2019-09-10T11:16:51Z</time>
      </trkpt>
      <trkpt lat="47.4692" lon="6.72598">
        <ele>339.79998779297</ele>
        <time>2019-09-10T11:16:53Z</time>
      </trkpt>
      <trkpt lat="47.46913" lon="6.72593">
        <ele>340.39999389648</ele>
        <time>2019-09-10T11:16:57Z</time>
      </trkpt>
      <trkpt lat="47.46907" lon="6.72589">
        <ele>340.79998779297</ele>
        <time>2019-09-10T11:17:00Z</time>
      </trkpt>
      <trkpt lat="47.46899" lon="6.72582">
        <ele>341.60000610352</ele>
        <time>2019-09-10T11:17:05Z</time>
      </trkpt>
      <trkpt lat="47.46893" lon="6.72577">
        <ele>342.20001220703</ele>
        <time>2019-09-10T11:17:08Z</time>
      </trkpt>
      <trkpt lat="47.46889" lon="6.72573">
        <ele>342.60000610352</ele>
        <time>2019-09-10T11:17:11Z</time>
      </trkpt>
      <trkpt lat="47.46883" lon="6.72569">
        <ele>343.60000610352</ele>
        <time>2019-09-10T11:17:15Z</time>
      </trkpt>
      <trkpt lat="47.46875" lon="6.72561">
        <ele>344.79998779297</ele>
        <time>2019-09-10T11:17:20Z</time>
      </trkpt>
      <trkpt lat="47.46873" lon="6.72559">
        <ele>345</ele>
        <time>2019-09-10T11:17:21Z</time>
      </trkpt>
      <trkpt lat="47.46866" lon="6.72552">
        <ele>345.79998779297</ele>
        <time>2019-09-10T11:17:25Z</time>
      </trkpt>
      <trkpt lat="47.46857" lon="6.72542">
        <ele>346.79998779297</ele>
        <time>2019-09-10T11:17:30Z</time>
      </trkpt>
      <trkpt lat="47.46855" lon="6.7254">
        <ele>346.79998779297</ele>
        <time>2019-09-10T11:17:31Z</time>
      </trkpt>
      <trkpt lat="47.46842" lon="6.72526">
        <ele>347.79998779297</ele>
        <time>2019-09-10T11:17:38Z</time>
      </trkpt>
      <trkpt lat="47.4684" lon="6.72524">
        <ele>348</ele>
        <time>2019-09-10T11:17:39Z</time>
      </trkpt>
      <trkpt lat="47.46825" lon="6.72509">
        <ele>348.60000610352</ele>
        <time>2019-09-10T11:17:47Z</time>
      </trkpt>
      <trkpt lat="47.46823" lon="6.72507">
        <ele>348.79998779297</ele>
        <time>2019-09-10T11:17:48Z</time>
      </trkpt>
      <trkpt lat="47.4681" lon="6.72495">
        <ele>349.39999389648</ele>
        <time>2019-09-10T11:17:55Z</time>
      </trkpt>
      <trkpt lat="47.46804" lon="6.72491">
        <ele>349.79998779297</ele>
        <time>2019-09-10T11:17:58Z</time>
      </trkpt>
      <trkpt lat="47.46794" lon="6.72484">
        <ele>350.39999389648</ele>
        <time>2019-09-10T11:18:03Z</time>
      </trkpt>
      <trkpt lat="47.46788" lon="6.7248">
        <ele>350.79998779297</ele>
        <time>2019-09-10T11:18:06Z</time>
      </trkpt>
      <trkpt lat="47.46773" lon="6.72472">
        <ele>351.79998779297</ele>
        <time>2019-09-10T11:18:14Z</time>
      </trkpt>
      <trkpt lat="47.46771" lon="6.72471">
        <ele>351.79998779297</ele>
        <time>2019-09-10T11:18:15Z</time>
      </trkpt>
      <trkpt lat="47.46759" lon="6.72464">
        <ele>352.79998779297</ele>
        <time>2019-09-10T11:18:21Z</time>
      </trkpt>
      <trkpt lat="47.46757" lon="6.72462">
        <ele>353</ele>
        <time>2019-09-10T11:18:22Z</time>
      </trkpt>
      <trkpt lat="47.46748" lon="6.72454">
        <ele>353.60000610352</ele>
        <time>2019-09-10T11:18:27Z</time>
      </trkpt>
      <trkpt lat="47.46745" lon="6.7245">
        <ele>354.20001220703</ele>
        <time>2019-09-10T11:18:29Z</time>
      </trkpt>
      <trkpt lat="47.46736" lon="6.72441">
        <ele>355.20001220703</ele>
        <time>2019-09-10T11:18:34Z</time>
      </trkpt>
      <trkpt lat="47.46733" lon="6.72436">
        <ele>355.39999389648</ele>
        <time>2019-09-10T11:18:36Z</time>
      </trkpt>
      <trkpt lat="47.46723" lon="6.72423">
        <ele>356</ele>
        <time>2019-09-10T11:18:42Z</time>
      </trkpt>
      <trkpt lat="47.4672" lon="6.72418">
        <ele>356.39999389648</ele>
        <time>2019-09-10T11:18:44Z</time>
      </trkpt>
      <trkpt lat="47.46714" lon="6.72409">
        <ele>357</ele>
        <time>2019-09-10T11:18:48Z</time>
      </trkpt>
      <trkpt lat="47.4671" lon="6.72402">
        <ele>357.39999389648</ele>
        <time>2019-09-10T11:18:51Z</time>
      </trkpt>
      <trkpt lat="47.46699" lon="6.72384">
        <ele>358.39999389648</ele>
        <time>2019-09-10T11:18:58Z</time>
      </trkpt>
      <trkpt lat="47.46698" lon="6.72382">
        <ele>358.60000610352</ele>
        <time>2019-09-10T11:18:59Z</time>
      </trkpt>
      <trkpt lat="47.46686" lon="6.72362">
        <ele>359.60000610352</ele>
        <time>2019-09-10T11:19:07Z</time>
      </trkpt>
      <trkpt lat="47.46685" lon="6.72359">
        <ele>359.60000610352</ele>
        <time>2019-09-10T11:19:08Z</time>
      </trkpt>
      <trkpt lat="47.46674" lon="6.72341">
        <ele>360.39999389648</ele>
        <time>2019-09-10T11:19:14Z</time>
      </trkpt>
      <trkpt lat="47.4667" lon="6.72334">
        <ele>360.60000610352</ele>
        <time>2019-09-10T11:19:16Z</time>
      </trkpt>
      <trkpt lat="47.46664" lon="6.72323">
        <ele>361.20001220703</ele>
        <time>2019-09-10T11:19:20Z</time>
      </trkpt>
      <trkpt lat="47.46662" lon="6.72312">
        <ele>361.60000610352</ele>
        <time>2019-09-10T11:19:23Z</time>
      </trkpt>
      <trkpt lat="47.46657" lon="6.72296">
        <ele>361.79998779297</ele>
        <time>2019-09-10T11:19:28Z</time>
      </trkpt>
      <trkpt lat="47.4665" lon="6.72269">
        <ele>361.79998779297</ele>
        <time>2019-09-10T11:19:36Z</time>
      </trkpt>
      <trkpt lat="47.46644" lon="6.72243">
        <ele>361.39999389648</ele>
        <time>2019-09-10T11:19:42Z</time>
      </trkpt>
      <trkpt lat="47.46633" lon="6.72209">
        <ele>361.20001220703</ele>
        <time>2019-09-10T11:19:48Z</time>
      </trkpt>
      <trkpt lat="47.46629" lon="6.72196">
        <ele>361</ele>
        <time>2019-09-10T11:19:50Z</time>
      </trkpt>
      <trkpt lat="47.46622" lon="6.72176">
        <ele>360.79998779297</ele>
        <time>2019-09-10T11:19:53Z</time>
      </trkpt>
      <trkpt lat="47.46619" lon="6.72169">
        <ele>360.79998779297</ele>
        <time>2019-09-10T11:19:54Z</time>
      </trkpt>
      <trkpt lat="47.46613" lon="6.72155">
        <ele>360.60000610352</ele>
        <time>2019-09-10T11:19:56Z</time>
      </trkpt>
      <trkpt lat="47.46607" lon="6.72141">
        <ele>360.39999389648</ele>
        <time>2019-09-10T11:19:58Z</time>
      </trkpt>
      <trkpt lat="47.466" lon="6.72112">
        <ele>359.60000610352</ele>
        <time>2019-09-10T11:20:02Z</time>
      </trkpt>
      <trkpt lat="47.46599" lon="6.72105">
        <ele>359.60000610352</ele>
        <time>2019-09-10T11:20:03Z</time>
      </trkpt>
      <trkpt lat="47.46589" lon="6.72066">
        <ele>359</ele>
        <time>2019-09-10T11:20:09Z</time>
      </trkpt>
      <trkpt lat="47.46575" lon="6.72011">
        <ele>358.60000610352</ele>
        <time>2019-09-10T11:20:17Z</time>
      </trkpt>
      <trkpt lat="47.46572" lon="6.71997">
        <ele>358.39999389648</ele>
        <time>2019-09-10T11:20:19Z</time>
      </trkpt>
      <trkpt lat="47.46563" lon="6.71966">
        <ele>358.20001220703</ele>
        <time>2019-09-10T11:20:23Z</time>
      </trkpt>
      <trkpt lat="47.46559" lon="6.71957">
        <ele>358</ele>
        <time>2019-09-10T11:20:24Z</time>
      </trkpt>
      <trkpt lat="47.46548" lon="6.7193">
        <ele>357.39999389648</ele>
        <time>2019-09-10T11:20:27Z</time>
      </trkpt>
      <trkpt lat="47.46541" lon="6.71915">
        <ele>357.20001220703</ele>
        <time>2019-09-10T11:20:29Z</time>
      </trkpt>
      <trkpt lat="47.46533" lon="6.71901">
        <ele>356.20001220703</ele>
        <time>2019-09-10T11:20:32Z</time>
      </trkpt>
      <trkpt lat="47.46531" lon="6.71897">
        <ele>355.79998779297</ele>
        <time>2019-09-10T11:20:33Z</time>
      </trkpt>
      <trkpt lat="47.46529" lon="6.71891">
        <ele>355.20001220703</ele>
        <time>2019-09-10T11:20:34Z</time>
      </trkpt>
      <trkpt lat="47.46528" lon="6.71886">
        <ele>354.60000610352</ele>
        <time>2019-09-10T11:20:35Z</time>
      </trkpt>
      <trkpt lat="47.46526" lon="6.71874">
        <ele>353.39999389648</ele>
        <time>2019-09-10T11:20:37Z</time>
      </trkpt>
      <trkpt lat="47.46522" lon="6.71862">
        <ele>352.39999389648</ele>
        <time>2019-09-10T11:20:39Z</time>
      </trkpt>
      <trkpt lat="47.46521" lon="6.71856">
        <ele>352</ele>
        <time>2019-09-10T11:20:40Z</time>
      </trkpt>
      <trkpt lat="47.46513" lon="6.71825">
        <ele>351.60000610352</ele>
        <time>2019-09-10T11:20:44Z</time>
      </trkpt>
      <trkpt lat="47.46496" lon="6.71769">
        <ele>350.79998779297</ele>
        <time>2019-09-10T11:20:50Z</time>
      </trkpt>
      <trkpt lat="47.46478" lon="6.71726">
        <ele>349.60000610352</ele>
        <time>2019-09-10T11:20:54Z</time>
      </trkpt>
      <trkpt lat="47.46472" lon="6.71716">
        <ele>349.39999389648</ele>
        <time>2019-09-10T11:20:55Z</time>
      </trkpt>
      <trkpt lat="47.46461" lon="6.71693">
        <ele>348.39999389648</ele>
        <time>2019-09-10T11:20:57Z</time>
      </trkpt>
      <trkpt lat="47.46456" lon="6.7168">
        <ele>347.79998779297</ele>
        <time>2019-09-10T11:20:58Z</time>
      </trkpt>
      <trkpt lat="47.46451" lon="6.71667">
        <ele>347.20001220703</ele>
        <time>2019-09-10T11:20:59Z</time>
      </trkpt>
      <trkpt lat="47.46446" lon="6.71654">
        <ele>346.79998779297</ele>
        <time>2019-09-10T11:21:00Z</time>
      </trkpt>
      <trkpt lat="47.46434" lon="6.71635">
        <ele>345.60000610352</ele>
        <time>2019-09-10T11:21:02Z</time>
      </trkpt>
      <trkpt lat="47.46429" lon="6.71627">
        <ele>345</ele>
        <time>2019-09-10T11:21:03Z</time>
      </trkpt>
      <trkpt lat="47.46424" lon="6.71621">
        <ele>344.20001220703</ele>
        <time>2019-09-10T11:21:04Z</time>
      </trkpt>
      <trkpt lat="47.46417" lon="6.71609">
        <ele>342</ele>
        <time>2019-09-10T11:21:06Z</time>
      </trkpt>
      <trkpt lat="47.46402" lon="6.71587">
        <ele>341.20001220703</ele>
        <time>2019-09-10T11:21:12Z</time>
      </trkpt>
      <trkpt lat="47.46385" lon="6.71559">
        <ele>341.60000610352</ele>
        <time>2019-09-10T11:21:20Z</time>
      </trkpt>
      <trkpt lat="47.46376" lon="6.71538">
        <ele>342.79998779297</ele>
        <time>2019-09-10T11:21:26Z</time>
      </trkpt>
      <trkpt lat="47.46374" lon="6.71531">
        <ele>343</ele>
        <time>2019-09-10T11:21:28Z</time>
      </trkpt>
      <trkpt lat="47.46367" lon="6.7151">
        <ele>344</ele>
        <time>2019-09-10T11:21:34Z</time>
      </trkpt>
      <trkpt lat="47.46366" lon="6.71507">
        <ele>344.20001220703</ele>
        <time>2019-09-10T11:21:35Z</time>
      </trkpt>
      <trkpt lat="47.46362" lon="6.71495">
        <ele>345.20001220703</ele>
        <time>2019-09-10T11:21:39Z</time>
      </trkpt>
      <trkpt lat="47.46356" lon="6.7148">
        <ele>346.20001220703</ele>
        <time>2019-09-10T11:21:44Z</time>
      </trkpt>
      <trkpt lat="47.46355" lon="6.71478">
        <ele>346.20001220703</ele>
        <time>2019-09-10T11:21:45Z</time>
      </trkpt>
      <trkpt lat="47.46345" lon="6.71467">
        <ele>347.20001220703</ele>
        <time>2019-09-10T11:21:50Z</time>
      </trkpt>
      <trkpt lat="47.46343" lon="6.71465">
        <ele>347.39999389648</ele>
        <time>2019-09-10T11:21:51Z</time>
      </trkpt>
      <trkpt lat="47.46329" lon="6.71451">
        <ele>348.60000610352</ele>
        <time>2019-09-10T11:21:58Z</time>
      </trkpt>
      <trkpt lat="47.46328" lon="6.71448">
        <ele>348.60000610352</ele>
        <time>2019-09-10T11:21:59Z</time>
      </trkpt>
      <trkpt lat="47.46307" lon="6.71424">
        <ele>349.60000610352</ele>
        <time>2019-09-10T11:22:09Z</time>
      </trkpt>
      <trkpt lat="47.46291" lon="6.71398">
        <ele>349.79998779297</ele>
        <time>2019-09-10T11:22:17Z</time>
      </trkpt>
      <trkpt lat="47.4628" lon="6.71378">
        <ele>350.39999389648</ele>
        <time>2019-09-10T11:22:23Z</time>
      </trkpt>
      <trkpt lat="47.46274" lon="6.71369">
        <ele>350.79998779297</ele>
        <time>2019-09-10T11:22:26Z</time>
      </trkpt>
      <trkpt lat="47.46273" lon="6.71365">
        <ele>350.79998779297</ele>
        <time>2019-09-10T11:22:27Z</time>
      </trkpt>
      <trkpt lat="47.46267" lon="6.71338">
        <ele>351</ele>
        <time>2019-09-10T11:22:34Z</time>
      </trkpt>
      <trkpt lat="47.46252" lon="6.71309">
        <ele>351.20001220703</ele>
        <time>2019-09-10T11:22:40Z</time>
      </trkpt>
      <trkpt lat="47.46231" lon="6.71271">
        <ele>351</ele>
        <time>2019-09-10T11:22:45Z</time>
      </trkpt>
      <trkpt lat="47.46204" lon="6.71221">
        <ele>349.79998779297</ele>
        <time>2019-09-10T11:22:50Z</time>
      </trkpt>
      <trkpt lat="47.46199" lon="6.7121">
        <ele>349.39999389648</ele>
        <time>2019-09-10T11:22:51Z</time>
      </trkpt>
      <trkpt lat="47.46181" lon="6.71174">
        <ele>348</ele>
        <time>2019-09-10T11:22:54Z</time>
      </trkpt>
      <trkpt lat="47.46168" lon="6.71149">
        <ele>346.79998779297</ele>
        <time>2019-09-10T11:22:56Z</time>
      </trkpt>
      <trkpt lat="47.46155" lon="6.71125">
        <ele>345.79998779297</ele>
        <time>2019-09-10T11:22:58Z</time>
      </trkpt>
      <trkpt lat="47.46142" lon="6.711">
        <ele>344.20001220703</ele>
        <time>2019-09-10T11:23:00Z</time>
      </trkpt>
      <trkpt lat="47.4613" lon="6.71074">
        <ele>343</ele>
        <time>2019-09-10T11:23:02Z</time>
      </trkpt>
      <trkpt lat="47.46124" lon="6.71062">
        <ele>341.79998779297</ele>
        <time>2019-09-10T11:23:03Z</time>
      </trkpt>
      <trkpt lat="47.46118" lon="6.71049">
        <ele>341.20001220703</ele>
        <time>2019-09-10T11:23:04Z</time>
      </trkpt>
      <trkpt lat="47.46107" lon="6.71022">
        <ele>340.20001220703</ele>
        <time>2019-09-10T11:23:06Z</time>
      </trkpt>
      <trkpt lat="47.46096" lon="6.70995">
        <ele>339.20001220703</ele>
        <time>2019-09-10T11:23:08Z</time>
      </trkpt>
      <trkpt lat="47.46079" lon="6.70953">
        <ele>337.79998779297</ele>
        <time>2019-09-10T11:23:11Z</time>
      </trkpt>
      <trkpt lat="47.46069" lon="6.70923">
        <ele>336.20001220703</ele>
        <time>2019-09-10T11:23:13Z</time>
      </trkpt>
      <trkpt lat="47.4606" lon="6.70894">
        <ele>335.20001220703</ele>
        <time>2019-09-10T11:23:15Z</time>
      </trkpt>
      <trkpt lat="47.46057" lon="6.70879">
        <ele>334.60000610352</ele>
        <time>2019-09-10T11:23:16Z</time>
      </trkpt>
      <trkpt lat="47.46054" lon="6.70863">
        <ele>334</ele>
        <time>2019-09-10T11:23:17Z</time>
      </trkpt>
      <trkpt lat="47.4605" lon="6.70833">
        <ele>332.60000610352</ele>
        <time>2019-09-10T11:23:19Z</time>
      </trkpt>
      <trkpt lat="47.46049" lon="6.70818">
        <ele>331.79998779297</ele>
        <time>2019-09-10T11:23:20Z</time>
      </trkpt>
      <trkpt lat="47.46049" lon="6.70803">
        <ele>331</ele>
        <time>2019-09-10T11:23:21Z</time>
      </trkpt>
      <trkpt lat="47.46049" lon="6.70774">
        <ele>330</ele>
        <time>2019-09-10T11:23:23Z</time>
      </trkpt>
      <trkpt lat="47.46051" lon="6.70747">
        <ele>328.79998779297</ele>
        <time>2019-09-10T11:23:25Z</time>
      </trkpt>
      <trkpt lat="47.46057" lon="6.7071">
        <ele>327.79998779297</ele>
        <time>2019-09-10T11:23:28Z</time>
      </trkpt>
      <trkpt lat="47.4606" lon="6.70686">
        <ele>327.20001220703</ele>
        <time>2019-09-10T11:23:30Z</time>
      </trkpt>
      <trkpt lat="47.46059" lon="6.70651">
        <ele>326.60000610352</ele>
        <time>2019-09-10T11:23:33Z</time>
      </trkpt>
      <trkpt lat="47.46057" lon="6.7064">
        <ele>326.60000610352</ele>
        <time>2019-09-10T11:23:34Z</time>
      </trkpt>
      <trkpt lat="47.46049" lon="6.70569">
        <ele>325.79998779297</ele>
        <time>2019-09-10T11:23:41Z</time>
      </trkpt>
      <trkpt lat="47.46048" lon="6.70559">
        <ele>325.60000610352</ele>
        <time>2019-09-10T11:23:42Z</time>
      </trkpt>
      <trkpt lat="47.46036" lon="6.70505">
        <ele>325.20001220703</ele>
        <time>2019-09-10T11:23:48Z</time>
      </trkpt>
      <trkpt lat="47.46022" lon="6.70464">
        <ele>324.60000610352</ele>
        <time>2019-09-10T11:23:53Z</time>
      </trkpt>
      <trkpt lat="47.4602" lon="6.70456">
        <ele>324.39999389648</ele>
        <time>2019-09-10T11:23:54Z</time>
      </trkpt>
      <trkpt lat="47.46009" lon="6.7042">
        <ele>323.39999389648</ele>
        <time>2019-09-10T11:23:58Z</time>
      </trkpt>
      <trkpt lat="47.46003" lon="6.70401">
        <ele>322.60000610352</ele>
        <time>2019-09-10T11:24:00Z</time>
      </trkpt>
      <trkpt lat="47.45998" lon="6.70381">
        <ele>322.20001220703</ele>
        <time>2019-09-10T11:24:02Z</time>
      </trkpt>
      <trkpt lat="47.45988" lon="6.7034">
        <ele>321.20001220703</ele>
        <time>2019-09-10T11:24:06Z</time>
      </trkpt>
      <trkpt lat="47.45983" lon="6.70318">
        <ele>320.79998779297</ele>
        <time>2019-09-10T11:24:08Z</time>
      </trkpt>
      <trkpt lat="47.45974" lon="6.70276">
        <ele>320</ele>
        <time>2019-09-10T11:24:12Z</time>
      </trkpt>
      <trkpt lat="47.45964" lon="6.70231">
        <ele>319</ele>
        <time>2019-09-10T11:24:16Z</time>
      </trkpt>
      <trkpt lat="47.45953" lon="6.70174">
        <ele>317.60000610352</ele>
        <time>2019-09-10T11:24:21Z</time>
      </trkpt>
      <trkpt lat="47.45946" lon="6.70139">
        <ele>317.20001220703</ele>
        <time>2019-09-10T11:24:24Z</time>
      </trkpt>
      <trkpt lat="47.45942" lon="6.70103">
        <ele>316.39999389648</ele>
        <time>2019-09-10T11:24:27Z</time>
      </trkpt>
      <trkpt lat="47.4594" lon="6.70066">
        <ele>315.39999389648</ele>
        <time>2019-09-10T11:24:30Z</time>
      </trkpt>
      <trkpt lat="47.4594" lon="6.70054">
        <ele>315</ele>
        <time>2019-09-10T11:24:31Z</time>
      </trkpt>
      <trkpt lat="47.45942" lon="6.70008">
        <ele>314.20001220703</ele>
        <time>2019-09-10T11:24:35Z</time>
      </trkpt>
      <trkpt lat="47.45945" lon="6.69975">
        <ele>313.79998779297</ele>
        <time>2019-09-10T11:24:38Z</time>
      </trkpt>
      <trkpt lat="47.4595" lon="6.69932">
        <ele>313.20001220703</ele>
        <time>2019-09-10T11:24:42Z</time>
      </trkpt>
      <trkpt lat="47.45955" lon="6.69889">
        <ele>312.39999389648</ele>
        <time>2019-09-10T11:24:46Z</time>
      </trkpt>
      <trkpt lat="47.45959" lon="6.69843">
        <ele>312.20001220703</ele>
        <time>2019-09-10T11:24:50Z</time>
      </trkpt>
      <trkpt lat="47.4596" lon="6.69832">
        <ele>312</ele>
        <time>2019-09-10T11:24:51Z</time>
      </trkpt>
      <trkpt lat="47.45959" lon="6.6982">
        <ele>311.79998779297</ele>
        <time>2019-09-10T11:24:52Z</time>
      </trkpt>
      <trkpt lat="47.45955" lon="6.69785">
        <ele>311</ele>
        <time>2019-09-10T11:24:55Z</time>
      </trkpt>
      <trkpt lat="47.4595" lon="6.6975">
        <ele>309.60000610352</ele>
        <time>2019-09-10T11:24:58Z</time>
      </trkpt>
      <trkpt lat="47.45949" lon="6.69739">
        <ele>309.20001220703</ele>
        <time>2019-09-10T11:24:59Z</time>
      </trkpt>
      <trkpt lat="47.45947" lon="6.69727">
        <ele>308.39999389648</ele>
        <time>2019-09-10T11:25:00Z</time>
      </trkpt>
      <trkpt lat="47.45943" lon="6.69694">
        <ele>307.20001220703</ele>
        <time>2019-09-10T11:25:03Z</time>
      </trkpt>
      <trkpt lat="47.45938" lon="6.69662">
        <ele>306.60000610352</ele>
        <time>2019-09-10T11:25:06Z</time>
      </trkpt>
      <trkpt lat="47.45933" lon="6.69642">
        <ele>306.20001220703</ele>
        <time>2019-09-10T11:25:08Z</time>
      </trkpt>
      <trkpt lat="47.45923" lon="6.69604">
        <ele>305</ele>
        <time>2019-09-10T11:25:12Z</time>
      </trkpt>
      <trkpt lat="47.45919" lon="6.69586">
        <ele>304.39999389648</ele>
        <time>2019-09-10T11:25:14Z</time>
      </trkpt>
      <trkpt lat="47.45909" lon="6.69548">
        <ele>303.79998779297</ele>
        <time>2019-09-10T11:25:18Z</time>
      </trkpt>
      <trkpt lat="47.45899" lon="6.69519">
        <ele>303.60000610352</ele>
        <time>2019-09-10T11:25:21Z</time>
      </trkpt>
      <trkpt lat="47.45878" lon="6.69471">
        <ele>302.79998779297</ele>
        <time>2019-09-10T11:25:26Z</time>
      </trkpt>
      <trkpt lat="47.45868" lon="6.69454">
        <ele>302.20001220703</ele>
        <time>2019-09-10T11:25:28Z</time>
      </trkpt>
      <trkpt lat="47.45848" lon="6.69422">
        <ele>301.60000610352</ele>
        <time>2019-09-10T11:25:32Z</time>
      </trkpt>
      <trkpt lat="47.45826" lon="6.69394">
        <ele>301</ele>
        <time>2019-09-10T11:25:36Z</time>
      </trkpt>
      <trkpt lat="47.45786" lon="6.69355">
        <ele>301</ele>
        <time>2019-09-10T11:25:43Z</time>
      </trkpt>
      <trkpt lat="47.45739" lon="6.69314">
        <ele>300.60000610352</ele>
        <time>2019-09-10T11:25:51Z</time>
      </trkpt>
      <trkpt lat="47.45733" lon="6.69308">
        <ele>300.60000610352</ele>
        <time>2019-09-10T11:25:52Z</time>
      </trkpt>
      <trkpt lat="47.45709" lon="6.69288">
        <ele>300.39999389648</ele>
        <time>2019-09-10T11:25:56Z</time>
      </trkpt>
      <trkpt lat="47.45668" lon="6.69248">
        <ele>300</ele>
        <time>2019-09-10T11:26:03Z</time>
      </trkpt>
      <trkpt lat="47.45622" lon="6.69196">
        <ele>299.60000610352</ele>
        <time>2019-09-10T11:26:12Z</time>
      </trkpt>
      <trkpt lat="47.45588" lon="6.69154">
        <ele>299.39999389648</ele>
        <time>2019-09-10T11:26:19Z</time>
      </trkpt>
      <trkpt lat="47.45579" lon="6.69142">
        <ele>299.39999389648</ele>
        <time>2019-09-10T11:26:21Z</time>
      </trkpt>
      <trkpt lat="47.45547" lon="6.69107">
        <ele>299.39999389648</ele>
        <time>2019-09-10T11:26:28Z</time>
      </trkpt>
      <trkpt lat="47.45505" lon="6.69072">
        <ele>299.39999389648</ele>
        <time>2019-09-10T11:26:36Z</time>
      </trkpt>
      <trkpt lat="47.45463" lon="6.69045">
        <ele>299.39999389648</ele>
        <time>2019-09-10T11:26:44Z</time>
      </trkpt>
      <trkpt lat="47.45453" lon="6.69039">
        <ele>299.39999389648</ele>
        <time>2019-09-10T11:26:46Z</time>
      </trkpt>
      <trkpt lat="47.45435" lon="6.69021">
        <ele>299.39999389648</ele>
        <time>2019-09-10T11:26:50Z</time>
      </trkpt>
      <trkpt lat="47.45408" lon="6.68976">
        <ele>299</ele>
        <time>2019-09-10T11:26:58Z</time>
      </trkpt>
      <trkpt lat="47.45395" lon="6.68956">
        <ele>298.60000610352</ele>
        <time>2019-09-10T11:27:03Z</time>
      </trkpt>
      <trkpt lat="47.45397" lon="6.68955">
        <ele>298.60000610352</ele>
        <time>2019-09-10T11:27:06Z</time>
      </trkpt>
      <trkpt lat="47.45397" lon="6.68956">
        <ele>298.60000610352</ele>
        <time>2019-09-10T11:27:07Z</time>
      </trkpt>
      <trkpt lat="47.45398" lon="6.68957">
        <ele>298.60000610352</ele>
        <time>2019-09-10T11:27:10Z</time>
      </trkpt>
      <trkpt lat="47.45399" lon="6.68957">
        <ele>298.39999389648</ele>
        <time>2019-09-10T11:27:20Z</time>
      </trkpt>
      <trkpt lat="47.454" lon="6.68957">
        <ele>298.39999389648</ele>
        <time>2019-09-10T11:27:22Z</time>
      </trkpt>
      <trkpt lat="47.454" lon="6.68957">
        <ele>298.39999389648</ele>
        <time>2019-09-10T11:27:23Z</time>
      </trkpt>
      <trkpt lat="47.45402" lon="6.68957">
        <ele>298.39999389648</ele>
        <time>2019-09-10T11:27:29Z</time>
      </trkpt>
      <trkpt lat="47.45407" lon="6.68958">
        <ele>298.39999389648</ele>
        <time>2019-09-10T11:27:31Z</time>
      </trkpt>
      <trkpt lat="47.4542" lon="6.68945">
        <ele>298.60000610352</ele>
        <time>2019-09-10T11:27:35Z</time>
      </trkpt>
      <trkpt lat="47.4545" lon="6.6892">
        <ele>298.60000610352</ele>
        <time>2019-09-10T11:27:42Z</time>
      </trkpt>
      <trkpt lat="47.45473" lon="6.68903">
        <ele>298.79998779297</ele>
        <time>2019-09-10T11:27:47Z</time>
      </trkpt>
      <trkpt lat="47.45483" lon="6.68899">
        <ele>298.79998779297</ele>
        <time>2019-09-10T11:27:49Z</time>
      </trkpt>
      <trkpt lat="47.45503" lon="6.68879">
        <ele>298.79998779297</ele>
        <time>2019-09-10T11:27:54Z</time>
      </trkpt>
      <trkpt lat="47.45523" lon="6.68853">
        <ele>299.20001220703</ele>
        <time>2019-09-10T11:28:01Z</time>
      </trkpt>
      <trkpt lat="47.45525" lon="6.68851">
        <ele>299.39999389648</ele>
        <time>2019-09-10T11:28:02Z</time>
      </trkpt>
      <trkpt lat="47.45527" lon="6.68844">
        <ele>299.60000610352</ele>
        <time>2019-09-10T11:28:05Z</time>
      </trkpt>
      <trkpt lat="47.45522" lon="6.68848">
        <ele>300</ele>
        <time>2019-09-10T11:28:08Z</time>
      </trkpt>
      <trkpt lat="47.45514" lon="6.68848">
        <ele>300</ele>
        <time>2019-09-10T11:28:11Z</time>
      </trkpt>
      <trkpt lat="47.45511" lon="6.68845">
        <ele>300</ele>
        <time>2019-09-10T11:28:12Z</time>
      </trkpt>
      <trkpt lat="47.45495" lon="6.68827">
        <ele>300</ele>
        <time>2019-09-10T11:28:17Z</time>
      </trkpt>
      <trkpt lat="47.45454" lon="6.68785">
        <ele>299.79998779297</ele>
        <time>2019-09-10T11:28:27Z</time>
      </trkpt>
      <trkpt lat="47.45408" lon="6.68732">
        <ele>300</ele>
        <time>2019-09-10T11:28:38Z</time>
      </trkpt>
      <trkpt lat="47.45374" lon="6.68695">
        <ele>300</ele>
        <time>2019-09-10T11:28:46Z</time>
      </trkpt>
      <trkpt lat="47.45335" lon="6.68653">
        <ele>300</ele>
        <time>2019-09-10T11:28:55Z</time>
      </trkpt>
      <trkpt lat="47.45313" lon="6.68629">
        <ele>300</ele>
        <time>2019-09-10T11:29:00Z</time>
      </trkpt>
      <trkpt lat="47.45297" lon="6.68608">
        <ele>299.79998779297</ele>
        <time>2019-09-10T11:29:04Z</time>
      </trkpt>
      <trkpt lat="47.45262" lon="6.68561">
        <ele>299.79998779297</ele>
        <time>2019-09-10T11:29:13Z</time>
      </trkpt>
      <trkpt lat="47.45224" lon="6.68503">
        <ele>299.79998779297</ele>
        <time>2019-09-10T11:29:23Z</time>
      </trkpt>
      <trkpt lat="47.45186" lon="6.68438">
        <ele>300</ele>
        <time>2019-09-10T11:29:34Z</time>
      </trkpt>
      <trkpt lat="47.45157" lon="6.6838">
        <ele>300</ele>
        <time>2019-09-10T11:29:43Z</time>
      </trkpt>
      <trkpt lat="47.45126" lon="6.68313">
        <ele>299.79998779297</ele>
        <time>2019-09-10T11:29:53Z</time>
      </trkpt>
      <trkpt lat="47.45106" lon="6.68261">
        <ele>299.79998779297</ele>
        <time>2019-09-10T11:30:00Z</time>
      </trkpt>
      <trkpt lat="47.45083" lon="6.68193">
        <ele>299.79998779297</ele>
        <time>2019-09-10T11:30:09Z</time>
      </trkpt>
      <trkpt lat="47.4506" lon="6.68112">
        <ele>300</ele>
        <time>2019-09-10T11:30:19Z</time>
      </trkpt>
      <trkpt lat="47.45057" lon="6.68104">
        <ele>300</ele>
        <time>2019-09-10T11:30:20Z</time>
      </trkpt>
      <trkpt lat="47.45039" lon="6.68029">
        <ele>300</ele>
        <time>2019-09-10T11:30:29Z</time>
      </trkpt>
      <trkpt lat="47.45035" lon="6.68012">
        <ele>300</ele>
        <time>2019-09-10T11:30:31Z</time>
      </trkpt>
      <trkpt lat="47.45023" lon="6.67943">
        <ele>300</ele>
        <time>2019-09-10T11:30:39Z</time>
      </trkpt>
      <trkpt lat="47.45011" lon="6.67864">
        <ele>299.79998779297</ele>
        <time>2019-09-10T11:30:48Z</time>
      </trkpt>
      <trkpt lat="47.45009" lon="6.67846">
        <ele>299.79998779297</ele>
        <time>2019-09-10T11:30:50Z</time>
      </trkpt>
      <trkpt lat="47.45004" lon="6.67776">
        <ele>299.79998779297</ele>
        <time>2019-09-10T11:30:58Z</time>
      </trkpt>
      <trkpt lat="47.44998" lon="6.67704">
        <ele>299.79998779297</ele>
        <time>2019-09-10T11:31:06Z</time>
      </trkpt>
      <trkpt lat="47.44993" lon="6.67641">
        <ele>299.79998779297</ele>
        <time>2019-09-10T11:31:13Z</time>
      </trkpt>
      <trkpt lat="47.44991" lon="6.67559">
        <ele>300</ele>
        <time>2019-09-10T11:31:22Z</time>
      </trkpt>
      <trkpt lat="47.44985" lon="6.67515">
        <ele>300</ele>
        <time>2019-09-10T11:31:27Z</time>
      </trkpt>
      <trkpt lat="47.44981" lon="6.67467">
        <ele>299.79998779297</ele>
        <time>2019-09-10T11:31:32Z</time>
      </trkpt>
      <trkpt lat="47.44975" lon="6.67399">
        <ele>298.60000610352</ele>
        <time>2019-09-10T11:31:39Z</time>
      </trkpt>
      <trkpt lat="47.44973" lon="6.67381">
        <ele>298</ele>
        <time>2019-09-10T11:31:41Z</time>
      </trkpt>
      <trkpt lat="47.44971" lon="6.67352">
        <ele>297.60000610352</ele>
        <time>2019-09-10T11:31:45Z</time>
      </trkpt>
      <trkpt lat="47.44971" lon="6.6735">
        <ele>297.39999389648</ele>
        <time>2019-09-10T11:31:48Z</time>
      </trkpt>
      <trkpt lat="47.44971" lon="6.67347">
        <ele>297.60000610352</ele>
        <time>2019-09-10T11:32:58Z</time>
      </trkpt>
      <trkpt lat="47.44971" lon="6.6734">
        <ele>297.60000610352</ele>
        <time>2019-09-10T11:33:00Z</time>
      </trkpt>
      <trkpt lat="47.44969" lon="6.67313">
        <ele>297.60000610352</ele>
        <time>2019-09-10T11:33:05Z</time>
      </trkpt>
      <trkpt lat="47.44965" lon="6.67264">
        <ele>297.79998779297</ele>
        <time>2019-09-10T11:33:12Z</time>
      </trkpt>
      <trkpt lat="47.44959" lon="6.67188">
        <ele>297.60000610352</ele>
        <time>2019-09-10T11:33:22Z</time>
      </trkpt>
      <trkpt lat="47.44954" lon="6.67124">
        <ele>297.39999389648</ele>
        <time>2019-09-10T11:33:30Z</time>
      </trkpt>
      <trkpt lat="47.44949" lon="6.67059">
        <ele>297.39999389648</ele>
        <time>2019-09-10T11:33:38Z</time>
      </trkpt>
      <trkpt lat="47.44943" lon="6.66986">
        <ele>297.60000610352</ele>
        <time>2019-09-10T11:33:47Z</time>
      </trkpt>
      <trkpt lat="47.44937" lon="6.66903">
        <ele>297.79998779297</ele>
        <time>2019-09-10T11:33:57Z</time>
      </trkpt>
      <trkpt lat="47.44936" lon="6.66895">
        <ele>297.79998779297</ele>
        <time>2019-09-10T11:33:58Z</time>
      </trkpt>
      <trkpt lat="47.44929" lon="6.66813">
        <ele>297.60000610352</ele>
        <time>2019-09-10T11:34:08Z</time>
      </trkpt>
      <trkpt lat="47.44927" lon="6.66787">
        <ele>297.60000610352</ele>
        <time>2019-09-10T11:34:11Z</time>
      </trkpt>
      <trkpt lat="47.44921" lon="6.66702">
        <ele>297.60000610352</ele>
        <time>2019-09-10T11:34:21Z</time>
      </trkpt>
      <trkpt lat="47.4492" lon="6.66693">
        <ele>297.60000610352</ele>
        <time>2019-09-10T11:34:22Z</time>
      </trkpt>
      <trkpt lat="47.44914" lon="6.66613">
        <ele>297.39999389648</ele>
        <time>2019-09-10T11:34:31Z</time>
      </trkpt>
      <trkpt lat="47.44913" lon="6.66595">
        <ele>297.39999389648</ele>
        <time>2019-09-10T11:34:33Z</time>
      </trkpt>
      <trkpt lat="47.44908" lon="6.66525">
        <ele>297.39999389648</ele>
        <time>2019-09-10T11:34:41Z</time>
      </trkpt>
      <trkpt lat="47.44902" lon="6.66445">
        <ele>297.79998779297</ele>
        <time>2019-09-10T11:34:50Z</time>
      </trkpt>
      <trkpt lat="47.449" lon="6.66417">
        <ele>297.60000610352</ele>
        <time>2019-09-10T11:34:53Z</time>
      </trkpt>
      <trkpt lat="47.44894" lon="6.66335">
        <ele>297.60000610352</ele>
        <time>2019-09-10T11:35:02Z</time>
      </trkpt>
      <trkpt lat="47.44893" lon="6.66317">
        <ele>297.60000610352</ele>
        <time>2019-09-10T11:35:04Z</time>
      </trkpt>
      <trkpt lat="47.44887" lon="6.66246">
        <ele>297.60000610352</ele>
        <time>2019-09-10T11:35:12Z</time>
      </trkpt>
      <trkpt lat="47.44881" lon="6.66165">
        <ele>297.60000610352</ele>
        <time>2019-09-10T11:35:21Z</time>
      </trkpt>
      <trkpt lat="47.4488" lon="6.66147">
        <ele>297.60000610352</ele>
        <time>2019-09-10T11:35:23Z</time>
      </trkpt>
      <trkpt lat="47.44875" lon="6.66084">
        <ele>297.39999389648</ele>
        <time>2019-09-10T11:35:30Z</time>
      </trkpt>
      <trkpt lat="47.4487" lon="6.66022">
        <ele>297.20001220703</ele>
        <time>2019-09-10T11:35:37Z</time>
      </trkpt>
      <trkpt lat="47.44865" lon="6.65951">
        <ele>297.20001220703</ele>
        <time>2019-09-10T11:35:45Z</time>
      </trkpt>
      <trkpt lat="47.4486" lon="6.65879">
        <ele>297.20001220703</ele>
        <time>2019-09-10T11:35:53Z</time>
      </trkpt>
      <trkpt lat="47.44853" lon="6.65797">
        <ele>297.39999389648</ele>
        <time>2019-09-10T11:36:02Z</time>
      </trkpt>
      <trkpt lat="47.44853" lon="6.65788">
        <ele>297.39999389648</ele>
        <time>2019-09-10T11:36:03Z</time>
      </trkpt>
      <trkpt lat="47.44846" lon="6.65705">
        <ele>297.60000610352</ele>
        <time>2019-09-10T11:36:12Z</time>
      </trkpt>
      <trkpt lat="47.4484" lon="6.65622">
        <ele>297.60000610352</ele>
        <time>2019-09-10T11:36:21Z</time>
      </trkpt>
      <trkpt lat="47.44839" lon="6.65613">
        <ele>297.60000610352</ele>
        <time>2019-09-10T11:36:22Z</time>
      </trkpt>
      <trkpt lat="47.44838" lon="6.65595">
        <ele>297.60000610352</ele>
        <time>2019-09-10T11:36:24Z</time>
      </trkpt>
      <trkpt lat="47.44832" lon="6.65521">
        <ele>297.60000610352</ele>
        <time>2019-09-10T11:36:32Z</time>
      </trkpt>
      <trkpt lat="47.44825" lon="6.65437">
        <ele>297.60000610352</ele>
        <time>2019-09-10T11:36:41Z</time>
      </trkpt>
      <trkpt lat="47.44824" lon="6.65418">
        <ele>297.60000610352</ele>
        <time>2019-09-10T11:36:43Z</time>
      </trkpt>
      <trkpt lat="47.44819" lon="6.65354">
        <ele>297.60000610352</ele>
        <time>2019-09-10T11:36:50Z</time>
      </trkpt>
      <trkpt lat="47.44814" lon="6.65284">
        <ele>297.79998779297</ele>
        <time>2019-09-10T11:36:58Z</time>
      </trkpt>
      <trkpt lat="47.44807" lon="6.65205">
        <ele>298</ele>
        <time>2019-09-10T11:37:07Z</time>
      </trkpt>
      <trkpt lat="47.44805" lon="6.65187">
        <ele>298</ele>
        <time>2019-09-10T11:37:09Z</time>
      </trkpt>
      <trkpt lat="47.44801" lon="6.65118">
        <ele>298.20001220703</ele>
        <time>2019-09-10T11:37:17Z</time>
      </trkpt>
      <trkpt lat="47.44795" lon="6.65041">
        <ele>298</ele>
        <time>2019-09-10T11:37:26Z</time>
      </trkpt>
      <trkpt lat="47.44794" lon="6.65008">
        <ele>297.79998779297</ele>
        <time>2019-09-10T11:37:30Z</time>
      </trkpt>
      <trkpt lat="47.44791" lon="6.64985">
        <ele>297.79998779297</ele>
        <time>2019-09-10T11:37:33Z</time>
      </trkpt>
      <trkpt lat="47.44788" lon="6.64963">
        <ele>297.60000610352</ele>
        <time>2019-09-10T11:37:37Z</time>
      </trkpt>
      <trkpt lat="47.44787" lon="6.64958">
        <ele>297.60000610352</ele>
        <time>2019-09-10T11:37:39Z</time>
      </trkpt>
      <trkpt lat="47.44787" lon="6.64958">
        <ele>297.39999389648</ele>
        <time>2019-09-10T11:37:41Z</time>
      </trkpt>
      <trkpt lat="47.44788" lon="6.64957">
        <ele>297.39999389648</ele>
        <time>2019-09-10T11:37:47Z</time>
      </trkpt>
      <trkpt lat="47.4479" lon="6.64956">
        <ele>297.39999389648</ele>
        <time>2019-09-10T11:37:52Z</time>
      </trkpt>
      <trkpt lat="47.4479" lon="6.64956">
        <ele>297.39999389648</ele>
        <time>2019-09-10T11:37:53Z</time>
      </trkpt>
      <trkpt lat="47.44792" lon="6.64956">
        <ele>297.79998779297</ele>
        <time>2019-09-10T11:38:33Z</time>
      </trkpt>
      <trkpt lat="47.44793" lon="6.64956">
        <ele>297.79998779297</ele>
        <time>2019-09-10T11:38:34Z</time>
      </trkpt>
      <trkpt lat="47.44796" lon="6.64957">
        <ele>297.79998779297</ele>
        <time>2019-09-10T11:38:36Z</time>
      </trkpt>
      <trkpt lat="47.4481" lon="6.64956">
        <ele>297.79998779297</ele>
        <time>2019-09-10T11:38:44Z</time>
      </trkpt>
      <trkpt lat="47.44813" lon="6.64951">
        <ele>297.79998779297</ele>
        <time>2019-09-10T11:38:49Z</time>
      </trkpt>
      <trkpt lat="47.44813" lon="6.64951">
        <ele>297.20001220703</ele>
        <time>2019-09-10T11:47:51Z</time>
      </trkpt>
      <trkpt lat="47.44812" lon="6.64951">
        <ele>297.20001220703</ele>
        <time>2019-09-10T11:47:54Z</time>
      </trkpt>
      <trkpt lat="47.44811" lon="6.64952">
        <ele>297.39999389648</ele>
        <time>2019-09-10T11:47:59Z</time>
      </trkpt>
      <trkpt lat="47.4481" lon="6.64955">
        <ele>297.39999389648</ele>
        <time>2019-09-10T11:48:01Z</time>
      </trkpt>
      <trkpt lat="47.44801" lon="6.64959">
        <ele>297.39999389648</ele>
        <time>2019-09-10T11:48:06Z</time>
      </trkpt>
      <trkpt lat="47.44788" lon="6.6496">
        <ele>297.60000610352</ele>
        <time>2019-09-10T11:48:12Z</time>
      </trkpt>
      <trkpt lat="47.44784" lon="6.64948">
        <ele>297.60000610352</ele>
        <time>2019-09-10T11:48:15Z</time>
      </trkpt>
      <trkpt lat="47.44784" lon="6.64942">
        <ele>297.60000610352</ele>
        <time>2019-09-10T11:48:16Z</time>
      </trkpt>
      <trkpt lat="47.44784" lon="6.64928">
        <ele>297.60000610352</ele>
        <time>2019-09-10T11:48:18Z</time>
      </trkpt>
      <trkpt lat="47.44783" lon="6.64912">
        <ele>297.39999389648</ele>
        <time>2019-09-10T11:48:20Z</time>
      </trkpt>
      <trkpt lat="47.4478" lon="6.64864">
        <ele>296.39999389648</ele>
        <time>2019-09-10T11:48:26Z</time>
      </trkpt>
      <trkpt lat="47.44779" lon="6.64856">
        <ele>296.20001220703</ele>
        <time>2019-09-10T11:48:27Z</time>
      </trkpt>
      <trkpt lat="47.44777" lon="6.64824">
        <ele>295.20001220703</ele>
        <time>2019-09-10T11:48:31Z</time>
      </trkpt>
      <trkpt lat="47.44775" lon="6.64808">
        <ele>295</ele>
        <time>2019-09-10T11:48:33Z</time>
      </trkpt>
      <trkpt lat="47.44769" lon="6.64729">
        <ele>294.79998779297</ele>
        <time>2019-09-10T11:48:43Z</time>
      </trkpt>
      <trkpt lat="47.44764" lon="6.64666">
        <ele>294.79998779297</ele>
        <time>2019-09-10T11:48:51Z</time>
      </trkpt>
      <trkpt lat="47.44758" lon="6.64583">
        <ele>294.60000610352</ele>
        <time>2019-09-10T11:49:01Z</time>
      </trkpt>
      <trkpt lat="47.44757" lon="6.64574">
        <ele>294.60000610352</ele>
        <time>2019-09-10T11:49:02Z</time>
      </trkpt>
      <trkpt lat="47.44751" lon="6.64489">
        <ele>294.60000610352</ele>
        <time>2019-09-10T11:49:12Z</time>
      </trkpt>
      <trkpt lat="47.44744" lon="6.64404">
        <ele>294.39999389648</ele>
        <time>2019-09-10T11:49:22Z</time>
      </trkpt>
      <trkpt lat="47.44743" lon="6.64396">
        <ele>294.39999389648</ele>
        <time>2019-09-10T11:49:23Z</time>
      </trkpt>
      <trkpt lat="47.44739" lon="6.64337">
        <ele>294.39999389648</ele>
        <time>2019-09-10T11:49:30Z</time>
      </trkpt>
      <trkpt lat="47.44733" lon="6.64271">
        <ele>294.39999389648</ele>
        <time>2019-09-10T11:49:38Z</time>
      </trkpt>
      <trkpt lat="47.44727" lon="6.64188">
        <ele>294.60000610352</ele>
        <time>2019-09-10T11:49:48Z</time>
      </trkpt>
      <trkpt lat="47.44726" lon="6.64171">
        <ele>294.60000610352</ele>
        <time>2019-09-10T11:49:50Z</time>
      </trkpt>
      <trkpt lat="47.44721" lon="6.64113">
        <ele>294.39999389648</ele>
        <time>2019-09-10T11:49:57Z</time>
      </trkpt>
      <trkpt lat="47.44716" lon="6.64045">
        <ele>294.20001220703</ele>
        <time>2019-09-10T11:50:05Z</time>
      </trkpt>
      <trkpt lat="47.44709" lon="6.6396">
        <ele>294.20001220703</ele>
        <time>2019-09-10T11:50:15Z</time>
      </trkpt>
      <trkpt lat="47.44708" lon="6.63944">
        <ele>294.20001220703</ele>
        <time>2019-09-10T11:50:17Z</time>
      </trkpt>
      <trkpt lat="47.44701" lon="6.6386">
        <ele>294.20001220703</ele>
        <time>2019-09-10T11:50:27Z</time>
      </trkpt>
      <trkpt lat="47.447" lon="6.63843">
        <ele>294.20001220703</ele>
        <time>2019-09-10T11:50:29Z</time>
      </trkpt>
      <trkpt lat="47.44695" lon="6.63784">
        <ele>294.20001220703</ele>
        <time>2019-09-10T11:50:36Z</time>
      </trkpt>
      <trkpt lat="47.44689" lon="6.637">
        <ele>294.39999389648</ele>
        <time>2019-09-10T11:50:46Z</time>
      </trkpt>
      <trkpt lat="47.44683" lon="6.63616">
        <ele>294.39999389648</ele>
        <time>2019-09-10T11:50:56Z</time>
      </trkpt>
      <trkpt lat="47.44682" lon="6.63608">
        <ele>294.39999389648</ele>
        <time>2019-09-10T11:50:57Z</time>
      </trkpt>
      <trkpt lat="47.44676" lon="6.63524">
        <ele>294.39999389648</ele>
        <time>2019-09-10T11:51:07Z</time>
      </trkpt>
      <trkpt lat="47.44675" lon="6.63507">
        <ele>294.39999389648</ele>
        <time>2019-09-10T11:51:09Z</time>
      </trkpt>
      <trkpt lat="47.44669" lon="6.63432">
        <ele>294.39999389648</ele>
        <time>2019-09-10T11:51:18Z</time>
      </trkpt>
      <trkpt lat="47.44666" lon="6.63397">
        <ele>294.39999389648</ele>
        <time>2019-09-10T11:51:22Z</time>
      </trkpt>
      <trkpt lat="47.44665" lon="6.6338">
        <ele>294.39999389648</ele>
        <time>2019-09-10T11:51:24Z</time>
      </trkpt>
      <trkpt lat="47.44664" lon="6.63372">
        <ele>294.39999389648</ele>
        <time>2019-09-10T11:51:25Z</time>
      </trkpt>
      <trkpt lat="47.4466" lon="6.63304">
        <ele>294.60000610352</ele>
        <time>2019-09-10T11:51:33Z</time>
      </trkpt>
      <trkpt lat="47.44654" lon="6.63218">
        <ele>294.60000610352</ele>
        <time>2019-09-10T11:51:43Z</time>
      </trkpt>
      <trkpt lat="47.44648" lon="6.63156">
        <ele>294.60000610352</ele>
        <time>2019-09-10T11:51:50Z</time>
      </trkpt>
      <trkpt lat="47.44638" lon="6.63124">
        <ele>294.60000610352</ele>
        <time>2019-09-10T11:51:54Z</time>
      </trkpt>
      <trkpt lat="47.44631" lon="6.6311">
        <ele>294.60000610352</ele>
        <time>2019-09-10T11:51:56Z</time>
      </trkpt>
      <trkpt lat="47.44613" lon="6.63086">
        <ele>294.60000610352</ele>
        <time>2019-09-10T11:52:00Z</time>
      </trkpt>
      <trkpt lat="47.44588" lon="6.63061">
        <ele>294.60000610352</ele>
        <time>2019-09-10T11:52:05Z</time>
      </trkpt>
      <trkpt lat="47.44583" lon="6.63058">
        <ele>294.60000610352</ele>
        <time>2019-09-10T11:52:06Z</time>
      </trkpt>
      <trkpt lat="47.44566" lon="6.63055">
        <ele>294.60000610352</ele>
        <time>2019-09-10T11:52:09Z</time>
      </trkpt>
      <trkpt lat="47.4456" lon="6.63054">
        <ele>294.60000610352</ele>
        <time>2019-09-10T11:52:10Z</time>
      </trkpt>
      <trkpt lat="47.44533" lon="6.63044">
        <ele>294.60000610352</ele>
        <time>2019-09-10T11:52:15Z</time>
      </trkpt>
      <trkpt lat="47.44495" lon="6.63026">
        <ele>294.79998779297</ele>
        <time>2019-09-10T11:52:22Z</time>
      </trkpt>
      <trkpt lat="47.44478" lon="6.63018">
        <ele>294.79998779297</ele>
        <time>2019-09-10T11:52:25Z</time>
      </trkpt>
      <trkpt lat="47.44457" lon="6.63005">
        <ele>294.79998779297</ele>
        <time>2019-09-10T11:52:29Z</time>
      </trkpt>
      <trkpt lat="47.44424" lon="6.62988">
        <ele>295</ele>
        <time>2019-09-10T11:52:35Z</time>
      </trkpt>
      <trkpt lat="47.4439" lon="6.62972">
        <ele>295</ele>
        <time>2019-09-10T11:52:41Z</time>
      </trkpt>
      <trkpt lat="47.44364" lon="6.62958">
        <ele>295</ele>
        <time>2019-09-10T11:52:46Z</time>
      </trkpt>
      <trkpt lat="47.44321" lon="6.62937">
        <ele>295</ele>
        <time>2019-09-10T11:52:54Z</time>
      </trkpt>
      <trkpt lat="47.44301" lon="6.62927">
        <ele>295</ele>
        <time>2019-09-10T11:52:58Z</time>
      </trkpt>
      <trkpt lat="47.44269" lon="6.62917">
        <ele>295</ele>
        <time>2019-09-10T11:53:04Z</time>
      </trkpt>
      <trkpt lat="47.44223" lon="6.62901">
        <ele>294.79998779297</ele>
        <time>2019-09-10T11:53:12Z</time>
      </trkpt>
      <trkpt lat="47.44189" lon="6.62893">
        <ele>294.79998779297</ele>
        <time>2019-09-10T11:53:18Z</time>
      </trkpt>
      <trkpt lat="47.44171" lon="6.62895">
        <ele>294.79998779297</ele>
        <time>2019-09-10T11:53:21Z</time>
      </trkpt>
      <trkpt lat="47.4416" lon="6.62893">
        <ele>294.79998779297</ele>
        <time>2019-09-10T11:53:23Z</time>
      </trkpt>
      <trkpt lat="47.44155" lon="6.62892">
        <ele>294.79998779297</ele>
        <time>2019-09-10T11:53:24Z</time>
      </trkpt>
      <trkpt lat="47.44122" lon="6.62881">
        <ele>294.79998779297</ele>
        <time>2019-09-10T11:53:30Z</time>
      </trkpt>
      <trkpt lat="47.44085" lon="6.62865">
        <ele>294.79998779297</ele>
        <time>2019-09-10T11:53:37Z</time>
      </trkpt>
      <trkpt lat="47.4407" lon="6.62853">
        <ele>294.79998779297</ele>
        <time>2019-09-10T11:53:40Z</time>
      </trkpt>
      <trkpt lat="47.44059" lon="6.62847">
        <ele>295</ele>
        <time>2019-09-10T11:53:42Z</time>
      </trkpt>
      <trkpt lat="47.44048" lon="6.62844">
        <ele>295</ele>
        <time>2019-09-10T11:53:44Z</time>
      </trkpt>
      <trkpt lat="47.44026" lon="6.62836">
        <ele>295</ele>
        <time>2019-09-10T11:53:48Z</time>
      </trkpt>
      <trkpt lat="47.43986" lon="6.62823">
        <ele>295</ele>
        <time>2019-09-10T11:53:55Z</time>
      </trkpt>
      <trkpt lat="47.43949" lon="6.62814">
        <ele>295</ele>
        <time>2019-09-10T11:54:02Z</time>
      </trkpt>
      <trkpt lat="47.43939" lon="6.62813">
        <ele>295</ele>
        <time>2019-09-10T11:54:04Z</time>
      </trkpt>
      <trkpt lat="47.43919" lon="6.62817">
        <ele>295</ele>
        <time>2019-09-10T11:54:08Z</time>
      </trkpt>
      <trkpt lat="47.43889" lon="6.62834">
        <ele>295</ele>
        <time>2019-09-10T11:54:14Z</time>
      </trkpt>
      <trkpt lat="47.43855" lon="6.62852">
        <ele>295</ele>
        <time>2019-09-10T11:54:21Z</time>
      </trkpt>
      <trkpt lat="47.4385" lon="6.62855">
        <ele>295</ele>
        <time>2019-09-10T11:54:22Z</time>
      </trkpt>
      <trkpt lat="47.4384" lon="6.6286">
        <ele>295</ele>
        <time>2019-09-10T11:54:24Z</time>
      </trkpt>
      <trkpt lat="47.43829" lon="6.62872">
        <ele>295</ele>
        <time>2019-09-10T11:54:27Z</time>
      </trkpt>
      <trkpt lat="47.43824" lon="6.62879">
        <ele>295.20001220703</ele>
        <time>2019-09-10T11:54:29Z</time>
      </trkpt>
      <trkpt lat="47.43815" lon="6.62884">
        <ele>295.20001220703</ele>
        <time>2019-09-10T11:54:32Z</time>
      </trkpt>
      <trkpt lat="47.43812" lon="6.62886">
        <ele>295.60000610352</ele>
        <time>2019-09-10T11:54:35Z</time>
      </trkpt>
      <trkpt lat="47.43812" lon="6.62885">
        <ele>296</ele>
        <time>2019-09-10T11:54:37Z</time>
      </trkpt>
      <trkpt lat="47.43811" lon="6.62887">
        <ele>296.79998779297</ele>
        <time>2019-09-10T11:55:55Z</time>
      </trkpt>
      <trkpt lat="47.43809" lon="6.62891">
        <ele>296.79998779297</ele>
        <time>2019-09-10T11:55:57Z</time>
      </trkpt>
      <trkpt lat="47.43802" lon="6.62895">
        <ele>296.79998779297</ele>
        <time>2019-09-10T11:55:59Z</time>
      </trkpt>
      <trkpt lat="47.43792" lon="6.629">
        <ele>296.79998779297</ele>
        <time>2019-09-10T11:56:01Z</time>
      </trkpt>
      <trkpt lat="47.43757" lon="6.62922">
        <ele>295.79998779297</ele>
        <time>2019-09-10T11:56:08Z</time>
      </trkpt>
      <trkpt lat="47.43752" lon="6.62925">
        <ele>295.39999389648</ele>
        <time>2019-09-10T11:56:09Z</time>
      </trkpt>
      <trkpt lat="47.43711" lon="6.62952">
        <ele>294.39999389648</ele>
        <time>2019-09-10T11:56:17Z</time>
      </trkpt>
      <trkpt lat="47.4366" lon="6.62985">
        <ele>294.60000610352</ele>
        <time>2019-09-10T11:56:27Z</time>
      </trkpt>
      <trkpt lat="47.43655" lon="6.62988">
        <ele>294.60000610352</ele>
        <time>2019-09-10T11:56:28Z</time>
      </trkpt>
      <trkpt lat="47.43615" lon="6.63015">
        <ele>294.60000610352</ele>
        <time>2019-09-10T11:56:36Z</time>
      </trkpt>
      <trkpt lat="47.43575" lon="6.6304">
        <ele>294.60000610352</ele>
        <time>2019-09-10T11:56:44Z</time>
      </trkpt>
      <trkpt lat="47.43535" lon="6.63066">
        <ele>294.60000610352</ele>
        <time>2019-09-10T11:56:52Z</time>
      </trkpt>
      <trkpt lat="47.43489" lon="6.63093">
        <ele>294.60000610352</ele>
        <time>2019-09-10T11:57:01Z</time>
      </trkpt>
      <trkpt lat="47.43452" lon="6.63113">
        <ele>294.39999389648</ele>
        <time>2019-09-10T11:57:08Z</time>
      </trkpt>
      <trkpt lat="47.43436" lon="6.6312">
        <ele>294.39999389648</ele>
        <time>2019-09-10T11:57:11Z</time>
      </trkpt>
      <trkpt lat="47.43389" lon="6.6314">
        <ele>294.39999389648</ele>
        <time>2019-09-10T11:57:20Z</time>
      </trkpt>
      <trkpt lat="47.43357" lon="6.6315">
        <ele>294.20001220703</ele>
        <time>2019-09-10T11:57:26Z</time>
      </trkpt>
      <trkpt lat="47.4332" lon="6.63161">
        <ele>294.20001220703</ele>
        <time>2019-09-10T11:57:33Z</time>
      </trkpt>
      <trkpt lat="47.43275" lon="6.63169">
        <ele>294.39999389648</ele>
        <time>2019-09-10T11:57:41Z</time>
      </trkpt>
      <trkpt lat="47.43259" lon="6.63171">
        <ele>294.39999389648</ele>
        <time>2019-09-10T11:57:44Z</time>
      </trkpt>
      <trkpt lat="47.43231" lon="6.63172">
        <ele>294.60000610352</ele>
        <time>2019-09-10T11:57:49Z</time>
      </trkpt>
      <trkpt lat="47.43187" lon="6.63173">
        <ele>294.60000610352</ele>
        <time>2019-09-10T11:57:57Z</time>
      </trkpt>
      <trkpt lat="47.43142" lon="6.63165">
        <ele>294.39999389648</ele>
        <time>2019-09-10T11:58:05Z</time>
      </trkpt>
      <trkpt lat="47.43093" lon="6.6315">
        <ele>294.39999389648</ele>
        <time>2019-09-10T11:58:14Z</time>
      </trkpt>
      <trkpt lat="47.43046" lon="6.63133">
        <ele>294.39999389648</ele>
        <time>2019-09-10T11:58:23Z</time>
      </trkpt>
      <trkpt lat="47.43011" lon="6.63117">
        <ele>294.60000610352</ele>
        <time>2019-09-10T11:58:30Z</time>
      </trkpt>
      <trkpt lat="47.42996" lon="6.63107">
        <ele>294.60000610352</ele>
        <time>2019-09-10T11:58:33Z</time>
      </trkpt>
      <trkpt lat="47.42981" lon="6.63095">
        <ele>294.60000610352</ele>
        <time>2019-09-10T11:58:36Z</time>
      </trkpt>
      <trkpt lat="47.42941" lon="6.63065">
        <ele>294.20001220703</ele>
        <time>2019-09-10T11:58:44Z</time>
      </trkpt>
      <trkpt lat="47.42892" lon="6.63023">
        <ele>294.20001220703</ele>
        <time>2019-09-10T11:58:54Z</time>
      </trkpt>
      <trkpt lat="47.42888" lon="6.63019">
        <ele>294.20001220703</ele>
        <time>2019-09-10T11:58:55Z</time>
      </trkpt>
      <trkpt lat="47.42851" lon="6.6298">
        <ele>294</ele>
        <time>2019-09-10T11:59:03Z</time>
      </trkpt>
      <trkpt lat="47.42812" lon="6.62932">
        <ele>294</ele>
        <time>2019-09-10T11:59:12Z</time>
      </trkpt>
      <trkpt lat="47.42781" lon="6.62884">
        <ele>294</ele>
        <time>2019-09-10T11:59:20Z</time>
      </trkpt>
      <trkpt lat="47.42752" lon="6.62825">
        <ele>294</ele>
        <time>2019-09-10T11:59:29Z</time>
      </trkpt>
      <trkpt lat="47.42723" lon="6.62753">
        <ele>294.20001220703</ele>
        <time>2019-09-10T11:59:39Z</time>
      </trkpt>
      <trkpt lat="47.42699" lon="6.62678">
        <ele>294.39999389648</ele>
        <time>2019-09-10T11:59:49Z</time>
      </trkpt>
      <trkpt lat="47.42679" lon="6.626">
        <ele>294.39999389648</ele>
        <time>2019-09-10T11:59:59Z</time>
      </trkpt>
      <trkpt lat="47.42663" lon="6.62521">
        <ele>294</ele>
        <time>2019-09-10T12:00:09Z</time>
      </trkpt>
      <trkpt lat="47.42659" lon="6.62497">
        <ele>294</ele>
        <time>2019-09-10T12:00:12Z</time>
      </trkpt>
      <trkpt lat="47.42649" lon="6.62431">
        <ele>294</ele>
        <time>2019-09-10T12:00:20Z</time>
      </trkpt>
      <trkpt lat="47.4264" lon="6.62366">
        <ele>294</ele>
        <time>2019-09-10T12:00:28Z</time>
      </trkpt>
      <trkpt lat="47.42632" lon="6.62285">
        <ele>294</ele>
        <time>2019-09-10T12:00:38Z</time>
      </trkpt>
      <trkpt lat="47.42626" lon="6.6221">
        <ele>294.20001220703</ele>
        <time>2019-09-10T12:00:47Z</time>
      </trkpt>
      <trkpt lat="47.42622" lon="6.62127">
        <ele>294.20001220703</ele>
        <time>2019-09-10T12:00:57Z</time>
      </trkpt>
      <trkpt lat="47.42621" lon="6.62043">
        <ele>294</ele>
        <time>2019-09-10T12:01:07Z</time>
      </trkpt>
      <trkpt lat="47.42626" lon="6.61961">
        <ele>294</ele>
        <time>2019-09-10T12:01:17Z</time>
      </trkpt>
      <trkpt lat="47.42633" lon="6.61895">
        <ele>294</ele>
        <time>2019-09-10T12:01:25Z</time>
      </trkpt>
      <trkpt lat="47.42643" lon="6.61829">
        <ele>294</ele>
        <time>2019-09-10T12:01:33Z</time>
      </trkpt>
      <trkpt lat="47.42659" lon="6.61746">
        <ele>294.20001220703</ele>
        <time>2019-09-10T12:01:43Z</time>
      </trkpt>
      <trkpt lat="47.42661" lon="6.61739">
        <ele>294.20001220703</ele>
        <time>2019-09-10T12:01:44Z</time>
      </trkpt>
      <trkpt lat="47.42674" lon="6.61683">
        <ele>294.20001220703</ele>
        <time>2019-09-10T12:01:51Z</time>
      </trkpt>
      <trkpt lat="47.42691" lon="6.61611">
        <ele>294</ele>
        <time>2019-09-10T12:02:00Z</time>
      </trkpt>
      <trkpt lat="47.42712" lon="6.61533">
        <ele>294</ele>
        <time>2019-09-10T12:02:10Z</time>
      </trkpt>
      <trkpt lat="47.42732" lon="6.61465">
        <ele>294</ele>
        <time>2019-09-10T12:02:19Z</time>
      </trkpt>
      <trkpt lat="47.42753" lon="6.614">
        <ele>294.20001220703</ele>
        <time>2019-09-10T12:02:28Z</time>
      </trkpt>
      <trkpt lat="47.42772" lon="6.61347">
        <ele>294.20001220703</ele>
        <time>2019-09-10T12:02:36Z</time>
      </trkpt>
      <trkpt lat="47.42782" lon="6.61321">
        <ele>294.20001220703</ele>
        <time>2019-09-10T12:02:40Z</time>
      </trkpt>
      <trkpt lat="47.42784" lon="6.61309">
        <ele>294.20001220703</ele>
        <time>2019-09-10T12:02:42Z</time>
      </trkpt>
      <trkpt lat="47.42786" lon="6.61301">
        <ele>294.20001220703</ele>
        <time>2019-09-10T12:02:45Z</time>
      </trkpt>
      <trkpt lat="47.42787" lon="6.61301">
        <ele>294.20001220703</ele>
        <time>2019-09-10T12:02:46Z</time>
      </trkpt>
      <trkpt lat="47.42788" lon="6.61298">
        <ele>294.39999389648</ele>
        <time>2019-09-10T12:03:08Z</time>
      </trkpt>
      <trkpt lat="47.42789" lon="6.61294">
        <ele>294.39999389648</ele>
        <time>2019-09-10T12:03:11Z</time>
      </trkpt>
      <trkpt lat="47.4279" lon="6.61291">
        <ele>294.39999389648</ele>
        <time>2019-09-10T12:03:13Z</time>
      </trkpt>
      <trkpt lat="47.42795" lon="6.61291">
        <ele>294.79998779297</ele>
        <time>2019-09-10T12:03:16Z</time>
      </trkpt>
      <trkpt lat="47.428" lon="6.61296">
        <ele>295</ele>
        <time>2019-09-10T12:03:19Z</time>
      </trkpt>
      <trkpt lat="47.42806" lon="6.61301">
        <ele>295.20001220703</ele>
        <time>2019-09-10T12:03:22Z</time>
      </trkpt>
      <trkpt lat="47.42812" lon="6.61301">
        <ele>295.20001220703</ele>
        <time>2019-09-10T12:03:24Z</time>
      </trkpt>
      <trkpt lat="47.42816" lon="6.61298">
        <ele>295.20001220703</ele>
        <time>2019-09-10T12:03:25Z</time>
      </trkpt>
      <trkpt lat="47.42821" lon="6.61278">
        <ele>295.20001220703</ele>
        <time>2019-09-10T12:03:28Z</time>
      </trkpt>
      <trkpt lat="47.42835" lon="6.6123">
        <ele>295</ele>
        <time>2019-09-10T12:03:34Z</time>
      </trkpt>
      <trkpt lat="47.42846" lon="6.61202">
        <ele>293.79998779297</ele>
        <time>2019-09-10T12:03:38Z</time>
      </trkpt>
      <trkpt lat="47.42856" lon="6.61173">
        <ele>293</ele>
        <time>2019-09-10T12:03:42Z</time>
      </trkpt>
      <trkpt lat="47.4287" lon="6.6114">
        <ele>293</ele>
        <time>2019-09-10T12:03:47Z</time>
      </trkpt>
      <trkpt lat="47.42894" lon="6.61082">
        <ele>293</ele>
        <time>2019-09-10T12:03:55Z</time>
      </trkpt>
      <trkpt lat="47.42921" lon="6.61017">
        <ele>293</ele>
        <time>2019-09-10T12:04:04Z</time>
      </trkpt>
      <trkpt lat="47.42952" lon="6.60946">
        <ele>293</ele>
        <time>2019-09-10T12:04:14Z</time>
      </trkpt>
      <trkpt lat="47.42983" lon="6.60874">
        <ele>293</ele>
        <time>2019-09-10T12:04:24Z</time>
      </trkpt>
      <trkpt lat="47.43007" lon="6.60817">
        <ele>293</ele>
        <time>2019-09-10T12:04:32Z</time>
      </trkpt>
      <trkpt lat="47.43033" lon="6.60761">
        <ele>293</ele>
        <time>2019-09-10T12:04:40Z</time>
      </trkpt>
      <trkpt lat="47.43061" lon="6.60697">
        <ele>292.79998779297</ele>
        <time>2019-09-10T12:04:49Z</time>
      </trkpt>
      <trkpt lat="47.43076" lon="6.60662">
        <ele>292.79998779297</ele>
        <time>2019-09-10T12:04:54Z</time>
      </trkpt>
      <trkpt lat="47.43086" lon="6.60641">
        <ele>292.60000610352</ele>
        <time>2019-09-10T12:04:57Z</time>
      </trkpt>
      <trkpt lat="47.43111" lon="6.60583">
        <ele>292.60000610352</ele>
        <time>2019-09-10T12:05:05Z</time>
      </trkpt>
      <trkpt lat="47.43143" lon="6.60511">
        <ele>292.20001220703</ele>
        <time>2019-09-10T12:05:15Z</time>
      </trkpt>
      <trkpt lat="47.43146" lon="6.60504">
        <ele>292.20001220703</ele>
        <time>2019-09-10T12:05:16Z</time>
      </trkpt>
      <trkpt lat="47.43173" lon="6.60445">
        <ele>292</ele>
        <time>2019-09-10T12:05:24Z</time>
      </trkpt>
      <trkpt lat="47.43204" lon="6.60371">
        <ele>292</ele>
        <time>2019-09-10T12:05:34Z</time>
      </trkpt>
      <trkpt lat="47.43228" lon="6.60321">
        <ele>291.79998779297</ele>
        <time>2019-09-10T12:05:41Z</time>
      </trkpt>
      <trkpt lat="47.43248" lon="6.60276">
        <ele>291.79998779297</ele>
        <time>2019-09-10T12:05:47Z</time>
      </trkpt>
      <trkpt lat="47.43257" lon="6.60254">
        <ele>291.60000610352</ele>
        <time>2019-09-10T12:05:50Z</time>
      </trkpt>
      <trkpt lat="47.43282" lon="6.60197">
        <ele>291.39999389648</ele>
        <time>2019-09-10T12:05:58Z</time>
      </trkpt>
      <trkpt lat="47.43304" lon="6.60149">
        <ele>291.39999389648</ele>
        <time>2019-09-10T12:06:05Z</time>
      </trkpt>
      <trkpt lat="47.43336" lon="6.60087">
        <ele>291.60000610352</ele>
        <time>2019-09-10T12:06:14Z</time>
      </trkpt>
      <trkpt lat="47.43361" lon="6.60051">
        <ele>291.60000610352</ele>
        <time>2019-09-10T12:06:20Z</time>
      </trkpt>
      <trkpt lat="47.43394" lon="6.60018">
        <ele>291.60000610352</ele>
        <time>2019-09-10T12:06:27Z</time>
      </trkpt>
      <trkpt lat="47.4343" lon="6.59993">
        <ele>291.60000610352</ele>
        <time>2019-09-10T12:06:34Z</time>
      </trkpt>
      <trkpt lat="47.4348" lon="6.59967">
        <ele>291.60000610352</ele>
        <time>2019-09-10T12:06:43Z</time>
      </trkpt>
      <trkpt lat="47.43519" lon="6.59946">
        <ele>291.39999389648</ele>
        <time>2019-09-10T12:06:50Z</time>
      </trkpt>
      <trkpt lat="47.43557" lon="6.59928">
        <ele>291.39999389648</ele>
        <time>2019-09-10T12:06:57Z</time>
      </trkpt>
      <trkpt lat="47.43601" lon="6.59906">
        <ele>291.60000610352</ele>
        <time>2019-09-10T12:07:05Z</time>
      </trkpt>
      <trkpt lat="47.43641" lon="6.59885">
        <ele>291.60000610352</ele>
        <time>2019-09-10T12:07:13Z</time>
      </trkpt>
      <trkpt lat="47.43651" lon="6.5988">
        <ele>291.60000610352</ele>
        <time>2019-09-10T12:07:15Z</time>
      </trkpt>
      <trkpt lat="47.43677" lon="6.59869">
        <ele>291.79998779297</ele>
        <time>2019-09-10T12:07:20Z</time>
      </trkpt>
      <trkpt lat="47.4373" lon="6.59848">
        <ele>292</ele>
        <time>2019-09-10T12:07:30Z</time>
      </trkpt>
      <trkpt lat="47.43782" lon="6.59831">
        <ele>291.79998779297</ele>
        <time>2019-09-10T12:07:39Z</time>
      </trkpt>
      <trkpt lat="47.43821" lon="6.5982">
        <ele>291.79998779297</ele>
        <time>2019-09-10T12:07:46Z</time>
      </trkpt>
      <trkpt lat="47.43869" lon="6.59809">
        <ele>291.79998779297</ele>
        <time>2019-09-10T12:07:54Z</time>
      </trkpt>
      <trkpt lat="47.43909" lon="6.598">
        <ele>292</ele>
        <time>2019-09-10T12:08:01Z</time>
      </trkpt>
      <trkpt lat="47.43951" lon="6.59792">
        <ele>292.20001220703</ele>
        <time>2019-09-10T12:08:08Z</time>
      </trkpt>
      <trkpt lat="47.44009" lon="6.59782">
        <ele>292</ele>
        <time>2019-09-10T12:08:18Z</time>
      </trkpt>
      <trkpt lat="47.44062" lon="6.59774">
        <ele>292</ele>
        <time>2019-09-10T12:08:27Z</time>
      </trkpt>
      <trkpt lat="47.44114" lon="6.59765">
        <ele>292</ele>
        <time>2019-09-10T12:08:36Z</time>
      </trkpt>
      <trkpt lat="47.4417" lon="6.59756">
        <ele>292</ele>
        <time>2019-09-10T12:08:46Z</time>
      </trkpt>
      <trkpt lat="47.4422" lon="6.59748">
        <ele>292</ele>
        <time>2019-09-10T12:08:55Z</time>
      </trkpt>
      <trkpt lat="47.44273" lon="6.59738">
        <ele>292</ele>
        <time>2019-09-10T12:09:05Z</time>
      </trkpt>
      <trkpt lat="47.44301" lon="6.59733">
        <ele>291.60000610352</ele>
        <time>2019-09-10T12:09:10Z</time>
      </trkpt>
      <trkpt lat="47.44347" lon="6.59726">
        <ele>291.60000610352</ele>
        <time>2019-09-10T12:09:18Z</time>
      </trkpt>
      <trkpt lat="47.44359" lon="6.59724">
        <ele>291.60000610352</ele>
        <time>2019-09-10T12:09:20Z</time>
      </trkpt>
      <trkpt lat="47.44393" lon="6.59719">
        <ele>291.79998779297</ele>
        <time>2019-09-10T12:09:26Z</time>
      </trkpt>
      <trkpt lat="47.44438" lon="6.59717">
        <ele>291.79998779297</ele>
        <time>2019-09-10T12:09:34Z</time>
      </trkpt>
      <trkpt lat="47.4449" lon="6.59716">
        <ele>292</ele>
        <time>2019-09-10T12:09:43Z</time>
      </trkpt>
      <trkpt lat="47.44525" lon="6.59715">
        <ele>292.20001220703</ele>
        <time>2019-09-10T12:09:49Z</time>
      </trkpt>
      <trkpt lat="47.44536" lon="6.59715">
        <ele>292.20001220703</ele>
        <time>2019-09-10T12:09:51Z</time>
      </trkpt>
      <trkpt lat="47.44568" lon="6.59718">
        <ele>292.20001220703</ele>
        <time>2019-09-10T12:09:57Z</time>
      </trkpt>
      <trkpt lat="47.44611" lon="6.59722">
        <ele>292</ele>
        <time>2019-09-10T12:10:05Z</time>
      </trkpt>
      <trkpt lat="47.44652" lon="6.59725">
        <ele>291.79998779297</ele>
        <time>2019-09-10T12:10:13Z</time>
      </trkpt>
      <trkpt lat="47.44696" lon="6.59721">
        <ele>291.79998779297</ele>
        <time>2019-09-10T12:10:21Z</time>
      </trkpt>
      <trkpt lat="47.4474" lon="6.59708">
        <ele>291.79998779297</ele>
        <time>2019-09-10T12:10:29Z</time>
      </trkpt>
      <trkpt lat="47.44784" lon="6.59691">
        <ele>291.79998779297</ele>
        <time>2019-09-10T12:10:37Z</time>
      </trkpt>
      <trkpt lat="47.44823" lon="6.59673">
        <ele>292</ele>
        <time>2019-09-10T12:10:44Z</time>
      </trkpt>
      <trkpt lat="47.44828" lon="6.59671">
        <ele>292</ele>
        <time>2019-09-10T12:10:45Z</time>
      </trkpt>
      <trkpt lat="47.44856" lon="6.59655">
        <ele>292</ele>
        <time>2019-09-10T12:10:50Z</time>
      </trkpt>
      <trkpt lat="47.449" lon="6.59628">
        <ele>291.60000610352</ele>
        <time>2019-09-10T12:10:58Z</time>
      </trkpt>
      <trkpt lat="47.44953" lon="6.59589">
        <ele>291.39999389648</ele>
        <time>2019-09-10T12:11:08Z</time>
      </trkpt>
      <trkpt lat="47.44999" lon="6.59555">
        <ele>291.39999389648</ele>
        <time>2019-09-10T12:11:17Z</time>
      </trkpt>
      <trkpt lat="47.45044" lon="6.59517">
        <ele>291.60000610352</ele>
        <time>2019-09-10T12:11:26Z</time>
      </trkpt>
      <trkpt lat="47.45087" lon="6.59477">
        <ele>291.60000610352</ele>
        <time>2019-09-10T12:11:35Z</time>
      </trkpt>
      <trkpt lat="47.45099" lon="6.59456">
        <ele>291.60000610352</ele>
        <time>2019-09-10T12:11:38Z</time>
      </trkpt>
      <trkpt lat="47.45107" lon="6.59439">
        <ele>291.60000610352</ele>
        <time>2019-09-10T12:11:40Z</time>
      </trkpt>
      <trkpt lat="47.45116" lon="6.59426">
        <ele>291.39999389648</ele>
        <time>2019-09-10T12:11:42Z</time>
      </trkpt>
      <trkpt lat="47.45127" lon="6.59418">
        <ele>291</ele>
        <time>2019-09-10T12:11:44Z</time>
      </trkpt>
      <trkpt lat="47.45136" lon="6.5941">
        <ele>290.20001220703</ele>
        <time>2019-09-10T12:11:46Z</time>
      </trkpt>
      <trkpt lat="47.45143" lon="6.59401">
        <ele>290</ele>
        <time>2019-09-10T12:11:48Z</time>
      </trkpt>
      <trkpt lat="47.45161" lon="6.59367">
        <ele>290</ele>
        <time>2019-09-10T12:11:54Z</time>
      </trkpt>
      <trkpt lat="47.45183" lon="6.59303">
        <ele>290.20001220703</ele>
        <time>2019-09-10T12:12:03Z</time>
      </trkpt>
      <trkpt lat="47.45196" lon="6.59252">
        <ele>290.39999389648</ele>
        <time>2019-09-10T12:12:10Z</time>
      </trkpt>
      <trkpt lat="47.4521" lon="6.59171">
        <ele>290.39999389648</ele>
        <time>2019-09-10T12:12:20Z</time>
      </trkpt>
      <trkpt lat="47.45213" lon="6.59155">
        <ele>290.39999389648</ele>
        <time>2019-09-10T12:12:22Z</time>
      </trkpt>
      <trkpt lat="47.4522" lon="6.59074">
        <ele>290.39999389648</ele>
        <time>2019-09-10T12:12:32Z</time>
      </trkpt>
      <trkpt lat="47.45223" lon="6.5901">
        <ele>290.39999389648</ele>
        <time>2019-09-10T12:12:40Z</time>
      </trkpt>
      <trkpt lat="47.45225" lon="6.58994">
        <ele>290.39999389648</ele>
        <time>2019-09-10T12:12:42Z</time>
      </trkpt>
      <trkpt lat="47.45231" lon="6.58973">
        <ele>290.39999389648</ele>
        <time>2019-09-10T12:12:45Z</time>
      </trkpt>
      <trkpt lat="47.45228" lon="6.58945">
        <ele>290.39999389648</ele>
        <time>2019-09-10T12:12:49Z</time>
      </trkpt>
      <trkpt lat="47.45216" lon="6.58916">
        <ele>290.20001220703</ele>
        <time>2019-09-10T12:12:53Z</time>
      </trkpt>
      <trkpt lat="47.45213" lon="6.58909">
        <ele>290.20001220703</ele>
        <time>2019-09-10T12:12:54Z</time>
      </trkpt>
      <trkpt lat="47.45204" lon="6.58887">
        <ele>290</ele>
        <time>2019-09-10T12:12:57Z</time>
      </trkpt>
      <trkpt lat="47.452" lon="6.58871">
        <ele>290</ele>
        <time>2019-09-10T12:12:59Z</time>
      </trkpt>
      <trkpt lat="47.45188" lon="6.58832">
        <ele>290</ele>
        <time>2019-09-10T12:13:04Z</time>
      </trkpt>
      <trkpt lat="47.4518" lon="6.58808">
        <ele>290</ele>
        <time>2019-09-10T12:13:07Z</time>
      </trkpt>
      <trkpt lat="47.45158" lon="6.58735">
        <ele>289.79998779297</ele>
        <time>2019-09-10T12:13:16Z</time>
      </trkpt>
      <trkpt lat="47.45139" lon="6.58672">
        <ele>289.79998779297</ele>
        <time>2019-09-10T12:13:24Z</time>
      </trkpt>
      <trkpt lat="47.45113" lon="6.58593">
        <ele>289.60000610352</ele>
        <time>2019-09-10T12:13:34Z</time>
      </trkpt>
      <trkpt lat="47.45102" lon="6.58564">
        <ele>289.60000610352</ele>
        <time>2019-09-10T12:13:38Z</time>
      </trkpt>
      <trkpt lat="47.45092" lon="6.58543">
        <ele>289.79998779297</ele>
        <time>2019-09-10T12:13:41Z</time>
      </trkpt>
      <trkpt lat="47.45069" lon="6.58493">
        <ele>289.79998779297</ele>
        <time>2019-09-10T12:13:48Z</time>
      </trkpt>
      <trkpt lat="47.45049" lon="6.5845">
        <ele>289.79998779297</ele>
        <time>2019-09-10T12:13:54Z</time>
      </trkpt>
      <trkpt lat="47.45019" lon="6.58396">
        <ele>289.60000610352</ele>
        <time>2019-09-10T12:14:02Z</time>
      </trkpt>
      <trkpt lat="47.44994" lon="6.58358">
        <ele>289.39999389648</ele>
        <time>2019-09-10T12:14:08Z</time>
      </trkpt>
      <trkpt lat="47.44962" lon="6.58309">
        <ele>289.39999389648</ele>
        <time>2019-09-10T12:14:16Z</time>
      </trkpt>
      <trkpt lat="47.44957" lon="6.58303">
        <ele>289.39999389648</ele>
        <time>2019-09-10T12:14:17Z</time>
      </trkpt>
      <trkpt lat="47.44953" lon="6.58297">
        <ele>289.39999389648</ele>
        <time>2019-09-10T12:14:18Z</time>
      </trkpt>
      <trkpt lat="47.44938" lon="6.58275">
        <ele>289.20001220703</ele>
        <time>2019-09-10T12:14:22Z</time>
      </trkpt>
      <trkpt lat="47.44913" lon="6.58241">
        <ele>289.20001220703</ele>
        <time>2019-09-10T12:14:29Z</time>
      </trkpt>
      <trkpt lat="47.4491" lon="6.58236">
        <ele>289.20001220703</ele>
        <time>2019-09-10T12:14:30Z</time>
      </trkpt>
      <trkpt lat="47.44904" lon="6.5822">
        <ele>289.20001220703</ele>
        <time>2019-09-10T12:14:34Z</time>
      </trkpt>
      <trkpt lat="47.44904" lon="6.58216">
        <ele>289.20001220703</ele>
        <time>2019-09-10T12:14:38Z</time>
      </trkpt>
      <trkpt lat="47.44906" lon="6.58212">
        <ele>290</ele>
        <time>2019-09-10T12:15:26Z</time>
      </trkpt>
      <trkpt lat="47.4491" lon="6.58205">
        <ele>290</ele>
        <time>2019-09-10T12:15:28Z</time>
      </trkpt>
      <trkpt lat="47.44915" lon="6.58196">
        <ele>290</ele>
        <time>2019-09-10T12:15:30Z</time>
      </trkpt>
      <trkpt lat="47.44923" lon="6.58179">
        <ele>289.79998779297</ele>
        <time>2019-09-10T12:15:33Z</time>
      </trkpt>
      <trkpt lat="47.44922" lon="6.58158">
        <ele>289.79998779297</ele>
        <time>2019-09-10T12:15:36Z</time>
      </trkpt>
      <trkpt lat="47.44913" lon="6.58152">
        <ele>289.60000610352</ele>
        <time>2019-09-10T12:15:38Z</time>
      </trkpt>
      <trkpt lat="47.44905" lon="6.58158">
        <ele>289.39999389648</ele>
        <time>2019-09-10T12:15:40Z</time>
      </trkpt>
      <trkpt lat="47.44901" lon="6.58162">
        <ele>289.20001220703</ele>
        <time>2019-09-10T12:15:41Z</time>
      </trkpt>
      <trkpt lat="47.44892" lon="6.58167">
        <ele>289</ele>
        <time>2019-09-10T12:15:43Z</time>
      </trkpt>
      <trkpt lat="47.44888" lon="6.58166">
        <ele>289</ele>
        <time>2019-09-10T12:15:44Z</time>
      </trkpt>
      <trkpt lat="47.4487" lon="6.58157">
        <ele>289</ele>
        <time>2019-09-10T12:15:48Z</time>
      </trkpt>
      <trkpt lat="47.44866" lon="6.58153">
        <ele>289</ele>
        <time>2019-09-10T12:15:49Z</time>
      </trkpt>
      <trkpt lat="47.44837" lon="6.58124">
        <ele>289</ele>
        <time>2019-09-10T12:15:56Z</time>
      </trkpt>
      <trkpt lat="47.44792" lon="6.58074">
        <ele>289.79998779297</ele>
        <time>2019-09-10T12:16:07Z</time>
      </trkpt>
      <trkpt lat="47.44756" lon="6.58044">
        <ele>290.20001220703</ele>
        <time>2019-09-10T12:16:15Z</time>
      </trkpt>
      <trkpt lat="47.44747" lon="6.58037">
        <ele>290.20001220703</ele>
        <time>2019-09-10T12:16:17Z</time>
      </trkpt>
      <trkpt lat="47.4474" lon="6.58029">
        <ele>290.20001220703</ele>
        <time>2019-09-10T12:16:19Z</time>
      </trkpt>
      <trkpt lat="47.44739" lon="6.58022">
        <ele>290.20001220703</ele>
        <time>2019-09-10T12:16:20Z</time>
      </trkpt>
      <trkpt lat="47.44739" lon="6.58001">
        <ele>290.20001220703</ele>
        <time>2019-09-10T12:16:23Z</time>
      </trkpt>
      <trkpt lat="47.4474" lon="6.5799">
        <ele>290.20001220703</ele>
        <time>2019-09-10T12:16:25Z</time>
      </trkpt>
      <trkpt lat="47.44742" lon="6.57973">
        <ele>289.79998779297</ele>
        <time>2019-09-10T12:16:30Z</time>
      </trkpt>
      <trkpt lat="47.44743" lon="6.57969">
        <ele>289.20001220703</ele>
        <time>2019-09-10T12:16:34Z</time>
      </trkpt>
      <trkpt lat="47.44746" lon="6.5797">
        <ele>289</ele>
        <time>2019-09-10T12:16:41Z</time>
      </trkpt>
      <trkpt lat="47.44746" lon="6.57973">
        <ele>288.79998779297</ele>
        <time>2019-09-10T12:16:45Z</time>
      </trkpt>
      <trkpt lat="47.44751" lon="6.57985">
        <ele>288.60000610352</ele>
        <time>2019-09-10T12:19:14Z</time>
      </trkpt>
      <trkpt lat="47.44752" lon="6.57985">
        <ele>288.39999389648</ele>
        <time>2019-09-10T12:19:18Z</time>
      </trkpt>
      <trkpt lat="47.4476" lon="6.57982">
        <ele>288.39999389648</ele>
        <time>2019-09-10T12:19:35Z</time>
      </trkpt>
      <trkpt lat="47.4476" lon="6.57914">
        <ele>288.79998779297</ele>
        <time>2019-09-10T12:35:51Z</time>
      </trkpt>
      <trkpt lat="47.44768" lon="6.57952">
        <ele>289.20001220703</ele>
        <time>2019-09-10T12:38:41Z</time>
      </trkpt>
      <trkpt lat="47.44769" lon="6.57952">
        <ele>289.20001220703</ele>
        <time>2019-09-10T12:38:43Z</time>
      </trkpt>
      <trkpt lat="47.44767" lon="6.57951">
        <ele>289.20001220703</ele>
        <time>2019-09-10T12:38:45Z</time>
      </trkpt>
      <trkpt lat="47.44754" lon="6.58004">
        <ele>288.39999389648</ele>
        <time>2019-09-10T12:40:02Z</time>
      </trkpt>
      <trkpt lat="47.44763" lon="6.58005">
        <ele>288.39999389648</ele>
        <time>2019-09-10T12:40:04Z</time>
      </trkpt>
      <trkpt lat="47.44784" lon="6.58002">
        <ele>288.60000610352</ele>
        <time>2019-09-10T12:40:10Z</time>
      </trkpt>
      <trkpt lat="47.44775" lon="6.57983">
        <ele>288.60000610352</ele>
        <time>2019-09-10T12:40:19Z</time>
      </trkpt>
      <trkpt lat="47.44778" lon="6.57994">
        <ele>288.60000610352</ele>
        <time>2019-09-10T12:40:29Z</time>
      </trkpt>
      <trkpt lat="47.44764" lon="6.57994">
        <ele>288.79998779297</ele>
        <time>2019-09-10T12:40:32Z</time>
      </trkpt>
      <trkpt lat="47.44757" lon="6.57968">
        <ele>288.79998779297</ele>
        <time>2019-09-10T12:40:37Z</time>
      </trkpt>
      <trkpt lat="47.44757" lon="6.57961">
        <ele>288.79998779297</ele>
        <time>2019-09-10T12:40:39Z</time>
      </trkpt>
      <trkpt lat="47.44756" lon="6.57956">
        <ele>288.60000610352</ele>
        <time>2019-09-10T12:40:50Z</time>
      </trkpt>
      <trkpt lat="47.44743" lon="6.57985">
        <ele>288.20001220703</ele>
        <time>2019-09-10T12:45:29Z</time>
      </trkpt>
      <trkpt lat="47.44738" lon="6.57993">
        <ele>288.20001220703</ele>
        <time>2019-09-10T12:45:33Z</time>
      </trkpt>
      <trkpt lat="47.44736" lon="6.58004">
        <ele>288.20001220703</ele>
        <time>2019-09-10T12:45:38Z</time>
      </trkpt>
      <trkpt lat="47.44733" lon="6.58014">
        <ele>288.60000610352</ele>
        <time>2019-09-10T12:45:42Z</time>
      </trkpt>
      <trkpt lat="47.44723" lon="6.58021">
        <ele>289.20001220703</ele>
        <time>2019-09-10T12:45:46Z</time>
      </trkpt>
      <trkpt lat="47.44721" lon="6.58024">
        <ele>289.20001220703</ele>
        <time>2019-09-10T12:45:47Z</time>
      </trkpt>
      <trkpt lat="47.44716" lon="6.58033">
        <ele>289.39999389648</ele>
        <time>2019-09-10T12:45:52Z</time>
      </trkpt>
      <trkpt lat="47.44707" lon="6.5803">
        <ele>289.39999389648</ele>
        <time>2019-09-10T12:45:56Z</time>
      </trkpt>
      <trkpt lat="47.44705" lon="6.58029">
        <ele>289.39999389648</ele>
        <time>2019-09-10T12:45:57Z</time>
      </trkpt>
      <trkpt lat="47.4468" lon="6.58016">
        <ele>288.79998779297</ele>
        <time>2019-09-10T12:46:04Z</time>
      </trkpt>
      <trkpt lat="47.44668" lon="6.58008">
        <ele>288.60000610352</ele>
        <time>2019-09-10T12:46:09Z</time>
      </trkpt>
      <trkpt lat="47.44668" lon="6.58008">
        <ele>288.60000610352</ele>
        <time>2019-09-10T12:46:10Z</time>
      </trkpt>
      <trkpt lat="47.44667" lon="6.58008">
        <ele>288.60000610352</ele>
        <time>2019-09-10T12:46:30Z</time>
      </trkpt>
      <trkpt lat="47.44667" lon="6.58008">
        <ele>288.60000610352</ele>
        <time>2019-09-10T12:46:31Z</time>
      </trkpt>
      <trkpt lat="47.44667" lon="6.5801">
        <ele>288.60000610352</ele>
        <time>2019-09-10T12:46:33Z</time>
      </trkpt>
      <trkpt lat="47.44678" lon="6.58015">
        <ele>288.60000610352</ele>
        <time>2019-09-10T12:46:40Z</time>
      </trkpt>
      <trkpt lat="47.44692" lon="6.58025">
        <ele>288.60000610352</ele>
        <time>2019-09-10T12:46:48Z</time>
      </trkpt>
      <trkpt lat="47.44711" lon="6.58036">
        <ele>288.60000610352</ele>
        <time>2019-09-10T12:46:54Z</time>
      </trkpt>
      <trkpt lat="47.4474" lon="6.58054">
        <ele>288.60000610352</ele>
        <time>2019-09-10T12:47:02Z</time>
      </trkpt>
      <trkpt lat="47.44755" lon="6.58064">
        <ele>288.60000610352</ele>
        <time>2019-09-10T12:47:06Z</time>
      </trkpt>
      <trkpt lat="47.44762" lon="6.5807">
        <ele>288.60000610352</ele>
        <time>2019-09-10T12:47:08Z</time>
      </trkpt>
      <trkpt lat="47.44792" lon="6.58094">
        <ele>288.79998779297</ele>
        <time>2019-09-10T12:47:16Z</time>
      </trkpt>
      <trkpt lat="47.44823" lon="6.58121">
        <ele>289</ele>
        <time>2019-09-10T12:47:25Z</time>
      </trkpt>
      <trkpt lat="47.44847" lon="6.58148">
        <ele>289.20001220703</ele>
        <time>2019-09-10T12:47:32Z</time>
      </trkpt>
      <trkpt lat="47.44877" lon="6.58186">
        <ele>289.20001220703</ele>
        <time>2019-09-10T12:47:41Z</time>
      </trkpt>
      <trkpt lat="47.44896" lon="6.58205">
        <ele>289.20001220703</ele>
        <time>2019-09-10T12:47:47Z</time>
      </trkpt>
      <trkpt lat="47.44904" lon="6.58211">
        <ele>289.20001220703</ele>
        <time>2019-09-10T12:47:50Z</time>
      </trkpt>
      <trkpt lat="47.44907" lon="6.58209">
        <ele>289.20001220703</ele>
        <time>2019-09-10T12:47:51Z</time>
      </trkpt>
      <trkpt lat="47.44918" lon="6.5819">
        <ele>289.20001220703</ele>
        <time>2019-09-10T12:47:55Z</time>
      </trkpt>
      <trkpt lat="47.44924" lon="6.58179">
        <ele>289.20001220703</ele>
        <time>2019-09-10T12:47:57Z</time>
      </trkpt>
      <trkpt lat="47.4493" lon="6.58172">
        <ele>289.20001220703</ele>
        <time>2019-09-10T12:47:59Z</time>
      </trkpt>
      <trkpt lat="47.44934" lon="6.58164">
        <ele>289.20001220703</ele>
        <time>2019-09-10T12:48:02Z</time>
      </trkpt>
      <trkpt lat="47.44942" lon="6.58148">
        <ele>288.79998779297</ele>
        <time>2019-09-10T12:48:06Z</time>
      </trkpt>
      <trkpt lat="47.44966" lon="6.58114">
        <ele>288.39999389648</ele>
        <time>2019-09-10T12:48:14Z</time>
      </trkpt>
      <trkpt lat="47.44994" lon="6.58072">
        <ele>288.39999389648</ele>
        <time>2019-09-10T12:48:23Z</time>
      </trkpt>
      <trkpt lat="47.4501" lon="6.58052">
        <ele>288.79998779297</ele>
        <time>2019-09-10T12:48:28Z</time>
      </trkpt>
      <trkpt lat="47.45017" lon="6.58046">
        <ele>288.79998779297</ele>
        <time>2019-09-10T12:48:30Z</time>
      </trkpt>
      <trkpt lat="47.45021" lon="6.58051">
        <ele>289</ele>
        <time>2019-09-10T12:48:32Z</time>
      </trkpt>
      <trkpt lat="47.45016" lon="6.58061">
        <ele>289</ele>
        <time>2019-09-10T12:48:35Z</time>
      </trkpt>
      <trkpt lat="47.4501" lon="6.58071">
        <ele>289</ele>
        <time>2019-09-10T12:48:40Z</time>
      </trkpt>
      <trkpt lat="47.4501" lon="6.58072">
        <ele>289</ele>
        <time>2019-09-10T12:48:41Z</time>
      </trkpt>
      <trkpt lat="47.45009" lon="6.5807">
        <ele>288.79998779297</ele>
        <time>2019-09-10T12:52:06Z</time>
      </trkpt>
      <trkpt lat="47.45008" lon="6.5807">
        <ele>288.79998779297</ele>
        <time>2019-09-10T12:52:07Z</time>
      </trkpt>
      <trkpt lat="47.45008" lon="6.58072">
        <ele>288.79998779297</ele>
        <time>2019-09-10T12:52:09Z</time>
      </trkpt>
      <trkpt lat="47.45011" lon="6.5807">
        <ele>288.79998779297</ele>
        <time>2019-09-10T12:52:13Z</time>
      </trkpt>
      <trkpt lat="47.45014" lon="6.58066">
        <ele>288.79998779297</ele>
        <time>2019-09-10T12:52:15Z</time>
      </trkpt>
      <trkpt lat="47.45023" lon="6.58057">
        <ele>288.79998779297</ele>
        <time>2019-09-10T12:52:19Z</time>
      </trkpt>
      <trkpt lat="47.45026" lon="6.58051">
        <ele>288.79998779297</ele>
        <time>2019-09-10T12:52:20Z</time>
      </trkpt>
      <trkpt lat="47.45032" lon="6.58032">
        <ele>288.79998779297</ele>
        <time>2019-09-10T12:52:23Z</time>
      </trkpt>
      <trkpt lat="47.45041" lon="6.58017">
        <ele>288.79998779297</ele>
        <time>2019-09-10T12:52:26Z</time>
      </trkpt>
      <trkpt lat="47.45052" lon="6.57996">
        <ele>288.79998779297</ele>
        <time>2019-09-10T12:52:30Z</time>
      </trkpt>
      <trkpt lat="47.45072" lon="6.57959">
        <ele>288.79998779297</ele>
        <time>2019-09-10T12:52:37Z</time>
      </trkpt>
      <trkpt lat="47.45089" lon="6.57929">
        <ele>288.79998779297</ele>
        <time>2019-09-10T12:52:43Z</time>
      </trkpt>
      <trkpt lat="47.45095" lon="6.57919">
        <ele>288.79998779297</ele>
        <time>2019-09-10T12:52:45Z</time>
      </trkpt>
      <trkpt lat="47.45103" lon="6.57902">
        <ele>288.79998779297</ele>
        <time>2019-09-10T12:52:48Z</time>
      </trkpt>
      <trkpt lat="47.45113" lon="6.5788">
        <ele>288.20001220703</ele>
        <time>2019-09-10T12:52:52Z</time>
      </trkpt>
      <trkpt lat="47.45133" lon="6.57845">
        <ele>287.79998779297</ele>
        <time>2019-09-10T12:52:59Z</time>
      </trkpt>
      <trkpt lat="47.45148" lon="6.57817">
        <ele>287.79998779297</ele>
        <time>2019-09-10T12:53:06Z</time>
      </trkpt>
      <trkpt lat="47.45151" lon="6.57813">
        <ele>287.79998779297</ele>
        <time>2019-09-10T12:53:11Z</time>
      </trkpt>
      <trkpt lat="47.45152" lon="6.57807">
        <ele>287.79998779297</ele>
        <time>2019-09-10T12:53:15Z</time>
      </trkpt>
      <trkpt lat="47.45147" lon="6.57798">
        <ele>287.79998779297</ele>
        <time>2019-09-10T12:53:18Z</time>
      </trkpt>
      <trkpt lat="47.4514" lon="6.57792">
        <ele>287.79998779297</ele>
        <time>2019-09-10T12:53:20Z</time>
      </trkpt>
      <trkpt lat="47.45132" lon="6.57785">
        <ele>287.79998779297</ele>
        <time>2019-09-10T12:53:22Z</time>
      </trkpt>
      <trkpt lat="47.451" lon="6.5776">
        <ele>287.60000610352</ele>
        <time>2019-09-10T12:53:29Z</time>
      </trkpt>
      <trkpt lat="47.45072" lon="6.57735">
        <ele>287.60000610352</ele>
        <time>2019-09-10T12:53:35Z</time>
      </trkpt>
      <trkpt lat="47.45049" lon="6.57716">
        <ele>287.60000610352</ele>
        <time>2019-09-10T12:53:40Z</time>
      </trkpt>
      <trkpt lat="47.45044" lon="6.57713">
        <ele>287.60000610352</ele>
        <time>2019-09-10T12:53:41Z</time>
      </trkpt>
      <trkpt lat="47.45011" lon="6.57696">
        <ele>288.39999389648</ele>
        <time>2019-09-10T12:53:48Z</time>
      </trkpt>
      <trkpt lat="47.44959" lon="6.57672">
        <ele>288.79998779297</ele>
        <time>2019-09-10T12:53:58Z</time>
      </trkpt>
      <trkpt lat="47.44911" lon="6.57649">
        <ele>288.79998779297</ele>
        <time>2019-09-10T12:54:07Z</time>
      </trkpt>
      <trkpt lat="47.44866" lon="6.57634">
        <ele>289</ele>
        <time>2019-09-10T12:54:15Z</time>
      </trkpt>
      <trkpt lat="47.4486" lon="6.57633">
        <ele>289</ele>
        <time>2019-09-10T12:54:16Z</time>
      </trkpt>
      <trkpt lat="47.44803" lon="6.57625">
        <ele>288.79998779297</ele>
        <time>2019-09-10T12:54:26Z</time>
      </trkpt>
      <trkpt lat="47.44792" lon="6.57624">
        <ele>288.79998779297</ele>
        <time>2019-09-10T12:54:28Z</time>
      </trkpt>
      <trkpt lat="47.44747" lon="6.57619">
        <ele>288.79998779297</ele>
        <time>2019-09-10T12:54:36Z</time>
      </trkpt>
      <trkpt lat="47.44703" lon="6.57605">
        <ele>289</ele>
        <time>2019-09-10T12:54:44Z</time>
      </trkpt>
      <trkpt lat="47.44697" lon="6.57602">
        <ele>289</ele>
        <time>2019-09-10T12:54:45Z</time>
      </trkpt>
      <trkpt lat="47.44662" lon="6.57572">
        <ele>289</ele>
        <time>2019-09-10T12:54:52Z</time>
      </trkpt>
      <trkpt lat="47.44616" lon="6.57527">
        <ele>289</ele>
        <time>2019-09-10T12:55:01Z</time>
      </trkpt>
      <trkpt lat="47.44584" lon="6.57475">
        <ele>288.20001220703</ele>
        <time>2019-09-10T12:55:09Z</time>
      </trkpt>
      <trkpt lat="47.44569" lon="6.57447">
        <ele>288.20001220703</ele>
        <time>2019-09-10T12:55:13Z</time>
      </trkpt>
      <trkpt lat="47.44556" lon="6.57418">
        <ele>288</ele>
        <time>2019-09-10T12:55:17Z</time>
      </trkpt>
      <trkpt lat="47.44536" lon="6.57363">
        <ele>287.79998779297</ele>
        <time>2019-09-10T12:55:24Z</time>
      </trkpt>
      <trkpt lat="47.44516" lon="6.5732">
        <ele>287.79998779297</ele>
        <time>2019-09-10T12:55:30Z</time>
      </trkpt>
      <trkpt lat="47.44484" lon="6.57262">
        <ele>287.79998779297</ele>
        <time>2019-09-10T12:55:39Z</time>
      </trkpt>
      <trkpt lat="47.44455" lon="6.57221">
        <ele>287.79998779297</ele>
        <time>2019-09-10T12:55:46Z</time>
      </trkpt>
      <trkpt lat="47.44425" lon="6.57191">
        <ele>287.60000610352</ele>
        <time>2019-09-10T12:55:52Z</time>
      </trkpt>
      <trkpt lat="47.44399" lon="6.5717">
        <ele>287.20001220703</ele>
        <time>2019-09-10T12:55:57Z</time>
      </trkpt>
      <trkpt lat="47.44394" lon="6.57165">
        <ele>287</ele>
        <time>2019-09-10T12:55:58Z</time>
      </trkpt>
      <trkpt lat="47.44369" lon="6.57134">
        <ele>286.79998779297</ele>
        <time>2019-09-10T12:56:04Z</time>
      </trkpt>
      <trkpt lat="47.44337" lon="6.57084">
        <ele>286.60000610352</ele>
        <time>2019-09-10T12:56:12Z</time>
      </trkpt>
      <trkpt lat="47.44316" lon="6.57045">
        <ele>286.39999389648</ele>
        <time>2019-09-10T12:56:18Z</time>
      </trkpt>
      <trkpt lat="47.44299" lon="6.57011">
        <ele>286.39999389648</ele>
        <time>2019-09-10T12:56:23Z</time>
      </trkpt>
      <trkpt lat="47.44272" lon="6.56957">
        <ele>286.60000610352</ele>
        <time>2019-09-10T12:56:31Z</time>
      </trkpt>
      <trkpt lat="47.44245" lon="6.56899">
        <ele>286.60000610352</ele>
        <time>2019-09-10T12:56:39Z</time>
      </trkpt>
      <trkpt lat="47.44225" lon="6.56836">
        <ele>286.60000610352</ele>
        <time>2019-09-10T12:56:47Z</time>
      </trkpt>
      <trkpt lat="47.44218" lon="6.56778">
        <ele>286.60000610352</ele>
        <time>2019-09-10T12:56:54Z</time>
      </trkpt>
      <trkpt lat="47.44217" lon="6.5672">
        <ele>286.79998779297</ele>
        <time>2019-09-10T12:57:01Z</time>
      </trkpt>
      <trkpt lat="47.44222" lon="6.56659">
        <ele>287.39999389648</ele>
        <time>2019-09-10T12:57:09Z</time>
      </trkpt>
      <trkpt lat="47.44227" lon="6.56608">
        <ele>287.39999389648</ele>
        <time>2019-09-10T12:57:16Z</time>
      </trkpt>
      <trkpt lat="47.44229" lon="6.56542">
        <ele>287.39999389648</ele>
        <time>2019-09-10T12:57:25Z</time>
      </trkpt>
      <trkpt lat="47.44227" lon="6.56472">
        <ele>287.60000610352</ele>
        <time>2019-09-10T12:57:34Z</time>
      </trkpt>
      <trkpt lat="47.44226" lon="6.56405">
        <ele>287.39999389648</ele>
        <time>2019-09-10T12:57:42Z</time>
      </trkpt>
      <trkpt lat="47.44225" lon="6.56339">
        <ele>287.39999389648</ele>
        <time>2019-09-10T12:57:50Z</time>
      </trkpt>
      <trkpt lat="47.44225" lon="6.56332">
        <ele>287.39999389648</ele>
        <time>2019-09-10T12:57:51Z</time>
      </trkpt>
      <trkpt lat="47.4423" lon="6.56312">
        <ele>287.39999389648</ele>
        <time>2019-09-10T12:57:54Z</time>
      </trkpt>
      <trkpt lat="47.44244" lon="6.56307">
        <ele>287.39999389648</ele>
        <time>2019-09-10T12:57:57Z</time>
      </trkpt>
      <trkpt lat="47.44249" lon="6.56308">
        <ele>287.39999389648</ele>
        <time>2019-09-10T12:57:58Z</time>
      </trkpt>
      <trkpt lat="47.44279" lon="6.56316">
        <ele>287</ele>
        <time>2019-09-10T12:58:04Z</time>
      </trkpt>
      <trkpt lat="47.44284" lon="6.56316">
        <ele>287</ele>
        <time>2019-09-10T12:58:05Z</time>
      </trkpt>
      <trkpt lat="47.44304" lon="6.56309">
        <ele>287</ele>
        <time>2019-09-10T12:58:09Z</time>
      </trkpt>
      <trkpt lat="47.44308" lon="6.56307">
        <ele>287</ele>
        <time>2019-09-10T12:58:10Z</time>
      </trkpt>
      <trkpt lat="47.44337" lon="6.56292">
        <ele>287.39999389648</ele>
        <time>2019-09-10T12:58:17Z</time>
      </trkpt>
      <trkpt lat="47.44341" lon="6.56289">
        <ele>287.39999389648</ele>
        <time>2019-09-10T12:58:18Z</time>
      </trkpt>
      <trkpt lat="47.44349" lon="6.56281">
        <ele>287.60000610352</ele>
        <time>2019-09-10T12:58:20Z</time>
      </trkpt>
      <trkpt lat="47.44353" lon="6.56276">
        <ele>287.60000610352</ele>
        <time>2019-09-10T12:58:21Z</time>
      </trkpt>
      <trkpt lat="47.44361" lon="6.56248">
        <ele>287.60000610352</ele>
        <time>2019-09-10T12:58:25Z</time>
      </trkpt>
      <trkpt lat="47.44368" lon="6.56197">
        <ele>287.60000610352</ele>
        <time>2019-09-10T12:58:32Z</time>
      </trkpt>
      <trkpt lat="47.44369" lon="6.5614">
        <ele>288</ele>
        <time>2019-09-10T12:58:40Z</time>
      </trkpt>
      <trkpt lat="47.44357" lon="6.56081">
        <ele>288.20001220703</ele>
        <time>2019-09-10T12:58:48Z</time>
      </trkpt>
      <trkpt lat="47.44348" lon="6.56045">
        <ele>288.20001220703</ele>
        <time>2019-09-10T12:58:53Z</time>
      </trkpt>
      <trkpt lat="47.44343" lon="6.56031">
        <ele>288.20001220703</ele>
        <time>2019-09-10T12:58:55Z</time>
      </trkpt>
      <trkpt lat="47.44337" lon="6.56019">
        <ele>288.20001220703</ele>
        <time>2019-09-10T12:58:57Z</time>
      </trkpt>
      <trkpt lat="47.44322" lon="6.55993">
        <ele>287.79998779297</ele>
        <time>2019-09-10T12:59:01Z</time>
      </trkpt>
      <trkpt lat="47.4429" lon="6.55931">
        <ele>286.60000610352</ele>
        <time>2019-09-10T12:59:10Z</time>
      </trkpt>
      <trkpt lat="47.44269" lon="6.55887">
        <ele>285.60000610352</ele>
        <time>2019-09-10T12:59:16Z</time>
      </trkpt>
      <trkpt lat="47.44265" lon="6.5588">
        <ele>285.39999389648</ele>
        <time>2019-09-10T12:59:17Z</time>
      </trkpt>
      <trkpt lat="47.44234" lon="6.55815">
        <ele>285.20001220703</ele>
        <time>2019-09-10T12:59:26Z</time>
      </trkpt>
      <trkpt lat="47.44223" lon="6.55784">
        <ele>285.20001220703</ele>
        <time>2019-09-10T12:59:30Z</time>
      </trkpt>
      <trkpt lat="47.44221" lon="6.55766">
        <ele>285.20001220703</ele>
        <time>2019-09-10T12:59:32Z</time>
      </trkpt>
      <trkpt lat="47.44217" lon="6.55697">
        <ele>285.39999389648</ele>
        <time>2019-09-10T12:59:40Z</time>
      </trkpt>
      <trkpt lat="47.44214" lon="6.55619">
        <ele>285.39999389648</ele>
        <time>2019-09-10T12:59:49Z</time>
      </trkpt>
      <trkpt lat="47.44209" lon="6.5555">
        <ele>285.39999389648</ele>
        <time>2019-09-10T12:59:57Z</time>
      </trkpt>
      <trkpt lat="47.44198" lon="6.55501">
        <ele>285.39999389648</ele>
        <time>2019-09-10T13:00:03Z</time>
      </trkpt>
      <trkpt lat="47.44191" lon="6.5547">
        <ele>285.39999389648</ele>
        <time>2019-09-10T13:00:07Z</time>
      </trkpt>
      <trkpt lat="47.44191" lon="6.55455">
        <ele>285.39999389648</ele>
        <time>2019-09-10T13:00:09Z</time>
      </trkpt>
      <trkpt lat="47.44198" lon="6.55393">
        <ele>285.60000610352</ele>
        <time>2019-09-10T13:00:18Z</time>
      </trkpt>
      <trkpt lat="47.44202" lon="6.55344">
        <ele>285.60000610352</ele>
        <time>2019-09-10T13:00:25Z</time>
      </trkpt>
      <trkpt lat="47.44205" lon="6.55301">
        <ele>285.39999389648</ele>
        <time>2019-09-10T13:00:32Z</time>
      </trkpt>
      <trkpt lat="47.44207" lon="6.55268">
        <ele>285.39999389648</ele>
        <time>2019-09-10T13:00:38Z</time>
      </trkpt>
      <trkpt lat="47.44208" lon="6.55243">
        <ele>285.39999389648</ele>
        <time>2019-09-10T13:00:42Z</time>
      </trkpt>
      <trkpt lat="47.44208" lon="6.55229">
        <ele>285.39999389648</ele>
        <time>2019-09-10T13:00:44Z</time>
      </trkpt>
      <trkpt lat="47.44207" lon="6.5516">
        <ele>285.20001220703</ele>
        <time>2019-09-10T13:00:53Z</time>
      </trkpt>
      <trkpt lat="47.44208" lon="6.55145">
        <ele>285.20001220703</ele>
        <time>2019-09-10T13:00:55Z</time>
      </trkpt>
      <trkpt lat="47.44205" lon="6.55112">
        <ele>285.20001220703</ele>
        <time>2019-09-10T13:00:59Z</time>
      </trkpt>
      <trkpt lat="47.44194" lon="6.55031">
        <ele>285.20001220703</ele>
        <time>2019-09-10T13:01:09Z</time>
      </trkpt>
      <trkpt lat="47.4418" lon="6.54947">
        <ele>285</ele>
        <time>2019-09-10T13:01:19Z</time>
      </trkpt>
      <trkpt lat="47.44179" lon="6.54938">
        <ele>285</ele>
        <time>2019-09-10T13:01:20Z</time>
      </trkpt>
      <trkpt lat="47.44176" lon="6.54921">
        <ele>285</ele>
        <time>2019-09-10T13:01:22Z</time>
      </trkpt>
      <trkpt lat="47.44167" lon="6.5487">
        <ele>284.79998779297</ele>
        <time>2019-09-10T13:01:28Z</time>
      </trkpt>
      <trkpt lat="47.44154" lon="6.54792">
        <ele>284.79998779297</ele>
        <time>2019-09-10T13:01:37Z</time>
      </trkpt>
      <trkpt lat="47.44136" lon="6.54708">
        <ele>285.20001220703</ele>
        <time>2019-09-10T13:01:47Z</time>
      </trkpt>
      <trkpt lat="47.44135" lon="6.547">
        <ele>285.20001220703</ele>
        <time>2019-09-10T13:01:48Z</time>
      </trkpt>
      <trkpt lat="47.44122" lon="6.54641">
        <ele>285.20001220703</ele>
        <time>2019-09-10T13:01:55Z</time>
      </trkpt>
      <trkpt lat="47.44118" lon="6.54615">
        <ele>285.20001220703</ele>
        <time>2019-09-10T13:01:58Z</time>
      </trkpt>
      <trkpt lat="47.44106" lon="6.54538">
        <ele>285</ele>
        <time>2019-09-10T13:02:07Z</time>
      </trkpt>
      <trkpt lat="47.44099" lon="6.54462">
        <ele>285.20001220703</ele>
        <time>2019-09-10T13:02:16Z</time>
      </trkpt>
      <trkpt lat="47.44094" lon="6.54393">
        <ele>285.20001220703</ele>
        <time>2019-09-10T13:02:24Z</time>
      </trkpt>
      <trkpt lat="47.44097" lon="6.54324">
        <ele>285.39999389648</ele>
        <time>2019-09-10T13:02:32Z</time>
      </trkpt>
      <trkpt lat="47.44101" lon="6.54246">
        <ele>285.39999389648</ele>
        <time>2019-09-10T13:02:41Z</time>
      </trkpt>
      <trkpt lat="47.44104" lon="6.54158">
        <ele>285.20001220703</ele>
        <time>2019-09-10T13:02:51Z</time>
      </trkpt>
      <trkpt lat="47.44105" lon="6.54141">
        <ele>285</ele>
        <time>2019-09-10T13:02:53Z</time>
      </trkpt>
      <trkpt lat="47.4411" lon="6.54064">
        <ele>285.20001220703</ele>
        <time>2019-09-10T13:03:02Z</time>
      </trkpt>
      <trkpt lat="47.44115" lon="6.53987">
        <ele>285.20001220703</ele>
        <time>2019-09-10T13:03:11Z</time>
      </trkpt>
      <trkpt lat="47.44122" lon="6.53902">
        <ele>285.20001220703</ele>
        <time>2019-09-10T13:03:21Z</time>
      </trkpt>
      <trkpt lat="47.44122" lon="6.53894">
        <ele>285</ele>
        <time>2019-09-10T13:03:22Z</time>
      </trkpt>
      <trkpt lat="47.44131" lon="6.53809">
        <ele>284.79998779297</ele>
        <time>2019-09-10T13:03:32Z</time>
      </trkpt>
      <trkpt lat="47.44139" lon="6.53731">
        <ele>284.60000610352</ele>
        <time>2019-09-10T13:03:41Z</time>
      </trkpt>
      <trkpt lat="47.44147" lon="6.53655">
        <ele>284.60000610352</ele>
        <time>2019-09-10T13:03:50Z</time>
      </trkpt>
      <trkpt lat="47.44157" lon="6.53568">
        <ele>284.60000610352</ele>
        <time>2019-09-10T13:04:00Z</time>
      </trkpt>
      <trkpt lat="47.44158" lon="6.5355">
        <ele>284.60000610352</ele>
        <time>2019-09-10T13:04:02Z</time>
      </trkpt>
      <trkpt lat="47.44169" lon="6.53476">
        <ele>284.79998779297</ele>
        <time>2019-09-10T13:04:11Z</time>
      </trkpt>
      <trkpt lat="47.44176" lon="6.53416">
        <ele>284.79998779297</ele>
        <time>2019-09-10T13:04:18Z</time>
      </trkpt>
      <trkpt lat="47.44176" lon="6.53382">
        <ele>284.79998779297</ele>
        <time>2019-09-10T13:04:22Z</time>
      </trkpt>
      <trkpt lat="47.44175" lon="6.53366">
        <ele>284.60000610352</ele>
        <time>2019-09-10T13:04:24Z</time>
      </trkpt>
      <trkpt lat="47.44163" lon="6.53317">
        <ele>284.60000610352</ele>
        <time>2019-09-10T13:04:31Z</time>
      </trkpt>
      <trkpt lat="47.44158" lon="6.53304">
        <ele>284.60000610352</ele>
        <time>2019-09-10T13:04:33Z</time>
      </trkpt>
      <trkpt lat="47.44147" lon="6.53287">
        <ele>284.60000610352</ele>
        <time>2019-09-10T13:04:36Z</time>
      </trkpt>
      <trkpt lat="47.44135" lon="6.53272">
        <ele>284.60000610352</ele>
        <time>2019-09-10T13:04:39Z</time>
      </trkpt>
      <trkpt lat="47.4413" lon="6.53267">
        <ele>284.60000610352</ele>
        <time>2019-09-10T13:04:40Z</time>
      </trkpt>
      <trkpt lat="47.44126" lon="6.53263">
        <ele>284.60000610352</ele>
        <time>2019-09-10T13:04:41Z</time>
      </trkpt>
      <trkpt lat="47.44086" lon="6.53234">
        <ele>284.60000610352</ele>
        <time>2019-09-10T13:04:49Z</time>
      </trkpt>
      <trkpt lat="47.44049" lon="6.53209">
        <ele>284.60000610352</ele>
        <time>2019-09-10T13:04:56Z</time>
      </trkpt>
      <trkpt lat="47.43999" lon="6.53181">
        <ele>284.79998779297</ele>
        <time>2019-09-10T13:05:05Z</time>
      </trkpt>
      <trkpt lat="47.43966" lon="6.53168">
        <ele>284.79998779297</ele>
        <time>2019-09-10T13:05:11Z</time>
      </trkpt>
      <trkpt lat="47.4395" lon="6.53162">
        <ele>284.79998779297</ele>
        <time>2019-09-10T13:05:14Z</time>
      </trkpt>
      <trkpt lat="47.43905" lon="6.53147">
        <ele>284.79998779297</ele>
        <time>2019-09-10T13:05:22Z</time>
      </trkpt>
      <trkpt lat="47.43853" lon="6.53135">
        <ele>285</ele>
        <time>2019-09-10T13:05:31Z</time>
      </trkpt>
      <trkpt lat="47.43795" lon="6.5313">
        <ele>285</ele>
        <time>2019-09-10T13:05:41Z</time>
      </trkpt>
      <trkpt lat="47.4375" lon="6.53127">
        <ele>284.79998779297</ele>
        <time>2019-09-10T13:05:49Z</time>
      </trkpt>
      <trkpt lat="47.43711" lon="6.53128">
        <ele>285</ele>
        <time>2019-09-10T13:05:56Z</time>
      </trkpt>
      <trkpt lat="47.43665" lon="6.53133">
        <ele>284.79998779297</ele>
        <time>2019-09-10T13:06:04Z</time>
      </trkpt>
      <trkpt lat="47.43619" lon="6.53141">
        <ele>284.79998779297</ele>
        <time>2019-09-10T13:06:12Z</time>
      </trkpt>
      <trkpt lat="47.43608" lon="6.53142">
        <ele>284.79998779297</ele>
        <time>2019-09-10T13:06:14Z</time>
      </trkpt>
      <trkpt lat="47.43592" lon="6.53139">
        <ele>285</ele>
        <time>2019-09-10T13:06:17Z</time>
      </trkpt>
      <trkpt lat="47.43573" lon="6.53135">
        <ele>285</ele>
        <time>2019-09-10T13:06:21Z</time>
      </trkpt>
      <trkpt lat="47.43564" lon="6.53138">
        <ele>285.20001220703</ele>
        <time>2019-09-10T13:06:23Z</time>
      </trkpt>
      <trkpt lat="47.43556" lon="6.53145">
        <ele>285.20001220703</ele>
        <time>2019-09-10T13:06:25Z</time>
      </trkpt>
      <trkpt lat="47.43543" lon="6.53155">
        <ele>285.39999389648</ele>
        <time>2019-09-10T13:06:28Z</time>
      </trkpt>
      <trkpt lat="47.43522" lon="6.53167">
        <ele>285.39999389648</ele>
        <time>2019-09-10T13:06:32Z</time>
      </trkpt>
      <trkpt lat="47.43516" lon="6.53169">
        <ele>285.39999389648</ele>
        <time>2019-09-10T13:06:33Z</time>
      </trkpt>
      <trkpt lat="47.43492" lon="6.53176">
        <ele>285</ele>
        <time>2019-09-10T13:06:37Z</time>
      </trkpt>
      <trkpt lat="47.43476" lon="6.5318">
        <ele>284.20001220703</ele>
        <time>2019-09-10T13:06:40Z</time>
      </trkpt>
      <trkpt lat="47.43461" lon="6.53184">
        <ele>283.60000610352</ele>
        <time>2019-09-10T13:06:43Z</time>
      </trkpt>
      <trkpt lat="47.43446" lon="6.53191">
        <ele>283.60000610352</ele>
        <time>2019-09-10T13:06:46Z</time>
      </trkpt>
      <trkpt lat="47.43401" lon="6.53214">
        <ele>283.39999389648</ele>
        <time>2019-09-10T13:06:55Z</time>
      </trkpt>
      <trkpt lat="47.43371" lon="6.53234">
        <ele>283.39999389648</ele>
        <time>2019-09-10T13:07:01Z</time>
      </trkpt>
      <trkpt lat="47.43355" lon="6.53243">
        <ele>283.39999389648</ele>
        <time>2019-09-10T13:07:04Z</time>
      </trkpt>
      <trkpt lat="47.4334" lon="6.53251">
        <ele>283.39999389648</ele>
        <time>2019-09-10T13:07:07Z</time>
      </trkpt>
      <trkpt lat="47.43311" lon="6.53274">
        <ele>283.20001220703</ele>
        <time>2019-09-10T13:07:13Z</time>
      </trkpt>
      <trkpt lat="47.43276" lon="6.53299">
        <ele>283.39999389648</ele>
        <time>2019-09-10T13:07:20Z</time>
      </trkpt>
      <trkpt lat="47.43249" lon="6.53324">
        <ele>283.39999389648</ele>
        <time>2019-09-10T13:07:26Z</time>
      </trkpt>
      <trkpt lat="47.43215" lon="6.53365">
        <ele>283.60000610352</ele>
        <time>2019-09-10T13:07:34Z</time>
      </trkpt>
      <trkpt lat="47.43192" lon="6.53411">
        <ele>283.60000610352</ele>
        <time>2019-09-10T13:07:41Z</time>
      </trkpt>
      <trkpt lat="47.43173" lon="6.53441">
        <ele>283.79998779297</ele>
        <time>2019-09-10T13:07:46Z</time>
      </trkpt>
      <trkpt lat="47.4317" lon="6.53447">
        <ele>283.79998779297</ele>
        <time>2019-09-10T13:07:47Z</time>
      </trkpt>
      <trkpt lat="47.43148" lon="6.5349">
        <ele>283.79998779297</ele>
        <time>2019-09-10T13:07:54Z</time>
      </trkpt>
      <trkpt lat="47.4313" lon="6.53531">
        <ele>283.79998779297</ele>
        <time>2019-09-10T13:08:01Z</time>
      </trkpt>
      <trkpt lat="47.43106" lon="6.53572">
        <ele>283.79998779297</ele>
        <time>2019-09-10T13:08:08Z</time>
      </trkpt>
      <trkpt lat="47.43096" lon="6.53596">
        <ele>284</ele>
        <time>2019-09-10T13:08:12Z</time>
      </trkpt>
      <trkpt lat="47.43091" lon="6.53608">
        <ele>284</ele>
        <time>2019-09-10T13:08:14Z</time>
      </trkpt>
      <trkpt lat="47.43081" lon="6.53636">
        <ele>283.79998779297</ele>
        <time>2019-09-10T13:08:19Z</time>
      </trkpt>
      <trkpt lat="47.43064" lon="6.53678">
        <ele>284</ele>
        <time>2019-09-10T13:08:26Z</time>
      </trkpt>
      <trkpt lat="47.43044" lon="6.53719">
        <ele>284</ele>
        <time>2019-09-10T13:08:33Z</time>
      </trkpt>
      <trkpt lat="47.4304" lon="6.53725">
        <ele>284.20001220703</ele>
        <time>2019-09-10T13:08:34Z</time>
      </trkpt>
      <trkpt lat="47.43018" lon="6.53752">
        <ele>284.20001220703</ele>
        <time>2019-09-10T13:08:39Z</time>
      </trkpt>
      <trkpt lat="47.42988" lon="6.53805">
        <ele>284.39999389648</ele>
        <time>2019-09-10T13:08:48Z</time>
      </trkpt>
      <trkpt lat="47.42974" lon="6.53842">
        <ele>284.20001220703</ele>
        <time>2019-09-10T13:08:54Z</time>
      </trkpt>
      <trkpt lat="47.42953" lon="6.53889">
        <ele>284.20001220703</ele>
        <time>2019-09-10T13:09:01Z</time>
      </trkpt>
      <trkpt lat="47.4295" lon="6.53896">
        <ele>284.20001220703</ele>
        <time>2019-09-10T13:09:02Z</time>
      </trkpt>
      <trkpt lat="47.42928" lon="6.53937">
        <ele>284</ele>
        <time>2019-09-10T13:09:09Z</time>
      </trkpt>
      <trkpt lat="47.42915" lon="6.53966">
        <ele>284</ele>
        <time>2019-09-10T13:09:14Z</time>
      </trkpt>
      <trkpt lat="47.42909" lon="6.53978">
        <ele>284</ele>
        <time>2019-09-10T13:09:16Z</time>
      </trkpt>
      <trkpt lat="47.42902" lon="6.53993">
        <ele>284</ele>
        <time>2019-09-10T13:09:19Z</time>
      </trkpt>
      <trkpt lat="47.42889" lon="6.54023">
        <ele>284.20001220703</ele>
        <time>2019-09-10T13:09:24Z</time>
      </trkpt>
      <trkpt lat="47.42887" lon="6.54029">
        <ele>284.20001220703</ele>
        <time>2019-09-10T13:09:25Z</time>
      </trkpt>
      <trkpt lat="47.42881" lon="6.54041">
        <ele>284.20001220703</ele>
        <time>2019-09-10T13:09:27Z</time>
      </trkpt>
      <trkpt lat="47.42874" lon="6.54068">
        <ele>284</ele>
        <time>2019-09-10T13:09:31Z</time>
      </trkpt>
      <trkpt lat="47.4287" lon="6.54082">
        <ele>284</ele>
        <time>2019-09-10T13:09:33Z</time>
      </trkpt>
      <trkpt lat="47.42861" lon="6.54117">
        <ele>284.20001220703</ele>
        <time>2019-09-10T13:09:38Z</time>
      </trkpt>
      <trkpt lat="47.42848" lon="6.54166">
        <ele>284</ele>
        <time>2019-09-10T13:09:45Z</time>
      </trkpt>
      <trkpt lat="47.42831" lon="6.5421">
        <ele>284</ele>
        <time>2019-09-10T13:09:51Z</time>
      </trkpt>
      <trkpt lat="47.42823" lon="6.54233">
        <ele>284</ele>
        <time>2019-09-10T13:09:54Z</time>
      </trkpt>
      <trkpt lat="47.42815" lon="6.54254">
        <ele>283.79998779297</ele>
        <time>2019-09-10T13:09:57Z</time>
      </trkpt>
      <trkpt lat="47.42803" lon="6.54296">
        <ele>283.79998779297</ele>
        <time>2019-09-10T13:10:03Z</time>
      </trkpt>
      <trkpt lat="47.42798" lon="6.54309">
        <ele>283.79998779297</ele>
        <time>2019-09-10T13:10:05Z</time>
      </trkpt>
      <trkpt lat="47.42796" lon="6.54316">
        <ele>283.79998779297</ele>
        <time>2019-09-10T13:10:06Z</time>
      </trkpt>
      <trkpt lat="47.42792" lon="6.5433">
        <ele>283.79998779297</ele>
        <time>2019-09-10T13:10:08Z</time>
      </trkpt>
      <trkpt lat="47.42788" lon="6.54342">
        <ele>283.79998779297</ele>
        <time>2019-09-10T13:10:10Z</time>
      </trkpt>
      <trkpt lat="47.42779" lon="6.54391">
        <ele>283.79998779297</ele>
        <time>2019-09-10T13:10:17Z</time>
      </trkpt>
      <trkpt lat="47.42771" lon="6.54431">
        <ele>284</ele>
        <time>2019-09-10T13:10:23Z</time>
      </trkpt>
      <trkpt lat="47.4276" lon="6.54461">
        <ele>284</ele>
        <time>2019-09-10T13:10:28Z</time>
      </trkpt>
      <trkpt lat="47.42749" lon="6.54497">
        <ele>284</ele>
        <time>2019-09-10T13:10:34Z</time>
      </trkpt>
      <trkpt lat="47.42735" lon="6.54548">
        <ele>284</ele>
        <time>2019-09-10T13:10:41Z</time>
      </trkpt>
      <trkpt lat="47.42727" lon="6.54577">
        <ele>284</ele>
        <time>2019-09-10T13:10:45Z</time>
      </trkpt>
      <trkpt lat="47.42721" lon="6.54598">
        <ele>284</ele>
        <time>2019-09-10T13:10:48Z</time>
      </trkpt>
      <trkpt lat="47.42705" lon="6.54665">
        <ele>283.60000610352</ele>
        <time>2019-09-10T13:10:57Z</time>
      </trkpt>
      <trkpt lat="47.42691" lon="6.54715">
        <ele>283.60000610352</ele>
        <time>2019-09-10T13:11:04Z</time>
      </trkpt>
      <trkpt lat="47.42676" lon="6.54764">
        <ele>283.39999389648</ele>
        <time>2019-09-10T13:11:11Z</time>
      </trkpt>
      <trkpt lat="47.4266" lon="6.54821">
        <ele>283.20001220703</ele>
        <time>2019-09-10T13:11:19Z</time>
      </trkpt>
      <trkpt lat="47.42645" lon="6.54872">
        <ele>283</ele>
        <time>2019-09-10T13:11:26Z</time>
      </trkpt>
      <trkpt lat="47.42632" lon="6.54904">
        <ele>283</ele>
        <time>2019-09-10T13:11:31Z</time>
      </trkpt>
      <trkpt lat="47.42627" lon="6.54913">
        <ele>283</ele>
        <time>2019-09-10T13:11:33Z</time>
      </trkpt>
      <trkpt lat="47.42612" lon="6.5493">
        <ele>283</ele>
        <time>2019-09-10T13:11:38Z</time>
      </trkpt>
      <trkpt lat="47.42588" lon="6.54949">
        <ele>284</ele>
        <time>2019-09-10T13:11:45Z</time>
      </trkpt>
      <trkpt lat="47.42581" lon="6.54953">
        <ele>284</ele>
        <time>2019-09-10T13:11:47Z</time>
      </trkpt>
      <trkpt lat="47.4257" lon="6.54962">
        <ele>284.20001220703</ele>
        <time>2019-09-10T13:11:50Z</time>
      </trkpt>
      <trkpt lat="47.42566" lon="6.54965">
        <ele>284.20001220703</ele>
        <time>2019-09-10T13:11:51Z</time>
      </trkpt>
      <trkpt lat="47.42541" lon="6.54997">
        <ele>284.60000610352</ele>
        <time>2019-09-10T13:11:59Z</time>
      </trkpt>
      <trkpt lat="47.42524" lon="6.55026">
        <ele>284.60000610352</ele>
        <time>2019-09-10T13:12:05Z</time>
      </trkpt>
      <trkpt lat="47.42512" lon="6.55047">
        <ele>284.60000610352</ele>
        <time>2019-09-10T13:12:10Z</time>
      </trkpt>
      <trkpt lat="47.42497" lon="6.55076">
        <ele>284.79998779297</ele>
        <time>2019-09-10T13:12:15Z</time>
      </trkpt>
      <trkpt lat="47.42481" lon="6.55126">
        <ele>284.60000610352</ele>
        <time>2019-09-10T13:12:22Z</time>
      </trkpt>
      <trkpt lat="47.42477" lon="6.55146">
        <ele>284</ele>
        <time>2019-09-10T13:12:25Z</time>
      </trkpt>
      <trkpt lat="47.42471" lon="6.55175">
        <ele>283.79998779297</ele>
        <time>2019-09-10T13:12:29Z</time>
      </trkpt>
      <trkpt lat="47.42462" lon="6.55233">
        <ele>283.39999389648</ele>
        <time>2019-09-10T13:12:37Z</time>
      </trkpt>
      <trkpt lat="47.4245" lon="6.55279">
        <ele>283</ele>
        <time>2019-09-10T13:12:44Z</time>
      </trkpt>
      <trkpt lat="47.42448" lon="6.55286">
        <ele>282.79998779297</ele>
        <time>2019-09-10T13:12:45Z</time>
      </trkpt>
      <trkpt lat="47.42445" lon="6.55293">
        <ele>282.79998779297</ele>
        <time>2019-09-10T13:12:46Z</time>
      </trkpt>
      <trkpt lat="47.42436" lon="6.55312">
        <ele>282.60000610352</ele>
        <time>2019-09-10T13:12:49Z</time>
      </trkpt>
      <trkpt lat="47.42409" lon="6.55361">
        <ele>282.39999389648</ele>
        <time>2019-09-10T13:12:57Z</time>
      </trkpt>
      <trkpt lat="47.42374" lon="6.55402">
        <ele>282.60000610352</ele>
        <time>2019-09-10T13:13:05Z</time>
      </trkpt>
      <trkpt lat="47.42349" lon="6.55428">
        <ele>282.39999389648</ele>
        <time>2019-09-10T13:13:11Z</time>
      </trkpt>
      <trkpt lat="47.42345" lon="6.55432">
        <ele>282.39999389648</ele>
        <time>2019-09-10T13:13:12Z</time>
      </trkpt>
      <trkpt lat="47.42325" lon="6.55451">
        <ele>282.39999389648</ele>
        <time>2019-09-10T13:13:18Z</time>
      </trkpt>
      <trkpt lat="47.42307" lon="6.5546">
        <ele>282.39999389648</ele>
        <time>2019-09-10T13:13:22Z</time>
      </trkpt>
      <trkpt lat="47.42301" lon="6.55462">
        <ele>282.39999389648</ele>
        <time>2019-09-10T13:13:23Z</time>
      </trkpt>
      <trkpt lat="47.42265" lon="6.55476">
        <ele>282.39999389648</ele>
        <time>2019-09-10T13:13:30Z</time>
      </trkpt>
      <trkpt lat="47.42227" lon="6.55487">
        <ele>282.20001220703</ele>
        <time>2019-09-10T13:13:37Z</time>
      </trkpt>
      <trkpt lat="47.42205" lon="6.55493">
        <ele>282.20001220703</ele>
        <time>2019-09-10T13:13:41Z</time>
      </trkpt>
      <trkpt lat="47.42196" lon="6.55499">
        <ele>282.20001220703</ele>
        <time>2019-09-10T13:13:43Z</time>
      </trkpt>
      <trkpt lat="47.4217" lon="6.55507">
        <ele>282.20001220703</ele>
        <time>2019-09-10T13:13:49Z</time>
      </trkpt>
      <trkpt lat="47.42143" lon="6.55504">
        <ele>282.20001220703</ele>
        <time>2019-09-10T13:13:55Z</time>
      </trkpt>
      <trkpt lat="47.42109" lon="6.55506">
        <ele>282</ele>
        <time>2019-09-10T13:14:02Z</time>
      </trkpt>
      <trkpt lat="47.42078" lon="6.5551">
        <ele>282.20001220703</ele>
        <time>2019-09-10T13:14:09Z</time>
      </trkpt>
      <trkpt lat="47.42071" lon="6.55511">
        <ele>282.20001220703</ele>
        <time>2019-09-10T13:14:12Z</time>
      </trkpt>
      <trkpt lat="47.42071" lon="6.55511">
        <ele>282.20001220703</ele>
        <time>2019-09-10T13:14:13Z</time>
      </trkpt>
      <trkpt lat="47.42069" lon="6.55511">
        <ele>282.20001220703</ele>
        <time>2019-09-10T13:14:38Z</time>
      </trkpt>
      <trkpt lat="47.42066" lon="6.5551">
        <ele>282.20001220703</ele>
        <time>2019-09-10T13:14:40Z</time>
      </trkpt>
      <trkpt lat="47.42052" lon="6.55513">
        <ele>282.20001220703</ele>
        <time>2019-09-10T13:14:44Z</time>
      </trkpt>
      <trkpt lat="47.42023" lon="6.55513">
        <ele>282.20001220703</ele>
        <time>2019-09-10T13:14:50Z</time>
      </trkpt>
      <trkpt lat="47.41977" lon="6.55516">
        <ele>282</ele>
        <time>2019-09-10T13:14:59Z</time>
      </trkpt>
      <trkpt lat="47.41935" lon="6.55515">
        <ele>282</ele>
        <time>2019-09-10T13:15:07Z</time>
      </trkpt>
      <trkpt lat="47.41887" lon="6.55506">
        <ele>282.39999389648</ele>
        <time>2019-09-10T13:15:16Z</time>
      </trkpt>
      <trkpt lat="47.41854" lon="6.55495">
        <ele>282.39999389648</ele>
        <time>2019-09-10T13:15:22Z</time>
      </trkpt>
      <trkpt lat="47.41806" lon="6.55469">
        <ele>282.60000610352</ele>
        <time>2019-09-10T13:15:31Z</time>
      </trkpt>
      <trkpt lat="47.41765" lon="6.55434">
        <ele>282.60000610352</ele>
        <time>2019-09-10T13:15:39Z</time>
      </trkpt>
      <trkpt lat="47.4173" lon="6.5539">
        <ele>282.60000610352</ele>
        <time>2019-09-10T13:15:47Z</time>
      </trkpt>
      <trkpt lat="47.41702" lon="6.55347">
        <ele>282.60000610352</ele>
        <time>2019-09-10T13:15:54Z</time>
      </trkpt>
      <trkpt lat="47.41678" lon="6.55299">
        <ele>282.60000610352</ele>
        <time>2019-09-10T13:16:01Z</time>
      </trkpt>
      <trkpt lat="47.41651" lon="6.55235">
        <ele>282.79998779297</ele>
        <time>2019-09-10T13:16:10Z</time>
      </trkpt>
      <trkpt lat="47.41638" lon="6.55198">
        <ele>282.79998779297</ele>
        <time>2019-09-10T13:16:15Z</time>
      </trkpt>
      <trkpt lat="47.41625" lon="6.55159">
        <ele>282.79998779297</ele>
        <time>2019-09-10T13:16:20Z</time>
      </trkpt>
      <trkpt lat="47.41607" lon="6.55087">
        <ele>282.60000610352</ele>
        <time>2019-09-10T13:16:29Z</time>
      </trkpt>
      <trkpt lat="47.41597" lon="6.55021">
        <ele>282.39999389648</ele>
        <time>2019-09-10T13:16:37Z</time>
      </trkpt>
      <trkpt lat="47.41587" lon="6.54936">
        <ele>282.39999389648</ele>
        <time>2019-09-10T13:16:47Z</time>
      </trkpt>
      <trkpt lat="47.41586" lon="6.54919">
        <ele>282.39999389648</ele>
        <time>2019-09-10T13:16:49Z</time>
      </trkpt>
      <trkpt lat="47.41583" lon="6.54845">
        <ele>282.39999389648</ele>
        <time>2019-09-10T13:16:58Z</time>
      </trkpt>
      <trkpt lat="47.41585" lon="6.54762">
        <ele>282.39999389648</ele>
        <time>2019-09-10T13:17:08Z</time>
      </trkpt>
      <trkpt lat="47.41585" lon="6.54754">
        <ele>282.39999389648</ele>
        <time>2019-09-10T13:17:09Z</time>
      </trkpt>
      <trkpt lat="47.41587" lon="6.54669">
        <ele>282.39999389648</ele>
        <time>2019-09-10T13:17:19Z</time>
      </trkpt>
      <trkpt lat="47.41587" lon="6.54584">
        <ele>282.20001220703</ele>
        <time>2019-09-10T13:17:29Z</time>
      </trkpt>
      <trkpt lat="47.41588" lon="6.54535">
        <ele>282.39999389648</ele>
        <time>2019-09-10T13:17:35Z</time>
      </trkpt>
      <trkpt lat="47.41591" lon="6.54458">
        <ele>282.20001220703</ele>
        <time>2019-09-10T13:17:44Z</time>
      </trkpt>
      <trkpt lat="47.41591" lon="6.54433">
        <ele>282.20001220703</ele>
        <time>2019-09-10T13:17:47Z</time>
      </trkpt>
      <trkpt lat="47.41592" lon="6.54411">
        <ele>282.20001220703</ele>
        <time>2019-09-10T13:17:50Z</time>
      </trkpt>
      <trkpt lat="47.41592" lon="6.54348">
        <ele>282.39999389648</ele>
        <time>2019-09-10T13:17:58Z</time>
      </trkpt>
      <trkpt lat="47.41595" lon="6.54279">
        <ele>282.39999389648</ele>
        <time>2019-09-10T13:18:07Z</time>
      </trkpt>
      <trkpt lat="47.41595" lon="6.54253">
        <ele>282.39999389648</ele>
        <time>2019-09-10T13:18:12Z</time>
      </trkpt>
      <trkpt lat="47.41595" lon="6.54249">
        <ele>282.60000610352</ele>
        <time>2019-09-10T13:18:15Z</time>
      </trkpt>
      <trkpt lat="47.41595" lon="6.54247">
        <ele>282.39999389648</ele>
        <time>2019-09-10T13:18:35Z</time>
      </trkpt>
      <trkpt lat="47.41593" lon="6.54238">
        <ele>282.39999389648</ele>
        <time>2019-09-10T13:18:38Z</time>
      </trkpt>
      <trkpt lat="47.41591" lon="6.54208">
        <ele>282.39999389648</ele>
        <time>2019-09-10T13:18:46Z</time>
      </trkpt>
      <trkpt lat="47.41592" lon="6.54197">
        <ele>282.20001220703</ele>
        <time>2019-09-10T13:18:49Z</time>
      </trkpt>
      <trkpt lat="47.41594" lon="6.54172">
        <ele>282.20001220703</ele>
        <time>2019-09-10T13:18:55Z</time>
      </trkpt>
      <trkpt lat="47.41598" lon="6.5414">
        <ele>282</ele>
        <time>2019-09-10T13:19:01Z</time>
      </trkpt>
      <trkpt lat="47.416" lon="6.5409">
        <ele>282</ele>
        <time>2019-09-10T13:19:07Z</time>
      </trkpt>
      <trkpt lat="47.41599" lon="6.54066">
        <ele>281</ele>
        <time>2019-09-10T13:19:10Z</time>
      </trkpt>
      <trkpt lat="47.41599" lon="6.54051">
        <ele>280.20001220703</ele>
        <time>2019-09-10T13:19:12Z</time>
      </trkpt>
      <trkpt lat="47.416" lon="6.54043">
        <ele>280</ele>
        <time>2019-09-10T13:19:13Z</time>
      </trkpt>
      <trkpt lat="47.41602" lon="6.53982">
        <ele>279.79998779297</ele>
        <time>2019-09-10T13:19:21Z</time>
      </trkpt>
      <trkpt lat="47.41603" lon="6.5392">
        <ele>279.79998779297</ele>
        <time>2019-09-10T13:19:29Z</time>
      </trkpt>
      <trkpt lat="47.41604" lon="6.53863">
        <ele>280</ele>
        <time>2019-09-10T13:19:36Z</time>
      </trkpt>
      <trkpt lat="47.41606" lon="6.5378">
        <ele>279.79998779297</ele>
        <time>2019-09-10T13:19:46Z</time>
      </trkpt>
      <trkpt lat="47.41606" lon="6.53771">
        <ele>279.79998779297</ele>
        <time>2019-09-10T13:19:47Z</time>
      </trkpt>
      <trkpt lat="47.41607" lon="6.53686">
        <ele>279.79998779297</ele>
        <time>2019-09-10T13:19:57Z</time>
      </trkpt>
      <trkpt lat="47.41607" lon="6.53668">
        <ele>279.79998779297</ele>
        <time>2019-09-10T13:19:59Z</time>
      </trkpt>
      <trkpt lat="47.41609" lon="6.53589">
        <ele>279.79998779297</ele>
        <time>2019-09-10T13:20:08Z</time>
      </trkpt>
      <trkpt lat="47.4161" lon="6.53509">
        <ele>279.79998779297</ele>
        <time>2019-09-10T13:20:17Z</time>
      </trkpt>
      <trkpt lat="47.41611" lon="6.535">
        <ele>279.79998779297</ele>
        <time>2019-09-10T13:20:18Z</time>
      </trkpt>
      <trkpt lat="47.41612" lon="6.53412">
        <ele>279.79998779297</ele>
        <time>2019-09-10T13:20:28Z</time>
      </trkpt>
      <trkpt lat="47.41613" lon="6.53332">
        <ele>279.79998779297</ele>
        <time>2019-09-10T13:20:37Z</time>
      </trkpt>
      <trkpt lat="47.41613" lon="6.53323">
        <ele>279.79998779297</ele>
        <time>2019-09-10T13:20:38Z</time>
      </trkpt>
      <trkpt lat="47.41615" lon="6.53244">
        <ele>279.79998779297</ele>
        <time>2019-09-10T13:20:47Z</time>
      </trkpt>
      <trkpt lat="47.41616" lon="6.53174">
        <ele>279.60000610352</ele>
        <time>2019-09-10T13:20:55Z</time>
      </trkpt>
      <trkpt lat="47.41618" lon="6.53104">
        <ele>279.60000610352</ele>
        <time>2019-09-10T13:21:03Z</time>
      </trkpt>
      <trkpt lat="47.4162" lon="6.53023">
        <ele>280</ele>
        <time>2019-09-10T13:21:12Z</time>
      </trkpt>
      <trkpt lat="47.41621" lon="6.52942">
        <ele>280.20001220703</ele>
        <time>2019-09-10T13:21:21Z</time>
      </trkpt>
      <trkpt lat="47.41622" lon="6.52933">
        <ele>280.20001220703</ele>
        <time>2019-09-10T13:21:22Z</time>
      </trkpt>
      <trkpt lat="47.41622" lon="6.52851">
        <ele>280.20001220703</ele>
        <time>2019-09-10T13:21:31Z</time>
      </trkpt>
      <trkpt lat="47.41623" lon="6.52833">
        <ele>280.20001220703</ele>
        <time>2019-09-10T13:21:33Z</time>
      </trkpt>
      <trkpt lat="47.41625" lon="6.52752">
        <ele>280.20001220703</ele>
        <time>2019-09-10T13:21:42Z</time>
      </trkpt>
      <trkpt lat="47.41625" lon="6.52743">
        <ele>280.20001220703</ele>
        <time>2019-09-10T13:21:43Z</time>
      </trkpt>
      <trkpt lat="47.41626" lon="6.5267">
        <ele>280.20001220703</ele>
        <time>2019-09-10T13:21:51Z</time>
      </trkpt>
      <trkpt lat="47.41628" lon="6.52597">
        <ele>280.20001220703</ele>
        <time>2019-09-10T13:21:59Z</time>
      </trkpt>
      <trkpt lat="47.41629" lon="6.52527">
        <ele>280.39999389648</ele>
        <time>2019-09-10T13:22:07Z</time>
      </trkpt>
      <trkpt lat="47.4163" lon="6.52492">
        <ele>280</ele>
        <time>2019-09-10T13:22:11Z</time>
      </trkpt>
      <trkpt lat="47.41631" lon="6.52439">
        <ele>280</ele>
        <time>2019-09-10T13:22:17Z</time>
      </trkpt>
      <trkpt lat="47.41632" lon="6.52359">
        <ele>280</ele>
        <time>2019-09-10T13:22:26Z</time>
      </trkpt>
      <trkpt lat="47.41634" lon="6.52273">
        <ele>280</ele>
        <time>2019-09-10T13:22:36Z</time>
      </trkpt>
      <trkpt lat="47.41635" lon="6.52218">
        <ele>280</ele>
        <time>2019-09-10T13:22:43Z</time>
      </trkpt>
      <trkpt lat="47.41636" lon="6.5216">
        <ele>280.39999389648</ele>
        <time>2019-09-10T13:22:51Z</time>
      </trkpt>
      <trkpt lat="47.41636" lon="6.52138">
        <ele>280.39999389648</ele>
        <time>2019-09-10T13:22:54Z</time>
      </trkpt>
      <trkpt lat="47.41633" lon="6.5211">
        <ele>281</ele>
        <time>2019-09-10T13:22:58Z</time>
      </trkpt>
      <trkpt lat="47.41634" lon="6.52078">
        <ele>281.20001220703</ele>
        <time>2019-09-10T13:23:02Z</time>
      </trkpt>
      <trkpt lat="47.41635" lon="6.5207">
        <ele>281.20001220703</ele>
        <time>2019-09-10T13:23:03Z</time>
      </trkpt>
      <trkpt lat="47.41637" lon="6.52036">
        <ele>281.20001220703</ele>
        <time>2019-09-10T13:23:08Z</time>
      </trkpt>
      <trkpt lat="47.41642" lon="6.51987">
        <ele>280.79998779297</ele>
        <time>2019-09-10T13:23:15Z</time>
      </trkpt>
      <trkpt lat="47.41651" lon="6.51936">
        <ele>280.39999389648</ele>
        <time>2019-09-10T13:23:21Z</time>
      </trkpt>
      <trkpt lat="47.41654" lon="6.51919">
        <ele>280</ele>
        <time>2019-09-10T13:23:23Z</time>
      </trkpt>
      <trkpt lat="47.4166" lon="6.51876">
        <ele>279</ele>
        <time>2019-09-10T13:23:28Z</time>
      </trkpt>
      <trkpt lat="47.41662" lon="6.51868">
        <ele>279</ele>
        <time>2019-09-10T13:23:29Z</time>
      </trkpt>
      <trkpt lat="47.41667" lon="6.51824">
        <ele>279</ele>
        <time>2019-09-10T13:23:34Z</time>
      </trkpt>
      <trkpt lat="47.41668" lon="6.5177">
        <ele>279.39999389648</ele>
        <time>2019-09-10T13:23:40Z</time>
      </trkpt>
      <trkpt lat="47.41663" lon="6.51709">
        <ele>280</ele>
        <time>2019-09-10T13:23:47Z</time>
      </trkpt>
      <trkpt lat="47.41659" lon="6.51685">
        <ele>280.20001220703</ele>
        <time>2019-09-10T13:23:50Z</time>
      </trkpt>
      <trkpt lat="47.41649" lon="6.51648">
        <ele>280.20001220703</ele>
        <time>2019-09-10T13:23:55Z</time>
      </trkpt>
      <trkpt lat="47.41628" lon="6.51583">
        <ele>279.39999389648</ele>
        <time>2019-09-10T13:24:04Z</time>
      </trkpt>
      <trkpt lat="47.41607" lon="6.51537">
        <ele>279.39999389648</ele>
        <time>2019-09-10T13:24:11Z</time>
      </trkpt>
      <trkpt lat="47.4158" lon="6.51491">
        <ele>279.79998779297</ele>
        <time>2019-09-10T13:24:19Z</time>
      </trkpt>
      <trkpt lat="47.41552" lon="6.5144">
        <ele>279.79998779297</ele>
        <time>2019-09-10T13:24:27Z</time>
      </trkpt>
      <trkpt lat="47.41528" lon="6.51395">
        <ele>279.60000610352</ele>
        <time>2019-09-10T13:24:34Z</time>
      </trkpt>
      <trkpt lat="47.41521" lon="6.51382">
        <ele>279.60000610352</ele>
        <time>2019-09-10T13:24:36Z</time>
      </trkpt>
      <trkpt lat="47.41505" lon="6.51359">
        <ele>279.60000610352</ele>
        <time>2019-09-10T13:24:40Z</time>
      </trkpt>
      <trkpt lat="47.41474" lon="6.51321">
        <ele>279.60000610352</ele>
        <time>2019-09-10T13:24:47Z</time>
      </trkpt>
      <trkpt lat="47.4143" lon="6.51281">
        <ele>279.79998779297</ele>
        <time>2019-09-10T13:24:56Z</time>
      </trkpt>
      <trkpt lat="47.41384" lon="6.5125">
        <ele>279.79998779297</ele>
        <time>2019-09-10T13:25:05Z</time>
      </trkpt>
      <trkpt lat="47.41337" lon="6.51226">
        <ele>279.60000610352</ele>
        <time>2019-09-10T13:25:14Z</time>
      </trkpt>
      <trkpt lat="47.41299" lon="6.51211">
        <ele>279.60000610352</ele>
        <time>2019-09-10T13:25:21Z</time>
      </trkpt>
      <trkpt lat="47.41244" lon="6.51195">
        <ele>279.60000610352</ele>
        <time>2019-09-10T13:25:31Z</time>
      </trkpt>
      <trkpt lat="47.41239" lon="6.51194">
        <ele>279.60000610352</ele>
        <time>2019-09-10T13:25:32Z</time>
      </trkpt>
      <trkpt lat="47.41219" lon="6.51187">
        <ele>279.60000610352</ele>
        <time>2019-09-10T13:25:36Z</time>
      </trkpt>
      <trkpt lat="47.41208" lon="6.51184">
        <ele>279.39999389648</ele>
        <time>2019-09-10T13:25:38Z</time>
      </trkpt>
      <trkpt lat="47.41199" lon="6.51182">
        <ele>279.39999389648</ele>
        <time>2019-09-10T13:25:40Z</time>
      </trkpt>
      <trkpt lat="47.41182" lon="6.51178">
        <ele>279.39999389648</ele>
        <time>2019-09-10T13:25:44Z</time>
      </trkpt>
      <trkpt lat="47.41142" lon="6.51169">
        <ele>279.39999389648</ele>
        <time>2019-09-10T13:25:52Z</time>
      </trkpt>
      <trkpt lat="47.4109" lon="6.51158">
        <ele>279.60000610352</ele>
        <time>2019-09-10T13:26:02Z</time>
      </trkpt>
      <trkpt lat="47.41049" lon="6.51152">
        <ele>279.39999389648</ele>
        <time>2019-09-10T13:26:10Z</time>
      </trkpt>
      <trkpt lat="47.41006" lon="6.51145">
        <ele>279</ele>
        <time>2019-09-10T13:26:18Z</time>
      </trkpt>
      <trkpt lat="47.40962" lon="6.51143">
        <ele>279</ele>
        <time>2019-09-10T13:26:26Z</time>
      </trkpt>
      <trkpt lat="47.40907" lon="6.51138">
        <ele>279</ele>
        <time>2019-09-10T13:26:36Z</time>
      </trkpt>
      <trkpt lat="47.40867" lon="6.51134">
        <ele>279</ele>
        <time>2019-09-10T13:26:43Z</time>
      </trkpt>
      <trkpt lat="47.40811" lon="6.51127">
        <ele>279.39999389648</ele>
        <time>2019-09-10T13:26:53Z</time>
      </trkpt>
      <trkpt lat="47.40795" lon="6.51126">
        <ele>279.20001220703</ele>
        <time>2019-09-10T13:26:56Z</time>
      </trkpt>
      <trkpt lat="47.40749" lon="6.51123">
        <ele>279</ele>
        <time>2019-09-10T13:27:04Z</time>
      </trkpt>
      <trkpt lat="47.40744" lon="6.51123">
        <ele>279</ele>
        <time>2019-09-10T13:27:05Z</time>
      </trkpt>
      <trkpt lat="47.40705" lon="6.51118">
        <ele>278.79998779297</ele>
        <time>2019-09-10T13:27:12Z</time>
      </trkpt>
      <trkpt lat="47.4065" lon="6.51113">
        <ele>278.60000610352</ele>
        <time>2019-09-10T13:27:22Z</time>
      </trkpt>
      <trkpt lat="47.40597" lon="6.51111">
        <ele>278.60000610352</ele>
        <time>2019-09-10T13:27:32Z</time>
      </trkpt>
      <trkpt lat="47.40566" lon="6.51111">
        <ele>278.60000610352</ele>
        <time>2019-09-10T13:27:38Z</time>
      </trkpt>
      <trkpt lat="47.40511" lon="6.51112">
        <ele>278.39999389648</ele>
        <time>2019-09-10T13:27:48Z</time>
      </trkpt>
      <trkpt lat="47.40467" lon="6.51108">
        <ele>278.20001220703</ele>
        <time>2019-09-10T13:27:56Z</time>
      </trkpt>
      <trkpt lat="47.40418" lon="6.51094">
        <ele>278.20001220703</ele>
        <time>2019-09-10T13:28:05Z</time>
      </trkpt>
      <trkpt lat="47.40386" lon="6.51078">
        <ele>278.20001220703</ele>
        <time>2019-09-10T13:28:11Z</time>
      </trkpt>
      <trkpt lat="47.40348" lon="6.51051">
        <ele>278.20001220703</ele>
        <time>2019-09-10T13:28:19Z</time>
      </trkpt>
      <trkpt lat="47.40336" lon="6.51042">
        <ele>278.20001220703</ele>
        <time>2019-09-10T13:28:22Z</time>
      </trkpt>
      <trkpt lat="47.40321" lon="6.5103">
        <ele>278.39999389648</ele>
        <time>2019-09-10T13:28:26Z</time>
      </trkpt>
      <trkpt lat="47.40296" lon="6.51011">
        <ele>278.39999389648</ele>
        <time>2019-09-10T13:28:33Z</time>
      </trkpt>
      <trkpt lat="47.4028" lon="6.51">
        <ele>278.39999389648</ele>
        <time>2019-09-10T13:28:39Z</time>
      </trkpt>
      <trkpt lat="47.40279" lon="6.50998">
        <ele>278.39999389648</ele>
        <time>2019-09-10T13:28:42Z</time>
      </trkpt>
      <trkpt lat="47.40277" lon="6.50998">
        <ele>278.39999389648</ele>
        <time>2019-09-10T13:29:11Z</time>
      </trkpt>
      <trkpt lat="47.40268" lon="6.50992">
        <ele>278.20001220703</ele>
        <time>2019-09-10T13:29:15Z</time>
      </trkpt>
      <trkpt lat="47.40249" lon="6.50978">
        <ele>278.20001220703</ele>
        <time>2019-09-10T13:29:21Z</time>
      </trkpt>
      <trkpt lat="47.40211" lon="6.50951">
        <ele>278.39999389648</ele>
        <time>2019-09-10T13:29:31Z</time>
      </trkpt>
      <trkpt lat="47.40178" lon="6.50927">
        <ele>278.20001220703</ele>
        <time>2019-09-10T13:29:39Z</time>
      </trkpt>
      <trkpt lat="47.40149" lon="6.50906">
        <ele>277.79998779297</ele>
        <time>2019-09-10T13:29:46Z</time>
      </trkpt>
      <trkpt lat="47.40117" lon="6.50883">
        <ele>277.79998779297</ele>
        <time>2019-09-10T13:29:53Z</time>
      </trkpt>
      <trkpt lat="47.40086" lon="6.5086">
        <ele>278</ele>
        <time>2019-09-10T13:30:00Z</time>
      </trkpt>
      <trkpt lat="47.40046" lon="6.50829">
        <ele>278</ele>
        <time>2019-09-10T13:30:09Z</time>
      </trkpt>
      <trkpt lat="47.40004" lon="6.50799">
        <ele>278</ele>
        <time>2019-09-10T13:30:18Z</time>
      </trkpt>
      <trkpt lat="47.39962" lon="6.50767">
        <ele>278</ele>
        <time>2019-09-10T13:30:27Z</time>
      </trkpt>
      <trkpt lat="47.39915" lon="6.50728">
        <ele>278</ele>
        <time>2019-09-10T13:30:37Z</time>
      </trkpt>
      <trkpt lat="47.3988" lon="6.50694">
        <ele>278</ele>
        <time>2019-09-10T13:30:45Z</time>
      </trkpt>
      <trkpt lat="47.39841" lon="6.50657">
        <ele>278</ele>
        <time>2019-09-10T13:30:54Z</time>
      </trkpt>
      <trkpt lat="47.39811" lon="6.50626">
        <ele>278</ele>
        <time>2019-09-10T13:31:01Z</time>
      </trkpt>
      <trkpt lat="47.39781" lon="6.50586">
        <ele>278</ele>
        <time>2019-09-10T13:31:09Z</time>
      </trkpt>
      <trkpt lat="47.39759" lon="6.50555">
        <ele>278.20001220703</ele>
        <time>2019-09-10T13:31:15Z</time>
      </trkpt>
      <trkpt lat="47.39756" lon="6.5055">
        <ele>278.20001220703</ele>
        <time>2019-09-10T13:31:16Z</time>
      </trkpt>
      <trkpt lat="47.39738" lon="6.50504">
        <ele>278.20001220703</ele>
        <time>2019-09-10T13:31:23Z</time>
      </trkpt>
      <trkpt lat="47.39733" lon="6.50482">
        <ele>278</ele>
        <time>2019-09-10T13:31:26Z</time>
      </trkpt>
      <trkpt lat="47.39732" lon="6.50467">
        <ele>278</ele>
        <time>2019-09-10T13:31:28Z</time>
      </trkpt>
      <trkpt lat="47.39734" lon="6.50441">
        <ele>278.20001220703</ele>
        <time>2019-09-10T13:31:32Z</time>
      </trkpt>
      <trkpt lat="47.39736" lon="6.50428">
        <ele>278.20001220703</ele>
        <time>2019-09-10T13:31:34Z</time>
      </trkpt>
      <trkpt lat="47.39741" lon="6.5038">
        <ele>278.39999389648</ele>
        <time>2019-09-10T13:31:41Z</time>
      </trkpt>
      <trkpt lat="47.39746" lon="6.50321">
        <ele>278.60000610352</ele>
        <time>2019-09-10T13:31:49Z</time>
      </trkpt>
      <trkpt lat="47.39751" lon="6.50279">
        <ele>278.79998779297</ele>
        <time>2019-09-10T13:31:55Z</time>
      </trkpt>
      <trkpt lat="47.39756" lon="6.50229">
        <ele>278.79998779297</ele>
        <time>2019-09-10T13:32:02Z</time>
      </trkpt>
      <trkpt lat="47.39764" lon="6.50149">
        <ele>278.60000610352</ele>
        <time>2019-09-10T13:32:13Z</time>
      </trkpt>
      <trkpt lat="47.39766" lon="6.5012">
        <ele>278.79998779297</ele>
        <time>2019-09-10T13:32:17Z</time>
      </trkpt>
      <trkpt lat="47.39767" lon="6.50099">
        <ele>278.79998779297</ele>
        <time>2019-09-10T13:32:20Z</time>
      </trkpt>
      <trkpt lat="47.39767" lon="6.50072">
        <ele>279</ele>
        <time>2019-09-10T13:32:24Z</time>
      </trkpt>
      <trkpt lat="47.39766" lon="6.50057">
        <ele>279.20001220703</ele>
        <time>2019-09-10T13:32:26Z</time>
      </trkpt>
      <trkpt lat="47.39752" lon="6.49989">
        <ele>279.39999389648</ele>
        <time>2019-09-10T13:32:35Z</time>
      </trkpt>
      <trkpt lat="47.39733" lon="6.49937">
        <ele>279.39999389648</ele>
        <time>2019-09-10T13:32:43Z</time>
      </trkpt>
      <trkpt lat="47.3972" lon="6.49902">
        <ele>279.60000610352</ele>
        <time>2019-09-10T13:32:49Z</time>
      </trkpt>
      <trkpt lat="47.39708" lon="6.49873">
        <ele>279.60000610352</ele>
        <time>2019-09-10T13:32:54Z</time>
      </trkpt>
      <trkpt lat="47.39704" lon="6.49861">
        <ele>279.60000610352</ele>
        <time>2019-09-10T13:32:56Z</time>
      </trkpt>
      <trkpt lat="47.39683" lon="6.4982">
        <ele>279.60000610352</ele>
        <time>2019-09-10T13:33:04Z</time>
      </trkpt>
      <trkpt lat="47.39668" lon="6.49785">
        <ele>279.60000610352</ele>
        <time>2019-09-10T13:33:10Z</time>
      </trkpt>
      <trkpt lat="47.39646" lon="6.49733">
        <ele>279.39999389648</ele>
        <time>2019-09-10T13:33:18Z</time>
      </trkpt>
      <trkpt lat="47.39643" lon="6.49727">
        <ele>279.39999389648</ele>
        <time>2019-09-10T13:33:19Z</time>
      </trkpt>
      <trkpt lat="47.39627" lon="6.49698">
        <ele>279.20001220703</ele>
        <time>2019-09-10T13:33:23Z</time>
      </trkpt>
      <trkpt lat="47.39606" lon="6.49655">
        <ele>278.60000610352</ele>
        <time>2019-09-10T13:33:29Z</time>
      </trkpt>
      <trkpt lat="47.39599" lon="6.49642">
        <ele>278.20001220703</ele>
        <time>2019-09-10T13:33:31Z</time>
      </trkpt>
      <trkpt lat="47.39587" lon="6.49617">
        <ele>277.79998779297</ele>
        <time>2019-09-10T13:33:35Z</time>
      </trkpt>
      <trkpt lat="47.39555" lon="6.49557">
        <ele>277.79998779297</ele>
        <time>2019-09-10T13:33:45Z</time>
      </trkpt>
      <trkpt lat="47.39524" lon="6.49506">
        <ele>277.60000610352</ele>
        <time>2019-09-10T13:33:54Z</time>
      </trkpt>
      <trkpt lat="47.39493" lon="6.49456">
        <ele>277.60000610352</ele>
        <time>2019-09-10T13:34:03Z</time>
      </trkpt>
      <trkpt lat="47.39478" lon="6.49435">
        <ele>277.60000610352</ele>
        <time>2019-09-10T13:34:07Z</time>
      </trkpt>
      <trkpt lat="47.3947" lon="6.49426">
        <ele>277.60000610352</ele>
        <time>2019-09-10T13:34:09Z</time>
      </trkpt>
      <trkpt lat="47.39445" lon="6.494">
        <ele>277.39999389648</ele>
        <time>2019-09-10T13:34:15Z</time>
      </trkpt>
      <trkpt lat="47.39412" lon="6.4938">
        <ele>277.20001220703</ele>
        <time>2019-09-10T13:34:22Z</time>
      </trkpt>
      <trkpt lat="47.39407" lon="6.49379">
        <ele>277.20001220703</ele>
        <time>2019-09-10T13:34:23Z</time>
      </trkpt>
      <trkpt lat="47.39402" lon="6.49378">
        <ele>277.20001220703</ele>
        <time>2019-09-10T13:34:24Z</time>
      </trkpt>
      <trkpt lat="47.39389" lon="6.49374">
        <ele>277.20001220703</ele>
        <time>2019-09-10T13:34:27Z</time>
      </trkpt>
      <trkpt lat="47.39386" lon="6.49372">
        <ele>277.20001220703</ele>
        <time>2019-09-10T13:34:28Z</time>
      </trkpt>
      <trkpt lat="47.39377" lon="6.49364">
        <ele>277.20001220703</ele>
        <time>2019-09-10T13:34:31Z</time>
      </trkpt>
      <trkpt lat="47.3937" lon="6.49362">
        <ele>277.20001220703</ele>
        <time>2019-09-10T13:34:33Z</time>
      </trkpt>
      <trkpt lat="47.39337" lon="6.49365">
        <ele>277.39999389648</ele>
        <time>2019-09-10T13:34:40Z</time>
      </trkpt>
      <trkpt lat="47.39299" lon="6.49371">
        <ele>277.60000610352</ele>
        <time>2019-09-10T13:34:48Z</time>
      </trkpt>
      <trkpt lat="47.39257" lon="6.49375">
        <ele>277.60000610352</ele>
        <time>2019-09-10T13:34:57Z</time>
      </trkpt>
      <trkpt lat="47.39243" lon="6.49377">
        <ele>277.60000610352</ele>
        <time>2019-09-10T13:35:00Z</time>
      </trkpt>
      <trkpt lat="47.39231" lon="6.49384">
        <ele>277.60000610352</ele>
        <time>2019-09-10T13:35:03Z</time>
      </trkpt>
      <trkpt lat="47.39228" lon="6.49387">
        <ele>277.60000610352</ele>
        <time>2019-09-10T13:35:04Z</time>
      </trkpt>
      <trkpt lat="47.39215" lon="6.49397">
        <ele>277.60000610352</ele>
        <time>2019-09-10T13:35:08Z</time>
      </trkpt>
      <trkpt lat="47.39198" lon="6.4942">
        <ele>278.39999389648</ele>
        <time>2019-09-10T13:35:15Z</time>
      </trkpt>
      <trkpt lat="47.39196" lon="6.49423">
        <ele>278.60000610352</ele>
        <time>2019-09-10T13:35:16Z</time>
      </trkpt>
      <trkpt lat="47.39184" lon="6.49444">
        <ele>279.60000610352</ele>
        <time>2019-09-10T13:35:22Z</time>
      </trkpt>
      <trkpt lat="47.3918" lon="6.49464">
        <ele>280.79998779297</ele>
        <time>2019-09-10T13:35:27Z</time>
      </trkpt>
      <trkpt lat="47.39181" lon="6.49473">
        <ele>281</ele>
        <time>2019-09-10T13:35:29Z</time>
      </trkpt>
      <trkpt lat="47.39184" lon="6.49477">
        <ele>281.20001220703</ele>
        <time>2019-09-10T13:35:30Z</time>
      </trkpt>
      <trkpt lat="47.39206" lon="6.49509">
        <ele>281.60000610352</ele>
        <time>2019-09-10T13:35:38Z</time>
      </trkpt>
      <trkpt lat="47.39227" lon="6.49542">
        <ele>281.60000610352</ele>
        <time>2019-09-10T13:35:45Z</time>
      </trkpt>
      <trkpt lat="47.39245" lon="6.49579">
        <ele>280.60000610352</ele>
        <time>2019-09-10T13:35:52Z</time>
      </trkpt>
      <trkpt lat="47.39248" lon="6.49585">
        <ele>280.39999389648</ele>
        <time>2019-09-10T13:35:53Z</time>
      </trkpt>
      <trkpt lat="47.39259" lon="6.49602">
        <ele>279.60000610352</ele>
        <time>2019-09-10T13:35:56Z</time>
      </trkpt>
      <trkpt lat="47.39262" lon="6.49607">
        <ele>279.39999389648</ele>
        <time>2019-09-10T13:35:57Z</time>
      </trkpt>
      <trkpt lat="47.39265" lon="6.49612">
        <ele>279.20001220703</ele>
        <time>2019-09-10T13:35:58Z</time>
      </trkpt>
      <trkpt lat="47.39271" lon="6.49621">
        <ele>278.60000610352</ele>
        <time>2019-09-10T13:36:00Z</time>
      </trkpt>
      <trkpt lat="47.39277" lon="6.49629">
        <ele>278.39999389648</ele>
        <time>2019-09-10T13:36:02Z</time>
      </trkpt>
      <trkpt lat="47.39288" lon="6.49653">
        <ele>278.39999389648</ele>
        <time>2019-09-10T13:36:08Z</time>
      </trkpt>
      <trkpt lat="47.39301" lon="6.49677">
        <ele>279.20001220703</ele>
        <time>2019-09-10T13:36:15Z</time>
      </trkpt>
      <trkpt lat="47.39306" lon="6.49684">
        <ele>279.60000610352</ele>
        <time>2019-09-10T13:36:17Z</time>
      </trkpt>
      <trkpt lat="47.39317" lon="6.49701">
        <ele>280.60000610352</ele>
        <time>2019-09-10T13:36:22Z</time>
      </trkpt>
      <trkpt lat="47.39326" lon="6.49713">
        <ele>281.79998779297</ele>
        <time>2019-09-10T13:36:26Z</time>
      </trkpt>
      <trkpt lat="47.39329" lon="6.49718">
        <ele>282</ele>
        <time>2019-09-10T13:36:28Z</time>
      </trkpt>
      <trkpt lat="47.39331" lon="6.49724">
        <ele>282.79998779297</ele>
        <time>2019-09-10T13:36:32Z</time>
      </trkpt>
      <trkpt lat="47.39332" lon="6.49725">
        <ele>283.60000610352</ele>
        <time>2019-09-10T13:36:49Z</time>
      </trkpt>
      <trkpt lat="47.39335" lon="6.49727">
        <ele>283.60000610352</ele>
        <time>2019-09-10T13:36:51Z</time>
      </trkpt>
      <trkpt lat="47.39338" lon="6.4973">
        <ele>283.60000610352</ele>
        <time>2019-09-10T13:36:53Z</time>
      </trkpt>
      <trkpt lat="47.39354" lon="6.49748">
        <ele>283.60000610352</ele>
        <time>2019-09-10T13:36:59Z</time>
      </trkpt>
      <trkpt lat="47.39372" lon="6.49774">
        <ele>283.60000610352</ele>
        <time>2019-09-10T13:37:06Z</time>
      </trkpt>
      <trkpt lat="47.39385" lon="6.49798">
        <ele>283</ele>
        <time>2019-09-10T13:37:12Z</time>
      </trkpt>
      <trkpt lat="47.39394" lon="6.49818">
        <ele>282.39999389648</ele>
        <time>2019-09-10T13:37:16Z</time>
      </trkpt>
      <trkpt lat="47.39398" lon="6.49829">
        <ele>282.20001220703</ele>
        <time>2019-09-10T13:37:18Z</time>
      </trkpt>
      <trkpt lat="47.3941" lon="6.49849">
        <ele>281.60000610352</ele>
        <time>2019-09-10T13:37:22Z</time>
      </trkpt>
      <trkpt lat="47.39414" lon="6.49849">
        <ele>281.39999389648</ele>
        <time>2019-09-10T13:37:23Z</time>
      </trkpt>
      <trkpt lat="47.39422" lon="6.49845">
        <ele>281.39999389648</ele>
        <time>2019-09-10T13:37:25Z</time>
      </trkpt>
      <trkpt lat="47.39426" lon="6.49842">
        <ele>281.20001220703</ele>
        <time>2019-09-10T13:37:26Z</time>
      </trkpt>
      <trkpt lat="47.39433" lon="6.49837">
        <ele>281</ele>
        <time>2019-09-10T13:37:28Z</time>
      </trkpt>
      <trkpt lat="47.39438" lon="6.49823">
        <ele>280.60000610352</ele>
        <time>2019-09-10T13:37:32Z</time>
      </trkpt>
      <trkpt lat="47.39438" lon="6.4982">
        <ele>280.20001220703</ele>
        <time>2019-09-10T13:37:33Z</time>
      </trkpt>
      <trkpt lat="47.39437" lon="6.49816">
        <ele>278.79998779297</ele>
        <time>2019-09-10T13:37:36Z</time>
      </trkpt>
      <trkpt lat="47.39437" lon="6.49816">
        <ele>278.60000610352</ele>
        <time>2019-09-10T13:37:37Z</time>
      </trkpt>
      <trkpt lat="47.39244" lon="6.49787">
        <ele>324</ele>
        <time>2019-09-11T07:19:15Z</time>
      </trkpt>
      <trkpt lat="47.39242" lon="6.4979">
        <ele>324</ele>
        <time>2019-09-11T07:19:16Z</time>
      </trkpt>
      <trkpt lat="47.39241" lon="6.49793">
        <ele>324</ele>
        <time>2019-09-11T07:19:17Z</time>
      </trkpt>
      <trkpt lat="47.3924" lon="6.49795">
        <ele>324.20001220703</ele>
        <time>2019-09-11T07:19:18Z</time>
      </trkpt>
      <trkpt lat="47.39233" lon="6.49807">
        <ele>324.39999389648</ele>
        <time>2019-09-11T07:19:22Z</time>
      </trkpt>
      <trkpt lat="47.39219" lon="6.49825">
        <ele>325.39999389648</ele>
        <time>2019-09-11T07:19:28Z</time>
      </trkpt>
      <trkpt lat="47.39208" lon="6.49839">
        <ele>325.39999389648</ele>
        <time>2019-09-11T07:19:33Z</time>
      </trkpt>
      <trkpt lat="47.39193" lon="6.49853">
        <ele>326</ele>
        <time>2019-09-11T07:19:40Z</time>
      </trkpt>
      <trkpt lat="47.39189" lon="6.49857">
        <ele>326.20001220703</ele>
        <time>2019-09-11T07:19:42Z</time>
      </trkpt>
      <trkpt lat="47.39178" lon="6.49867">
        <ele>327.60000610352</ele>
        <time>2019-09-11T07:19:47Z</time>
      </trkpt>
      <trkpt lat="47.39162" lon="6.49883">
        <ele>328.60000610352</ele>
        <time>2019-09-11T07:19:54Z</time>
      </trkpt>
      <trkpt lat="47.39157" lon="6.49888">
        <ele>329</ele>
        <time>2019-09-11T07:19:56Z</time>
      </trkpt>
      <trkpt lat="47.39137" lon="6.49905">
        <ele>329.60000610352</ele>
        <time>2019-09-11T07:20:04Z</time>
      </trkpt>
      <trkpt lat="47.39134" lon="6.49908">
        <ele>330</ele>
        <time>2019-09-11T07:20:05Z</time>
      </trkpt>
      <trkpt lat="47.39105" lon="6.49934">
        <ele>330.60000610352</ele>
        <time>2019-09-11T07:20:16Z</time>
      </trkpt>
      <trkpt lat="47.3909" lon="6.49949">
        <ele>331</ele>
        <time>2019-09-11T07:20:22Z</time>
      </trkpt>
      <trkpt lat="47.39082" lon="6.49955">
        <ele>331.20001220703</ele>
        <time>2019-09-11T07:20:25Z</time>
      </trkpt>
      <trkpt lat="47.39064" lon="6.49972">
        <ele>332.20001220703</ele>
        <time>2019-09-11T07:20:32Z</time>
      </trkpt>
      <trkpt lat="47.39062" lon="6.49975">
        <ele>332.39999389648</ele>
        <time>2019-09-11T07:20:33Z</time>
      </trkpt>
      <trkpt lat="47.39048" lon="6.49988">
        <ele>333.20001220703</ele>
        <time>2019-09-11T07:20:39Z</time>
      </trkpt>
      <trkpt lat="47.39046" lon="6.49991">
        <ele>333.39999389648</ele>
        <time>2019-09-11T07:20:40Z</time>
      </trkpt>
      <trkpt lat="47.39033" lon="6.50002">
        <ele>334.60000610352</ele>
        <time>2019-09-11T07:20:45Z</time>
      </trkpt>
      <trkpt lat="47.39029" lon="6.50006">
        <ele>335</ele>
        <time>2019-09-11T07:20:47Z</time>
      </trkpt>
      <trkpt lat="47.3902" lon="6.50016">
        <ele>335.60000610352</ele>
        <time>2019-09-11T07:20:51Z</time>
      </trkpt>
      <trkpt lat="47.39011" lon="6.50027">
        <ele>336</ele>
        <time>2019-09-11T07:20:55Z</time>
      </trkpt>
      <trkpt lat="47.39" lon="6.5004">
        <ele>336.79998779297</ele>
        <time>2019-09-11T07:21:00Z</time>
      </trkpt>
      <trkpt lat="47.38995" lon="6.50049">
        <ele>337.20001220703</ele>
        <time>2019-09-11T07:21:03Z</time>
      </trkpt>
      <trkpt lat="47.38988" lon="6.5006">
        <ele>338</ele>
        <time>2019-09-11T07:21:07Z</time>
      </trkpt>
      <trkpt lat="47.38984" lon="6.50066">
        <ele>338.20001220703</ele>
        <time>2019-09-11T07:21:09Z</time>
      </trkpt>
      <trkpt lat="47.38974" lon="6.50083">
        <ele>339</ele>
        <time>2019-09-11T07:21:14Z</time>
      </trkpt>
      <trkpt lat="47.3897" lon="6.5009">
        <ele>339.39999389648</ele>
        <time>2019-09-11T07:21:16Z</time>
      </trkpt>
      <trkpt lat="47.38959" lon="6.5011">
        <ele>340.39999389648</ele>
        <time>2019-09-11T07:21:22Z</time>
      </trkpt>
      <trkpt lat="47.38956" lon="6.50117">
        <ele>340.79998779297</ele>
        <time>2019-09-11T07:21:24Z</time>
      </trkpt>
      <trkpt lat="47.38946" lon="6.50132">
        <ele>341.39999389648</ele>
        <time>2019-09-11T07:21:29Z</time>
      </trkpt>
      <trkpt lat="47.38943" lon="6.50134">
        <ele>341.39999389648</ele>
        <time>2019-09-11T07:21:30Z</time>
      </trkpt>
      <trkpt lat="47.38929" lon="6.50146">
        <ele>341.60000610352</ele>
        <time>2019-09-11T07:21:34Z</time>
      </trkpt>
      <trkpt lat="47.38899" lon="6.50169">
        <ele>341.60000610352</ele>
        <time>2019-09-11T07:21:40Z</time>
      </trkpt>
      <trkpt lat="47.38863" lon="6.50187">
        <ele>340.60000610352</ele>
        <time>2019-09-11T07:21:46Z</time>
      </trkpt>
      <trkpt lat="47.38822" lon="6.50198">
        <ele>339.60000610352</ele>
        <time>2019-09-11T07:21:52Z</time>
      </trkpt>
      <trkpt lat="47.38791" lon="6.50215">
        <ele>338.20001220703</ele>
        <time>2019-09-11T07:21:56Z</time>
      </trkpt>
      <trkpt lat="47.38783" lon="6.50221">
        <ele>338</ele>
        <time>2019-09-11T07:21:57Z</time>
      </trkpt>
      <trkpt lat="47.3876" lon="6.50239">
        <ele>337.20001220703</ele>
        <time>2019-09-11T07:22:00Z</time>
      </trkpt>
      <trkpt lat="47.38744" lon="6.50253">
        <ele>336.20001220703</ele>
        <time>2019-09-11T07:22:02Z</time>
      </trkpt>
      <trkpt lat="47.38729" lon="6.50268">
        <ele>335.20001220703</ele>
        <time>2019-09-11T07:22:04Z</time>
      </trkpt>
      <trkpt lat="47.38721" lon="6.50276">
        <ele>334.79998779297</ele>
        <time>2019-09-11T07:22:05Z</time>
      </trkpt>
      <trkpt lat="47.38697" lon="6.50297">
        <ele>333.79998779297</ele>
        <time>2019-09-11T07:22:08Z</time>
      </trkpt>
      <trkpt lat="47.38671" lon="6.50318">
        <ele>332.60000610352</ele>
        <time>2019-09-11T07:22:11Z</time>
      </trkpt>
      <trkpt lat="47.38645" lon="6.50336">
        <ele>331.20001220703</ele>
        <time>2019-09-11T07:22:14Z</time>
      </trkpt>
      <trkpt lat="47.38618" lon="6.50354">
        <ele>329.79998779297</ele>
        <time>2019-09-11T07:22:17Z</time>
      </trkpt>
      <trkpt lat="47.38609" lon="6.50359">
        <ele>329.39999389648</ele>
        <time>2019-09-11T07:22:18Z</time>
      </trkpt>
      <trkpt lat="47.3859" lon="6.5037">
        <ele>328.79998779297</ele>
        <time>2019-09-11T07:22:20Z</time>
      </trkpt>
      <trkpt lat="47.38572" lon="6.50382">
        <ele>327.60000610352</ele>
        <time>2019-09-11T07:22:22Z</time>
      </trkpt>
      <trkpt lat="47.38544" lon="6.504">
        <ele>326.39999389648</ele>
        <time>2019-09-11T07:22:25Z</time>
      </trkpt>
      <trkpt lat="47.38525" lon="6.50412">
        <ele>325.60000610352</ele>
        <time>2019-09-11T07:22:27Z</time>
      </trkpt>
      <trkpt lat="47.38516" lon="6.50418">
        <ele>325.20001220703</ele>
        <time>2019-09-11T07:22:28Z</time>
      </trkpt>
      <trkpt lat="47.38486" lon="6.50433">
        <ele>324</ele>
        <time>2019-09-11T07:22:31Z</time>
      </trkpt>
      <trkpt lat="47.38466" lon="6.50442">
        <ele>322.79998779297</ele>
        <time>2019-09-11T07:22:33Z</time>
      </trkpt>
      <trkpt lat="47.38436" lon="6.50455">
        <ele>322</ele>
        <time>2019-09-11T07:22:36Z</time>
      </trkpt>
      <trkpt lat="47.38407" lon="6.50468">
        <ele>320.60000610352</ele>
        <time>2019-09-11T07:22:39Z</time>
      </trkpt>
      <trkpt lat="47.38388" lon="6.50477">
        <ele>319</ele>
        <time>2019-09-11T07:22:41Z</time>
      </trkpt>
      <trkpt lat="47.38362" lon="6.5049">
        <ele>318</ele>
        <time>2019-09-11T07:22:44Z</time>
      </trkpt>
      <trkpt lat="47.38354" lon="6.50495">
        <ele>317.60000610352</ele>
        <time>2019-09-11T07:22:45Z</time>
      </trkpt>
      <trkpt lat="47.3832" lon="6.5052">
        <ele>317.20001220703</ele>
        <time>2019-09-11T07:22:50Z</time>
      </trkpt>
      <trkpt lat="47.383" lon="6.50529">
        <ele>317.20001220703</ele>
        <time>2019-09-11T07:22:53Z</time>
      </trkpt>
      <trkpt lat="47.38287" lon="6.50532">
        <ele>317.20001220703</ele>
        <time>2019-09-11T07:22:55Z</time>
      </trkpt>
      <trkpt lat="47.38248" lon="6.50532">
        <ele>317.20001220703</ele>
        <time>2019-09-11T07:23:01Z</time>
      </trkpt>
      <trkpt lat="47.3821" lon="6.50531">
        <ele>316.79998779297</ele>
        <time>2019-09-11T07:23:08Z</time>
      </trkpt>
      <trkpt lat="47.38201" lon="6.50527">
        <ele>316.60000610352</ele>
        <time>2019-09-11T07:23:12Z</time>
      </trkpt>
      <trkpt lat="47.38202" lon="6.50527">
        <ele>316.60000610352</ele>
        <time>2019-09-11T07:23:16Z</time>
      </trkpt>
      <trkpt lat="47.38202" lon="6.50527">
        <ele>316.60000610352</ele>
        <time>2019-09-11T07:23:17Z</time>
      </trkpt>
      <trkpt lat="47.38203" lon="6.50527">
        <ele>316.39999389648</ele>
        <time>2019-09-11T07:23:38Z</time>
      </trkpt>
      <trkpt lat="47.37166" lon="6.49961">
        <ele>320.79998779297</ele>
        <time>2019-09-11T07:28:04Z</time>
      </trkpt>
      <trkpt lat="47.37164" lon="6.49958">
        <ele>320.60000610352</ele>
        <time>2019-09-11T07:28:05Z</time>
      </trkpt>
      <trkpt lat="47.37156" lon="6.4994">
        <ele>320</ele>
        <time>2019-09-11T07:28:09Z</time>
      </trkpt>
      <trkpt lat="47.37149" lon="6.49918">
        <ele>319</ele>
        <time>2019-09-11T07:28:12Z</time>
      </trkpt>
      <trkpt lat="47.3714" lon="6.49896">
        <ele>317.79998779297</ele>
        <time>2019-09-11T07:28:15Z</time>
      </trkpt>
      <trkpt lat="47.37132" lon="6.49875">
        <ele>316.79998779297</ele>
        <time>2019-09-11T07:28:18Z</time>
      </trkpt>
      <trkpt lat="47.37126" lon="6.49861">
        <ele>317.79998779297</ele>
        <time>2019-09-11T07:28:20Z</time>
      </trkpt>
      <trkpt lat="47.37119" lon="6.49846">
        <ele>318.39999389648</ele>
        <time>2019-09-11T07:28:22Z</time>
      </trkpt>
      <trkpt lat="47.37105" lon="6.49819">
        <ele>316.79998779297</ele>
        <time>2019-09-11T07:28:26Z</time>
      </trkpt>
      <trkpt lat="47.37095" lon="6.498">
        <ele>316.60000610352</ele>
        <time>2019-09-11T07:28:29Z</time>
      </trkpt>
      <trkpt lat="47.37072" lon="6.49756">
        <ele>316</ele>
        <time>2019-09-11T07:28:36Z</time>
      </trkpt>
      <trkpt lat="47.37069" lon="6.4975">
        <ele>316</ele>
        <time>2019-09-11T07:28:37Z</time>
      </trkpt>
      <trkpt lat="47.37039" lon="6.49694">
        <ele>315.60000610352</ele>
        <time>2019-09-11T07:28:46Z</time>
      </trkpt>
      <trkpt lat="47.37015" lon="6.49647">
        <ele>315.79998779297</ele>
        <time>2019-09-11T07:28:54Z</time>
      </trkpt>
      <trkpt lat="47.36993" lon="6.49601">
        <ele>316</ele>
        <time>2019-09-11T07:29:02Z</time>
      </trkpt>
      <trkpt lat="47.36979" lon="6.49565">
        <ele>316.39999389648</ele>
        <time>2019-09-11T07:29:08Z</time>
      </trkpt>
      <trkpt lat="47.36963" lon="6.49512">
        <ele>316.20001220703</ele>
        <time>2019-09-11T07:29:15Z</time>
      </trkpt>
      <trkpt lat="47.36937" lon="6.49437">
        <ele>315.39999389648</ele>
        <time>2019-09-11T07:29:25Z</time>
      </trkpt>
      <trkpt lat="47.36922" lon="6.49389">
        <ele>314.39999389648</ele>
        <time>2019-09-11T07:29:32Z</time>
      </trkpt>
      <trkpt lat="47.36919" lon="6.49381">
        <ele>314.20001220703</ele>
        <time>2019-09-11T07:29:33Z</time>
      </trkpt>
      <trkpt lat="47.36903" lon="6.49335">
        <ele>313.60000610352</ele>
        <time>2019-09-11T07:29:39Z</time>
      </trkpt>
      <trkpt lat="47.36898" lon="6.4932">
        <ele>313.39999389648</ele>
        <time>2019-09-11T07:29:41Z</time>
      </trkpt>
      <trkpt lat="47.36889" lon="6.4929">
        <ele>312.79998779297</ele>
        <time>2019-09-11T07:29:45Z</time>
      </trkpt>
      <trkpt lat="47.3687" lon="6.49227">
        <ele>312.39999389648</ele>
        <time>2019-09-11T07:29:53Z</time>
      </trkpt>
      <trkpt lat="47.36864" lon="6.49204">
        <ele>312.39999389648</ele>
        <time>2019-09-11T07:29:56Z</time>
      </trkpt>
      <trkpt lat="47.36859" lon="6.49179">
        <ele>312.39999389648</ele>
        <time>2019-09-11T07:29:59Z</time>
      </trkpt>
      <trkpt lat="47.3685" lon="6.49137">
        <ele>312.20001220703</ele>
        <time>2019-09-11T07:30:04Z</time>
      </trkpt>
      <trkpt lat="47.36849" lon="6.49129">
        <ele>312.20001220703</ele>
        <time>2019-09-11T07:30:05Z</time>
      </trkpt>
      <trkpt lat="47.36841" lon="6.49068">
        <ele>312</ele>
        <time>2019-09-11T07:30:12Z</time>
      </trkpt>
      <trkpt lat="47.36826" lon="6.48988">
        <ele>311.79998779297</ele>
        <time>2019-09-11T07:30:22Z</time>
      </trkpt>
      <trkpt lat="47.36825" lon="6.4898">
        <ele>311.60000610352</ele>
        <time>2019-09-11T07:30:23Z</time>
      </trkpt>
      <trkpt lat="47.36818" lon="6.4894">
        <ele>311.60000610352</ele>
        <time>2019-09-11T07:30:28Z</time>
      </trkpt>
      <trkpt lat="47.36808" lon="6.48884">
        <ele>311.60000610352</ele>
        <time>2019-09-11T07:30:35Z</time>
      </trkpt>
      <trkpt lat="47.36802" lon="6.48829">
        <ele>311.79998779297</ele>
        <time>2019-09-11T07:30:42Z</time>
      </trkpt>
      <trkpt lat="47.36793" lon="6.48765">
        <ele>311.60000610352</ele>
        <time>2019-09-11T07:30:50Z</time>
      </trkpt>
      <trkpt lat="47.36791" lon="6.48745">
        <ele>311.60000610352</ele>
        <time>2019-09-11T07:30:53Z</time>
      </trkpt>
      <trkpt lat="47.36787" lon="6.48734">
        <ele>311.60000610352</ele>
        <time>2019-09-11T07:30:55Z</time>
      </trkpt>
      <trkpt lat="47.36783" lon="6.48712">
        <ele>311.79998779297</ele>
        <time>2019-09-11T07:31:00Z</time>
      </trkpt>
      <trkpt lat="47.36781" lon="6.48691">
        <ele>313.20001220703</ele>
        <time>2019-09-11T07:31:07Z</time>
      </trkpt>
      <trkpt lat="47.36781" lon="6.48677">
        <ele>314.39999389648</ele>
        <time>2019-09-11T07:31:12Z</time>
      </trkpt>
      <trkpt lat="47.36781" lon="6.4867">
        <ele>314.60000610352</ele>
        <time>2019-09-11T07:31:14Z</time>
      </trkpt>
      <trkpt lat="47.36779" lon="6.48656">
        <ele>315.60000610352</ele>
        <time>2019-09-11T07:31:19Z</time>
      </trkpt>
      <trkpt lat="47.36778" lon="6.48647">
        <ele>316</ele>
        <time>2019-09-11T07:31:22Z</time>
      </trkpt>
      <trkpt lat="47.36777" lon="6.48639">
        <ele>316.60000610352</ele>
        <time>2019-09-11T07:31:25Z</time>
      </trkpt>
      <trkpt lat="47.36777" lon="6.48623">
        <ele>317.60000610352</ele>
        <time>2019-09-11T07:31:30Z</time>
      </trkpt>
      <trkpt lat="47.36778" lon="6.4862">
        <ele>318</ele>
        <time>2019-09-11T07:31:31Z</time>
      </trkpt>
      <trkpt lat="47.36778" lon="6.48605">
        <ele>319</ele>
        <time>2019-09-11T07:31:36Z</time>
      </trkpt>
      <trkpt lat="47.36778" lon="6.48601">
        <ele>319</ele>
        <time>2019-09-11T07:31:37Z</time>
      </trkpt>
      <trkpt lat="47.36777" lon="6.48586">
        <ele>320</ele>
        <time>2019-09-11T07:31:42Z</time>
      </trkpt>
      <trkpt lat="47.36777" lon="6.48583">
        <ele>320.20001220703</ele>
        <time>2019-09-11T07:31:43Z</time>
      </trkpt>
      <trkpt lat="47.36779" lon="6.48562">
        <ele>321.60000610352</ele>
        <time>2019-09-11T07:31:50Z</time>
      </trkpt>
      <trkpt lat="47.36781" lon="6.48542">
        <ele>322.60000610352</ele>
        <time>2019-09-11T07:31:57Z</time>
      </trkpt>
      <trkpt lat="47.36781" lon="6.48539">
        <ele>323</ele>
        <time>2019-09-11T07:31:58Z</time>
      </trkpt>
      <trkpt lat="47.36782" lon="6.4853">
        <ele>323.79998779297</ele>
        <time>2019-09-11T07:32:01Z</time>
      </trkpt>
      <trkpt lat="47.36783" lon="6.48522">
        <ele>324.39999389648</ele>
        <time>2019-09-11T07:32:04Z</time>
      </trkpt>
      <trkpt lat="47.36782" lon="6.48513">
        <ele>325</ele>
        <time>2019-09-11T07:32:07Z</time>
      </trkpt>
      <trkpt lat="47.36782" lon="6.48501">
        <ele>325.39999389648</ele>
        <time>2019-09-11T07:32:11Z</time>
      </trkpt>
      <trkpt lat="47.36781" lon="6.48493">
        <ele>326</ele>
        <time>2019-09-11T07:32:14Z</time>
      </trkpt>
      <trkpt lat="47.3678" lon="6.48479">
        <ele>326.79998779297</ele>
        <time>2019-09-11T07:32:19Z</time>
      </trkpt>
      <trkpt lat="47.3678" lon="6.48476">
        <ele>327.20001220703</ele>
        <time>2019-09-11T07:32:20Z</time>
      </trkpt>
      <trkpt lat="47.36778" lon="6.48458">
        <ele>328.20001220703</ele>
        <time>2019-09-11T07:32:26Z</time>
      </trkpt>
      <trkpt lat="47.36777" lon="6.48454">
        <ele>328.39999389648</ele>
        <time>2019-09-11T07:32:27Z</time>
      </trkpt>
      <trkpt lat="47.36772" lon="6.48436">
        <ele>329.39999389648</ele>
        <time>2019-09-11T07:32:33Z</time>
      </trkpt>
      <trkpt lat="47.36767" lon="6.48417">
        <ele>330.60000610352</ele>
        <time>2019-09-11T07:32:39Z</time>
      </trkpt>
      <trkpt lat="47.36766" lon="6.48415">
        <ele>330.60000610352</ele>
        <time>2019-09-11T07:32:40Z</time>
      </trkpt>
      <trkpt lat="47.36762" lon="6.48402">
        <ele>332</ele>
        <time>2019-09-11T07:32:45Z</time>
      </trkpt>
      <trkpt lat="47.36759" lon="6.48394">
        <ele>332.39999389648</ele>
        <time>2019-09-11T07:32:48Z</time>
      </trkpt>
      <trkpt lat="47.36756" lon="6.48386">
        <ele>333</ele>
        <time>2019-09-11T07:32:51Z</time>
      </trkpt>
      <trkpt lat="47.36751" lon="6.48378">
        <ele>333.60000610352</ele>
        <time>2019-09-11T07:32:55Z</time>
      </trkpt>
      <trkpt lat="47.36748" lon="6.48374">
        <ele>334</ele>
        <time>2019-09-11T07:32:57Z</time>
      </trkpt>
      <trkpt lat="47.36741" lon="6.48367">
        <ele>335</ele>
        <time>2019-09-11T07:33:02Z</time>
      </trkpt>
      <trkpt lat="47.3674" lon="6.48366">
        <ele>335.20001220703</ele>
        <time>2019-09-11T07:33:03Z</time>
      </trkpt>
      <trkpt lat="47.36739" lon="6.48365">
        <ele>335.60000610352</ele>
        <time>2019-09-11T07:33:04Z</time>
      </trkpt>
      <trkpt lat="47.36734" lon="6.48362">
        <ele>336</ele>
        <time>2019-09-11T07:33:07Z</time>
      </trkpt>
      <trkpt lat="47.36733" lon="6.48357">
        <ele>336.20001220703</ele>
        <time>2019-09-11T07:33:09Z</time>
      </trkpt>
      <trkpt lat="47.36732" lon="6.48354">
        <ele>336.39999389648</ele>
        <time>2019-09-11T07:33:10Z</time>
      </trkpt>
      <trkpt lat="47.3673" lon="6.48348">
        <ele>336.60000610352</ele>
        <time>2019-09-11T07:33:12Z</time>
      </trkpt>
      <trkpt lat="47.36727" lon="6.48323">
        <ele>337.39999389648</ele>
        <time>2019-09-11T07:33:19Z</time>
      </trkpt>
      <trkpt lat="47.3673" lon="6.48306">
        <ele>337.60000610352</ele>
        <time>2019-09-11T07:33:24Z</time>
      </trkpt>
      <trkpt lat="47.3673" lon="6.48303">
        <ele>337.60000610352</ele>
        <time>2019-09-11T07:33:25Z</time>
      </trkpt>
      <trkpt lat="47.36735" lon="6.48287">
        <ele>338.60000610352</ele>
        <time>2019-09-11T07:33:30Z</time>
      </trkpt>
      <trkpt lat="47.36739" lon="6.48273">
        <ele>339</ele>
        <time>2019-09-11T07:33:34Z</time>
      </trkpt>
      <trkpt lat="47.36746" lon="6.48253">
        <ele>339.60000610352</ele>
        <time>2019-09-11T07:33:40Z</time>
      </trkpt>
      <trkpt lat="47.3675" lon="6.4824">
        <ele>340.20001220703</ele>
        <time>2019-09-11T07:33:44Z</time>
      </trkpt>
      <trkpt lat="47.36756" lon="6.48218">
        <ele>341</ele>
        <time>2019-09-11T07:33:51Z</time>
      </trkpt>
      <trkpt lat="47.36758" lon="6.48212">
        <ele>341.20001220703</ele>
        <time>2019-09-11T07:33:53Z</time>
      </trkpt>
      <trkpt lat="47.36761" lon="6.48206">
        <ele>341.39999389648</ele>
        <time>2019-09-11T07:33:55Z</time>
      </trkpt>
      <trkpt lat="47.36764" lon="6.48193">
        <ele>342</ele>
        <time>2019-09-11T07:33:59Z</time>
      </trkpt>
      <trkpt lat="47.36769" lon="6.48164">
        <ele>343.39999389648</ele>
        <time>2019-09-11T07:34:07Z</time>
      </trkpt>
      <trkpt lat="47.3677" lon="6.48157">
        <ele>343.60000610352</ele>
        <time>2019-09-11T07:34:09Z</time>
      </trkpt>
      <trkpt lat="47.36774" lon="6.48124">
        <ele>344.20001220703</ele>
        <time>2019-09-11T07:34:17Z</time>
      </trkpt>
      <trkpt lat="47.36775" lon="6.4811">
        <ele>344.39999389648</ele>
        <time>2019-09-11T07:34:20Z</time>
      </trkpt>
      <trkpt lat="47.36776" lon="6.4809">
        <ele>344.79998779297</ele>
        <time>2019-09-11T07:34:24Z</time>
      </trkpt>
      <trkpt lat="47.36775" lon="6.48048">
        <ele>344.79998779297</ele>
        <time>2019-09-11T07:34:32Z</time>
      </trkpt>
      <trkpt lat="47.36771" lon="6.48007">
        <ele>345</ele>
        <time>2019-09-11T07:34:40Z</time>
      </trkpt>
      <trkpt lat="47.36758" lon="6.47978">
        <ele>345.39999389648</ele>
        <time>2019-09-11T07:34:47Z</time>
      </trkpt>
      <trkpt lat="47.36754" lon="6.47961">
        <ele>346</ele>
        <time>2019-09-11T07:34:51Z</time>
      </trkpt>
      <trkpt lat="47.36753" lon="6.47954">
        <ele>346.20001220703</ele>
        <time>2019-09-11T07:34:53Z</time>
      </trkpt>
      <trkpt lat="47.36748" lon="6.47938">
        <ele>346.79998779297</ele>
        <time>2019-09-11T07:34:57Z</time>
      </trkpt>
      <trkpt lat="47.36745" lon="6.47929">
        <ele>347</ele>
        <time>2019-09-11T07:34:59Z</time>
      </trkpt>
      <trkpt lat="47.36743" lon="6.47909">
        <ele>347.79998779297</ele>
        <time>2019-09-11T07:35:04Z</time>
      </trkpt>
      <trkpt lat="47.36742" lon="6.47901">
        <ele>348.20001220703</ele>
        <time>2019-09-11T07:35:06Z</time>
      </trkpt>
      <trkpt lat="47.36738" lon="6.47877">
        <ele>349.60000610352</ele>
        <time>2019-09-11T07:35:11Z</time>
      </trkpt>
      <trkpt lat="47.36734" lon="6.47841">
        <ele>350</ele>
        <time>2019-09-11T07:35:18Z</time>
      </trkpt>
      <trkpt lat="47.36731" lon="6.47811">
        <ele>350</ele>
        <time>2019-09-11T07:35:24Z</time>
      </trkpt>
      <trkpt lat="47.36725" lon="6.47773">
        <ele>350</ele>
        <time>2019-09-11T07:35:31Z</time>
      </trkpt>
      <trkpt lat="47.36722" lon="6.47734">
        <ele>350.39999389648</ele>
        <time>2019-09-11T07:35:38Z</time>
      </trkpt>
      <trkpt lat="47.36723" lon="6.47698">
        <ele>350.60000610352</ele>
        <time>2019-09-11T07:35:45Z</time>
      </trkpt>
      <trkpt lat="47.36725" lon="6.47677">
        <ele>351</ele>
        <time>2019-09-11T07:35:50Z</time>
      </trkpt>
      <trkpt lat="47.36726" lon="6.47669">
        <ele>351.39999389648</ele>
        <time>2019-09-11T07:35:52Z</time>
      </trkpt>
      <trkpt lat="47.36727" lon="6.47649">
        <ele>352.20001220703</ele>
        <time>2019-09-11T07:35:57Z</time>
      </trkpt>
      <trkpt lat="47.36728" lon="6.4764">
        <ele>352.39999389648</ele>
        <time>2019-09-11T07:35:59Z</time>
      </trkpt>
      <trkpt lat="47.36729" lon="6.47623">
        <ele>353.20001220703</ele>
        <time>2019-09-11T07:36:03Z</time>
      </trkpt>
      <trkpt lat="47.36729" lon="6.47614">
        <ele>353.60000610352</ele>
        <time>2019-09-11T07:36:05Z</time>
      </trkpt>
      <trkpt lat="47.3673" lon="6.476">
        <ele>354.20001220703</ele>
        <time>2019-09-11T07:36:08Z</time>
      </trkpt>
      <trkpt lat="47.36731" lon="6.47577">
        <ele>355.60000610352</ele>
        <time>2019-09-11T07:36:13Z</time>
      </trkpt>
      <trkpt lat="47.36732" lon="6.47567">
        <ele>355.60000610352</ele>
        <time>2019-09-11T07:36:15Z</time>
      </trkpt>
      <trkpt lat="47.36734" lon="6.47522">
        <ele>356</ele>
        <time>2019-09-11T07:36:23Z</time>
      </trkpt>
      <trkpt lat="47.36737" lon="6.4748">
        <ele>356</ele>
        <time>2019-09-11T07:36:29Z</time>
      </trkpt>
      <trkpt lat="47.36745" lon="6.47418">
        <ele>354.79998779297</ele>
        <time>2019-09-11T07:36:36Z</time>
      </trkpt>
      <trkpt lat="47.36747" lon="6.4741">
        <ele>354.39999389648</ele>
        <time>2019-09-11T07:36:37Z</time>
      </trkpt>
      <trkpt lat="47.36756" lon="6.47379">
        <ele>353.39999389648</ele>
        <time>2019-09-11T07:36:41Z</time>
      </trkpt>
      <trkpt lat="47.36763" lon="6.47342">
        <ele>352.60000610352</ele>
        <time>2019-09-11T07:36:47Z</time>
      </trkpt>
      <trkpt lat="47.36769" lon="6.47294">
        <ele>352.39999389648</ele>
        <time>2019-09-11T07:36:54Z</time>
      </trkpt>
      <trkpt lat="47.36775" lon="6.47225">
        <ele>352.60000610352</ele>
        <time>2019-09-11T07:37:03Z</time>
      </trkpt>
      <trkpt lat="47.36776" lon="6.47218">
        <ele>352.39999389648</ele>
        <time>2019-09-11T07:37:04Z</time>
      </trkpt>
      <trkpt lat="47.36781" lon="6.47162">
        <ele>352.20001220703</ele>
        <time>2019-09-11T07:37:11Z</time>
      </trkpt>
      <trkpt lat="47.36785" lon="6.47112">
        <ele>351.60000610352</ele>
        <time>2019-09-11T07:37:17Z</time>
      </trkpt>
      <trkpt lat="47.36785" lon="6.47102">
        <ele>351.39999389648</ele>
        <time>2019-09-11T07:37:18Z</time>
      </trkpt>
      <trkpt lat="47.36786" lon="6.47046">
        <ele>350.39999389648</ele>
        <time>2019-09-11T07:37:24Z</time>
      </trkpt>
      <trkpt lat="47.36786" lon="6.47019">
        <ele>349.39999389648</ele>
        <time>2019-09-11T07:37:27Z</time>
      </trkpt>
      <trkpt lat="47.36784" lon="6.46965">
        <ele>348.39999389648</ele>
        <time>2019-09-11T07:37:33Z</time>
      </trkpt>
      <trkpt lat="47.36781" lon="6.46948">
        <ele>348</ele>
        <time>2019-09-11T07:37:35Z</time>
      </trkpt>
      <trkpt lat="47.36776" lon="6.4691">
        <ele>347.20001220703</ele>
        <time>2019-09-11T07:37:40Z</time>
      </trkpt>
      <trkpt lat="47.36774" lon="6.46896">
        <ele>347.20001220703</ele>
        <time>2019-09-11T07:37:42Z</time>
      </trkpt>
      <trkpt lat="47.36767" lon="6.46836">
        <ele>347.20001220703</ele>
        <time>2019-09-11T07:37:51Z</time>
      </trkpt>
      <trkpt lat="47.36767" lon="6.46805">
        <ele>347.39999389648</ele>
        <time>2019-09-11T07:37:57Z</time>
      </trkpt>
      <trkpt lat="47.36772" lon="6.46783">
        <ele>347.39999389648</ele>
        <time>2019-09-11T07:38:03Z</time>
      </trkpt>
      <trkpt lat="47.36772" lon="6.46783">
        <ele>347.39999389648</ele>
        <time>2019-09-11T07:38:04Z</time>
      </trkpt>
      <trkpt lat="47.36772" lon="6.46781">
        <ele>346.20001220703</ele>
        <time>2019-09-11T07:38:31Z</time>
      </trkpt>
      <trkpt lat="47.36773" lon="6.46775">
        <ele>346.20001220703</ele>
        <time>2019-09-11T07:38:34Z</time>
      </trkpt>
      <trkpt lat="47.36778" lon="6.46754">
        <ele>346.20001220703</ele>
        <time>2019-09-11T07:38:39Z</time>
      </trkpt>
      <trkpt lat="47.36786" lon="6.46729">
        <ele>346.20001220703</ele>
        <time>2019-09-11T07:38:43Z</time>
      </trkpt>
      <trkpt lat="47.36792" lon="6.46716">
        <ele>345.79998779297</ele>
        <time>2019-09-11T07:38:45Z</time>
      </trkpt>
      <trkpt lat="47.36795" lon="6.4671">
        <ele>345.60000610352</ele>
        <time>2019-09-11T07:38:46Z</time>
      </trkpt>
      <trkpt lat="47.36799" lon="6.46704">
        <ele>345.20001220703</ele>
        <time>2019-09-11T07:38:47Z</time>
      </trkpt>
      <trkpt lat="47.36811" lon="6.46683">
        <ele>344.60000610352</ele>
        <time>2019-09-11T07:38:50Z</time>
      </trkpt>
      <trkpt lat="47.3682" lon="6.46669">
        <ele>343.79998779297</ele>
        <time>2019-09-11T07:38:52Z</time>
      </trkpt>
      <trkpt lat="47.36834" lon="6.46646">
        <ele>342.79998779297</ele>
        <time>2019-09-11T07:38:55Z</time>
      </trkpt>
      <trkpt lat="47.36843" lon="6.46629">
        <ele>342</ele>
        <time>2019-09-11T07:38:57Z</time>
      </trkpt>
      <trkpt lat="47.36848" lon="6.46621">
        <ele>341.60000610352</ele>
        <time>2019-09-11T07:38:58Z</time>
      </trkpt>
      <trkpt lat="47.36862" lon="6.46595">
        <ele>340.79998779297</ele>
        <time>2019-09-11T07:39:01Z</time>
      </trkpt>
      <trkpt lat="47.36873" lon="6.46576">
        <ele>340.20001220703</ele>
        <time>2019-09-11T07:39:03Z</time>
      </trkpt>
      <trkpt lat="47.36884" lon="6.46558">
        <ele>339.60000610352</ele>
        <time>2019-09-11T07:39:05Z</time>
      </trkpt>
      <trkpt lat="47.36901" lon="6.4653">
        <ele>338.60000610352</ele>
        <time>2019-09-11T07:39:08Z</time>
      </trkpt>
      <trkpt lat="47.3692" lon="6.46502">
        <ele>337</ele>
        <time>2019-09-11T07:39:11Z</time>
      </trkpt>
      <trkpt lat="47.36942" lon="6.46478">
        <ele>335.60000610352</ele>
        <time>2019-09-11T07:39:14Z</time>
      </trkpt>
      <trkpt lat="47.36957" lon="6.46466">
        <ele>335</ele>
        <time>2019-09-11T07:39:16Z</time>
      </trkpt>
      <trkpt lat="47.36965" lon="6.46461">
        <ele>334.39999389648</ele>
        <time>2019-09-11T07:39:17Z</time>
      </trkpt>
      <trkpt lat="47.36989" lon="6.46445">
        <ele>333</ele>
        <time>2019-09-11T07:39:20Z</time>
      </trkpt>
      <trkpt lat="47.37004" lon="6.46435">
        <ele>332.20001220703</ele>
        <time>2019-09-11T07:39:22Z</time>
      </trkpt>
      <trkpt lat="47.37012" lon="6.46429">
        <ele>331.20001220703</ele>
        <time>2019-09-11T07:39:23Z</time>
      </trkpt>
      <trkpt lat="47.37042" lon="6.46409">
        <ele>330</ele>
        <time>2019-09-11T07:39:27Z</time>
      </trkpt>
      <trkpt lat="47.37056" lon="6.46399">
        <ele>329.39999389648</ele>
        <time>2019-09-11T07:39:29Z</time>
      </trkpt>
      <trkpt lat="47.37063" lon="6.46393">
        <ele>329</ele>
        <time>2019-09-11T07:39:30Z</time>
      </trkpt>
      <trkpt lat="47.3707" lon="6.46387">
        <ele>328.79998779297</ele>
        <time>2019-09-11T07:39:31Z</time>
      </trkpt>
      <trkpt lat="47.37101" lon="6.46356">
        <ele>327.79998779297</ele>
        <time>2019-09-11T07:39:36Z</time>
      </trkpt>
      <trkpt lat="47.37107" lon="6.46349">
        <ele>327.60000610352</ele>
        <time>2019-09-11T07:39:37Z</time>
      </trkpt>
      <trkpt lat="47.37112" lon="6.46342">
        <ele>327.39999389648</ele>
        <time>2019-09-11T07:39:38Z</time>
      </trkpt>
      <trkpt lat="47.37125" lon="6.46318">
        <ele>326.60000610352</ele>
        <time>2019-09-11T07:39:41Z</time>
      </trkpt>
      <trkpt lat="47.37144" lon="6.46271">
        <ele>325.60000610352</ele>
        <time>2019-09-11T07:39:47Z</time>
      </trkpt>
      <trkpt lat="47.37152" lon="6.46249">
        <ele>325.20001220703</ele>
        <time>2019-09-11T07:39:50Z</time>
      </trkpt>
      <trkpt lat="47.37158" lon="6.46229">
        <ele>325.20001220703</ele>
        <time>2019-09-11T07:39:53Z</time>
      </trkpt>
      <trkpt lat="47.37168" lon="6.462">
        <ele>325</ele>
        <time>2019-09-11T07:39:59Z</time>
      </trkpt>
      <trkpt lat="47.37168" lon="6.46199">
        <ele>324.79998779297</ele>
        <time>2019-09-11T07:40:01Z</time>
      </trkpt>
      <trkpt lat="47.37169" lon="6.46197">
        <ele>324.60000610352</ele>
        <time>2019-09-11T07:40:05Z</time>
      </trkpt>
      <trkpt lat="47.3717" lon="6.46195">
        <ele>324.60000610352</ele>
        <time>2019-09-11T07:40:06Z</time>
      </trkpt>
      <trkpt lat="47.37174" lon="6.46177">
        <ele>324.60000610352</ele>
        <time>2019-09-11T07:40:11Z</time>
      </trkpt>
      <trkpt lat="47.37184" lon="6.46155">
        <ele>324.39999389648</ele>
        <time>2019-09-11T07:40:16Z</time>
      </trkpt>
      <trkpt lat="47.37188" lon="6.46144">
        <ele>324.20001220703</ele>
        <time>2019-09-11T07:40:18Z</time>
      </trkpt>
      <trkpt lat="47.37197" lon="6.46124">
        <ele>324</ele>
        <time>2019-09-11T07:40:21Z</time>
      </trkpt>
      <trkpt lat="47.37205" lon="6.46106">
        <ele>323.79998779297</ele>
        <time>2019-09-11T07:40:23Z</time>
      </trkpt>
      <trkpt lat="47.37219" lon="6.46079">
        <ele>323</ele>
        <time>2019-09-11T07:40:26Z</time>
      </trkpt>
      <trkpt lat="47.37224" lon="6.46069">
        <ele>322.79998779297</ele>
        <time>2019-09-11T07:40:27Z</time>
      </trkpt>
      <trkpt lat="47.37238" lon="6.46041">
        <ele>321.60000610352</ele>
        <time>2019-09-11T07:40:30Z</time>
      </trkpt>
      <trkpt lat="47.37251" lon="6.46016">
        <ele>320.20001220703</ele>
        <time>2019-09-11T07:40:33Z</time>
      </trkpt>
      <trkpt lat="47.3726" lon="6.45999">
        <ele>319.39999389648</ele>
        <time>2019-09-11T07:40:35Z</time>
      </trkpt>
      <trkpt lat="47.37265" lon="6.4599">
        <ele>319.20001220703</ele>
        <time>2019-09-11T07:40:36Z</time>
      </trkpt>
      <trkpt lat="47.37283" lon="6.45964">
        <ele>318.39999389648</ele>
        <time>2019-09-11T07:40:39Z</time>
      </trkpt>
      <trkpt lat="47.37292" lon="6.45957">
        <ele>318</ele>
        <time>2019-09-11T07:40:40Z</time>
      </trkpt>
      <trkpt lat="47.37325" lon="6.45937">
        <ele>316.39999389648</ele>
        <time>2019-09-11T07:40:44Z</time>
      </trkpt>
      <trkpt lat="47.37341" lon="6.4593">
        <ele>315</ele>
        <time>2019-09-11T07:40:46Z</time>
      </trkpt>
      <trkpt lat="47.37353" lon="6.45923">
        <ele>313.79998779297</ele>
        <time>2019-09-11T07:40:48Z</time>
      </trkpt>
      <trkpt lat="47.37357" lon="6.45916">
        <ele>313.20001220703</ele>
        <time>2019-09-11T07:40:49Z</time>
      </trkpt>
      <trkpt lat="47.37359" lon="6.45908">
        <ele>312.79998779297</ele>
        <time>2019-09-11T07:40:50Z</time>
      </trkpt>
      <trkpt lat="47.37358" lon="6.45892">
        <ele>311.79998779297</ele>
        <time>2019-09-11T07:40:52Z</time>
      </trkpt>
      <trkpt lat="47.37357" lon="6.45884">
        <ele>311.20001220703</ele>
        <time>2019-09-11T07:40:53Z</time>
      </trkpt>
      <trkpt lat="47.37355" lon="6.45871">
        <ele>310</ele>
        <time>2019-09-11T07:40:55Z</time>
      </trkpt>
      <trkpt lat="47.37353" lon="6.45858">
        <ele>308.60000610352</ele>
        <time>2019-09-11T07:40:57Z</time>
      </trkpt>
      <trkpt lat="47.37353" lon="6.45852">
        <ele>308.20001220703</ele>
        <time>2019-09-11T07:40:58Z</time>
      </trkpt>
      <trkpt lat="47.37343" lon="6.45795">
        <ele>307.79998779297</ele>
        <time>2019-09-11T07:41:07Z</time>
      </trkpt>
      <trkpt lat="47.37331" lon="6.4575">
        <ele>307.79998779297</ele>
        <time>2019-09-11T07:41:14Z</time>
      </trkpt>
      <trkpt lat="47.37306" lon="6.45699">
        <ele>307.60000610352</ele>
        <time>2019-09-11T07:41:23Z</time>
      </trkpt>
      <trkpt lat="47.37291" lon="6.4568">
        <ele>307.60000610352</ele>
        <time>2019-09-11T07:41:28Z</time>
      </trkpt>
      <trkpt lat="47.37291" lon="6.45679">
        <ele>307.60000610352</ele>
        <time>2019-09-11T07:41:29Z</time>
      </trkpt>
      <trkpt lat="47.3729" lon="6.45679">
        <ele>307.60000610352</ele>
        <time>2019-09-11T07:41:30Z</time>
      </trkpt>
      <trkpt lat="47.37287" lon="6.45677">
        <ele>307.39999389648</ele>
        <time>2019-09-11T07:41:54Z</time>
      </trkpt>
      <trkpt lat="47.37277" lon="6.45667">
        <ele>307.20001220703</ele>
        <time>2019-09-11T07:41:59Z</time>
      </trkpt>
      <trkpt lat="47.3726" lon="6.45644">
        <ele>307.20001220703</ele>
        <time>2019-09-11T07:42:05Z</time>
      </trkpt>
      <trkpt lat="47.3723" lon="6.45602">
        <ele>307.20001220703</ele>
        <time>2019-09-11T07:42:14Z</time>
      </trkpt>
      <trkpt lat="47.37188" lon="6.45554">
        <ele>307.39999389648</ele>
        <time>2019-09-11T07:42:25Z</time>
      </trkpt>
      <trkpt lat="47.3715" lon="6.45518">
        <ele>307.60000610352</ele>
        <time>2019-09-11T07:42:34Z</time>
      </trkpt>
      <trkpt lat="47.37112" lon="6.45482">
        <ele>307.79998779297</ele>
        <time>2019-09-11T07:42:43Z</time>
      </trkpt>
      <trkpt lat="47.37066" lon="6.45438">
        <ele>307.60000610352</ele>
        <time>2019-09-11T07:42:54Z</time>
      </trkpt>
      <trkpt lat="47.37062" lon="6.45435">
        <ele>307.60000610352</ele>
        <time>2019-09-11T07:42:55Z</time>
      </trkpt>
      <trkpt lat="47.37014" lon="6.45393">
        <ele>307.39999389648</ele>
        <time>2019-09-11T07:43:06Z</time>
      </trkpt>
      <trkpt lat="47.3701" lon="6.4539">
        <ele>307.39999389648</ele>
        <time>2019-09-11T07:43:07Z</time>
      </trkpt>
      <trkpt lat="47.36997" lon="6.45381">
        <ele>307.39999389648</ele>
        <time>2019-09-11T07:43:10Z</time>
      </trkpt>
      <trkpt lat="47.36979" lon="6.45371">
        <ele>307.39999389648</ele>
        <time>2019-09-11T07:43:14Z</time>
      </trkpt>
      <trkpt lat="47.36937" lon="6.45348">
        <ele>307.20001220703</ele>
        <time>2019-09-11T07:43:23Z</time>
      </trkpt>
      <trkpt lat="47.369" lon="6.45333">
        <ele>307.20001220703</ele>
        <time>2019-09-11T07:43:31Z</time>
      </trkpt>
      <trkpt lat="47.3686" lon="6.45326">
        <ele>307.20001220703</ele>
        <time>2019-09-11T07:43:39Z</time>
      </trkpt>
      <trkpt lat="47.3681" lon="6.45325">
        <ele>307.20001220703</ele>
        <time>2019-09-11T07:43:49Z</time>
      </trkpt>
      <trkpt lat="47.36795" lon="6.45326">
        <ele>307.39999389648</ele>
        <time>2019-09-11T07:43:52Z</time>
      </trkpt>
      <trkpt lat="47.36776" lon="6.45323">
        <ele>307.39999389648</ele>
        <time>2019-09-11T07:43:56Z</time>
      </trkpt>
      <trkpt lat="47.36735" lon="6.45318">
        <ele>307.20001220703</ele>
        <time>2019-09-11T07:44:04Z</time>
      </trkpt>
      <trkpt lat="47.36716" lon="6.45317">
        <ele>307.20001220703</ele>
        <time>2019-09-11T07:44:08Z</time>
      </trkpt>
      <trkpt lat="47.36711" lon="6.45317">
        <ele>307.20001220703</ele>
        <time>2019-09-11T07:44:09Z</time>
      </trkpt>
      <trkpt lat="47.36706" lon="6.45317">
        <ele>307.20001220703</ele>
        <time>2019-09-11T07:44:10Z</time>
      </trkpt>
      <trkpt lat="47.36673" lon="6.45317">
        <ele>307.20001220703</ele>
        <time>2019-09-11T07:44:17Z</time>
      </trkpt>
      <trkpt lat="47.36631" lon="6.45315">
        <ele>307.20001220703</ele>
        <time>2019-09-11T07:44:26Z</time>
      </trkpt>
      <trkpt lat="47.36622" lon="6.45314">
        <ele>307.20001220703</ele>
        <time>2019-09-11T07:44:28Z</time>
      </trkpt>
      <trkpt lat="47.36593" lon="6.45313">
        <ele>307.39999389648</ele>
        <time>2019-09-11T07:44:34Z</time>
      </trkpt>
      <trkpt lat="47.36553" lon="6.45305">
        <ele>307.79998779297</ele>
        <time>2019-09-11T07:44:43Z</time>
      </trkpt>
      <trkpt lat="47.36525" lon="6.45297">
        <ele>307.79998779297</ele>
        <time>2019-09-11T07:44:50Z</time>
      </trkpt>
      <trkpt lat="47.36498" lon="6.45287">
        <ele>307.60000610352</ele>
        <time>2019-09-11T07:44:57Z</time>
      </trkpt>
      <trkpt lat="47.36469" lon="6.45278">
        <ele>307.60000610352</ele>
        <time>2019-09-11T07:45:05Z</time>
      </trkpt>
      <trkpt lat="47.36445" lon="6.45271">
        <ele>307.60000610352</ele>
        <time>2019-09-11T07:45:12Z</time>
      </trkpt>
      <trkpt lat="47.36417" lon="6.45256">
        <ele>307.39999389648</ele>
        <time>2019-09-11T07:45:19Z</time>
      </trkpt>
      <trkpt lat="47.36406" lon="6.45252">
        <ele>307.60000610352</ele>
        <time>2019-09-11T07:45:22Z</time>
      </trkpt>
      <trkpt lat="47.36396" lon="6.45251">
        <ele>307.20001220703</ele>
        <time>2019-09-11T07:45:24Z</time>
      </trkpt>
      <trkpt lat="47.36381" lon="6.45249">
        <ele>307.20001220703</ele>
        <time>2019-09-11T07:45:27Z</time>
      </trkpt>
      <trkpt lat="47.36368" lon="6.45241">
        <ele>307.20001220703</ele>
        <time>2019-09-11T07:45:30Z</time>
      </trkpt>
      <trkpt lat="47.3636" lon="6.45233">
        <ele>307.60000610352</ele>
        <time>2019-09-11T07:45:32Z</time>
      </trkpt>
      <trkpt lat="47.36346" lon="6.45216">
        <ele>307.60000610352</ele>
        <time>2019-09-11T07:45:36Z</time>
      </trkpt>
      <trkpt lat="47.36343" lon="6.45213">
        <ele>307.60000610352</ele>
        <time>2019-09-11T07:45:37Z</time>
      </trkpt>
      <trkpt lat="47.36324" lon="6.4519">
        <ele>308</ele>
        <time>2019-09-11T07:45:44Z</time>
      </trkpt>
      <trkpt lat="47.36318" lon="6.45181">
        <ele>308.79998779297</ele>
        <time>2019-09-11T07:45:46Z</time>
      </trkpt>
      <trkpt lat="47.36305" lon="6.45163">
        <ele>309</ele>
        <time>2019-09-11T07:45:51Z</time>
      </trkpt>
      <trkpt lat="47.36283" lon="6.45134">
        <ele>309</ele>
        <time>2019-09-11T07:45:58Z</time>
      </trkpt>
      <trkpt lat="47.36263" lon="6.45094">
        <ele>308.20001220703</ele>
        <time>2019-09-11T07:46:05Z</time>
      </trkpt>
      <trkpt lat="47.36259" lon="6.45075">
        <ele>307.79998779297</ele>
        <time>2019-09-11T07:46:08Z</time>
      </trkpt>
      <trkpt lat="47.36258" lon="6.45068">
        <ele>307.60000610352</ele>
        <time>2019-09-11T07:46:09Z</time>
      </trkpt>
      <trkpt lat="47.36254" lon="6.45055">
        <ele>307.39999389648</ele>
        <time>2019-09-11T07:46:11Z</time>
      </trkpt>
      <trkpt lat="47.36245" lon="6.45008">
        <ele>307.20001220703</ele>
        <time>2019-09-11T07:46:18Z</time>
      </trkpt>
      <trkpt lat="47.36242" lon="6.4498">
        <ele>307.20001220703</ele>
        <time>2019-09-11T07:46:22Z</time>
      </trkpt>
      <trkpt lat="47.36242" lon="6.44966">
        <ele>307.20001220703</ele>
        <time>2019-09-11T07:46:24Z</time>
      </trkpt>
      <trkpt lat="47.36242" lon="6.44959">
        <ele>307.20001220703</ele>
        <time>2019-09-11T07:46:25Z</time>
      </trkpt>
      <trkpt lat="47.36241" lon="6.44932">
        <ele>307.39999389648</ele>
        <time>2019-09-11T07:46:29Z</time>
      </trkpt>
      <trkpt lat="47.36241" lon="6.44918">
        <ele>307.60000610352</ele>
        <time>2019-09-11T07:46:31Z</time>
      </trkpt>
      <trkpt lat="47.36243" lon="6.44875">
        <ele>307.60000610352</ele>
        <time>2019-09-11T07:46:37Z</time>
      </trkpt>
      <trkpt lat="47.36247" lon="6.44826">
        <ele>307.60000610352</ele>
        <time>2019-09-11T07:46:44Z</time>
      </trkpt>
      <trkpt lat="47.36258" lon="6.44784">
        <ele>307.79998779297</ele>
        <time>2019-09-11T07:46:50Z</time>
      </trkpt>
      <trkpt lat="47.3627" lon="6.44737">
        <ele>307.79998779297</ele>
        <time>2019-09-11T07:46:57Z</time>
      </trkpt>
      <trkpt lat="47.36286" lon="6.44687">
        <ele>307.79998779297</ele>
        <time>2019-09-11T07:47:04Z</time>
      </trkpt>
      <trkpt lat="47.36299" lon="6.44647">
        <ele>308</ele>
        <time>2019-09-11T07:47:10Z</time>
      </trkpt>
      <trkpt lat="47.36317" lon="6.446">
        <ele>307.79998779297</ele>
        <time>2019-09-11T07:47:17Z</time>
      </trkpt>
      <trkpt lat="47.36332" lon="6.44561">
        <ele>308</ele>
        <time>2019-09-11T07:47:23Z</time>
      </trkpt>
      <trkpt lat="47.36352" lon="6.44516">
        <ele>308</ele>
        <time>2019-09-11T07:47:30Z</time>
      </trkpt>
      <trkpt lat="47.3636" lon="6.44499">
        <ele>308</ele>
        <time>2019-09-11T07:47:33Z</time>
      </trkpt>
      <trkpt lat="47.36367" lon="6.44481">
        <ele>308</ele>
        <time>2019-09-11T07:47:36Z</time>
      </trkpt>
      <trkpt lat="47.36378" lon="6.44453">
        <ele>307.79998779297</ele>
        <time>2019-09-11T07:47:41Z</time>
      </trkpt>
      <trkpt lat="47.36396" lon="6.44409">
        <ele>307.60000610352</ele>
        <time>2019-09-11T07:47:48Z</time>
      </trkpt>
      <trkpt lat="47.36399" lon="6.44403">
        <ele>307.60000610352</ele>
        <time>2019-09-11T07:47:49Z</time>
      </trkpt>
      <trkpt lat="47.36408" lon="6.44385">
        <ele>307.39999389648</ele>
        <time>2019-09-11T07:47:52Z</time>
      </trkpt>
      <trkpt lat="47.36414" lon="6.44377">
        <ele>307.39999389648</ele>
        <time>2019-09-11T07:47:54Z</time>
      </trkpt>
      <trkpt lat="47.36417" lon="6.44372">
        <ele>307.60000610352</ele>
        <time>2019-09-11T07:47:55Z</time>
      </trkpt>
      <trkpt lat="47.36423" lon="6.44355">
        <ele>307.39999389648</ele>
        <time>2019-09-11T07:47:58Z</time>
      </trkpt>
      <trkpt lat="47.36428" lon="6.44343">
        <ele>307.20001220703</ele>
        <time>2019-09-11T07:48:00Z</time>
      </trkpt>
      <trkpt lat="47.36438" lon="6.44325">
        <ele>306.79998779297</ele>
        <time>2019-09-11T07:48:03Z</time>
      </trkpt>
      <trkpt lat="47.36463" lon="6.44288">
        <ele>306.79998779297</ele>
        <time>2019-09-11T07:48:09Z</time>
      </trkpt>
      <trkpt lat="47.36481" lon="6.44254">
        <ele>306.79998779297</ele>
        <time>2019-09-11T07:48:15Z</time>
      </trkpt>
      <trkpt lat="47.36489" lon="6.44227">
        <ele>306.79998779297</ele>
        <time>2019-09-11T07:48:20Z</time>
      </trkpt>
      <trkpt lat="47.36503" lon="6.44194">
        <ele>307</ele>
        <time>2019-09-11T07:48:26Z</time>
      </trkpt>
      <trkpt lat="47.36516" lon="6.44161">
        <ele>307</ele>
        <time>2019-09-11T07:48:32Z</time>
      </trkpt>
      <trkpt lat="47.36532" lon="6.44131">
        <ele>307</ele>
        <time>2019-09-11T07:48:37Z</time>
      </trkpt>
      <trkpt lat="47.36548" lon="6.44102">
        <ele>307.20001220703</ele>
        <time>2019-09-11T07:48:41Z</time>
      </trkpt>
      <trkpt lat="47.36553" lon="6.44095">
        <ele>307.20001220703</ele>
        <time>2019-09-11T07:48:42Z</time>
      </trkpt>
      <trkpt lat="47.36584" lon="6.44037">
        <ele>307</ele>
        <time>2019-09-11T07:48:50Z</time>
      </trkpt>
      <trkpt lat="47.36609" lon="6.43986">
        <ele>306.79998779297</ele>
        <time>2019-09-11T07:48:57Z</time>
      </trkpt>
      <trkpt lat="47.36613" lon="6.43979">
        <ele>306.79998779297</ele>
        <time>2019-09-11T07:48:58Z</time>
      </trkpt>
      <trkpt lat="47.36629" lon="6.43937">
        <ele>306.60000610352</ele>
        <time>2019-09-11T07:49:04Z</time>
      </trkpt>
      <trkpt lat="47.36643" lon="6.4388">
        <ele>306.39999389648</ele>
        <time>2019-09-11T07:49:12Z</time>
      </trkpt>
      <trkpt lat="47.36654" lon="6.43813">
        <ele>306.60000610352</ele>
        <time>2019-09-11T07:49:21Z</time>
      </trkpt>
      <trkpt lat="47.36657" lon="6.43753">
        <ele>306.60000610352</ele>
        <time>2019-09-11T07:49:29Z</time>
      </trkpt>
      <trkpt lat="47.36658" lon="6.43716">
        <ele>306.60000610352</ele>
        <time>2019-09-11T07:49:34Z</time>
      </trkpt>
      <trkpt lat="47.3666" lon="6.43701">
        <ele>306.39999389648</ele>
        <time>2019-09-11T07:49:36Z</time>
      </trkpt>
      <trkpt lat="47.36666" lon="6.43655">
        <ele>306.60000610352</ele>
        <time>2019-09-11T07:49:43Z</time>
      </trkpt>
      <trkpt lat="47.3667" lon="6.4362">
        <ele>306.60000610352</ele>
        <time>2019-09-11T07:49:49Z</time>
      </trkpt>
      <trkpt lat="47.36676" lon="6.43577">
        <ele>306.60000610352</ele>
        <time>2019-09-11T07:49:56Z</time>
      </trkpt>
      <trkpt lat="47.36677" lon="6.43563">
        <ele>306.60000610352</ele>
        <time>2019-09-11T07:49:58Z</time>
      </trkpt>
      <trkpt lat="47.36678" lon="6.43533">
        <ele>306.60000610352</ele>
        <time>2019-09-11T07:50:02Z</time>
      </trkpt>
      <trkpt lat="47.36679" lon="6.43508">
        <ele>306.20001220703</ele>
        <time>2019-09-11T07:50:05Z</time>
      </trkpt>
      <trkpt lat="47.36681" lon="6.43478">
        <ele>305.79998779297</ele>
        <time>2019-09-11T07:50:09Z</time>
      </trkpt>
      <trkpt lat="47.36685" lon="6.43421">
        <ele>305.79998779297</ele>
        <time>2019-09-11T07:50:17Z</time>
      </trkpt>
      <trkpt lat="47.36691" lon="6.43364">
        <ele>306</ele>
        <time>2019-09-11T07:50:25Z</time>
      </trkpt>
      <trkpt lat="47.36695" lon="6.43305">
        <ele>306</ele>
        <time>2019-09-11T07:50:33Z</time>
      </trkpt>
      <trkpt lat="47.36695" lon="6.43299">
        <ele>306</ele>
        <time>2019-09-11T07:50:34Z</time>
      </trkpt>
      <trkpt lat="47.36699" lon="6.43264">
        <ele>306</ele>
        <time>2019-09-11T07:50:39Z</time>
      </trkpt>
      <trkpt lat="47.36704" lon="6.43221">
        <ele>306.39999389648</ele>
        <time>2019-09-11T07:50:45Z</time>
      </trkpt>
      <trkpt lat="47.36713" lon="6.43163">
        <ele>306.39999389648</ele>
        <time>2019-09-11T07:50:53Z</time>
      </trkpt>
      <trkpt lat="47.36728" lon="6.43094">
        <ele>306.60000610352</ele>
        <time>2019-09-11T07:51:03Z</time>
      </trkpt>
      <trkpt lat="47.36735" lon="6.43055">
        <ele>306.60000610352</ele>
        <time>2019-09-11T07:51:09Z</time>
      </trkpt>
      <trkpt lat="47.36742" lon="6.43014">
        <ele>306.60000610352</ele>
        <time>2019-09-11T07:51:15Z</time>
      </trkpt>
      <trkpt lat="47.36755" lon="6.42952">
        <ele>306.60000610352</ele>
        <time>2019-09-11T07:51:23Z</time>
      </trkpt>
      <trkpt lat="47.36777" lon="6.4288">
        <ele>306.60000610352</ele>
        <time>2019-09-11T07:51:33Z</time>
      </trkpt>
      <trkpt lat="47.36787" lon="6.42855">
        <ele>306.79998779297</ele>
        <time>2019-09-11T07:51:38Z</time>
      </trkpt>
      <trkpt lat="47.36787" lon="6.42853">
        <ele>306.79998779297</ele>
        <time>2019-09-11T07:51:41Z</time>
      </trkpt>
      <trkpt lat="47.36788" lon="6.42845">
        <ele>307.39999389648</ele>
        <time>2019-09-11T07:52:06Z</time>
      </trkpt>
      <trkpt lat="47.36796" lon="6.42829">
        <ele>307.39999389648</ele>
        <time>2019-09-11T07:52:10Z</time>
      </trkpt>
      <trkpt lat="47.36803" lon="6.42816">
        <ele>307.20001220703</ele>
        <time>2019-09-11T07:52:13Z</time>
      </trkpt>
      <trkpt lat="47.3681" lon="6.42807">
        <ele>307.20001220703</ele>
        <time>2019-09-11T07:52:15Z</time>
      </trkpt>
      <trkpt lat="47.36825" lon="6.4279">
        <ele>307</ele>
        <time>2019-09-11T07:52:19Z</time>
      </trkpt>
      <trkpt lat="47.36833" lon="6.42783">
        <ele>307</ele>
        <time>2019-09-11T07:52:21Z</time>
      </trkpt>
      <trkpt lat="47.36861" lon="6.42768">
        <ele>306.79998779297</ele>
        <time>2019-09-11T07:52:27Z</time>
      </trkpt>
      <trkpt lat="47.36866" lon="6.42767">
        <ele>306.79998779297</ele>
        <time>2019-09-11T07:52:28Z</time>
      </trkpt>
      <trkpt lat="47.36903" lon="6.42744">
        <ele>306.79998779297</ele>
        <time>2019-09-11T07:52:36Z</time>
      </trkpt>
      <trkpt lat="47.36934" lon="6.42727">
        <ele>307.20001220703</ele>
        <time>2019-09-11T07:52:43Z</time>
      </trkpt>
      <trkpt lat="47.36939" lon="6.42726">
        <ele>307.20001220703</ele>
        <time>2019-09-11T07:52:44Z</time>
      </trkpt>
      <trkpt lat="47.3696" lon="6.42725">
        <ele>307.39999389648</ele>
        <time>2019-09-11T07:52:49Z</time>
      </trkpt>
      <trkpt lat="47.36992" lon="6.42727">
        <ele>308.39999389648</ele>
        <time>2019-09-11T07:52:56Z</time>
      </trkpt>
      <trkpt lat="47.36997" lon="6.42728">
        <ele>308.39999389648</ele>
        <time>2019-09-11T07:52:57Z</time>
      </trkpt>
      <trkpt lat="47.37006" lon="6.4273">
        <ele>308.39999389648</ele>
        <time>2019-09-11T07:52:59Z</time>
      </trkpt>
      <trkpt lat="47.37016" lon="6.42733">
        <ele>308.60000610352</ele>
        <time>2019-09-11T07:53:02Z</time>
      </trkpt>
      <trkpt lat="47.37018" lon="6.42733">
        <ele>308.60000610352</ele>
        <time>2019-09-11T07:53:06Z</time>
      </trkpt>
      <trkpt lat="47.3702" lon="6.42732">
        <ele>308.60000610352</ele>
        <time>2019-09-11T07:53:08Z</time>
      </trkpt>
      <trkpt lat="47.37021" lon="6.42732">
        <ele>308.60000610352</ele>
        <time>2019-09-11T07:53:09Z</time>
      </trkpt>
      <trkpt lat="47.37034" lon="6.4273">
        <ele>308.39999389648</ele>
        <time>2019-09-11T07:53:13Z</time>
      </trkpt>
      <trkpt lat="47.37042" lon="6.42728">
        <ele>308.39999389648</ele>
        <time>2019-09-11T07:53:15Z</time>
      </trkpt>
      <trkpt lat="47.37058" lon="6.4272">
        <ele>308.39999389648</ele>
        <time>2019-09-11T07:53:19Z</time>
      </trkpt>
      <trkpt lat="47.37067" lon="6.42717">
        <ele>308.39999389648</ele>
        <time>2019-09-11T07:53:21Z</time>
      </trkpt>
      <trkpt lat="47.37089" lon="6.42713">
        <ele>308.60000610352</ele>
        <time>2019-09-11T07:53:26Z</time>
      </trkpt>
      <trkpt lat="47.37097" lon="6.4271">
        <ele>308.60000610352</ele>
        <time>2019-09-11T07:53:28Z</time>
      </trkpt>
      <trkpt lat="47.37109" lon="6.42701">
        <ele>308.79998779297</ele>
        <time>2019-09-11T07:53:31Z</time>
      </trkpt>
      <trkpt lat="47.37121" lon="6.4268">
        <ele>308.79998779297</ele>
        <time>2019-09-11T07:53:35Z</time>
      </trkpt>
      <trkpt lat="47.37123" lon="6.42674">
        <ele>308.79998779297</ele>
        <time>2019-09-11T07:53:36Z</time>
      </trkpt>
      <trkpt lat="47.37148" lon="6.4263">
        <ele>308.79998779297</ele>
        <time>2019-09-11T07:53:44Z</time>
      </trkpt>
      <trkpt lat="47.37165" lon="6.42595">
        <ele>308.60000610352</ele>
        <time>2019-09-11T07:53:50Z</time>
      </trkpt>
      <trkpt lat="47.37167" lon="6.42588">
        <ele>308.60000610352</ele>
        <time>2019-09-11T07:53:51Z</time>
      </trkpt>
      <trkpt lat="47.37169" lon="6.42582">
        <ele>308.60000610352</ele>
        <time>2019-09-11T07:53:52Z</time>
      </trkpt>
      <trkpt lat="47.37171" lon="6.42554">
        <ele>308.39999389648</ele>
        <time>2019-09-11T07:53:56Z</time>
      </trkpt>
      <trkpt lat="47.37171" lon="6.42547">
        <ele>308.39999389648</ele>
        <time>2019-09-11T07:53:57Z</time>
      </trkpt>
      <trkpt lat="47.37167" lon="6.4252">
        <ele>308.39999389648</ele>
        <time>2019-09-11T07:54:01Z</time>
      </trkpt>
      <trkpt lat="47.37151" lon="6.42474">
        <ele>308.39999389648</ele>
        <time>2019-09-11T07:54:08Z</time>
      </trkpt>
      <trkpt lat="47.37134" lon="6.4243">
        <ele>308.20001220703</ele>
        <time>2019-09-11T07:54:15Z</time>
      </trkpt>
      <trkpt lat="47.37131" lon="6.42424">
        <ele>308.20001220703</ele>
        <time>2019-09-11T07:54:16Z</time>
      </trkpt>
      <trkpt lat="47.37107" lon="6.42368">
        <ele>308.20001220703</ele>
        <time>2019-09-11T07:54:25Z</time>
      </trkpt>
      <trkpt lat="47.37079" lon="6.42309">
        <ele>308.20001220703</ele>
        <time>2019-09-11T07:54:35Z</time>
      </trkpt>
      <trkpt lat="47.37053" lon="6.42265">
        <ele>308.20001220703</ele>
        <time>2019-09-11T07:54:43Z</time>
      </trkpt>
      <trkpt lat="47.37021" lon="6.42216">
        <ele>308.39999389648</ele>
        <time>2019-09-11T07:54:52Z</time>
      </trkpt>
      <trkpt lat="47.36986" lon="6.42173">
        <ele>308</ele>
        <time>2019-09-11T07:55:01Z</time>
      </trkpt>
      <trkpt lat="47.36953" lon="6.42139">
        <ele>308</ele>
        <time>2019-09-11T07:55:09Z</time>
      </trkpt>
      <trkpt lat="47.36945" lon="6.42132">
        <ele>308</ele>
        <time>2019-09-11T07:55:11Z</time>
      </trkpt>
      <trkpt lat="47.36928" lon="6.42118">
        <ele>308</ele>
        <time>2019-09-11T07:55:15Z</time>
      </trkpt>
      <trkpt lat="47.36886" lon="6.42087">
        <ele>308</ele>
        <time>2019-09-11T07:55:24Z</time>
      </trkpt>
      <trkpt lat="47.36854" lon="6.42064">
        <ele>307.79998779297</ele>
        <time>2019-09-11T07:55:31Z</time>
      </trkpt>
      <trkpt lat="47.36813" lon="6.42039">
        <ele>307.79998779297</ele>
        <time>2019-09-11T07:55:40Z</time>
      </trkpt>
      <trkpt lat="47.36771" lon="6.42015">
        <ele>307.79998779297</ele>
        <time>2019-09-11T07:55:49Z</time>
      </trkpt>
      <trkpt lat="47.36724" lon="6.41989">
        <ele>307.60000610352</ele>
        <time>2019-09-11T07:55:59Z</time>
      </trkpt>
      <trkpt lat="47.36682" lon="6.41965">
        <ele>307.39999389648</ele>
        <time>2019-09-11T07:56:08Z</time>
      </trkpt>
      <trkpt lat="47.36668" lon="6.41958">
        <ele>307.39999389648</ele>
        <time>2019-09-11T07:56:11Z</time>
      </trkpt>
      <trkpt lat="47.36654" lon="6.4195">
        <ele>307.39999389648</ele>
        <time>2019-09-11T07:56:14Z</time>
      </trkpt>
      <trkpt lat="47.36616" lon="6.41933">
        <ele>307.39999389648</ele>
        <time>2019-09-11T07:56:22Z</time>
      </trkpt>
      <trkpt lat="47.36589" lon="6.41922">
        <ele>307.39999389648</ele>
        <time>2019-09-11T07:56:28Z</time>
      </trkpt>
      <trkpt lat="47.36558" lon="6.41915">
        <ele>307.39999389648</ele>
        <time>2019-09-11T07:56:34Z</time>
      </trkpt>
      <trkpt lat="47.36522" lon="6.4191">
        <ele>307.60000610352</ele>
        <time>2019-09-11T07:56:41Z</time>
      </trkpt>
      <trkpt lat="47.36486" lon="6.41905">
        <ele>307.39999389648</ele>
        <time>2019-09-11T07:56:48Z</time>
      </trkpt>
      <trkpt lat="47.3646" lon="6.41902">
        <ele>307.60000610352</ele>
        <time>2019-09-11T07:56:53Z</time>
      </trkpt>
      <trkpt lat="47.36404" lon="6.41904">
        <ele>307.39999389648</ele>
        <time>2019-09-11T07:57:04Z</time>
      </trkpt>
      <trkpt lat="47.3637" lon="6.41905">
        <ele>307.39999389648</ele>
        <time>2019-09-11T07:57:11Z</time>
      </trkpt>
      <trkpt lat="47.3633" lon="6.41912">
        <ele>307.20001220703</ele>
        <time>2019-09-11T07:57:19Z</time>
      </trkpt>
      <trkpt lat="47.36282" lon="6.4192">
        <ele>306.79998779297</ele>
        <time>2019-09-11T07:57:28Z</time>
      </trkpt>
      <trkpt lat="47.36277" lon="6.41921">
        <ele>306.79998779297</ele>
        <time>2019-09-11T07:57:29Z</time>
      </trkpt>
      <trkpt lat="47.36242" lon="6.41928">
        <ele>306.39999389648</ele>
        <time>2019-09-11T07:57:36Z</time>
      </trkpt>
      <trkpt lat="47.36194" lon="6.41937">
        <ele>306.39999389648</ele>
        <time>2019-09-11T07:57:45Z</time>
      </trkpt>
      <trkpt lat="47.36167" lon="6.41941">
        <ele>305.60000610352</ele>
        <time>2019-09-11T07:57:50Z</time>
      </trkpt>
      <trkpt lat="47.36157" lon="6.41942">
        <ele>304.79998779297</ele>
        <time>2019-09-11T07:57:52Z</time>
      </trkpt>
      <trkpt lat="47.36142" lon="6.41944">
        <ele>304.39999389648</ele>
        <time>2019-09-11T07:57:55Z</time>
      </trkpt>
      <trkpt lat="47.36122" lon="6.41945">
        <ele>304.39999389648</ele>
        <time>2019-09-11T07:57:59Z</time>
      </trkpt>
      <trkpt lat="47.36083" lon="6.41945">
        <ele>304.39999389648</ele>
        <time>2019-09-11T07:58:07Z</time>
      </trkpt>
      <trkpt lat="47.3605" lon="6.41942">
        <ele>304.39999389648</ele>
        <time>2019-09-11T07:58:14Z</time>
      </trkpt>
      <trkpt lat="47.36011" lon="6.41939">
        <ele>304.60000610352</ele>
        <time>2019-09-11T07:58:22Z</time>
      </trkpt>
      <trkpt lat="47.35976" lon="6.41935">
        <ele>304.60000610352</ele>
        <time>2019-09-11T07:58:29Z</time>
      </trkpt>
      <trkpt lat="47.35939" lon="6.41928">
        <ele>304.39999389648</ele>
        <time>2019-09-11T07:58:37Z</time>
      </trkpt>
      <trkpt lat="47.35916" lon="6.41923">
        <ele>304.39999389648</ele>
        <time>2019-09-11T07:58:42Z</time>
      </trkpt>
      <trkpt lat="47.35902" lon="6.41918">
        <ele>304.39999389648</ele>
        <time>2019-09-11T07:58:45Z</time>
      </trkpt>
      <trkpt lat="47.35876" lon="6.41904">
        <ele>304.39999389648</ele>
        <time>2019-09-11T07:58:51Z</time>
      </trkpt>
      <trkpt lat="47.35852" lon="6.41881">
        <ele>304.39999389648</ele>
        <time>2019-09-11T07:58:57Z</time>
      </trkpt>
      <trkpt lat="47.35832" lon="6.41849">
        <ele>304.39999389648</ele>
        <time>2019-09-11T07:59:03Z</time>
      </trkpt>
      <trkpt lat="47.35817" lon="6.41809">
        <ele>304.39999389648</ele>
        <time>2019-09-11T07:59:10Z</time>
      </trkpt>
      <trkpt lat="47.35815" lon="6.41802">
        <ele>304.39999389648</ele>
        <time>2019-09-11T07:59:11Z</time>
      </trkpt>
      <trkpt lat="47.35809" lon="6.41783">
        <ele>304.39999389648</ele>
        <time>2019-09-11T07:59:14Z</time>
      </trkpt>
      <trkpt lat="47.35807" lon="6.41776">
        <ele>304.20001220703</ele>
        <time>2019-09-11T07:59:15Z</time>
      </trkpt>
      <trkpt lat="47.35792" lon="6.41729">
        <ele>304.20001220703</ele>
        <time>2019-09-11T07:59:22Z</time>
      </trkpt>
      <trkpt lat="47.35783" lon="6.41694">
        <ele>304.20001220703</ele>
        <time>2019-09-11T07:59:27Z</time>
      </trkpt>
      <trkpt lat="47.35779" lon="6.41672">
        <ele>304.20001220703</ele>
        <time>2019-09-11T07:59:30Z</time>
      </trkpt>
      <trkpt lat="47.35773" lon="6.41628">
        <ele>304.20001220703</ele>
        <time>2019-09-11T07:59:36Z</time>
      </trkpt>
      <trkpt lat="47.3577" lon="6.41595">
        <ele>304.20001220703</ele>
        <time>2019-09-11T07:59:41Z</time>
      </trkpt>
      <trkpt lat="47.35763" lon="6.41553">
        <ele>304.20001220703</ele>
        <time>2019-09-11T07:59:47Z</time>
      </trkpt>
      <trkpt lat="47.35754" lon="6.41508">
        <ele>304.20001220703</ele>
        <time>2019-09-11T07:59:53Z</time>
      </trkpt>
      <trkpt lat="47.35743" lon="6.41448">
        <ele>304.20001220703</ele>
        <time>2019-09-11T08:00:01Z</time>
      </trkpt>
      <trkpt lat="47.3573" lon="6.41393">
        <ele>304</ele>
        <time>2019-09-11T08:00:09Z</time>
      </trkpt>
      <trkpt lat="47.35717" lon="6.41337">
        <ele>304.20001220703</ele>
        <time>2019-09-11T08:00:17Z</time>
      </trkpt>
      <trkpt lat="47.35705" lon="6.41281">
        <ele>304.20001220703</ele>
        <time>2019-09-11T08:00:25Z</time>
      </trkpt>
      <trkpt lat="47.35696" lon="6.41238">
        <ele>304</ele>
        <time>2019-09-11T08:00:31Z</time>
      </trkpt>
      <trkpt lat="47.35692" lon="6.41217">
        <ele>304</ele>
        <time>2019-09-11T08:00:34Z</time>
      </trkpt>
      <trkpt lat="47.35678" lon="6.41137">
        <ele>303.79998779297</ele>
        <time>2019-09-11T08:00:45Z</time>
      </trkpt>
      <trkpt lat="47.35667" lon="6.41073">
        <ele>303.79998779297</ele>
        <time>2019-09-11T08:00:54Z</time>
      </trkpt>
      <trkpt lat="47.35659" lon="6.41017">
        <ele>303.79998779297</ele>
        <time>2019-09-11T08:01:02Z</time>
      </trkpt>
      <trkpt lat="47.35652" lon="6.40944">
        <ele>303.60000610352</ele>
        <time>2019-09-11T08:01:12Z</time>
      </trkpt>
      <trkpt lat="47.35645" lon="6.4088">
        <ele>303.39999389648</ele>
        <time>2019-09-11T08:01:21Z</time>
      </trkpt>
      <trkpt lat="47.35641" lon="6.40836">
        <ele>303.39999389648</ele>
        <time>2019-09-11T08:01:27Z</time>
      </trkpt>
      <trkpt lat="47.35639" lon="6.40814">
        <ele>303.39999389648</ele>
        <time>2019-09-11T08:01:30Z</time>
      </trkpt>
      <trkpt lat="47.35638" lon="6.40807">
        <ele>303.39999389648</ele>
        <time>2019-09-11T08:01:31Z</time>
      </trkpt>
      <trkpt lat="47.35633" lon="6.40743">
        <ele>303.39999389648</ele>
        <time>2019-09-11T08:01:40Z</time>
      </trkpt>
      <trkpt lat="47.35635" lon="6.40684">
        <ele>303.20001220703</ele>
        <time>2019-09-11T08:01:48Z</time>
      </trkpt>
      <trkpt lat="47.35639" lon="6.40625">
        <ele>303.20001220703</ele>
        <time>2019-09-11T08:01:56Z</time>
      </trkpt>
      <trkpt lat="47.35645" lon="6.40559">
        <ele>303.20001220703</ele>
        <time>2019-09-11T08:02:05Z</time>
      </trkpt>
      <trkpt lat="47.35653" lon="6.40494">
        <ele>303.39999389648</ele>
        <time>2019-09-11T08:02:14Z</time>
      </trkpt>
      <trkpt lat="47.35659" lon="6.40436">
        <ele>303.20001220703</ele>
        <time>2019-09-11T08:02:22Z</time>
      </trkpt>
      <trkpt lat="47.35667" lon="6.4037">
        <ele>303.39999389648</ele>
        <time>2019-09-11T08:02:31Z</time>
      </trkpt>
      <trkpt lat="47.35672" lon="6.40326">
        <ele>303.39999389648</ele>
        <time>2019-09-11T08:02:38Z</time>
      </trkpt>
      <trkpt lat="47.35674" lon="6.40315">
        <ele>303.39999389648</ele>
        <time>2019-09-11T08:02:42Z</time>
      </trkpt>
      <trkpt lat="47.35674" lon="6.40315">
        <ele>303.39999389648</ele>
        <time>2019-09-11T08:02:43Z</time>
      </trkpt>
      <trkpt lat="47.35674" lon="6.40311">
        <ele>304.39999389648</ele>
        <time>2019-09-11T08:03:42Z</time>
      </trkpt>
      <trkpt lat="47.35676" lon="6.40303">
        <ele>304.39999389648</ele>
        <time>2019-09-11T08:03:44Z</time>
      </trkpt>
      <trkpt lat="47.35686" lon="6.40262">
        <ele>304.39999389648</ele>
        <time>2019-09-11T08:03:51Z</time>
      </trkpt>
      <trkpt lat="47.35699" lon="6.40215">
        <ele>304.39999389648</ele>
        <time>2019-09-11T08:03:58Z</time>
      </trkpt>
      <trkpt lat="47.35713" lon="6.40159">
        <ele>304.39999389648</ele>
        <time>2019-09-11T08:04:06Z</time>
      </trkpt>
      <trkpt lat="47.35726" lon="6.40108">
        <ele>304.39999389648</ele>
        <time>2019-09-11T08:04:13Z</time>
      </trkpt>
      <trkpt lat="47.35745" lon="6.4003">
        <ele>304</ele>
        <time>2019-09-11T08:04:24Z</time>
      </trkpt>
      <trkpt lat="47.35746" lon="6.40023">
        <ele>304</ele>
        <time>2019-09-11T08:04:25Z</time>
      </trkpt>
      <trkpt lat="47.35753" lon="6.3998">
        <ele>304</ele>
        <time>2019-09-11T08:04:31Z</time>
      </trkpt>
      <trkpt lat="47.35752" lon="6.39973">
        <ele>304</ele>
        <time>2019-09-11T08:04:32Z</time>
      </trkpt>
      <trkpt lat="47.3575" lon="6.39959">
        <ele>304</ele>
        <time>2019-09-11T08:04:34Z</time>
      </trkpt>
      <trkpt lat="47.35751" lon="6.39937">
        <ele>304</ele>
        <time>2019-09-11T08:04:37Z</time>
      </trkpt>
      <trkpt lat="47.35754" lon="6.39923">
        <ele>304</ele>
        <time>2019-09-11T08:04:39Z</time>
      </trkpt>
      <trkpt lat="47.35761" lon="6.39901">
        <ele>304</ele>
        <time>2019-09-11T08:04:42Z</time>
      </trkpt>
      <trkpt lat="47.35763" lon="6.39893">
        <ele>304</ele>
        <time>2019-09-11T08:04:43Z</time>
      </trkpt>
      <trkpt lat="47.35767" lon="6.39841">
        <ele>303.60000610352</ele>
        <time>2019-09-11T08:04:49Z</time>
      </trkpt>
      <trkpt lat="47.35768" lon="6.39792">
        <ele>302.60000610352</ele>
        <time>2019-09-11T08:04:55Z</time>
      </trkpt>
      <trkpt lat="47.35768" lon="6.39784">
        <ele>302.39999389648</ele>
        <time>2019-09-11T08:04:56Z</time>
      </trkpt>
      <trkpt lat="47.35765" lon="6.397">
        <ele>301.79998779297</ele>
        <time>2019-09-11T08:05:07Z</time>
      </trkpt>
      <trkpt lat="47.35752" lon="6.39618">
        <ele>301.79998779297</ele>
        <time>2019-09-11T08:05:18Z</time>
      </trkpt>
      <trkpt lat="47.35747" lon="6.39596">
        <ele>301.79998779297</ele>
        <time>2019-09-11T08:05:21Z</time>
      </trkpt>
      <trkpt lat="47.35733" lon="6.39539">
        <ele>301.60000610352</ele>
        <time>2019-09-11T08:05:29Z</time>
      </trkpt>
      <trkpt lat="47.35711" lon="6.3947">
        <ele>301.60000610352</ele>
        <time>2019-09-11T08:05:39Z</time>
      </trkpt>
      <trkpt lat="47.35686" lon="6.39414">
        <ele>301.39999389648</ele>
        <time>2019-09-11T08:05:48Z</time>
      </trkpt>
      <trkpt lat="47.35659" lon="6.3937">
        <ele>301.39999389648</ele>
        <time>2019-09-11T08:05:56Z</time>
      </trkpt>
      <trkpt lat="47.35621" lon="6.39323">
        <ele>301.39999389648</ele>
        <time>2019-09-11T08:06:06Z</time>
      </trkpt>
      <trkpt lat="47.35584" lon="6.39287">
        <ele>301.39999389648</ele>
        <time>2019-09-11T08:06:15Z</time>
      </trkpt>
      <trkpt lat="47.35551" lon="6.39257">
        <ele>301.60000610352</ele>
        <time>2019-09-11T08:06:23Z</time>
      </trkpt>
      <trkpt lat="47.35516" lon="6.39225">
        <ele>302.20001220703</ele>
        <time>2019-09-11T08:06:32Z</time>
      </trkpt>
      <trkpt lat="47.35473" lon="6.39186">
        <ele>303</ele>
        <time>2019-09-11T08:06:42Z</time>
      </trkpt>
      <trkpt lat="47.35438" lon="6.39157">
        <ele>302.79998779297</ele>
        <time>2019-09-11T08:06:50Z</time>
      </trkpt>
      <trkpt lat="47.35413" lon="6.39125">
        <ele>302.39999389648</ele>
        <time>2019-09-11T08:06:57Z</time>
      </trkpt>
      <trkpt lat="47.35392" lon="6.39089">
        <ele>302.20001220703</ele>
        <time>2019-09-11T08:07:04Z</time>
      </trkpt>
      <trkpt lat="47.35369" lon="6.39056">
        <ele>302</ele>
        <time>2019-09-11T08:07:10Z</time>
      </trkpt>
      <trkpt lat="47.35343" lon="6.39014">
        <ele>302</ele>
        <time>2019-09-11T08:07:17Z</time>
      </trkpt>
      <trkpt lat="47.35327" lon="6.38986">
        <ele>302</ele>
        <time>2019-09-11T08:07:22Z</time>
      </trkpt>
      <trkpt lat="47.35314" lon="6.38968">
        <ele>302.20001220703</ele>
        <time>2019-09-11T08:07:26Z</time>
      </trkpt>
      <trkpt lat="47.35293" lon="6.38936">
        <ele>302.20001220703</ele>
        <time>2019-09-11T08:07:32Z</time>
      </trkpt>
      <trkpt lat="47.35276" lon="6.38891">
        <ele>302.20001220703</ele>
        <time>2019-09-11T08:07:39Z</time>
      </trkpt>
      <trkpt lat="47.35258" lon="6.38853">
        <ele>302.39999389648</ele>
        <time>2019-09-11T08:07:46Z</time>
      </trkpt>
      <trkpt lat="47.35238" lon="6.38801">
        <ele>303</ele>
        <time>2019-09-11T08:07:54Z</time>
      </trkpt>
      <trkpt lat="47.35223" lon="6.38764">
        <ele>303</ele>
        <time>2019-09-11T08:07:59Z</time>
      </trkpt>
      <trkpt lat="47.35218" lon="6.38749">
        <ele>302.79998779297</ele>
        <time>2019-09-11T08:08:01Z</time>
      </trkpt>
      <trkpt lat="47.35204" lon="6.38698">
        <ele>301.39999389648</ele>
        <time>2019-09-11T08:08:08Z</time>
      </trkpt>
      <trkpt lat="47.35202" lon="6.38684">
        <ele>301.20001220703</ele>
        <time>2019-09-11T08:08:10Z</time>
      </trkpt>
      <trkpt lat="47.35195" lon="6.3864">
        <ele>301</ele>
        <time>2019-09-11T08:08:16Z</time>
      </trkpt>
      <trkpt lat="47.35187" lon="6.38589">
        <ele>301</ele>
        <time>2019-09-11T08:08:23Z</time>
      </trkpt>
      <trkpt lat="47.35186" lon="6.38582">
        <ele>300.79998779297</ele>
        <time>2019-09-11T08:08:24Z</time>
      </trkpt>
      <trkpt lat="47.3518" lon="6.38522">
        <ele>301</ele>
        <time>2019-09-11T08:08:32Z</time>
      </trkpt>
      <trkpt lat="47.35183" lon="6.38477">
        <ele>300.79998779297</ele>
        <time>2019-09-11T08:08:38Z</time>
      </trkpt>
      <trkpt lat="47.35193" lon="6.38426">
        <ele>301.20001220703</ele>
        <time>2019-09-11T08:08:45Z</time>
      </trkpt>
      <trkpt lat="47.35202" lon="6.38368">
        <ele>301.20001220703</ele>
        <time>2019-09-11T08:08:53Z</time>
      </trkpt>
      <trkpt lat="47.35208" lon="6.38317">
        <ele>301.39999389648</ele>
        <time>2019-09-11T08:09:00Z</time>
      </trkpt>
      <trkpt lat="47.35215" lon="6.38249">
        <ele>301.20001220703</ele>
        <time>2019-09-11T08:09:09Z</time>
      </trkpt>
      <trkpt lat="47.35224" lon="6.38184">
        <ele>301.39999389648</ele>
        <time>2019-09-11T08:09:18Z</time>
      </trkpt>
      <trkpt lat="47.35234" lon="6.38126">
        <ele>301.39999389648</ele>
        <time>2019-09-11T08:09:26Z</time>
      </trkpt>
      <trkpt lat="47.35244" lon="6.38069">
        <ele>301.39999389648</ele>
        <time>2019-09-11T08:09:34Z</time>
      </trkpt>
      <trkpt lat="47.35244" lon="6.38062">
        <ele>301.39999389648</ele>
        <time>2019-09-11T08:09:35Z</time>
      </trkpt>
      <trkpt lat="47.35246" lon="6.38041">
        <ele>301.39999389648</ele>
        <time>2019-09-11T08:09:38Z</time>
      </trkpt>
      <trkpt lat="47.35252" lon="6.37988">
        <ele>301.39999389648</ele>
        <time>2019-09-11T08:09:45Z</time>
      </trkpt>
      <trkpt lat="47.35252" lon="6.37981">
        <ele>301.39999389648</ele>
        <time>2019-09-11T08:09:46Z</time>
      </trkpt>
      <trkpt lat="47.35258" lon="6.37947">
        <ele>301.60000610352</ele>
        <time>2019-09-11T08:09:51Z</time>
      </trkpt>
      <trkpt lat="47.35266" lon="6.37898">
        <ele>301.60000610352</ele>
        <time>2019-09-11T08:09:58Z</time>
      </trkpt>
      <trkpt lat="47.35278" lon="6.37852">
        <ele>301.60000610352</ele>
        <time>2019-09-11T08:10:05Z</time>
      </trkpt>
      <trkpt lat="47.35281" lon="6.3784">
        <ele>301.60000610352</ele>
        <time>2019-09-11T08:10:07Z</time>
      </trkpt>
      <trkpt lat="47.35288" lon="6.3781">
        <ele>301.60000610352</ele>
        <time>2019-09-11T08:10:12Z</time>
      </trkpt>
      <trkpt lat="47.35289" lon="6.37798">
        <ele>302</ele>
        <time>2019-09-11T08:10:14Z</time>
      </trkpt>
      <trkpt lat="47.35293" lon="6.37774">
        <ele>302.60000610352</ele>
        <time>2019-09-11T08:10:18Z</time>
      </trkpt>
      <trkpt lat="47.35293" lon="6.37725">
        <ele>303</ele>
        <time>2019-09-11T08:10:26Z</time>
      </trkpt>
      <trkpt lat="47.35293" lon="6.37719">
        <ele>303</ele>
        <time>2019-09-11T08:10:27Z</time>
      </trkpt>
      <trkpt lat="47.35293" lon="6.37712">
        <ele>303</ele>
        <time>2019-09-11T08:10:28Z</time>
      </trkpt>
      <trkpt lat="47.35289" lon="6.37679">
        <ele>303</ele>
        <time>2019-09-11T08:10:33Z</time>
      </trkpt>
      <trkpt lat="47.35282" lon="6.37622">
        <ele>303</ele>
        <time>2019-09-11T08:10:41Z</time>
      </trkpt>
      <trkpt lat="47.35267" lon="6.37553">
        <ele>303.20001220703</ele>
        <time>2019-09-11T08:10:51Z</time>
      </trkpt>
      <trkpt lat="47.35248" lon="6.375">
        <ele>303.39999389648</ele>
        <time>2019-09-11T08:10:59Z</time>
      </trkpt>
      <trkpt lat="47.35224" lon="6.37451">
        <ele>303.39999389648</ele>
        <time>2019-09-11T08:11:07Z</time>
      </trkpt>
      <trkpt lat="47.35205" lon="6.37413">
        <ele>303.39999389648</ele>
        <time>2019-09-11T08:11:14Z</time>
      </trkpt>
      <trkpt lat="47.35175" lon="6.37368">
        <ele>303.20001220703</ele>
        <time>2019-09-11T08:11:23Z</time>
      </trkpt>
      <trkpt lat="47.35149" lon="6.37346">
        <ele>303.20001220703</ele>
        <time>2019-09-11T08:11:29Z</time>
      </trkpt>
      <trkpt lat="47.35145" lon="6.37344">
        <ele>303</ele>
        <time>2019-09-11T08:11:30Z</time>
      </trkpt>
      <trkpt lat="47.35132" lon="6.37348">
        <ele>303</ele>
        <time>2019-09-11T08:11:33Z</time>
      </trkpt>
      <trkpt lat="47.35126" lon="6.37358">
        <ele>303</ele>
        <time>2019-09-11T08:11:35Z</time>
      </trkpt>
      <trkpt lat="47.35116" lon="6.37372">
        <ele>303</ele>
        <time>2019-09-11T08:11:38Z</time>
      </trkpt>
      <trkpt lat="47.35102" lon="6.37376">
        <ele>303.20001220703</ele>
        <time>2019-09-11T08:11:41Z</time>
      </trkpt>
      <trkpt lat="47.3509" lon="6.37363">
        <ele>303.20001220703</ele>
        <time>2019-09-11T08:11:44Z</time>
      </trkpt>
      <trkpt lat="47.3507" lon="6.37348">
        <ele>303.20001220703</ele>
        <time>2019-09-11T08:11:48Z</time>
      </trkpt>
      <trkpt lat="47.35046" lon="6.37351">
        <ele>303</ele>
        <time>2019-09-11T08:11:52Z</time>
      </trkpt>
      <trkpt lat="47.3502" lon="6.3736">
        <ele>302.20001220703</ele>
        <time>2019-09-11T08:11:56Z</time>
      </trkpt>
      <trkpt lat="47.34996" lon="6.37368">
        <ele>300.79998779297</ele>
        <time>2019-09-11T08:12:00Z</time>
      </trkpt>
      <trkpt lat="47.34991" lon="6.37371">
        <ele>300.60000610352</ele>
        <time>2019-09-11T08:12:01Z</time>
      </trkpt>
      <trkpt lat="47.34975" lon="6.37377">
        <ele>299.79998779297</ele>
        <time>2019-09-11T08:12:04Z</time>
      </trkpt>
      <trkpt lat="47.34951" lon="6.37386">
        <ele>299.39999389648</ele>
        <time>2019-09-11T08:12:09Z</time>
      </trkpt>
      <trkpt lat="47.34909" lon="6.37402">
        <ele>299.39999389648</ele>
        <time>2019-09-11T08:12:18Z</time>
      </trkpt>
      <trkpt lat="47.34861" lon="6.37415">
        <ele>299.79998779297</ele>
        <time>2019-09-11T08:12:28Z</time>
      </trkpt>
      <trkpt lat="47.34821" lon="6.37422">
        <ele>300</ele>
        <time>2019-09-11T08:12:36Z</time>
      </trkpt>
      <trkpt lat="47.34782" lon="6.37426">
        <ele>300</ele>
        <time>2019-09-11T08:12:44Z</time>
      </trkpt>
      <trkpt lat="47.34741" lon="6.37427">
        <ele>299.60000610352</ele>
        <time>2019-09-11T08:12:52Z</time>
      </trkpt>
      <trkpt lat="47.34691" lon="6.3742">
        <ele>299</ele>
        <time>2019-09-11T08:13:02Z</time>
      </trkpt>
      <trkpt lat="47.34681" lon="6.37418">
        <ele>299</ele>
        <time>2019-09-11T08:13:04Z</time>
      </trkpt>
      <trkpt lat="47.34646" lon="6.37411">
        <ele>299</ele>
        <time>2019-09-11T08:13:11Z</time>
      </trkpt>
      <trkpt lat="47.34607" lon="6.37395">
        <ele>299.39999389648</ele>
        <time>2019-09-11T08:13:19Z</time>
      </trkpt>
      <trkpt lat="47.34569" lon="6.37384">
        <ele>299.60000610352</ele>
        <time>2019-09-11T08:13:27Z</time>
      </trkpt>
      <trkpt lat="47.3453" lon="6.37378">
        <ele>299.79998779297</ele>
        <time>2019-09-11T08:13:35Z</time>
      </trkpt>
      <trkpt lat="47.34485" lon="6.37374">
        <ele>299.79998779297</ele>
        <time>2019-09-11T08:13:44Z</time>
      </trkpt>
      <trkpt lat="47.34451" lon="6.37378">
        <ele>299.60000610352</ele>
        <time>2019-09-11T08:13:51Z</time>
      </trkpt>
      <trkpt lat="47.34401" lon="6.37386">
        <ele>299.60000610352</ele>
        <time>2019-09-11T08:14:01Z</time>
      </trkpt>
      <trkpt lat="47.34356" lon="6.37397">
        <ele>299.39999389648</ele>
        <time>2019-09-11T08:14:10Z</time>
      </trkpt>
      <trkpt lat="47.34315" lon="6.37407">
        <ele>299</ele>
        <time>2019-09-11T08:14:18Z</time>
      </trkpt>
      <trkpt lat="47.3431" lon="6.37408">
        <ele>299</ele>
        <time>2019-09-11T08:14:19Z</time>
      </trkpt>
      <trkpt lat="47.34295" lon="6.37403">
        <ele>299</ele>
        <time>2019-09-11T08:14:22Z</time>
      </trkpt>
      <trkpt lat="47.34286" lon="6.37399">
        <ele>299</ele>
        <time>2019-09-11T08:14:24Z</time>
      </trkpt>
      <trkpt lat="47.34242" lon="6.37383">
        <ele>298.79998779297</ele>
        <time>2019-09-11T08:14:33Z</time>
      </trkpt>
      <trkpt lat="47.34189" lon="6.37372">
        <ele>298.79998779297</ele>
        <time>2019-09-11T08:14:44Z</time>
      </trkpt>
      <trkpt lat="47.34165" lon="6.37359">
        <ele>298.79998779297</ele>
        <time>2019-09-11T08:14:51Z</time>
      </trkpt>
      <trkpt lat="47.34148" lon="6.37338">
        <ele>299.79998779297</ele>
        <time>2019-09-11T08:14:58Z</time>
      </trkpt>
      <trkpt lat="47.34142" lon="6.37324">
        <ele>300.60000610352</ele>
        <time>2019-09-11T08:15:02Z</time>
      </trkpt>
      <trkpt lat="47.34141" lon="6.37321">
        <ele>300.79998779297</ele>
        <time>2019-09-11T08:15:03Z</time>
      </trkpt>
      <trkpt lat="47.34128" lon="6.37296">
        <ele>301.39999389648</ele>
        <time>2019-09-11T08:15:09Z</time>
      </trkpt>
      <trkpt lat="47.34123" lon="6.37269">
        <ele>301.79998779297</ele>
        <time>2019-09-11T08:15:14Z</time>
      </trkpt>
      <trkpt lat="47.34123" lon="6.37263">
        <ele>301.79998779297</ele>
        <time>2019-09-11T08:15:15Z</time>
      </trkpt>
      <trkpt lat="47.34128" lon="6.37232">
        <ele>301.79998779297</ele>
        <time>2019-09-11T08:15:20Z</time>
      </trkpt>
      <trkpt lat="47.34129" lon="6.37192">
        <ele>301.20001220703</ele>
        <time>2019-09-11T08:15:26Z</time>
      </trkpt>
      <trkpt lat="47.34128" lon="6.37156">
        <ele>300.79998779297</ele>
        <time>2019-09-11T08:15:31Z</time>
      </trkpt>
      <trkpt lat="47.34127" lon="6.37135">
        <ele>300.60000610352</ele>
        <time>2019-09-11T08:15:34Z</time>
      </trkpt>
      <trkpt lat="47.34127" lon="6.37055">
        <ele>300.60000610352</ele>
        <time>2019-09-11T08:15:45Z</time>
      </trkpt>
      <trkpt lat="47.34125" lon="6.36999">
        <ele>300.60000610352</ele>
        <time>2019-09-11T08:15:53Z</time>
      </trkpt>
      <trkpt lat="47.34124" lon="6.36948">
        <ele>300.79998779297</ele>
        <time>2019-09-11T08:16:00Z</time>
      </trkpt>
      <trkpt lat="47.34124" lon="6.3694">
        <ele>300.79998779297</ele>
        <time>2019-09-11T08:16:01Z</time>
      </trkpt>
      <trkpt lat="47.34121" lon="6.36875">
        <ele>300.79998779297</ele>
        <time>2019-09-11T08:16:10Z</time>
      </trkpt>
      <trkpt lat="47.34119" lon="6.36832">
        <ele>301</ele>
        <time>2019-09-11T08:16:16Z</time>
      </trkpt>
      <trkpt lat="47.34119" lon="6.36825">
        <ele>301</ele>
        <time>2019-09-11T08:16:17Z</time>
      </trkpt>
      <trkpt lat="47.34121" lon="6.3679">
        <ele>301</ele>
        <time>2019-09-11T08:16:22Z</time>
      </trkpt>
      <trkpt lat="47.34122" lon="6.36733">
        <ele>301.20001220703</ele>
        <time>2019-09-11T08:16:30Z</time>
      </trkpt>
      <trkpt lat="47.34127" lon="6.36684">
        <ele>301.60000610352</ele>
        <time>2019-09-11T08:16:37Z</time>
      </trkpt>
      <trkpt lat="47.34135" lon="6.3663">
        <ele>302.20001220703</ele>
        <time>2019-09-11T08:16:45Z</time>
      </trkpt>
      <trkpt lat="47.34137" lon="6.36616">
        <ele>302.20001220703</ele>
        <time>2019-09-11T08:16:47Z</time>
      </trkpt>
      <trkpt lat="47.34141" lon="6.36594">
        <ele>302.20001220703</ele>
        <time>2019-09-11T08:16:50Z</time>
      </trkpt>
      <trkpt lat="47.34146" lon="6.36574">
        <ele>302.20001220703</ele>
        <time>2019-09-11T08:16:53Z</time>
      </trkpt>
      <trkpt lat="47.34151" lon="6.36552">
        <ele>302.20001220703</ele>
        <time>2019-09-11T08:16:56Z</time>
      </trkpt>
      <trkpt lat="47.34158" lon="6.365">
        <ele>301.39999389648</ele>
        <time>2019-09-11T08:17:03Z</time>
      </trkpt>
      <trkpt lat="47.3416" lon="6.3648">
        <ele>301.20001220703</ele>
        <time>2019-09-11T08:17:06Z</time>
      </trkpt>
      <trkpt lat="47.34162" lon="6.36459">
        <ele>300.79998779297</ele>
        <time>2019-09-11T08:17:09Z</time>
      </trkpt>
      <trkpt lat="47.34169" lon="6.3642">
        <ele>300.79998779297</ele>
        <time>2019-09-11T08:17:15Z</time>
      </trkpt>
      <trkpt lat="47.34177" lon="6.36371">
        <ele>300.60000610352</ele>
        <time>2019-09-11T08:17:22Z</time>
      </trkpt>
      <trkpt lat="47.34178" lon="6.36365">
        <ele>300.60000610352</ele>
        <time>2019-09-11T08:17:23Z</time>
      </trkpt>
      <trkpt lat="47.34185" lon="6.36329">
        <ele>300.60000610352</ele>
        <time>2019-09-11T08:17:28Z</time>
      </trkpt>
      <trkpt lat="47.34193" lon="6.3628">
        <ele>300.39999389648</ele>
        <time>2019-09-11T08:17:35Z</time>
      </trkpt>
      <trkpt lat="47.34202" lon="6.36231">
        <ele>300.39999389648</ele>
        <time>2019-09-11T08:17:42Z</time>
      </trkpt>
      <trkpt lat="47.34205" lon="6.36217">
        <ele>300.39999389648</ele>
        <time>2019-09-11T08:17:44Z</time>
      </trkpt>
      <trkpt lat="47.34211" lon="6.36197">
        <ele>300.39999389648</ele>
        <time>2019-09-11T08:17:47Z</time>
      </trkpt>
      <trkpt lat="47.34211" lon="6.36171">
        <ele>300.20001220703</ele>
        <time>2019-09-11T08:17:51Z</time>
      </trkpt>
      <trkpt lat="47.34209" lon="6.36149">
        <ele>300.20001220703</ele>
        <time>2019-09-11T08:17:56Z</time>
      </trkpt>
      <trkpt lat="47.34207" lon="6.36135">
        <ele>300</ele>
        <time>2019-09-11T08:17:59Z</time>
      </trkpt>
      <trkpt lat="47.34205" lon="6.36118">
        <ele>299.79998779297</ele>
        <time>2019-09-11T08:18:02Z</time>
      </trkpt>
      <trkpt lat="47.34198" lon="6.36081">
        <ele>300</ele>
        <time>2019-09-11T08:18:10Z</time>
      </trkpt>
      <trkpt lat="47.34196" lon="6.36059">
        <ele>300.20001220703</ele>
        <time>2019-09-11T08:18:15Z</time>
      </trkpt>
      <trkpt lat="47.34206" lon="6.36037">
        <ele>301</ele>
        <time>2019-09-11T08:18:21Z</time>
      </trkpt>
      <trkpt lat="47.34207" lon="6.36033">
        <ele>301</ele>
        <time>2019-09-11T08:18:22Z</time>
      </trkpt>
      <trkpt lat="47.34204" lon="6.36017">
        <ele>301.20001220703</ele>
        <time>2019-09-11T08:18:25Z</time>
      </trkpt>
      <trkpt lat="47.34202" lon="6.36012">
        <ele>301.20001220703</ele>
        <time>2019-09-11T08:18:26Z</time>
      </trkpt>
      <trkpt lat="47.34201" lon="6.36005">
        <ele>301.20001220703</ele>
        <time>2019-09-11T08:18:27Z</time>
      </trkpt>
      <trkpt lat="47.34191" lon="6.35981">
        <ele>301.20001220703</ele>
        <time>2019-09-11T08:18:31Z</time>
      </trkpt>
      <trkpt lat="47.34177" lon="6.35949">
        <ele>300</ele>
        <time>2019-09-11T08:18:37Z</time>
      </trkpt>
      <trkpt lat="47.34175" lon="6.35943">
        <ele>299.79998779297</ele>
        <time>2019-09-11T08:18:38Z</time>
      </trkpt>
      <trkpt lat="47.34163" lon="6.35911">
        <ele>299.60000610352</ele>
        <time>2019-09-11T08:18:44Z</time>
      </trkpt>
      <trkpt lat="47.34147" lon="6.35872">
        <ele>299.60000610352</ele>
        <time>2019-09-11T08:18:51Z</time>
      </trkpt>
      <trkpt lat="47.34132" lon="6.35831">
        <ele>299.60000610352</ele>
        <time>2019-09-11T08:18:58Z</time>
      </trkpt>
      <trkpt lat="47.34112" lon="6.35778">
        <ele>299.60000610352</ele>
        <time>2019-09-11T08:19:07Z</time>
      </trkpt>
      <trkpt lat="47.34097" lon="6.35737">
        <ele>299.20001220703</ele>
        <time>2019-09-11T08:19:14Z</time>
      </trkpt>
      <trkpt lat="47.34083" lon="6.35702">
        <ele>299</ele>
        <time>2019-09-11T08:19:20Z</time>
      </trkpt>
      <trkpt lat="47.3408" lon="6.35696">
        <ele>299</ele>
        <time>2019-09-11T08:19:21Z</time>
      </trkpt>
      <trkpt lat="47.34066" lon="6.35664">
        <ele>298.79998779297</ele>
        <time>2019-09-11T08:19:27Z</time>
      </trkpt>
      <trkpt lat="47.34054" lon="6.35636">
        <ele>298.79998779297</ele>
        <time>2019-09-11T08:19:32Z</time>
      </trkpt>
      <trkpt lat="47.34053" lon="6.35629">
        <ele>298.79998779297</ele>
        <time>2019-09-11T08:19:33Z</time>
      </trkpt>
      <trkpt lat="47.34057" lon="6.35613">
        <ele>298.79998779297</ele>
        <time>2019-09-11T08:19:36Z</time>
      </trkpt>
      <trkpt lat="47.3406" lon="6.3561">
        <ele>298.79998779297</ele>
        <time>2019-09-11T08:19:37Z</time>
      </trkpt>
      <trkpt lat="47.34078" lon="6.35592">
        <ele>299.20001220703</ele>
        <time>2019-09-11T08:19:43Z</time>
      </trkpt>
      <trkpt lat="47.34097" lon="6.35573">
        <ele>299.79998779297</ele>
        <time>2019-09-11T08:19:49Z</time>
      </trkpt>
      <trkpt lat="47.341" lon="6.3557">
        <ele>300</ele>
        <time>2019-09-11T08:19:50Z</time>
      </trkpt>
      <trkpt lat="47.34115" lon="6.35552">
        <ele>300</ele>
        <time>2019-09-11T08:19:55Z</time>
      </trkpt>
      <trkpt lat="47.3411" lon="6.35538">
        <ele>300</ele>
        <time>2019-09-11T08:19:58Z</time>
      </trkpt>
      <trkpt lat="47.34105" lon="6.35527">
        <ele>299.79998779297</ele>
        <time>2019-09-11T08:20:00Z</time>
      </trkpt>
      <trkpt lat="47.34096" lon="6.35508">
        <ele>299.20001220703</ele>
        <time>2019-09-11T08:20:03Z</time>
      </trkpt>
      <trkpt lat="47.34093" lon="6.35502">
        <ele>298.79998779297</ele>
        <time>2019-09-11T08:20:04Z</time>
      </trkpt>
      <trkpt lat="47.34088" lon="6.35488">
        <ele>298.20001220703</ele>
        <time>2019-09-11T08:20:07Z</time>
      </trkpt>
      <trkpt lat="47.34086" lon="6.35484">
        <ele>297.79998779297</ele>
        <time>2019-09-11T08:20:08Z</time>
      </trkpt>
      <trkpt lat="47.34079" lon="6.35471">
        <ele>296.79998779297</ele>
        <time>2019-09-11T08:20:12Z</time>
      </trkpt>
      <trkpt lat="47.34065" lon="6.35445">
        <ele>296</ele>
        <time>2019-09-11T08:20:18Z</time>
      </trkpt>
      <trkpt lat="47.3405" lon="6.35422">
        <ele>295.79998779297</ele>
        <time>2019-09-11T08:20:23Z</time>
      </trkpt>
      <trkpt lat="47.34041" lon="6.35407">
        <ele>295.79998779297</ele>
        <time>2019-09-11T08:20:26Z</time>
      </trkpt>
      <trkpt lat="47.34031" lon="6.35392">
        <ele>295.60000610352</ele>
        <time>2019-09-11T08:20:29Z</time>
      </trkpt>
      <trkpt lat="47.34018" lon="6.35372">
        <ele>295.60000610352</ele>
        <time>2019-09-11T08:20:33Z</time>
      </trkpt>
      <trkpt lat="47.34001" lon="6.35349">
        <ele>295.60000610352</ele>
        <time>2019-09-11T08:20:38Z</time>
      </trkpt>
      <trkpt lat="47.33991" lon="6.35336">
        <ele>295.60000610352</ele>
        <time>2019-09-11T08:20:41Z</time>
      </trkpt>
      <trkpt lat="47.33982" lon="6.35324">
        <ele>295.60000610352</ele>
        <time>2019-09-11T08:20:44Z</time>
      </trkpt>
      <trkpt lat="47.33972" lon="6.35313">
        <ele>295.60000610352</ele>
        <time>2019-09-11T08:20:47Z</time>
      </trkpt>
      <trkpt lat="47.33955" lon="6.35294">
        <ele>296</ele>
        <time>2019-09-11T08:20:53Z</time>
      </trkpt>
      <trkpt lat="47.33941" lon="6.35279">
        <ele>296.60000610352</ele>
        <time>2019-09-11T08:20:58Z</time>
      </trkpt>
      <trkpt lat="47.33924" lon="6.35261">
        <ele>296.60000610352</ele>
        <time>2019-09-11T08:21:03Z</time>
      </trkpt>
      <trkpt lat="47.33894" lon="6.35232">
        <ele>296.60000610352</ele>
        <time>2019-09-11T08:21:10Z</time>
      </trkpt>
      <trkpt lat="47.33872" lon="6.35216">
        <ele>296.20001220703</ele>
        <time>2019-09-11T08:21:15Z</time>
      </trkpt>
      <trkpt lat="47.33837" lon="6.35189">
        <ele>295.79998779297</ele>
        <time>2019-09-11T08:21:22Z</time>
      </trkpt>
      <trkpt lat="47.33807" lon="6.35164">
        <ele>295.39999389648</ele>
        <time>2019-09-11T08:21:28Z</time>
      </trkpt>
      <trkpt lat="47.33768" lon="6.35126">
        <ele>295.20001220703</ele>
        <time>2019-09-11T08:21:37Z</time>
      </trkpt>
      <trkpt lat="47.3375" lon="6.35111">
        <ele>295.20001220703</ele>
        <time>2019-09-11T08:21:41Z</time>
      </trkpt>
      <trkpt lat="47.33738" lon="6.35105">
        <ele>295.39999389648</ele>
        <time>2019-09-11T08:21:44Z</time>
      </trkpt>
      <trkpt lat="47.33719" lon="6.35094">
        <ele>295.39999389648</ele>
        <time>2019-09-11T08:21:50Z</time>
      </trkpt>
      <trkpt lat="47.33701" lon="6.35078">
        <ele>296.39999389648</ele>
        <time>2019-09-11T08:21:56Z</time>
      </trkpt>
      <trkpt lat="47.33678" lon="6.35058">
        <ele>296.60000610352</ele>
        <time>2019-09-11T08:22:02Z</time>
      </trkpt>
      <trkpt lat="47.33675" lon="6.35054">
        <ele>296.60000610352</ele>
        <time>2019-09-11T08:22:03Z</time>
      </trkpt>
      <trkpt lat="47.33658" lon="6.35036">
        <ele>296.39999389648</ele>
        <time>2019-09-11T08:22:08Z</time>
      </trkpt>
      <trkpt lat="47.33639" lon="6.35005">
        <ele>296</ele>
        <time>2019-09-11T08:22:15Z</time>
      </trkpt>
      <trkpt lat="47.33623" lon="6.34978">
        <ele>295.79998779297</ele>
        <time>2019-09-11T08:22:21Z</time>
      </trkpt>
      <trkpt lat="47.33603" lon="6.34949">
        <ele>295.60000610352</ele>
        <time>2019-09-11T08:22:28Z</time>
      </trkpt>
      <trkpt lat="47.33586" lon="6.34933">
        <ele>295.60000610352</ele>
        <time>2019-09-11T08:22:34Z</time>
      </trkpt>
      <trkpt lat="47.3357" lon="6.34917">
        <ele>296.39999389648</ele>
        <time>2019-09-11T08:22:40Z</time>
      </trkpt>
      <trkpt lat="47.3356" lon="6.34898">
        <ele>296.60000610352</ele>
        <time>2019-09-11T08:22:45Z</time>
      </trkpt>
      <trkpt lat="47.3356" lon="6.34882">
        <ele>296.60000610352</ele>
        <time>2019-09-11T08:22:49Z</time>
      </trkpt>
      <trkpt lat="47.33563" lon="6.34863">
        <ele>297</ele>
        <time>2019-09-11T08:22:55Z</time>
      </trkpt>
      <trkpt lat="47.33564" lon="6.34849">
        <ele>298.20001220703</ele>
        <time>2019-09-11T08:23:00Z</time>
      </trkpt>
      <trkpt lat="47.33563" lon="6.34842">
        <ele>298.60000610352</ele>
        <time>2019-09-11T08:23:02Z</time>
      </trkpt>
      <trkpt lat="47.33563" lon="6.34839">
        <ele>299</ele>
        <time>2019-09-11T08:23:03Z</time>
      </trkpt>
      <trkpt lat="47.33564" lon="6.34831">
        <ele>300.20001220703</ele>
        <time>2019-09-11T08:23:06Z</time>
      </trkpt>
      <trkpt lat="47.33567" lon="6.34827">
        <ele>300.79998779297</ele>
        <time>2019-09-11T08:23:08Z</time>
      </trkpt>
      <trkpt lat="47.33569" lon="6.34824">
        <ele>301.39999389648</ele>
        <time>2019-09-11T08:23:10Z</time>
      </trkpt>
      <trkpt lat="47.33573" lon="6.34818">
        <ele>302.39999389648</ele>
        <time>2019-09-11T08:23:13Z</time>
      </trkpt>
      <trkpt lat="47.33576" lon="6.34815">
        <ele>302.79998779297</ele>
        <time>2019-09-11T08:23:15Z</time>
      </trkpt>
      <trkpt lat="47.3358" lon="6.34808">
        <ele>303.39999389648</ele>
        <time>2019-09-11T08:23:18Z</time>
      </trkpt>
      <trkpt lat="47.33583" lon="6.34803">
        <ele>303.79998779297</ele>
        <time>2019-09-11T08:23:20Z</time>
      </trkpt>
      <trkpt lat="47.33593" lon="6.34786">
        <ele>304.39999389648</ele>
        <time>2019-09-11T08:23:26Z</time>
      </trkpt>
      <trkpt lat="47.33597" lon="6.3478">
        <ele>304.60000610352</ele>
        <time>2019-09-11T08:23:28Z</time>
      </trkpt>
      <trkpt lat="47.33613" lon="6.3475">
        <ele>304.79998779297</ele>
        <time>2019-09-11T08:23:37Z</time>
      </trkpt>
      <trkpt lat="47.33626" lon="6.34729">
        <ele>305</ele>
        <time>2019-09-11T08:23:43Z</time>
      </trkpt>
      <trkpt lat="47.3364" lon="6.3471">
        <ele>305</ele>
        <time>2019-09-11T08:23:48Z</time>
      </trkpt>
      <trkpt lat="47.33659" lon="6.34691">
        <ele>305</ele>
        <time>2019-09-11T08:23:52Z</time>
      </trkpt>
      <trkpt lat="47.33665" lon="6.34686">
        <ele>305</ele>
        <time>2019-09-11T08:23:53Z</time>
      </trkpt>
      <trkpt lat="47.33698" lon="6.34663">
        <ele>303.20001220703</ele>
        <time>2019-09-11T08:23:58Z</time>
      </trkpt>
      <trkpt lat="47.33705" lon="6.3466">
        <ele>302.79998779297</ele>
        <time>2019-09-11T08:23:59Z</time>
      </trkpt>
      <trkpt lat="47.33722" lon="6.34648">
        <ele>301.60000610352</ele>
        <time>2019-09-11T08:24:02Z</time>
      </trkpt>
      <trkpt lat="47.33736" lon="6.34639">
        <ele>301.39999389648</ele>
        <time>2019-09-11T08:24:06Z</time>
      </trkpt>
      <trkpt lat="47.33756" lon="6.34626">
        <ele>301.79998779297</ele>
        <time>2019-09-11T08:24:13Z</time>
      </trkpt>
      <trkpt lat="47.33763" lon="6.34617">
        <ele>301.79998779297</ele>
        <time>2019-09-11T08:24:15Z</time>
      </trkpt>
      <trkpt lat="47.33768" lon="6.34609">
        <ele>301.79998779297</ele>
        <time>2019-09-11T08:24:16Z</time>
      </trkpt>
      <trkpt lat="47.33795" lon="6.34573">
        <ele>301.79998779297</ele>
        <time>2019-09-11T08:24:20Z</time>
      </trkpt>
      <trkpt lat="47.33829" lon="6.34529">
        <ele>299.60000610352</ele>
        <time>2019-09-11T08:24:25Z</time>
      </trkpt>
      <trkpt lat="47.33835" lon="6.34521">
        <ele>298.39999389648</ele>
        <time>2019-09-11T08:24:26Z</time>
      </trkpt>
      <trkpt lat="47.33841" lon="6.34512">
        <ele>297.20001220703</ele>
        <time>2019-09-11T08:24:27Z</time>
      </trkpt>
      <trkpt lat="47.33852" lon="6.34496">
        <ele>296</ele>
        <time>2019-09-11T08:24:29Z</time>
      </trkpt>
      <trkpt lat="47.33873" lon="6.34467">
        <ele>295</ele>
        <time>2019-09-11T08:24:33Z</time>
      </trkpt>
      <trkpt lat="47.33895" lon="6.34436">
        <ele>294.60000610352</ele>
        <time>2019-09-11T08:24:38Z</time>
      </trkpt>
      <trkpt lat="47.33918" lon="6.34399">
        <ele>294.20001220703</ele>
        <time>2019-09-11T08:24:44Z</time>
      </trkpt>
      <trkpt lat="47.33936" lon="6.34378">
        <ele>294</ele>
        <time>2019-09-11T08:24:49Z</time>
      </trkpt>
      <trkpt lat="47.3395" lon="6.34361">
        <ele>294</ele>
        <time>2019-09-11T08:24:53Z</time>
      </trkpt>
      <trkpt lat="47.33954" lon="6.34356">
        <ele>294</ele>
        <time>2019-09-11T08:24:54Z</time>
      </trkpt>
      <trkpt lat="47.33958" lon="6.34351">
        <ele>294</ele>
        <time>2019-09-11T08:24:55Z</time>
      </trkpt>
      <trkpt lat="47.33968" lon="6.34335">
        <ele>294</ele>
        <time>2019-09-11T08:24:58Z</time>
      </trkpt>
      <trkpt lat="47.33977" lon="6.34316">
        <ele>294</ele>
        <time>2019-09-11T08:25:01Z</time>
      </trkpt>
      <trkpt lat="47.33998" lon="6.34276">
        <ele>294</ele>
        <time>2019-09-11T08:25:08Z</time>
      </trkpt>
      <trkpt lat="47.34017" lon="6.34236">
        <ele>294</ele>
        <time>2019-09-11T08:25:15Z</time>
      </trkpt>
      <trkpt lat="47.34023" lon="6.34223">
        <ele>294</ele>
        <time>2019-09-11T08:25:17Z</time>
      </trkpt>
      <trkpt lat="47.3403" lon="6.34204">
        <ele>293.79998779297</ele>
        <time>2019-09-11T08:25:20Z</time>
      </trkpt>
      <trkpt lat="47.34037" lon="6.34186">
        <ele>293.79998779297</ele>
        <time>2019-09-11T08:25:23Z</time>
      </trkpt>
      <trkpt lat="47.34041" lon="6.34173">
        <ele>293.79998779297</ele>
        <time>2019-09-11T08:25:25Z</time>
      </trkpt>
      <trkpt lat="47.34051" lon="6.34137">
        <ele>293.79998779297</ele>
        <time>2019-09-11T08:25:31Z</time>
      </trkpt>
      <trkpt lat="47.34056" lon="6.34106">
        <ele>293.79998779297</ele>
        <time>2019-09-11T08:25:36Z</time>
      </trkpt>
      <trkpt lat="47.34059" lon="6.34087">
        <ele>294</ele>
        <time>2019-09-11T08:25:39Z</time>
      </trkpt>
      <trkpt lat="47.34064" lon="6.34071">
        <ele>294</ele>
        <time>2019-09-11T08:25:42Z</time>
      </trkpt>
      <trkpt lat="47.34067" lon="6.34051">
        <ele>294</ele>
        <time>2019-09-11T08:25:45Z</time>
      </trkpt>
      <trkpt lat="47.3407" lon="6.34036">
        <ele>294.20001220703</ele>
        <time>2019-09-11T08:25:47Z</time>
      </trkpt>
      <trkpt lat="47.34071" lon="6.34028">
        <ele>294.20001220703</ele>
        <time>2019-09-11T08:25:48Z</time>
      </trkpt>
      <trkpt lat="47.34077" lon="6.34006">
        <ele>294.20001220703</ele>
        <time>2019-09-11T08:25:51Z</time>
      </trkpt>
      <trkpt lat="47.34082" lon="6.33991">
        <ele>294.39999389648</ele>
        <time>2019-09-11T08:25:53Z</time>
      </trkpt>
      <trkpt lat="47.34089" lon="6.33964">
        <ele>294.20001220703</ele>
        <time>2019-09-11T08:25:57Z</time>
      </trkpt>
      <trkpt lat="47.34092" lon="6.3395">
        <ele>294.20001220703</ele>
        <time>2019-09-11T08:25:59Z</time>
      </trkpt>
      <trkpt lat="47.34095" lon="6.33936">
        <ele>294.39999389648</ele>
        <time>2019-09-11T08:26:01Z</time>
      </trkpt>
      <trkpt lat="47.34095" lon="6.33929">
        <ele>294.39999389648</ele>
        <time>2019-09-11T08:26:02Z</time>
      </trkpt>
      <trkpt lat="47.34097" lon="6.33917">
        <ele>294.20001220703</ele>
        <time>2019-09-11T08:26:04Z</time>
      </trkpt>
      <trkpt lat="47.34107" lon="6.33887">
        <ele>294.39999389648</ele>
        <time>2019-09-11T08:26:08Z</time>
      </trkpt>
      <trkpt lat="47.34115" lon="6.33868">
        <ele>294.60000610352</ele>
        <time>2019-09-11T08:26:12Z</time>
      </trkpt>
      <trkpt lat="47.34116" lon="6.33863">
        <ele>294.60000610352</ele>
        <time>2019-09-11T08:26:13Z</time>
      </trkpt>
      <trkpt lat="47.34117" lon="6.33833">
        <ele>294.79998779297</ele>
        <time>2019-09-11T08:26:18Z</time>
      </trkpt>
      <trkpt lat="47.34119" lon="6.33794">
        <ele>295</ele>
        <time>2019-09-11T08:26:23Z</time>
      </trkpt>
      <trkpt lat="47.3412" lon="6.33787">
        <ele>295</ele>
        <time>2019-09-11T08:26:24Z</time>
      </trkpt>
      <trkpt lat="47.34123" lon="6.33768">
        <ele>294.60000610352</ele>
        <time>2019-09-11T08:26:27Z</time>
      </trkpt>
      <trkpt lat="47.34123" lon="6.33761">
        <ele>294.60000610352</ele>
        <time>2019-09-11T08:26:28Z</time>
      </trkpt>
      <trkpt lat="47.34128" lon="6.33734">
        <ele>294.39999389648</ele>
        <time>2019-09-11T08:26:33Z</time>
      </trkpt>
      <trkpt lat="47.34134" lon="6.33705">
        <ele>294.39999389648</ele>
        <time>2019-09-11T08:26:38Z</time>
      </trkpt>
      <trkpt lat="47.34145" lon="6.3365">
        <ele>294.20001220703</ele>
        <time>2019-09-11T08:26:46Z</time>
      </trkpt>
      <trkpt lat="47.34146" lon="6.33644">
        <ele>294.20001220703</ele>
        <time>2019-09-11T08:26:47Z</time>
      </trkpt>
      <trkpt lat="47.34159" lon="6.33579">
        <ele>294.20001220703</ele>
        <time>2019-09-11T08:26:56Z</time>
      </trkpt>
      <trkpt lat="47.34171" lon="6.33521">
        <ele>294.20001220703</ele>
        <time>2019-09-11T08:27:04Z</time>
      </trkpt>
      <trkpt lat="47.34183" lon="6.3345">
        <ele>294</ele>
        <time>2019-09-11T08:27:14Z</time>
      </trkpt>
      <trkpt lat="47.34197" lon="6.33382">
        <ele>294.20001220703</ele>
        <time>2019-09-11T08:27:24Z</time>
      </trkpt>
      <trkpt lat="47.34207" lon="6.33335">
        <ele>294.20001220703</ele>
        <time>2019-09-11T08:27:31Z</time>
      </trkpt>
      <trkpt lat="47.34216" lon="6.3329">
        <ele>294.20001220703</ele>
        <time>2019-09-11T08:27:38Z</time>
      </trkpt>
      <trkpt lat="47.34222" lon="6.33261">
        <ele>294.20001220703</ele>
        <time>2019-09-11T08:27:43Z</time>
      </trkpt>
      <trkpt lat="47.34225" lon="6.3325">
        <ele>294.20001220703</ele>
        <time>2019-09-11T08:27:45Z</time>
      </trkpt>
      <trkpt lat="47.3423" lon="6.33225">
        <ele>294.20001220703</ele>
        <time>2019-09-11T08:27:49Z</time>
      </trkpt>
      <trkpt lat="47.34238" lon="6.33188">
        <ele>294.39999389648</ele>
        <time>2019-09-11T08:27:55Z</time>
      </trkpt>
      <trkpt lat="47.34248" lon="6.33133">
        <ele>294.39999389648</ele>
        <time>2019-09-11T08:28:03Z</time>
      </trkpt>
      <trkpt lat="47.34253" lon="6.33105">
        <ele>294.39999389648</ele>
        <time>2019-09-11T08:28:07Z</time>
      </trkpt>
      <trkpt lat="47.34259" lon="6.33077">
        <ele>294.39999389648</ele>
        <time>2019-09-11T08:28:11Z</time>
      </trkpt>
      <trkpt lat="47.34269" lon="6.33028">
        <ele>294.79998779297</ele>
        <time>2019-09-11T08:28:18Z</time>
      </trkpt>
      <trkpt lat="47.3427" lon="6.33021">
        <ele>294.79998779297</ele>
        <time>2019-09-11T08:28:19Z</time>
      </trkpt>
      <trkpt lat="47.34275" lon="6.33001">
        <ele>294.79998779297</ele>
        <time>2019-09-11T08:28:22Z</time>
      </trkpt>
      <trkpt lat="47.34278" lon="6.32987">
        <ele>294.79998779297</ele>
        <time>2019-09-11T08:28:24Z</time>
      </trkpt>
      <trkpt lat="47.34292" lon="6.32924">
        <ele>294.60000610352</ele>
        <time>2019-09-11T08:28:33Z</time>
      </trkpt>
      <trkpt lat="47.34311" lon="6.32848">
        <ele>294.39999389648</ele>
        <time>2019-09-11T08:28:44Z</time>
      </trkpt>
      <trkpt lat="47.34324" lon="6.32792">
        <ele>294.20001220703</ele>
        <time>2019-09-11T08:28:52Z</time>
      </trkpt>
      <trkpt lat="47.3434" lon="6.32729">
        <ele>294.20001220703</ele>
        <time>2019-09-11T08:29:01Z</time>
      </trkpt>
      <trkpt lat="47.34348" lon="6.32682">
        <ele>294.20001220703</ele>
        <time>2019-09-11T08:29:08Z</time>
      </trkpt>
      <trkpt lat="47.34349" lon="6.32668">
        <ele>294.20001220703</ele>
        <time>2019-09-11T08:29:12Z</time>
      </trkpt>
      <trkpt lat="47.34349" lon="6.32667">
        <ele>294.20001220703</ele>
        <time>2019-09-11T08:29:14Z</time>
      </trkpt>
      <trkpt lat="47.34349" lon="6.32665">
        <ele>294</ele>
        <time>2019-09-11T08:29:41Z</time>
      </trkpt>
      <trkpt lat="47.3435" lon="6.3266">
        <ele>294.20001220703</ele>
        <time>2019-09-11T08:29:43Z</time>
      </trkpt>
      <trkpt lat="47.34353" lon="6.32637">
        <ele>294.20001220703</ele>
        <time>2019-09-11T08:29:48Z</time>
      </trkpt>
      <trkpt lat="47.34353" lon="6.32595">
        <ele>294</ele>
        <time>2019-09-11T08:29:55Z</time>
      </trkpt>
      <trkpt lat="47.34351" lon="6.32549">
        <ele>294.20001220703</ele>
        <time>2019-09-11T08:30:02Z</time>
      </trkpt>
      <trkpt lat="47.34347" lon="6.32499">
        <ele>294.39999389648</ele>
        <time>2019-09-11T08:30:09Z</time>
      </trkpt>
      <trkpt lat="47.34341" lon="6.32454">
        <ele>294.60000610352</ele>
        <time>2019-09-11T08:30:16Z</time>
      </trkpt>
      <trkpt lat="47.34332" lon="6.3239">
        <ele>294.79998779297</ele>
        <time>2019-09-11T08:30:25Z</time>
      </trkpt>
      <trkpt lat="47.34322" lon="6.32317">
        <ele>294.79998779297</ele>
        <time>2019-09-11T08:30:35Z</time>
      </trkpt>
      <trkpt lat="47.34312" lon="6.32259">
        <ele>294.60000610352</ele>
        <time>2019-09-11T08:30:43Z</time>
      </trkpt>
      <trkpt lat="47.34303" lon="6.32211">
        <ele>294.79998779297</ele>
        <time>2019-09-11T08:30:50Z</time>
      </trkpt>
      <trkpt lat="47.34293" lon="6.32169">
        <ele>294.79998779297</ele>
        <time>2019-09-11T08:30:56Z</time>
      </trkpt>
      <trkpt lat="47.34279" lon="6.32124">
        <ele>294.79998779297</ele>
        <time>2019-09-11T08:31:03Z</time>
      </trkpt>
      <trkpt lat="47.3426" lon="6.32072">
        <ele>294.79998779297</ele>
        <time>2019-09-11T08:31:11Z</time>
      </trkpt>
      <trkpt lat="47.3424" lon="6.32029">
        <ele>295</ele>
        <time>2019-09-11T08:31:18Z</time>
      </trkpt>
      <trkpt lat="47.34216" lon="6.31983">
        <ele>295</ele>
        <time>2019-09-11T08:31:26Z</time>
      </trkpt>
      <trkpt lat="47.3419" lon="6.31939">
        <ele>295</ele>
        <time>2019-09-11T08:31:34Z</time>
      </trkpt>
      <trkpt lat="47.34163" lon="6.31895">
        <ele>294.60000610352</ele>
        <time>2019-09-11T08:31:42Z</time>
      </trkpt>
      <trkpt lat="47.34141" lon="6.31857">
        <ele>294.60000610352</ele>
        <time>2019-09-11T08:31:49Z</time>
      </trkpt>
      <trkpt lat="47.34116" lon="6.3181">
        <ele>294.60000610352</ele>
        <time>2019-09-11T08:31:57Z</time>
      </trkpt>
      <trkpt lat="47.341" lon="6.31782">
        <ele>294.60000610352</ele>
        <time>2019-09-11T08:32:02Z</time>
      </trkpt>
      <trkpt lat="47.34089" lon="6.31766">
        <ele>294.60000610352</ele>
        <time>2019-09-11T08:32:05Z</time>
      </trkpt>
      <trkpt lat="47.34079" lon="6.3175">
        <ele>294.39999389648</ele>
        <time>2019-09-11T08:32:08Z</time>
      </trkpt>
      <trkpt lat="47.34068" lon="6.31735">
        <ele>294.39999389648</ele>
        <time>2019-09-11T08:32:11Z</time>
      </trkpt>
      <trkpt lat="47.34051" lon="6.31708">
        <ele>294.39999389648</ele>
        <time>2019-09-11T08:32:16Z</time>
      </trkpt>
      <trkpt lat="47.3404" lon="6.31693">
        <ele>294.39999389648</ele>
        <time>2019-09-11T08:32:19Z</time>
      </trkpt>
      <trkpt lat="47.34009" lon="6.31657">
        <ele>294.39999389648</ele>
        <time>2019-09-11T08:32:27Z</time>
      </trkpt>
      <trkpt lat="47.33988" lon="6.31636">
        <ele>294.39999389648</ele>
        <time>2019-09-11T08:32:32Z</time>
      </trkpt>
      <trkpt lat="47.33975" lon="6.31624">
        <ele>294.39999389648</ele>
        <time>2019-09-11T08:32:35Z</time>
      </trkpt>
      <trkpt lat="47.33943" lon="6.31596">
        <ele>294</ele>
        <time>2019-09-11T08:32:42Z</time>
      </trkpt>
      <trkpt lat="47.33915" lon="6.31575">
        <ele>294</ele>
        <time>2019-09-11T08:32:48Z</time>
      </trkpt>
      <trkpt lat="47.33906" lon="6.31569">
        <ele>294</ele>
        <time>2019-09-11T08:32:50Z</time>
      </trkpt>
      <trkpt lat="47.3387" lon="6.31544">
        <ele>293.79998779297</ele>
        <time>2019-09-11T08:32:58Z</time>
      </trkpt>
      <trkpt lat="47.33828" lon="6.31519">
        <ele>294</ele>
        <time>2019-09-11T08:33:07Z</time>
      </trkpt>
      <trkpt lat="47.33795" lon="6.31503">
        <ele>294.20001220703</ele>
        <time>2019-09-11T08:33:14Z</time>
      </trkpt>
      <trkpt lat="47.33762" lon="6.31488">
        <ele>294.20001220703</ele>
        <time>2019-09-11T08:33:21Z</time>
      </trkpt>
      <trkpt lat="47.33723" lon="6.31475">
        <ele>294</ele>
        <time>2019-09-11T08:33:29Z</time>
      </trkpt>
      <trkpt lat="47.33688" lon="6.31461">
        <ele>293.79998779297</ele>
        <time>2019-09-11T08:33:36Z</time>
      </trkpt>
      <trkpt lat="47.33654" lon="6.31448">
        <ele>293.79998779297</ele>
        <time>2019-09-11T08:33:43Z</time>
      </trkpt>
      <trkpt lat="47.33621" lon="6.31436">
        <ele>293.79998779297</ele>
        <time>2019-09-11T08:33:50Z</time>
      </trkpt>
      <trkpt lat="47.33581" lon="6.31422">
        <ele>293.60000610352</ele>
        <time>2019-09-11T08:33:58Z</time>
      </trkpt>
      <trkpt lat="47.33561" lon="6.31416">
        <ele>293.60000610352</ele>
        <time>2019-09-11T08:34:02Z</time>
      </trkpt>
      <trkpt lat="47.33542" lon="6.31407">
        <ele>293.39999389648</ele>
        <time>2019-09-11T08:34:06Z</time>
      </trkpt>
      <trkpt lat="47.33501" lon="6.31392">
        <ele>293.39999389648</ele>
        <time>2019-09-11T08:34:15Z</time>
      </trkpt>
      <trkpt lat="47.33466" lon="6.31383">
        <ele>293.39999389648</ele>
        <time>2019-09-11T08:34:22Z</time>
      </trkpt>
      <trkpt lat="47.33426" lon="6.3137">
        <ele>293.60000610352</ele>
        <time>2019-09-11T08:34:30Z</time>
      </trkpt>
      <trkpt lat="47.33398" lon="6.31361">
        <ele>293.60000610352</ele>
        <time>2019-09-11T08:34:36Z</time>
      </trkpt>
      <trkpt lat="47.3337" lon="6.31346">
        <ele>293.79998779297</ele>
        <time>2019-09-11T08:34:42Z</time>
      </trkpt>
      <trkpt lat="47.33367" lon="6.31344">
        <ele>293.79998779297</ele>
        <time>2019-09-11T08:34:43Z</time>
      </trkpt>
      <trkpt lat="47.3335" lon="6.31337">
        <ele>293.79998779297</ele>
        <time>2019-09-11T08:34:47Z</time>
      </trkpt>
      <trkpt lat="47.33335" lon="6.31331">
        <ele>293.79998779297</ele>
        <time>2019-09-11T08:34:50Z</time>
      </trkpt>
      <trkpt lat="47.33317" lon="6.31322">
        <ele>293.79998779297</ele>
        <time>2019-09-11T08:34:54Z</time>
      </trkpt>
      <trkpt lat="47.33307" lon="6.31318">
        <ele>293.60000610352</ele>
        <time>2019-09-11T08:34:56Z</time>
      </trkpt>
      <trkpt lat="47.33283" lon="6.3131">
        <ele>293.60000610352</ele>
        <time>2019-09-11T08:35:01Z</time>
      </trkpt>
      <trkpt lat="47.33273" lon="6.31307">
        <ele>293.60000610352</ele>
        <time>2019-09-11T08:35:03Z</time>
      </trkpt>
      <trkpt lat="47.33256" lon="6.31298">
        <ele>293.60000610352</ele>
        <time>2019-09-11T08:35:07Z</time>
      </trkpt>
      <trkpt lat="47.33237" lon="6.31291">
        <ele>293.39999389648</ele>
        <time>2019-09-11T08:35:11Z</time>
      </trkpt>
      <trkpt lat="47.33223" lon="6.31285">
        <ele>293.39999389648</ele>
        <time>2019-09-11T08:35:14Z</time>
      </trkpt>
      <trkpt lat="47.33213" lon="6.3128">
        <ele>293.39999389648</ele>
        <time>2019-09-11T08:35:16Z</time>
      </trkpt>
      <trkpt lat="47.3319" lon="6.31267">
        <ele>293.39999389648</ele>
        <time>2019-09-11T08:35:21Z</time>
      </trkpt>
      <trkpt lat="47.3315" lon="6.31237">
        <ele>293.39999389648</ele>
        <time>2019-09-11T08:35:30Z</time>
      </trkpt>
      <trkpt lat="47.33117" lon="6.31204">
        <ele>293.39999389648</ele>
        <time>2019-09-11T08:35:38Z</time>
      </trkpt>
      <trkpt lat="47.33087" lon="6.31166">
        <ele>293.20001220703</ele>
        <time>2019-09-11T08:35:46Z</time>
      </trkpt>
      <trkpt lat="47.33061" lon="6.31123">
        <ele>293.20001220703</ele>
        <time>2019-09-11T08:35:54Z</time>
      </trkpt>
      <trkpt lat="47.33049" lon="6.311">
        <ele>293</ele>
        <time>2019-09-11T08:35:58Z</time>
      </trkpt>
      <trkpt lat="47.33042" lon="6.31081">
        <ele>293</ele>
        <time>2019-09-11T08:36:01Z</time>
      </trkpt>
      <trkpt lat="47.33023" lon="6.3102">
        <ele>293</ele>
        <time>2019-09-11T08:36:10Z</time>
      </trkpt>
      <trkpt lat="47.3301" lon="6.30978">
        <ele>293</ele>
        <time>2019-09-11T08:36:16Z</time>
      </trkpt>
      <trkpt lat="47.33008" lon="6.30972">
        <ele>293</ele>
        <time>2019-09-11T08:36:17Z</time>
      </trkpt>
      <trkpt lat="47.32998" lon="6.30928">
        <ele>293</ele>
        <time>2019-09-11T08:36:23Z</time>
      </trkpt>
      <trkpt lat="47.32997" lon="6.30921">
        <ele>293</ele>
        <time>2019-09-11T08:36:24Z</time>
      </trkpt>
      <trkpt lat="47.32991" lon="6.30863">
        <ele>293</ele>
        <time>2019-09-11T08:36:32Z</time>
      </trkpt>
      <trkpt lat="47.32989" lon="6.30791">
        <ele>292.79998779297</ele>
        <time>2019-09-11T08:36:42Z</time>
      </trkpt>
      <trkpt lat="47.32986" lon="6.30748">
        <ele>293</ele>
        <time>2019-09-11T08:36:48Z</time>
      </trkpt>
      <trkpt lat="47.32985" lon="6.30704">
        <ele>293</ele>
        <time>2019-09-11T08:36:54Z</time>
      </trkpt>
      <trkpt lat="47.32983" lon="6.30645">
        <ele>293</ele>
        <time>2019-09-11T08:37:02Z</time>
      </trkpt>
      <trkpt lat="47.32981" lon="6.30586">
        <ele>292.79998779297</ele>
        <time>2019-09-11T08:37:10Z</time>
      </trkpt>
      <trkpt lat="47.3298" lon="6.30567">
        <ele>292.79998779297</ele>
        <time>2019-09-11T08:37:13Z</time>
      </trkpt>
      <trkpt lat="47.3298" lon="6.30549">
        <ele>292.79998779297</ele>
        <time>2019-09-11T08:37:16Z</time>
      </trkpt>
      <trkpt lat="47.32978" lon="6.30517">
        <ele>292.79998779297</ele>
        <time>2019-09-11T08:37:21Z</time>
      </trkpt>
      <trkpt lat="47.32978" lon="6.30511">
        <ele>292.79998779297</ele>
        <time>2019-09-11T08:37:22Z</time>
      </trkpt>
      <trkpt lat="47.32976" lon="6.30478">
        <ele>292.79998779297</ele>
        <time>2019-09-11T08:37:28Z</time>
      </trkpt>
      <trkpt lat="47.32973" lon="6.30431">
        <ele>292.79998779297</ele>
        <time>2019-09-11T08:37:36Z</time>
      </trkpt>
      <trkpt lat="47.3297" lon="6.30387">
        <ele>292.79998779297</ele>
        <time>2019-09-11T08:37:43Z</time>
      </trkpt>
      <trkpt lat="47.32971" lon="6.3038">
        <ele>292.79998779297</ele>
        <time>2019-09-11T08:37:44Z</time>
      </trkpt>
      <trkpt lat="47.32975" lon="6.30343">
        <ele>292.79998779297</ele>
        <time>2019-09-11T08:37:48Z</time>
      </trkpt>
      <trkpt lat="47.32979" lon="6.30295">
        <ele>291.60000610352</ele>
        <time>2019-09-11T08:37:54Z</time>
      </trkpt>
      <trkpt lat="47.32981" lon="6.30278">
        <ele>290.39999389648</ele>
        <time>2019-09-11T08:37:57Z</time>
      </trkpt>
      <trkpt lat="47.32982" lon="6.3027">
        <ele>290.20001220703</ele>
        <time>2019-09-11T08:37:59Z</time>
      </trkpt>
      <trkpt lat="47.32986" lon="6.30247">
        <ele>290.20001220703</ele>
        <time>2019-09-11T08:38:04Z</time>
      </trkpt>
      <trkpt lat="47.32995" lon="6.30198">
        <ele>290.20001220703</ele>
        <time>2019-09-11T08:38:12Z</time>
      </trkpt>
      <trkpt lat="47.33" lon="6.30171">
        <ele>290.20001220703</ele>
        <time>2019-09-11T08:38:16Z</time>
      </trkpt>
      <trkpt lat="47.33002" lon="6.3015">
        <ele>290.20001220703</ele>
        <time>2019-09-11T08:38:19Z</time>
      </trkpt>
      <trkpt lat="47.33011" lon="6.30086">
        <ele>290.20001220703</ele>
        <time>2019-09-11T08:38:28Z</time>
      </trkpt>
      <trkpt lat="47.33015" lon="6.3002">
        <ele>290.20001220703</ele>
        <time>2019-09-11T08:38:37Z</time>
      </trkpt>
      <trkpt lat="47.33016" lon="6.30013">
        <ele>290.20001220703</ele>
        <time>2019-09-11T08:38:38Z</time>
      </trkpt>
      <trkpt lat="47.33018" lon="6.29938">
        <ele>290</ele>
        <time>2019-09-11T08:38:48Z</time>
      </trkpt>
      <trkpt lat="47.33021" lon="6.29872">
        <ele>289.79998779297</ele>
        <time>2019-09-11T08:38:57Z</time>
      </trkpt>
      <trkpt lat="47.33023" lon="6.29809">
        <ele>289.79998779297</ele>
        <time>2019-09-11T08:39:06Z</time>
      </trkpt>
      <trkpt lat="47.33023" lon="6.29743">
        <ele>290.20001220703</ele>
        <time>2019-09-11T08:39:15Z</time>
      </trkpt>
      <trkpt lat="47.33022" lon="6.29691">
        <ele>290.20001220703</ele>
        <time>2019-09-11T08:39:22Z</time>
      </trkpt>
      <trkpt lat="47.33019" lon="6.29641">
        <ele>290.20001220703</ele>
        <time>2019-09-11T08:39:29Z</time>
      </trkpt>
      <trkpt lat="47.33013" lon="6.29584">
        <ele>290.20001220703</ele>
        <time>2019-09-11T08:39:37Z</time>
      </trkpt>
      <trkpt lat="47.33009" lon="6.29556">
        <ele>290.20001220703</ele>
        <time>2019-09-11T08:39:41Z</time>
      </trkpt>
      <trkpt lat="47.33008" lon="6.29542">
        <ele>290</ele>
        <time>2019-09-11T08:39:43Z</time>
      </trkpt>
      <trkpt lat="47.33002" lon="6.29493">
        <ele>290</ele>
        <time>2019-09-11T08:39:50Z</time>
      </trkpt>
      <trkpt lat="47.32997" lon="6.2946">
        <ele>290.20001220703</ele>
        <time>2019-09-11T08:39:56Z</time>
      </trkpt>
      <trkpt lat="47.3299" lon="6.29421">
        <ele>291.20001220703</ele>
        <time>2019-09-11T08:40:03Z</time>
      </trkpt>
      <trkpt lat="47.32977" lon="6.29371">
        <ele>291.60000610352</ele>
        <time>2019-09-11T08:40:11Z</time>
      </trkpt>
      <trkpt lat="47.3296" lon="6.29321">
        <ele>291.60000610352</ele>
        <time>2019-09-11T08:40:19Z</time>
      </trkpt>
      <trkpt lat="47.32935" lon="6.29267">
        <ele>291.39999389648</ele>
        <time>2019-09-11T08:40:28Z</time>
      </trkpt>
      <trkpt lat="47.32907" lon="6.29217">
        <ele>291.39999389648</ele>
        <time>2019-09-11T08:40:37Z</time>
      </trkpt>
      <trkpt lat="47.32904" lon="6.29212">
        <ele>291.39999389648</ele>
        <time>2019-09-11T08:40:38Z</time>
      </trkpt>
      <trkpt lat="47.32893" lon="6.29192">
        <ele>291.39999389648</ele>
        <time>2019-09-11T08:40:42Z</time>
      </trkpt>
      <trkpt lat="47.32877" lon="6.29162">
        <ele>291.39999389648</ele>
        <time>2019-09-11T08:40:48Z</time>
      </trkpt>
      <trkpt lat="47.32858" lon="6.29122">
        <ele>291.20001220703</ele>
        <time>2019-09-11T08:40:55Z</time>
      </trkpt>
      <trkpt lat="47.32832" lon="6.29071">
        <ele>291</ele>
        <time>2019-09-11T08:41:04Z</time>
      </trkpt>
      <trkpt lat="47.32809" lon="6.29027">
        <ele>290.79998779297</ele>
        <time>2019-09-11T08:41:12Z</time>
      </trkpt>
      <trkpt lat="47.32787" lon="6.28982">
        <ele>290.79998779297</ele>
        <time>2019-09-11T08:41:19Z</time>
      </trkpt>
      <trkpt lat="47.32762" lon="6.28938">
        <ele>290.79998779297</ele>
        <time>2019-09-11T08:41:27Z</time>
      </trkpt>
      <trkpt lat="47.32733" lon="6.28896">
        <ele>290.79998779297</ele>
        <time>2019-09-11T08:41:35Z</time>
      </trkpt>
      <trkpt lat="47.32703" lon="6.28855">
        <ele>290.60000610352</ele>
        <time>2019-09-11T08:41:43Z</time>
      </trkpt>
      <trkpt lat="47.32674" lon="6.28815">
        <ele>290.60000610352</ele>
        <time>2019-09-11T08:41:51Z</time>
      </trkpt>
      <trkpt lat="47.32644" lon="6.28778">
        <ele>290.79998779297</ele>
        <time>2019-09-11T08:41:59Z</time>
      </trkpt>
      <trkpt lat="47.32616" lon="6.28749">
        <ele>290.79998779297</ele>
        <time>2019-09-11T08:42:06Z</time>
      </trkpt>
      <trkpt lat="47.32588" lon="6.28718">
        <ele>290.79998779297</ele>
        <time>2019-09-11T08:42:13Z</time>
      </trkpt>
      <trkpt lat="47.32547" lon="6.28671">
        <ele>291</ele>
        <time>2019-09-11T08:42:23Z</time>
      </trkpt>
      <trkpt lat="47.32519" lon="6.28642">
        <ele>291</ele>
        <time>2019-09-11T08:42:30Z</time>
      </trkpt>
      <trkpt lat="47.32486" lon="6.28609">
        <ele>291.20001220703</ele>
        <time>2019-09-11T08:42:38Z</time>
      </trkpt>
      <trkpt lat="47.32457" lon="6.2858">
        <ele>291.20001220703</ele>
        <time>2019-09-11T08:42:45Z</time>
      </trkpt>
      <trkpt lat="47.32423" lon="6.28548">
        <ele>291</ele>
        <time>2019-09-11T08:42:53Z</time>
      </trkpt>
      <trkpt lat="47.32387" lon="6.28514">
        <ele>291.20001220703</ele>
        <time>2019-09-11T08:43:02Z</time>
      </trkpt>
      <trkpt lat="47.32375" lon="6.28503">
        <ele>291.60000610352</ele>
        <time>2019-09-11T08:43:05Z</time>
      </trkpt>
      <trkpt lat="47.32364" lon="6.28492">
        <ele>291.60000610352</ele>
        <time>2019-09-11T08:43:08Z</time>
      </trkpt>
      <trkpt lat="47.32334" lon="6.28459">
        <ele>291.60000610352</ele>
        <time>2019-09-11T08:43:16Z</time>
      </trkpt>
      <trkpt lat="47.32313" lon="6.28433">
        <ele>290.79998779297</ele>
        <time>2019-09-11T08:43:23Z</time>
      </trkpt>
      <trkpt lat="47.32297" lon="6.2841">
        <ele>290.79998779297</ele>
        <time>2019-09-11T08:43:29Z</time>
      </trkpt>
      <trkpt lat="47.32279" lon="6.28389">
        <ele>291.20001220703</ele>
        <time>2019-09-11T08:43:35Z</time>
      </trkpt>
      <trkpt lat="47.32272" lon="6.28383">
        <ele>291.20001220703</ele>
        <time>2019-09-11T08:43:37Z</time>
      </trkpt>
      <trkpt lat="47.32255" lon="6.28367">
        <ele>291.20001220703</ele>
        <time>2019-09-11T08:43:42Z</time>
      </trkpt>
      <trkpt lat="47.32251" lon="6.28363">
        <ele>291.20001220703</ele>
        <time>2019-09-11T08:43:43Z</time>
      </trkpt>
      <trkpt lat="47.32238" lon="6.28342">
        <ele>291</ele>
        <time>2019-09-11T08:43:47Z</time>
      </trkpt>
      <trkpt lat="47.32214" lon="6.283">
        <ele>290.60000610352</ele>
        <time>2019-09-11T08:43:54Z</time>
      </trkpt>
      <trkpt lat="47.32189" lon="6.2826">
        <ele>290.39999389648</ele>
        <time>2019-09-11T08:44:01Z</time>
      </trkpt>
      <trkpt lat="47.3218" lon="6.28243">
        <ele>290.20001220703</ele>
        <time>2019-09-11T08:44:04Z</time>
      </trkpt>
      <trkpt lat="47.32166" lon="6.28204">
        <ele>290.39999389648</ele>
        <time>2019-09-11T08:44:10Z</time>
      </trkpt>
      <trkpt lat="47.32158" lon="6.28147">
        <ele>290.39999389648</ele>
        <time>2019-09-11T08:44:18Z</time>
      </trkpt>
      <trkpt lat="47.32152" lon="6.28083">
        <ele>290.79998779297</ele>
        <time>2019-09-11T08:44:27Z</time>
      </trkpt>
      <trkpt lat="47.32147" lon="6.2804">
        <ele>290.79998779297</ele>
        <time>2019-09-11T08:44:34Z</time>
      </trkpt>
      <trkpt lat="47.32143" lon="6.28015">
        <ele>291.79998779297</ele>
        <time>2019-09-11T08:44:40Z</time>
      </trkpt>
      <trkpt lat="47.32142" lon="6.28011">
        <ele>292</ele>
        <time>2019-09-11T08:44:41Z</time>
      </trkpt>
      <trkpt lat="47.3214" lon="6.27989">
        <ele>292.20001220703</ele>
        <time>2019-09-11T08:44:45Z</time>
      </trkpt>
      <trkpt lat="47.32137" lon="6.27947">
        <ele>292.20001220703</ele>
        <time>2019-09-11T08:44:50Z</time>
      </trkpt>
      <trkpt lat="47.32136" lon="6.27909">
        <ele>291.39999389648</ele>
        <time>2019-09-11T08:44:55Z</time>
      </trkpt>
      <trkpt lat="47.32137" lon="6.27902">
        <ele>291</ele>
        <time>2019-09-11T08:44:56Z</time>
      </trkpt>
      <trkpt lat="47.32139" lon="6.27889">
        <ele>290.79998779297</ele>
        <time>2019-09-11T08:44:58Z</time>
      </trkpt>
      <trkpt lat="47.3214" lon="6.27872">
        <ele>290.60000610352</ele>
        <time>2019-09-11T08:45:01Z</time>
      </trkpt>
      <trkpt lat="47.32143" lon="6.27824">
        <ele>290.60000610352</ele>
        <time>2019-09-11T08:45:09Z</time>
      </trkpt>
      <trkpt lat="47.32143" lon="6.27818">
        <ele>290.60000610352</ele>
        <time>2019-09-11T08:45:10Z</time>
      </trkpt>
      <trkpt lat="47.32143" lon="6.27791">
        <ele>290.39999389648</ele>
        <time>2019-09-11T08:45:14Z</time>
      </trkpt>
      <trkpt lat="47.32145" lon="6.27743">
        <ele>290.20001220703</ele>
        <time>2019-09-11T08:45:21Z</time>
      </trkpt>
      <trkpt lat="47.32146" lon="6.27729">
        <ele>290.20001220703</ele>
        <time>2019-09-11T08:45:23Z</time>
      </trkpt>
      <trkpt lat="47.32146" lon="6.27694">
        <ele>290.20001220703</ele>
        <time>2019-09-11T08:45:28Z</time>
      </trkpt>
      <trkpt lat="47.32145" lon="6.27665">
        <ele>290.39999389648</ele>
        <time>2019-09-11T08:45:32Z</time>
      </trkpt>
      <trkpt lat="47.32145" lon="6.27636">
        <ele>290.39999389648</ele>
        <time>2019-09-11T08:45:36Z</time>
      </trkpt>
      <trkpt lat="47.32139" lon="6.27578">
        <ele>290.79998779297</ele>
        <time>2019-09-11T08:45:44Z</time>
      </trkpt>
      <trkpt lat="47.32126" lon="6.27514">
        <ele>290.60000610352</ele>
        <time>2019-09-11T08:45:53Z</time>
      </trkpt>
      <trkpt lat="47.32124" lon="6.27494">
        <ele>290.60000610352</ele>
        <time>2019-09-11T08:45:56Z</time>
      </trkpt>
      <trkpt lat="47.32124" lon="6.27481">
        <ele>290.60000610352</ele>
        <time>2019-09-11T08:45:58Z</time>
      </trkpt>
      <trkpt lat="47.32118" lon="6.27441">
        <ele>290.60000610352</ele>
        <time>2019-09-11T08:46:04Z</time>
      </trkpt>
      <trkpt lat="47.32117" lon="6.27434">
        <ele>290.60000610352</ele>
        <time>2019-09-11T08:46:05Z</time>
      </trkpt>
      <trkpt lat="47.3211" lon="6.27371">
        <ele>290.60000610352</ele>
        <time>2019-09-11T08:46:14Z</time>
      </trkpt>
      <trkpt lat="47.321" lon="6.27306">
        <ele>290.79998779297</ele>
        <time>2019-09-11T08:46:23Z</time>
      </trkpt>
      <trkpt lat="47.32092" lon="6.2724">
        <ele>290.60000610352</ele>
        <time>2019-09-11T08:46:32Z</time>
      </trkpt>
      <trkpt lat="47.32087" lon="6.27189">
        <ele>290.39999389648</ele>
        <time>2019-09-11T08:46:39Z</time>
      </trkpt>
      <trkpt lat="47.32084" lon="6.27131">
        <ele>290.39999389648</ele>
        <time>2019-09-11T08:46:47Z</time>
      </trkpt>
      <trkpt lat="47.32083" lon="6.27058">
        <ele>290.79998779297</ele>
        <time>2019-09-11T08:46:57Z</time>
      </trkpt>
      <trkpt lat="47.32083" lon="6.26992">
        <ele>290.60000610352</ele>
        <time>2019-09-11T08:47:06Z</time>
      </trkpt>
      <trkpt lat="47.32084" lon="6.26918">
        <ele>290.60000610352</ele>
        <time>2019-09-11T08:47:16Z</time>
      </trkpt>
      <trkpt lat="47.32086" lon="6.26868">
        <ele>290.60000610352</ele>
        <time>2019-09-11T08:47:23Z</time>
      </trkpt>
      <trkpt lat="47.32087" lon="6.26809">
        <ele>290.79998779297</ele>
        <time>2019-09-11T08:47:31Z</time>
      </trkpt>
      <trkpt lat="47.32084" lon="6.26745">
        <ele>290.79998779297</ele>
        <time>2019-09-11T08:47:40Z</time>
      </trkpt>
      <trkpt lat="47.32083" lon="6.26717">
        <ele>290.60000610352</ele>
        <time>2019-09-11T08:47:44Z</time>
      </trkpt>
      <trkpt lat="47.32081" lon="6.26703">
        <ele>290.60000610352</ele>
        <time>2019-09-11T08:47:46Z</time>
      </trkpt>
      <trkpt lat="47.32069" lon="6.26648">
        <ele>290.60000610352</ele>
        <time>2019-09-11T08:47:54Z</time>
      </trkpt>
      <trkpt lat="47.32065" lon="6.26635">
        <ele>290.60000610352</ele>
        <time>2019-09-11T08:47:56Z</time>
      </trkpt>
      <trkpt lat="47.32051" lon="6.26604">
        <ele>290.60000610352</ele>
        <time>2019-09-11T08:48:01Z</time>
      </trkpt>
      <trkpt lat="47.32027" lon="6.26568">
        <ele>290.79998779297</ele>
        <time>2019-09-11T08:48:08Z</time>
      </trkpt>
      <trkpt lat="47.31995" lon="6.26532">
        <ele>291</ele>
        <time>2019-09-11T08:48:16Z</time>
      </trkpt>
      <trkpt lat="47.3197" lon="6.2651">
        <ele>291</ele>
        <time>2019-09-11T08:48:22Z</time>
      </trkpt>
      <trkpt lat="47.31965" lon="6.26507">
        <ele>291</ele>
        <time>2019-09-11T08:48:23Z</time>
      </trkpt>
      <trkpt lat="47.3193" lon="6.2648">
        <ele>291.20001220703</ele>
        <time>2019-09-11T08:48:31Z</time>
      </trkpt>
      <trkpt lat="47.31914" lon="6.2647">
        <ele>291.20001220703</ele>
        <time>2019-09-11T08:48:36Z</time>
      </trkpt>
      <trkpt lat="47.31914" lon="6.2647">
        <ele>291.20001220703</ele>
        <time>2019-09-11T08:48:38Z</time>
      </trkpt>
      <trkpt lat="47.31908" lon="6.26469">
        <ele>291.20001220703</ele>
        <time>2019-09-11T08:49:39Z</time>
      </trkpt>
      <trkpt lat="47.31906" lon="6.26467">
        <ele>291.20001220703</ele>
        <time>2019-09-11T08:49:40Z</time>
      </trkpt>
      <trkpt lat="47.31883" lon="6.26456">
        <ele>291.20001220703</ele>
        <time>2019-09-11T08:49:46Z</time>
      </trkpt>
      <trkpt lat="47.31856" lon="6.26441">
        <ele>291.39999389648</ele>
        <time>2019-09-11T08:49:53Z</time>
      </trkpt>
      <trkpt lat="47.31833" lon="6.26427">
        <ele>291.39999389648</ele>
        <time>2019-09-11T08:49:59Z</time>
      </trkpt>
      <trkpt lat="47.31796" lon="6.26408">
        <ele>291.20001220703</ele>
        <time>2019-09-11T08:50:07Z</time>
      </trkpt>
      <trkpt lat="47.3175" lon="6.26381">
        <ele>291</ele>
        <time>2019-09-11T08:50:17Z</time>
      </trkpt>
      <trkpt lat="47.31746" lon="6.26377">
        <ele>291</ele>
        <time>2019-09-11T08:50:18Z</time>
      </trkpt>
      <trkpt lat="47.31725" lon="6.26362">
        <ele>291.20001220703</ele>
        <time>2019-09-11T08:50:23Z</time>
      </trkpt>
      <trkpt lat="47.31693" lon="6.2634">
        <ele>291.20001220703</ele>
        <time>2019-09-11T08:50:30Z</time>
      </trkpt>
      <trkpt lat="47.31651" lon="6.26313">
        <ele>291.20001220703</ele>
        <time>2019-09-11T08:50:39Z</time>
      </trkpt>
      <trkpt lat="47.31613" lon="6.26288">
        <ele>291</ele>
        <time>2019-09-11T08:50:47Z</time>
      </trkpt>
      <trkpt lat="47.31582" lon="6.26265">
        <ele>290.79998779297</ele>
        <time>2019-09-11T08:50:54Z</time>
      </trkpt>
      <trkpt lat="47.31572" lon="6.26259">
        <ele>290.79998779297</ele>
        <time>2019-09-11T08:50:56Z</time>
      </trkpt>
      <trkpt lat="47.31534" lon="6.26239">
        <ele>290.60000610352</ele>
        <time>2019-09-11T08:51:04Z</time>
      </trkpt>
      <trkpt lat="47.31493" lon="6.26211">
        <ele>290.79998779297</ele>
        <time>2019-09-11T08:51:13Z</time>
      </trkpt>
      <trkpt lat="47.3145" lon="6.26174">
        <ele>290.79998779297</ele>
        <time>2019-09-11T08:51:23Z</time>
      </trkpt>
      <trkpt lat="47.31428" lon="6.26149">
        <ele>290.79998779297</ele>
        <time>2019-09-11T08:51:29Z</time>
      </trkpt>
      <trkpt lat="47.31388" lon="6.26117">
        <ele>291.39999389648</ele>
        <time>2019-09-11T08:51:38Z</time>
      </trkpt>
      <trkpt lat="47.31345" lon="6.26093">
        <ele>291.39999389648</ele>
        <time>2019-09-11T08:51:47Z</time>
      </trkpt>
      <trkpt lat="47.31301" lon="6.2607">
        <ele>291</ele>
        <time>2019-09-11T08:51:56Z</time>
      </trkpt>
      <trkpt lat="47.31292" lon="6.26065">
        <ele>291</ele>
        <time>2019-09-11T08:51:58Z</time>
      </trkpt>
      <trkpt lat="47.31279" lon="6.26052">
        <ele>290.79998779297</ele>
        <time>2019-09-11T08:52:01Z</time>
      </trkpt>
      <trkpt lat="47.31275" lon="6.26048">
        <ele>290.79998779297</ele>
        <time>2019-09-11T08:52:02Z</time>
      </trkpt>
      <trkpt lat="47.31261" lon="6.26042">
        <ele>290.60000610352</ele>
        <time>2019-09-11T08:52:05Z</time>
      </trkpt>
      <trkpt lat="47.31247" lon="6.26038">
        <ele>290.79998779297</ele>
        <time>2019-09-11T08:52:08Z</time>
      </trkpt>
      <trkpt lat="47.31228" lon="6.26029">
        <ele>290.79998779297</ele>
        <time>2019-09-11T08:52:12Z</time>
      </trkpt>
      <trkpt lat="47.31193" lon="6.26004">
        <ele>290.60000610352</ele>
        <time>2019-09-11T08:52:20Z</time>
      </trkpt>
      <trkpt lat="47.31185" lon="6.25997">
        <ele>290.60000610352</ele>
        <time>2019-09-11T08:52:22Z</time>
      </trkpt>
      <trkpt lat="47.31173" lon="6.25986">
        <ele>290.60000610352</ele>
        <time>2019-09-11T08:52:25Z</time>
      </trkpt>
      <trkpt lat="47.31169" lon="6.25981">
        <ele>290.60000610352</ele>
        <time>2019-09-11T08:52:26Z</time>
      </trkpt>
      <trkpt lat="47.31151" lon="6.2595">
        <ele>290.60000610352</ele>
        <time>2019-09-11T08:52:32Z</time>
      </trkpt>
      <trkpt lat="47.31133" lon="6.25911">
        <ele>290.60000610352</ele>
        <time>2019-09-11T08:52:39Z</time>
      </trkpt>
      <trkpt lat="47.31118" lon="6.25881">
        <ele>291.20001220703</ele>
        <time>2019-09-11T08:52:45Z</time>
      </trkpt>
      <trkpt lat="47.31116" lon="6.25876">
        <ele>291.20001220703</ele>
        <time>2019-09-11T08:52:46Z</time>
      </trkpt>
      <trkpt lat="47.31113" lon="6.25871">
        <ele>291.39999389648</ele>
        <time>2019-09-11T08:52:47Z</time>
      </trkpt>
      <trkpt lat="47.31106" lon="6.25857">
        <ele>291.60000610352</ele>
        <time>2019-09-11T08:52:50Z</time>
      </trkpt>
      <trkpt lat="47.311" lon="6.25848">
        <ele>291.60000610352</ele>
        <time>2019-09-11T08:52:52Z</time>
      </trkpt>
      <trkpt lat="47.31074" lon="6.25809">
        <ele>292</ele>
        <time>2019-09-11T08:53:01Z</time>
      </trkpt>
      <trkpt lat="47.31054" lon="6.25778">
        <ele>292.20001220703</ele>
        <time>2019-09-11T08:53:08Z</time>
      </trkpt>
      <trkpt lat="47.31028" lon="6.25739">
        <ele>292.39999389648</ele>
        <time>2019-09-11T08:53:16Z</time>
      </trkpt>
      <trkpt lat="47.31021" lon="6.25726">
        <ele>292.60000610352</ele>
        <time>2019-09-11T08:53:18Z</time>
      </trkpt>
      <trkpt lat="47.31015" lon="6.25701">
        <ele>292.39999389648</ele>
        <time>2019-09-11T08:53:21Z</time>
      </trkpt>
      <trkpt lat="47.31012" lon="6.25682">
        <ele>292.39999389648</ele>
        <time>2019-09-11T08:53:23Z</time>
      </trkpt>
      <trkpt lat="47.31008" lon="6.25655">
        <ele>291.60000610352</ele>
        <time>2019-09-11T08:53:26Z</time>
      </trkpt>
      <trkpt lat="47.31005" lon="6.25631">
        <ele>290.60000610352</ele>
        <time>2019-09-11T08:53:29Z</time>
      </trkpt>
      <trkpt lat="47.31001" lon="6.2561">
        <ele>290.20001220703</ele>
        <time>2019-09-11T08:53:32Z</time>
      </trkpt>
      <trkpt lat="47.30996" lon="6.25576">
        <ele>290.20001220703</ele>
        <time>2019-09-11T08:53:37Z</time>
      </trkpt>
      <trkpt lat="47.30994" lon="6.25556">
        <ele>290.20001220703</ele>
        <time>2019-09-11T08:53:40Z</time>
      </trkpt>
      <trkpt lat="47.30988" lon="6.25503">
        <ele>290.20001220703</ele>
        <time>2019-09-11T08:53:48Z</time>
      </trkpt>
      <trkpt lat="47.30987" lon="6.2549">
        <ele>290.39999389648</ele>
        <time>2019-09-11T08:53:50Z</time>
      </trkpt>
      <trkpt lat="47.30987" lon="6.25478">
        <ele>290.39999389648</ele>
        <time>2019-09-11T08:53:52Z</time>
      </trkpt>
      <trkpt lat="47.30986" lon="6.25472">
        <ele>290.39999389648</ele>
        <time>2019-09-11T08:53:53Z</time>
      </trkpt>
      <trkpt lat="47.3098" lon="6.25443">
        <ele>290.79998779297</ele>
        <time>2019-09-11T08:53:58Z</time>
      </trkpt>
      <trkpt lat="47.30971" lon="6.25391">
        <ele>290.79998779297</ele>
        <time>2019-09-11T08:54:05Z</time>
      </trkpt>
      <trkpt lat="47.30963" lon="6.25347">
        <ele>291</ele>
        <time>2019-09-11T08:54:11Z</time>
      </trkpt>
      <trkpt lat="47.30952" lon="6.25286">
        <ele>291.20001220703</ele>
        <time>2019-09-11T08:54:19Z</time>
      </trkpt>
      <trkpt lat="47.30944" lon="6.25233">
        <ele>290.60000610352</ele>
        <time>2019-09-11T08:54:26Z</time>
      </trkpt>
      <trkpt lat="47.30932" lon="6.25159">
        <ele>289.79998779297</ele>
        <time>2019-09-11T08:54:36Z</time>
      </trkpt>
      <trkpt lat="47.30931" lon="6.25152">
        <ele>289.79998779297</ele>
        <time>2019-09-11T08:54:37Z</time>
      </trkpt>
      <trkpt lat="47.30918" lon="6.25072">
        <ele>289.60000610352</ele>
        <time>2019-09-11T08:54:48Z</time>
      </trkpt>
      <trkpt lat="47.30917" lon="6.25065">
        <ele>289.60000610352</ele>
        <time>2019-09-11T08:54:49Z</time>
      </trkpt>
      <trkpt lat="47.30907" lon="6.25001">
        <ele>289.79998779297</ele>
        <time>2019-09-11T08:54:58Z</time>
      </trkpt>
      <trkpt lat="47.30899" lon="6.24939">
        <ele>290.20001220703</ele>
        <time>2019-09-11T08:55:07Z</time>
      </trkpt>
      <trkpt lat="47.3089" lon="6.24879">
        <ele>290.39999389648</ele>
        <time>2019-09-11T08:55:15Z</time>
      </trkpt>
      <trkpt lat="47.30878" lon="6.24799">
        <ele>290</ele>
        <time>2019-09-11T08:55:25Z</time>
      </trkpt>
      <trkpt lat="47.30866" lon="6.24721">
        <ele>289.60000610352</ele>
        <time>2019-09-11T08:55:35Z</time>
      </trkpt>
      <trkpt lat="47.30865" lon="6.24713">
        <ele>289.60000610352</ele>
        <time>2019-09-11T08:55:36Z</time>
      </trkpt>
      <trkpt lat="47.30855" lon="6.24641">
        <ele>289.60000610352</ele>
        <time>2019-09-11T08:55:46Z</time>
      </trkpt>
      <trkpt lat="47.30844" lon="6.2457">
        <ele>289.79998779297</ele>
        <time>2019-09-11T08:55:56Z</time>
      </trkpt>
      <trkpt lat="47.30831" lon="6.24497">
        <ele>290</ele>
        <time>2019-09-11T08:56:06Z</time>
      </trkpt>
      <trkpt lat="47.30821" lon="6.24446">
        <ele>289.79998779297</ele>
        <time>2019-09-11T08:56:13Z</time>
      </trkpt>
      <trkpt lat="47.30807" lon="6.24386">
        <ele>289.60000610352</ele>
        <time>2019-09-11T08:56:21Z</time>
      </trkpt>
      <trkpt lat="47.3079" lon="6.24327">
        <ele>289.60000610352</ele>
        <time>2019-09-11T08:56:29Z</time>
      </trkpt>
      <trkpt lat="47.30767" lon="6.24252">
        <ele>289.60000610352</ele>
        <time>2019-09-11T08:56:39Z</time>
      </trkpt>
      <trkpt lat="47.30753" lon="6.24196">
        <ele>289.60000610352</ele>
        <time>2019-09-11T08:56:47Z</time>
      </trkpt>
      <trkpt lat="47.30738" lon="6.24126">
        <ele>290.20001220703</ele>
        <time>2019-09-11T08:56:57Z</time>
      </trkpt>
      <trkpt lat="47.30721" lon="6.24049">
        <ele>290.60000610352</ele>
        <time>2019-09-11T08:57:08Z</time>
      </trkpt>
      <trkpt lat="47.30707" lon="6.23984">
        <ele>290.60000610352</ele>
        <time>2019-09-11T08:57:17Z</time>
      </trkpt>
      <trkpt lat="47.30695" lon="6.23932">
        <ele>290.20001220703</ele>
        <time>2019-09-11T08:57:24Z</time>
      </trkpt>
      <trkpt lat="47.30678" lon="6.23874">
        <ele>290.20001220703</ele>
        <time>2019-09-11T08:57:32Z</time>
      </trkpt>
      <trkpt lat="47.30666" lon="6.23839">
        <ele>290.20001220703</ele>
        <time>2019-09-11T08:57:37Z</time>
      </trkpt>
      <trkpt lat="47.30657" lon="6.23818">
        <ele>290</ele>
        <time>2019-09-11T08:57:40Z</time>
      </trkpt>
      <trkpt lat="47.30628" lon="6.23757">
        <ele>290</ele>
        <time>2019-09-11T08:57:49Z</time>
      </trkpt>
      <trkpt lat="47.30606" lon="6.23714">
        <ele>289.79998779297</ele>
        <time>2019-09-11T08:57:56Z</time>
      </trkpt>
      <trkpt lat="47.30573" lon="6.2366">
        <ele>289.79998779297</ele>
        <time>2019-09-11T08:58:05Z</time>
      </trkpt>
      <trkpt lat="47.30569" lon="6.23655">
        <ele>289.79998779297</ele>
        <time>2019-09-11T08:58:06Z</time>
      </trkpt>
      <trkpt lat="47.3055" lon="6.23642">
        <ele>289.60000610352</ele>
        <time>2019-09-11T08:58:10Z</time>
      </trkpt>
      <trkpt lat="47.30535" lon="6.23638">
        <ele>289.60000610352</ele>
        <time>2019-09-11T08:58:13Z</time>
      </trkpt>
      <trkpt lat="47.30519" lon="6.23635">
        <ele>289.60000610352</ele>
        <time>2019-09-11T08:58:16Z</time>
      </trkpt>
      <trkpt lat="47.30485" lon="6.23627">
        <ele>289.79998779297</ele>
        <time>2019-09-11T08:58:23Z</time>
      </trkpt>
      <trkpt lat="47.30481" lon="6.23625">
        <ele>289.79998779297</ele>
        <time>2019-09-11T08:58:24Z</time>
      </trkpt>
      <trkpt lat="47.30452" lon="6.23612">
        <ele>289.60000610352</ele>
        <time>2019-09-11T08:58:30Z</time>
      </trkpt>
      <trkpt lat="47.30409" lon="6.23592">
        <ele>289.60000610352</ele>
        <time>2019-09-11T08:58:39Z</time>
      </trkpt>
      <trkpt lat="47.30377" lon="6.23571">
        <ele>289.60000610352</ele>
        <time>2019-09-11T08:58:46Z</time>
      </trkpt>
      <trkpt lat="47.30337" lon="6.23541">
        <ele>289.79998779297</ele>
        <time>2019-09-11T08:58:55Z</time>
      </trkpt>
      <trkpt lat="47.30302" lon="6.23528">
        <ele>289.79998779297</ele>
        <time>2019-09-11T08:59:02Z</time>
      </trkpt>
      <trkpt lat="47.30297" lon="6.23527">
        <ele>289.79998779297</ele>
        <time>2019-09-11T08:59:03Z</time>
      </trkpt>
      <trkpt lat="47.30287" lon="6.23525">
        <ele>289.79998779297</ele>
        <time>2019-09-11T08:59:05Z</time>
      </trkpt>
      <trkpt lat="47.30255" lon="6.23524">
        <ele>289.60000610352</ele>
        <time>2019-09-11T08:59:11Z</time>
      </trkpt>
      <trkpt lat="47.30225" lon="6.23526">
        <ele>289.60000610352</ele>
        <time>2019-09-11T08:59:17Z</time>
      </trkpt>
      <trkpt lat="47.30205" lon="6.23527">
        <ele>289.60000610352</ele>
        <time>2019-09-11T08:59:21Z</time>
      </trkpt>
      <trkpt lat="47.30185" lon="6.2353">
        <ele>289.79998779297</ele>
        <time>2019-09-11T08:59:25Z</time>
      </trkpt>
      <trkpt lat="47.3015" lon="6.23539">
        <ele>289.79998779297</ele>
        <time>2019-09-11T08:59:32Z</time>
      </trkpt>
      <trkpt lat="47.30116" lon="6.23545">
        <ele>289.79998779297</ele>
        <time>2019-09-11T08:59:39Z</time>
      </trkpt>
      <trkpt lat="47.30098" lon="6.23542">
        <ele>290</ele>
        <time>2019-09-11T08:59:44Z</time>
      </trkpt>
      <trkpt lat="47.30073" lon="6.23533">
        <ele>290.60000610352</ele>
        <time>2019-09-11T08:59:51Z</time>
      </trkpt>
      <trkpt lat="47.30066" lon="6.23532">
        <ele>291</ele>
        <time>2019-09-11T08:59:53Z</time>
      </trkpt>
      <trkpt lat="47.30039" lon="6.23527">
        <ele>292</ele>
        <time>2019-09-11T09:00:01Z</time>
      </trkpt>
      <trkpt lat="47.30035" lon="6.23526">
        <ele>292.20001220703</ele>
        <time>2019-09-11T09:00:02Z</time>
      </trkpt>
      <trkpt lat="47.30016" lon="6.23519">
        <ele>292.79998779297</ele>
        <time>2019-09-11T09:00:08Z</time>
      </trkpt>
      <trkpt lat="47.30008" lon="6.23512">
        <ele>293.20001220703</ele>
        <time>2019-09-11T09:00:11Z</time>
      </trkpt>
      <trkpt lat="47.3" lon="6.23502">
        <ele>293.79998779297</ele>
        <time>2019-09-11T09:00:15Z</time>
      </trkpt>
      <trkpt lat="47.29991" lon="6.23494">
        <ele>294.39999389648</ele>
        <time>2019-09-11T09:00:19Z</time>
      </trkpt>
      <trkpt lat="47.29983" lon="6.23483">
        <ele>295</ele>
        <time>2019-09-11T09:00:23Z</time>
      </trkpt>
      <trkpt lat="47.29979" lon="6.23478">
        <ele>295.39999389648</ele>
        <time>2019-09-11T09:00:25Z</time>
      </trkpt>
      <trkpt lat="47.29965" lon="6.23464">
        <ele>296.39999389648</ele>
        <time>2019-09-11T09:00:31Z</time>
      </trkpt>
      <trkpt lat="47.29949" lon="6.23444">
        <ele>297.39999389648</ele>
        <time>2019-09-11T09:00:39Z</time>
      </trkpt>
      <trkpt lat="47.29947" lon="6.23441">
        <ele>297.60000610352</ele>
        <time>2019-09-11T09:00:40Z</time>
      </trkpt>
      <trkpt lat="47.2993" lon="6.23425">
        <ele>298.20001220703</ele>
        <time>2019-09-11T09:00:47Z</time>
      </trkpt>
      <trkpt lat="47.29921" lon="6.23419">
        <ele>298.60000610352</ele>
        <time>2019-09-11T09:00:50Z</time>
      </trkpt>
      <trkpt lat="47.29905" lon="6.23413">
        <ele>298.79998779297</ele>
        <time>2019-09-11T09:00:55Z</time>
      </trkpt>
      <trkpt lat="47.2988" lon="6.23403">
        <ele>299.60000610352</ele>
        <time>2019-09-11T09:01:03Z</time>
      </trkpt>
      <trkpt lat="47.2987" lon="6.23408">
        <ele>299.79998779297</ele>
        <time>2019-09-11T09:01:07Z</time>
      </trkpt>
      <trkpt lat="47.29852" lon="6.23418">
        <ele>300.20001220703</ele>
        <time>2019-09-11T09:01:12Z</time>
      </trkpt>
      <trkpt lat="47.29823" lon="6.23428">
        <ele>300.20001220703</ele>
        <time>2019-09-11T09:01:16Z</time>
      </trkpt>
      <trkpt lat="47.29815" lon="6.2343">
        <ele>300</ele>
        <time>2019-09-11T09:01:17Z</time>
      </trkpt>
      <trkpt lat="47.29791" lon="6.23424">
        <ele>298.60000610352</ele>
        <time>2019-09-11T09:01:20Z</time>
      </trkpt>
      <trkpt lat="47.2978" lon="6.23409">
        <ele>297</ele>
        <time>2019-09-11T09:01:22Z</time>
      </trkpt>
      <trkpt lat="47.29774" lon="6.23401">
        <ele>295.79998779297</ele>
        <time>2019-09-11T09:01:23Z</time>
      </trkpt>
      <trkpt lat="47.2977" lon="6.23394">
        <ele>294.79998779297</ele>
        <time>2019-09-11T09:01:24Z</time>
      </trkpt>
      <trkpt lat="47.29765" lon="6.23386">
        <ele>293.60000610352</ele>
        <time>2019-09-11T09:01:25Z</time>
      </trkpt>
      <trkpt lat="47.29761" lon="6.2338">
        <ele>292.60000610352</ele>
        <time>2019-09-11T09:01:26Z</time>
      </trkpt>
      <trkpt lat="47.2975" lon="6.23361">
        <ele>291.60000610352</ele>
        <time>2019-09-11T09:01:29Z</time>
      </trkpt>
      <trkpt lat="47.29746" lon="6.23356">
        <ele>291.60000610352</ele>
        <time>2019-09-11T09:01:30Z</time>
      </trkpt>
      <trkpt lat="47.29733" lon="6.2333">
        <ele>291.39999389648</ele>
        <time>2019-09-11T09:01:35Z</time>
      </trkpt>
      <trkpt lat="47.29725" lon="6.23309">
        <ele>291.79998779297</ele>
        <time>2019-09-11T09:01:39Z</time>
      </trkpt>
      <trkpt lat="47.29721" lon="6.23306">
        <ele>291.79998779297</ele>
        <time>2019-09-11T09:01:40Z</time>
      </trkpt>
      <trkpt lat="47.29709" lon="6.23312">
        <ele>292</ele>
        <time>2019-09-11T09:01:43Z</time>
      </trkpt>
      <trkpt lat="47.29705" lon="6.23316">
        <ele>292</ele>
        <time>2019-09-11T09:01:44Z</time>
      </trkpt>
      <trkpt lat="47.297" lon="6.2332">
        <ele>292</ele>
        <time>2019-09-11T09:01:45Z</time>
      </trkpt>
      <trkpt lat="47.29689" lon="6.23324">
        <ele>292</ele>
        <time>2019-09-11T09:01:47Z</time>
      </trkpt>
      <trkpt lat="47.2967" lon="6.23334">
        <ele>291.79998779297</ele>
        <time>2019-09-11T09:01:50Z</time>
      </trkpt>
      <trkpt lat="47.29647" lon="6.23349">
        <ele>290.79998779297</ele>
        <time>2019-09-11T09:01:54Z</time>
      </trkpt>
      <trkpt lat="47.29641" lon="6.23351">
        <ele>290.20001220703</ele>
        <time>2019-09-11T09:01:55Z</time>
      </trkpt>
      <trkpt lat="47.29632" lon="6.23344">
        <ele>289.39999389648</ele>
        <time>2019-09-11T09:01:57Z</time>
      </trkpt>
      <trkpt lat="47.2962" lon="6.23319">
        <ele>288.79998779297</ele>
        <time>2019-09-11T09:02:01Z</time>
      </trkpt>
      <trkpt lat="47.29617" lon="6.23313">
        <ele>288.79998779297</ele>
        <time>2019-09-11T09:02:02Z</time>
      </trkpt>
      <trkpt lat="47.29615" lon="6.23307">
        <ele>288.60000610352</ele>
        <time>2019-09-11T09:02:03Z</time>
      </trkpt>
      <trkpt lat="47.29607" lon="6.2328">
        <ele>288.60000610352</ele>
        <time>2019-09-11T09:02:07Z</time>
      </trkpt>
      <trkpt lat="47.29595" lon="6.23223">
        <ele>288.60000610352</ele>
        <time>2019-09-11T09:02:15Z</time>
      </trkpt>
      <trkpt lat="47.29591" lon="6.23171">
        <ele>288.60000610352</ele>
        <time>2019-09-11T09:02:22Z</time>
      </trkpt>
      <trkpt lat="47.29592" lon="6.23143">
        <ele>288.79998779297</ele>
        <time>2019-09-11T09:02:26Z</time>
      </trkpt>
      <trkpt lat="47.29596" lon="6.23121">
        <ele>288.60000610352</ele>
        <time>2019-09-11T09:02:29Z</time>
      </trkpt>
      <trkpt lat="47.29597" lon="6.23114">
        <ele>288.60000610352</ele>
        <time>2019-09-11T09:02:30Z</time>
      </trkpt>
      <trkpt lat="47.29598" lon="6.23085">
        <ele>288.79998779297</ele>
        <time>2019-09-11T09:02:34Z</time>
      </trkpt>
      <trkpt lat="47.29601" lon="6.23026">
        <ele>288.60000610352</ele>
        <time>2019-09-11T09:02:42Z</time>
      </trkpt>
      <trkpt lat="47.29603" lon="6.23011">
        <ele>288.60000610352</ele>
        <time>2019-09-11T09:02:44Z</time>
      </trkpt>
      <trkpt lat="47.2961" lon="6.22962">
        <ele>288.39999389648</ele>
        <time>2019-09-11T09:02:51Z</time>
      </trkpt>
      <trkpt lat="47.29611" lon="6.22956">
        <ele>288.39999389648</ele>
        <time>2019-09-11T09:02:52Z</time>
      </trkpt>
      <trkpt lat="47.29624" lon="6.22913">
        <ele>288.60000610352</ele>
        <time>2019-09-11T09:02:59Z</time>
      </trkpt>
      <trkpt lat="47.29646" lon="6.22866">
        <ele>289.39999389648</ele>
        <time>2019-09-11T09:03:07Z</time>
      </trkpt>
      <trkpt lat="47.29649" lon="6.2286">
        <ele>289.39999389648</ele>
        <time>2019-09-11T09:03:08Z</time>
      </trkpt>
      <trkpt lat="47.29663" lon="6.2283">
        <ele>289.39999389648</ele>
        <time>2019-09-11T09:03:13Z</time>
      </trkpt>
      <trkpt lat="47.29677" lon="6.228">
        <ele>289.60000610352</ele>
        <time>2019-09-11T09:03:18Z</time>
      </trkpt>
      <trkpt lat="47.29698" lon="6.22757">
        <ele>289.60000610352</ele>
        <time>2019-09-11T09:03:25Z</time>
      </trkpt>
      <trkpt lat="47.29717" lon="6.22715">
        <ele>289.60000610352</ele>
        <time>2019-09-11T09:03:32Z</time>
      </trkpt>
      <trkpt lat="47.29742" lon="6.22661">
        <ele>289.60000610352</ele>
        <time>2019-09-11T09:03:41Z</time>
      </trkpt>
      <trkpt lat="47.29761" lon="6.22618">
        <ele>290</ele>
        <time>2019-09-11T09:03:48Z</time>
      </trkpt>
      <trkpt lat="47.29778" lon="6.2257">
        <ele>290</ele>
        <time>2019-09-11T09:03:55Z</time>
      </trkpt>
      <trkpt lat="47.29788" lon="6.2253">
        <ele>289.79998779297</ele>
        <time>2019-09-11T09:04:01Z</time>
      </trkpt>
      <trkpt lat="47.29796" lon="6.22501">
        <ele>289.79998779297</ele>
        <time>2019-09-11T09:04:05Z</time>
      </trkpt>
      <trkpt lat="47.29812" lon="6.22431">
        <ele>289.60000610352</ele>
        <time>2019-09-11T09:04:14Z</time>
      </trkpt>
      <trkpt lat="47.29826" lon="6.22378">
        <ele>289.39999389648</ele>
        <time>2019-09-11T09:04:21Z</time>
      </trkpt>
      <trkpt lat="47.29839" lon="6.22325">
        <ele>289.39999389648</ele>
        <time>2019-09-11T09:04:28Z</time>
      </trkpt>
      <trkpt lat="47.29853" lon="6.22263">
        <ele>289.39999389648</ele>
        <time>2019-09-11T09:04:36Z</time>
      </trkpt>
      <trkpt lat="47.2987" lon="6.22193">
        <ele>289.20001220703</ele>
        <time>2019-09-11T09:04:45Z</time>
      </trkpt>
      <trkpt lat="47.29877" lon="6.22164">
        <ele>289</ele>
        <time>2019-09-11T09:04:49Z</time>
      </trkpt>
      <trkpt lat="47.2988" lon="6.22158">
        <ele>288.79998779297</ele>
        <time>2019-09-11T09:04:50Z</time>
      </trkpt>
      <trkpt lat="47.29896" lon="6.22142">
        <ele>288.79998779297</ele>
        <time>2019-09-11T09:04:54Z</time>
      </trkpt>
      <trkpt lat="47.299" lon="6.22129">
        <ele>288.79998779297</ele>
        <time>2019-09-11T09:04:57Z</time>
      </trkpt>
      <trkpt lat="47.29912" lon="6.22111">
        <ele>288.79998779297</ele>
        <time>2019-09-11T09:05:02Z</time>
      </trkpt>
      <trkpt lat="47.29927" lon="6.22081">
        <ele>289</ele>
        <time>2019-09-11T09:05:07Z</time>
      </trkpt>
      <trkpt lat="47.29958" lon="6.22027">
        <ele>288.60000610352</ele>
        <time>2019-09-11T09:05:16Z</time>
      </trkpt>
      <trkpt lat="47.29969" lon="6.22009">
        <ele>288.39999389648</ele>
        <time>2019-09-11T09:05:19Z</time>
      </trkpt>
      <trkpt lat="47.29975" lon="6.22003">
        <ele>288.39999389648</ele>
        <time>2019-09-11T09:05:21Z</time>
      </trkpt>
      <trkpt lat="47.29985" lon="6.21995">
        <ele>288.20001220703</ele>
        <time>2019-09-11T09:05:26Z</time>
      </trkpt>
      <trkpt lat="47.29989" lon="6.21994">
        <ele>288.20001220703</ele>
        <time>2019-09-11T09:05:27Z</time>
      </trkpt>
      <trkpt lat="47.29992" lon="6.21991">
        <ele>288.20001220703</ele>
        <time>2019-09-11T09:05:28Z</time>
      </trkpt>
      <trkpt lat="47.29998" lon="6.21981">
        <ele>288</ele>
        <time>2019-09-11T09:05:30Z</time>
      </trkpt>
      <trkpt lat="47.30024" lon="6.21935">
        <ele>288</ele>
        <time>2019-09-11T09:05:38Z</time>
      </trkpt>
      <trkpt lat="47.30052" lon="6.21887">
        <ele>288</ele>
        <time>2019-09-11T09:05:46Z</time>
      </trkpt>
      <trkpt lat="47.30077" lon="6.21846">
        <ele>288</ele>
        <time>2019-09-11T09:05:53Z</time>
      </trkpt>
      <trkpt lat="47.30103" lon="6.21803">
        <ele>287.79998779297</ele>
        <time>2019-09-11T09:06:00Z</time>
      </trkpt>
      <trkpt lat="47.30127" lon="6.21758">
        <ele>287.79998779297</ele>
        <time>2019-09-11T09:06:07Z</time>
      </trkpt>
      <trkpt lat="47.3015" lon="6.21716">
        <ele>287.79998779297</ele>
        <time>2019-09-11T09:06:14Z</time>
      </trkpt>
      <trkpt lat="47.3018" lon="6.21674">
        <ele>288.39999389648</ele>
        <time>2019-09-11T09:06:22Z</time>
      </trkpt>
      <trkpt lat="47.30195" lon="6.21647">
        <ele>288.60000610352</ele>
        <time>2019-09-11T09:06:26Z</time>
      </trkpt>
      <trkpt lat="47.302" lon="6.21642">
        <ele>288.60000610352</ele>
        <time>2019-09-11T09:06:27Z</time>
      </trkpt>
      <trkpt lat="47.30231" lon="6.21603">
        <ele>288.39999389648</ele>
        <time>2019-09-11T09:06:34Z</time>
      </trkpt>
      <trkpt lat="47.30235" lon="6.21598">
        <ele>288.20001220703</ele>
        <time>2019-09-11T09:06:35Z</time>
      </trkpt>
      <trkpt lat="47.30254" lon="6.21571">
        <ele>288</ele>
        <time>2019-09-11T09:06:40Z</time>
      </trkpt>
      <trkpt lat="47.30272" lon="6.21533">
        <ele>287.60000610352</ele>
        <time>2019-09-11T09:06:46Z</time>
      </trkpt>
      <trkpt lat="47.30279" lon="6.21521">
        <ele>287.60000610352</ele>
        <time>2019-09-11T09:06:48Z</time>
      </trkpt>
      <trkpt lat="47.30289" lon="6.215">
        <ele>287.60000610352</ele>
        <time>2019-09-11T09:06:51Z</time>
      </trkpt>
      <trkpt lat="47.30315" lon="6.21452">
        <ele>287.39999389648</ele>
        <time>2019-09-11T09:06:58Z</time>
      </trkpt>
      <trkpt lat="47.30329" lon="6.21418">
        <ele>287.39999389648</ele>
        <time>2019-09-11T09:07:03Z</time>
      </trkpt>
      <trkpt lat="47.30332" lon="6.21405">
        <ele>287.39999389648</ele>
        <time>2019-09-11T09:07:05Z</time>
      </trkpt>
      <trkpt lat="47.30334" lon="6.21397">
        <ele>287.39999389648</ele>
        <time>2019-09-11T09:07:06Z</time>
      </trkpt>
      <trkpt lat="47.3034" lon="6.21355">
        <ele>287.39999389648</ele>
        <time>2019-09-11T09:07:11Z</time>
      </trkpt>
      <trkpt lat="47.30343" lon="6.21339">
        <ele>287.39999389648</ele>
        <time>2019-09-11T09:07:13Z</time>
      </trkpt>
      <trkpt lat="47.30348" lon="6.21308">
        <ele>287.39999389648</ele>
        <time>2019-09-11T09:07:17Z</time>
      </trkpt>
      <trkpt lat="47.30354" lon="6.2128">
        <ele>287.39999389648</ele>
        <time>2019-09-11T09:07:21Z</time>
      </trkpt>
      <trkpt lat="47.30358" lon="6.21266">
        <ele>287.39999389648</ele>
        <time>2019-09-11T09:07:23Z</time>
      </trkpt>
      <trkpt lat="47.3037" lon="6.21216">
        <ele>287.39999389648</ele>
        <time>2019-09-11T09:07:30Z</time>
      </trkpt>
      <trkpt lat="47.30378" lon="6.21178">
        <ele>287.60000610352</ele>
        <time>2019-09-11T09:07:35Z</time>
      </trkpt>
      <trkpt lat="47.30389" lon="6.21099">
        <ele>287.60000610352</ele>
        <time>2019-09-11T09:07:44Z</time>
      </trkpt>
      <trkpt lat="47.30392" lon="6.21042">
        <ele>287.39999389648</ele>
        <time>2019-09-11T09:07:51Z</time>
      </trkpt>
      <trkpt lat="47.30392" lon="6.21034">
        <ele>287.39999389648</ele>
        <time>2019-09-11T09:07:52Z</time>
      </trkpt>
      <trkpt lat="47.30391" lon="6.21003">
        <ele>287.20001220703</ele>
        <time>2019-09-11T09:07:56Z</time>
      </trkpt>
      <trkpt lat="47.3039" lon="6.20995">
        <ele>287.20001220703</ele>
        <time>2019-09-11T09:07:57Z</time>
      </trkpt>
      <trkpt lat="47.30385" lon="6.20937">
        <ele>287.20001220703</ele>
        <time>2019-09-11T09:08:04Z</time>
      </trkpt>
      <trkpt lat="47.30384" lon="6.20929">
        <ele>287.20001220703</ele>
        <time>2019-09-11T09:08:05Z</time>
      </trkpt>
      <trkpt lat="47.30378" lon="6.20901">
        <ele>287.20001220703</ele>
        <time>2019-09-11T09:08:09Z</time>
      </trkpt>
      <trkpt lat="47.30377" lon="6.20895">
        <ele>287.20001220703</ele>
        <time>2019-09-11T09:08:10Z</time>
      </trkpt>
      <trkpt lat="47.30367" lon="6.20864">
        <ele>287.60000610352</ele>
        <time>2019-09-11T09:08:15Z</time>
      </trkpt>
      <trkpt lat="47.30345" lon="6.20808">
        <ele>288</ele>
        <time>2019-09-11T09:08:24Z</time>
      </trkpt>
      <trkpt lat="47.3033" lon="6.20779">
        <ele>288.20001220703</ele>
        <time>2019-09-11T09:08:30Z</time>
      </trkpt>
      <trkpt lat="47.3032" lon="6.20765">
        <ele>288.20001220703</ele>
        <time>2019-09-11T09:08:35Z</time>
      </trkpt>
      <trkpt lat="47.30315" lon="6.20759">
        <ele>288.60000610352</ele>
        <time>2019-09-11T09:08:37Z</time>
      </trkpt>
      <trkpt lat="47.30308" lon="6.20751">
        <ele>289.60000610352</ele>
        <time>2019-09-11T09:08:40Z</time>
      </trkpt>
      <trkpt lat="47.30305" lon="6.20748">
        <ele>289.79998779297</ele>
        <time>2019-09-11T09:08:41Z</time>
      </trkpt>
      <trkpt lat="47.30297" lon="6.20738">
        <ele>290.79998779297</ele>
        <time>2019-09-11T09:08:45Z</time>
      </trkpt>
      <trkpt lat="47.30294" lon="6.20735">
        <ele>291</ele>
        <time>2019-09-11T09:08:46Z</time>
      </trkpt>
      <trkpt lat="47.3028" lon="6.20722">
        <ele>291.60000610352</ele>
        <time>2019-09-11T09:08:51Z</time>
      </trkpt>
      <trkpt lat="47.30261" lon="6.20707">
        <ele>292</ele>
        <time>2019-09-11T09:08:56Z</time>
      </trkpt>
      <trkpt lat="47.30254" lon="6.20701">
        <ele>292.20001220703</ele>
        <time>2019-09-11T09:08:58Z</time>
      </trkpt>
      <trkpt lat="47.30239" lon="6.20689">
        <ele>293</ele>
        <time>2019-09-11T09:09:03Z</time>
      </trkpt>
      <trkpt lat="47.30235" lon="6.20686">
        <ele>293.20001220703</ele>
        <time>2019-09-11T09:09:04Z</time>
      </trkpt>
      <trkpt lat="47.30215" lon="6.20672">
        <ele>294</ele>
        <time>2019-09-11T09:09:09Z</time>
      </trkpt>
      <trkpt lat="47.30207" lon="6.20667">
        <ele>294.20001220703</ele>
        <time>2019-09-11T09:09:11Z</time>
      </trkpt>
      <trkpt lat="47.30175" lon="6.20649">
        <ele>294.20001220703</ele>
        <time>2019-09-11T09:09:17Z</time>
      </trkpt>
      <trkpt lat="47.30138" lon="6.20635">
        <ele>293.60000610352</ele>
        <time>2019-09-11T09:09:22Z</time>
      </trkpt>
      <trkpt lat="47.30122" lon="6.20628">
        <ele>292.60000610352</ele>
        <time>2019-09-11T09:09:24Z</time>
      </trkpt>
      <trkpt lat="47.301" lon="6.20617">
        <ele>291.39999389648</ele>
        <time>2019-09-11T09:09:27Z</time>
      </trkpt>
      <trkpt lat="47.30093" lon="6.20613">
        <ele>290.79998779297</ele>
        <time>2019-09-11T09:09:28Z</time>
      </trkpt>
      <trkpt lat="47.30086" lon="6.20609">
        <ele>290.20001220703</ele>
        <time>2019-09-11T09:09:29Z</time>
      </trkpt>
      <trkpt lat="47.30073" lon="6.20602">
        <ele>288.79998779297</ele>
        <time>2019-09-11T09:09:31Z</time>
      </trkpt>
      <trkpt lat="47.30055" lon="6.20593">
        <ele>288</ele>
        <time>2019-09-11T09:09:34Z</time>
      </trkpt>
      <trkpt lat="47.30049" lon="6.20591">
        <ele>287.79998779297</ele>
        <time>2019-09-11T09:09:35Z</time>
      </trkpt>
      <trkpt lat="47.30014" lon="6.20578">
        <ele>287.60000610352</ele>
        <time>2019-09-11T09:09:41Z</time>
      </trkpt>
      <trkpt lat="47.29963" lon="6.20562">
        <ele>287.60000610352</ele>
        <time>2019-09-11T09:09:50Z</time>
      </trkpt>
      <trkpt lat="47.2991" lon="6.20543">
        <ele>287.39999389648</ele>
        <time>2019-09-11T09:09:59Z</time>
      </trkpt>
      <trkpt lat="47.29899" lon="6.20539">
        <ele>287.39999389648</ele>
        <time>2019-09-11T09:10:01Z</time>
      </trkpt>
      <trkpt lat="47.29859" lon="6.20522">
        <ele>287.20001220703</ele>
        <time>2019-09-11T09:10:09Z</time>
      </trkpt>
      <trkpt lat="47.29831" lon="6.20508">
        <ele>287.60000610352</ele>
        <time>2019-09-11T09:10:15Z</time>
      </trkpt>
      <trkpt lat="47.29783" lon="6.20488">
        <ele>287.79998779297</ele>
        <time>2019-09-11T09:10:24Z</time>
      </trkpt>
      <trkpt lat="47.29733" lon="6.20473">
        <ele>287.39999389648</ele>
        <time>2019-09-11T09:10:33Z</time>
      </trkpt>
      <trkpt lat="47.2969" lon="6.20462">
        <ele>287.39999389648</ele>
        <time>2019-09-11T09:10:41Z</time>
      </trkpt>
      <trkpt lat="47.29647" lon="6.20453">
        <ele>287.39999389648</ele>
        <time>2019-09-11T09:10:49Z</time>
      </trkpt>
      <trkpt lat="47.29611" lon="6.20446">
        <ele>287.39999389648</ele>
        <time>2019-09-11T09:10:56Z</time>
      </trkpt>
      <trkpt lat="47.29563" lon="6.20435">
        <ele>287.20001220703</ele>
        <time>2019-09-11T09:11:05Z</time>
      </trkpt>
      <trkpt lat="47.29525" lon="6.20424">
        <ele>286.79998779297</ele>
        <time>2019-09-11T09:11:12Z</time>
      </trkpt>
      <trkpt lat="47.29519" lon="6.20422">
        <ele>286.79998779297</ele>
        <time>2019-09-11T09:11:13Z</time>
      </trkpt>
      <trkpt lat="47.2948" lon="6.20409">
        <ele>286.60000610352</ele>
        <time>2019-09-11T09:11:20Z</time>
      </trkpt>
      <trkpt lat="47.29436" lon="6.20392">
        <ele>286.60000610352</ele>
        <time>2019-09-11T09:11:28Z</time>
      </trkpt>
      <trkpt lat="47.29381" lon="6.20369">
        <ele>286.39999389648</ele>
        <time>2019-09-11T09:11:38Z</time>
      </trkpt>
      <trkpt lat="47.29332" lon="6.20346">
        <ele>286.20001220703</ele>
        <time>2019-09-11T09:11:47Z</time>
      </trkpt>
      <trkpt lat="47.29285" lon="6.20319">
        <ele>286.20001220703</ele>
        <time>2019-09-11T09:11:56Z</time>
      </trkpt>
      <trkpt lat="47.29259" lon="6.20302">
        <ele>286.20001220703</ele>
        <time>2019-09-11T09:12:02Z</time>
      </trkpt>
      <trkpt lat="47.2925" lon="6.20299">
        <ele>286.20001220703</ele>
        <time>2019-09-11T09:12:05Z</time>
      </trkpt>
      <trkpt lat="47.29247" lon="6.20302">
        <ele>286.20001220703</ele>
        <time>2019-09-11T09:12:06Z</time>
      </trkpt>
      <trkpt lat="47.29244" lon="6.20316">
        <ele>286.79998779297</ele>
        <time>2019-09-11T09:12:09Z</time>
      </trkpt>
      <trkpt lat="47.29235" lon="6.20326">
        <ele>288</ele>
        <time>2019-09-11T09:12:12Z</time>
      </trkpt>
      <trkpt lat="47.2922" lon="6.2032">
        <ele>288.20001220703</ele>
        <time>2019-09-11T09:12:15Z</time>
      </trkpt>
      <trkpt lat="47.29215" lon="6.20316">
        <ele>288.20001220703</ele>
        <time>2019-09-11T09:12:16Z</time>
      </trkpt>
      <trkpt lat="47.29179" lon="6.20289">
        <ele>287.60000610352</ele>
        <time>2019-09-11T09:12:23Z</time>
      </trkpt>
      <trkpt lat="47.29165" lon="6.20279">
        <ele>287</ele>
        <time>2019-09-11T09:12:26Z</time>
      </trkpt>
      <trkpt lat="47.29146" lon="6.20266">
        <ele>286.39999389648</ele>
        <time>2019-09-11T09:12:30Z</time>
      </trkpt>
      <trkpt lat="47.29125" lon="6.20269">
        <ele>286.20001220703</ele>
        <time>2019-09-11T09:12:34Z</time>
      </trkpt>
      <trkpt lat="47.29115" lon="6.20269">
        <ele>286</ele>
        <time>2019-09-11T09:12:36Z</time>
      </trkpt>
      <trkpt lat="47.29088" lon="6.20267">
        <ele>285.60000610352</ele>
        <time>2019-09-11T09:12:41Z</time>
      </trkpt>
      <trkpt lat="47.29083" lon="6.20265">
        <ele>285.39999389648</ele>
        <time>2019-09-11T09:12:42Z</time>
      </trkpt>
      <trkpt lat="47.29075" lon="6.20257">
        <ele>285.20001220703</ele>
        <time>2019-09-11T09:12:44Z</time>
      </trkpt>
      <trkpt lat="47.2906" lon="6.20234">
        <ele>285</ele>
        <time>2019-09-11T09:12:48Z</time>
      </trkpt>
      <trkpt lat="47.29057" lon="6.20228">
        <ele>285</ele>
        <time>2019-09-11T09:12:49Z</time>
      </trkpt>
      <trkpt lat="47.2905" lon="6.20205">
        <ele>285</ele>
        <time>2019-09-11T09:12:52Z</time>
      </trkpt>
      <trkpt lat="47.29044" lon="6.20191">
        <ele>285</ele>
        <time>2019-09-11T09:12:54Z</time>
      </trkpt>
      <trkpt lat="47.29033" lon="6.20169">
        <ele>285</ele>
        <time>2019-09-11T09:12:57Z</time>
      </trkpt>
      <trkpt lat="47.29031" lon="6.20162">
        <ele>285</ele>
        <time>2019-09-11T09:12:58Z</time>
      </trkpt>
      <trkpt lat="47.29024" lon="6.20139">
        <ele>285.20001220703</ele>
        <time>2019-09-11T09:13:01Z</time>
      </trkpt>
      <trkpt lat="47.29015" lon="6.20119">
        <ele>285.20001220703</ele>
        <time>2019-09-11T09:13:04Z</time>
      </trkpt>
      <trkpt lat="47.29006" lon="6.20091">
        <ele>285.20001220703</ele>
        <time>2019-09-11T09:13:08Z</time>
      </trkpt>
      <trkpt lat="47.29007" lon="6.20084">
        <ele>285.39999389648</ele>
        <time>2019-09-11T09:13:09Z</time>
      </trkpt>
      <trkpt lat="47.29008" lon="6.20067">
        <ele>285.60000610352</ele>
        <time>2019-09-11T09:13:11Z</time>
      </trkpt>
      <trkpt lat="47.29005" lon="6.20052">
        <ele>285.79998779297</ele>
        <time>2019-09-11T09:13:13Z</time>
      </trkpt>
      <trkpt lat="47.28988" lon="6.20009">
        <ele>286</ele>
        <time>2019-09-11T09:13:19Z</time>
      </trkpt>
      <trkpt lat="47.28978" lon="6.19988">
        <ele>286</ele>
        <time>2019-09-11T09:13:22Z</time>
      </trkpt>
      <trkpt lat="47.28972" lon="6.19964">
        <ele>285.79998779297</ele>
        <time>2019-09-11T09:13:25Z</time>
      </trkpt>
      <trkpt lat="47.28957" lon="6.19904">
        <ele>285.79998779297</ele>
        <time>2019-09-11T09:13:33Z</time>
      </trkpt>
      <trkpt lat="47.28946" lon="6.19858">
        <ele>286</ele>
        <time>2019-09-11T09:13:39Z</time>
      </trkpt>
      <trkpt lat="47.28935" lon="6.19803">
        <ele>286</ele>
        <time>2019-09-11T09:13:46Z</time>
      </trkpt>
      <trkpt lat="47.28934" lon="6.19795">
        <ele>286</ele>
        <time>2019-09-11T09:13:47Z</time>
      </trkpt>
      <trkpt lat="47.2893" lon="6.19773">
        <ele>286</ele>
        <time>2019-09-11T09:13:50Z</time>
      </trkpt>
      <trkpt lat="47.28929" lon="6.19765">
        <ele>286</ele>
        <time>2019-09-11T09:13:51Z</time>
      </trkpt>
      <trkpt lat="47.28921" lon="6.19713">
        <ele>286</ele>
        <time>2019-09-11T09:13:57Z</time>
      </trkpt>
      <trkpt lat="47.28914" lon="6.19662">
        <ele>286.20001220703</ele>
        <time>2019-09-11T09:14:03Z</time>
      </trkpt>
      <trkpt lat="47.28908" lon="6.19611">
        <ele>286.20001220703</ele>
        <time>2019-09-11T09:14:09Z</time>
      </trkpt>
      <trkpt lat="47.28903" lon="6.19549">
        <ele>286.20001220703</ele>
        <time>2019-09-11T09:14:16Z</time>
      </trkpt>
      <trkpt lat="47.289" lon="6.19491">
        <ele>285.79998779297</ele>
        <time>2019-09-11T09:14:23Z</time>
      </trkpt>
      <trkpt lat="47.28894" lon="6.19439">
        <ele>285.79998779297</ele>
        <time>2019-09-11T09:14:29Z</time>
      </trkpt>
      <trkpt lat="47.28888" lon="6.19358">
        <ele>285.60000610352</ele>
        <time>2019-09-11T09:14:38Z</time>
      </trkpt>
      <trkpt lat="47.28887" lon="6.1935">
        <ele>285.60000610352</ele>
        <time>2019-09-11T09:14:39Z</time>
      </trkpt>
      <trkpt lat="47.28885" lon="6.1931">
        <ele>285.39999389648</ele>
        <time>2019-09-11T09:14:44Z</time>
      </trkpt>
      <trkpt lat="47.28882" lon="6.19261">
        <ele>285.39999389648</ele>
        <time>2019-09-11T09:14:50Z</time>
      </trkpt>
      <trkpt lat="47.28879" lon="6.19204">
        <ele>285.60000610352</ele>
        <time>2019-09-11T09:14:57Z</time>
      </trkpt>
      <trkpt lat="47.28878" lon="6.19136">
        <ele>285.39999389648</ele>
        <time>2019-09-11T09:15:05Z</time>
      </trkpt>
      <trkpt lat="47.28877" lon="6.19074">
        <ele>285.39999389648</ele>
        <time>2019-09-11T09:15:12Z</time>
      </trkpt>
      <trkpt lat="47.2888" lon="6.18998">
        <ele>285.60000610352</ele>
        <time>2019-09-11T09:15:21Z</time>
      </trkpt>
      <trkpt lat="47.28886" lon="6.18937">
        <ele>285.60000610352</ele>
        <time>2019-09-11T09:15:28Z</time>
      </trkpt>
      <trkpt lat="47.28896" lon="6.1887">
        <ele>285.60000610352</ele>
        <time>2019-09-11T09:15:36Z</time>
      </trkpt>
      <trkpt lat="47.2891" lon="6.18799">
        <ele>285.39999389648</ele>
        <time>2019-09-11T09:15:45Z</time>
      </trkpt>
      <trkpt lat="47.28925" lon="6.18731">
        <ele>285.39999389648</ele>
        <time>2019-09-11T09:15:54Z</time>
      </trkpt>
      <trkpt lat="47.28941" lon="6.18663">
        <ele>285.39999389648</ele>
        <time>2019-09-11T09:16:03Z</time>
      </trkpt>
      <trkpt lat="47.28956" lon="6.18605">
        <ele>285.39999389648</ele>
        <time>2019-09-11T09:16:11Z</time>
      </trkpt>
      <trkpt lat="47.28969" lon="6.18555">
        <ele>285.39999389648</ele>
        <time>2019-09-11T09:16:18Z</time>
      </trkpt>
      <trkpt lat="47.28985" lon="6.18499">
        <ele>285.39999389648</ele>
        <time>2019-09-11T09:16:25Z</time>
      </trkpt>
      <trkpt lat="47.29" lon="6.18446">
        <ele>285.39999389648</ele>
        <time>2019-09-11T09:16:32Z</time>
      </trkpt>
      <trkpt lat="47.29016" lon="6.18385">
        <ele>285.60000610352</ele>
        <time>2019-09-11T09:16:40Z</time>
      </trkpt>
      <trkpt lat="47.29031" lon="6.1833">
        <ele>285.60000610352</ele>
        <time>2019-09-11T09:16:47Z</time>
      </trkpt>
      <trkpt lat="47.29047" lon="6.18267">
        <ele>285.60000610352</ele>
        <time>2019-09-11T09:16:55Z</time>
      </trkpt>
      <trkpt lat="47.29061" lon="6.18206">
        <ele>285.60000610352</ele>
        <time>2019-09-11T09:17:03Z</time>
      </trkpt>
      <trkpt lat="47.29068" lon="6.18172">
        <ele>285.60000610352</ele>
        <time>2019-09-11T09:17:08Z</time>
      </trkpt>
      <trkpt lat="47.29075" lon="6.18124">
        <ele>285.20001220703</ele>
        <time>2019-09-11T09:17:14Z</time>
      </trkpt>
      <trkpt lat="47.29079" lon="6.18069">
        <ele>285.20001220703</ele>
        <time>2019-09-11T09:17:21Z</time>
      </trkpt>
      <trkpt lat="47.29079" lon="6.18013">
        <ele>285.20001220703</ele>
        <time>2019-09-11T09:17:28Z</time>
      </trkpt>
      <trkpt lat="47.29073" lon="6.17955">
        <ele>285.20001220703</ele>
        <time>2019-09-11T09:17:35Z</time>
      </trkpt>
      <trkpt lat="47.29065" lon="6.17898">
        <ele>285.39999389648</ele>
        <time>2019-09-11T09:17:42Z</time>
      </trkpt>
      <trkpt lat="47.29052" lon="6.17816">
        <ele>285.39999389648</ele>
        <time>2019-09-11T09:17:52Z</time>
      </trkpt>
      <trkpt lat="47.29041" lon="6.17744">
        <ele>285.39999389648</ele>
        <time>2019-09-11T09:18:01Z</time>
      </trkpt>
      <trkpt lat="47.2903" lon="6.17682">
        <ele>285.39999389648</ele>
        <time>2019-09-11T09:18:09Z</time>
      </trkpt>
      <trkpt lat="47.29023" lon="6.17652">
        <ele>285.39999389648</ele>
        <time>2019-09-11T09:18:13Z</time>
      </trkpt>
      <trkpt lat="47.29016" lon="6.17636">
        <ele>285.20001220703</ele>
        <time>2019-09-11T09:18:15Z</time>
      </trkpt>
      <trkpt lat="47.29" lon="6.17595">
        <ele>285.20001220703</ele>
        <time>2019-09-11T09:18:21Z</time>
      </trkpt>
      <trkpt lat="47.29002" lon="6.17578">
        <ele>285.20001220703</ele>
        <time>2019-09-11T09:18:24Z</time>
      </trkpt>
      <trkpt lat="47.2901" lon="6.17563">
        <ele>285</ele>
        <time>2019-09-11T09:18:28Z</time>
      </trkpt>
      <trkpt lat="47.29002" lon="6.1754">
        <ele>285</ele>
        <time>2019-09-11T09:18:31Z</time>
      </trkpt>
      <trkpt lat="47.28977" lon="6.17496">
        <ele>284</ele>
        <time>2019-09-11T09:18:37Z</time>
      </trkpt>
      <trkpt lat="47.28971" lon="6.17482">
        <ele>283</ele>
        <time>2019-09-11T09:18:39Z</time>
      </trkpt>
      <trkpt lat="47.28967" lon="6.17459">
        <ele>282.20001220703</ele>
        <time>2019-09-11T09:18:42Z</time>
      </trkpt>
      <trkpt lat="47.28967" lon="6.17452">
        <ele>282.20001220703</ele>
        <time>2019-09-11T09:18:43Z</time>
      </trkpt>
      <trkpt lat="47.28962" lon="6.17404">
        <ele>282</ele>
        <time>2019-09-11T09:18:49Z</time>
      </trkpt>
      <trkpt lat="47.28958" lon="6.1734">
        <ele>282</ele>
        <time>2019-09-11T09:18:57Z</time>
      </trkpt>
      <trkpt lat="47.28953" lon="6.17266">
        <ele>282</ele>
        <time>2019-09-11T09:19:06Z</time>
      </trkpt>
      <trkpt lat="47.2895" lon="6.17225">
        <ele>282</ele>
        <time>2019-09-11T09:19:11Z</time>
      </trkpt>
      <trkpt lat="47.28948" lon="6.17185">
        <ele>282</ele>
        <time>2019-09-11T09:19:16Z</time>
      </trkpt>
      <trkpt lat="47.28942" lon="6.17102">
        <ele>281.79998779297</ele>
        <time>2019-09-11T09:19:26Z</time>
      </trkpt>
      <trkpt lat="47.28935" lon="6.1702">
        <ele>281.60000610352</ele>
        <time>2019-09-11T09:19:36Z</time>
      </trkpt>
      <trkpt lat="47.28934" lon="6.17012">
        <ele>281.60000610352</ele>
        <time>2019-09-11T09:19:37Z</time>
      </trkpt>
      <trkpt lat="47.28929" lon="6.16949">
        <ele>281.60000610352</ele>
        <time>2019-09-11T09:19:45Z</time>
      </trkpt>
      <trkpt lat="47.28923" lon="6.1687">
        <ele>281.79998779297</ele>
        <time>2019-09-11T09:19:55Z</time>
      </trkpt>
      <trkpt lat="47.28918" lon="6.16805">
        <ele>281.79998779297</ele>
        <time>2019-09-11T09:20:03Z</time>
      </trkpt>
      <trkpt lat="47.28915" lon="6.16725">
        <ele>281.60000610352</ele>
        <time>2019-09-11T09:20:13Z</time>
      </trkpt>
      <trkpt lat="47.28912" lon="6.16651">
        <ele>281.79998779297</ele>
        <time>2019-09-11T09:20:22Z</time>
      </trkpt>
      <trkpt lat="47.28909" lon="6.16587">
        <ele>281.79998779297</ele>
        <time>2019-09-11T09:20:30Z</time>
      </trkpt>
      <trkpt lat="47.28903" lon="6.16505">
        <ele>281.60000610352</ele>
        <time>2019-09-11T09:20:40Z</time>
      </trkpt>
      <trkpt lat="47.28902" lon="6.16488">
        <ele>281.39999389648</ele>
        <time>2019-09-11T09:20:42Z</time>
      </trkpt>
      <trkpt lat="47.28896" lon="6.16417">
        <ele>281.20001220703</ele>
        <time>2019-09-11T09:20:51Z</time>
      </trkpt>
      <trkpt lat="47.28892" lon="6.16373">
        <ele>281.20001220703</ele>
        <time>2019-09-11T09:20:57Z</time>
      </trkpt>
      <trkpt lat="47.28889" lon="6.16349">
        <ele>281</ele>
        <time>2019-09-11T09:21:00Z</time>
      </trkpt>
      <trkpt lat="47.2888" lon="6.1627">
        <ele>281</ele>
        <time>2019-09-11T09:21:10Z</time>
      </trkpt>
      <trkpt lat="47.2887" lon="6.16191">
        <ele>280.79998779297</ele>
        <time>2019-09-11T09:21:20Z</time>
      </trkpt>
      <trkpt lat="47.28861" lon="6.16128">
        <ele>280.79998779297</ele>
        <time>2019-09-11T09:21:28Z</time>
      </trkpt>
      <trkpt lat="47.28855" lon="6.16072">
        <ele>281</ele>
        <time>2019-09-11T09:21:35Z</time>
      </trkpt>
      <trkpt lat="47.28854" lon="6.16056">
        <ele>281</ele>
        <time>2019-09-11T09:21:37Z</time>
      </trkpt>
      <trkpt lat="47.2885" lon="6.16025">
        <ele>281</ele>
        <time>2019-09-11T09:21:41Z</time>
      </trkpt>
      <trkpt lat="47.28844" lon="6.15969">
        <ele>281.20001220703</ele>
        <time>2019-09-11T09:21:48Z</time>
      </trkpt>
      <trkpt lat="47.28834" lon="6.15888">
        <ele>281.20001220703</ele>
        <time>2019-09-11T09:21:58Z</time>
      </trkpt>
      <trkpt lat="47.28825" lon="6.15815">
        <ele>281.20001220703</ele>
        <time>2019-09-11T09:22:07Z</time>
      </trkpt>
      <trkpt lat="47.28817" lon="6.15753">
        <ele>281.39999389648</ele>
        <time>2019-09-11T09:22:15Z</time>
      </trkpt>
      <trkpt lat="47.28804" lon="6.15681">
        <ele>281.60000610352</ele>
        <time>2019-09-11T09:22:24Z</time>
      </trkpt>
      <trkpt lat="47.28793" lon="6.15626">
        <ele>281.79998779297</ele>
        <time>2019-09-11T09:22:31Z</time>
      </trkpt>
      <trkpt lat="47.28775" lon="6.15545">
        <ele>281.79998779297</ele>
        <time>2019-09-11T09:22:41Z</time>
      </trkpt>
      <trkpt lat="47.28774" lon="6.15537">
        <ele>281.79998779297</ele>
        <time>2019-09-11T09:22:42Z</time>
      </trkpt>
      <trkpt lat="47.28759" lon="6.15466">
        <ele>281.79998779297</ele>
        <time>2019-09-11T09:22:51Z</time>
      </trkpt>
      <trkpt lat="47.28744" lon="6.15389">
        <ele>281.79998779297</ele>
        <time>2019-09-11T09:23:00Z</time>
      </trkpt>
      <trkpt lat="47.28742" lon="6.15381">
        <ele>281.60000610352</ele>
        <time>2019-09-11T09:23:01Z</time>
      </trkpt>
      <trkpt lat="47.28729" lon="6.15314">
        <ele>281.39999389648</ele>
        <time>2019-09-11T09:23:09Z</time>
      </trkpt>
      <trkpt lat="47.28713" lon="6.15234">
        <ele>281.39999389648</ele>
        <time>2019-09-11T09:23:19Z</time>
      </trkpt>
      <trkpt lat="47.28698" lon="6.15182">
        <ele>281.60000610352</ele>
        <time>2019-09-11T09:23:26Z</time>
      </trkpt>
      <trkpt lat="47.28683" lon="6.15136">
        <ele>281.60000610352</ele>
        <time>2019-09-11T09:23:33Z</time>
      </trkpt>
      <trkpt lat="47.28665" lon="6.15079">
        <ele>281.79998779297</ele>
        <time>2019-09-11T09:23:41Z</time>
      </trkpt>
      <trkpt lat="47.28646" lon="6.15021">
        <ele>281.60000610352</ele>
        <time>2019-09-11T09:23:49Z</time>
      </trkpt>
      <trkpt lat="47.28619" lon="6.1495">
        <ele>281.60000610352</ele>
        <time>2019-09-11T09:23:59Z</time>
      </trkpt>
      <trkpt lat="47.28592" lon="6.14891">
        <ele>281.39999389648</ele>
        <time>2019-09-11T09:24:08Z</time>
      </trkpt>
      <trkpt lat="47.28573" lon="6.14841">
        <ele>281.20001220703</ele>
        <time>2019-09-11T09:24:15Z</time>
      </trkpt>
      <trkpt lat="47.28552" lon="6.14783">
        <ele>280.79998779297</ele>
        <time>2019-09-11T09:24:23Z</time>
      </trkpt>
      <trkpt lat="47.28546" lon="6.1477">
        <ele>280.79998779297</ele>
        <time>2019-09-11T09:24:25Z</time>
      </trkpt>
      <trkpt lat="47.28537" lon="6.14743">
        <ele>280.60000610352</ele>
        <time>2019-09-11T09:24:29Z</time>
      </trkpt>
      <trkpt lat="47.28529" lon="6.14723">
        <ele>280.60000610352</ele>
        <time>2019-09-11T09:24:32Z</time>
      </trkpt>
      <trkpt lat="47.28523" lon="6.14702">
        <ele>280.60000610352</ele>
        <time>2019-09-11T09:24:35Z</time>
      </trkpt>
      <trkpt lat="47.28519" lon="6.14681">
        <ele>280.60000610352</ele>
        <time>2019-09-11T09:24:38Z</time>
      </trkpt>
      <trkpt lat="47.28517" lon="6.14668">
        <ele>280.79998779297</ele>
        <time>2019-09-11T09:24:40Z</time>
      </trkpt>
      <trkpt lat="47.28514" lon="6.14656">
        <ele>281</ele>
        <time>2019-09-11T09:24:42Z</time>
      </trkpt>
      <trkpt lat="47.28509" lon="6.14633">
        <ele>281.20001220703</ele>
        <time>2019-09-11T09:24:46Z</time>
      </trkpt>
      <trkpt lat="47.285" lon="6.14602">
        <ele>281.20001220703</ele>
        <time>2019-09-11T09:24:52Z</time>
      </trkpt>
      <trkpt lat="47.28495" lon="6.14567">
        <ele>281.20001220703</ele>
        <time>2019-09-11T09:24:57Z</time>
      </trkpt>
      <trkpt lat="47.28486" lon="6.14506">
        <ele>280.79998779297</ele>
        <time>2019-09-11T09:25:05Z</time>
      </trkpt>
      <trkpt lat="47.28481" lon="6.14461">
        <ele>280.79998779297</ele>
        <time>2019-09-11T09:25:11Z</time>
      </trkpt>
      <trkpt lat="47.28478" lon="6.14384">
        <ele>280.60000610352</ele>
        <time>2019-09-11T09:25:21Z</time>
      </trkpt>
      <trkpt lat="47.28475" lon="6.14324">
        <ele>280.79998779297</ele>
        <time>2019-09-11T09:25:29Z</time>
      </trkpt>
      <trkpt lat="47.2847" lon="6.14248">
        <ele>280.60000610352</ele>
        <time>2019-09-11T09:25:39Z</time>
      </trkpt>
      <trkpt lat="47.28465" lon="6.14188">
        <ele>280.60000610352</ele>
        <time>2019-09-11T09:25:47Z</time>
      </trkpt>
      <trkpt lat="47.28457" lon="6.14129">
        <ele>280.39999389648</ele>
        <time>2019-09-11T09:25:55Z</time>
      </trkpt>
      <trkpt lat="47.28455" lon="6.14069">
        <ele>280.39999389648</ele>
        <time>2019-09-11T09:26:03Z</time>
      </trkpt>
      <trkpt lat="47.28452" lon="6.14026">
        <ele>280.39999389648</ele>
        <time>2019-09-11T09:26:09Z</time>
      </trkpt>
      <trkpt lat="47.28446" lon="6.13985">
        <ele>280.39999389648</ele>
        <time>2019-09-11T09:26:15Z</time>
      </trkpt>
      <trkpt lat="47.28445" lon="6.13979">
        <ele>280.39999389648</ele>
        <time>2019-09-11T09:26:16Z</time>
      </trkpt>
      <trkpt lat="47.28438" lon="6.13943">
        <ele>280.60000610352</ele>
        <time>2019-09-11T09:26:22Z</time>
      </trkpt>
      <trkpt lat="47.28437" lon="6.13938">
        <ele>280.79998779297</ele>
        <time>2019-09-11T09:26:23Z</time>
      </trkpt>
      <trkpt lat="47.28426" lon="6.13911">
        <ele>281.60000610352</ele>
        <time>2019-09-11T09:26:28Z</time>
      </trkpt>
      <trkpt lat="47.28408" lon="6.1388">
        <ele>281.79998779297</ele>
        <time>2019-09-11T09:26:34Z</time>
      </trkpt>
      <trkpt lat="47.28384" lon="6.13844">
        <ele>281.79998779297</ele>
        <time>2019-09-11T09:26:41Z</time>
      </trkpt>
      <trkpt lat="47.28361" lon="6.13808">
        <ele>281.60000610352</ele>
        <time>2019-09-11T09:26:48Z</time>
      </trkpt>
      <trkpt lat="47.28333" lon="6.13762">
        <ele>281.60000610352</ele>
        <time>2019-09-11T09:26:57Z</time>
      </trkpt>
      <trkpt lat="47.28311" lon="6.13729">
        <ele>281.60000610352</ele>
        <time>2019-09-11T09:27:03Z</time>
      </trkpt>
      <trkpt lat="47.28288" lon="6.13696">
        <ele>281.60000610352</ele>
        <time>2019-09-11T09:27:10Z</time>
      </trkpt>
      <trkpt lat="47.28258" lon="6.1365">
        <ele>281.39999389648</ele>
        <time>2019-09-11T09:27:19Z</time>
      </trkpt>
      <trkpt lat="47.28232" lon="6.13606">
        <ele>281.39999389648</ele>
        <time>2019-09-11T09:27:27Z</time>
      </trkpt>
      <trkpt lat="47.28207" lon="6.13554">
        <ele>281.39999389648</ele>
        <time>2019-09-11T09:27:35Z</time>
      </trkpt>
      <trkpt lat="47.28191" lon="6.13512">
        <ele>281.39999389648</ele>
        <time>2019-09-11T09:27:41Z</time>
      </trkpt>
      <trkpt lat="47.28182" lon="6.13472">
        <ele>281.39999389648</ele>
        <time>2019-09-11T09:27:47Z</time>
      </trkpt>
      <trkpt lat="47.28179" lon="6.13461">
        <ele>281.39999389648</ele>
        <time>2019-09-11T09:27:49Z</time>
      </trkpt>
      <trkpt lat="47.28176" lon="6.13444">
        <ele>281.79998779297</ele>
        <time>2019-09-11T09:27:52Z</time>
      </trkpt>
      <trkpt lat="47.28174" lon="6.13431">
        <ele>281.79998779297</ele>
        <time>2019-09-11T09:27:54Z</time>
      </trkpt>
      <trkpt lat="47.28172" lon="6.13424">
        <ele>282</ele>
        <time>2019-09-11T09:27:55Z</time>
      </trkpt>
      <trkpt lat="47.28165" lon="6.13404">
        <ele>282</ele>
        <time>2019-09-11T09:27:58Z</time>
      </trkpt>
      <trkpt lat="47.28163" lon="6.13388">
        <ele>282</ele>
        <time>2019-09-11T09:28:00Z</time>
      </trkpt>
      <trkpt lat="47.28159" lon="6.13356">
        <ele>281.60000610352</ele>
        <time>2019-09-11T09:28:04Z</time>
      </trkpt>
      <trkpt lat="47.2815" lon="6.13301">
        <ele>281.20001220703</ele>
        <time>2019-09-11T09:28:11Z</time>
      </trkpt>
      <trkpt lat="47.28143" lon="6.13267">
        <ele>281</ele>
        <time>2019-09-11T09:28:17Z</time>
      </trkpt>
      <trkpt lat="47.28131" lon="6.13234">
        <ele>281</ele>
        <time>2019-09-11T09:28:24Z</time>
      </trkpt>
      <trkpt lat="47.28118" lon="6.132">
        <ele>280.79998779297</ele>
        <time>2019-09-11T09:28:30Z</time>
      </trkpt>
      <trkpt lat="47.28113" lon="6.13168">
        <ele>280.79998779297</ele>
        <time>2019-09-11T09:28:34Z</time>
      </trkpt>
      <trkpt lat="47.28112" lon="6.1315">
        <ele>280.79998779297</ele>
        <time>2019-09-11T09:28:36Z</time>
      </trkpt>
      <trkpt lat="47.28105" lon="6.13071">
        <ele>280.60000610352</ele>
        <time>2019-09-11T09:28:45Z</time>
      </trkpt>
      <trkpt lat="47.281" lon="6.12993">
        <ele>280.60000610352</ele>
        <time>2019-09-11T09:28:54Z</time>
      </trkpt>
      <trkpt lat="47.28096" lon="6.12917">
        <ele>280.60000610352</ele>
        <time>2019-09-11T09:29:03Z</time>
      </trkpt>
      <trkpt lat="47.28092" lon="6.12852">
        <ele>280.39999389648</ele>
        <time>2019-09-11T09:29:11Z</time>
      </trkpt>
      <trkpt lat="47.28085" lon="6.12775">
        <ele>280.39999389648</ele>
        <time>2019-09-11T09:29:21Z</time>
      </trkpt>
      <trkpt lat="47.28079" lon="6.12726">
        <ele>280.79998779297</ele>
        <time>2019-09-11T09:29:28Z</time>
      </trkpt>
      <trkpt lat="47.28077" lon="6.12713">
        <ele>280.79998779297</ele>
        <time>2019-09-11T09:29:30Z</time>
      </trkpt>
      <trkpt lat="47.28072" lon="6.12688">
        <ele>281.20001220703</ele>
        <time>2019-09-11T09:29:34Z</time>
      </trkpt>
      <trkpt lat="47.28063" lon="6.12649">
        <ele>281.20001220703</ele>
        <time>2019-09-11T09:29:40Z</time>
      </trkpt>
      <trkpt lat="47.28057" lon="6.12609">
        <ele>281.39999389648</ele>
        <time>2019-09-11T09:29:46Z</time>
      </trkpt>
      <trkpt lat="47.28041" lon="6.12559">
        <ele>281.20001220703</ele>
        <time>2019-09-11T09:29:53Z</time>
      </trkpt>
      <trkpt lat="47.2803" lon="6.12531">
        <ele>281.20001220703</ele>
        <time>2019-09-11T09:29:57Z</time>
      </trkpt>
      <trkpt lat="47.28021" lon="6.12512">
        <ele>281</ele>
        <time>2019-09-11T09:30:00Z</time>
      </trkpt>
      <trkpt lat="47.27997" lon="6.12459">
        <ele>280.39999389648</ele>
        <time>2019-09-11T09:30:08Z</time>
      </trkpt>
      <trkpt lat="47.27976" lon="6.12421">
        <ele>280.39999389648</ele>
        <time>2019-09-11T09:30:14Z</time>
      </trkpt>
      <trkpt lat="47.27947" lon="6.12373">
        <ele>280.39999389648</ele>
        <time>2019-09-11T09:30:22Z</time>
      </trkpt>
      <trkpt lat="47.27927" lon="6.12339">
        <ele>280.39999389648</ele>
        <time>2019-09-11T09:30:28Z</time>
      </trkpt>
      <trkpt lat="47.27906" lon="6.12303">
        <ele>280.39999389648</ele>
        <time>2019-09-11T09:30:34Z</time>
      </trkpt>
      <trkpt lat="47.27882" lon="6.12266">
        <ele>280.39999389648</ele>
        <time>2019-09-11T09:30:41Z</time>
      </trkpt>
      <trkpt lat="47.27849" lon="6.12221">
        <ele>280.60000610352</ele>
        <time>2019-09-11T09:30:49Z</time>
      </trkpt>
      <trkpt lat="47.27816" lon="6.12171">
        <ele>280.60000610352</ele>
        <time>2019-09-11T09:30:58Z</time>
      </trkpt>
      <trkpt lat="47.27784" lon="6.12139">
        <ele>280.60000610352</ele>
        <time>2019-09-11T09:31:05Z</time>
      </trkpt>
      <trkpt lat="47.27744" lon="6.12105">
        <ele>280.60000610352</ele>
        <time>2019-09-11T09:31:13Z</time>
      </trkpt>
      <trkpt lat="47.27716" lon="6.1208">
        <ele>280.39999389648</ele>
        <time>2019-09-11T09:31:19Z</time>
      </trkpt>
      <trkpt lat="47.27682" lon="6.12044">
        <ele>280</ele>
        <time>2019-09-11T09:31:26Z</time>
      </trkpt>
      <trkpt lat="47.27678" lon="6.12039">
        <ele>280</ele>
        <time>2019-09-11T09:31:27Z</time>
      </trkpt>
      <trkpt lat="47.27641" lon="6.11998">
        <ele>280</ele>
        <time>2019-09-11T09:31:35Z</time>
      </trkpt>
      <trkpt lat="47.27602" lon="6.11947">
        <ele>280</ele>
        <time>2019-09-11T09:31:44Z</time>
      </trkpt>
      <trkpt lat="47.27564" lon="6.11897">
        <ele>279.79998779297</ele>
        <time>2019-09-11T09:31:53Z</time>
      </trkpt>
      <trkpt lat="47.2753" lon="6.11855">
        <ele>279.60000610352</ele>
        <time>2019-09-11T09:32:01Z</time>
      </trkpt>
      <trkpt lat="47.27489" lon="6.1181">
        <ele>279.79998779297</ele>
        <time>2019-09-11T09:32:10Z</time>
      </trkpt>
      <trkpt lat="47.27447" lon="6.11767">
        <ele>279.60000610352</ele>
        <time>2019-09-11T09:32:19Z</time>
      </trkpt>
      <trkpt lat="47.27437" lon="6.11758">
        <ele>279.60000610352</ele>
        <time>2019-09-11T09:32:21Z</time>
      </trkpt>
      <trkpt lat="47.27422" lon="6.11753">
        <ele>279.60000610352</ele>
        <time>2019-09-11T09:32:24Z</time>
      </trkpt>
      <trkpt lat="47.27404" lon="6.11747">
        <ele>279.39999389648</ele>
        <time>2019-09-11T09:32:29Z</time>
      </trkpt>
      <trkpt lat="47.27403" lon="6.11747">
        <ele>279.39999389648</ele>
        <time>2019-09-11T09:32:32Z</time>
      </trkpt>
      <trkpt lat="47.27401" lon="6.11747">
        <ele>279.60000610352</ele>
        <time>2019-09-11T09:32:35Z</time>
      </trkpt>
      <trkpt lat="47.27393" lon="6.1174">
        <ele>279.79998779297</ele>
        <time>2019-09-11T09:32:39Z</time>
      </trkpt>
      <trkpt lat="47.27392" lon="6.11738">
        <ele>280</ele>
        <time>2019-09-11T09:32:40Z</time>
      </trkpt>
      <trkpt lat="47.27386" lon="6.11732">
        <ele>280</ele>
        <time>2019-09-11T09:32:42Z</time>
      </trkpt>
      <trkpt lat="47.27358" lon="6.11706">
        <ele>280.39999389648</ele>
        <time>2019-09-11T09:32:49Z</time>
      </trkpt>
      <trkpt lat="47.27336" lon="6.11677">
        <ele>280.60000610352</ele>
        <time>2019-09-11T09:32:55Z</time>
      </trkpt>
      <trkpt lat="47.27324" lon="6.11665">
        <ele>280.60000610352</ele>
        <time>2019-09-11T09:32:58Z</time>
      </trkpt>
      <trkpt lat="47.27314" lon="6.11652">
        <ele>280.60000610352</ele>
        <time>2019-09-11T09:33:01Z</time>
      </trkpt>
      <trkpt lat="47.27284" lon="6.1162">
        <ele>281.20001220703</ele>
        <time>2019-09-11T09:33:09Z</time>
      </trkpt>
      <trkpt lat="47.27272" lon="6.1161">
        <ele>281.39999389648</ele>
        <time>2019-09-11T09:33:12Z</time>
      </trkpt>
      <trkpt lat="47.27261" lon="6.11597">
        <ele>281.60000610352</ele>
        <time>2019-09-11T09:33:15Z</time>
      </trkpt>
      <trkpt lat="47.27231" lon="6.11568">
        <ele>281.60000610352</ele>
        <time>2019-09-11T09:33:21Z</time>
      </trkpt>
      <trkpt lat="47.27199" lon="6.11539">
        <ele>280.60000610352</ele>
        <time>2019-09-11T09:33:28Z</time>
      </trkpt>
      <trkpt lat="47.27162" lon="6.11502">
        <ele>280.39999389648</ele>
        <time>2019-09-11T09:33:37Z</time>
      </trkpt>
      <trkpt lat="47.27157" lon="6.11498">
        <ele>280.39999389648</ele>
        <time>2019-09-11T09:33:38Z</time>
      </trkpt>
      <trkpt lat="47.27125" lon="6.11463">
        <ele>280.39999389648</ele>
        <time>2019-09-11T09:33:46Z</time>
      </trkpt>
      <trkpt lat="47.2709" lon="6.11422">
        <ele>280.39999389648</ele>
        <time>2019-09-11T09:33:55Z</time>
      </trkpt>
      <trkpt lat="47.27063" lon="6.11379">
        <ele>280.39999389648</ele>
        <time>2019-09-11T09:34:03Z</time>
      </trkpt>
      <trkpt lat="47.27044" lon="6.11347">
        <ele>280.39999389648</ele>
        <time>2019-09-11T09:34:09Z</time>
      </trkpt>
      <trkpt lat="47.2704" lon="6.11342">
        <ele>280.39999389648</ele>
        <time>2019-09-11T09:34:10Z</time>
      </trkpt>
      <trkpt lat="47.27022" lon="6.11308">
        <ele>280.39999389648</ele>
        <time>2019-09-11T09:34:16Z</time>
      </trkpt>
      <trkpt lat="47.27002" lon="6.11263">
        <ele>280.39999389648</ele>
        <time>2019-09-11T09:34:23Z</time>
      </trkpt>
      <trkpt lat="47.26982" lon="6.11214">
        <ele>280.20001220703</ele>
        <time>2019-09-11T09:34:31Z</time>
      </trkpt>
      <trkpt lat="47.26962" lon="6.11157">
        <ele>280.20001220703</ele>
        <time>2019-09-11T09:34:40Z</time>
      </trkpt>
      <trkpt lat="47.26952" lon="6.11121">
        <ele>280.20001220703</ele>
        <time>2019-09-11T09:34:47Z</time>
      </trkpt>
      <trkpt lat="47.26947" lon="6.11097">
        <ele>280.20001220703</ele>
        <time>2019-09-11T09:34:51Z</time>
      </trkpt>
      <trkpt lat="47.26939" lon="6.11071">
        <ele>280</ele>
        <time>2019-09-11T09:34:55Z</time>
      </trkpt>
      <trkpt lat="47.26927" lon="6.11007">
        <ele>279.79998779297</ele>
        <time>2019-09-11T09:35:04Z</time>
      </trkpt>
      <trkpt lat="47.26921" lon="6.10963">
        <ele>279.60000610352</ele>
        <time>2019-09-11T09:35:10Z</time>
      </trkpt>
      <trkpt lat="47.26918" lon="6.10949">
        <ele>279.60000610352</ele>
        <time>2019-09-11T09:35:12Z</time>
      </trkpt>
      <trkpt lat="47.26911" lon="6.10884">
        <ele>279.60000610352</ele>
        <time>2019-09-11T09:35:21Z</time>
      </trkpt>
      <trkpt lat="47.26907" lon="6.10836">
        <ele>279.79998779297</ele>
        <time>2019-09-11T09:35:28Z</time>
      </trkpt>
      <trkpt lat="47.26902" lon="6.10779">
        <ele>279.79998779297</ele>
        <time>2019-09-11T09:35:36Z</time>
      </trkpt>
      <trkpt lat="47.269" lon="6.10723">
        <ele>279.79998779297</ele>
        <time>2019-09-11T09:35:44Z</time>
      </trkpt>
      <trkpt lat="47.269" lon="6.10686">
        <ele>279.60000610352</ele>
        <time>2019-09-11T09:35:49Z</time>
      </trkpt>
      <trkpt lat="47.269" lon="6.10672">
        <ele>279.60000610352</ele>
        <time>2019-09-11T09:35:51Z</time>
      </trkpt>
      <trkpt lat="47.269" lon="6.10613">
        <ele>279.79998779297</ele>
        <time>2019-09-11T09:35:59Z</time>
      </trkpt>
      <trkpt lat="47.26902" lon="6.10559">
        <ele>279.79998779297</ele>
        <time>2019-09-11T09:36:06Z</time>
      </trkpt>
      <trkpt lat="47.26907" lon="6.10493">
        <ele>279.79998779297</ele>
        <time>2019-09-11T09:36:15Z</time>
      </trkpt>
      <trkpt lat="47.26913" lon="6.10435">
        <ele>279.60000610352</ele>
        <time>2019-09-11T09:36:23Z</time>
      </trkpt>
      <trkpt lat="47.26923" lon="6.10366">
        <ele>279.39999389648</ele>
        <time>2019-09-11T09:36:32Z</time>
      </trkpt>
      <trkpt lat="47.26933" lon="6.10305">
        <ele>279.39999389648</ele>
        <time>2019-09-11T09:36:40Z</time>
      </trkpt>
      <trkpt lat="47.26943" lon="6.10253">
        <ele>279.39999389648</ele>
        <time>2019-09-11T09:36:47Z</time>
      </trkpt>
      <trkpt lat="47.26955" lon="6.10186">
        <ele>279.79998779297</ele>
        <time>2019-09-11T09:36:56Z</time>
      </trkpt>
      <trkpt lat="47.26969" lon="6.10108">
        <ele>279.79998779297</ele>
        <time>2019-09-11T09:37:06Z</time>
      </trkpt>
      <trkpt lat="47.2698" lon="6.10037">
        <ele>279.60000610352</ele>
        <time>2019-09-11T09:37:15Z</time>
      </trkpt>
      <trkpt lat="47.26983" lon="6.10023">
        <ele>279.60000610352</ele>
        <time>2019-09-11T09:37:17Z</time>
      </trkpt>
      <trkpt lat="47.26986" lon="6.09996">
        <ele>279.60000610352</ele>
        <time>2019-09-11T09:37:21Z</time>
      </trkpt>
      <trkpt lat="47.2699" lon="6.09948">
        <ele>279.60000610352</ele>
        <time>2019-09-11T09:37:28Z</time>
      </trkpt>
      <trkpt lat="47.26992" lon="6.09901">
        <ele>279.39999389648</ele>
        <time>2019-09-11T09:37:34Z</time>
      </trkpt>
      <trkpt lat="47.26992" lon="6.09854">
        <ele>279.39999389648</ele>
        <time>2019-09-11T09:37:40Z</time>
      </trkpt>
      <trkpt lat="47.26992" lon="6.09846">
        <ele>279.39999389648</ele>
        <time>2019-09-11T09:37:41Z</time>
      </trkpt>
      <trkpt lat="47.26991" lon="6.0983">
        <ele>279.39999389648</ele>
        <time>2019-09-11T09:37:43Z</time>
      </trkpt>
      <trkpt lat="47.26987" lon="6.09792">
        <ele>279.39999389648</ele>
        <time>2019-09-11T09:37:48Z</time>
      </trkpt>
      <trkpt lat="47.26984" lon="6.09733">
        <ele>279.39999389648</ele>
        <time>2019-09-11T09:37:55Z</time>
      </trkpt>
      <trkpt lat="47.26981" lon="6.09686">
        <ele>279.39999389648</ele>
        <time>2019-09-11T09:38:01Z</time>
      </trkpt>
      <trkpt lat="47.26978" lon="6.09632">
        <ele>279.20001220703</ele>
        <time>2019-09-11T09:38:08Z</time>
      </trkpt>
      <trkpt lat="47.26978" lon="6.09582">
        <ele>279.20001220703</ele>
        <time>2019-09-11T09:38:14Z</time>
      </trkpt>
      <trkpt lat="47.2698" lon="6.09531">
        <ele>279.20001220703</ele>
        <time>2019-09-11T09:38:21Z</time>
      </trkpt>
      <trkpt lat="47.26982" lon="6.09479">
        <ele>279.20001220703</ele>
        <time>2019-09-11T09:38:28Z</time>
      </trkpt>
      <trkpt lat="47.26989" lon="6.09402">
        <ele>279.20001220703</ele>
        <time>2019-09-11T09:38:37Z</time>
      </trkpt>
      <trkpt lat="47.26997" lon="6.09347">
        <ele>279</ele>
        <time>2019-09-11T09:38:44Z</time>
      </trkpt>
      <trkpt lat="47.26999" lon="6.09332">
        <ele>279</ele>
        <time>2019-09-11T09:38:46Z</time>
      </trkpt>
      <trkpt lat="47.27003" lon="6.09301">
        <ele>278.79998779297</ele>
        <time>2019-09-11T09:38:50Z</time>
      </trkpt>
      <trkpt lat="47.27013" lon="6.09234">
        <ele>278.79998779297</ele>
        <time>2019-09-11T09:38:58Z</time>
      </trkpt>
      <trkpt lat="47.27026" lon="6.09152">
        <ele>278.79998779297</ele>
        <time>2019-09-11T09:39:08Z</time>
      </trkpt>
      <trkpt lat="47.27038" lon="6.09077">
        <ele>279.20001220703</ele>
        <time>2019-09-11T09:39:17Z</time>
      </trkpt>
      <trkpt lat="47.27047" lon="6.0901">
        <ele>279</ele>
        <time>2019-09-11T09:39:25Z</time>
      </trkpt>
      <trkpt lat="47.27058" lon="6.08937">
        <ele>278.79998779297</ele>
        <time>2019-09-11T09:39:34Z</time>
      </trkpt>
      <trkpt lat="47.27065" lon="6.08896">
        <ele>278.79998779297</ele>
        <time>2019-09-11T09:39:40Z</time>
      </trkpt>
      <trkpt lat="47.27072" lon="6.08854">
        <ele>279</ele>
        <time>2019-09-11T09:39:46Z</time>
      </trkpt>
      <trkpt lat="47.27078" lon="6.08804">
        <ele>279.20001220703</ele>
        <time>2019-09-11T09:39:53Z</time>
      </trkpt>
      <trkpt lat="47.27087" lon="6.08747">
        <ele>279.20001220703</ele>
        <time>2019-09-11T09:40:01Z</time>
      </trkpt>
      <trkpt lat="47.27091" lon="6.08704">
        <ele>279.20001220703</ele>
        <time>2019-09-11T09:40:07Z</time>
      </trkpt>
      <trkpt lat="47.27093" lon="6.08652">
        <ele>279.20001220703</ele>
        <time>2019-09-11T09:40:14Z</time>
      </trkpt>
      <trkpt lat="47.27093" lon="6.08602">
        <ele>279</ele>
        <time>2019-09-11T09:40:21Z</time>
      </trkpt>
      <trkpt lat="47.27091" lon="6.08553">
        <ele>279.20001220703</ele>
        <time>2019-09-11T09:40:28Z</time>
      </trkpt>
      <trkpt lat="47.27088" lon="6.08528">
        <ele>279.20001220703</ele>
        <time>2019-09-11T09:40:32Z</time>
      </trkpt>
      <trkpt lat="47.27087" lon="6.08515">
        <ele>279</ele>
        <time>2019-09-11T09:40:34Z</time>
      </trkpt>
      <trkpt lat="47.27086" lon="6.08486">
        <ele>279.20001220703</ele>
        <time>2019-09-11T09:40:40Z</time>
      </trkpt>
      <trkpt lat="47.27086" lon="6.08484">
        <ele>279.20001220703</ele>
        <time>2019-09-11T09:40:41Z</time>
      </trkpt>
      <trkpt lat="47.27085" lon="6.0848">
        <ele>279.20001220703</ele>
        <time>2019-09-11T09:40:43Z</time>
      </trkpt>
      <trkpt lat="47.27084" lon="6.08477">
        <ele>279.20001220703</ele>
        <time>2019-09-11T09:40:44Z</time>
      </trkpt>
      <trkpt lat="47.27075" lon="6.08478">
        <ele>279.20001220703</ele>
        <time>2019-09-11T09:40:47Z</time>
      </trkpt>
      <trkpt lat="47.27053" lon="6.0848">
        <ele>279.60000610352</ele>
        <time>2019-09-11T09:40:53Z</time>
      </trkpt>
      <trkpt lat="47.27026" lon="6.08488">
        <ele>280.39999389648</ele>
        <time>2019-09-11T09:41:00Z</time>
      </trkpt>
      <trkpt lat="47.27008" lon="6.08493">
        <ele>281.20001220703</ele>
        <time>2019-09-11T09:41:05Z</time>
      </trkpt>
      <trkpt lat="47.26996" lon="6.08496">
        <ele>281.60000610352</ele>
        <time>2019-09-11T09:41:08Z</time>
      </trkpt>
      <trkpt lat="47.26962" lon="6.08504">
        <ele>282</ele>
        <time>2019-09-11T09:41:16Z</time>
      </trkpt>
      <trkpt lat="47.26935" lon="6.0851">
        <ele>282</ele>
        <time>2019-09-11T09:41:22Z</time>
      </trkpt>
      <trkpt lat="47.26926" lon="6.08511">
        <ele>282</ele>
        <time>2019-09-11T09:41:24Z</time>
      </trkpt>
      <trkpt lat="47.26891" lon="6.08523">
        <ele>281.60000610352</ele>
        <time>2019-09-11T09:41:31Z</time>
      </trkpt>
      <trkpt lat="47.26878" lon="6.08532">
        <ele>280.79998779297</ele>
        <time>2019-09-11T09:41:34Z</time>
      </trkpt>
      <trkpt lat="47.26865" lon="6.08545">
        <ele>280.60000610352</ele>
        <time>2019-09-11T09:41:37Z</time>
      </trkpt>
      <trkpt lat="47.26854" lon="6.08562">
        <ele>280.39999389648</ele>
        <time>2019-09-11T09:41:40Z</time>
      </trkpt>
      <trkpt lat="47.26848" lon="6.08575">
        <ele>280.20001220703</ele>
        <time>2019-09-11T09:41:42Z</time>
      </trkpt>
      <trkpt lat="47.26845" lon="6.08582">
        <ele>280.20001220703</ele>
        <time>2019-09-11T09:41:43Z</time>
      </trkpt>
      <trkpt lat="47.26835" lon="6.08621">
        <ele>279.60000610352</ele>
        <time>2019-09-11T09:41:48Z</time>
      </trkpt>
      <trkpt lat="47.26833" lon="6.08637">
        <ele>279.39999389648</ele>
        <time>2019-09-11T09:41:50Z</time>
      </trkpt>
      <trkpt lat="47.26833" lon="6.08667">
        <ele>278.60000610352</ele>
        <time>2019-09-11T09:41:54Z</time>
      </trkpt>
      <trkpt lat="47.26834" lon="6.08689">
        <ele>278.20001220703</ele>
        <time>2019-09-11T09:41:57Z</time>
      </trkpt>
      <trkpt lat="47.26837" lon="6.08721">
        <ele>278</ele>
        <time>2019-09-11T09:42:02Z</time>
      </trkpt>
      <trkpt lat="47.26841" lon="6.08771">
        <ele>277.79998779297</ele>
        <time>2019-09-11T09:42:10Z</time>
      </trkpt>
      <trkpt lat="47.26841" lon="6.08777">
        <ele>277.79998779297</ele>
        <time>2019-09-11T09:42:11Z</time>
      </trkpt>
      <trkpt lat="47.26833" lon="6.08792">
        <ele>277.79998779297</ele>
        <time>2019-09-11T09:42:14Z</time>
      </trkpt>
      <trkpt lat="47.26829" lon="6.08794">
        <ele>277.79998779297</ele>
        <time>2019-09-11T09:42:15Z</time>
      </trkpt>
      <trkpt lat="47.26799" lon="6.08819">
        <ele>277.79998779297</ele>
        <time>2019-09-11T09:42:23Z</time>
      </trkpt>
      <trkpt lat="47.26772" lon="6.08848">
        <ele>277.79998779297</ele>
        <time>2019-09-11T09:42:31Z</time>
      </trkpt>
      <trkpt lat="47.26753" lon="6.08868">
        <ele>278</ele>
        <time>2019-09-11T09:42:37Z</time>
      </trkpt>
      <trkpt lat="47.26732" lon="6.08883">
        <ele>278</ele>
        <time>2019-09-11T09:42:43Z</time>
      </trkpt>
      <trkpt lat="47.26715" lon="6.0888">
        <ele>278.60000610352</ele>
        <time>2019-09-11T09:42:48Z</time>
      </trkpt>
      <trkpt lat="47.26695" lon="6.08875">
        <ele>279.20001220703</ele>
        <time>2019-09-11T09:42:53Z</time>
      </trkpt>
      <trkpt lat="47.26683" lon="6.0887">
        <ele>280</ele>
        <time>2019-09-11T09:42:56Z</time>
      </trkpt>
      <trkpt lat="47.26657" lon="6.08855">
        <ele>280</ele>
        <time>2019-09-11T09:43:02Z</time>
      </trkpt>
      <trkpt lat="47.2663" lon="6.08851">
        <ele>279.79998779297</ele>
        <time>2019-09-11T09:43:07Z</time>
      </trkpt>
      <trkpt lat="47.26625" lon="6.08851">
        <ele>279.79998779297</ele>
        <time>2019-09-11T09:43:08Z</time>
      </trkpt>
      <trkpt lat="47.26603" lon="6.08846">
        <ele>279</ele>
        <time>2019-09-11T09:43:12Z</time>
      </trkpt>
      <trkpt lat="47.26593" lon="6.08842">
        <ele>278.79998779297</ele>
        <time>2019-09-11T09:43:14Z</time>
      </trkpt>
      <trkpt lat="47.26558" lon="6.08825">
        <ele>278.20001220703</ele>
        <time>2019-09-11T09:43:21Z</time>
      </trkpt>
      <trkpt lat="47.26553" lon="6.08822">
        <ele>278.20001220703</ele>
        <time>2019-09-11T09:43:22Z</time>
      </trkpt>
      <trkpt lat="47.2651" lon="6.08797">
        <ele>277.79998779297</ele>
        <time>2019-09-11T09:43:30Z</time>
      </trkpt>
      <trkpt lat="47.26494" lon="6.08787">
        <ele>277.39999389648</ele>
        <time>2019-09-11T09:43:33Z</time>
      </trkpt>
      <trkpt lat="47.26467" lon="6.08769">
        <ele>277.20001220703</ele>
        <time>2019-09-11T09:43:38Z</time>
      </trkpt>
      <trkpt lat="47.26417" lon="6.08745">
        <ele>277</ele>
        <time>2019-09-11T09:43:47Z</time>
      </trkpt>
      <trkpt lat="47.2636" lon="6.08724">
        <ele>276.79998779297</ele>
        <time>2019-09-11T09:43:57Z</time>
      </trkpt>
      <trkpt lat="47.26304" lon="6.08698">
        <ele>276.60000610352</ele>
        <time>2019-09-11T09:44:07Z</time>
      </trkpt>
      <trkpt lat="47.2625" lon="6.08671">
        <ele>276.79998779297</ele>
        <time>2019-09-11T09:44:17Z</time>
      </trkpt>
      <trkpt lat="47.26208" lon="6.08644">
        <ele>276.60000610352</ele>
        <time>2019-09-11T09:44:25Z</time>
      </trkpt>
      <trkpt lat="47.26164" lon="6.0861">
        <ele>276.60000610352</ele>
        <time>2019-09-11T09:44:34Z</time>
      </trkpt>
      <trkpt lat="47.26126" lon="6.08579">
        <ele>276.60000610352</ele>
        <time>2019-09-11T09:44:42Z</time>
      </trkpt>
      <trkpt lat="47.26089" lon="6.08552">
        <ele>276.60000610352</ele>
        <time>2019-09-11T09:44:50Z</time>
      </trkpt>
      <trkpt lat="47.26059" lon="6.08532">
        <ele>276.79998779297</ele>
        <time>2019-09-11T09:44:56Z</time>
      </trkpt>
      <trkpt lat="47.26016" lon="6.08506">
        <ele>276.79998779297</ele>
        <time>2019-09-11T09:45:04Z</time>
      </trkpt>
      <trkpt lat="47.25986" lon="6.08481">
        <ele>276.79998779297</ele>
        <time>2019-09-11T09:45:10Z</time>
      </trkpt>
      <trkpt lat="47.2596" lon="6.08464">
        <ele>277</ele>
        <time>2019-09-11T09:45:16Z</time>
      </trkpt>
      <trkpt lat="47.25926" lon="6.0845">
        <ele>277</ele>
        <time>2019-09-11T09:45:23Z</time>
      </trkpt>
      <trkpt lat="47.25874" lon="6.08426">
        <ele>276.79998779297</ele>
        <time>2019-09-11T09:45:34Z</time>
      </trkpt>
      <trkpt lat="47.25824" lon="6.08391">
        <ele>276.79998779297</ele>
        <time>2019-09-11T09:45:45Z</time>
      </trkpt>
      <trkpt lat="47.25776" lon="6.08359">
        <ele>277.39999389648</ele>
        <time>2019-09-11T09:45:56Z</time>
      </trkpt>
      <trkpt lat="47.25736" lon="6.08335">
        <ele>278.20001220703</ele>
        <time>2019-09-11T09:46:05Z</time>
      </trkpt>
      <trkpt lat="47.2569" lon="6.08307">
        <ele>278.39999389648</ele>
        <time>2019-09-11T09:46:15Z</time>
      </trkpt>
      <trkpt lat="47.25647" lon="6.08281">
        <ele>278</ele>
        <time>2019-09-11T09:46:24Z</time>
      </trkpt>
      <trkpt lat="47.25611" lon="6.08259">
        <ele>277.39999389648</ele>
        <time>2019-09-11T09:46:32Z</time>
      </trkpt>
      <trkpt lat="47.25602" lon="6.08254">
        <ele>277.39999389648</ele>
        <time>2019-09-11T09:46:34Z</time>
      </trkpt>
      <trkpt lat="47.25565" lon="6.08232">
        <ele>277.39999389648</ele>
        <time>2019-09-11T09:46:42Z</time>
      </trkpt>
      <trkpt lat="47.25513" lon="6.08202">
        <ele>277.20001220703</ele>
        <time>2019-09-11T09:46:53Z</time>
      </trkpt>
      <trkpt lat="47.25509" lon="6.08199">
        <ele>277.20001220703</ele>
        <time>2019-09-11T09:46:54Z</time>
      </trkpt>
      <trkpt lat="47.25472" lon="6.08175">
        <ele>277</ele>
        <time>2019-09-11T09:47:02Z</time>
      </trkpt>
      <trkpt lat="47.25434" lon="6.08143">
        <ele>277</ele>
        <time>2019-09-11T09:47:11Z</time>
      </trkpt>
      <trkpt lat="47.25401" lon="6.0812">
        <ele>277</ele>
        <time>2019-09-11T09:47:19Z</time>
      </trkpt>
      <trkpt lat="47.25397" lon="6.08116">
        <ele>277</ele>
        <time>2019-09-11T09:47:20Z</time>
      </trkpt>
      <trkpt lat="47.2538" lon="6.08095">
        <ele>277</ele>
        <time>2019-09-11T09:47:24Z</time>
      </trkpt>
      <trkpt lat="47.25357" lon="6.08069">
        <ele>276.79998779297</ele>
        <time>2019-09-11T09:47:30Z</time>
      </trkpt>
      <trkpt lat="47.25349" lon="6.08061">
        <ele>276.60000610352</ele>
        <time>2019-09-11T09:47:32Z</time>
      </trkpt>
      <trkpt lat="47.25327" lon="6.08037">
        <ele>276.60000610352</ele>
        <time>2019-09-11T09:47:38Z</time>
      </trkpt>
      <trkpt lat="47.25309" lon="6.0802">
        <ele>276.60000610352</ele>
        <time>2019-09-11T09:47:44Z</time>
      </trkpt>
      <trkpt lat="47.253" lon="6.0801">
        <ele>276.60000610352</ele>
        <time>2019-09-11T09:47:49Z</time>
      </trkpt>
      <trkpt lat="47.253" lon="6.0801">
        <ele>276.79998779297</ele>
        <time>2019-09-11T09:47:50Z</time>
      </trkpt>
      <trkpt lat="47.25303" lon="6.08011">
        <ele>276.79998779297</ele>
        <time>2019-09-11T09:47:55Z</time>
      </trkpt>
      <trkpt lat="47.25303" lon="6.08012">
        <ele>276.79998779297</ele>
        <time>2019-09-11T09:47:58Z</time>
      </trkpt>
      <trkpt lat="47.25303" lon="6.08014">
        <ele>276.60000610352</ele>
        <time>2019-09-11T09:50:59Z</time>
      </trkpt>
      <trkpt lat="47.25301" lon="6.08014">
        <ele>276.39999389648</ele>
        <time>2019-09-11T09:51:03Z</time>
      </trkpt>
      <trkpt lat="47.253" lon="6.08009">
        <ele>276.60000610352</ele>
        <time>2019-09-11T09:51:38Z</time>
      </trkpt>
      <trkpt lat="47.25292" lon="6.07993">
        <ele>276.60000610352</ele>
        <time>2019-09-11T09:51:42Z</time>
      </trkpt>
      <trkpt lat="47.25274" lon="6.07944">
        <ele>276.60000610352</ele>
        <time>2019-09-11T09:51:50Z</time>
      </trkpt>
      <trkpt lat="47.25263" lon="6.07895">
        <ele>276.79998779297</ele>
        <time>2019-09-11T09:51:57Z</time>
      </trkpt>
      <trkpt lat="47.25255" lon="6.07852">
        <ele>276.79998779297</ele>
        <time>2019-09-11T09:52:03Z</time>
      </trkpt>
      <trkpt lat="47.25242" lon="6.07786">
        <ele>276.60000610352</ele>
        <time>2019-09-11T09:52:11Z</time>
      </trkpt>
      <trkpt lat="47.25225" lon="6.07731">
        <ele>276.39999389648</ele>
        <time>2019-09-11T09:52:18Z</time>
      </trkpt>
      <trkpt lat="47.25207" lon="6.07681">
        <ele>276.20001220703</ele>
        <time>2019-09-11T09:52:25Z</time>
      </trkpt>
      <trkpt lat="47.25184" lon="6.0763">
        <ele>276.60000610352</ele>
        <time>2019-09-11T09:52:33Z</time>
      </trkpt>
      <trkpt lat="47.25156" lon="6.07587">
        <ele>276.60000610352</ele>
        <time>2019-09-11T09:52:40Z</time>
      </trkpt>
      <trkpt lat="47.25117" lon="6.07534">
        <ele>276</ele>
        <time>2019-09-11T09:52:49Z</time>
      </trkpt>
      <trkpt lat="47.25089" lon="6.07503">
        <ele>275.79998779297</ele>
        <time>2019-09-11T09:52:55Z</time>
      </trkpt>
      <trkpt lat="47.25084" lon="6.07498">
        <ele>275.60000610352</ele>
        <time>2019-09-11T09:52:56Z</time>
      </trkpt>
      <trkpt lat="47.25038" lon="6.07452">
        <ele>275.20001220703</ele>
        <time>2019-09-11T09:53:06Z</time>
      </trkpt>
      <trkpt lat="47.25008" lon="6.07429">
        <ele>275.20001220703</ele>
        <time>2019-09-11T09:53:13Z</time>
      </trkpt>
      <trkpt lat="47.25004" lon="6.07426">
        <ele>275.20001220703</ele>
        <time>2019-09-11T09:53:14Z</time>
      </trkpt>
      <trkpt lat="47.24984" lon="6.07408">
        <ele>275.39999389648</ele>
        <time>2019-09-11T09:53:19Z</time>
      </trkpt>
      <trkpt lat="47.24948" lon="6.07377">
        <ele>275.39999389648</ele>
        <time>2019-09-11T09:53:27Z</time>
      </trkpt>
      <trkpt lat="47.24914" lon="6.07351">
        <ele>275.20001220703</ele>
        <time>2019-09-11T09:53:34Z</time>
      </trkpt>
      <trkpt lat="47.24873" lon="6.07316">
        <ele>275.20001220703</ele>
        <time>2019-09-11T09:53:43Z</time>
      </trkpt>
      <trkpt lat="47.24842" lon="6.07279">
        <ele>275.39999389648</ele>
        <time>2019-09-11T09:53:51Z</time>
      </trkpt>
      <trkpt lat="47.2481" lon="6.07233">
        <ele>275.60000610352</ele>
        <time>2019-09-11T09:54:00Z</time>
      </trkpt>
      <trkpt lat="47.24792" lon="6.07207">
        <ele>275.79998779297</ele>
        <time>2019-09-11T09:54:05Z</time>
      </trkpt>
      <trkpt lat="47.24779" lon="6.07184">
        <ele>275.79998779297</ele>
        <time>2019-09-11T09:54:09Z</time>
      </trkpt>
      <trkpt lat="47.24747" lon="6.0713">
        <ele>276</ele>
        <time>2019-09-11T09:54:19Z</time>
      </trkpt>
      <trkpt lat="47.24712" lon="6.07075">
        <ele>276.39999389648</ele>
        <time>2019-09-11T09:54:29Z</time>
      </trkpt>
      <trkpt lat="47.24681" lon="6.07028">
        <ele>276.39999389648</ele>
        <time>2019-09-11T09:54:38Z</time>
      </trkpt>
      <trkpt lat="47.24643" lon="6.06978">
        <ele>276.39999389648</ele>
        <time>2019-09-11T09:54:48Z</time>
      </trkpt>
      <trkpt lat="47.24613" lon="6.06934">
        <ele>276.60000610352</ele>
        <time>2019-09-11T09:54:57Z</time>
      </trkpt>
      <trkpt lat="47.24605" lon="6.06924">
        <ele>276.60000610352</ele>
        <time>2019-09-11T09:55:01Z</time>
      </trkpt>
      <trkpt lat="47.24606" lon="6.06926">
        <ele>276.79998779297</ele>
        <time>2019-09-11T09:55:07Z</time>
      </trkpt>
      <trkpt lat="47.24603" lon="6.06925">
        <ele>276.79998779297</ele>
        <time>2019-09-11T09:56:08Z</time>
      </trkpt>
      <trkpt lat="47.24602" lon="6.06923">
        <ele>276.79998779297</ele>
        <time>2019-09-11T09:56:09Z</time>
      </trkpt>
      <trkpt lat="47.24591" lon="6.06907">
        <ele>276.79998779297</ele>
        <time>2019-09-11T09:56:14Z</time>
      </trkpt>
      <trkpt lat="47.24568" lon="6.06884">
        <ele>276.79998779297</ele>
        <time>2019-09-11T09:56:20Z</time>
      </trkpt>
      <trkpt lat="47.24548" lon="6.06867">
        <ele>277</ele>
        <time>2019-09-11T09:56:25Z</time>
      </trkpt>
      <trkpt lat="47.24538" lon="6.0686">
        <ele>277</ele>
        <time>2019-09-11T09:56:27Z</time>
      </trkpt>
      <trkpt lat="47.245" lon="6.06836">
        <ele>277.20001220703</ele>
        <time>2019-09-11T09:56:35Z</time>
      </trkpt>
      <trkpt lat="47.24465" lon="6.06818">
        <ele>277.20001220703</ele>
        <time>2019-09-11T09:56:42Z</time>
      </trkpt>
      <trkpt lat="47.24421" lon="6.06801">
        <ele>277.20001220703</ele>
        <time>2019-09-11T09:56:50Z</time>
      </trkpt>
      <trkpt lat="47.24382" lon="6.06785">
        <ele>277.20001220703</ele>
        <time>2019-09-11T09:56:57Z</time>
      </trkpt>
      <trkpt lat="47.24327" lon="6.06764">
        <ele>277</ele>
        <time>2019-09-11T09:57:07Z</time>
      </trkpt>
      <trkpt lat="47.24305" lon="6.06757">
        <ele>277</ele>
        <time>2019-09-11T09:57:11Z</time>
      </trkpt>
      <trkpt lat="47.24288" lon="6.0675">
        <ele>277</ele>
        <time>2019-09-11T09:57:14Z</time>
      </trkpt>
      <trkpt lat="47.2425" lon="6.06735">
        <ele>276.79998779297</ele>
        <time>2019-09-11T09:57:21Z</time>
      </trkpt>
      <trkpt lat="47.24212" lon="6.06716">
        <ele>276.79998779297</ele>
        <time>2019-09-11T09:57:28Z</time>
      </trkpt>
      <trkpt lat="47.2418" lon="6.06695">
        <ele>276.79998779297</ele>
        <time>2019-09-11T09:57:35Z</time>
      </trkpt>
      <trkpt lat="47.24171" lon="6.0669">
        <ele>276.79998779297</ele>
        <time>2019-09-11T09:57:37Z</time>
      </trkpt>
      <trkpt lat="47.2416" lon="6.06678">
        <ele>276.79998779297</ele>
        <time>2019-09-11T09:57:40Z</time>
      </trkpt>
      <trkpt lat="47.24132" lon="6.06646">
        <ele>276.79998779297</ele>
        <time>2019-09-11T09:57:47Z</time>
      </trkpt>
      <trkpt lat="47.24088" lon="6.06596">
        <ele>276.60000610352</ele>
        <time>2019-09-11T09:57:57Z</time>
      </trkpt>
      <trkpt lat="47.24045" lon="6.06541">
        <ele>276.20001220703</ele>
        <time>2019-09-11T09:58:07Z</time>
      </trkpt>
      <trkpt lat="47.24009" lon="6.06506">
        <ele>276.20001220703</ele>
        <time>2019-09-11T09:58:15Z</time>
      </trkpt>
      <trkpt lat="47.23979" lon="6.06476">
        <ele>276.60000610352</ele>
        <time>2019-09-11T09:58:22Z</time>
      </trkpt>
      <trkpt lat="47.23952" lon="6.06438">
        <ele>276.79998779297</ele>
        <time>2019-09-11T09:58:29Z</time>
      </trkpt>
      <trkpt lat="47.23911" lon="6.06378">
        <ele>276.60000610352</ele>
        <time>2019-09-11T09:58:39Z</time>
      </trkpt>
      <trkpt lat="47.23906" lon="6.06372">
        <ele>276.60000610352</ele>
        <time>2019-09-11T09:58:40Z</time>
      </trkpt>
      <trkpt lat="47.23884" lon="6.06344">
        <ele>276.60000610352</ele>
        <time>2019-09-11T09:58:45Z</time>
      </trkpt>
      <trkpt lat="47.23871" lon="6.06327">
        <ele>276.60000610352</ele>
        <time>2019-09-11T09:58:48Z</time>
      </trkpt>
      <trkpt lat="47.23838" lon="6.06286">
        <ele>276.60000610352</ele>
        <time>2019-09-11T09:58:56Z</time>
      </trkpt>
      <trkpt lat="47.23794" lon="6.06244">
        <ele>276.39999389648</ele>
        <time>2019-09-11T09:59:05Z</time>
      </trkpt>
      <trkpt lat="47.23752" lon="6.06214">
        <ele>276</ele>
        <time>2019-09-11T09:59:13Z</time>
      </trkpt>
      <trkpt lat="47.23714" lon="6.06191">
        <ele>275.79998779297</ele>
        <time>2019-09-11T09:59:20Z</time>
      </trkpt>
      <trkpt lat="47.2366" lon="6.06163">
        <ele>275.60000610352</ele>
        <time>2019-09-11T09:59:30Z</time>
      </trkpt>
      <trkpt lat="47.23616" lon="6.06148">
        <ele>275.79998779297</ele>
        <time>2019-09-11T09:59:38Z</time>
      </trkpt>
      <trkpt lat="47.23565" lon="6.06133">
        <ele>275.79998779297</ele>
        <time>2019-09-11T09:59:47Z</time>
      </trkpt>
      <trkpt lat="47.23521" lon="6.06121">
        <ele>275.79998779297</ele>
        <time>2019-09-11T09:59:55Z</time>
      </trkpt>
      <trkpt lat="47.2347" lon="6.0611">
        <ele>275.79998779297</ele>
        <time>2019-09-11T10:00:04Z</time>
      </trkpt>
      <trkpt lat="47.23424" lon="6.06097">
        <ele>275.79998779297</ele>
        <time>2019-09-11T10:00:12Z</time>
      </trkpt>
      <trkpt lat="47.23385" lon="6.06085">
        <ele>275.60000610352</ele>
        <time>2019-09-11T10:00:19Z</time>
      </trkpt>
      <trkpt lat="47.23361" lon="6.06075">
        <ele>275.60000610352</ele>
        <time>2019-09-11T10:00:24Z</time>
      </trkpt>
      <trkpt lat="47.23356" lon="6.06073">
        <ele>275.60000610352</ele>
        <time>2019-09-11T10:00:25Z</time>
      </trkpt>
      <trkpt lat="47.23342" lon="6.06068">
        <ele>275.60000610352</ele>
        <time>2019-09-11T10:00:28Z</time>
      </trkpt>
      <trkpt lat="47.23323" lon="6.06056">
        <ele>275.60000610352</ele>
        <time>2019-09-11T10:00:32Z</time>
      </trkpt>
      <trkpt lat="47.23296" lon="6.06031">
        <ele>275.60000610352</ele>
        <time>2019-09-11T10:00:38Z</time>
      </trkpt>
      <trkpt lat="47.23257" lon="6.05986">
        <ele>275.60000610352</ele>
        <time>2019-09-11T10:00:47Z</time>
      </trkpt>
      <trkpt lat="47.23223" lon="6.05948">
        <ele>275.60000610352</ele>
        <time>2019-09-11T10:00:55Z</time>
      </trkpt>
      <trkpt lat="47.23191" lon="6.05921">
        <ele>275.60000610352</ele>
        <time>2019-09-11T10:01:02Z</time>
      </trkpt>
      <trkpt lat="47.23162" lon="6.05897">
        <ele>275.60000610352</ele>
        <time>2019-09-11T10:01:08Z</time>
      </trkpt>
      <trkpt lat="47.23136" lon="6.05876">
        <ele>275.39999389648</ele>
        <time>2019-09-11T10:01:14Z</time>
      </trkpt>
      <trkpt lat="47.23132" lon="6.05873">
        <ele>275.39999389648</ele>
        <time>2019-09-11T10:01:15Z</time>
      </trkpt>
      <trkpt lat="47.23109" lon="6.05855">
        <ele>275.39999389648</ele>
        <time>2019-09-11T10:01:21Z</time>
      </trkpt>
      <trkpt lat="47.23095" lon="6.05843">
        <ele>275.39999389648</ele>
        <time>2019-09-11T10:01:25Z</time>
      </trkpt>
      <trkpt lat="47.23092" lon="6.05839">
        <ele>275.39999389648</ele>
        <time>2019-09-11T10:01:26Z</time>
      </trkpt>
      <trkpt lat="47.23069" lon="6.05822">
        <ele>276</ele>
        <time>2019-09-11T10:01:33Z</time>
      </trkpt>
      <trkpt lat="47.23053" lon="6.0581">
        <ele>276.20001220703</ele>
        <time>2019-09-11T10:01:37Z</time>
      </trkpt>
      <trkpt lat="47.23045" lon="6.05801">
        <ele>276.20001220703</ele>
        <time>2019-09-11T10:01:39Z</time>
      </trkpt>
      <trkpt lat="47.23025" lon="6.05784">
        <ele>276</ele>
        <time>2019-09-11T10:01:43Z</time>
      </trkpt>
      <trkpt lat="47.23016" lon="6.05774">
        <ele>275.60000610352</ele>
        <time>2019-09-11T10:01:45Z</time>
      </trkpt>
      <trkpt lat="47.23007" lon="6.05765">
        <ele>275.20001220703</ele>
        <time>2019-09-11T10:01:47Z</time>
      </trkpt>
      <trkpt lat="47.2298" lon="6.05736">
        <ele>274.79998779297</ele>
        <time>2019-09-11T10:01:53Z</time>
      </trkpt>
      <trkpt lat="47.22971" lon="6.05726">
        <ele>274.79998779297</ele>
        <time>2019-09-11T10:01:55Z</time>
      </trkpt>
      <trkpt lat="47.22955" lon="6.05703">
        <ele>274.60000610352</ele>
        <time>2019-09-11T10:01:59Z</time>
      </trkpt>
      <trkpt lat="47.22934" lon="6.05675">
        <ele>274.60000610352</ele>
        <time>2019-09-11T10:02:04Z</time>
      </trkpt>
      <trkpt lat="47.22918" lon="6.05652">
        <ele>274.39999389648</ele>
        <time>2019-09-11T10:02:08Z</time>
      </trkpt>
      <trkpt lat="47.22882" lon="6.056">
        <ele>274.39999389648</ele>
        <time>2019-09-11T10:02:17Z</time>
      </trkpt>
      <trkpt lat="47.22856" lon="6.05559">
        <ele>274.20001220703</ele>
        <time>2019-09-11T10:02:24Z</time>
      </trkpt>
      <trkpt lat="47.22852" lon="6.05553">
        <ele>274.20001220703</ele>
        <time>2019-09-11T10:02:25Z</time>
      </trkpt>
      <trkpt lat="47.22817" lon="6.0549">
        <ele>274.20001220703</ele>
        <time>2019-09-11T10:02:35Z</time>
      </trkpt>
      <trkpt lat="47.22814" lon="6.05483">
        <ele>274.20001220703</ele>
        <time>2019-09-11T10:02:36Z</time>
      </trkpt>
      <trkpt lat="47.22787" lon="6.0543">
        <ele>274.39999389648</ele>
        <time>2019-09-11T10:02:44Z</time>
      </trkpt>
      <trkpt lat="47.2276" lon="6.05372">
        <ele>274.60000610352</ele>
        <time>2019-09-11T10:02:53Z</time>
      </trkpt>
      <trkpt lat="47.2274" lon="6.05319">
        <ele>274.79998779297</ele>
        <time>2019-09-11T10:03:01Z</time>
      </trkpt>
      <trkpt lat="47.22722" lon="6.05262">
        <ele>274.79998779297</ele>
        <time>2019-09-11T10:03:09Z</time>
      </trkpt>
      <trkpt lat="47.227" lon="6.05185">
        <ele>274.79998779297</ele>
        <time>2019-09-11T10:03:19Z</time>
      </trkpt>
      <trkpt lat="47.22699" lon="6.05178">
        <ele>274.79998779297</ele>
        <time>2019-09-11T10:03:20Z</time>
      </trkpt>
      <trkpt lat="47.22682" lon="6.05119">
        <ele>274.79998779297</ele>
        <time>2019-09-11T10:03:28Z</time>
      </trkpt>
      <trkpt lat="47.22671" lon="6.05086">
        <ele>274.60000610352</ele>
        <time>2019-09-11T10:03:33Z</time>
      </trkpt>
      <trkpt lat="47.22669" lon="6.05078">
        <ele>274.60000610352</ele>
        <time>2019-09-11T10:03:34Z</time>
      </trkpt>
      <trkpt lat="47.22655" lon="6.05021">
        <ele>274.39999389648</ele>
        <time>2019-09-11T10:03:41Z</time>
      </trkpt>
      <trkpt lat="47.22637" lon="6.04959">
        <ele>274.39999389648</ele>
        <time>2019-09-11T10:03:49Z</time>
      </trkpt>
      <trkpt lat="47.22622" lon="6.04905">
        <ele>274.39999389648</ele>
        <time>2019-09-11T10:03:56Z</time>
      </trkpt>
      <trkpt lat="47.2261" lon="6.04852">
        <ele>274.39999389648</ele>
        <time>2019-09-11T10:04:03Z</time>
      </trkpt>
      <trkpt lat="47.22602" lon="6.04798">
        <ele>274.39999389648</ele>
        <time>2019-09-11T10:04:10Z</time>
      </trkpt>
      <trkpt lat="47.22601" lon="6.0479">
        <ele>274.39999389648</ele>
        <time>2019-09-11T10:04:11Z</time>
      </trkpt>
      <trkpt lat="47.22596" lon="6.0474">
        <ele>274.39999389648</ele>
        <time>2019-09-11T10:04:17Z</time>
      </trkpt>
      <trkpt lat="47.22591" lon="6.04686">
        <ele>274.39999389648</ele>
        <time>2019-09-11T10:04:24Z</time>
      </trkpt>
      <trkpt lat="47.22588" lon="6.04643">
        <ele>274.39999389648</ele>
        <time>2019-09-11T10:04:31Z</time>
      </trkpt>
      <trkpt lat="47.22589" lon="6.04633">
        <ele>274.39999389648</ele>
        <time>2019-09-11T10:04:35Z</time>
      </trkpt>
      <trkpt lat="47.22589" lon="6.04634">
        <ele>274.39999389648</ele>
        <time>2019-09-11T10:04:36Z</time>
      </trkpt>
      <trkpt lat="47.22587" lon="6.04627">
        <ele>274.60000610352</ele>
        <time>2019-09-11T10:04:56Z</time>
      </trkpt>
      <trkpt lat="47.22587" lon="6.0462">
        <ele>274.60000610352</ele>
        <time>2019-09-11T10:04:58Z</time>
      </trkpt>
      <trkpt lat="47.22588" lon="6.0461">
        <ele>274.60000610352</ele>
        <time>2019-09-11T10:05:00Z</time>
      </trkpt>
      <trkpt lat="47.22588" lon="6.04596">
        <ele>274.60000610352</ele>
        <time>2019-09-11T10:05:02Z</time>
      </trkpt>
      <trkpt lat="47.22586" lon="6.04568">
        <ele>274.60000610352</ele>
        <time>2019-09-11T10:05:06Z</time>
      </trkpt>
      <trkpt lat="47.22584" lon="6.04546">
        <ele>274.60000610352</ele>
        <time>2019-09-11T10:05:09Z</time>
      </trkpt>
      <trkpt lat="47.22581" lon="6.0449">
        <ele>274.79998779297</ele>
        <time>2019-09-11T10:05:16Z</time>
      </trkpt>
      <trkpt lat="47.22581" lon="6.04473">
        <ele>274.79998779297</ele>
        <time>2019-09-11T10:05:18Z</time>
      </trkpt>
      <trkpt lat="47.22585" lon="6.04439">
        <ele>274.79998779297</ele>
        <time>2019-09-11T10:05:22Z</time>
      </trkpt>
      <trkpt lat="47.22597" lon="6.04365">
        <ele>274.79998779297</ele>
        <time>2019-09-11T10:05:31Z</time>
      </trkpt>
      <trkpt lat="47.22603" lon="6.04323">
        <ele>274.79998779297</ele>
        <time>2019-09-11T10:05:36Z</time>
      </trkpt>
      <trkpt lat="47.22605" lon="6.04315">
        <ele>274.79998779297</ele>
        <time>2019-09-11T10:05:37Z</time>
      </trkpt>
      <trkpt lat="47.22616" lon="6.04264">
        <ele>274.60000610352</ele>
        <time>2019-09-11T10:05:43Z</time>
      </trkpt>
      <trkpt lat="47.22637" lon="6.04199">
        <ele>274.20001220703</ele>
        <time>2019-09-11T10:05:51Z</time>
      </trkpt>
      <trkpt lat="47.22658" lon="6.04129">
        <ele>274</ele>
        <time>2019-09-11T10:06:00Z</time>
      </trkpt>
      <trkpt lat="47.22685" lon="6.04065">
        <ele>274</ele>
        <time>2019-09-11T10:06:09Z</time>
      </trkpt>
      <trkpt lat="47.22709" lon="6.0402">
        <ele>273.79998779297</ele>
        <time>2019-09-11T10:06:16Z</time>
      </trkpt>
      <trkpt lat="47.22729" lon="6.03986">
        <ele>273.79998779297</ele>
        <time>2019-09-11T10:06:22Z</time>
      </trkpt>
      <trkpt lat="47.22755" lon="6.03946">
        <ele>273.79998779297</ele>
        <time>2019-09-11T10:06:29Z</time>
      </trkpt>
      <trkpt lat="47.22779" lon="6.03919">
        <ele>273.79998779297</ele>
        <time>2019-09-11T10:06:35Z</time>
      </trkpt>
      <trkpt lat="47.22807" lon="6.03894">
        <ele>273.79998779297</ele>
        <time>2019-09-11T10:06:42Z</time>
      </trkpt>
      <trkpt lat="47.22826" lon="6.03885">
        <ele>273.79998779297</ele>
        <time>2019-09-11T10:06:46Z</time>
      </trkpt>
      <trkpt lat="47.22835" lon="6.03882">
        <ele>274</ele>
        <time>2019-09-11T10:06:48Z</time>
      </trkpt>
      <trkpt lat="47.22854" lon="6.03874">
        <ele>274.20001220703</ele>
        <time>2019-09-11T10:06:53Z</time>
      </trkpt>
      <trkpt lat="47.22877" lon="6.03861">
        <ele>275.39999389648</ele>
        <time>2019-09-11T10:06:59Z</time>
      </trkpt>
      <trkpt lat="47.22917" lon="6.03829">
        <ele>275.79998779297</ele>
        <time>2019-09-11T10:07:08Z</time>
      </trkpt>
      <trkpt lat="47.22953" lon="6.03798">
        <ele>275.79998779297</ele>
        <time>2019-09-11T10:07:16Z</time>
      </trkpt>
      <trkpt lat="47.22962" lon="6.0379">
        <ele>275.79998779297</ele>
        <time>2019-09-11T10:07:18Z</time>
      </trkpt>
      <trkpt lat="47.22979" lon="6.03773">
        <ele>275.60000610352</ele>
        <time>2019-09-11T10:07:22Z</time>
      </trkpt>
      <trkpt lat="47.23016" lon="6.03743">
        <ele>275.39999389648</ele>
        <time>2019-09-11T10:07:30Z</time>
      </trkpt>
      <trkpt lat="47.23032" lon="6.03726">
        <ele>275.60000610352</ele>
        <time>2019-09-11T10:07:34Z</time>
      </trkpt>
      <trkpt lat="47.2304" lon="6.03719">
        <ele>275.39999389648</ele>
        <time>2019-09-11T10:07:36Z</time>
      </trkpt>
      <trkpt lat="47.23069" lon="6.03694">
        <ele>275.60000610352</ele>
        <time>2019-09-11T10:07:43Z</time>
      </trkpt>
      <trkpt lat="47.231" lon="6.03668">
        <ele>275.79998779297</ele>
        <time>2019-09-11T10:07:50Z</time>
      </trkpt>
      <trkpt lat="47.2312" lon="6.03645">
        <ele>275.79998779297</ele>
        <time>2019-09-11T10:07:55Z</time>
      </trkpt>
      <trkpt lat="47.23122" lon="6.03642">
        <ele>275.79998779297</ele>
        <time>2019-09-11T10:07:56Z</time>
      </trkpt>
      <trkpt lat="47.23126" lon="6.03639">
        <ele>276</ele>
        <time>2019-09-11T10:07:59Z</time>
      </trkpt>
      <trkpt lat="47.23125" lon="6.03638">
        <ele>276</ele>
        <time>2019-09-11T10:08:02Z</time>
      </trkpt>
      <trkpt lat="47.23122" lon="6.0364">
        <ele>276</ele>
        <time>2019-09-11T10:08:06Z</time>
      </trkpt>
      <trkpt lat="47.2312" lon="6.0364">
        <ele>276</ele>
        <time>2019-09-11T10:08:07Z</time>
      </trkpt>
      <trkpt lat="47.23118" lon="6.03636">
        <ele>276</ele>
        <time>2019-09-11T10:08:10Z</time>
      </trkpt>
      <trkpt lat="47.23123" lon="6.03628">
        <ele>276.20001220703</ele>
        <time>2019-09-11T10:08:13Z</time>
      </trkpt>
      <trkpt lat="47.23126" lon="6.03625">
        <ele>276.20001220703</ele>
        <time>2019-09-11T10:08:14Z</time>
      </trkpt>
      <trkpt lat="47.23133" lon="6.03604">
        <ele>276.39999389648</ele>
        <time>2019-09-11T10:08:19Z</time>
      </trkpt>
      <trkpt lat="47.23136" lon="6.03594">
        <ele>276.79998779297</ele>
        <time>2019-09-11T10:08:22Z</time>
      </trkpt>
      <trkpt lat="47.23138" lon="6.03589">
        <ele>277.20001220703</ele>
        <time>2019-09-11T10:08:24Z</time>
      </trkpt>
      <trkpt lat="47.23146" lon="6.0358">
        <ele>278.20001220703</ele>
        <time>2019-09-11T10:08:27Z</time>
      </trkpt>
      <trkpt lat="47.23149" lon="6.03578">
        <ele>278.60000610352</ele>
        <time>2019-09-11T10:08:28Z</time>
      </trkpt>
      <trkpt lat="47.23164" lon="6.03576">
        <ele>279</ele>
        <time>2019-09-11T10:08:32Z</time>
      </trkpt>
      <trkpt lat="47.23199" lon="6.03588">
        <ele>279</ele>
        <time>2019-09-11T10:08:39Z</time>
      </trkpt>
      <trkpt lat="47.23238" lon="6.0359">
        <ele>277.79998779297</ele>
        <time>2019-09-11T10:08:46Z</time>
      </trkpt>
      <trkpt lat="47.23243" lon="6.03589">
        <ele>277.60000610352</ele>
        <time>2019-09-11T10:08:47Z</time>
      </trkpt>
      <trkpt lat="47.23258" lon="6.03584">
        <ele>277.20001220703</ele>
        <time>2019-09-11T10:08:50Z</time>
      </trkpt>
      <trkpt lat="47.23267" lon="6.0358">
        <ele>277</ele>
        <time>2019-09-11T10:08:52Z</time>
      </trkpt>
      <trkpt lat="47.23297" lon="6.03569">
        <ele>276.60000610352</ele>
        <time>2019-09-11T10:08:58Z</time>
      </trkpt>
      <trkpt lat="47.23306" lon="6.03563">
        <ele>276.60000610352</ele>
        <time>2019-09-11T10:09:00Z</time>
      </trkpt>
      <trkpt lat="47.23347" lon="6.03541">
        <ele>276.60000610352</ele>
        <time>2019-09-11T10:09:09Z</time>
      </trkpt>
      <trkpt lat="47.23379" lon="6.0352">
        <ele>276.60000610352</ele>
        <time>2019-09-11T10:09:16Z</time>
      </trkpt>
      <trkpt lat="47.23416" lon="6.03499">
        <ele>276.60000610352</ele>
        <time>2019-09-11T10:09:24Z</time>
      </trkpt>
      <trkpt lat="47.23445" lon="6.03486">
        <ele>276.60000610352</ele>
        <time>2019-09-11T10:09:31Z</time>
      </trkpt>
      <trkpt lat="47.2346" lon="6.03473">
        <ele>276.79998779297</ele>
        <time>2019-09-11T10:09:37Z</time>
      </trkpt>
      <trkpt lat="47.23476" lon="6.03455">
        <ele>277</ele>
        <time>2019-09-11T10:09:43Z</time>
      </trkpt>
      <trkpt lat="47.23489" lon="6.0344">
        <ele>276.79998779297</ele>
        <time>2019-09-11T10:09:48Z</time>
      </trkpt>
      <trkpt lat="47.23497" lon="6.03436">
        <ele>276.39999389648</ele>
        <time>2019-09-11T10:09:53Z</time>
      </trkpt>
      <trkpt lat="47.23497" lon="6.03435">
        <ele>276.39999389648</ele>
        <time>2019-09-11T10:09:55Z</time>
      </trkpt>
      <trkpt lat="47.23499" lon="6.03426">
        <ele>276.60000610352</ele>
        <time>2019-09-11T10:10:14Z</time>
      </trkpt>
      <trkpt lat="47.23501" lon="6.03424">
        <ele>276.60000610352</ele>
        <time>2019-09-11T10:10:16Z</time>
      </trkpt>
      <trkpt lat="47.23513" lon="6.03419">
        <ele>276.60000610352</ele>
        <time>2019-09-11T10:10:20Z</time>
      </trkpt>
      <trkpt lat="47.23522" lon="6.0342">
        <ele>276.60000610352</ele>
        <time>2019-09-11T10:10:22Z</time>
      </trkpt>
      <trkpt lat="47.2353" lon="6.03424">
        <ele>276.39999389648</ele>
        <time>2019-09-11T10:10:24Z</time>
      </trkpt>
      <trkpt lat="47.23555" lon="6.03432">
        <ele>276.39999389648</ele>
        <time>2019-09-11T10:10:30Z</time>
      </trkpt>
      <trkpt lat="47.2356" lon="6.03432">
        <ele>276.39999389648</ele>
        <time>2019-09-11T10:10:31Z</time>
      </trkpt>
      <trkpt lat="47.23579" lon="6.03426">
        <ele>276.39999389648</ele>
        <time>2019-09-11T10:10:35Z</time>
      </trkpt>
      <trkpt lat="47.23614" lon="6.03405">
        <ele>276.39999389648</ele>
        <time>2019-09-11T10:10:43Z</time>
      </trkpt>
      <trkpt lat="47.23641" lon="6.03386">
        <ele>276.39999389648</ele>
        <time>2019-09-11T10:10:50Z</time>
      </trkpt>
      <trkpt lat="47.23672" lon="6.03367">
        <ele>276.39999389648</ele>
        <time>2019-09-11T10:10:59Z</time>
      </trkpt>
      <trkpt lat="47.2371" lon="6.03341">
        <ele>276.60000610352</ele>
        <time>2019-09-11T10:11:09Z</time>
      </trkpt>
      <trkpt lat="47.23735" lon="6.03323">
        <ele>276.60000610352</ele>
        <time>2019-09-11T10:11:16Z</time>
      </trkpt>
      <trkpt lat="47.23755" lon="6.03308">
        <ele>276.60000610352</ele>
        <time>2019-09-11T10:11:23Z</time>
      </trkpt>
      <trkpt lat="47.2376" lon="6.03295">
        <ele>276.60000610352</ele>
        <time>2019-09-11T10:11:28Z</time>
      </trkpt>
      <trkpt lat="47.23763" lon="6.0329">
        <ele>276.60000610352</ele>
        <time>2019-09-11T10:11:30Z</time>
      </trkpt>
      <trkpt lat="47.23768" lon="6.0328">
        <ele>276.60000610352</ele>
        <time>2019-09-11T10:11:33Z</time>
      </trkpt>
      <trkpt lat="47.23778" lon="6.03266">
        <ele>276.79998779297</ele>
        <time>2019-09-11T10:11:38Z</time>
      </trkpt>
      <trkpt lat="47.23783" lon="6.03256">
        <ele>276.79998779297</ele>
        <time>2019-09-11T10:11:44Z</time>
      </trkpt>
      <trkpt lat="47.23782" lon="6.03246">
        <ele>276.79998779297</ele>
        <time>2019-09-11T10:11:48Z</time>
      </trkpt>
      <trkpt lat="47.23781" lon="6.03244">
        <ele>276.79998779297</ele>
        <time>2019-09-11T10:11:52Z</time>
      </trkpt>
      <trkpt lat="47.2378" lon="6.03241">
        <ele>276.60000610352</ele>
        <time>2019-09-11T10:12:00Z</time>
      </trkpt>
      <trkpt lat="47.2378" lon="6.0324">
        <ele>276.60000610352</ele>
        <time>2019-09-11T10:12:01Z</time>
      </trkpt>
      <trkpt lat="47.23772" lon="6.03236">
        <ele>276.39999389648</ele>
        <time>2019-09-11T10:12:06Z</time>
      </trkpt>
      <trkpt lat="47.23768" lon="6.03237">
        <ele>276.39999389648</ele>
        <time>2019-09-11T10:12:07Z</time>
      </trkpt>
      <trkpt lat="47.23753" lon="6.03243">
        <ele>276.39999389648</ele>
        <time>2019-09-11T10:12:11Z</time>
      </trkpt>
      <trkpt lat="47.23743" lon="6.03249">
        <ele>276</ele>
        <time>2019-09-11T10:12:14Z</time>
      </trkpt>
      <trkpt lat="47.23727" lon="6.03263">
        <ele>275.79998779297</ele>
        <time>2019-09-11T10:12:20Z</time>
      </trkpt>
      <trkpt lat="47.2371" lon="6.03276">
        <ele>276</ele>
        <time>2019-09-11T10:12:26Z</time>
      </trkpt>
      <trkpt lat="47.23696" lon="6.03283">
        <ele>276.20001220703</ele>
        <time>2019-09-11T10:12:31Z</time>
      </trkpt>
      <trkpt lat="47.2368" lon="6.03291">
        <ele>276.20001220703</ele>
        <time>2019-09-11T10:12:38Z</time>
      </trkpt>
      <trkpt lat="47.23676" lon="6.03298">
        <ele>276.20001220703</ele>
        <time>2019-09-11T10:12:41Z</time>
      </trkpt>
      <trkpt lat="47.23674" lon="6.033">
        <ele>276.20001220703</ele>
        <time>2019-09-11T10:12:42Z</time>
      </trkpt>
      <trkpt lat="47.23659" lon="6.03313">
        <ele>276.20001220703</ele>
        <time>2019-09-11T10:12:48Z</time>
      </trkpt>
      <trkpt lat="47.23655" lon="6.03314">
        <ele>276.39999389648</ele>
        <time>2019-09-11T10:12:51Z</time>
      </trkpt>
      <trkpt lat="47.23649" lon="6.03307">
        <ele>276.39999389648</ele>
        <time>2019-09-11T10:12:54Z</time>
      </trkpt>
      <trkpt lat="47.23645" lon="6.03305">
        <ele>276.39999389648</ele>
        <time>2019-09-11T10:12:59Z</time>
      </trkpt>
      <trkpt lat="47.23644" lon="6.03304">
        <ele>276.39999389648</ele>
        <time>2019-09-11T10:13:06Z</time>
      </trkpt>
      <trkpt lat="47.2364" lon="6.03298">
        <ele>276.39999389648</ele>
        <time>2019-09-11T10:13:08Z</time>
      </trkpt>
      <trkpt lat="47.23626" lon="6.03277">
        <ele>276.39999389648</ele>
        <time>2019-09-11T10:13:14Z</time>
      </trkpt>
      <trkpt lat="47.23613" lon="6.03251">
        <ele>276</ele>
        <time>2019-09-11T10:13:21Z</time>
      </trkpt>
      <trkpt lat="47.23601" lon="6.03225">
        <ele>275.79998779297</ele>
        <time>2019-09-11T10:13:28Z</time>
      </trkpt>
      <trkpt lat="47.23592" lon="6.03212">
        <ele>275.79998779297</ele>
        <time>2019-09-11T10:13:32Z</time>
      </trkpt>
      <trkpt lat="47.23585" lon="6.03195">
        <ele>275.79998779297</ele>
        <time>2019-09-11T10:13:37Z</time>
      </trkpt>
      <trkpt lat="47.23578" lon="6.03174">
        <ele>275.79998779297</ele>
        <time>2019-09-11T10:13:43Z</time>
      </trkpt>
      <trkpt lat="47.23571" lon="6.03152">
        <ele>276</ele>
        <time>2019-09-11T10:13:49Z</time>
      </trkpt>
      <trkpt lat="47.23569" lon="6.03132">
        <ele>276.20001220703</ele>
        <time>2019-09-11T10:13:55Z</time>
      </trkpt>
      <trkpt lat="47.2357" lon="6.03129">
        <ele>276.20001220703</ele>
        <time>2019-09-11T10:13:56Z</time>
      </trkpt>
      <trkpt lat="47.23571" lon="6.03126">
        <ele>276.39999389648</ele>
        <time>2019-09-11T10:13:59Z</time>
      </trkpt>
      <trkpt lat="47.23566" lon="6.03124">
        <ele>276.79998779297</ele>
        <time>2019-09-11T10:14:10Z</time>
      </trkpt>
      <trkpt lat="47.23565" lon="6.03125">
        <ele>276.79998779297</ele>
        <time>2019-09-11T10:14:11Z</time>
      </trkpt>
      <trkpt lat="47.23556" lon="6.03136">
        <ele>276.79998779297</ele>
        <time>2019-09-11T10:14:16Z</time>
      </trkpt>
      <trkpt lat="47.23539" lon="6.03147">
        <ele>276.79998779297</ele>
        <time>2019-09-11T10:14:22Z</time>
      </trkpt>
      <trkpt lat="47.23533" lon="6.03151">
        <ele>277</ele>
        <time>2019-09-11T10:14:27Z</time>
      </trkpt>
      <trkpt lat="47.23533" lon="6.03151">
        <ele>277</ele>
        <time>2019-09-11T10:14:28Z</time>
      </trkpt>
      <trkpt lat="47.23527" lon="6.03149">
        <ele>277.39999389648</ele>
        <time>2019-09-11T10:14:57Z</time>
      </trkpt>
      <trkpt lat="47.23525" lon="6.03149">
        <ele>277.39999389648</ele>
        <time>2019-09-11T10:15:00Z</time>
      </trkpt>
      <trkpt lat="47.23523" lon="6.03153">
        <ele>277.60000610352</ele>
        <time>2019-09-11T10:15:07Z</time>
      </trkpt>
      <trkpt lat="47.23515" lon="6.0316">
        <ele>277.60000610352</ele>
        <time>2019-09-11T10:15:11Z</time>
      </trkpt>
      <trkpt lat="47.23504" lon="6.03173">
        <ele>277.39999389648</ele>
        <time>2019-09-11T10:15:16Z</time>
      </trkpt>
      <trkpt lat="47.23494" lon="6.03189">
        <ele>277.39999389648</ele>
        <time>2019-09-11T10:15:21Z</time>
      </trkpt>
      <trkpt lat="47.2348" lon="6.03215">
        <ele>277</ele>
        <time>2019-09-11T10:15:27Z</time>
      </trkpt>
      <trkpt lat="47.23468" lon="6.03245">
        <ele>277</ele>
        <time>2019-09-11T10:15:34Z</time>
      </trkpt>
      <trkpt lat="47.23459" lon="6.03276">
        <ele>277</ele>
        <time>2019-09-11T10:15:42Z</time>
      </trkpt>
      <trkpt lat="47.23452" lon="6.03295">
        <ele>276.79998779297</ele>
        <time>2019-09-11T10:15:48Z</time>
      </trkpt>
      <trkpt lat="47.23452" lon="6.03296">
        <ele>276.79998779297</ele>
        <time>2019-09-11T10:15:50Z</time>
      </trkpt>
      <trkpt lat="47.23454" lon="6.03301">
        <ele>275.79998779297</ele>
        <time>2019-09-11T10:18:50Z</time>
      </trkpt>
      <trkpt lat="47.23455" lon="6.03298">
        <ele>275.79998779297</ele>
        <time>2019-09-11T10:18:51Z</time>
      </trkpt>
      <trkpt lat="47.23469" lon="6.03273">
        <ele>276</ele>
        <time>2019-09-11T10:18:58Z</time>
      </trkpt>
      <trkpt lat="47.23484" lon="6.03242">
        <ele>276.20001220703</ele>
        <time>2019-09-11T10:19:06Z</time>
      </trkpt>
      <trkpt lat="47.23498" lon="6.0321">
        <ele>276.39999389648</ele>
        <time>2019-09-11T10:19:13Z</time>
      </trkpt>
      <trkpt lat="47.23516" lon="6.03175">
        <ele>276.60000610352</ele>
        <time>2019-09-11T10:19:21Z</time>
      </trkpt>
      <trkpt lat="47.23524" lon="6.03159">
        <ele>276.39999389648</ele>
        <time>2019-09-11T10:19:26Z</time>
      </trkpt>
      <trkpt lat="47.23528" lon="6.03146">
        <ele>276.39999389648</ele>
        <time>2019-09-11T10:19:33Z</time>
      </trkpt>
      <trkpt lat="47.23539" lon="6.03134">
        <ele>276.39999389648</ele>
        <time>2019-09-11T10:19:38Z</time>
      </trkpt>
      <trkpt lat="47.23553" lon="6.03123">
        <ele>276.39999389648</ele>
        <time>2019-09-11T10:19:43Z</time>
      </trkpt>
      <trkpt lat="47.23572" lon="6.03098">
        <ele>276.20001220703</ele>
        <time>2019-09-11T10:19:50Z</time>
      </trkpt>
      <trkpt lat="47.23582" lon="6.03074">
        <ele>276.20001220703</ele>
        <time>2019-09-11T10:19:55Z</time>
      </trkpt>
      <trkpt lat="47.23593" lon="6.0305">
        <ele>276.20001220703</ele>
        <time>2019-09-11T10:20:00Z</time>
      </trkpt>
      <trkpt lat="47.23605" lon="6.03013">
        <ele>276.60000610352</ele>
        <time>2019-09-11T10:20:08Z</time>
      </trkpt>
      <trkpt lat="47.2361" lon="6.02995">
        <ele>276.79998779297</ele>
        <time>2019-09-11T10:20:12Z</time>
      </trkpt>
      <trkpt lat="47.23616" lon="6.02962">
        <ele>277</ele>
        <time>2019-09-11T10:20:18Z</time>
      </trkpt>
      <trkpt lat="47.2362" lon="6.02943">
        <ele>277.20001220703</ele>
        <time>2019-09-11T10:20:22Z</time>
      </trkpt>
      <trkpt lat="47.23621" lon="6.02928">
        <ele>277.39999389648</ele>
        <time>2019-09-11T10:20:25Z</time>
      </trkpt>
      <trkpt lat="47.23628" lon="6.02909">
        <ele>277.39999389648</ele>
        <time>2019-09-11T10:20:30Z</time>
      </trkpt>
      <trkpt lat="47.23644" lon="6.02887">
        <ele>277.60000610352</ele>
        <time>2019-09-11T10:20:37Z</time>
      </trkpt>
      <trkpt lat="47.23666" lon="6.0286">
        <ele>277.39999389648</ele>
        <time>2019-09-11T10:20:46Z</time>
      </trkpt>
      <trkpt lat="47.23665" lon="6.02854">
        <ele>277.20001220703</ele>
        <time>2019-09-11T10:20:50Z</time>
      </trkpt>
      <trkpt lat="47.23656" lon="6.02847">
        <ele>277.20001220703</ele>
        <time>2019-09-11T10:20:53Z</time>
      </trkpt>
      <trkpt lat="47.23651" lon="6.02841">
        <ele>277.20001220703</ele>
        <time>2019-09-11T10:20:55Z</time>
      </trkpt>
      <trkpt lat="47.23633" lon="6.02817">
        <ele>277.20001220703</ele>
        <time>2019-09-11T10:21:02Z</time>
      </trkpt>
      <trkpt lat="47.23616" lon="6.02788">
        <ele>277.39999389648</ele>
        <time>2019-09-11T10:21:09Z</time>
      </trkpt>
      <trkpt lat="47.236" lon="6.02765">
        <ele>277.39999389648</ele>
        <time>2019-09-11T10:21:15Z</time>
      </trkpt>
      <trkpt lat="47.23591" lon="6.02742">
        <ele>277.79998779297</ele>
        <time>2019-09-11T10:21:21Z</time>
      </trkpt>
      <trkpt lat="47.23592" lon="6.02734">
        <ele>277.79998779297</ele>
        <time>2019-09-11T10:21:24Z</time>
      </trkpt>
      <trkpt lat="47.23589" lon="6.02721">
        <ele>277.79998779297</ele>
        <time>2019-09-11T10:21:46Z</time>
      </trkpt>
      <trkpt lat="47.2359" lon="6.02718">
        <ele>277.79998779297</ele>
        <time>2019-09-11T10:21:47Z</time>
      </trkpt>
      <trkpt lat="47.23598" lon="6.027">
        <ele>277.79998779297</ele>
        <time>2019-09-11T10:21:52Z</time>
      </trkpt>
      <trkpt lat="47.2361" lon="6.02671">
        <ele>277.60000610352</ele>
        <time>2019-09-11T10:21:59Z</time>
      </trkpt>
      <trkpt lat="47.23617" lon="6.02649">
        <ele>277.39999389648</ele>
        <time>2019-09-11T10:22:05Z</time>
      </trkpt>
      <trkpt lat="47.23618" lon="6.02644">
        <ele>277.20001220703</ele>
        <time>2019-09-11T10:22:10Z</time>
      </trkpt>
      <trkpt lat="47.23618" lon="6.0264">
        <ele>277.20001220703</ele>
        <time>2019-09-11T10:22:17Z</time>
      </trkpt>
      <trkpt lat="47.23623" lon="6.02632">
        <ele>277.20001220703</ele>
        <time>2019-09-11T10:22:20Z</time>
      </trkpt>
      <trkpt lat="47.23636" lon="6.02602">
        <ele>277.20001220703</ele>
        <time>2019-09-11T10:22:28Z</time>
      </trkpt>
      <trkpt lat="47.23645" lon="6.02586">
        <ele>277.39999389648</ele>
        <time>2019-09-11T10:22:33Z</time>
      </trkpt>
      <trkpt lat="47.2366" lon="6.0256">
        <ele>277.60000610352</ele>
        <time>2019-09-11T10:22:40Z</time>
      </trkpt>
      <trkpt lat="47.23674" lon="6.02539">
        <ele>277.79998779297</ele>
        <time>2019-09-11T10:22:46Z</time>
      </trkpt>
      <trkpt lat="47.23689" lon="6.02528">
        <ele>278</ele>
        <time>2019-09-11T10:22:51Z</time>
      </trkpt>
      <trkpt lat="47.23695" lon="6.02524">
        <ele>277.79998779297</ele>
        <time>2019-09-11T10:22:53Z</time>
      </trkpt>
      <trkpt lat="47.23706" lon="6.02507">
        <ele>277.79998779297</ele>
        <time>2019-09-11T10:22:58Z</time>
      </trkpt>
      <trkpt lat="47.23723" lon="6.02485">
        <ele>277.79998779297</ele>
        <time>2019-09-11T10:23:05Z</time>
      </trkpt>
      <trkpt lat="47.23742" lon="6.02461">
        <ele>277.39999389648</ele>
        <time>2019-09-11T10:23:13Z</time>
      </trkpt>
      <trkpt lat="47.23752" lon="6.02432">
        <ele>277</ele>
        <time>2019-09-11T10:23:19Z</time>
      </trkpt>
      <trkpt lat="47.23766" lon="6.0242">
        <ele>276.79998779297</ele>
        <time>2019-09-11T10:23:24Z</time>
      </trkpt>
      <trkpt lat="47.23771" lon="6.0242">
        <ele>276.60000610352</ele>
        <time>2019-09-11T10:23:30Z</time>
      </trkpt>
      <trkpt lat="47.23778" lon="6.02413">
        <ele>276.39999389648</ele>
        <time>2019-09-11T10:24:09Z</time>
      </trkpt>
      <trkpt lat="47.23784" lon="6.02402">
        <ele>276.20001220703</ele>
        <time>2019-09-11T10:24:15Z</time>
      </trkpt>
      <trkpt lat="47.23791" lon="6.02396">
        <ele>276.20001220703</ele>
        <time>2019-09-11T10:24:20Z</time>
      </trkpt>
      <trkpt lat="47.23792" lon="6.02394">
        <ele>276.20001220703</ele>
        <time>2019-09-11T10:24:21Z</time>
      </trkpt>
      <trkpt lat="47.23794" lon="6.02386">
        <ele>276</ele>
        <time>2019-09-11T10:24:26Z</time>
      </trkpt>
      <trkpt lat="47.23797" lon="6.02381">
        <ele>276</ele>
        <time>2019-09-11T10:24:30Z</time>
      </trkpt>
      <trkpt lat="47.23798" lon="6.02372">
        <ele>276</ele>
        <time>2019-09-11T10:24:33Z</time>
      </trkpt>
      <trkpt lat="47.23801" lon="6.02366">
        <ele>276</ele>
        <time>2019-09-11T10:24:35Z</time>
      </trkpt>
      <trkpt lat="47.2381" lon="6.02349">
        <ele>275.79998779297</ele>
        <time>2019-09-11T10:24:41Z</time>
      </trkpt>
      <trkpt lat="47.23821" lon="6.02329">
        <ele>276</ele>
        <time>2019-09-11T10:24:50Z</time>
      </trkpt>
      <trkpt lat="47.23827" lon="6.02319">
        <ele>276</ele>
        <time>2019-09-11T10:24:56Z</time>
      </trkpt>
      <trkpt lat="47.23833" lon="6.02313">
        <ele>275.60000610352</ele>
        <time>2019-09-11T10:25:01Z</time>
      </trkpt>
      <trkpt lat="47.23834" lon="6.02311">
        <ele>275.60000610352</ele>
        <time>2019-09-11T10:25:02Z</time>
      </trkpt>
      <trkpt lat="47.2384" lon="6.02302">
        <ele>275.60000610352</ele>
        <time>2019-09-11T10:25:07Z</time>
      </trkpt>
      <trkpt lat="47.23841" lon="6.023">
        <ele>275.60000610352</ele>
        <time>2019-09-11T10:25:08Z</time>
      </trkpt>
      <trkpt lat="47.23849" lon="6.02284">
        <ele>275.60000610352</ele>
        <time>2019-09-11T10:25:14Z</time>
      </trkpt>
      <trkpt lat="47.23855" lon="6.02269">
        <ele>275.79998779297</ele>
        <time>2019-09-11T10:25:20Z</time>
      </trkpt>
      <trkpt lat="47.23862" lon="6.02256">
        <ele>276</ele>
        <time>2019-09-11T10:25:26Z</time>
      </trkpt>
      <trkpt lat="47.23868" lon="6.02241">
        <ele>276</ele>
        <time>2019-09-11T10:25:33Z</time>
      </trkpt>
      <trkpt lat="47.23865" lon="6.02237">
        <ele>276</ele>
        <time>2019-09-11T10:25:37Z</time>
      </trkpt>
      <trkpt lat="47.23865" lon="6.02233">
        <ele>275.79998779297</ele>
        <time>2019-09-11T10:25:43Z</time>
      </trkpt>
      <trkpt lat="47.23869" lon="6.02228">
        <ele>276</ele>
        <time>2019-09-11T10:26:14Z</time>
      </trkpt>
      <trkpt lat="47.23869" lon="6.02227">
        <ele>276</ele>
        <time>2019-09-11T10:26:15Z</time>
      </trkpt>
      <trkpt lat="47.23869" lon="6.02227">
        <ele>276</ele>
        <time>2019-09-11T10:26:16Z</time>
      </trkpt>
      <trkpt lat="47.23874" lon="6.02225">
        <ele>276.39999389648</ele>
        <time>2019-09-11T10:28:25Z</time>
      </trkpt>
      <trkpt lat="47.23879" lon="6.02219">
        <ele>276.20001220703</ele>
        <time>2019-09-11T10:28:28Z</time>
      </trkpt>
      <trkpt lat="47.23896" lon="6.02199">
        <ele>276</ele>
        <time>2019-09-11T10:28:36Z</time>
      </trkpt>
      <trkpt lat="47.23909" lon="6.02179">
        <ele>275.79998779297</ele>
        <time>2019-09-11T10:28:44Z</time>
      </trkpt>
      <trkpt lat="47.23919" lon="6.02167">
        <ele>275.39999389648</ele>
        <time>2019-09-11T10:28:51Z</time>
      </trkpt>
      <trkpt lat="47.23931" lon="6.02148">
        <ele>275.20001220703</ele>
        <time>2019-09-11T10:28:58Z</time>
      </trkpt>
      <trkpt lat="47.23937" lon="6.02135">
        <ele>274.79998779297</ele>
        <time>2019-09-11T10:29:03Z</time>
      </trkpt>
      <trkpt lat="47.2394" lon="6.02131">
        <ele>274.60000610352</ele>
        <time>2019-09-11T10:29:05Z</time>
      </trkpt>
      <trkpt lat="47.23942" lon="6.0213">
        <ele>274.60000610352</ele>
        <time>2019-09-11T10:29:07Z</time>
      </trkpt>
      <trkpt lat="47.23946" lon="6.02125">
        <ele>274.39999389648</ele>
        <time>2019-09-11T10:29:25Z</time>
      </trkpt>
      <trkpt lat="47.23948" lon="6.0212">
        <ele>274.39999389648</ele>
        <time>2019-09-11T10:29:27Z</time>
      </trkpt>
      <trkpt lat="47.23953" lon="6.02102">
        <ele>274.39999389648</ele>
        <time>2019-09-11T10:29:33Z</time>
      </trkpt>
      <trkpt lat="47.23964" lon="6.02087">
        <ele>275.60000610352</ele>
        <time>2019-09-11T10:29:40Z</time>
      </trkpt>
      <trkpt lat="47.23966" lon="6.02085">
        <ele>275.60000610352</ele>
        <time>2019-09-11T10:29:41Z</time>
      </trkpt>
      <trkpt lat="47.23973" lon="6.02074">
        <ele>276.20001220703</ele>
        <time>2019-09-11T10:29:46Z</time>
      </trkpt>
      <trkpt lat="47.23974" lon="6.02071">
        <ele>276.60000610352</ele>
        <time>2019-09-11T10:29:52Z</time>
      </trkpt>
      <trkpt lat="47.23974" lon="6.02068">
        <ele>276.60000610352</ele>
        <time>2019-09-11T10:30:36Z</time>
      </trkpt>
      <trkpt lat="47.2398" lon="6.02056">
        <ele>276.60000610352</ele>
        <time>2019-09-11T10:30:41Z</time>
      </trkpt>
      <trkpt lat="47.23989" lon="6.02033">
        <ele>276.39999389648</ele>
        <time>2019-09-11T10:30:48Z</time>
      </trkpt>
      <trkpt lat="47.23996" lon="6.02011">
        <ele>276.39999389648</ele>
        <time>2019-09-11T10:30:54Z</time>
      </trkpt>
      <trkpt lat="47.23998" lon="6.02005">
        <ele>276.20001220703</ele>
        <time>2019-09-11T10:30:56Z</time>
      </trkpt>
      <trkpt lat="47.24003" lon="6.01999">
        <ele>276</ele>
        <time>2019-09-11T10:30:58Z</time>
      </trkpt>
      <trkpt lat="47.24009" lon="6.01993">
        <ele>276</ele>
        <time>2019-09-11T10:31:02Z</time>
      </trkpt>
      <trkpt lat="47.24012" lon="6.01992">
        <ele>275.79998779297</ele>
        <time>2019-09-11T10:31:04Z</time>
      </trkpt>
      <trkpt lat="47.24019" lon="6.01994">
        <ele>275.60000610352</ele>
        <time>2019-09-11T10:31:09Z</time>
      </trkpt>
      <trkpt lat="47.2403" lon="6.01997">
        <ele>275.20001220703</ele>
        <time>2019-09-11T10:31:14Z</time>
      </trkpt>
      <trkpt lat="47.24037" lon="6.02002">
        <ele>275.20001220703</ele>
        <time>2019-09-11T10:31:19Z</time>
      </trkpt>
      <trkpt lat="47.24046" lon="6.02008">
        <ele>275.39999389648</ele>
        <time>2019-09-11T10:31:26Z</time>
      </trkpt>
      <trkpt lat="47.24059" lon="6.02012">
        <ele>275.60000610352</ele>
        <time>2019-09-11T10:31:34Z</time>
      </trkpt>
      <trkpt lat="47.24076" lon="6.02021">
        <ele>275.79998779297</ele>
        <time>2019-09-11T10:31:40Z</time>
      </trkpt>
      <trkpt lat="47.2409" lon="6.02024">
        <ele>276.20001220703</ele>
        <time>2019-09-11T10:31:46Z</time>
      </trkpt>
      <trkpt lat="47.24091" lon="6.02024">
        <ele>276</ele>
        <time>2019-09-11T10:31:47Z</time>
      </trkpt>
      <trkpt lat="47.24094" lon="6.02026">
        <ele>276.20001220703</ele>
        <time>2019-09-11T10:31:48Z</time>
      </trkpt>
      <trkpt lat="47.24107" lon="6.02032">
        <ele>276.60000610352</ele>
        <time>2019-09-11T10:31:53Z</time>
      </trkpt>
      <trkpt lat="47.24119" lon="6.02036">
        <ele>276.60000610352</ele>
        <time>2019-09-11T10:31:59Z</time>
      </trkpt>
      <trkpt lat="47.24133" lon="6.0204">
        <ele>277</ele>
        <time>2019-09-11T10:32:05Z</time>
      </trkpt>
      <trkpt lat="47.24148" lon="6.02043">
        <ele>277.60000610352</ele>
        <time>2019-09-11T10:32:12Z</time>
      </trkpt>
      <trkpt lat="47.24157" lon="6.02044">
        <ele>277.39999389648</ele>
        <time>2019-09-11T10:32:15Z</time>
      </trkpt>
      <trkpt lat="47.24165" lon="6.02047">
        <ele>277.60000610352</ele>
        <time>2019-09-11T10:32:18Z</time>
      </trkpt>
      <trkpt lat="47.24172" lon="6.02051">
        <ele>278</ele>
        <time>2019-09-11T10:32:20Z</time>
      </trkpt>
      <trkpt lat="47.24181" lon="6.02058">
        <ele>278.20001220703</ele>
        <time>2019-09-11T10:32:24Z</time>
      </trkpt>
      <trkpt lat="47.24186" lon="6.02063">
        <ele>278.20001220703</ele>
        <time>2019-09-11T10:32:28Z</time>
      </trkpt>
      <trkpt lat="47.24189" lon="6.02063">
        <ele>278.39999389648</ele>
        <time>2019-09-11T10:32:30Z</time>
      </trkpt>
      <trkpt lat="47.24204" lon="6.02067">
        <ele>278.79998779297</ele>
        <time>2019-09-11T10:32:37Z</time>
      </trkpt>
      <trkpt lat="47.24222" lon="6.02076">
        <ele>279.39999389648</ele>
        <time>2019-09-11T10:32:43Z</time>
      </trkpt>
      <trkpt lat="47.24235" lon="6.02086">
        <ele>279.60000610352</ele>
        <time>2019-09-11T10:32:47Z</time>
      </trkpt>
      <trkpt lat="47.24239" lon="6.02088">
        <ele>279.79998779297</ele>
        <time>2019-09-11T10:32:49Z</time>
      </trkpt>
      <trkpt lat="47.24243" lon="6.02088">
        <ele>279.79998779297</ele>
        <time>2019-09-11T10:32:51Z</time>
      </trkpt>
      <trkpt lat="47.24242" lon="6.02087">
        <ele>280</ele>
        <time>2019-09-11T10:32:53Z</time>
      </trkpt>
      <trkpt lat="47.24242" lon="6.02086">
        <ele>280.20001220703</ele>
        <time>2019-09-11T10:32:55Z</time>
      </trkpt>
      <trkpt lat="47.24236" lon="6.02083">
        <ele>280.39999389648</ele>
        <time>2019-09-11T10:32:59Z</time>
      </trkpt>
      <trkpt lat="47.24217" lon="6.02077">
        <ele>280</ele>
        <time>2019-09-11T10:33:05Z</time>
      </trkpt>
      <trkpt lat="47.24202" lon="6.02072">
        <ele>279.39999389648</ele>
        <time>2019-09-11T10:33:10Z</time>
      </trkpt>
      <trkpt lat="47.24184" lon="6.02067">
        <ele>278.60000610352</ele>
        <time>2019-09-11T10:33:16Z</time>
      </trkpt>
      <trkpt lat="47.24178" lon="6.02065">
        <ele>278.39999389648</ele>
        <time>2019-09-11T10:33:18Z</time>
      </trkpt>
      <trkpt lat="47.24165" lon="6.02067">
        <ele>277.79998779297</ele>
        <time>2019-09-11T10:33:22Z</time>
      </trkpt>
      <trkpt lat="47.24153" lon="6.02063">
        <ele>277.39999389648</ele>
        <time>2019-09-11T10:33:26Z</time>
      </trkpt>
      <trkpt lat="47.24137" lon="6.02056">
        <ele>276.79998779297</ele>
        <time>2019-09-11T10:33:31Z</time>
      </trkpt>
      <trkpt lat="47.2412" lon="6.02047">
        <ele>276.60000610352</ele>
        <time>2019-09-11T10:33:37Z</time>
      </trkpt>
      <trkpt lat="47.24107" lon="6.02043">
        <ele>276.20001220703</ele>
        <time>2019-09-11T10:33:42Z</time>
      </trkpt>
      <trkpt lat="47.24092" lon="6.02036">
        <ele>275.60000610352</ele>
        <time>2019-09-11T10:33:49Z</time>
      </trkpt>
      <trkpt lat="47.24083" lon="6.02032">
        <ele>275.39999389648</ele>
        <time>2019-09-11T10:33:52Z</time>
      </trkpt>
      <trkpt lat="47.24069" lon="6.02026">
        <ele>275.39999389648</ele>
        <time>2019-09-11T10:33:55Z</time>
      </trkpt>
      <trkpt lat="47.24051" lon="6.0202">
        <ele>275</ele>
        <time>2019-09-11T10:34:01Z</time>
      </trkpt>
      <trkpt lat="47.24031" lon="6.02012">
        <ele>274.79998779297</ele>
        <time>2019-09-11T10:34:07Z</time>
      </trkpt>
      <trkpt lat="47.24022" lon="6.02001">
        <ele>274.79998779297</ele>
        <time>2019-09-11T10:34:11Z</time>
      </trkpt>
      <trkpt lat="47.24022" lon="6.02">
        <ele>274.60000610352</ele>
        <time>2019-09-11T10:34:12Z</time>
      </trkpt>
      <trkpt lat="47.24017" lon="6.0199">
        <ele>274.39999389648</ele>
        <time>2019-09-11T10:34:18Z</time>
      </trkpt>
      <trkpt lat="47.24018" lon="6.01984">
        <ele>274.39999389648</ele>
        <time>2019-09-11T10:34:20Z</time>
      </trkpt>
      <trkpt lat="47.24021" lon="6.01978">
        <ele>274.39999389648</ele>
        <time>2019-09-11T10:34:22Z</time>
      </trkpt>
      <trkpt lat="47.24029" lon="6.0197">
        <ele>274.39999389648</ele>
        <time>2019-09-11T10:34:26Z</time>
      </trkpt>
      <trkpt lat="47.2404" lon="6.01952">
        <ele>274.60000610352</ele>
        <time>2019-09-11T10:34:33Z</time>
      </trkpt>
      <trkpt lat="47.24045" lon="6.01934">
        <ele>275.39999389648</ele>
        <time>2019-09-11T10:34:38Z</time>
      </trkpt>
      <trkpt lat="47.24046" lon="6.0193">
        <ele>275.39999389648</ele>
        <time>2019-09-11T10:34:40Z</time>
      </trkpt>
      <trkpt lat="47.24049" lon="6.01925">
        <ele>275.60000610352</ele>
        <time>2019-09-11T10:34:43Z</time>
      </trkpt>
      <trkpt lat="47.2405" lon="6.01924">
        <ele>275.79998779297</ele>
        <time>2019-09-11T10:34:44Z</time>
      </trkpt>
      <trkpt lat="47.24054" lon="6.01911">
        <ele>276.20001220703</ele>
        <time>2019-09-11T10:34:48Z</time>
      </trkpt>
      <trkpt lat="47.24063" lon="6.01889">
        <ele>276.79998779297</ele>
        <time>2019-09-11T10:34:55Z</time>
      </trkpt>
      <trkpt lat="47.24073" lon="6.01871">
        <ele>277.39999389648</ele>
        <time>2019-09-11T10:35:01Z</time>
      </trkpt>
      <trkpt lat="47.2408" lon="6.01861">
        <ele>277.79998779297</ele>
        <time>2019-09-11T10:35:05Z</time>
      </trkpt>
      <trkpt lat="47.24086" lon="6.01849">
        <ele>278.20001220703</ele>
        <time>2019-09-11T10:35:09Z</time>
      </trkpt>
      <trkpt lat="47.24094" lon="6.01839">
        <ele>278.79998779297</ele>
        <time>2019-09-11T10:35:13Z</time>
      </trkpt>
      <trkpt lat="47.24096" lon="6.01835">
        <ele>279</ele>
        <time>2019-09-11T10:35:15Z</time>
      </trkpt>
      <trkpt lat="47.24095" lon="6.01827">
        <ele>279.79998779297</ele>
        <time>2019-09-11T10:35:21Z</time>
      </trkpt>
      <trkpt lat="47.24093" lon="6.01819">
        <ele>280.79998779297</ele>
        <time>2019-09-11T10:35:46Z</time>
      </trkpt>
      <trkpt lat="47.24092" lon="6.01814">
        <ele>280.60000610352</ele>
        <time>2019-09-11T10:35:48Z</time>
      </trkpt>
      <trkpt lat="47.24092" lon="6.01812">
        <ele>280.79998779297</ele>
        <time>2019-09-11T10:35:49Z</time>
      </trkpt>
      <trkpt lat="47.2409" lon="6.01799">
        <ele>281.20001220703</ele>
        <time>2019-09-11T10:35:55Z</time>
      </trkpt>
      <trkpt lat="47.2409" lon="6.01795">
        <ele>281.60000610352</ele>
        <time>2019-09-11T10:35:58Z</time>
      </trkpt>
      <trkpt lat="47.2409" lon="6.01785">
        <ele>282.39999389648</ele>
        <time>2019-09-11T10:36:17Z</time>
      </trkpt>
      <trkpt lat="47.24089" lon="6.01784">
        <ele>282.39999389648</ele>
        <time>2019-09-11T10:36:20Z</time>
      </trkpt>
      <trkpt lat="47.24088" lon="6.0178">
        <ele>282.60000610352</ele>
        <time>2019-09-11T10:37:24Z</time>
      </trkpt>
      <trkpt lat="47.2409" lon="6.01784">
        <ele>282.60000610352</ele>
        <time>2019-09-11T10:37:26Z</time>
      </trkpt>
      <trkpt lat="47.24093" lon="6.01809">
        <ele>282.60000610352</ele>
        <time>2019-09-11T10:37:31Z</time>
      </trkpt>
      <trkpt lat="47.2409" lon="6.01832">
        <ele>281.60000610352</ele>
        <time>2019-09-11T10:37:36Z</time>
      </trkpt>
      <trkpt lat="47.24078" lon="6.0185">
        <ele>280.39999389648</ele>
        <time>2019-09-11T10:37:40Z</time>
      </trkpt>
      <trkpt lat="47.24075" lon="6.01855">
        <ele>280</ele>
        <time>2019-09-11T10:37:41Z</time>
      </trkpt>
      <trkpt lat="47.24068" lon="6.01863">
        <ele>279.39999389648</ele>
        <time>2019-09-11T10:37:43Z</time>
      </trkpt>
      <trkpt lat="47.24056" lon="6.01876">
        <ele>278.79998779297</ele>
        <time>2019-09-11T10:37:46Z</time>
      </trkpt>
      <trkpt lat="47.24052" lon="6.0188">
        <ele>278.60000610352</ele>
        <time>2019-09-11T10:37:47Z</time>
      </trkpt>
      <trkpt lat="47.2404" lon="6.01908">
        <ele>277.60000610352</ele>
        <time>2019-09-11T10:37:52Z</time>
      </trkpt>
      <trkpt lat="47.24026" lon="6.01928">
        <ele>276.60000610352</ele>
        <time>2019-09-11T10:37:57Z</time>
      </trkpt>
      <trkpt lat="47.24023" lon="6.01932">
        <ele>276.39999389648</ele>
        <time>2019-09-11T10:37:58Z</time>
      </trkpt>
      <trkpt lat="47.24003" lon="6.01958">
        <ele>275.39999389648</ele>
        <time>2019-09-11T10:38:04Z</time>
      </trkpt>
      <trkpt lat="47.23998" lon="6.01968">
        <ele>275.20001220703</ele>
        <time>2019-09-11T10:38:06Z</time>
      </trkpt>
      <trkpt lat="47.23987" lon="6.01984">
        <ele>274.60000610352</ele>
        <time>2019-09-11T10:38:10Z</time>
      </trkpt>
      <trkpt lat="47.23985" lon="6.02006">
        <ele>274.39999389648</ele>
        <time>2019-09-11T10:38:15Z</time>
      </trkpt>
      <trkpt lat="47.23989" lon="6.02012">
        <ele>274.39999389648</ele>
        <time>2019-09-11T10:38:17Z</time>
      </trkpt>
      <trkpt lat="47.23991" lon="6.02014">
        <ele>274.60000610352</ele>
        <time>2019-09-11T10:38:19Z</time>
      </trkpt>
      <trkpt lat="47.23992" lon="6.02015">
        <ele>274.60000610352</ele>
        <time>2019-09-11T10:38:20Z</time>
      </trkpt>
      <trkpt lat="47.23996" lon="6.02018">
        <ele>274.60000610352</ele>
        <time>2019-09-11T10:38:22Z</time>
      </trkpt>
      <trkpt lat="47.24" lon="6.02023">
        <ele>274.60000610352</ele>
        <time>2019-09-11T10:38:24Z</time>
      </trkpt>
      <trkpt lat="47.24013" lon="6.02043">
        <ele>274.60000610352</ele>
        <time>2019-09-11T10:38:31Z</time>
      </trkpt>
      <trkpt lat="47.24022" lon="6.02056">
        <ele>274.39999389648</ele>
        <time>2019-09-11T10:38:35Z</time>
      </trkpt>
      <trkpt lat="47.24028" lon="6.02064">
        <ele>274.39999389648</ele>
        <time>2019-09-11T10:38:38Z</time>
      </trkpt>
      <trkpt lat="47.24042" lon="6.02083">
        <ele>274.39999389648</ele>
        <time>2019-09-11T10:38:44Z</time>
      </trkpt>
      <trkpt lat="47.24054" lon="6.02098">
        <ele>274.20001220703</ele>
        <time>2019-09-11T10:38:49Z</time>
      </trkpt>
      <trkpt lat="47.24075" lon="6.02127">
        <ele>274.20001220703</ele>
        <time>2019-09-11T10:38:57Z</time>
      </trkpt>
      <trkpt lat="47.24095" lon="6.02152">
        <ele>274</ele>
        <time>2019-09-11T10:39:05Z</time>
      </trkpt>
      <trkpt lat="47.241" lon="6.02161">
        <ele>273.79998779297</ele>
        <time>2019-09-11T10:39:10Z</time>
      </trkpt>
      <trkpt lat="47.241" lon="6.02161">
        <ele>273.79998779297</ele>
        <time>2019-09-11T10:39:11Z</time>
      </trkpt>
      <trkpt lat="47.24101" lon="6.02159">
        <ele>273.60000610352</ele>
        <time>2019-09-11T10:40:28Z</time>
      </trkpt>
      <trkpt lat="47.24101" lon="6.02154">
        <ele>273.60000610352</ele>
        <time>2019-09-11T10:40:30Z</time>
      </trkpt>
      <trkpt lat="47.24093" lon="6.02141">
        <ele>273.39999389648</ele>
        <time>2019-09-11T10:40:35Z</time>
      </trkpt>
      <trkpt lat="47.2409" lon="6.02138">
        <ele>273.39999389648</ele>
        <time>2019-09-11T10:40:36Z</time>
      </trkpt>
      <trkpt lat="47.24069" lon="6.02111">
        <ele>273.60000610352</ele>
        <time>2019-09-11T10:40:45Z</time>
      </trkpt>
      <trkpt lat="47.24054" lon="6.0209">
        <ele>273.79998779297</ele>
        <time>2019-09-11T10:40:51Z</time>
      </trkpt>
      <trkpt lat="47.24035" lon="6.02062">
        <ele>273.79998779297</ele>
        <time>2019-09-11T10:40:58Z</time>
      </trkpt>
      <trkpt lat="47.24015" lon="6.0203">
        <ele>274.20001220703</ele>
        <time>2019-09-11T10:41:06Z</time>
      </trkpt>
      <trkpt lat="47.24" lon="6.02023">
        <ele>274.20001220703</ele>
        <time>2019-09-11T10:41:11Z</time>
      </trkpt>
      <trkpt lat="47.23998" lon="6.02022">
        <ele>274.20001220703</ele>
        <time>2019-09-11T10:41:15Z</time>
      </trkpt>
      <trkpt lat="47.23998" lon="6.02017">
        <ele>274.20001220703</ele>
        <time>2019-09-11T10:41:39Z</time>
      </trkpt>
      <trkpt lat="47.24001" lon="6.02013">
        <ele>274.20001220703</ele>
        <time>2019-09-11T10:41:41Z</time>
      </trkpt>
      <trkpt lat="47.24007" lon="6.02001">
        <ele>274</ele>
        <time>2019-09-11T10:41:48Z</time>
      </trkpt>
      <trkpt lat="47.24009" lon="6.02">
        <ele>274</ele>
        <time>2019-09-11T10:41:50Z</time>
      </trkpt>
      <trkpt lat="47.24011" lon="6.01999">
        <ele>274</ele>
        <time>2019-09-11T10:41:52Z</time>
      </trkpt>
      <trkpt lat="47.24016" lon="6.01994">
        <ele>274</ele>
        <time>2019-09-11T10:41:58Z</time>
      </trkpt>
      <trkpt lat="47.24016" lon="6.01994">
        <ele>274</ele>
        <time>2019-09-11T10:41:59Z</time>
      </trkpt>
      <trkpt lat="47.24011" lon="6.01988">
        <ele>274</ele>
        <time>2019-09-11T10:42:09Z</time>
      </trkpt>
      <trkpt lat="47.24008" lon="6.01988">
        <ele>274</ele>
        <time>2019-09-11T10:42:11Z</time>
      </trkpt>
      <trkpt lat="47.24005" lon="6.01993">
        <ele>274</ele>
        <time>2019-09-11T10:42:14Z</time>
      </trkpt>
      <trkpt lat="47.24002" lon="6.01997">
        <ele>274</ele>
        <time>2019-09-11T10:42:16Z</time>
      </trkpt>
      <trkpt lat="47.23998" lon="6.02001">
        <ele>274</ele>
        <time>2019-09-11T10:42:21Z</time>
      </trkpt>
      <trkpt lat="47.23995" lon="6.02001">
        <ele>273.79998779297</ele>
        <time>2019-09-11T10:42:42Z</time>
      </trkpt>
      <trkpt lat="47.23993" lon="6.02003">
        <ele>273.79998779297</ele>
        <time>2019-09-11T10:42:43Z</time>
      </trkpt>
      <trkpt lat="47.23989" lon="6.02008">
        <ele>273.79998779297</ele>
        <time>2019-09-11T10:42:46Z</time>
      </trkpt>
      <trkpt lat="47.23986" lon="6.02026">
        <ele>273.79998779297</ele>
        <time>2019-09-11T10:42:51Z</time>
      </trkpt>
      <trkpt lat="47.23984" lon="6.0203">
        <ele>273.79998779297</ele>
        <time>2019-09-11T10:42:52Z</time>
      </trkpt>
      <trkpt lat="47.23974" lon="6.02051">
        <ele>274</ele>
        <time>2019-09-11T10:42:58Z</time>
      </trkpt>
      <trkpt lat="47.23966" lon="6.02071">
        <ele>274.39999389648</ele>
        <time>2019-09-11T10:43:04Z</time>
      </trkpt>
      <trkpt lat="47.23959" lon="6.0208">
        <ele>274.60000610352</ele>
        <time>2019-09-11T10:43:08Z</time>
      </trkpt>
      <trkpt lat="47.23952" lon="6.02096">
        <ele>274.39999389648</ele>
        <time>2019-09-11T10:43:14Z</time>
      </trkpt>
      <trkpt lat="47.23949" lon="6.02109">
        <ele>273.60000610352</ele>
        <time>2019-09-11T10:43:21Z</time>
      </trkpt>
      <trkpt lat="47.23949" lon="6.02115">
        <ele>273.39999389648</ele>
        <time>2019-09-11T10:43:24Z</time>
      </trkpt>
      <trkpt lat="47.23947" lon="6.02119">
        <ele>273.20001220703</ele>
        <time>2019-09-11T10:43:27Z</time>
      </trkpt>
      <trkpt lat="47.23943" lon="6.02124">
        <ele>272.79998779297</ele>
        <time>2019-09-11T10:43:31Z</time>
      </trkpt>
      <trkpt lat="47.23942" lon="6.02126">
        <ele>272.79998779297</ele>
        <time>2019-09-11T10:43:32Z</time>
      </trkpt>
      <trkpt lat="47.23939" lon="6.0213">
        <ele>272.79998779297</ele>
        <time>2019-09-11T10:43:34Z</time>
      </trkpt>
      <trkpt lat="47.23928" lon="6.02144">
        <ele>272.60000610352</ele>
        <time>2019-09-11T10:43:40Z</time>
      </trkpt>
      <trkpt lat="47.23915" lon="6.0216">
        <ele>272.79998779297</ele>
        <time>2019-09-11T10:43:47Z</time>
      </trkpt>
      <trkpt lat="47.239" lon="6.02175">
        <ele>273</ele>
        <time>2019-09-11T10:43:54Z</time>
      </trkpt>
      <trkpt lat="47.23888" lon="6.02191">
        <ele>273.20001220703</ele>
        <time>2019-09-11T10:44:02Z</time>
      </trkpt>
      <trkpt lat="47.23883" lon="6.02206">
        <ele>273.60000610352</ele>
        <time>2019-09-11T10:44:08Z</time>
      </trkpt>
      <trkpt lat="47.23881" lon="6.02208">
        <ele>273.60000610352</ele>
        <time>2019-09-11T10:44:09Z</time>
      </trkpt>
      <trkpt lat="47.23879" lon="6.02215">
        <ele>273.79998779297</ele>
        <time>2019-09-11T10:44:12Z</time>
      </trkpt>
      <trkpt lat="47.23878" lon="6.02219">
        <ele>273.79998779297</ele>
        <time>2019-09-11T10:44:15Z</time>
      </trkpt>
      <trkpt lat="47.23876" lon="6.0222">
        <ele>274</ele>
        <time>2019-09-11T10:44:17Z</time>
      </trkpt>
      <trkpt lat="47.23874" lon="6.02222">
        <ele>274</ele>
        <time>2019-09-11T10:44:18Z</time>
      </trkpt>
      <trkpt lat="47.23864" lon="6.02237">
        <ele>274.20001220703</ele>
        <time>2019-09-11T10:44:24Z</time>
      </trkpt>
      <trkpt lat="47.23853" lon="6.02259">
        <ele>274.20001220703</ele>
        <time>2019-09-11T10:44:30Z</time>
      </trkpt>
      <trkpt lat="47.23837" lon="6.02283">
        <ele>274.20001220703</ele>
        <time>2019-09-11T10:44:38Z</time>
      </trkpt>
      <trkpt lat="47.23834" lon="6.02307">
        <ele>274</ele>
        <time>2019-09-11T10:44:45Z</time>
      </trkpt>
      <trkpt lat="47.23826" lon="6.02329">
        <ele>273.79998779297</ele>
        <time>2019-09-11T10:44:51Z</time>
      </trkpt>
      <trkpt lat="47.23817" lon="6.02348">
        <ele>273.79998779297</ele>
        <time>2019-09-11T10:44:57Z</time>
      </trkpt>
      <trkpt lat="47.23807" lon="6.02368">
        <ele>273.79998779297</ele>
        <time>2019-09-11T10:45:04Z</time>
      </trkpt>
      <trkpt lat="47.23803" lon="6.02374">
        <ele>273.79998779297</ele>
        <time>2019-09-11T10:45:07Z</time>
      </trkpt>
      <trkpt lat="47.23802" lon="6.02378">
        <ele>274</ele>
        <time>2019-09-11T10:45:10Z</time>
      </trkpt>
      <trkpt lat="47.23802" lon="6.0238">
        <ele>274.20001220703</ele>
        <time>2019-09-11T10:45:11Z</time>
      </trkpt>
      <trkpt lat="47.23794" lon="6.02383">
        <ele>274.20001220703</ele>
        <time>2019-09-11T10:45:16Z</time>
      </trkpt>
      <trkpt lat="47.2379" lon="6.0239">
        <ele>274.20001220703</ele>
        <time>2019-09-11T10:45:19Z</time>
      </trkpt>
      <trkpt lat="47.23788" lon="6.02392">
        <ele>274.20001220703</ele>
        <time>2019-09-11T10:45:20Z</time>
      </trkpt>
      <trkpt lat="47.23779" lon="6.0241">
        <ele>274.39999389648</ele>
        <time>2019-09-11T10:45:26Z</time>
      </trkpt>
      <trkpt lat="47.23767" lon="6.02421">
        <ele>274.39999389648</ele>
        <time>2019-09-11T10:45:31Z</time>
      </trkpt>
      <trkpt lat="47.2375" lon="6.0244">
        <ele>274.60000610352</ele>
        <time>2019-09-11T10:45:37Z</time>
      </trkpt>
      <trkpt lat="47.23729" lon="6.02462">
        <ele>274.79998779297</ele>
        <time>2019-09-11T10:45:44Z</time>
      </trkpt>
      <trkpt lat="47.2372" lon="6.02471">
        <ele>274.79998779297</ele>
        <time>2019-09-11T10:45:47Z</time>
      </trkpt>
      <trkpt lat="47.23705" lon="6.02486">
        <ele>275</ele>
        <time>2019-09-11T10:45:52Z</time>
      </trkpt>
      <trkpt lat="47.23696" lon="6.02505">
        <ele>275.39999389648</ele>
        <time>2019-09-11T10:45:57Z</time>
      </trkpt>
      <trkpt lat="47.23683" lon="6.02516">
        <ele>275.60000610352</ele>
        <time>2019-09-11T10:46:02Z</time>
      </trkpt>
      <trkpt lat="47.2367" lon="6.0253">
        <ele>275.79998779297</ele>
        <time>2019-09-11T10:46:08Z</time>
      </trkpt>
      <trkpt lat="47.23668" lon="6.02532">
        <ele>276</ele>
        <time>2019-09-11T10:46:09Z</time>
      </trkpt>
      <trkpt lat="47.23653" lon="6.02546">
        <ele>276</ele>
        <time>2019-09-11T10:46:15Z</time>
      </trkpt>
      <trkpt lat="47.23636" lon="6.02569">
        <ele>275.79998779297</ele>
        <time>2019-09-11T10:46:22Z</time>
      </trkpt>
      <trkpt lat="47.2361" lon="6.02596">
        <ele>275.39999389648</ele>
        <time>2019-09-11T10:46:31Z</time>
      </trkpt>
      <trkpt lat="47.23608" lon="6.02629">
        <ele>275.39999389648</ele>
        <time>2019-09-11T10:46:37Z</time>
      </trkpt>
      <trkpt lat="47.23606" lon="6.02655">
        <ele>275.20001220703</ele>
        <time>2019-09-11T10:46:42Z</time>
      </trkpt>
      <trkpt lat="47.236" lon="6.02698">
        <ele>275.39999389648</ele>
        <time>2019-09-11T10:46:50Z</time>
      </trkpt>
      <trkpt lat="47.23583" lon="6.02727">
        <ele>275.60000610352</ele>
        <time>2019-09-11T10:46:57Z</time>
      </trkpt>
      <trkpt lat="47.23566" lon="6.0275">
        <ele>275.79998779297</ele>
        <time>2019-09-11T10:47:03Z</time>
      </trkpt>
      <trkpt lat="47.23551" lon="6.02777">
        <ele>276</ele>
        <time>2019-09-11T10:47:09Z</time>
      </trkpt>
      <trkpt lat="47.23535" lon="6.02808">
        <ele>276.39999389648</ele>
        <time>2019-09-11T10:47:16Z</time>
      </trkpt>
      <trkpt lat="47.23514" lon="6.02829">
        <ele>276.60000610352</ele>
        <time>2019-09-11T10:47:23Z</time>
      </trkpt>
      <trkpt lat="47.23501" lon="6.02835">
        <ele>276.79998779297</ele>
        <time>2019-09-11T10:47:27Z</time>
      </trkpt>
      <trkpt lat="47.23498" lon="6.02846">
        <ele>276.79998779297</ele>
        <time>2019-09-11T10:47:32Z</time>
      </trkpt>
      <trkpt lat="47.23494" lon="6.02868">
        <ele>277</ele>
        <time>2019-09-11T10:47:39Z</time>
      </trkpt>
      <trkpt lat="47.23487" lon="6.02878">
        <ele>277</ele>
        <time>2019-09-11T10:47:43Z</time>
      </trkpt>
      <trkpt lat="47.23485" lon="6.0288">
        <ele>277</ele>
        <time>2019-09-11T10:47:44Z</time>
      </trkpt>
      <trkpt lat="47.23483" lon="6.02897">
        <ele>277.20001220703</ele>
        <time>2019-09-11T10:47:48Z</time>
      </trkpt>
      <trkpt lat="47.23483" lon="6.02905">
        <ele>277.20001220703</ele>
        <time>2019-09-11T10:47:50Z</time>
      </trkpt>
      <trkpt lat="47.23475" lon="6.02923">
        <ele>277.79998779297</ele>
        <time>2019-09-11T10:47:57Z</time>
      </trkpt>
      <trkpt lat="47.23475" lon="6.02923">
        <ele>277.79998779297</ele>
        <time>2019-09-11T10:47:58Z</time>
      </trkpt>
      <trkpt lat="47.23474" lon="6.02926">
        <ele>279</ele>
        <time>2019-09-11T10:48:17Z</time>
      </trkpt>
      <trkpt lat="47.23472" lon="6.02929">
        <ele>279</ele>
        <time>2019-09-11T10:48:19Z</time>
      </trkpt>
      <trkpt lat="47.2347" lon="6.02931">
        <ele>279.20001220703</ele>
        <time>2019-09-11T10:48:20Z</time>
      </trkpt>
      <trkpt lat="47.23459" lon="6.02947">
        <ele>279.39999389648</ele>
        <time>2019-09-11T10:48:27Z</time>
      </trkpt>
      <trkpt lat="47.23449" lon="6.0296">
        <ele>280</ele>
        <time>2019-09-11T10:48:33Z</time>
      </trkpt>
      <trkpt lat="47.23447" lon="6.02965">
        <ele>280.39999389648</ele>
        <time>2019-09-11T10:48:35Z</time>
      </trkpt>
      <trkpt lat="47.2344" lon="6.02976">
        <ele>281.20001220703</ele>
        <time>2019-09-11T10:48:41Z</time>
      </trkpt>
      <trkpt lat="47.23439" lon="6.02979">
        <ele>281.60000610352</ele>
        <time>2019-09-11T10:48:43Z</time>
      </trkpt>
      <trkpt lat="47.23437" lon="6.02985">
        <ele>282.20001220703</ele>
        <time>2019-09-11T10:48:47Z</time>
      </trkpt>
      <trkpt lat="47.23433" lon="6.02992">
        <ele>283.39999389648</ele>
        <time>2019-09-11T10:49:38Z</time>
      </trkpt>
      <trkpt lat="47.23427" lon="6.02998">
        <ele>283.60000610352</ele>
        <time>2019-09-11T10:49:42Z</time>
      </trkpt>
      <trkpt lat="47.23419" lon="6.03009">
        <ele>284.60000610352</ele>
        <time>2019-09-11T10:49:48Z</time>
      </trkpt>
      <trkpt lat="47.23416" lon="6.03012">
        <ele>285</ele>
        <time>2019-09-11T10:49:50Z</time>
      </trkpt>
      <trkpt lat="47.23413" lon="6.03013">
        <ele>285.60000610352</ele>
        <time>2019-09-11T10:49:52Z</time>
      </trkpt>
      <trkpt lat="47.23411" lon="6.03025">
        <ele>286.39999389648</ele>
        <time>2019-09-11T10:49:56Z</time>
      </trkpt>
      <trkpt lat="47.23412" lon="6.03028">
        <ele>286.60000610352</ele>
        <time>2019-09-11T10:49:57Z</time>
      </trkpt>
      <trkpt lat="47.23411" lon="6.03036">
        <ele>287.79998779297</ele>
        <time>2019-09-11T10:50:02Z</time>
      </trkpt>
      <trkpt lat="47.23408" lon="6.03044">
        <ele>288.79998779297</ele>
        <time>2019-09-11T10:50:07Z</time>
      </trkpt>
      <trkpt lat="47.23406" lon="6.03049">
        <ele>289</ele>
        <time>2019-09-11T10:50:09Z</time>
      </trkpt>
      <trkpt lat="47.23404" lon="6.03055">
        <ele>289.60000610352</ele>
        <time>2019-09-11T10:50:13Z</time>
      </trkpt>
      <trkpt lat="47.23404" lon="6.03056">
        <ele>289.79998779297</ele>
        <time>2019-09-11T10:50:14Z</time>
      </trkpt>
      <trkpt lat="47.23397" lon="6.03068">
        <ele>290.60000610352</ele>
        <time>2019-09-11T10:50:33Z</time>
      </trkpt>
      <trkpt lat="47.23397" lon="6.0307">
        <ele>290.60000610352</ele>
        <time>2019-09-11T10:50:35Z</time>
      </trkpt>
      <trkpt lat="47.23397" lon="6.03072">
        <ele>290.60000610352</ele>
        <time>2019-09-11T10:50:36Z</time>
      </trkpt>
      <trkpt lat="47.23397" lon="6.03075">
        <ele>290.60000610352</ele>
        <time>2019-09-11T10:50:40Z</time>
      </trkpt>
      <trkpt lat="47.23396" lon="6.0307">
        <ele>291</ele>
        <time>2019-09-11T10:50:45Z</time>
      </trkpt>
      <trkpt lat="47.23396" lon="6.03054">
        <ele>291</ele>
        <time>2019-09-11T10:50:50Z</time>
      </trkpt>
      <trkpt lat="47.23401" lon="6.03038">
        <ele>290.79998779297</ele>
        <time>2019-09-11T10:50:54Z</time>
      </trkpt>
      <trkpt lat="47.23417" lon="6.03019">
        <ele>289.60000610352</ele>
        <time>2019-09-11T10:50:59Z</time>
      </trkpt>
      <trkpt lat="47.23421" lon="6.03017">
        <ele>289.20001220703</ele>
        <time>2019-09-11T10:51:00Z</time>
      </trkpt>
      <trkpt lat="47.23432" lon="6.03011">
        <ele>288</ele>
        <time>2019-09-11T10:51:03Z</time>
      </trkpt>
      <trkpt lat="47.23439" lon="6.02998">
        <ele>286.60000610352</ele>
        <time>2019-09-11T10:51:06Z</time>
      </trkpt>
      <trkpt lat="47.23446" lon="6.02987">
        <ele>285.39999389648</ele>
        <time>2019-09-11T10:51:09Z</time>
      </trkpt>
      <trkpt lat="47.23454" lon="6.02976">
        <ele>284.20001220703</ele>
        <time>2019-09-11T10:51:12Z</time>
      </trkpt>
      <trkpt lat="47.2346" lon="6.02966">
        <ele>283.20001220703</ele>
        <time>2019-09-11T10:51:15Z</time>
      </trkpt>
      <trkpt lat="47.23465" lon="6.02959">
        <ele>282</ele>
        <time>2019-09-11T10:51:18Z</time>
      </trkpt>
      <trkpt lat="47.23466" lon="6.02957">
        <ele>281.60000610352</ele>
        <time>2019-09-11T10:51:19Z</time>
      </trkpt>
      <trkpt lat="47.23471" lon="6.02955">
        <ele>280.79998779297</ele>
        <time>2019-09-11T10:51:22Z</time>
      </trkpt>
      <trkpt lat="47.2347" lon="6.02953">
        <ele>280.60000610352</ele>
        <time>2019-09-11T10:51:23Z</time>
      </trkpt>
      <trkpt lat="47.23471" lon="6.02951">
        <ele>280.20001220703</ele>
        <time>2019-09-11T10:51:25Z</time>
      </trkpt>
      <trkpt lat="47.23472" lon="6.0295">
        <ele>279.79998779297</ele>
        <time>2019-09-11T10:51:27Z</time>
      </trkpt>
      <trkpt lat="47.23472" lon="6.0295">
        <ele>279.60000610352</ele>
        <time>2019-09-11T10:51:28Z</time>
      </trkpt>
      <trkpt lat="47.23479" lon="6.02949">
        <ele>278.60000610352</ele>
        <time>2019-09-11T10:53:46Z</time>
      </trkpt>
      <trkpt lat="47.2348" lon="6.0295">
        <ele>278.60000610352</ele>
        <time>2019-09-11T10:53:47Z</time>
      </trkpt>
      <trkpt lat="47.23485" lon="6.02957">
        <ele>278.60000610352</ele>
        <time>2019-09-11T10:53:51Z</time>
      </trkpt>
      <trkpt lat="47.23487" lon="6.02961">
        <ele>278.39999389648</ele>
        <time>2019-09-11T10:53:53Z</time>
      </trkpt>
      <trkpt lat="47.23498" lon="6.02979">
        <ele>278.39999389648</ele>
        <time>2019-09-11T10:54:00Z</time>
      </trkpt>
      <trkpt lat="47.23504" lon="6.02994">
        <ele>278.60000610352</ele>
        <time>2019-09-11T10:54:05Z</time>
      </trkpt>
      <trkpt lat="47.23506" lon="6.03007">
        <ele>278.60000610352</ele>
        <time>2019-09-11T10:54:09Z</time>
      </trkpt>
      <trkpt lat="47.23508" lon="6.03008">
        <ele>278.60000610352</ele>
        <time>2019-09-11T10:54:10Z</time>
      </trkpt>
      <trkpt lat="47.23519" lon="6.02999">
        <ele>278.60000610352</ele>
        <time>2019-09-11T10:54:14Z</time>
      </trkpt>
      <trkpt lat="47.23538" lon="6.02989">
        <ele>278.20001220703</ele>
        <time>2019-09-11T10:54:19Z</time>
      </trkpt>
      <trkpt lat="47.23542" lon="6.02988">
        <ele>278.20001220703</ele>
        <time>2019-09-11T10:54:20Z</time>
      </trkpt>
      <trkpt lat="47.23556" lon="6.02978">
        <ele>277.79998779297</ele>
        <time>2019-09-11T10:54:23Z</time>
      </trkpt>
      <trkpt lat="47.23565" lon="6.02971">
        <ele>277.39999389648</ele>
        <time>2019-09-11T10:54:25Z</time>
      </trkpt>
      <trkpt lat="47.2357" lon="6.02966">
        <ele>277.39999389648</ele>
        <time>2019-09-11T10:54:26Z</time>
      </trkpt>
      <trkpt lat="47.23589" lon="6.02945">
        <ele>276.39999389648</ele>
        <time>2019-09-11T10:54:31Z</time>
      </trkpt>
      <trkpt lat="47.2361" lon="6.02917">
        <ele>276.20001220703</ele>
        <time>2019-09-11T10:54:38Z</time>
      </trkpt>
      <trkpt lat="47.2363" lon="6.02901">
        <ele>275.79998779297</ele>
        <time>2019-09-11T10:54:45Z</time>
      </trkpt>
      <trkpt lat="47.2365" lon="6.02877">
        <ele>275.60000610352</ele>
        <time>2019-09-11T10:54:53Z</time>
      </trkpt>
      <trkpt lat="47.23662" lon="6.02864">
        <ele>275.39999389648</ele>
        <time>2019-09-11T10:54:58Z</time>
      </trkpt>
      <trkpt lat="47.23665" lon="6.02857">
        <ele>275.20001220703</ele>
        <time>2019-09-11T10:55:00Z</time>
      </trkpt>
      <trkpt lat="47.23665" lon="6.02853">
        <ele>275.20001220703</ele>
        <time>2019-09-11T10:55:03Z</time>
      </trkpt>
      <trkpt lat="47.23668" lon="6.02847">
        <ele>274.79998779297</ele>
        <time>2019-09-11T10:56:00Z</time>
      </trkpt>
      <trkpt lat="47.23678" lon="6.02835">
        <ele>274.79998779297</ele>
        <time>2019-09-11T10:56:05Z</time>
      </trkpt>
      <trkpt lat="47.23692" lon="6.02816">
        <ele>274.79998779297</ele>
        <time>2019-09-11T10:56:12Z</time>
      </trkpt>
      <trkpt lat="47.23703" lon="6.02799">
        <ele>274.79998779297</ele>
        <time>2019-09-11T10:56:19Z</time>
      </trkpt>
      <trkpt lat="47.23715" lon="6.02776">
        <ele>274.79998779297</ele>
        <time>2019-09-11T10:56:26Z</time>
      </trkpt>
      <trkpt lat="47.23717" lon="6.02771">
        <ele>274.60000610352</ele>
        <time>2019-09-11T10:56:28Z</time>
      </trkpt>
      <trkpt lat="47.23719" lon="6.02766">
        <ele>274.39999389648</ele>
        <time>2019-09-11T10:56:31Z</time>
      </trkpt>
      <trkpt lat="47.23719" lon="6.02761">
        <ele>274.39999389648</ele>
        <time>2019-09-11T10:56:36Z</time>
      </trkpt>
      <trkpt lat="47.23726" lon="6.02765">
        <ele>274.20001220703</ele>
        <time>2019-09-11T10:56:45Z</time>
      </trkpt>
      <trkpt lat="47.23728" lon="6.02768">
        <ele>274</ele>
        <time>2019-09-11T10:56:49Z</time>
      </trkpt>
      <trkpt lat="47.23729" lon="6.02768">
        <ele>274</ele>
        <time>2019-09-11T10:56:51Z</time>
      </trkpt>
      <trkpt lat="47.23738" lon="6.02767">
        <ele>273.39999389648</ele>
        <time>2019-09-11T10:59:00Z</time>
      </trkpt>
      <trkpt lat="47.23738" lon="6.02767">
        <ele>273.39999389648</ele>
        <time>2019-09-11T10:59:02Z</time>
      </trkpt>
      <trkpt lat="47.23738" lon="6.02768">
        <ele>273.39999389648</ele>
        <time>2019-09-11T10:59:03Z</time>
      </trkpt>
      <trkpt lat="47.23741" lon="6.0277">
        <ele>273.20001220703</ele>
        <time>2019-09-11T10:59:21Z</time>
      </trkpt>
      <trkpt lat="47.23743" lon="6.02772">
        <ele>273.20001220703</ele>
        <time>2019-09-11T10:59:23Z</time>
      </trkpt>
      <trkpt lat="47.23746" lon="6.02775">
        <ele>273.20001220703</ele>
        <time>2019-09-11T10:59:25Z</time>
      </trkpt>
      <trkpt lat="47.23753" lon="6.02785">
        <ele>273.39999389648</ele>
        <time>2019-09-11T10:59:29Z</time>
      </trkpt>
      <trkpt lat="47.23758" lon="6.02791">
        <ele>273.39999389648</ele>
        <time>2019-09-11T10:59:32Z</time>
      </trkpt>
      <trkpt lat="47.2377" lon="6.02808">
        <ele>273.20001220703</ele>
        <time>2019-09-11T10:59:39Z</time>
      </trkpt>
      <trkpt lat="47.23785" lon="6.0283">
        <ele>273.20001220703</ele>
        <time>2019-09-11T10:59:47Z</time>
      </trkpt>
      <trkpt lat="47.23796" lon="6.02841">
        <ele>272.79998779297</ele>
        <time>2019-09-11T10:59:54Z</time>
      </trkpt>
      <trkpt lat="47.23798" lon="6.02842">
        <ele>272.79998779297</ele>
        <time>2019-09-11T10:59:57Z</time>
      </trkpt>
      <trkpt lat="47.23801" lon="6.02846">
        <ele>272.60000610352</ele>
        <time>2019-09-11T11:00:06Z</time>
      </trkpt>
      <trkpt lat="47.23802" lon="6.02847">
        <ele>272.60000610352</ele>
        <time>2019-09-11T11:00:07Z</time>
      </trkpt>
      <trkpt lat="47.23804" lon="6.0285">
        <ele>272.60000610352</ele>
        <time>2019-09-11T11:00:10Z</time>
      </trkpt>
      <trkpt lat="47.23806" lon="6.02852">
        <ele>272.60000610352</ele>
        <time>2019-09-11T11:00:14Z</time>
      </trkpt>
      <trkpt lat="47.23813" lon="6.02857">
        <ele>272.60000610352</ele>
        <time>2019-09-11T11:00:21Z</time>
      </trkpt>
      <trkpt lat="47.23823" lon="6.02869">
        <ele>272.60000610352</ele>
        <time>2019-09-11T11:00:30Z</time>
      </trkpt>
      <trkpt lat="47.23834" lon="6.02879">
        <ele>272.39999389648</ele>
        <time>2019-09-11T11:00:41Z</time>
      </trkpt>
      <trkpt lat="47.23846" lon="6.02897">
        <ele>272.39999389648</ele>
        <time>2019-09-11T11:00:48Z</time>
      </trkpt>
      <trkpt lat="47.23857" lon="6.02913">
        <ele>272.20001220703</ele>
        <time>2019-09-11T11:00:55Z</time>
      </trkpt>
      <trkpt lat="47.23868" lon="6.02928">
        <ele>272.20001220703</ele>
        <time>2019-09-11T11:01:02Z</time>
      </trkpt>
      <trkpt lat="47.23873" lon="6.02931">
        <ele>272.20001220703</ele>
        <time>2019-09-11T11:01:05Z</time>
      </trkpt>
      <trkpt lat="47.23876" lon="6.02928">
        <ele>272.20001220703</ele>
        <time>2019-09-11T11:01:07Z</time>
      </trkpt>
      <trkpt lat="47.23887" lon="6.02914">
        <ele>271.79998779297</ele>
        <time>2019-09-11T11:01:13Z</time>
      </trkpt>
      <trkpt lat="47.23903" lon="6.02893">
        <ele>271.79998779297</ele>
        <time>2019-09-11T11:01:20Z</time>
      </trkpt>
      <trkpt lat="47.23918" lon="6.02874">
        <ele>271.79998779297</ele>
        <time>2019-09-11T11:01:27Z</time>
      </trkpt>
      <trkpt lat="47.23931" lon="6.02855">
        <ele>271.60000610352</ele>
        <time>2019-09-11T11:01:34Z</time>
      </trkpt>
      <trkpt lat="47.23942" lon="6.02837">
        <ele>271.60000610352</ele>
        <time>2019-09-11T11:01:39Z</time>
      </trkpt>
      <trkpt lat="47.23956" lon="6.02817">
        <ele>271.60000610352</ele>
        <time>2019-09-11T11:01:45Z</time>
      </trkpt>
      <trkpt lat="47.2397" lon="6.02798">
        <ele>271.39999389648</ele>
        <time>2019-09-11T11:01:51Z</time>
      </trkpt>
      <trkpt lat="47.23973" lon="6.02795">
        <ele>271.39999389648</ele>
        <time>2019-09-11T11:01:52Z</time>
      </trkpt>
      <trkpt lat="47.23984" lon="6.0277">
        <ele>271.20001220703</ele>
        <time>2019-09-11T11:01:58Z</time>
      </trkpt>
      <trkpt lat="47.23991" lon="6.0276">
        <ele>271</ele>
        <time>2019-09-11T11:02:03Z</time>
      </trkpt>
      <trkpt lat="47.23993" lon="6.02761">
        <ele>271.20001220703</ele>
        <time>2019-09-11T11:02:07Z</time>
      </trkpt>
      <trkpt lat="47.23991" lon="6.02763">
        <ele>271.20001220703</ele>
        <time>2019-09-11T11:02:09Z</time>
      </trkpt>
      <trkpt lat="47.2399" lon="6.02763">
        <ele>271.20001220703</ele>
        <time>2019-09-11T11:02:10Z</time>
      </trkpt>
      <trkpt lat="47.2398" lon="6.02753">
        <ele>271.20001220703</ele>
        <time>2019-09-11T11:02:15Z</time>
      </trkpt>
      <trkpt lat="47.23964" lon="6.02732">
        <ele>271.39999389648</ele>
        <time>2019-09-11T11:02:22Z</time>
      </trkpt>
      <trkpt lat="47.2395" lon="6.02714">
        <ele>271.60000610352</ele>
        <time>2019-09-11T11:02:28Z</time>
      </trkpt>
      <trkpt lat="47.23944" lon="6.02703">
        <ele>271.79998779297</ele>
        <time>2019-09-11T11:02:33Z</time>
      </trkpt>
      <trkpt lat="47.23937" lon="6.02699">
        <ele>271.79998779297</ele>
        <time>2019-09-11T11:02:39Z</time>
      </trkpt>
      <trkpt lat="47.23935" lon="6.02691">
        <ele>272</ele>
        <time>2019-09-11T11:02:43Z</time>
      </trkpt>
      <trkpt lat="47.23937" lon="6.02683">
        <ele>272</ele>
        <time>2019-09-11T11:02:45Z</time>
      </trkpt>
      <trkpt lat="47.23953" lon="6.02659">
        <ele>271.79998779297</ele>
        <time>2019-09-11T11:02:53Z</time>
      </trkpt>
      <trkpt lat="47.23956" lon="6.02653">
        <ele>271.79998779297</ele>
        <time>2019-09-11T11:02:58Z</time>
      </trkpt>
      <trkpt lat="47.23955" lon="6.02643">
        <ele>271.60000610352</ele>
        <time>2019-09-11T11:03:55Z</time>
      </trkpt>
      <trkpt lat="47.23965" lon="6.02634">
        <ele>271.39999389648</ele>
        <time>2019-09-11T11:03:59Z</time>
      </trkpt>
      <trkpt lat="47.23985" lon="6.02609">
        <ele>271.39999389648</ele>
        <time>2019-09-11T11:04:06Z</time>
      </trkpt>
      <trkpt lat="47.24002" lon="6.0259">
        <ele>271.39999389648</ele>
        <time>2019-09-11T11:04:12Z</time>
      </trkpt>
      <trkpt lat="47.24016" lon="6.02573">
        <ele>271.39999389648</ele>
        <time>2019-09-11T11:04:18Z</time>
      </trkpt>
      <trkpt lat="47.24028" lon="6.02554">
        <ele>271.60000610352</ele>
        <time>2019-09-11T11:04:24Z</time>
      </trkpt>
      <trkpt lat="47.2405" lon="6.02523">
        <ele>271.60000610352</ele>
        <time>2019-09-11T11:04:32Z</time>
      </trkpt>
      <trkpt lat="47.24058" lon="6.02515">
        <ele>271.39999389648</ele>
        <time>2019-09-11T11:04:36Z</time>
      </trkpt>
      <trkpt lat="47.24059" lon="6.02514">
        <ele>271.39999389648</ele>
        <time>2019-09-11T11:04:37Z</time>
      </trkpt>
      <trkpt lat="47.24071" lon="6.02519">
        <ele>271.39999389648</ele>
        <time>2019-09-11T11:04:41Z</time>
      </trkpt>
      <trkpt lat="47.24079" lon="6.02517">
        <ele>271.60000610352</ele>
        <time>2019-09-11T11:04:46Z</time>
      </trkpt>
      <trkpt lat="47.24093" lon="6.02527">
        <ele>271.60000610352</ele>
        <time>2019-09-11T11:04:51Z</time>
      </trkpt>
      <trkpt lat="47.24102" lon="6.02532">
        <ele>271.60000610352</ele>
        <time>2019-09-11T11:04:54Z</time>
      </trkpt>
      <trkpt lat="47.24106" lon="6.0254">
        <ele>271.60000610352</ele>
        <time>2019-09-11T11:04:56Z</time>
      </trkpt>
      <trkpt lat="47.24107" lon="6.02544">
        <ele>271.60000610352</ele>
        <time>2019-09-11T11:04:58Z</time>
      </trkpt>
      <trkpt lat="47.24121" lon="6.02559">
        <ele>271.79998779297</ele>
        <time>2019-09-11T11:05:38Z</time>
      </trkpt>
      <trkpt lat="47.24123" lon="6.02559">
        <ele>272</ele>
        <time>2019-09-11T11:05:39Z</time>
      </trkpt>
      <trkpt lat="47.24127" lon="6.02562">
        <ele>272</ele>
        <time>2019-09-11T11:05:44Z</time>
      </trkpt>
      <trkpt lat="47.24127" lon="6.02563">
        <ele>272</ele>
        <time>2019-09-11T11:05:46Z</time>
      </trkpt>
      <trkpt lat="47.24126" lon="6.02566">
        <ele>271.79998779297</ele>
        <time>2019-09-11T11:05:48Z</time>
      </trkpt>
      <trkpt lat="47.24126" lon="6.0257">
        <ele>271.79998779297</ele>
        <time>2019-09-11T11:05:50Z</time>
      </trkpt>
      <trkpt lat="47.24122" lon="6.02585">
        <ele>271.79998779297</ele>
        <time>2019-09-11T11:05:57Z</time>
      </trkpt>
      <trkpt lat="47.24122" lon="6.02587">
        <ele>271.79998779297</ele>
        <time>2019-09-11T11:05:59Z</time>
      </trkpt>
      <trkpt lat="47.24118" lon="6.02591">
        <ele>271.79998779297</ele>
        <time>2019-09-11T11:06:12Z</time>
      </trkpt>
      <trkpt lat="47.24118" lon="6.02593">
        <ele>271.79998779297</ele>
        <time>2019-09-11T11:06:13Z</time>
      </trkpt>
      <trkpt lat="47.24117" lon="6.02605">
        <ele>271.60000610352</ele>
        <time>2019-09-11T11:06:20Z</time>
      </trkpt>
      <trkpt lat="47.24116" lon="6.02606">
        <ele>271.60000610352</ele>
        <time>2019-09-11T11:06:22Z</time>
      </trkpt>
      <trkpt lat="47.24115" lon="6.02612">
        <ele>271.60000610352</ele>
        <time>2019-09-11T11:06:29Z</time>
      </trkpt>
      <trkpt lat="47.24114" lon="6.02618">
        <ele>271.79998779297</ele>
        <time>2019-09-11T11:06:32Z</time>
      </trkpt>
      <trkpt lat="47.24123" lon="6.02619">
        <ele>271.79998779297</ele>
        <time>2019-09-11T11:06:36Z</time>
      </trkpt>
      <trkpt lat="47.24134" lon="6.02632">
        <ele>271.79998779297</ele>
        <time>2019-09-11T11:06:41Z</time>
      </trkpt>
      <trkpt lat="47.24134" lon="6.02636">
        <ele>271.79998779297</ele>
        <time>2019-09-11T11:06:42Z</time>
      </trkpt>
      <trkpt lat="47.24135" lon="6.02647">
        <ele>271.79998779297</ele>
        <time>2019-09-11T11:06:46Z</time>
      </trkpt>
      <trkpt lat="47.24135" lon="6.02647">
        <ele>271.79998779297</ele>
        <time>2019-09-11T11:06:48Z</time>
      </trkpt>
      <trkpt lat="47.24136" lon="6.02654">
        <ele>271.39999389648</ele>
        <time>2019-09-11T12:14:30Z</time>
      </trkpt>
      <trkpt lat="47.24135" lon="6.02658">
        <ele>271.39999389648</ele>
        <time>2019-09-11T12:14:33Z</time>
      </trkpt>
      <trkpt lat="47.24132" lon="6.02671">
        <ele>271.39999389648</ele>
        <time>2019-09-11T12:14:42Z</time>
      </trkpt>
      <trkpt lat="47.2413" lon="6.02676">
        <ele>271.39999389648</ele>
        <time>2019-09-11T12:14:50Z</time>
      </trkpt>
      <trkpt lat="47.24124" lon="6.02673">
        <ele>271.39999389648</ele>
        <time>2019-09-11T12:15:01Z</time>
      </trkpt>
      <trkpt lat="47.24116" lon="6.02675">
        <ele>271.39999389648</ele>
        <time>2019-09-11T12:15:10Z</time>
      </trkpt>
      <trkpt lat="47.24112" lon="6.02674">
        <ele>271.39999389648</ele>
        <time>2019-09-11T12:15:21Z</time>
      </trkpt>
      <trkpt lat="47.24108" lon="6.02674">
        <ele>271.39999389648</ele>
        <time>2019-09-11T12:15:25Z</time>
      </trkpt>
      <trkpt lat="47.24104" lon="6.02672">
        <ele>271</ele>
        <time>2019-09-11T12:15:29Z</time>
      </trkpt>
      <trkpt lat="47.24102" lon="6.02671">
        <ele>271</ele>
        <time>2019-09-11T12:15:31Z</time>
      </trkpt>
      <trkpt lat="47.24101" lon="6.02671">
        <ele>271</ele>
        <time>2019-09-11T12:15:34Z</time>
      </trkpt>
      <trkpt lat="47.24097" lon="6.02671">
        <ele>271</ele>
        <time>2019-09-11T12:15:40Z</time>
      </trkpt>
      <trkpt lat="47.24094" lon="6.02669">
        <ele>271</ele>
        <time>2019-09-11T12:15:42Z</time>
      </trkpt>
      <trkpt lat="47.24085" lon="6.02656">
        <ele>270.79998779297</ele>
        <time>2019-09-11T12:15:46Z</time>
      </trkpt>
      <trkpt lat="47.24061" lon="6.0262">
        <ele>270.79998779297</ele>
        <time>2019-09-11T12:15:55Z</time>
      </trkpt>
      <trkpt lat="47.24044" lon="6.02593">
        <ele>271</ele>
        <time>2019-09-11T12:16:02Z</time>
      </trkpt>
      <trkpt lat="47.24029" lon="6.02566">
        <ele>271.20001220703</ele>
        <time>2019-09-11T12:16:09Z</time>
      </trkpt>
      <trkpt lat="47.24017" lon="6.02544">
        <ele>271.20001220703</ele>
        <time>2019-09-11T12:16:15Z</time>
      </trkpt>
      <trkpt lat="47.24" lon="6.02517">
        <ele>271.39999389648</ele>
        <time>2019-09-11T12:16:22Z</time>
      </trkpt>
      <trkpt lat="47.23985" lon="6.02492">
        <ele>271.39999389648</ele>
        <time>2019-09-11T12:16:28Z</time>
      </trkpt>
      <trkpt lat="47.23966" lon="6.02461">
        <ele>271.39999389648</ele>
        <time>2019-09-11T12:16:36Z</time>
      </trkpt>
      <trkpt lat="47.23947" lon="6.02426">
        <ele>272</ele>
        <time>2019-09-11T12:16:45Z</time>
      </trkpt>
      <trkpt lat="47.23936" lon="6.02414">
        <ele>272</ele>
        <time>2019-09-11T12:16:51Z</time>
      </trkpt>
      <trkpt lat="47.23928" lon="6.0242">
        <ele>272</ele>
        <time>2019-09-11T12:16:55Z</time>
      </trkpt>
      <trkpt lat="47.23926" lon="6.02423">
        <ele>272.20001220703</ele>
        <time>2019-09-11T12:17:00Z</time>
      </trkpt>
      <trkpt lat="47.23924" lon="6.02425">
        <ele>272.20001220703</ele>
        <time>2019-09-11T12:17:10Z</time>
      </trkpt>
      <trkpt lat="47.23917" lon="6.02436">
        <ele>272</ele>
        <time>2019-09-11T12:17:16Z</time>
      </trkpt>
      <trkpt lat="47.23912" lon="6.02446">
        <ele>272</ele>
        <time>2019-09-11T12:17:20Z</time>
      </trkpt>
      <trkpt lat="47.2391" lon="6.0245">
        <ele>272</ele>
        <time>2019-09-11T12:17:22Z</time>
      </trkpt>
      <trkpt lat="47.23905" lon="6.02456">
        <ele>272</ele>
        <time>2019-09-11T12:17:25Z</time>
      </trkpt>
      <trkpt lat="47.239" lon="6.02463">
        <ele>272</ele>
        <time>2019-09-11T12:17:28Z</time>
      </trkpt>
      <trkpt lat="47.23894" lon="6.02474">
        <ele>272.20001220703</ele>
        <time>2019-09-11T12:17:32Z</time>
      </trkpt>
      <trkpt lat="47.23887" lon="6.02486">
        <ele>272.20001220703</ele>
        <time>2019-09-11T12:17:38Z</time>
      </trkpt>
      <trkpt lat="47.23887" lon="6.02487">
        <ele>272.20001220703</ele>
        <time>2019-09-11T12:17:40Z</time>
      </trkpt>
      <trkpt lat="47.23884" lon="6.02487">
        <ele>272.20001220703</ele>
        <time>2019-09-11T12:17:58Z</time>
      </trkpt>
      <trkpt lat="47.23882" lon="6.02485">
        <ele>272.20001220703</ele>
        <time>2019-09-11T12:17:59Z</time>
      </trkpt>
      <trkpt lat="47.23867" lon="6.02462">
        <ele>272.20001220703</ele>
        <time>2019-09-11T12:18:06Z</time>
      </trkpt>
      <trkpt lat="47.23854" lon="6.02442">
        <ele>272.39999389648</ele>
        <time>2019-09-11T12:18:12Z</time>
      </trkpt>
      <trkpt lat="47.23848" lon="6.02436">
        <ele>272.39999389648</ele>
        <time>2019-09-11T12:18:16Z</time>
      </trkpt>
      <trkpt lat="47.23846" lon="6.02435">
        <ele>272.39999389648</ele>
        <time>2019-09-11T12:18:17Z</time>
      </trkpt>
      <trkpt lat="47.23837" lon="6.02429">
        <ele>272.39999389648</ele>
        <time>2019-09-11T12:18:23Z</time>
      </trkpt>
      <trkpt lat="47.23822" lon="6.02428">
        <ele>272.60000610352</ele>
        <time>2019-09-11T12:18:29Z</time>
      </trkpt>
      <trkpt lat="47.23805" lon="6.02433">
        <ele>272.79998779297</ele>
        <time>2019-09-11T12:18:35Z</time>
      </trkpt>
      <trkpt lat="47.23795" lon="6.0243">
        <ele>272.60000610352</ele>
        <time>2019-09-11T12:18:39Z</time>
      </trkpt>
      <trkpt lat="47.2379" lon="6.02429">
        <ele>272.60000610352</ele>
        <time>2019-09-11T12:18:41Z</time>
      </trkpt>
      <trkpt lat="47.23781" lon="6.02426">
        <ele>272.60000610352</ele>
        <time>2019-09-11T12:18:44Z</time>
      </trkpt>
      <trkpt lat="47.23779" lon="6.02425">
        <ele>272.60000610352</ele>
        <time>2019-09-11T12:18:45Z</time>
      </trkpt>
      <trkpt lat="47.23769" lon="6.02429">
        <ele>272.79998779297</ele>
        <time>2019-09-11T12:18:48Z</time>
      </trkpt>
      <trkpt lat="47.2376" lon="6.02442">
        <ele>273</ele>
        <time>2019-09-11T12:18:52Z</time>
      </trkpt>
      <trkpt lat="47.23755" lon="6.02448">
        <ele>273</ele>
        <time>2019-09-11T12:18:54Z</time>
      </trkpt>
      <trkpt lat="47.23752" lon="6.02452">
        <ele>273</ele>
        <time>2019-09-11T12:18:55Z</time>
      </trkpt>
      <trkpt lat="47.23735" lon="6.02476">
        <ele>273.20001220703</ele>
        <time>2019-09-11T12:19:03Z</time>
      </trkpt>
      <trkpt lat="47.23719" lon="6.025">
        <ele>273.39999389648</ele>
        <time>2019-09-11T12:19:10Z</time>
      </trkpt>
      <trkpt lat="47.23708" lon="6.02514">
        <ele>273.79998779297</ele>
        <time>2019-09-11T12:19:15Z</time>
      </trkpt>
      <trkpt lat="47.23687" lon="6.02538">
        <ele>274.20001220703</ele>
        <time>2019-09-11T12:19:22Z</time>
      </trkpt>
      <trkpt lat="47.23661" lon="6.02567">
        <ele>274.20001220703</ele>
        <time>2019-09-11T12:19:30Z</time>
      </trkpt>
      <trkpt lat="47.23642" lon="6.02596">
        <ele>274.20001220703</ele>
        <time>2019-09-11T12:19:37Z</time>
      </trkpt>
      <trkpt lat="47.23631" lon="6.02617">
        <ele>274.20001220703</ele>
        <time>2019-09-11T12:19:42Z</time>
      </trkpt>
      <trkpt lat="47.2362" lon="6.02647">
        <ele>274</ele>
        <time>2019-09-11T12:19:48Z</time>
      </trkpt>
      <trkpt lat="47.23611" lon="6.02674">
        <ele>274</ele>
        <time>2019-09-11T12:19:53Z</time>
      </trkpt>
      <trkpt lat="47.23608" lon="6.02679">
        <ele>274</ele>
        <time>2019-09-11T12:19:54Z</time>
      </trkpt>
      <trkpt lat="47.23586" lon="6.02723">
        <ele>274.20001220703</ele>
        <time>2019-09-11T12:20:03Z</time>
      </trkpt>
      <trkpt lat="47.23574" lon="6.02747">
        <ele>274.39999389648</ele>
        <time>2019-09-11T12:20:08Z</time>
      </trkpt>
      <trkpt lat="47.23572" lon="6.02756">
        <ele>274.39999389648</ele>
        <time>2019-09-11T12:20:10Z</time>
      </trkpt>
      <trkpt lat="47.23555" lon="6.02789">
        <ele>274.79998779297</ele>
        <time>2019-09-11T12:20:17Z</time>
      </trkpt>
      <trkpt lat="47.2354" lon="6.02817">
        <ele>275</ele>
        <time>2019-09-11T12:20:23Z</time>
      </trkpt>
      <trkpt lat="47.23535" lon="6.02827">
        <ele>275</ele>
        <time>2019-09-11T12:20:25Z</time>
      </trkpt>
      <trkpt lat="47.23515" lon="6.02863">
        <ele>275.39999389648</ele>
        <time>2019-09-11T12:20:33Z</time>
      </trkpt>
      <trkpt lat="47.23506" lon="6.02875">
        <ele>275.39999389648</ele>
        <time>2019-09-11T12:20:36Z</time>
      </trkpt>
      <trkpt lat="47.23493" lon="6.02889">
        <ele>275.60000610352</ele>
        <time>2019-09-11T12:20:40Z</time>
      </trkpt>
      <trkpt lat="47.2348" lon="6.02911">
        <ele>276</ele>
        <time>2019-09-11T12:20:46Z</time>
      </trkpt>
      <trkpt lat="47.23474" lon="6.02924">
        <ele>276.39999389648</ele>
        <time>2019-09-11T12:20:51Z</time>
      </trkpt>
      <trkpt lat="47.23476" lon="6.02929">
        <ele>276.60000610352</ele>
        <time>2019-09-11T12:20:56Z</time>
      </trkpt>
      <trkpt lat="47.23476" lon="6.02932">
        <ele>277.39999389648</ele>
        <time>2019-09-11T12:21:07Z</time>
      </trkpt>
      <trkpt lat="47.23473" lon="6.02934">
        <ele>277.39999389648</ele>
        <time>2019-09-11T12:21:13Z</time>
      </trkpt>
      <trkpt lat="47.23469" lon="6.02932">
        <ele>277.20001220703</ele>
        <time>2019-09-11T12:21:15Z</time>
      </trkpt>
      <trkpt lat="47.23466" lon="6.02927">
        <ele>277.20001220703</ele>
        <time>2019-09-11T12:21:17Z</time>
      </trkpt>
      <trkpt lat="47.2345" lon="6.02907">
        <ele>277.39999389648</ele>
        <time>2019-09-11T12:21:24Z</time>
      </trkpt>
      <trkpt lat="47.23447" lon="6.02905">
        <ele>277.39999389648</ele>
        <time>2019-09-11T12:21:25Z</time>
      </trkpt>
      <trkpt lat="47.23443" lon="6.02903">
        <ele>277.60000610352</ele>
        <time>2019-09-11T12:21:30Z</time>
      </trkpt>
      <trkpt lat="47.23443" lon="6.02903">
        <ele>277.60000610352</ele>
        <time>2019-09-11T12:21:31Z</time>
      </trkpt>
      <trkpt lat="47.23434" lon="6.02904">
        <ele>277.39999389648</ele>
        <time>2019-09-11T12:22:04Z</time>
      </trkpt>
      <trkpt lat="47.23429" lon="6.029">
        <ele>277.39999389648</ele>
        <time>2019-09-11T12:22:06Z</time>
      </trkpt>
      <trkpt lat="47.23418" lon="6.02889">
        <ele>277.39999389648</ele>
        <time>2019-09-11T12:22:10Z</time>
      </trkpt>
      <trkpt lat="47.23411" lon="6.02882">
        <ele>277.20001220703</ele>
        <time>2019-09-11T12:22:12Z</time>
      </trkpt>
      <trkpt lat="47.23395" lon="6.02863">
        <ele>277</ele>
        <time>2019-09-11T12:22:18Z</time>
      </trkpt>
      <trkpt lat="47.23386" lon="6.02853">
        <ele>276.20001220703</ele>
        <time>2019-09-11T12:22:24Z</time>
      </trkpt>
      <trkpt lat="47.23374" lon="6.0284">
        <ele>276</ele>
        <time>2019-09-11T12:22:29Z</time>
      </trkpt>
      <trkpt lat="47.23359" lon="6.02822">
        <ele>275.60000610352</ele>
        <time>2019-09-11T12:22:34Z</time>
      </trkpt>
      <trkpt lat="47.23356" lon="6.02818">
        <ele>275.39999389648</ele>
        <time>2019-09-11T12:22:35Z</time>
      </trkpt>
      <trkpt lat="47.23349" lon="6.02809">
        <ele>275</ele>
        <time>2019-09-11T12:22:37Z</time>
      </trkpt>
      <trkpt lat="47.23341" lon="6.028">
        <ele>274.79998779297</ele>
        <time>2019-09-11T12:22:39Z</time>
      </trkpt>
      <trkpt lat="47.23323" lon="6.02784">
        <ele>274.20001220703</ele>
        <time>2019-09-11T12:22:44Z</time>
      </trkpt>
      <trkpt lat="47.23321" lon="6.02781">
        <ele>274</ele>
        <time>2019-09-11T12:22:45Z</time>
      </trkpt>
      <trkpt lat="47.2332" lon="6.02777">
        <ele>273.60000610352</ele>
        <time>2019-09-11T12:22:47Z</time>
      </trkpt>
      <trkpt lat="47.2333" lon="6.02761">
        <ele>273.20001220703</ele>
        <time>2019-09-11T12:22:52Z</time>
      </trkpt>
      <trkpt lat="47.23339" lon="6.0275">
        <ele>273</ele>
        <time>2019-09-11T12:22:55Z</time>
      </trkpt>
      <trkpt lat="47.23344" lon="6.02742">
        <ele>272.60000610352</ele>
        <time>2019-09-11T12:22:57Z</time>
      </trkpt>
      <trkpt lat="47.23346" lon="6.02737">
        <ele>272.39999389648</ele>
        <time>2019-09-11T12:22:58Z</time>
      </trkpt>
      <trkpt lat="47.23357" lon="6.02717">
        <ele>272</ele>
        <time>2019-09-11T12:23:02Z</time>
      </trkpt>
      <trkpt lat="47.2336" lon="6.02712">
        <ele>272</ele>
        <time>2019-09-11T12:23:03Z</time>
      </trkpt>
      <trkpt lat="47.23367" lon="6.02699">
        <ele>271.60000610352</ele>
        <time>2019-09-11T12:23:07Z</time>
      </trkpt>
      <trkpt lat="47.23373" lon="6.02687">
        <ele>271.20001220703</ele>
        <time>2019-09-11T12:23:14Z</time>
      </trkpt>
      <trkpt lat="47.23373" lon="6.02687">
        <ele>271.20001220703</ele>
        <time>2019-09-11T12:23:15Z</time>
      </trkpt>
      <trkpt lat="47.23374" lon="6.02685">
        <ele>271.20001220703</ele>
        <time>2019-09-11T12:23:18Z</time>
      </trkpt>
      <trkpt lat="47.23378" lon="6.02679">
        <ele>271</ele>
        <time>2019-09-11T12:23:23Z</time>
      </trkpt>
      <trkpt lat="47.23384" lon="6.02668">
        <ele>271</ele>
        <time>2019-09-11T12:23:27Z</time>
      </trkpt>
      <trkpt lat="47.23398" lon="6.02644">
        <ele>271</ele>
        <time>2019-09-11T12:23:33Z</time>
      </trkpt>
      <trkpt lat="47.23415" lon="6.02619">
        <ele>271</ele>
        <time>2019-09-11T12:23:40Z</time>
      </trkpt>
      <trkpt lat="47.23417" lon="6.02616">
        <ele>271</ele>
        <time>2019-09-11T12:23:41Z</time>
      </trkpt>
      <trkpt lat="47.23419" lon="6.02612">
        <ele>270.79998779297</ele>
        <time>2019-09-11T12:23:45Z</time>
      </trkpt>
      <trkpt lat="47.2342" lon="6.02617">
        <ele>270.79998779297</ele>
        <time>2019-09-11T12:23:53Z</time>
      </trkpt>
      <trkpt lat="47.23421" lon="6.02621">
        <ele>270.79998779297</ele>
        <time>2019-09-11T12:23:55Z</time>
      </trkpt>
      <trkpt lat="47.23426" lon="6.02629">
        <ele>270.79998779297</ele>
        <time>2019-09-11T12:23:58Z</time>
      </trkpt>
      <trkpt lat="47.23434" lon="6.02639">
        <ele>270.79998779297</ele>
        <time>2019-09-11T12:24:02Z</time>
      </trkpt>
      <trkpt lat="47.23445" lon="6.02653">
        <ele>270.60000610352</ele>
        <time>2019-09-11T12:24:09Z</time>
      </trkpt>
      <trkpt lat="47.23448" lon="6.02653">
        <ele>271.20001220703</ele>
        <time>2019-09-11T12:24:15Z</time>
      </trkpt>
      <trkpt lat="47.23448" lon="6.02653">
        <ele>271.20001220703</ele>
        <time>2019-09-11T12:24:16Z</time>
      </trkpt>
      <trkpt lat="47.23451" lon="6.02652">
        <ele>271.39999389648</ele>
        <time>2019-09-11T12:24:21Z</time>
      </trkpt>
      <trkpt lat="47.23457" lon="6.02651">
        <ele>271.39999389648</ele>
        <time>2019-09-11T12:24:24Z</time>
      </trkpt>
      <trkpt lat="47.23469" lon="6.02654">
        <ele>271.60000610352</ele>
        <time>2019-09-11T12:24:29Z</time>
      </trkpt>
      <trkpt lat="47.23473" lon="6.02651">
        <ele>271.79998779297</ele>
        <time>2019-09-11T12:24:33Z</time>
      </trkpt>
      <trkpt lat="47.23475" lon="6.02652">
        <ele>272</ele>
        <time>2019-09-11T12:24:35Z</time>
      </trkpt>
      <trkpt lat="47.23479" lon="6.02655">
        <ele>272</ele>
        <time>2019-09-11T12:24:38Z</time>
      </trkpt>
      <trkpt lat="47.2348" lon="6.02655">
        <ele>272</ele>
        <time>2019-09-11T12:24:39Z</time>
      </trkpt>
      <trkpt lat="47.23481" lon="6.02654">
        <ele>272</ele>
        <time>2019-09-11T12:24:41Z</time>
      </trkpt>
      <trkpt lat="47.23483" lon="6.02651">
        <ele>272.20001220703</ele>
        <time>2019-09-11T12:24:46Z</time>
      </trkpt>
      <trkpt lat="47.23485" lon="6.02647">
        <ele>272.39999389648</ele>
        <time>2019-09-11T12:24:48Z</time>
      </trkpt>
      <trkpt lat="47.23486" lon="6.02643">
        <ele>272.60000610352</ele>
        <time>2019-09-11T12:24:50Z</time>
      </trkpt>
      <trkpt lat="47.2349" lon="6.0264">
        <ele>272.39999389648</ele>
        <time>2019-09-11T12:24:53Z</time>
      </trkpt>
      <trkpt lat="47.23498" lon="6.02636">
        <ele>272.60000610352</ele>
        <time>2019-09-11T12:24:58Z</time>
      </trkpt>
      <trkpt lat="47.23499" lon="6.02635">
        <ele>272.60000610352</ele>
        <time>2019-09-11T12:24:59Z</time>
      </trkpt>
      <trkpt lat="47.23504" lon="6.02629">
        <ele>272.79998779297</ele>
        <time>2019-09-11T12:25:07Z</time>
      </trkpt>
      <trkpt lat="47.23513" lon="6.02626">
        <ele>272.79998779297</ele>
        <time>2019-09-11T12:25:12Z</time>
      </trkpt>
      <trkpt lat="47.23514" lon="6.02625">
        <ele>272.79998779297</ele>
        <time>2019-09-11T12:25:13Z</time>
      </trkpt>
      <trkpt lat="47.23516" lon="6.02625">
        <ele>272.79998779297</ele>
        <time>2019-09-11T12:25:14Z</time>
      </trkpt>
      <trkpt lat="47.23522" lon="6.02625">
        <ele>272.79998779297</ele>
        <time>2019-09-11T12:25:18Z</time>
      </trkpt>
      <trkpt lat="47.23524" lon="6.02625">
        <ele>272.79998779297</ele>
        <time>2019-09-11T12:25:19Z</time>
      </trkpt>
      <trkpt lat="47.23533" lon="6.02627">
        <ele>273.20001220703</ele>
        <time>2019-09-11T12:25:26Z</time>
      </trkpt>
      <trkpt lat="47.23533" lon="6.02627">
        <ele>273</ele>
        <time>2019-09-11T12:25:27Z</time>
      </trkpt>
      <trkpt lat="47.23544" lon="6.02624">
        <ele>273.20001220703</ele>
        <time>2019-09-11T12:25:49Z</time>
      </trkpt>
      <trkpt lat="47.23547" lon="6.02626">
        <ele>273.20001220703</ele>
        <time>2019-09-11T12:25:52Z</time>
      </trkpt>
      <trkpt lat="47.2355" lon="6.02633">
        <ele>273.20001220703</ele>
        <time>2019-09-11T12:25:56Z</time>
      </trkpt>
      <trkpt lat="47.23552" lon="6.02635">
        <ele>273.20001220703</ele>
        <time>2019-09-11T12:25:58Z</time>
      </trkpt>
      <trkpt lat="47.23556" lon="6.02641">
        <ele>273.39999389648</ele>
        <time>2019-09-11T12:26:05Z</time>
      </trkpt>
      <trkpt lat="47.23557" lon="6.0264">
        <ele>273.60000610352</ele>
        <time>2019-09-11T12:26:07Z</time>
      </trkpt>
      <trkpt lat="47.23559" lon="6.02644">
        <ele>273.79998779297</ele>
        <time>2019-09-11T12:26:11Z</time>
      </trkpt>
      <trkpt lat="47.2356" lon="6.02647">
        <ele>273.79998779297</ele>
        <time>2019-09-11T12:26:14Z</time>
      </trkpt>
      <trkpt lat="47.23563" lon="6.02646">
        <ele>273.79998779297</ele>
        <time>2019-09-11T12:26:16Z</time>
      </trkpt>
      <trkpt lat="47.23563" lon="6.02649">
        <ele>273.79998779297</ele>
        <time>2019-09-11T12:26:52Z</time>
      </trkpt>
      <trkpt lat="47.23564" lon="6.02649">
        <ele>273.79998779297</ele>
        <time>2019-09-11T12:26:54Z</time>
      </trkpt>
      <trkpt lat="47.23559" lon="6.02649">
        <ele>273.79998779297</ele>
        <time>2019-09-11T12:27:02Z</time>
      </trkpt>
      <trkpt lat="47.23557" lon="6.02647">
        <ele>273.79998779297</ele>
        <time>2019-09-11T12:27:03Z</time>
      </trkpt>
      <trkpt lat="47.23551" lon="6.02637">
        <ele>273.79998779297</ele>
        <time>2019-09-11T12:27:07Z</time>
      </trkpt>
      <trkpt lat="47.23548" lon="6.02632">
        <ele>273.79998779297</ele>
        <time>2019-09-11T12:27:09Z</time>
      </trkpt>
      <trkpt lat="47.23549" lon="6.02622">
        <ele>273.60000610352</ele>
        <time>2019-09-11T12:27:13Z</time>
      </trkpt>
      <trkpt lat="47.23547" lon="6.02617">
        <ele>273.60000610352</ele>
        <time>2019-09-11T12:27:16Z</time>
      </trkpt>
      <trkpt lat="47.23548" lon="6.02616">
        <ele>273.39999389648</ele>
        <time>2019-09-11T12:27:18Z</time>
      </trkpt>
      <trkpt lat="47.23555" lon="6.02613">
        <ele>273.20001220703</ele>
        <time>2019-09-11T12:27:23Z</time>
      </trkpt>
      <trkpt lat="47.23564" lon="6.02609">
        <ele>273.20001220703</ele>
        <time>2019-09-11T12:27:28Z</time>
      </trkpt>
      <trkpt lat="47.23565" lon="6.02607">
        <ele>273.20001220703</ele>
        <time>2019-09-11T12:27:29Z</time>
      </trkpt>
      <trkpt lat="47.23565" lon="6.02603">
        <ele>273.20001220703</ele>
        <time>2019-09-11T12:27:32Z</time>
      </trkpt>
      <trkpt lat="47.23566" lon="6.026">
        <ele>273.39999389648</ele>
        <time>2019-09-11T12:27:42Z</time>
      </trkpt>
      <trkpt lat="47.23566" lon="6.02598">
        <ele>273.39999389648</ele>
        <time>2019-09-11T12:27:43Z</time>
      </trkpt>
      <trkpt lat="47.23564" lon="6.02587">
        <ele>273.39999389648</ele>
        <time>2019-09-11T12:27:47Z</time>
      </trkpt>
      <trkpt lat="47.23555" lon="6.02573">
        <ele>272.79998779297</ele>
        <time>2019-09-11T12:27:52Z</time>
      </trkpt>
      <trkpt lat="47.23554" lon="6.0257">
        <ele>272.79998779297</ele>
        <time>2019-09-11T12:27:53Z</time>
      </trkpt>
      <trkpt lat="47.23556" lon="6.02561">
        <ele>272.60000610352</ele>
        <time>2019-09-11T12:27:56Z</time>
      </trkpt>
      <trkpt lat="47.2356" lon="6.02553">
        <ele>272.60000610352</ele>
        <time>2019-09-11T12:27:59Z</time>
      </trkpt>
      <trkpt lat="47.23563" lon="6.0255">
        <ele>272.60000610352</ele>
        <time>2019-09-11T12:28:01Z</time>
      </trkpt>
      <trkpt lat="47.23563" lon="6.02549">
        <ele>272.60000610352</ele>
        <time>2019-09-11T12:28:02Z</time>
      </trkpt>
      <trkpt lat="47.23568" lon="6.02546">
        <ele>272.39999389648</ele>
        <time>2019-09-11T12:29:00Z</time>
      </trkpt>
      <trkpt lat="47.23574" lon="6.02541">
        <ele>272.39999389648</ele>
        <time>2019-09-11T12:29:04Z</time>
      </trkpt>
      <trkpt lat="47.23587" lon="6.02518">
        <ele>272</ele>
        <time>2019-09-11T12:29:12Z</time>
      </trkpt>
      <trkpt lat="47.23591" lon="6.02511">
        <ele>272</ele>
        <time>2019-09-11T12:29:16Z</time>
      </trkpt>
      <trkpt lat="47.23598" lon="6.02501">
        <ele>272</ele>
        <time>2019-09-11T12:29:22Z</time>
      </trkpt>
      <trkpt lat="47.23601" lon="6.02499">
        <ele>272</ele>
        <time>2019-09-11T12:29:26Z</time>
      </trkpt>
      <trkpt lat="47.236" lon="6.02501">
        <ele>272</ele>
        <time>2019-09-11T12:29:27Z</time>
      </trkpt>
      <trkpt lat="47.23588" lon="6.02517">
        <ele>272</ele>
        <time>2019-09-11T12:29:34Z</time>
      </trkpt>
      <trkpt lat="47.23577" lon="6.0253">
        <ele>272</ele>
        <time>2019-09-11T12:29:40Z</time>
      </trkpt>
      <trkpt lat="47.23562" lon="6.02553">
        <ele>272.20001220703</ele>
        <time>2019-09-11T12:29:50Z</time>
      </trkpt>
      <trkpt lat="47.23561" lon="6.02553">
        <ele>272.20001220703</ele>
        <time>2019-09-11T12:29:51Z</time>
      </trkpt>
      <trkpt lat="47.23554" lon="6.02557">
        <ele>272.60000610352</ele>
        <time>2019-09-11T12:34:20Z</time>
      </trkpt>
      <trkpt lat="47.23551" lon="6.0256">
        <ele>272.60000610352</ele>
        <time>2019-09-11T12:34:22Z</time>
      </trkpt>
      <trkpt lat="47.23546" lon="6.02568">
        <ele>272.60000610352</ele>
        <time>2019-09-11T12:34:26Z</time>
      </trkpt>
      <trkpt lat="47.23545" lon="6.0257">
        <ele>272.60000610352</ele>
        <time>2019-09-11T12:34:27Z</time>
      </trkpt>
      <trkpt lat="47.23544" lon="6.02572">
        <ele>272.60000610352</ele>
        <time>2019-09-11T12:34:29Z</time>
      </trkpt>
      <trkpt lat="47.23542" lon="6.02576">
        <ele>272.60000610352</ele>
        <time>2019-09-11T12:34:33Z</time>
      </trkpt>
      <trkpt lat="47.23542" lon="6.02577">
        <ele>272.60000610352</ele>
        <time>2019-09-11T12:34:34Z</time>
      </trkpt>
      <trkpt lat="47.23542" lon="6.02582">
        <ele>272.60000610352</ele>
        <time>2019-09-11T12:34:38Z</time>
      </trkpt>
      <trkpt lat="47.23543" lon="6.02591">
        <ele>272.79998779297</ele>
        <time>2019-09-11T12:34:46Z</time>
      </trkpt>
      <trkpt lat="47.2355" lon="6.02597">
        <ele>273.20001220703</ele>
        <time>2019-09-11T12:34:54Z</time>
      </trkpt>
      <trkpt lat="47.23552" lon="6.02602">
        <ele>273.39999389648</ele>
        <time>2019-09-11T12:34:59Z</time>
      </trkpt>
      <trkpt lat="47.23554" lon="6.02605">
        <ele>273.39999389648</ele>
        <time>2019-09-11T12:35:01Z</time>
      </trkpt>
      <trkpt lat="47.23559" lon="6.02605">
        <ele>273.60000610352</ele>
        <time>2019-09-11T12:35:08Z</time>
      </trkpt>
      <trkpt lat="47.2356" lon="6.02605">
        <ele>273.60000610352</ele>
        <time>2019-09-11T12:35:09Z</time>
      </trkpt>
      <trkpt lat="47.23563" lon="6.02601">
        <ele>273.20001220703</ele>
        <time>2019-09-11T12:39:50Z</time>
      </trkpt>
      <trkpt lat="47.23565" lon="6.02598">
        <ele>273.20001220703</ele>
        <time>2019-09-11T12:39:52Z</time>
      </trkpt>
      <trkpt lat="47.23565" lon="6.02596">
        <ele>273.20001220703</ele>
        <time>2019-09-11T12:39:54Z</time>
      </trkpt>
      <trkpt lat="47.23568" lon="6.02596">
        <ele>273</ele>
        <time>2019-09-11T12:39:57Z</time>
      </trkpt>
      <trkpt lat="47.23575" lon="6.02603">
        <ele>273</ele>
        <time>2019-09-11T12:40:03Z</time>
      </trkpt>
      <trkpt lat="47.23576" lon="6.02605">
        <ele>273</ele>
        <time>2019-09-11T12:40:04Z</time>
      </trkpt>
      <trkpt lat="47.23586" lon="6.0262">
        <ele>273</ele>
        <time>2019-09-11T12:40:12Z</time>
      </trkpt>
      <trkpt lat="47.23594" lon="6.02632">
        <ele>273.20001220703</ele>
        <time>2019-09-11T12:40:20Z</time>
      </trkpt>
      <trkpt lat="47.23599" lon="6.0264">
        <ele>273.20001220703</ele>
        <time>2019-09-11T12:40:27Z</time>
      </trkpt>
      <trkpt lat="47.23601" lon="6.0264">
        <ele>273.39999389648</ele>
        <time>2019-09-11T12:40:28Z</time>
      </trkpt>
      <trkpt lat="47.23607" lon="6.02643">
        <ele>273.39999389648</ele>
        <time>2019-09-11T12:42:05Z</time>
      </trkpt>
      <trkpt lat="47.23605" lon="6.02647">
        <ele>273.39999389648</ele>
        <time>2019-09-11T12:42:07Z</time>
      </trkpt>
      <trkpt lat="47.23604" lon="6.02662">
        <ele>273.39999389648</ele>
        <time>2019-09-11T12:42:12Z</time>
      </trkpt>
      <trkpt lat="47.23604" lon="6.02678">
        <ele>273.60000610352</ele>
        <time>2019-09-11T12:42:17Z</time>
      </trkpt>
      <trkpt lat="47.23597" lon="6.02697">
        <ele>273.60000610352</ele>
        <time>2019-09-11T12:42:24Z</time>
      </trkpt>
      <trkpt lat="47.23593" lon="6.02718">
        <ele>273.79998779297</ele>
        <time>2019-09-11T12:42:31Z</time>
      </trkpt>
      <trkpt lat="47.236" lon="6.02729">
        <ele>274</ele>
        <time>2019-09-11T12:42:36Z</time>
      </trkpt>
      <trkpt lat="47.2361" lon="6.02748">
        <ele>274</ele>
        <time>2019-09-11T12:42:42Z</time>
      </trkpt>
      <trkpt lat="47.23615" lon="6.02761">
        <ele>274.20001220703</ele>
        <time>2019-09-11T12:42:45Z</time>
      </trkpt>
      <trkpt lat="47.23622" lon="6.0278">
        <ele>274</ele>
        <time>2019-09-11T12:42:49Z</time>
      </trkpt>
      <trkpt lat="47.23637" lon="6.02814">
        <ele>274</ele>
        <time>2019-09-11T12:42:57Z</time>
      </trkpt>
      <trkpt lat="47.23648" lon="6.02833">
        <ele>273.79998779297</ele>
        <time>2019-09-11T12:43:03Z</time>
      </trkpt>
      <trkpt lat="47.23657" lon="6.02844">
        <ele>273.60000610352</ele>
        <time>2019-09-11T12:43:08Z</time>
      </trkpt>
      <trkpt lat="47.23659" lon="6.02844">
        <ele>273.60000610352</ele>
        <time>2019-09-11T12:43:10Z</time>
      </trkpt>
      <trkpt lat="47.2366" lon="6.02848">
        <ele>273.60000610352</ele>
        <time>2019-09-11T12:43:24Z</time>
      </trkpt>
      <trkpt lat="47.23659" lon="6.02852">
        <ele>273.60000610352</ele>
        <time>2019-09-11T12:43:26Z</time>
      </trkpt>
      <trkpt lat="47.23651" lon="6.02867">
        <ele>273.60000610352</ele>
        <time>2019-09-11T12:43:33Z</time>
      </trkpt>
      <trkpt lat="47.23641" lon="6.02883">
        <ele>273.60000610352</ele>
        <time>2019-09-11T12:43:39Z</time>
      </trkpt>
      <trkpt lat="47.23626" lon="6.02904">
        <ele>274</ele>
        <time>2019-09-11T12:43:46Z</time>
      </trkpt>
      <trkpt lat="47.23624" lon="6.02906">
        <ele>274</ele>
        <time>2019-09-11T12:43:47Z</time>
      </trkpt>
      <trkpt lat="47.2362" lon="6.02909">
        <ele>274.20001220703</ele>
        <time>2019-09-11T12:43:50Z</time>
      </trkpt>
      <trkpt lat="47.23619" lon="6.02909">
        <ele>274.20001220703</ele>
        <time>2019-09-11T12:43:51Z</time>
      </trkpt>
      <trkpt lat="47.23615" lon="6.02912">
        <ele>274.20001220703</ele>
        <time>2019-09-11T12:43:54Z</time>
      </trkpt>
      <trkpt lat="47.23614" lon="6.02913">
        <ele>274.20001220703</ele>
        <time>2019-09-11T12:43:57Z</time>
      </trkpt>
      <trkpt lat="47.23614" lon="6.02915">
        <ele>274.39999389648</ele>
        <time>2019-09-11T12:44:00Z</time>
      </trkpt>
      <trkpt lat="47.23619" lon="6.02918">
        <ele>274.39999389648</ele>
        <time>2019-09-11T12:44:04Z</time>
      </trkpt>
      <trkpt lat="47.23627" lon="6.02928">
        <ele>274.39999389648</ele>
        <time>2019-09-11T12:44:09Z</time>
      </trkpt>
      <trkpt lat="47.23624" lon="6.02944">
        <ele>274.20001220703</ele>
        <time>2019-09-11T12:44:13Z</time>
      </trkpt>
      <trkpt lat="47.23619" lon="6.02971">
        <ele>274</ele>
        <time>2019-09-11T12:44:19Z</time>
      </trkpt>
      <trkpt lat="47.23617" lon="6.02995">
        <ele>273.79998779297</ele>
        <time>2019-09-11T12:44:26Z</time>
      </trkpt>
      <trkpt lat="47.2362" lon="6.02995">
        <ele>273.79998779297</ele>
        <time>2019-09-11T12:44:30Z</time>
      </trkpt>
      <trkpt lat="47.23619" lon="6.02979">
        <ele>273.60000610352</ele>
        <time>2019-09-11T12:44:35Z</time>
      </trkpt>
      <trkpt lat="47.23622" lon="6.02953">
        <ele>273.39999389648</ele>
        <time>2019-09-11T12:44:42Z</time>
      </trkpt>
      <trkpt lat="47.23626" lon="6.02928">
        <ele>273.60000610352</ele>
        <time>2019-09-11T12:44:48Z</time>
      </trkpt>
      <trkpt lat="47.23635" lon="6.02907">
        <ele>273.79998779297</ele>
        <time>2019-09-11T12:44:53Z</time>
      </trkpt>
      <trkpt lat="47.23641" lon="6.02901">
        <ele>274</ele>
        <time>2019-09-11T12:44:58Z</time>
      </trkpt>
      <trkpt lat="47.23648" lon="6.0289">
        <ele>274.20001220703</ele>
        <time>2019-09-11T12:45:07Z</time>
      </trkpt>
      <trkpt lat="47.23649" lon="6.02885">
        <ele>274.20001220703</ele>
        <time>2019-09-11T12:45:12Z</time>
      </trkpt>
      <trkpt lat="47.2365" lon="6.02882">
        <ele>274</ele>
        <time>2019-09-11T12:45:17Z</time>
      </trkpt>
      <trkpt lat="47.23654" lon="6.02876">
        <ele>274</ele>
        <time>2019-09-11T12:45:21Z</time>
      </trkpt>
      <trkpt lat="47.2366" lon="6.02865">
        <ele>273.79998779297</ele>
        <time>2019-09-11T12:45:27Z</time>
      </trkpt>
      <trkpt lat="47.23666" lon="6.02851">
        <ele>274</ele>
        <time>2019-09-11T12:45:34Z</time>
      </trkpt>
      <trkpt lat="47.23668" lon="6.0285">
        <ele>274</ele>
        <time>2019-09-11T12:45:37Z</time>
      </trkpt>
      <trkpt lat="47.23668" lon="6.02842">
        <ele>273.39999389648</ele>
        <time>2019-09-11T12:46:00Z</time>
      </trkpt>
      <trkpt lat="47.23669" lon="6.02838">
        <ele>273.39999389648</ele>
        <time>2019-09-11T12:46:01Z</time>
      </trkpt>
      <trkpt lat="47.23676" lon="6.02823">
        <ele>273.39999389648</ele>
        <time>2019-09-11T12:46:05Z</time>
      </trkpt>
      <trkpt lat="47.23688" lon="6.02805">
        <ele>273.39999389648</ele>
        <time>2019-09-11T12:46:10Z</time>
      </trkpt>
      <trkpt lat="47.23704" lon="6.02778">
        <ele>273.39999389648</ele>
        <time>2019-09-11T12:46:17Z</time>
      </trkpt>
      <trkpt lat="47.23718" lon="6.02743">
        <ele>273</ele>
        <time>2019-09-11T12:46:26Z</time>
      </trkpt>
      <trkpt lat="47.23724" lon="6.02726">
        <ele>273</ele>
        <time>2019-09-11T12:46:31Z</time>
      </trkpt>
      <trkpt lat="47.23738" lon="6.02694">
        <ele>273.20001220703</ele>
        <time>2019-09-11T12:46:40Z</time>
      </trkpt>
      <trkpt lat="47.23752" lon="6.02674">
        <ele>273.39999389648</ele>
        <time>2019-09-11T12:46:47Z</time>
      </trkpt>
      <trkpt lat="47.23774" lon="6.02649">
        <ele>273.39999389648</ele>
        <time>2019-09-11T12:46:56Z</time>
      </trkpt>
      <trkpt lat="47.23791" lon="6.02629">
        <ele>272.79998779297</ele>
        <time>2019-09-11T12:47:03Z</time>
      </trkpt>
      <trkpt lat="47.23808" lon="6.02608">
        <ele>272.60000610352</ele>
        <time>2019-09-11T12:47:11Z</time>
      </trkpt>
      <trkpt lat="47.23819" lon="6.02591">
        <ele>272.60000610352</ele>
        <time>2019-09-11T12:47:17Z</time>
      </trkpt>
      <trkpt lat="47.2383" lon="6.02574">
        <ele>272.60000610352</ele>
        <time>2019-09-11T12:47:23Z</time>
      </trkpt>
      <trkpt lat="47.23845" lon="6.02545">
        <ele>272.39999389648</ele>
        <time>2019-09-11T12:47:31Z</time>
      </trkpt>
      <trkpt lat="47.23854" lon="6.02529">
        <ele>272.39999389648</ele>
        <time>2019-09-11T12:47:35Z</time>
      </trkpt>
      <trkpt lat="47.23857" lon="6.02523">
        <ele>272.39999389648</ele>
        <time>2019-09-11T12:47:37Z</time>
      </trkpt>
      <trkpt lat="47.23868" lon="6.02508">
        <ele>272.39999389648</ele>
        <time>2019-09-11T12:47:44Z</time>
      </trkpt>
      <trkpt lat="47.23869" lon="6.02507">
        <ele>272.39999389648</ele>
        <time>2019-09-11T12:47:45Z</time>
      </trkpt>
      <trkpt lat="47.2387" lon="6.02504">
        <ele>272.20001220703</ele>
        <time>2019-09-11T12:47:48Z</time>
      </trkpt>
      <trkpt lat="47.23873" lon="6.02499">
        <ele>272.20001220703</ele>
        <time>2019-09-11T12:47:50Z</time>
      </trkpt>
      <trkpt lat="47.23887" lon="6.02478">
        <ele>272.20001220703</ele>
        <time>2019-09-11T12:47:57Z</time>
      </trkpt>
      <trkpt lat="47.23899" lon="6.02463">
        <ele>272.20001220703</ele>
        <time>2019-09-11T12:48:03Z</time>
      </trkpt>
      <trkpt lat="47.23912" lon="6.02445">
        <ele>272</ele>
        <time>2019-09-11T12:48:10Z</time>
      </trkpt>
      <trkpt lat="47.23926" lon="6.02423">
        <ele>272</ele>
        <time>2019-09-11T12:48:17Z</time>
      </trkpt>
      <trkpt lat="47.23943" lon="6.02393">
        <ele>271.79998779297</ele>
        <time>2019-09-11T12:48:26Z</time>
      </trkpt>
      <trkpt lat="47.23951" lon="6.02378">
        <ele>271.79998779297</ele>
        <time>2019-09-11T12:48:31Z</time>
      </trkpt>
      <trkpt lat="47.23959" lon="6.02364">
        <ele>271.60000610352</ele>
        <time>2019-09-11T12:48:37Z</time>
      </trkpt>
      <trkpt lat="47.23964" lon="6.02346">
        <ele>271.39999389648</ele>
        <time>2019-09-11T12:48:43Z</time>
      </trkpt>
      <trkpt lat="47.23965" lon="6.02316">
        <ele>271.20001220703</ele>
        <time>2019-09-11T12:48:51Z</time>
      </trkpt>
      <trkpt lat="47.23966" lon="6.02312">
        <ele>271.20001220703</ele>
        <time>2019-09-11T12:48:52Z</time>
      </trkpt>
      <trkpt lat="47.2397" lon="6.02308">
        <ele>271.20001220703</ele>
        <time>2019-09-11T12:48:54Z</time>
      </trkpt>
      <trkpt lat="47.23972" lon="6.02308">
        <ele>271.20001220703</ele>
        <time>2019-09-11T12:48:55Z</time>
      </trkpt>
      <trkpt lat="47.2398" lon="6.02309">
        <ele>271.20001220703</ele>
        <time>2019-09-11T12:48:59Z</time>
      </trkpt>
      <trkpt lat="47.23989" lon="6.02311">
        <ele>271.20001220703</ele>
        <time>2019-09-11T12:49:04Z</time>
      </trkpt>
      <trkpt lat="47.23992" lon="6.02303">
        <ele>271.20001220703</ele>
        <time>2019-09-11T12:49:10Z</time>
      </trkpt>
      <trkpt lat="47.23994" lon="6.02299">
        <ele>271</ele>
        <time>2019-09-11T12:49:14Z</time>
      </trkpt>
      <trkpt lat="47.23996" lon="6.02297">
        <ele>271</ele>
        <time>2019-09-11T12:49:16Z</time>
      </trkpt>
      <trkpt lat="47.23995" lon="6.02288">
        <ele>271</ele>
        <time>2019-09-11T12:49:20Z</time>
      </trkpt>
      <trkpt lat="47.23992" lon="6.02273">
        <ele>271.20001220703</ele>
        <time>2019-09-11T12:49:24Z</time>
      </trkpt>
      <trkpt lat="47.23992" lon="6.02269">
        <ele>271.20001220703</ele>
        <time>2019-09-11T12:49:25Z</time>
      </trkpt>
      <trkpt lat="47.23989" lon="6.02247">
        <ele>271.20001220703</ele>
        <time>2019-09-11T12:49:31Z</time>
      </trkpt>
      <trkpt lat="47.23987" lon="6.0224">
        <ele>271.39999389648</ele>
        <time>2019-09-11T12:49:36Z</time>
      </trkpt>
      <trkpt lat="47.23989" lon="6.02239">
        <ele>271.60000610352</ele>
        <time>2019-09-11T12:50:15Z</time>
      </trkpt>
      <trkpt lat="47.23989" lon="6.02237">
        <ele>271.60000610352</ele>
        <time>2019-09-11T12:50:16Z</time>
      </trkpt>
      <trkpt lat="47.2399" lon="6.02232">
        <ele>271.60000610352</ele>
        <time>2019-09-11T12:50:18Z</time>
      </trkpt>
      <trkpt lat="47.23994" lon="6.0222">
        <ele>271.39999389648</ele>
        <time>2019-09-11T12:50:23Z</time>
      </trkpt>
      <trkpt lat="47.23996" lon="6.02215">
        <ele>271.20001220703</ele>
        <time>2019-09-11T12:50:25Z</time>
      </trkpt>
      <trkpt lat="47.23994" lon="6.02202">
        <ele>271.20001220703</ele>
        <time>2019-09-11T12:50:30Z</time>
      </trkpt>
      <trkpt lat="47.23987" lon="6.02184">
        <ele>271</ele>
        <time>2019-09-11T12:50:37Z</time>
      </trkpt>
      <trkpt lat="47.23987" lon="6.02183">
        <ele>270.79998779297</ele>
        <time>2019-09-11T12:50:40Z</time>
      </trkpt>
      <trkpt lat="47.23987" lon="6.02181">
        <ele>270.60000610352</ele>
        <time>2019-09-11T12:50:44Z</time>
      </trkpt>
      <trkpt lat="47.23988" lon="6.02177">
        <ele>270.60000610352</ele>
        <time>2019-09-11T12:50:47Z</time>
      </trkpt>
      <trkpt lat="47.23986" lon="6.02171">
        <ele>270.60000610352</ele>
        <time>2019-09-11T12:50:50Z</time>
      </trkpt>
      <trkpt lat="47.2398" lon="6.02154">
        <ele>270.39999389648</ele>
        <time>2019-09-11T12:50:56Z</time>
      </trkpt>
      <trkpt lat="47.2397" lon="6.02136">
        <ele>270.60000610352</ele>
        <time>2019-09-11T12:51:03Z</time>
      </trkpt>
      <trkpt lat="47.2396" lon="6.02118">
        <ele>270.60000610352</ele>
        <time>2019-09-11T12:51:10Z</time>
      </trkpt>
      <trkpt lat="47.23958" lon="6.02104">
        <ele>271</ele>
        <time>2019-09-11T12:51:15Z</time>
      </trkpt>
      <trkpt lat="47.2395" lon="6.02091">
        <ele>271.39999389648</ele>
        <time>2019-09-11T12:51:20Z</time>
      </trkpt>
      <trkpt lat="47.23937" lon="6.02073">
        <ele>271.20001220703</ele>
        <time>2019-09-11T12:51:27Z</time>
      </trkpt>
      <trkpt lat="47.23921" lon="6.02047">
        <ele>270.20001220703</ele>
        <time>2019-09-11T12:51:34Z</time>
      </trkpt>
      <trkpt lat="47.23915" lon="6.02036">
        <ele>270</ele>
        <time>2019-09-11T12:51:37Z</time>
      </trkpt>
      <trkpt lat="47.23906" lon="6.02022">
        <ele>269.79998779297</ele>
        <time>2019-09-11T12:51:41Z</time>
      </trkpt>
      <trkpt lat="47.23893" lon="6.02009">
        <ele>269.60000610352</ele>
        <time>2019-09-11T12:51:46Z</time>
      </trkpt>
      <trkpt lat="47.23869" lon="6.01993">
        <ele>269.39999389648</ele>
        <time>2019-09-11T12:51:52Z</time>
      </trkpt>
      <trkpt lat="47.23854" lon="6.01987">
        <ele>269.20001220703</ele>
        <time>2019-09-11T12:51:56Z</time>
      </trkpt>
      <trkpt lat="47.23852" lon="6.01987">
        <ele>269.20001220703</ele>
        <time>2019-09-11T12:51:57Z</time>
      </trkpt>
      <trkpt lat="47.23839" lon="6.01998">
        <ele>269.20001220703</ele>
        <time>2019-09-11T12:52:01Z</time>
      </trkpt>
      <trkpt lat="47.23836" lon="6.02">
        <ele>269.20001220703</ele>
        <time>2019-09-11T12:52:02Z</time>
      </trkpt>
      <trkpt lat="47.23818" lon="6.02025">
        <ele>269.39999389648</ele>
        <time>2019-09-11T12:52:10Z</time>
      </trkpt>
      <trkpt lat="47.23805" lon="6.02047">
        <ele>269.79998779297</ele>
        <time>2019-09-11T12:52:17Z</time>
      </trkpt>
      <trkpt lat="47.23792" lon="6.02064">
        <ele>269.79998779297</ele>
        <time>2019-09-11T12:52:23Z</time>
      </trkpt>
      <trkpt lat="47.23777" lon="6.02086">
        <ele>270.20001220703</ele>
        <time>2019-09-11T12:52:31Z</time>
      </trkpt>
      <trkpt lat="47.23765" lon="6.02105">
        <ele>270.60000610352</ele>
        <time>2019-09-11T12:52:38Z</time>
      </trkpt>
      <trkpt lat="47.23761" lon="6.02112">
        <ele>270.79998779297</ele>
        <time>2019-09-11T12:52:40Z</time>
      </trkpt>
      <trkpt lat="47.2375" lon="6.0213">
        <ele>270.79998779297</ele>
        <time>2019-09-11T12:52:46Z</time>
      </trkpt>
      <trkpt lat="47.23741" lon="6.02149">
        <ele>271.20001220703</ele>
        <time>2019-09-11T12:52:52Z</time>
      </trkpt>
      <trkpt lat="47.23732" lon="6.02176">
        <ele>271.20001220703</ele>
        <time>2019-09-11T12:52:59Z</time>
      </trkpt>
      <trkpt lat="47.23729" lon="6.02185">
        <ele>271</ele>
        <time>2019-09-11T12:53:04Z</time>
      </trkpt>
      <trkpt lat="47.23719" lon="6.02194">
        <ele>271</ele>
        <time>2019-09-11T12:53:13Z</time>
      </trkpt>
      <trkpt lat="47.2371" lon="6.022">
        <ele>271</ele>
        <time>2019-09-11T12:53:17Z</time>
      </trkpt>
      <trkpt lat="47.23702" lon="6.02203">
        <ele>271</ele>
        <time>2019-09-11T12:53:21Z</time>
      </trkpt>
      <trkpt lat="47.237" lon="6.02203">
        <ele>270.79998779297</ele>
        <time>2019-09-11T12:53:25Z</time>
      </trkpt>
      <trkpt lat="47.23701" lon="6.02203">
        <ele>270.60000610352</ele>
        <time>2019-09-11T12:53:26Z</time>
      </trkpt>
      <trkpt lat="47.237" lon="6.02204">
        <ele>270.60000610352</ele>
        <time>2019-09-11T12:53:53Z</time>
      </trkpt>
      <trkpt lat="47.23697" lon="6.02207">
        <ele>270.60000610352</ele>
        <time>2019-09-11T12:53:55Z</time>
      </trkpt>
      <trkpt lat="47.23686" lon="6.02217">
        <ele>270.60000610352</ele>
        <time>2019-09-11T12:54:01Z</time>
      </trkpt>
      <trkpt lat="47.23677" lon="6.02219">
        <ele>270.60000610352</ele>
        <time>2019-09-11T12:54:06Z</time>
      </trkpt>
      <trkpt lat="47.23676" lon="6.02218">
        <ele>270.60000610352</ele>
        <time>2019-09-11T12:54:07Z</time>
      </trkpt>
      <trkpt lat="47.23665" lon="6.02218">
        <ele>270.60000610352</ele>
        <time>2019-09-11T12:54:11Z</time>
      </trkpt>
      <trkpt lat="47.23651" lon="6.02212">
        <ele>270.60000610352</ele>
        <time>2019-09-11T12:54:15Z</time>
      </trkpt>
      <trkpt lat="47.23645" lon="6.02209">
        <ele>270.60000610352</ele>
        <time>2019-09-11T12:54:17Z</time>
      </trkpt>
      <trkpt lat="47.2363" lon="6.02206">
        <ele>270</ele>
        <time>2019-09-11T12:54:22Z</time>
      </trkpt>
      <trkpt lat="47.23617" lon="6.02196">
        <ele>269.79998779297</ele>
        <time>2019-09-11T12:54:28Z</time>
      </trkpt>
      <trkpt lat="47.236" lon="6.02187">
        <ele>269.79998779297</ele>
        <time>2019-09-11T12:54:34Z</time>
      </trkpt>
      <trkpt lat="47.23586" lon="6.02177">
        <ele>269.39999389648</ele>
        <time>2019-09-11T12:54:40Z</time>
      </trkpt>
      <trkpt lat="47.23562" lon="6.02159">
        <ele>269.39999389648</ele>
        <time>2019-09-11T12:54:49Z</time>
      </trkpt>
      <trkpt lat="47.23552" lon="6.02155">
        <ele>269.60000610352</ele>
        <time>2019-09-11T12:54:56Z</time>
      </trkpt>
      <trkpt lat="47.23551" lon="6.02154">
        <ele>269.60000610352</ele>
        <time>2019-09-11T12:54:58Z</time>
      </trkpt>
      <trkpt lat="47.23546" lon="6.02151">
        <ele>269.60000610352</ele>
        <time>2019-09-11T12:55:01Z</time>
      </trkpt>
      <trkpt lat="47.23536" lon="6.02144">
        <ele>269.60000610352</ele>
        <time>2019-09-11T12:55:06Z</time>
      </trkpt>
      <trkpt lat="47.23532" lon="6.02142">
        <ele>269.60000610352</ele>
        <time>2019-09-11T12:55:08Z</time>
      </trkpt>
      <trkpt lat="47.23524" lon="6.02134">
        <ele>269.39999389648</ele>
        <time>2019-09-11T12:55:13Z</time>
      </trkpt>
      <trkpt lat="47.23511" lon="6.02123">
        <ele>269.39999389648</ele>
        <time>2019-09-11T12:55:18Z</time>
      </trkpt>
      <trkpt lat="47.23499" lon="6.02115">
        <ele>269.20001220703</ele>
        <time>2019-09-11T12:55:25Z</time>
      </trkpt>
      <trkpt lat="47.23499" lon="6.02115">
        <ele>269.20001220703</ele>
        <time>2019-09-11T12:55:26Z</time>
      </trkpt>
      <trkpt lat="47.23497" lon="6.02114">
        <ele>269</ele>
        <time>2019-09-11T12:55:35Z</time>
      </trkpt>
      <trkpt lat="47.23496" lon="6.02114">
        <ele>268.79998779297</ele>
        <time>2019-09-11T12:55:36Z</time>
      </trkpt>
      <trkpt lat="47.23493" lon="6.02113">
        <ele>268.79998779297</ele>
        <time>2019-09-11T12:55:38Z</time>
      </trkpt>
      <trkpt lat="47.23483" lon="6.02109">
        <ele>268.79998779297</ele>
        <time>2019-09-11T12:55:44Z</time>
      </trkpt>
      <trkpt lat="47.23471" lon="6.02103">
        <ele>268.79998779297</ele>
        <time>2019-09-11T12:55:49Z</time>
      </trkpt>
      <trkpt lat="47.23451" lon="6.02093">
        <ele>268.79998779297</ele>
        <time>2019-09-11T12:55:56Z</time>
      </trkpt>
      <trkpt lat="47.23436" lon="6.02082">
        <ele>268.60000610352</ele>
        <time>2019-09-11T12:56:03Z</time>
      </trkpt>
      <trkpt lat="47.23436" lon="6.02081">
        <ele>268.60000610352</ele>
        <time>2019-09-11T12:56:06Z</time>
      </trkpt>
      <trkpt lat="47.23437" lon="6.0208">
        <ele>268.60000610352</ele>
        <time>2019-09-11T12:57:03Z</time>
      </trkpt>
      <trkpt lat="47.23433" lon="6.02094">
        <ele>268.60000610352</ele>
        <time>2019-09-11T12:57:09Z</time>
      </trkpt>
      <trkpt lat="47.23428" lon="6.0211">
        <ele>268.39999389648</ele>
        <time>2019-09-11T12:57:15Z</time>
      </trkpt>
      <trkpt lat="47.23424" lon="6.02118">
        <ele>268.39999389648</ele>
        <time>2019-09-11T12:57:19Z</time>
      </trkpt>
      <trkpt lat="47.23423" lon="6.02122">
        <ele>268.39999389648</ele>
        <time>2019-09-11T12:57:21Z</time>
      </trkpt>
      <trkpt lat="47.23422" lon="6.02134">
        <ele>268.39999389648</ele>
        <time>2019-09-11T12:57:27Z</time>
      </trkpt>
      <trkpt lat="47.23422" lon="6.02152">
        <ele>268.20001220703</ele>
        <time>2019-09-11T12:57:32Z</time>
      </trkpt>
      <trkpt lat="47.23418" lon="6.02169">
        <ele>268.20001220703</ele>
        <time>2019-09-11T12:57:38Z</time>
      </trkpt>
      <trkpt lat="47.23418" lon="6.02171">
        <ele>268.20001220703</ele>
        <time>2019-09-11T12:57:39Z</time>
      </trkpt>
      <trkpt lat="47.23418" lon="6.02179">
        <ele>268.39999389648</ele>
        <time>2019-09-11T12:57:43Z</time>
      </trkpt>
      <trkpt lat="47.23416" lon="6.02187">
        <ele>268.60000610352</ele>
        <time>2019-09-11T12:57:47Z</time>
      </trkpt>
      <trkpt lat="47.23415" lon="6.02192">
        <ele>268.79998779297</ele>
        <time>2019-09-11T12:57:49Z</time>
      </trkpt>
      <trkpt lat="47.23414" lon="6.02208">
        <ele>268.79998779297</ele>
        <time>2019-09-11T12:57:54Z</time>
      </trkpt>
      <trkpt lat="47.23411" lon="6.02232">
        <ele>268.79998779297</ele>
        <time>2019-09-11T12:58:01Z</time>
      </trkpt>
      <trkpt lat="47.2342" lon="6.02248">
        <ele>269.20001220703</ele>
        <time>2019-09-11T12:58:06Z</time>
      </trkpt>
      <trkpt lat="47.23432" lon="6.02263">
        <ele>269.20001220703</ele>
        <time>2019-09-11T12:58:11Z</time>
      </trkpt>
      <trkpt lat="47.23442" lon="6.02279">
        <ele>269.20001220703</ele>
        <time>2019-09-11T12:58:18Z</time>
      </trkpt>
      <trkpt lat="47.23459" lon="6.02292">
        <ele>269</ele>
        <time>2019-09-11T12:58:26Z</time>
      </trkpt>
      <trkpt lat="47.23471" lon="6.02286">
        <ele>268.79998779297</ele>
        <time>2019-09-11T12:58:30Z</time>
      </trkpt>
      <trkpt lat="47.23487" lon="6.02267">
        <ele>268.60000610352</ele>
        <time>2019-09-11T12:58:36Z</time>
      </trkpt>
      <trkpt lat="47.23503" lon="6.02246">
        <ele>268.60000610352</ele>
        <time>2019-09-11T12:58:43Z</time>
      </trkpt>
      <trkpt lat="47.23511" lon="6.02225">
        <ele>268.79998779297</ele>
        <time>2019-09-11T12:58:49Z</time>
      </trkpt>
      <trkpt lat="47.2352" lon="6.02194">
        <ele>269</ele>
        <time>2019-09-11T12:58:56Z</time>
      </trkpt>
      <trkpt lat="47.23526" lon="6.02175">
        <ele>269</ele>
        <time>2019-09-11T12:59:02Z</time>
      </trkpt>
      <trkpt lat="47.2353" lon="6.02159">
        <ele>269</ele>
        <time>2019-09-11T12:59:08Z</time>
      </trkpt>
      <trkpt lat="47.23532" lon="6.02161">
        <ele>269</ele>
        <time>2019-09-11T12:59:12Z</time>
      </trkpt>
      <trkpt lat="47.23534" lon="6.02161">
        <ele>269.60000610352</ele>
        <time>2019-09-11T12:59:28Z</time>
      </trkpt>
      <trkpt lat="47.23538" lon="6.02161">
        <ele>269.60000610352</ele>
        <time>2019-09-11T12:59:31Z</time>
      </trkpt>
      <trkpt lat="47.23548" lon="6.02166">
        <ele>269.60000610352</ele>
        <time>2019-09-11T12:59:37Z</time>
      </trkpt>
      <trkpt lat="47.23559" lon="6.02173">
        <ele>269.60000610352</ele>
        <time>2019-09-11T12:59:44Z</time>
      </trkpt>
      <trkpt lat="47.23561" lon="6.02174">
        <ele>269.60000610352</ele>
        <time>2019-09-11T12:59:45Z</time>
      </trkpt>
      <trkpt lat="47.23566" lon="6.02177">
        <ele>269.60000610352</ele>
        <time>2019-09-11T12:59:48Z</time>
      </trkpt>
      <trkpt lat="47.2358" lon="6.02185">
        <ele>269.79998779297</ele>
        <time>2019-09-11T12:59:55Z</time>
      </trkpt>
      <trkpt lat="47.23594" lon="6.02195">
        <ele>269.79998779297</ele>
        <time>2019-09-11T13:00:03Z</time>
      </trkpt>
      <trkpt lat="47.23602" lon="6.02201">
        <ele>269.79998779297</ele>
        <time>2019-09-11T13:00:09Z</time>
      </trkpt>
      <trkpt lat="47.23613" lon="6.02205">
        <ele>269.60000610352</ele>
        <time>2019-09-11T13:00:30Z</time>
      </trkpt>
      <trkpt lat="47.23619" lon="6.02207">
        <ele>269.60000610352</ele>
        <time>2019-09-11T13:00:33Z</time>
      </trkpt>
      <trkpt lat="47.23637" lon="6.02215">
        <ele>269.60000610352</ele>
        <time>2019-09-11T13:00:41Z</time>
      </trkpt>
      <trkpt lat="47.23652" lon="6.02226">
        <ele>269.79998779297</ele>
        <time>2019-09-11T13:00:47Z</time>
      </trkpt>
      <trkpt lat="47.23663" lon="6.02233">
        <ele>269.79998779297</ele>
        <time>2019-09-11T13:00:53Z</time>
      </trkpt>
      <trkpt lat="47.23661" lon="6.02242">
        <ele>270.20001220703</ele>
        <time>2019-09-11T13:00:56Z</time>
      </trkpt>
      <trkpt lat="47.23659" lon="6.02245">
        <ele>270.39999389648</ele>
        <time>2019-09-11T13:00:57Z</time>
      </trkpt>
      <trkpt lat="47.2365" lon="6.02262">
        <ele>270.60000610352</ele>
        <time>2019-09-11T13:01:02Z</time>
      </trkpt>
      <trkpt lat="47.23636" lon="6.02289">
        <ele>270.60000610352</ele>
        <time>2019-09-11T13:01:09Z</time>
      </trkpt>
      <trkpt lat="47.2362" lon="6.02321">
        <ele>270.60000610352</ele>
        <time>2019-09-11T13:01:16Z</time>
      </trkpt>
      <trkpt lat="47.23605" lon="6.0234">
        <ele>270.39999389648</ele>
        <time>2019-09-11T13:01:21Z</time>
      </trkpt>
      <trkpt lat="47.23583" lon="6.0237">
        <ele>270.20001220703</ele>
        <time>2019-09-11T13:01:29Z</time>
      </trkpt>
      <trkpt lat="47.23571" lon="6.02393">
        <ele>270</ele>
        <time>2019-09-11T13:01:35Z</time>
      </trkpt>
      <trkpt lat="47.23559" lon="6.02413">
        <ele>270.20001220703</ele>
        <time>2019-09-11T13:01:40Z</time>
      </trkpt>
      <trkpt lat="47.23549" lon="6.02427">
        <ele>270.20001220703</ele>
        <time>2019-09-11T13:01:44Z</time>
      </trkpt>
      <trkpt lat="47.23534" lon="6.02448">
        <ele>270.60000610352</ele>
        <time>2019-09-11T13:01:50Z</time>
      </trkpt>
      <trkpt lat="47.23518" lon="6.02467">
        <ele>270.79998779297</ele>
        <time>2019-09-11T13:01:57Z</time>
      </trkpt>
      <trkpt lat="47.23513" lon="6.02473">
        <ele>271</ele>
        <time>2019-09-11T13:02:02Z</time>
      </trkpt>
      <trkpt lat="47.23513" lon="6.02474">
        <ele>271</ele>
        <time>2019-09-11T13:02:03Z</time>
      </trkpt>
      <trkpt lat="47.23513" lon="6.02477">
        <ele>271</ele>
        <time>2019-09-11T13:02:05Z</time>
      </trkpt>
      <trkpt lat="47.23511" lon="6.0249">
        <ele>271</ele>
        <time>2019-09-11T13:02:09Z</time>
      </trkpt>
      <trkpt lat="47.23511" lon="6.02493">
        <ele>271</ele>
        <time>2019-09-11T13:02:10Z</time>
      </trkpt>
      <trkpt lat="47.23512" lon="6.02502">
        <ele>271.20001220703</ele>
        <time>2019-09-11T13:02:14Z</time>
      </trkpt>
      <trkpt lat="47.23513" lon="6.02504">
        <ele>271.20001220703</ele>
        <time>2019-09-11T13:02:15Z</time>
      </trkpt>
      <trkpt lat="47.23511" lon="6.02509">
        <ele>271.20001220703</ele>
        <time>2019-09-11T13:02:18Z</time>
      </trkpt>
      <trkpt lat="47.23511" lon="6.02515">
        <ele>271.39999389648</ele>
        <time>2019-09-11T13:02:22Z</time>
      </trkpt>
      <trkpt lat="47.23514" lon="6.02526">
        <ele>271.60000610352</ele>
        <time>2019-09-11T13:02:29Z</time>
      </trkpt>
      <trkpt lat="47.23516" lon="6.02535">
        <ele>271.60000610352</ele>
        <time>2019-09-11T13:02:35Z</time>
      </trkpt>
      <trkpt lat="47.23515" lon="6.02537">
        <ele>271.60000610352</ele>
        <time>2019-09-11T13:02:36Z</time>
      </trkpt>
      <trkpt lat="47.23512" lon="6.0255">
        <ele>271.79998779297</ele>
        <time>2019-09-11T13:02:41Z</time>
      </trkpt>
      <trkpt lat="47.23506" lon="6.02569">
        <ele>271.79998779297</ele>
        <time>2019-09-11T13:02:48Z</time>
      </trkpt>
      <trkpt lat="47.23505" lon="6.02595">
        <ele>271.79998779297</ele>
        <time>2019-09-11T13:02:55Z</time>
      </trkpt>
      <trkpt lat="47.23506" lon="6.02605">
        <ele>272</ele>
        <time>2019-09-11T13:03:01Z</time>
      </trkpt>
      <trkpt lat="47.23506" lon="6.02606">
        <ele>272.20001220703</ele>
        <time>2019-09-11T13:03:02Z</time>
      </trkpt>
      <trkpt lat="47.23503" lon="6.02613">
        <ele>272.20001220703</ele>
        <time>2019-09-11T13:03:07Z</time>
      </trkpt>
      <trkpt lat="47.23501" lon="6.02615">
        <ele>272.20001220703</ele>
        <time>2019-09-11T13:03:09Z</time>
      </trkpt>
      <trkpt lat="47.23492" lon="6.02628">
        <ele>272.20001220703</ele>
        <time>2019-09-11T13:03:18Z</time>
      </trkpt>
      <trkpt lat="47.23488" lon="6.02633">
        <ele>272.20001220703</ele>
        <time>2019-09-11T13:03:22Z</time>
      </trkpt>
      <trkpt lat="47.23486" lon="6.02636">
        <ele>272.20001220703</ele>
        <time>2019-09-11T13:03:24Z</time>
      </trkpt>
      <trkpt lat="47.23478" lon="6.02644">
        <ele>271.79998779297</ele>
        <time>2019-09-11T13:03:29Z</time>
      </trkpt>
      <trkpt lat="47.23464" lon="6.02646">
        <ele>271.39999389648</ele>
        <time>2019-09-11T13:03:35Z</time>
      </trkpt>
      <trkpt lat="47.23455" lon="6.02635">
        <ele>271</ele>
        <time>2019-09-11T13:03:40Z</time>
      </trkpt>
      <trkpt lat="47.23448" lon="6.02627">
        <ele>270.79998779297</ele>
        <time>2019-09-11T13:03:43Z</time>
      </trkpt>
      <trkpt lat="47.23443" lon="6.0262">
        <ele>270.60000610352</ele>
        <time>2019-09-11T13:03:46Z</time>
      </trkpt>
      <trkpt lat="47.23441" lon="6.02618">
        <ele>270.60000610352</ele>
        <time>2019-09-11T13:03:47Z</time>
      </trkpt>
      <trkpt lat="47.23436" lon="6.02619">
        <ele>270.60000610352</ele>
        <time>2019-09-11T13:03:49Z</time>
      </trkpt>
      <trkpt lat="47.23423" lon="6.02637">
        <ele>270.39999389648</ele>
        <time>2019-09-11T13:03:54Z</time>
      </trkpt>
      <trkpt lat="47.23406" lon="6.02666">
        <ele>270.39999389648</ele>
        <time>2019-09-11T13:04:01Z</time>
      </trkpt>
      <trkpt lat="47.23396" lon="6.0268">
        <ele>270.39999389648</ele>
        <time>2019-09-11T13:04:07Z</time>
      </trkpt>
      <trkpt lat="47.23394" lon="6.02684">
        <ele>270.39999389648</ele>
        <time>2019-09-11T13:04:09Z</time>
      </trkpt>
      <trkpt lat="47.23397" lon="6.02694">
        <ele>270.60000610352</ele>
        <time>2019-09-11T13:04:12Z</time>
      </trkpt>
      <trkpt lat="47.23398" lon="6.02697">
        <ele>270.60000610352</ele>
        <time>2019-09-11T13:04:13Z</time>
      </trkpt>
      <trkpt lat="47.2341" lon="6.02725">
        <ele>270.60000610352</ele>
        <time>2019-09-11T13:04:20Z</time>
      </trkpt>
      <trkpt lat="47.23424" lon="6.02752">
        <ele>271</ele>
        <time>2019-09-11T13:04:27Z</time>
      </trkpt>
      <trkpt lat="47.23436" lon="6.0277">
        <ele>271.39999389648</ele>
        <time>2019-09-11T13:04:33Z</time>
      </trkpt>
      <trkpt lat="47.23444" lon="6.02781">
        <ele>271.79998779297</ele>
        <time>2019-09-11T13:04:37Z</time>
      </trkpt>
      <trkpt lat="47.23449" lon="6.02787">
        <ele>271.79998779297</ele>
        <time>2019-09-11T13:04:39Z</time>
      </trkpt>
      <trkpt lat="47.23459" lon="6.02806">
        <ele>272.79998779297</ele>
        <time>2019-09-11T13:04:45Z</time>
      </trkpt>
      <trkpt lat="47.23465" lon="6.02816">
        <ele>273</ele>
        <time>2019-09-11T13:04:48Z</time>
      </trkpt>
      <trkpt lat="47.23481" lon="6.02842">
        <ele>273.60000610352</ele>
        <time>2019-09-11T13:04:55Z</time>
      </trkpt>
      <trkpt lat="47.23484" lon="6.02846">
        <ele>273.60000610352</ele>
        <time>2019-09-11T13:04:56Z</time>
      </trkpt>
      <trkpt lat="47.235" lon="6.02873">
        <ele>274.39999389648</ele>
        <time>2019-09-11T13:05:04Z</time>
      </trkpt>
      <trkpt lat="47.23503" lon="6.02876">
        <ele>274.60000610352</ele>
        <time>2019-09-11T13:05:07Z</time>
      </trkpt>
      <trkpt lat="47.23504" lon="6.02876">
        <ele>274.79998779297</ele>
        <time>2019-09-11T13:05:09Z</time>
      </trkpt>
      <trkpt lat="47.23504" lon="6.02878">
        <ele>275.39999389648</ele>
        <time>2019-09-11T13:05:16Z</time>
      </trkpt>
      <trkpt lat="47.23502" lon="6.02887">
        <ele>275.60000610352</ele>
        <time>2019-09-11T13:05:19Z</time>
      </trkpt>
      <trkpt lat="47.23498" lon="6.02898">
        <ele>275.60000610352</ele>
        <time>2019-09-11T13:05:22Z</time>
      </trkpt>
      <trkpt lat="47.23492" lon="6.02907">
        <ele>275.60000610352</ele>
        <time>2019-09-11T13:05:26Z</time>
      </trkpt>
      <trkpt lat="47.23486" lon="6.02918">
        <ele>276</ele>
        <time>2019-09-11T13:05:31Z</time>
      </trkpt>
      <trkpt lat="47.23485" lon="6.0292">
        <ele>276</ele>
        <time>2019-09-11T13:05:32Z</time>
      </trkpt>
      <trkpt lat="47.23482" lon="6.02935">
        <ele>276.60000610352</ele>
        <time>2019-09-11T13:05:39Z</time>
      </trkpt>
      <trkpt lat="47.23483" lon="6.02938">
        <ele>276.79998779297</ele>
        <time>2019-09-11T13:05:43Z</time>
      </trkpt>
      <trkpt lat="47.23488" lon="6.02941">
        <ele>278</ele>
        <time>2019-09-11T13:27:27Z</time>
      </trkpt>
      <trkpt lat="47.23493" lon="6.0293">
        <ele>278</ele>
        <time>2019-09-11T13:27:30Z</time>
      </trkpt>
      <trkpt lat="47.23494" lon="6.02926">
        <ele>278</ele>
        <time>2019-09-11T13:27:31Z</time>
      </trkpt>
      <trkpt lat="47.23508" lon="6.02896">
        <ele>277.79998779297</ele>
        <time>2019-09-11T13:27:37Z</time>
      </trkpt>
      <trkpt lat="47.23522" lon="6.02867">
        <ele>277</ele>
        <time>2019-09-11T13:27:42Z</time>
      </trkpt>
      <trkpt lat="47.23528" lon="6.02857">
        <ele>276.60000610352</ele>
        <time>2019-09-11T13:27:44Z</time>
      </trkpt>
      <trkpt lat="47.2354" lon="6.02837">
        <ele>276.20001220703</ele>
        <time>2019-09-11T13:27:48Z</time>
      </trkpt>
      <trkpt lat="47.23542" lon="6.02832">
        <ele>275.79998779297</ele>
        <time>2019-09-11T13:27:49Z</time>
      </trkpt>
      <trkpt lat="47.23547" lon="6.02823">
        <ele>275.60000610352</ele>
        <time>2019-09-11T13:27:51Z</time>
      </trkpt>
      <trkpt lat="47.23567" lon="6.02784">
        <ele>275.39999389648</ele>
        <time>2019-09-11T13:27:59Z</time>
      </trkpt>
      <trkpt lat="47.23583" lon="6.02743">
        <ele>275</ele>
        <time>2019-09-11T13:28:07Z</time>
      </trkpt>
      <trkpt lat="47.23595" lon="6.02726">
        <ele>275</ele>
        <time>2019-09-11T13:28:12Z</time>
      </trkpt>
      <trkpt lat="47.23604" lon="6.02728">
        <ele>274.79998779297</ele>
        <time>2019-09-11T13:28:16Z</time>
      </trkpt>
      <trkpt lat="47.23613" lon="6.02744">
        <ele>274.79998779297</ele>
        <time>2019-09-11T13:28:21Z</time>
      </trkpt>
      <trkpt lat="47.23618" lon="6.02753">
        <ele>274.79998779297</ele>
        <time>2019-09-11T13:28:23Z</time>
      </trkpt>
      <trkpt lat="47.23629" lon="6.02773">
        <ele>274.79998779297</ele>
        <time>2019-09-11T13:28:27Z</time>
      </trkpt>
      <trkpt lat="47.23639" lon="6.02803">
        <ele>274.60000610352</ele>
        <time>2019-09-11T13:28:33Z</time>
      </trkpt>
      <trkpt lat="47.23662" lon="6.02843">
        <ele>274.20001220703</ele>
        <time>2019-09-11T13:28:42Z</time>
      </trkpt>
      <trkpt lat="47.23663" lon="6.02848">
        <ele>274.20001220703</ele>
        <time>2019-09-11T13:28:44Z</time>
      </trkpt>
      <trkpt lat="47.23662" lon="6.02853">
        <ele>274.20001220703</ele>
        <time>2019-09-11T13:28:46Z</time>
      </trkpt>
      <trkpt lat="47.23659" lon="6.0286">
        <ele>274.20001220703</ele>
        <time>2019-09-11T13:28:48Z</time>
      </trkpt>
      <trkpt lat="47.23653" lon="6.02871">
        <ele>274.20001220703</ele>
        <time>2019-09-11T13:28:51Z</time>
      </trkpt>
      <trkpt lat="47.23634" lon="6.02895">
        <ele>274.20001220703</ele>
        <time>2019-09-11T13:28:58Z</time>
      </trkpt>
      <trkpt lat="47.23631" lon="6.02898">
        <ele>274.20001220703</ele>
        <time>2019-09-11T13:29:02Z</time>
      </trkpt>
      <trkpt lat="47.23632" lon="6.02902">
        <ele>274.39999389648</ele>
        <time>2019-09-11T13:29:06Z</time>
      </trkpt>
      <trkpt lat="47.23632" lon="6.0291">
        <ele>274.60000610352</ele>
        <time>2019-09-11T13:29:09Z</time>
      </trkpt>
      <trkpt lat="47.23624" lon="6.02941">
        <ele>274.60000610352</ele>
        <time>2019-09-11T13:29:15Z</time>
      </trkpt>
      <trkpt lat="47.23614" lon="6.02978">
        <ele>274.60000610352</ele>
        <time>2019-09-11T13:29:22Z</time>
      </trkpt>
      <trkpt lat="47.23616" lon="6.02984">
        <ele>274.60000610352</ele>
        <time>2019-09-11T13:29:23Z</time>
      </trkpt>
      <trkpt lat="47.2362" lon="6.02996">
        <ele>274.39999389648</ele>
        <time>2019-09-11T13:29:25Z</time>
      </trkpt>
      <trkpt lat="47.23626" lon="6.03006">
        <ele>274.20001220703</ele>
        <time>2019-09-11T13:29:27Z</time>
      </trkpt>
      <trkpt lat="47.23639" lon="6.03025">
        <ele>274.20001220703</ele>
        <time>2019-09-11T13:29:31Z</time>
      </trkpt>
      <trkpt lat="47.23646" lon="6.03035">
        <ele>274</ele>
        <time>2019-09-11T13:29:33Z</time>
      </trkpt>
      <trkpt lat="47.23669" lon="6.03069">
        <ele>273.39999389648</ele>
        <time>2019-09-11T13:29:39Z</time>
      </trkpt>
      <trkpt lat="47.23687" lon="6.03094">
        <ele>272.79998779297</ele>
        <time>2019-09-11T13:29:43Z</time>
      </trkpt>
      <trkpt lat="47.23709" lon="6.03125">
        <ele>272.20001220703</ele>
        <time>2019-09-11T13:29:48Z</time>
      </trkpt>
      <trkpt lat="47.23725" lon="6.03148">
        <ele>271.79998779297</ele>
        <time>2019-09-11T13:29:52Z</time>
      </trkpt>
      <trkpt lat="47.2374" lon="6.03169">
        <ele>271.60000610352</ele>
        <time>2019-09-11T13:29:56Z</time>
      </trkpt>
      <trkpt lat="47.23754" lon="6.03185">
        <ele>271.39999389648</ele>
        <time>2019-09-11T13:30:01Z</time>
      </trkpt>
      <trkpt lat="47.23755" lon="6.03186">
        <ele>271.60000610352</ele>
        <time>2019-09-11T13:30:05Z</time>
      </trkpt>
      <trkpt lat="47.23759" lon="6.0319">
        <ele>271.60000610352</ele>
        <time>2019-09-11T13:30:11Z</time>
      </trkpt>
      <trkpt lat="47.23766" lon="6.03196">
        <ele>271.39999389648</ele>
        <time>2019-09-11T13:30:13Z</time>
      </trkpt>
      <trkpt lat="47.23775" lon="6.03213">
        <ele>271.60000610352</ele>
        <time>2019-09-11T13:30:17Z</time>
      </trkpt>
      <trkpt lat="47.23778" lon="6.03218">
        <ele>271.60000610352</ele>
        <time>2019-09-11T13:30:18Z</time>
      </trkpt>
      <trkpt lat="47.23791" lon="6.03248">
        <ele>272</ele>
        <time>2019-09-11T13:30:24Z</time>
      </trkpt>
      <trkpt lat="47.23802" lon="6.03283">
        <ele>272.79998779297</ele>
        <time>2019-09-11T13:30:30Z</time>
      </trkpt>
      <trkpt lat="47.23808" lon="6.03301">
        <ele>273.20001220703</ele>
        <time>2019-09-11T13:30:33Z</time>
      </trkpt>
      <trkpt lat="47.23821" lon="6.03341">
        <ele>274.20001220703</ele>
        <time>2019-09-11T13:30:40Z</time>
      </trkpt>
      <trkpt lat="47.23833" lon="6.03377">
        <ele>274.20001220703</ele>
        <time>2019-09-11T13:30:47Z</time>
      </trkpt>
      <trkpt lat="47.23841" lon="6.03377">
        <ele>274.20001220703</ele>
        <time>2019-09-11T13:30:50Z</time>
      </trkpt>
      <trkpt lat="47.23849" lon="6.03377">
        <ele>274.20001220703</ele>
        <time>2019-09-11T13:30:53Z</time>
      </trkpt>
      <trkpt lat="47.23852" lon="6.03376">
        <ele>274</ele>
        <time>2019-09-11T13:30:54Z</time>
      </trkpt>
      <trkpt lat="47.2386" lon="6.03373">
        <ele>274</ele>
        <time>2019-09-11T13:30:57Z</time>
      </trkpt>
      <trkpt lat="47.23864" lon="6.03375">
        <ele>274</ele>
        <time>2019-09-11T13:30:59Z</time>
      </trkpt>
      <trkpt lat="47.23867" lon="6.03376">
        <ele>274</ele>
        <time>2019-09-11T13:31:01Z</time>
      </trkpt>
      <trkpt lat="47.2387" lon="6.03374">
        <ele>273.79998779297</ele>
        <time>2019-09-11T13:31:03Z</time>
      </trkpt>
      <trkpt lat="47.23879" lon="6.0337">
        <ele>273.79998779297</ele>
        <time>2019-09-11T13:31:07Z</time>
      </trkpt>
      <trkpt lat="47.23884" lon="6.03366">
        <ele>273.60000610352</ele>
        <time>2019-09-11T13:31:09Z</time>
      </trkpt>
      <trkpt lat="47.239" lon="6.0335">
        <ele>272.79998779297</ele>
        <time>2019-09-11T13:31:15Z</time>
      </trkpt>
      <trkpt lat="47.23903" lon="6.03348">
        <ele>272.60000610352</ele>
        <time>2019-09-11T13:31:16Z</time>
      </trkpt>
      <trkpt lat="47.23915" lon="6.03346">
        <ele>272</ele>
        <time>2019-09-11T13:31:19Z</time>
      </trkpt>
      <trkpt lat="47.23929" lon="6.03342">
        <ele>271.60000610352</ele>
        <time>2019-09-11T13:31:22Z</time>
      </trkpt>
      <trkpt lat="47.23942" lon="6.03333">
        <ele>271.20001220703</ele>
        <time>2019-09-11T13:31:25Z</time>
      </trkpt>
      <trkpt lat="47.23971" lon="6.03314">
        <ele>270.79998779297</ele>
        <time>2019-09-11T13:31:32Z</time>
      </trkpt>
      <trkpt lat="47.23997" lon="6.03298">
        <ele>270.60000610352</ele>
        <time>2019-09-11T13:31:38Z</time>
      </trkpt>
      <trkpt lat="47.24019" lon="6.03278">
        <ele>270.60000610352</ele>
        <time>2019-09-11T13:31:44Z</time>
      </trkpt>
      <trkpt lat="47.24034" lon="6.03264">
        <ele>270.79998779297</ele>
        <time>2019-09-11T13:31:48Z</time>
      </trkpt>
      <trkpt lat="47.24041" lon="6.03258">
        <ele>270.60000610352</ele>
        <time>2019-09-11T13:31:51Z</time>
      </trkpt>
      <trkpt lat="47.24053" lon="6.03249">
        <ele>270.60000610352</ele>
        <time>2019-09-11T13:31:58Z</time>
      </trkpt>
      <trkpt lat="47.24067" lon="6.03233">
        <ele>270.60000610352</ele>
        <time>2019-09-11T13:32:04Z</time>
      </trkpt>
      <trkpt lat="47.24084" lon="6.03203">
        <ele>270.79998779297</ele>
        <time>2019-09-11T13:32:10Z</time>
      </trkpt>
      <trkpt lat="47.24088" lon="6.03198">
        <ele>270.79998779297</ele>
        <time>2019-09-11T13:32:11Z</time>
      </trkpt>
      <trkpt lat="47.24095" lon="6.03187">
        <ele>270.79998779297</ele>
        <time>2019-09-11T13:32:13Z</time>
      </trkpt>
      <trkpt lat="47.24108" lon="6.03164">
        <ele>270.79998779297</ele>
        <time>2019-09-11T13:32:17Z</time>
      </trkpt>
      <trkpt lat="47.24126" lon="6.03126">
        <ele>270.60000610352</ele>
        <time>2019-09-11T13:32:24Z</time>
      </trkpt>
      <trkpt lat="47.24138" lon="6.03088">
        <ele>270.39999389648</ele>
        <time>2019-09-11T13:32:30Z</time>
      </trkpt>
      <trkpt lat="47.2414" lon="6.03081">
        <ele>270.39999389648</ele>
        <time>2019-09-11T13:32:31Z</time>
      </trkpt>
      <trkpt lat="47.24148" lon="6.03064">
        <ele>270</ele>
        <time>2019-09-11T13:32:34Z</time>
      </trkpt>
      <trkpt lat="47.24151" lon="6.03059">
        <ele>269.79998779297</ele>
        <time>2019-09-11T13:32:35Z</time>
      </trkpt>
      <trkpt lat="47.24173" lon="6.03016">
        <ele>269.60000610352</ele>
        <time>2019-09-11T13:32:43Z</time>
      </trkpt>
      <trkpt lat="47.24189" lon="6.02985">
        <ele>269.60000610352</ele>
        <time>2019-09-11T13:32:50Z</time>
      </trkpt>
      <trkpt lat="47.24193" lon="6.02958">
        <ele>269.79998779297</ele>
        <time>2019-09-11T13:32:56Z</time>
      </trkpt>
      <trkpt lat="47.24197" lon="6.0293">
        <ele>269.79998779297</ele>
        <time>2019-09-11T13:33:02Z</time>
      </trkpt>
      <trkpt lat="47.24207" lon="6.02914">
        <ele>269.39999389648</ele>
        <time>2019-09-11T13:33:07Z</time>
      </trkpt>
      <trkpt lat="47.24215" lon="6.02895">
        <ele>269.20001220703</ele>
        <time>2019-09-11T13:33:11Z</time>
      </trkpt>
      <trkpt lat="47.24217" lon="6.0289">
        <ele>269</ele>
        <time>2019-09-11T13:33:12Z</time>
      </trkpt>
      <trkpt lat="47.24223" lon="6.02859">
        <ele>268.79998779297</ele>
        <time>2019-09-11T13:33:17Z</time>
      </trkpt>
      <trkpt lat="47.24227" lon="6.02815">
        <ele>268.60000610352</ele>
        <time>2019-09-11T13:33:24Z</time>
      </trkpt>
      <trkpt lat="47.24233" lon="6.02758">
        <ele>268.39999389648</ele>
        <time>2019-09-11T13:33:33Z</time>
      </trkpt>
      <trkpt lat="47.24239" lon="6.02706">
        <ele>268.60000610352</ele>
        <time>2019-09-11T13:33:41Z</time>
      </trkpt>
      <trkpt lat="47.24247" lon="6.02648">
        <ele>268.60000610352</ele>
        <time>2019-09-11T13:33:50Z</time>
      </trkpt>
      <trkpt lat="47.24251" lon="6.02618">
        <ele>268.79998779297</ele>
        <time>2019-09-11T13:33:55Z</time>
      </trkpt>
      <trkpt lat="47.24252" lon="6.02608">
        <ele>268.79998779297</ele>
        <time>2019-09-11T13:33:57Z</time>
      </trkpt>
      <trkpt lat="47.24252" lon="6.02591">
        <ele>268.79998779297</ele>
        <time>2019-09-11T13:34:01Z</time>
      </trkpt>
      <trkpt lat="47.24253" lon="6.02586">
        <ele>268.79998779297</ele>
        <time>2019-09-11T13:34:02Z</time>
      </trkpt>
      <trkpt lat="47.24255" lon="6.02576">
        <ele>269</ele>
        <time>2019-09-11T13:34:05Z</time>
      </trkpt>
      <trkpt lat="47.24258" lon="6.02554">
        <ele>269.20001220703</ele>
        <time>2019-09-11T13:34:09Z</time>
      </trkpt>
      <trkpt lat="47.2426" lon="6.02535">
        <ele>269.20001220703</ele>
        <time>2019-09-11T13:34:13Z</time>
      </trkpt>
      <trkpt lat="47.24257" lon="6.02512">
        <ele>269.39999389648</ele>
        <time>2019-09-11T13:34:19Z</time>
      </trkpt>
      <trkpt lat="47.24258" lon="6.02509">
        <ele>270</ele>
        <time>2019-09-11T13:34:22Z</time>
      </trkpt>
      <trkpt lat="47.24259" lon="6.02502">
        <ele>271.39999389648</ele>
        <time>2019-09-11T13:34:26Z</time>
      </trkpt>
      <trkpt lat="47.24256" lon="6.02474">
        <ele>271.79998779297</ele>
        <time>2019-09-11T13:34:32Z</time>
      </trkpt>
      <trkpt lat="47.24258" lon="6.02456">
        <ele>271.79998779297</ele>
        <time>2019-09-11T13:34:35Z</time>
      </trkpt>
      <trkpt lat="47.24258" lon="6.0245">
        <ele>271.79998779297</ele>
        <time>2019-09-11T13:34:36Z</time>
      </trkpt>
      <trkpt lat="47.24254" lon="6.02413">
        <ele>271.60000610352</ele>
        <time>2019-09-11T13:34:42Z</time>
      </trkpt>
      <trkpt lat="47.2425" lon="6.02372">
        <ele>271.79998779297</ele>
        <time>2019-09-11T13:34:49Z</time>
      </trkpt>
      <trkpt lat="47.24248" lon="6.02351">
        <ele>271.79998779297</ele>
        <time>2019-09-11T13:34:54Z</time>
      </trkpt>
      <trkpt lat="47.24245" lon="6.02335">
        <ele>271.60000610352</ele>
        <time>2019-09-11T13:34:57Z</time>
      </trkpt>
      <trkpt lat="47.24242" lon="6.02326">
        <ele>271.60000610352</ele>
        <time>2019-09-11T13:34:59Z</time>
      </trkpt>
      <trkpt lat="47.24229" lon="6.02292">
        <ele>271.79998779297</ele>
        <time>2019-09-11T13:35:05Z</time>
      </trkpt>
      <trkpt lat="47.24216" lon="6.0227">
        <ele>271.79998779297</ele>
        <time>2019-09-11T13:35:10Z</time>
      </trkpt>
      <trkpt lat="47.24207" lon="6.02257">
        <ele>271.79998779297</ele>
        <time>2019-09-11T13:35:13Z</time>
      </trkpt>
      <trkpt lat="47.24197" lon="6.02245">
        <ele>271.79998779297</ele>
        <time>2019-09-11T13:35:16Z</time>
      </trkpt>
      <trkpt lat="47.24167" lon="6.02218">
        <ele>271.79998779297</ele>
        <time>2019-09-11T13:35:24Z</time>
      </trkpt>
      <trkpt lat="47.24151" lon="6.02202">
        <ele>271.79998779297</ele>
        <time>2019-09-11T13:35:28Z</time>
      </trkpt>
      <trkpt lat="47.24148" lon="6.02198">
        <ele>271.79998779297</ele>
        <time>2019-09-11T13:35:29Z</time>
      </trkpt>
      <trkpt lat="47.24137" lon="6.02187">
        <ele>271.79998779297</ele>
        <time>2019-09-11T13:35:32Z</time>
      </trkpt>
      <trkpt lat="47.24127" lon="6.02176">
        <ele>271.79998779297</ele>
        <time>2019-09-11T13:35:35Z</time>
      </trkpt>
      <trkpt lat="47.24115" lon="6.02163">
        <ele>271.79998779297</ele>
        <time>2019-09-11T13:35:38Z</time>
      </trkpt>
      <trkpt lat="47.24104" lon="6.02149">
        <ele>271.79998779297</ele>
        <time>2019-09-11T13:35:41Z</time>
      </trkpt>
      <trkpt lat="47.24075" lon="6.0211">
        <ele>272</ele>
        <time>2019-09-11T13:35:49Z</time>
      </trkpt>
      <trkpt lat="47.24043" lon="6.02066">
        <ele>272.20001220703</ele>
        <time>2019-09-11T13:35:58Z</time>
      </trkpt>
      <trkpt lat="47.2402" lon="6.02036">
        <ele>272.60000610352</ele>
        <time>2019-09-11T13:36:05Z</time>
      </trkpt>
      <trkpt lat="47.24011" lon="6.02017">
        <ele>272.60000610352</ele>
        <time>2019-09-11T13:36:09Z</time>
      </trkpt>
      <trkpt lat="47.24011" lon="6.02012">
        <ele>272.60000610352</ele>
        <time>2019-09-11T13:36:10Z</time>
      </trkpt>
      <trkpt lat="47.24016" lon="6.01993">
        <ele>272.60000610352</ele>
        <time>2019-09-11T13:36:14Z</time>
      </trkpt>
      <trkpt lat="47.24031" lon="6.01958">
        <ele>272.60000610352</ele>
        <time>2019-09-11T13:36:21Z</time>
      </trkpt>
      <trkpt lat="47.24049" lon="6.01918">
        <ele>272.79998779297</ele>
        <time>2019-09-11T13:36:30Z</time>
      </trkpt>
      <trkpt lat="47.24056" lon="6.01901">
        <ele>273.20001220703</ele>
        <time>2019-09-11T13:36:34Z</time>
      </trkpt>
      <trkpt lat="47.24064" lon="6.01888">
        <ele>273.79998779297</ele>
        <time>2019-09-11T13:36:38Z</time>
      </trkpt>
      <trkpt lat="47.2407" lon="6.01878">
        <ele>274.60000610352</ele>
        <time>2019-09-11T13:36:41Z</time>
      </trkpt>
      <trkpt lat="47.24083" lon="6.01858">
        <ele>275.39999389648</ele>
        <time>2019-09-11T13:36:47Z</time>
      </trkpt>
      <trkpt lat="47.24087" lon="6.01852">
        <ele>275.60000610352</ele>
        <time>2019-09-11T13:36:49Z</time>
      </trkpt>
      <trkpt lat="47.24093" lon="6.01837">
        <ele>276.39999389648</ele>
        <time>2019-09-11T13:36:53Z</time>
      </trkpt>
      <trkpt lat="47.24096" lon="6.01831">
        <ele>276.79998779297</ele>
        <time>2019-09-11T13:36:55Z</time>
      </trkpt>
      <trkpt lat="47.24101" lon="6.01823">
        <ele>277.39999389648</ele>
        <time>2019-09-11T13:36:59Z</time>
      </trkpt>
      <trkpt lat="47.24107" lon="6.01819">
        <ele>278</ele>
        <time>2019-09-11T13:37:03Z</time>
      </trkpt>
      <trkpt lat="47.2411" lon="6.01816">
        <ele>278.60000610352</ele>
        <time>2019-09-11T13:37:05Z</time>
      </trkpt>
      <trkpt lat="47.24114" lon="6.01812">
        <ele>279.20001220703</ele>
        <time>2019-09-11T13:37:08Z</time>
      </trkpt>
      <trkpt lat="47.24119" lon="6.01806">
        <ele>279.79998779297</ele>
        <time>2019-09-11T13:37:12Z</time>
      </trkpt>
      <trkpt lat="47.24122" lon="6.01804">
        <ele>280.20001220703</ele>
        <time>2019-09-11T13:37:14Z</time>
      </trkpt>
      <trkpt lat="47.24124" lon="6.01801">
        <ele>280.79998779297</ele>
        <time>2019-09-11T13:37:16Z</time>
      </trkpt>
      <trkpt lat="47.24127" lon="6.01798">
        <ele>281.39999389648</ele>
        <time>2019-09-11T13:37:18Z</time>
      </trkpt>
      <trkpt lat="47.24128" lon="6.01796">
        <ele>281.60000610352</ele>
        <time>2019-09-11T13:37:19Z</time>
      </trkpt>
      <trkpt lat="47.2413" lon="6.01795">
        <ele>281.79998779297</ele>
        <time>2019-09-11T13:37:20Z</time>
      </trkpt>
      <trkpt lat="47.24135" lon="6.01791">
        <ele>282.60000610352</ele>
        <time>2019-09-11T13:37:23Z</time>
      </trkpt>
      <trkpt lat="47.2414" lon="6.01788">
        <ele>283.20001220703</ele>
        <time>2019-09-11T13:37:26Z</time>
      </trkpt>
      <trkpt lat="47.24141" lon="6.01786">
        <ele>283.60000610352</ele>
        <time>2019-09-11T13:37:27Z</time>
      </trkpt>
      <trkpt lat="47.24146" lon="6.0178">
        <ele>284.79998779297</ele>
        <time>2019-09-11T13:37:32Z</time>
      </trkpt>
      <trkpt lat="47.24155" lon="6.01779">
        <ele>285.79998779297</ele>
        <time>2019-09-11T13:37:37Z</time>
      </trkpt>
      <trkpt lat="47.24158" lon="6.01779">
        <ele>286.60000610352</ele>
        <time>2019-09-11T13:37:39Z</time>
      </trkpt>
      <trkpt lat="47.24162" lon="6.01779">
        <ele>287.20001220703</ele>
        <time>2019-09-11T13:37:41Z</time>
      </trkpt>
      <trkpt lat="47.24168" lon="6.01779">
        <ele>288.20001220703</ele>
        <time>2019-09-11T13:37:44Z</time>
      </trkpt>
      <trkpt lat="47.24172" lon="6.01778">
        <ele>288.60000610352</ele>
        <time>2019-09-11T13:37:46Z</time>
      </trkpt>
      <trkpt lat="47.24178" lon="6.01778">
        <ele>289.20001220703</ele>
        <time>2019-09-11T13:37:49Z</time>
      </trkpt>
      <trkpt lat="47.24188" lon="6.01778">
        <ele>290.20001220703</ele>
        <time>2019-09-11T13:37:54Z</time>
      </trkpt>
      <trkpt lat="47.24201" lon="6.01779">
        <ele>291.39999389648</ele>
        <time>2019-09-11T13:38:00Z</time>
      </trkpt>
      <trkpt lat="47.24203" lon="6.0178">
        <ele>291.79998779297</ele>
        <time>2019-09-11T13:38:01Z</time>
      </trkpt>
      <trkpt lat="47.24209" lon="6.01781">
        <ele>292.39999389648</ele>
        <time>2019-09-11T13:38:04Z</time>
      </trkpt>
      <trkpt lat="47.24216" lon="6.01784">
        <ele>293</ele>
        <time>2019-09-11T13:38:07Z</time>
      </trkpt>
      <trkpt lat="47.24222" lon="6.01786">
        <ele>293.39999389648</ele>
        <time>2019-09-11T13:38:10Z</time>
      </trkpt>
      <trkpt lat="47.24228" lon="6.01785">
        <ele>294</ele>
        <time>2019-09-11T13:38:13Z</time>
      </trkpt>
      <trkpt lat="47.24233" lon="6.01779">
        <ele>294.39999389648</ele>
        <time>2019-09-11T13:38:16Z</time>
      </trkpt>
      <trkpt lat="47.24238" lon="6.01769">
        <ele>295.39999389648</ele>
        <time>2019-09-11T13:38:20Z</time>
      </trkpt>
      <trkpt lat="47.24239" lon="6.01766">
        <ele>295.60000610352</ele>
        <time>2019-09-11T13:38:21Z</time>
      </trkpt>
      <trkpt lat="47.24247" lon="6.01747">
        <ele>296.60000610352</ele>
        <time>2019-09-11T13:38:28Z</time>
      </trkpt>
      <trkpt lat="47.2425" lon="6.01742">
        <ele>296.60000610352</ele>
        <time>2019-09-11T13:38:30Z</time>
      </trkpt>
      <trkpt lat="47.2426" lon="6.01723">
        <ele>297.79998779297</ele>
        <time>2019-09-11T13:38:37Z</time>
      </trkpt>
      <trkpt lat="47.24262" lon="6.01718">
        <ele>297.79998779297</ele>
        <time>2019-09-11T13:38:39Z</time>
      </trkpt>
      <trkpt lat="47.24269" lon="6.01703">
        <ele>298.79998779297</ele>
        <time>2019-09-11T13:38:45Z</time>
      </trkpt>
      <trkpt lat="47.24269" lon="6.017">
        <ele>299</ele>
        <time>2019-09-11T13:38:46Z</time>
      </trkpt>
      <trkpt lat="47.24264" lon="6.01686">
        <ele>300</ele>
        <time>2019-09-11T13:38:51Z</time>
      </trkpt>
      <trkpt lat="47.24263" lon="6.01684">
        <ele>300.20001220703</ele>
        <time>2019-09-11T13:38:52Z</time>
      </trkpt>
      <trkpt lat="47.24257" lon="6.0166">
        <ele>301</ele>
        <time>2019-09-11T13:38:59Z</time>
      </trkpt>
      <trkpt lat="47.24256" lon="6.0165">
        <ele>301.20001220703</ele>
        <time>2019-09-11T13:39:02Z</time>
      </trkpt>
      <trkpt lat="47.24253" lon="6.01629">
        <ele>301.60000610352</ele>
        <time>2019-09-11T13:39:08Z</time>
      </trkpt>
      <trkpt lat="47.24249" lon="6.01608">
        <ele>302.39999389648</ele>
        <time>2019-09-11T13:39:13Z</time>
      </trkpt>
      <trkpt lat="47.24243" lon="6.01588">
        <ele>302.60000610352</ele>
        <time>2019-09-11T13:39:18Z</time>
      </trkpt>
      <trkpt lat="47.24234" lon="6.01574">
        <ele>303</ele>
        <time>2019-09-11T13:39:24Z</time>
      </trkpt>
      <trkpt lat="47.24232" lon="6.01571">
        <ele>303</ele>
        <time>2019-09-11T13:39:29Z</time>
      </trkpt>
      <trkpt lat="47.24232" lon="6.0157">
        <ele>302.79998779297</ele>
        <time>2019-09-11T13:39:55Z</time>
      </trkpt>
      <trkpt lat="47.24235" lon="6.01565">
        <ele>302.79998779297</ele>
        <time>2019-09-11T13:39:58Z</time>
      </trkpt>
      <trkpt lat="47.24237" lon="6.01563">
        <ele>302.79998779297</ele>
        <time>2019-09-11T13:40:02Z</time>
      </trkpt>
      <trkpt lat="47.24238" lon="6.01563">
        <ele>303.20001220703</ele>
        <time>2019-09-11T13:40:29Z</time>
      </trkpt>
      <trkpt lat="47.24241" lon="6.01559">
        <ele>303.39999389648</ele>
        <time>2019-09-11T13:40:31Z</time>
      </trkpt>
      <trkpt lat="47.24243" lon="6.01556">
        <ele>303.39999389648</ele>
        <time>2019-09-11T13:40:32Z</time>
      </trkpt>
      <trkpt lat="47.24249" lon="6.01547">
        <ele>303.79998779297</ele>
        <time>2019-09-11T13:40:35Z</time>
      </trkpt>
      <trkpt lat="47.24252" lon="6.0154">
        <ele>303.79998779297</ele>
        <time>2019-09-11T13:40:37Z</time>
      </trkpt>
      <trkpt lat="47.24253" lon="6.01536">
        <ele>304</ele>
        <time>2019-09-11T13:40:38Z</time>
      </trkpt>
      <trkpt lat="47.24252" lon="6.01527">
        <ele>304</ele>
        <time>2019-09-11T13:40:40Z</time>
      </trkpt>
      <trkpt lat="47.24251" lon="6.01524">
        <ele>304</ele>
        <time>2019-09-11T13:40:41Z</time>
      </trkpt>
      <trkpt lat="47.24245" lon="6.01504">
        <ele>304</ele>
        <time>2019-09-11T13:40:46Z</time>
      </trkpt>
      <trkpt lat="47.2425" lon="6.01486">
        <ele>304.20001220703</ele>
        <time>2019-09-11T13:40:50Z</time>
      </trkpt>
      <trkpt lat="47.24252" lon="6.01483">
        <ele>304.20001220703</ele>
        <time>2019-09-11T13:40:51Z</time>
      </trkpt>
      <trkpt lat="47.24269" lon="6.01465">
        <ele>304.39999389648</ele>
        <time>2019-09-11T13:40:57Z</time>
      </trkpt>
      <trkpt lat="47.24288" lon="6.01446">
        <ele>305</ele>
        <time>2019-09-11T13:41:04Z</time>
      </trkpt>
      <trkpt lat="47.24291" lon="6.01442">
        <ele>305.20001220703</ele>
        <time>2019-09-11T13:41:05Z</time>
      </trkpt>
      <trkpt lat="47.24302" lon="6.01431">
        <ele>306</ele>
        <time>2019-09-11T13:41:09Z</time>
      </trkpt>
      <trkpt lat="47.24307" lon="6.01425">
        <ele>306.39999389648</ele>
        <time>2019-09-11T13:41:11Z</time>
      </trkpt>
      <trkpt lat="47.24322" lon="6.01406">
        <ele>307.60000610352</ele>
        <time>2019-09-11T13:41:17Z</time>
      </trkpt>
      <trkpt lat="47.24324" lon="6.01403">
        <ele>308</ele>
        <time>2019-09-11T13:41:18Z</time>
      </trkpt>
      <trkpt lat="47.24331" lon="6.01394">
        <ele>308.79998779297</ele>
        <time>2019-09-11T13:41:21Z</time>
      </trkpt>
      <trkpt lat="47.24339" lon="6.01386">
        <ele>310</ele>
        <time>2019-09-11T13:41:24Z</time>
      </trkpt>
      <trkpt lat="47.24347" lon="6.01374">
        <ele>311</ele>
        <time>2019-09-11T13:41:28Z</time>
      </trkpt>
      <trkpt lat="47.24349" lon="6.01371">
        <ele>311.39999389648</ele>
        <time>2019-09-11T13:41:29Z</time>
      </trkpt>
      <trkpt lat="47.24361" lon="6.01357">
        <ele>312.39999389648</ele>
        <time>2019-09-11T13:41:35Z</time>
      </trkpt>
      <trkpt lat="47.24367" lon="6.01351">
        <ele>312.79998779297</ele>
        <time>2019-09-11T13:41:39Z</time>
      </trkpt>
      <trkpt lat="47.24368" lon="6.01351">
        <ele>313</ele>
        <time>2019-09-11T13:41:41Z</time>
      </trkpt>
      <trkpt lat="47.24369" lon="6.0135">
        <ele>313</ele>
        <time>2019-09-11T13:41:46Z</time>
      </trkpt>
      <trkpt lat="47.24371" lon="6.01349">
        <ele>313</ele>
        <time>2019-09-11T13:41:47Z</time>
      </trkpt>
      <trkpt lat="47.24384" lon="6.01335">
        <ele>313</ele>
        <time>2019-09-11T13:41:52Z</time>
      </trkpt>
      <trkpt lat="47.24395" lon="6.01312">
        <ele>313</ele>
        <time>2019-09-11T13:41:57Z</time>
      </trkpt>
      <trkpt lat="47.24406" lon="6.01267">
        <ele>312.20001220703</ele>
        <time>2019-09-11T13:42:05Z</time>
      </trkpt>
      <trkpt lat="47.24407" lon="6.01261">
        <ele>312</ele>
        <time>2019-09-11T13:42:06Z</time>
      </trkpt>
      <trkpt lat="47.24409" lon="6.01242">
        <ele>311.60000610352</ele>
        <time>2019-09-11T13:42:10Z</time>
      </trkpt>
      <trkpt lat="47.2441" lon="6.01233">
        <ele>310.20001220703</ele>
        <time>2019-09-11T13:42:14Z</time>
      </trkpt>
      <trkpt lat="47.2441" lon="6.01231">
        <ele>309.60000610352</ele>
        <time>2019-09-11T13:42:16Z</time>
      </trkpt>
      <trkpt lat="47.2441" lon="6.01229">
        <ele>309.20001220703</ele>
        <time>2019-09-11T13:42:18Z</time>
      </trkpt>
      <trkpt lat="47.24411" lon="6.01223">
        <ele>309</ele>
        <time>2019-09-11T13:42:21Z</time>
      </trkpt>
      <trkpt lat="47.24418" lon="6.01208">
        <ele>308.79998779297</ele>
        <time>2019-09-11T13:42:25Z</time>
      </trkpt>
      <trkpt lat="47.2442" lon="6.01204">
        <ele>308.79998779297</ele>
        <time>2019-09-11T13:42:26Z</time>
      </trkpt>
      <trkpt lat="47.2443" lon="6.01188">
        <ele>308.39999389648</ele>
        <time>2019-09-11T13:42:29Z</time>
      </trkpt>
      <trkpt lat="47.24437" lon="6.01176">
        <ele>308.20001220703</ele>
        <time>2019-09-11T13:42:31Z</time>
      </trkpt>
      <trkpt lat="47.24459" lon="6.01138">
        <ele>308.20001220703</ele>
        <time>2019-09-11T13:42:37Z</time>
      </trkpt>
      <trkpt lat="47.24467" lon="6.01126">
        <ele>308.20001220703</ele>
        <time>2019-09-11T13:42:39Z</time>
      </trkpt>
      <trkpt lat="47.24482" lon="6.01103">
        <ele>308.20001220703</ele>
        <time>2019-09-11T13:42:43Z</time>
      </trkpt>
      <trkpt lat="47.24511" lon="6.01056">
        <ele>308.60000610352</ele>
        <time>2019-09-11T13:42:51Z</time>
      </trkpt>
      <trkpt lat="47.24534" lon="6.01018">
        <ele>309.20001220703</ele>
        <time>2019-09-11T13:42:58Z</time>
      </trkpt>
      <trkpt lat="47.24537" lon="6.01013">
        <ele>309.60000610352</ele>
        <time>2019-09-11T13:42:59Z</time>
      </trkpt>
      <trkpt lat="47.24554" lon="6.00985">
        <ele>310.39999389648</ele>
        <time>2019-09-11T13:43:05Z</time>
      </trkpt>
      <trkpt lat="47.24559" lon="6.00977">
        <ele>310.60000610352</ele>
        <time>2019-09-11T13:43:07Z</time>
      </trkpt>
      <trkpt lat="47.24564" lon="6.00971">
        <ele>311.20001220703</ele>
        <time>2019-09-11T13:43:10Z</time>
      </trkpt>
      <trkpt lat="47.24565" lon="6.0097">
        <ele>311.60000610352</ele>
        <time>2019-09-11T13:43:11Z</time>
      </trkpt>
      <trkpt lat="47.24567" lon="6.00966">
        <ele>312.39999389648</ele>
        <time>2019-09-11T13:43:15Z</time>
      </trkpt>
      <trkpt lat="47.24567" lon="6.00966">
        <ele>312.39999389648</ele>
        <time>2019-09-11T13:43:16Z</time>
      </trkpt>
      <trkpt lat="47.24569" lon="6.00963">
        <ele>312.60000610352</ele>
        <time>2019-09-11T13:43:18Z</time>
      </trkpt>
      <trkpt lat="47.24573" lon="6.00957">
        <ele>312.60000610352</ele>
        <time>2019-09-11T13:43:20Z</time>
      </trkpt>
      <trkpt lat="47.24594" lon="6.00926">
        <ele>313.20001220703</ele>
        <time>2019-09-11T13:43:28Z</time>
      </trkpt>
      <trkpt lat="47.24602" lon="6.00915">
        <ele>313.79998779297</ele>
        <time>2019-09-11T13:43:31Z</time>
      </trkpt>
      <trkpt lat="47.24613" lon="6.00899">
        <ele>314.20001220703</ele>
        <time>2019-09-11T13:43:35Z</time>
      </trkpt>
      <trkpt lat="47.24621" lon="6.00887">
        <ele>314.79998779297</ele>
        <time>2019-09-11T13:43:38Z</time>
      </trkpt>
      <trkpt lat="47.24642" lon="6.00858">
        <ele>315.60000610352</ele>
        <time>2019-09-11T13:43:45Z</time>
      </trkpt>
      <trkpt lat="47.24648" lon="6.00849">
        <ele>315.79998779297</ele>
        <time>2019-09-11T13:43:47Z</time>
      </trkpt>
      <trkpt lat="47.24668" lon="6.00818">
        <ele>316.20001220703</ele>
        <time>2019-09-11T13:43:54Z</time>
      </trkpt>
      <trkpt lat="47.24682" lon="6.00793">
        <ele>316.39999389648</ele>
        <time>2019-09-11T13:44:00Z</time>
      </trkpt>
      <trkpt lat="47.24695" lon="6.00769">
        <ele>316.60000610352</ele>
        <time>2019-09-11T13:44:05Z</time>
      </trkpt>
      <trkpt lat="47.24714" lon="6.00736">
        <ele>317</ele>
        <time>2019-09-11T13:44:12Z</time>
      </trkpt>
      <trkpt lat="47.24716" lon="6.00732">
        <ele>317</ele>
        <time>2019-09-11T13:44:13Z</time>
      </trkpt>
      <trkpt lat="47.24727" lon="6.00705">
        <ele>317.20001220703</ele>
        <time>2019-09-11T13:44:18Z</time>
      </trkpt>
      <trkpt lat="47.24746" lon="6.00658">
        <ele>317.79998779297</ele>
        <time>2019-09-11T13:44:27Z</time>
      </trkpt>
      <trkpt lat="47.24752" lon="6.00645">
        <ele>318.39999389648</ele>
        <time>2019-09-11T13:44:30Z</time>
      </trkpt>
      <trkpt lat="47.24763" lon="6.00619">
        <ele>319.39999389648</ele>
        <time>2019-09-11T13:44:36Z</time>
      </trkpt>
      <trkpt lat="47.24774" lon="6.00595">
        <ele>320.60000610352</ele>
        <time>2019-09-11T13:44:42Z</time>
      </trkpt>
      <trkpt lat="47.24779" lon="6.00583">
        <ele>321.39999389648</ele>
        <time>2019-09-11T13:44:45Z</time>
      </trkpt>
      <trkpt lat="47.24785" lon="6.00571">
        <ele>321.79998779297</ele>
        <time>2019-09-11T13:44:48Z</time>
      </trkpt>
      <trkpt lat="47.24798" lon="6.00543">
        <ele>322.79998779297</ele>
        <time>2019-09-11T13:44:55Z</time>
      </trkpt>
      <trkpt lat="47.24809" lon="6.00518">
        <ele>323.79998779297</ele>
        <time>2019-09-11T13:45:01Z</time>
      </trkpt>
      <trkpt lat="47.24814" lon="6.00507">
        <ele>324.20001220703</ele>
        <time>2019-09-11T13:45:04Z</time>
      </trkpt>
      <trkpt lat="47.24827" lon="6.00477">
        <ele>325</ele>
        <time>2019-09-11T13:45:11Z</time>
      </trkpt>
      <trkpt lat="47.24834" lon="6.00463">
        <ele>325.20001220703</ele>
        <time>2019-09-11T13:45:14Z</time>
      </trkpt>
      <trkpt lat="47.24853" lon="6.00425">
        <ele>326</ele>
        <time>2019-09-11T13:45:23Z</time>
      </trkpt>
      <trkpt lat="47.24863" lon="6.00404">
        <ele>326.39999389648</ele>
        <time>2019-09-11T13:45:29Z</time>
      </trkpt>
      <trkpt lat="47.24871" lon="6.00393">
        <ele>327</ele>
        <time>2019-09-11T13:45:33Z</time>
      </trkpt>
      <trkpt lat="47.24876" lon="6.00383">
        <ele>327.60000610352</ele>
        <time>2019-09-11T13:45:36Z</time>
      </trkpt>
      <trkpt lat="47.2488" lon="6.00377">
        <ele>328.20001220703</ele>
        <time>2019-09-11T13:45:38Z</time>
      </trkpt>
      <trkpt lat="47.24889" lon="6.0036">
        <ele>329.20001220703</ele>
        <time>2019-09-11T13:45:43Z</time>
      </trkpt>
      <trkpt lat="47.24894" lon="6.00349">
        <ele>330.20001220703</ele>
        <time>2019-09-11T13:45:46Z</time>
      </trkpt>
      <trkpt lat="47.24895" lon="6.00346">
        <ele>330.39999389648</ele>
        <time>2019-09-11T13:45:47Z</time>
      </trkpt>
      <trkpt lat="47.24901" lon="6.00335">
        <ele>331.39999389648</ele>
        <time>2019-09-11T13:45:52Z</time>
      </trkpt>
      <trkpt lat="47.24907" lon="6.00322">
        <ele>332.79998779297</ele>
        <time>2019-09-11T13:45:57Z</time>
      </trkpt>
      <trkpt lat="47.2491" lon="6.00313">
        <ele>333.60000610352</ele>
        <time>2019-09-11T13:46:02Z</time>
      </trkpt>
      <trkpt lat="47.2491" lon="6.00311">
        <ele>333.79998779297</ele>
        <time>2019-09-11T13:46:03Z</time>
      </trkpt>
      <trkpt lat="47.24913" lon="6.00304">
        <ele>334.39999389648</ele>
        <time>2019-09-11T13:46:06Z</time>
      </trkpt>
      <trkpt lat="47.24916" lon="6.00299">
        <ele>334.60000610352</ele>
        <time>2019-09-11T13:46:08Z</time>
      </trkpt>
      <trkpt lat="47.24919" lon="6.00294">
        <ele>334.79998779297</ele>
        <time>2019-09-11T13:46:10Z</time>
      </trkpt>
      <trkpt lat="47.24922" lon="6.00294">
        <ele>335</ele>
        <time>2019-09-11T13:46:12Z</time>
      </trkpt>
      <trkpt lat="47.24923" lon="6.00295">
        <ele>335.39999389648</ele>
        <time>2019-09-11T13:46:15Z</time>
      </trkpt>
      <trkpt lat="47.24925" lon="6.00294">
        <ele>335.79998779297</ele>
        <time>2019-09-11T13:46:20Z</time>
      </trkpt>
      <trkpt lat="47.24925" lon="6.00294">
        <ele>335.79998779297</ele>
        <time>2019-09-11T13:46:21Z</time>
      </trkpt>
      <trkpt lat="47.24925" lon="6.00293">
        <ele>335.79998779297</ele>
        <time>2019-09-11T13:46:22Z</time>
      </trkpt>
      <trkpt lat="47.24926" lon="6.00293">
        <ele>335.79998779297</ele>
        <time>2019-09-11T13:46:23Z</time>
      </trkpt>
      <trkpt lat="47.24928" lon="6.00291">
        <ele>336.20001220703</ele>
        <time>2019-09-11T13:46:37Z</time>
      </trkpt>
      <trkpt lat="47.24931" lon="6.00285">
        <ele>336.20001220703</ele>
        <time>2019-09-11T13:46:39Z</time>
      </trkpt>
      <trkpt lat="47.24937" lon="6.00272">
        <ele>336.39999389648</ele>
        <time>2019-09-11T13:46:42Z</time>
      </trkpt>
      <trkpt lat="47.24941" lon="6.0026">
        <ele>336.39999389648</ele>
        <time>2019-09-11T13:46:44Z</time>
      </trkpt>
      <trkpt lat="47.24944" lon="6.00254">
        <ele>336.39999389648</ele>
        <time>2019-09-11T13:46:45Z</time>
      </trkpt>
      <trkpt lat="47.2496" lon="6.00226">
        <ele>336.39999389648</ele>
        <time>2019-09-11T13:46:50Z</time>
      </trkpt>
      <trkpt lat="47.24982" lon="6.00185">
        <ele>337</ele>
        <time>2019-09-11T13:46:58Z</time>
      </trkpt>
      <trkpt lat="47.24985" lon="6.00179">
        <ele>337.20001220703</ele>
        <time>2019-09-11T13:46:59Z</time>
      </trkpt>
      <trkpt lat="47.25007" lon="6.00139">
        <ele>338</ele>
        <time>2019-09-11T13:47:06Z</time>
      </trkpt>
      <trkpt lat="47.25022" lon="6.00116">
        <ele>338</ele>
        <time>2019-09-11T13:47:10Z</time>
      </trkpt>
      <trkpt lat="47.25036" lon="6.00099">
        <ele>338</ele>
        <time>2019-09-11T13:47:13Z</time>
      </trkpt>
      <trkpt lat="47.25069" lon="6.00058">
        <ele>337.39999389648</ele>
        <time>2019-09-11T13:47:19Z</time>
      </trkpt>
      <trkpt lat="47.25097" lon="6.00029">
        <ele>336.20001220703</ele>
        <time>2019-09-11T13:47:23Z</time>
      </trkpt>
      <trkpt lat="47.25112" lon="6.00015">
        <ele>335.20001220703</ele>
        <time>2019-09-11T13:47:25Z</time>
      </trkpt>
      <trkpt lat="47.25119" lon="6.00006">
        <ele>334.60000610352</ele>
        <time>2019-09-11T13:47:26Z</time>
      </trkpt>
      <trkpt lat="47.25133" lon="5.99987">
        <ele>333.60000610352</ele>
        <time>2019-09-11T13:47:28Z</time>
      </trkpt>
      <trkpt lat="47.25146" lon="5.99967">
        <ele>332.20001220703</ele>
        <time>2019-09-11T13:47:30Z</time>
      </trkpt>
      <trkpt lat="47.2516" lon="5.99949">
        <ele>330.60000610352</ele>
        <time>2019-09-11T13:47:32Z</time>
      </trkpt>
      <trkpt lat="47.25173" lon="5.99932">
        <ele>329.20001220703</ele>
        <time>2019-09-11T13:47:34Z</time>
      </trkpt>
      <trkpt lat="47.25181" lon="5.99925">
        <ele>327.79998779297</ele>
        <time>2019-09-11T13:47:35Z</time>
      </trkpt>
      <trkpt lat="47.25188" lon="5.9992">
        <ele>327.20001220703</ele>
        <time>2019-09-11T13:47:36Z</time>
      </trkpt>
      <trkpt lat="47.25196" lon="5.99919">
        <ele>326.60000610352</ele>
        <time>2019-09-11T13:47:37Z</time>
      </trkpt>
      <trkpt lat="47.25212" lon="5.99919">
        <ele>325.60000610352</ele>
        <time>2019-09-11T13:47:39Z</time>
      </trkpt>
      <trkpt lat="47.25219" lon="5.99915">
        <ele>325.20001220703</ele>
        <time>2019-09-11T13:47:40Z</time>
      </trkpt>
      <trkpt lat="47.2523" lon="5.99901">
        <ele>324.39999389648</ele>
        <time>2019-09-11T13:47:42Z</time>
      </trkpt>
      <trkpt lat="47.25233" lon="5.99891">
        <ele>324.20001220703</ele>
        <time>2019-09-11T13:47:43Z</time>
      </trkpt>
      <trkpt lat="47.25237" lon="5.9987">
        <ele>323.39999389648</ele>
        <time>2019-09-11T13:47:45Z</time>
      </trkpt>
      <trkpt lat="47.2524" lon="5.99861">
        <ele>323.20001220703</ele>
        <time>2019-09-11T13:47:46Z</time>
      </trkpt>
      <trkpt lat="47.25249" lon="5.99844">
        <ele>322.79998779297</ele>
        <time>2019-09-11T13:47:48Z</time>
      </trkpt>
      <trkpt lat="47.25254" lon="5.99837">
        <ele>322.60000610352</ele>
        <time>2019-09-11T13:47:49Z</time>
      </trkpt>
      <trkpt lat="47.25274" lon="5.9981">
        <ele>322.20001220703</ele>
        <time>2019-09-11T13:47:53Z</time>
      </trkpt>
      <trkpt lat="47.25288" lon="5.9979">
        <ele>321.39999389648</ele>
        <time>2019-09-11T13:47:56Z</time>
      </trkpt>
      <trkpt lat="47.25298" lon="5.99778">
        <ele>321</ele>
        <time>2019-09-11T13:47:58Z</time>
      </trkpt>
      <trkpt lat="47.25322" lon="5.9975">
        <ele>320.60000610352</ele>
        <time>2019-09-11T13:48:03Z</time>
      </trkpt>
      <trkpt lat="47.25339" lon="5.99728">
        <ele>320.20001220703</ele>
        <time>2019-09-11T13:48:07Z</time>
      </trkpt>
      <trkpt lat="47.25347" lon="5.99716">
        <ele>320</ele>
        <time>2019-09-11T13:48:09Z</time>
      </trkpt>
      <trkpt lat="47.25359" lon="5.99698">
        <ele>319.79998779297</ele>
        <time>2019-09-11T13:48:12Z</time>
      </trkpt>
      <trkpt lat="47.2538" lon="5.9967">
        <ele>319.20001220703</ele>
        <time>2019-09-11T13:48:17Z</time>
      </trkpt>
      <trkpt lat="47.25388" lon="5.99659">
        <ele>319</ele>
        <time>2019-09-11T13:48:19Z</time>
      </trkpt>
      <trkpt lat="47.25392" lon="5.99655">
        <ele>319</ele>
        <time>2019-09-11T13:48:20Z</time>
      </trkpt>
      <trkpt lat="47.25399" lon="5.99652">
        <ele>318.79998779297</ele>
        <time>2019-09-11T13:48:22Z</time>
      </trkpt>
      <trkpt lat="47.25403" lon="5.99648">
        <ele>318.39999389648</ele>
        <time>2019-09-11T13:48:25Z</time>
      </trkpt>
      <trkpt lat="47.25407" lon="5.99631">
        <ele>318.20001220703</ele>
        <time>2019-09-11T13:48:29Z</time>
      </trkpt>
      <trkpt lat="47.25423" lon="5.99614">
        <ele>318.20001220703</ele>
        <time>2019-09-11T13:48:33Z</time>
      </trkpt>
      <trkpt lat="47.25453" lon="5.99572">
        <ele>317.79998779297</ele>
        <time>2019-09-11T13:48:40Z</time>
      </trkpt>
      <trkpt lat="47.25463" lon="5.99557">
        <ele>317.39999389648</ele>
        <time>2019-09-11T13:48:42Z</time>
      </trkpt>
      <trkpt lat="47.25473" lon="5.99543">
        <ele>317</ele>
        <time>2019-09-11T13:48:44Z</time>
      </trkpt>
      <trkpt lat="47.25479" lon="5.99539">
        <ele>316.60000610352</ele>
        <time>2019-09-11T13:48:45Z</time>
      </trkpt>
      <trkpt lat="47.25486" lon="5.99536">
        <ele>316</ele>
        <time>2019-09-11T13:48:46Z</time>
      </trkpt>
      <trkpt lat="47.25495" lon="5.99536">
        <ele>314.79998779297</ele>
        <time>2019-09-11T13:48:48Z</time>
      </trkpt>
      <trkpt lat="47.25498" lon="5.99538">
        <ele>313.39999389648</ele>
        <time>2019-09-11T13:48:51Z</time>
      </trkpt>
      <trkpt lat="47.25499" lon="5.99538">
        <ele>313</ele>
        <time>2019-09-11T13:48:52Z</time>
      </trkpt>
      <trkpt lat="47.255" lon="5.99539">
        <ele>312.60000610352</ele>
        <time>2019-09-11T13:48:55Z</time>
      </trkpt>
      <trkpt lat="47.255" lon="5.99538">
        <ele>312.60000610352</ele>
        <time>2019-09-11T13:48:57Z</time>
      </trkpt>
      <trkpt lat="47.255" lon="5.99538">
        <ele>312.39999389648</ele>
        <time>2019-09-11T13:49:00Z</time>
      </trkpt>
      <trkpt lat="47.25499" lon="5.99538">
        <ele>312.39999389648</ele>
        <time>2019-09-11T13:49:02Z</time>
      </trkpt>
      <trkpt lat="47.25492" lon="5.99543">
        <ele>312.39999389648</ele>
        <time>2019-09-11T13:49:07Z</time>
      </trkpt>
      <trkpt lat="47.25494" lon="5.9955">
        <ele>312.39999389648</ele>
        <time>2019-09-11T13:49:10Z</time>
      </trkpt>
      <trkpt lat="47.25509" lon="5.99564">
        <ele>312.60000610352</ele>
        <time>2019-09-11T13:49:16Z</time>
      </trkpt>
      <trkpt lat="47.25513" lon="5.9957">
        <ele>312.79998779297</ele>
        <time>2019-09-11T13:49:18Z</time>
      </trkpt>
      <trkpt lat="47.25521" lon="5.99578">
        <ele>313.60000610352</ele>
        <time>2019-09-11T13:49:21Z</time>
      </trkpt>
      <trkpt lat="47.25525" lon="5.99583">
        <ele>314.20001220703</ele>
        <time>2019-09-11T13:49:23Z</time>
      </trkpt>
      <trkpt lat="47.2553" lon="5.99589">
        <ele>314.60000610352</ele>
        <time>2019-09-11T13:49:25Z</time>
      </trkpt>
      <trkpt lat="47.25546" lon="5.99609">
        <ele>315.79998779297</ele>
        <time>2019-09-11T13:49:32Z</time>
      </trkpt>
      <trkpt lat="47.25559" lon="5.99633">
        <ele>316.79998779297</ele>
        <time>2019-09-11T13:49:40Z</time>
      </trkpt>
      <trkpt lat="47.25569" lon="5.99653">
        <ele>317.60000610352</ele>
        <time>2019-09-11T13:49:47Z</time>
      </trkpt>
      <trkpt lat="47.25574" lon="5.99662">
        <ele>317.79998779297</ele>
        <time>2019-09-11T13:49:50Z</time>
      </trkpt>
      <trkpt lat="47.2558" lon="5.99677">
        <ele>318.79998779297</ele>
        <time>2019-09-11T13:49:55Z</time>
      </trkpt>
      <trkpt lat="47.25591" lon="5.99694">
        <ele>320.20001220703</ele>
        <time>2019-09-11T13:50:02Z</time>
      </trkpt>
      <trkpt lat="47.25601" lon="5.9971">
        <ele>321.20001220703</ele>
        <time>2019-09-11T13:50:08Z</time>
      </trkpt>
      <trkpt lat="47.25602" lon="5.99713">
        <ele>321.39999389648</ele>
        <time>2019-09-11T13:50:09Z</time>
      </trkpt>
      <trkpt lat="47.25611" lon="5.99724">
        <ele>322.39999389648</ele>
        <time>2019-09-11T13:50:14Z</time>
      </trkpt>
      <trkpt lat="47.25613" lon="5.99727">
        <ele>322.39999389648</ele>
        <time>2019-09-11T13:50:15Z</time>
      </trkpt>
      <trkpt lat="47.25624" lon="5.99745">
        <ele>323.79998779297</ele>
        <time>2019-09-11T13:50:22Z</time>
      </trkpt>
      <trkpt lat="47.25627" lon="5.99751">
        <ele>324</ele>
        <time>2019-09-11T13:50:24Z</time>
      </trkpt>
      <trkpt lat="47.25638" lon="5.99768">
        <ele>324.79998779297</ele>
        <time>2019-09-11T13:50:30Z</time>
      </trkpt>
      <trkpt lat="47.2564" lon="5.99772">
        <ele>325</ele>
        <time>2019-09-11T13:50:31Z</time>
      </trkpt>
      <trkpt lat="47.25659" lon="5.99803">
        <ele>325.39999389648</ele>
        <time>2019-09-11T13:50:39Z</time>
      </trkpt>
      <trkpt lat="47.25675" lon="5.99825">
        <ele>325.39999389648</ele>
        <time>2019-09-11T13:50:45Z</time>
      </trkpt>
      <trkpt lat="47.25689" lon="5.99846">
        <ele>325.39999389648</ele>
        <time>2019-09-11T13:50:50Z</time>
      </trkpt>
      <trkpt lat="47.25695" lon="5.99855">
        <ele>325.39999389648</ele>
        <time>2019-09-11T13:50:52Z</time>
      </trkpt>
      <trkpt lat="47.25698" lon="5.9986">
        <ele>325.20001220703</ele>
        <time>2019-09-11T13:50:53Z</time>
      </trkpt>
      <trkpt lat="47.25713" lon="5.99892">
        <ele>324.79998779297</ele>
        <time>2019-09-11T13:50:59Z</time>
      </trkpt>
      <trkpt lat="47.25716" lon="5.99897">
        <ele>324.60000610352</ele>
        <time>2019-09-11T13:51:00Z</time>
      </trkpt>
      <trkpt lat="47.25727" lon="5.99922">
        <ele>324.39999389648</ele>
        <time>2019-09-11T13:51:05Z</time>
      </trkpt>
      <trkpt lat="47.25741" lon="5.99956">
        <ele>324.20001220703</ele>
        <time>2019-09-11T13:51:12Z</time>
      </trkpt>
      <trkpt lat="47.25758" lon="5.99997">
        <ele>324.60000610352</ele>
        <time>2019-09-11T13:51:21Z</time>
      </trkpt>
      <trkpt lat="47.25772" lon="6.0003">
        <ele>325.20001220703</ele>
        <time>2019-09-11T13:51:28Z</time>
      </trkpt>
      <trkpt lat="47.25777" lon="6.00049">
        <ele>325.39999389648</ele>
        <time>2019-09-11T13:51:33Z</time>
      </trkpt>
      <trkpt lat="47.25778" lon="6.00068">
        <ele>326</ele>
        <time>2019-09-11T13:51:39Z</time>
      </trkpt>
      <trkpt lat="47.25779" lon="6.00077">
        <ele>326.60000610352</ele>
        <time>2019-09-11T13:51:42Z</time>
      </trkpt>
      <trkpt lat="47.25779" lon="6.00083">
        <ele>327.20001220703</ele>
        <time>2019-09-11T13:51:44Z</time>
      </trkpt>
      <trkpt lat="47.25781" lon="6.00094">
        <ele>328.39999389648</ele>
        <time>2019-09-11T13:51:48Z</time>
      </trkpt>
      <trkpt lat="47.25782" lon="6.00096">
        <ele>328.60000610352</ele>
        <time>2019-09-11T13:51:49Z</time>
      </trkpt>
      <trkpt lat="47.25785" lon="6.00101">
        <ele>329.60000610352</ele>
        <time>2019-09-11T13:51:51Z</time>
      </trkpt>
      <trkpt lat="47.25791" lon="6.00104">
        <ele>330.20001220703</ele>
        <time>2019-09-11T13:51:54Z</time>
      </trkpt>
      <trkpt lat="47.25796" lon="6.00102">
        <ele>330.79998779297</ele>
        <time>2019-09-11T13:51:56Z</time>
      </trkpt>
      <trkpt lat="47.25808" lon="6.00097">
        <ele>331</ele>
        <time>2019-09-11T13:52:00Z</time>
      </trkpt>
      <trkpt lat="47.25839" lon="6.00089">
        <ele>331</ele>
        <time>2019-09-11T13:52:08Z</time>
      </trkpt>
      <trkpt lat="47.25843" lon="6.00088">
        <ele>330.79998779297</ele>
        <time>2019-09-11T13:52:09Z</time>
      </trkpt>
      <trkpt lat="47.25856" lon="6.00091">
        <ele>330.79998779297</ele>
        <time>2019-09-11T13:52:12Z</time>
      </trkpt>
      <trkpt lat="47.25867" lon="6.0011">
        <ele>330.20001220703</ele>
        <time>2019-09-11T13:52:16Z</time>
      </trkpt>
      <trkpt lat="47.25869" lon="6.00126">
        <ele>330</ele>
        <time>2019-09-11T13:52:19Z</time>
      </trkpt>
      <trkpt lat="47.25871" lon="6.00134">
        <ele>330</ele>
        <time>2019-09-11T13:52:21Z</time>
      </trkpt>
      <trkpt lat="47.25879" lon="6.00156">
        <ele>330</ele>
        <time>2019-09-11T13:52:26Z</time>
      </trkpt>
      <trkpt lat="47.25892" lon="6.00181">
        <ele>330.39999389648</ele>
        <time>2019-09-11T13:52:32Z</time>
      </trkpt>
      <trkpt lat="47.25916" lon="6.00225">
        <ele>331.20001220703</ele>
        <time>2019-09-11T13:52:42Z</time>
      </trkpt>
      <trkpt lat="47.25941" lon="6.00263">
        <ele>332.20001220703</ele>
        <time>2019-09-11T13:52:51Z</time>
      </trkpt>
      <trkpt lat="47.25964" lon="6.00297">
        <ele>332.39999389648</ele>
        <time>2019-09-11T13:52:59Z</time>
      </trkpt>
      <trkpt lat="47.25988" lon="6.0033">
        <ele>333</ele>
        <time>2019-09-11T13:53:07Z</time>
      </trkpt>
      <trkpt lat="47.26014" lon="6.00359">
        <ele>333.20001220703</ele>
        <time>2019-09-11T13:53:15Z</time>
      </trkpt>
      <trkpt lat="47.26043" lon="6.00383">
        <ele>333.39999389648</ele>
        <time>2019-09-11T13:53:23Z</time>
      </trkpt>
      <trkpt lat="47.26075" lon="6.00402">
        <ele>334.20001220703</ele>
        <time>2019-09-11T13:53:31Z</time>
      </trkpt>
      <trkpt lat="47.26078" lon="6.00405">
        <ele>334.20001220703</ele>
        <time>2019-09-11T13:53:32Z</time>
      </trkpt>
      <trkpt lat="47.26096" lon="6.00422">
        <ele>334.79998779297</ele>
        <time>2019-09-11T13:53:37Z</time>
      </trkpt>
      <trkpt lat="47.26122" lon="6.00439">
        <ele>335.39999389648</ele>
        <time>2019-09-11T13:53:44Z</time>
      </trkpt>
      <trkpt lat="47.26155" lon="6.00458">
        <ele>336.39999389648</ele>
        <time>2019-09-11T13:53:53Z</time>
      </trkpt>
      <trkpt lat="47.26159" lon="6.0046">
        <ele>336.60000610352</ele>
        <time>2019-09-11T13:53:54Z</time>
      </trkpt>
      <trkpt lat="47.26182" lon="6.00473">
        <ele>337.60000610352</ele>
        <time>2019-09-11T13:54:01Z</time>
      </trkpt>
      <trkpt lat="47.26201" lon="6.0048">
        <ele>338.20001220703</ele>
        <time>2019-09-11T13:54:06Z</time>
      </trkpt>
      <trkpt lat="47.26209" lon="6.00479">
        <ele>338.39999389648</ele>
        <time>2019-09-11T13:54:08Z</time>
      </trkpt>
      <trkpt lat="47.2622" lon="6.00471">
        <ele>338.39999389648</ele>
        <time>2019-09-11T13:54:11Z</time>
      </trkpt>
      <trkpt lat="47.26234" lon="6.00477">
        <ele>338.39999389648</ele>
        <time>2019-09-11T13:54:15Z</time>
      </trkpt>
      <trkpt lat="47.26243" lon="6.00481">
        <ele>338.60000610352</ele>
        <time>2019-09-11T13:54:18Z</time>
      </trkpt>
      <trkpt lat="47.26246" lon="6.0048">
        <ele>338.79998779297</ele>
        <time>2019-09-11T13:54:19Z</time>
      </trkpt>
      <trkpt lat="47.26264" lon="6.00483">
        <ele>338.79998779297</ele>
        <time>2019-09-11T13:54:24Z</time>
      </trkpt>
      <trkpt lat="47.26301" lon="6.00502">
        <ele>339.20001220703</ele>
        <time>2019-09-11T13:54:33Z</time>
      </trkpt>
      <trkpt lat="47.2634" lon="6.00518">
        <ele>339.60000610352</ele>
        <time>2019-09-11T13:54:42Z</time>
      </trkpt>
      <trkpt lat="47.26349" lon="6.00518">
        <ele>339.60000610352</ele>
        <time>2019-09-11T13:54:44Z</time>
      </trkpt>
      <trkpt lat="47.26362" lon="6.00516">
        <ele>339.79998779297</ele>
        <time>2019-09-11T13:54:47Z</time>
      </trkpt>
      <trkpt lat="47.26387" lon="6.00519">
        <ele>340.20001220703</ele>
        <time>2019-09-11T13:54:53Z</time>
      </trkpt>
      <trkpt lat="47.26419" lon="6.00524">
        <ele>340.79998779297</ele>
        <time>2019-09-11T13:55:01Z</time>
      </trkpt>
      <trkpt lat="47.26453" lon="6.00522">
        <ele>342.20001220703</ele>
        <time>2019-09-11T13:55:09Z</time>
      </trkpt>
      <trkpt lat="47.26478" lon="6.00516">
        <ele>342.79998779297</ele>
        <time>2019-09-11T13:55:15Z</time>
      </trkpt>
      <trkpt lat="47.26482" lon="6.00513">
        <ele>343</ele>
        <time>2019-09-11T13:55:16Z</time>
      </trkpt>
      <trkpt lat="47.26491" lon="6.00509">
        <ele>343.20001220703</ele>
        <time>2019-09-11T13:55:18Z</time>
      </trkpt>
      <trkpt lat="47.26495" lon="6.00506">
        <ele>343.20001220703</ele>
        <time>2019-09-11T13:55:19Z</time>
      </trkpt>
      <trkpt lat="47.26507" lon="6.00498">
        <ele>343.60000610352</ele>
        <time>2019-09-11T13:55:22Z</time>
      </trkpt>
      <trkpt lat="47.26526" lon="6.00484">
        <ele>344</ele>
        <time>2019-09-11T13:55:27Z</time>
      </trkpt>
      <trkpt lat="47.26537" lon="6.00474">
        <ele>344.60000610352</ele>
        <time>2019-09-11T13:55:30Z</time>
      </trkpt>
      <trkpt lat="47.26551" lon="6.00462">
        <ele>345.20001220703</ele>
        <time>2019-09-11T13:55:34Z</time>
      </trkpt>
      <trkpt lat="47.26565" lon="6.00448">
        <ele>346</ele>
        <time>2019-09-11T13:55:38Z</time>
      </trkpt>
      <trkpt lat="47.26571" lon="6.00443">
        <ele>346.20001220703</ele>
        <time>2019-09-11T13:55:40Z</time>
      </trkpt>
      <trkpt lat="47.2659" lon="6.00425">
        <ele>347.60000610352</ele>
        <time>2019-09-11T13:55:46Z</time>
      </trkpt>
      <trkpt lat="47.26596" lon="6.00419">
        <ele>347.79998779297</ele>
        <time>2019-09-11T13:55:48Z</time>
      </trkpt>
      <trkpt lat="47.26608" lon="6.00408">
        <ele>348.60000610352</ele>
        <time>2019-09-11T13:55:52Z</time>
      </trkpt>
      <trkpt lat="47.26619" lon="6.00397">
        <ele>349.20001220703</ele>
        <time>2019-09-11T13:55:56Z</time>
      </trkpt>
      <trkpt lat="47.26629" lon="6.00388">
        <ele>349.79998779297</ele>
        <time>2019-09-11T13:55:59Z</time>
      </trkpt>
      <trkpt lat="47.26643" lon="6.00376">
        <ele>350.39999389648</ele>
        <time>2019-09-11T13:56:04Z</time>
      </trkpt>
      <trkpt lat="47.26652" lon="6.00369">
        <ele>350.79998779297</ele>
        <time>2019-09-11T13:56:07Z</time>
      </trkpt>
      <trkpt lat="47.26668" lon="6.00357">
        <ele>351.39999389648</ele>
        <time>2019-09-11T13:56:12Z</time>
      </trkpt>
      <trkpt lat="47.26677" lon="6.0035">
        <ele>352</ele>
        <time>2019-09-11T13:56:15Z</time>
      </trkpt>
      <trkpt lat="47.26691" lon="6.00332">
        <ele>352.39999389648</ele>
        <time>2019-09-11T13:56:20Z</time>
      </trkpt>
      <trkpt lat="47.26717" lon="6.00306">
        <ele>352.79998779297</ele>
        <time>2019-09-11T13:56:28Z</time>
      </trkpt>
      <trkpt lat="47.26738" lon="6.00285">
        <ele>353</ele>
        <time>2019-09-11T13:56:34Z</time>
      </trkpt>
      <trkpt lat="47.26748" lon="6.00277">
        <ele>353.39999389648</ele>
        <time>2019-09-11T13:56:37Z</time>
      </trkpt>
      <trkpt lat="47.26772" lon="6.00256">
        <ele>354.20001220703</ele>
        <time>2019-09-11T13:56:44Z</time>
      </trkpt>
      <trkpt lat="47.26775" lon="6.00252">
        <ele>354.20001220703</ele>
        <time>2019-09-11T13:56:45Z</time>
      </trkpt>
      <trkpt lat="47.26795" lon="6.00232">
        <ele>355.39999389648</ele>
        <time>2019-09-11T13:56:51Z</time>
      </trkpt>
      <trkpt lat="47.26803" lon="6.00226">
        <ele>355.60000610352</ele>
        <time>2019-09-11T13:56:53Z</time>
      </trkpt>
      <trkpt lat="47.26813" lon="6.00212">
        <ele>355.79998779297</ele>
        <time>2019-09-11T13:56:57Z</time>
      </trkpt>
      <trkpt lat="47.26833" lon="6.00196">
        <ele>356</ele>
        <time>2019-09-11T13:57:03Z</time>
      </trkpt>
      <trkpt lat="47.26843" lon="6.00186">
        <ele>356.39999389648</ele>
        <time>2019-09-11T13:57:06Z</time>
      </trkpt>
      <trkpt lat="47.26856" lon="6.00173">
        <ele>356.60000610352</ele>
        <time>2019-09-11T13:57:10Z</time>
      </trkpt>
      <trkpt lat="47.26876" lon="6.0015">
        <ele>356.60000610352</ele>
        <time>2019-09-11T13:57:16Z</time>
      </trkpt>
      <trkpt lat="47.26883" lon="6.00141">
        <ele>356.60000610352</ele>
        <time>2019-09-11T13:57:18Z</time>
      </trkpt>
      <trkpt lat="47.26893" lon="6.00127">
        <ele>356.60000610352</ele>
        <time>2019-09-11T13:57:21Z</time>
      </trkpt>
      <trkpt lat="47.26896" lon="6.00121">
        <ele>356.60000610352</ele>
        <time>2019-09-11T13:57:22Z</time>
      </trkpt>
      <trkpt lat="47.26912" lon="6.00087">
        <ele>356.39999389648</ele>
        <time>2019-09-11T13:57:28Z</time>
      </trkpt>
      <trkpt lat="47.26914" lon="6.00082">
        <ele>356.39999389648</ele>
        <time>2019-09-11T13:57:29Z</time>
      </trkpt>
      <trkpt lat="47.26927" lon="6.00053">
        <ele>356.60000610352</ele>
        <time>2019-09-11T13:57:35Z</time>
      </trkpt>
      <trkpt lat="47.26938" lon="6.0003">
        <ele>357.39999389648</ele>
        <time>2019-09-11T13:57:40Z</time>
      </trkpt>
      <trkpt lat="47.26949" lon="6.00008">
        <ele>358.39999389648</ele>
        <time>2019-09-11T13:57:45Z</time>
      </trkpt>
      <trkpt lat="47.26952" lon="6.00004">
        <ele>358.60000610352</ele>
        <time>2019-09-11T13:57:46Z</time>
      </trkpt>
      <trkpt lat="47.26963" lon="5.99978">
        <ele>359.20001220703</ele>
        <time>2019-09-11T13:57:51Z</time>
      </trkpt>
      <trkpt lat="47.26975" lon="5.99961">
        <ele>359.20001220703</ele>
        <time>2019-09-11T13:57:56Z</time>
      </trkpt>
      <trkpt lat="47.26986" lon="5.99937">
        <ele>359.20001220703</ele>
        <time>2019-09-11T13:58:02Z</time>
      </trkpt>
      <trkpt lat="47.26997" lon="5.99912">
        <ele>359</ele>
        <time>2019-09-11T13:58:07Z</time>
      </trkpt>
      <trkpt lat="47.27017" lon="5.99869">
        <ele>358.79998779297</ele>
        <time>2019-09-11T13:58:13Z</time>
      </trkpt>
      <trkpt lat="47.27041" lon="5.99826">
        <ele>358.20001220703</ele>
        <time>2019-09-11T13:58:19Z</time>
      </trkpt>
      <trkpt lat="47.27046" lon="5.9982">
        <ele>358</ele>
        <time>2019-09-11T13:58:20Z</time>
      </trkpt>
      <trkpt lat="47.27066" lon="5.99798">
        <ele>357.60000610352</ele>
        <time>2019-09-11T13:58:24Z</time>
      </trkpt>
      <trkpt lat="47.27088" lon="5.99779">
        <ele>356.60000610352</ele>
        <time>2019-09-11T13:58:28Z</time>
      </trkpt>
      <trkpt lat="47.27093" lon="5.99774">
        <ele>356.39999389648</ele>
        <time>2019-09-11T13:58:29Z</time>
      </trkpt>
      <trkpt lat="47.27125" lon="5.99749">
        <ele>355.79998779297</ele>
        <time>2019-09-11T13:58:35Z</time>
      </trkpt>
      <trkpt lat="47.27141" lon="5.99739">
        <ele>355.39999389648</ele>
        <time>2019-09-11T13:58:38Z</time>
      </trkpt>
      <trkpt lat="47.27147" lon="5.99739">
        <ele>355.39999389648</ele>
        <time>2019-09-11T13:58:39Z</time>
      </trkpt>
      <trkpt lat="47.27153" lon="5.99742">
        <ele>355.39999389648</ele>
        <time>2019-09-11T13:58:40Z</time>
      </trkpt>
      <trkpt lat="47.27172" lon="5.99746">
        <ele>355.20001220703</ele>
        <time>2019-09-11T13:58:43Z</time>
      </trkpt>
      <trkpt lat="47.27187" lon="5.99732">
        <ele>354.79998779297</ele>
        <time>2019-09-11T13:58:46Z</time>
      </trkpt>
      <trkpt lat="47.27192" lon="5.99715">
        <ele>354.60000610352</ele>
        <time>2019-09-11T13:58:48Z</time>
      </trkpt>
      <trkpt lat="47.27193" lon="5.99706">
        <ele>354.60000610352</ele>
        <time>2019-09-11T13:58:49Z</time>
      </trkpt>
      <trkpt lat="47.272" lon="5.99684">
        <ele>354.20001220703</ele>
        <time>2019-09-11T13:58:52Z</time>
      </trkpt>
      <trkpt lat="47.27214" lon="5.99673">
        <ele>353.39999389648</ele>
        <time>2019-09-11T13:58:55Z</time>
      </trkpt>
      <trkpt lat="47.2722" lon="5.99671">
        <ele>353.20001220703</ele>
        <time>2019-09-11T13:58:56Z</time>
      </trkpt>
      <trkpt lat="47.2726" lon="5.99652">
        <ele>352.79998779297</ele>
        <time>2019-09-11T13:59:03Z</time>
      </trkpt>
      <trkpt lat="47.27284" lon="5.99636">
        <ele>352.39999389648</ele>
        <time>2019-09-11T13:59:07Z</time>
      </trkpt>
      <trkpt lat="47.27309" lon="5.9962">
        <ele>351.79998779297</ele>
        <time>2019-09-11T13:59:11Z</time>
      </trkpt>
      <trkpt lat="47.27321" lon="5.99613">
        <ele>351.20001220703</ele>
        <time>2019-09-11T13:59:13Z</time>
      </trkpt>
      <trkpt lat="47.27345" lon="5.99598">
        <ele>350</ele>
        <time>2019-09-11T13:59:17Z</time>
      </trkpt>
      <trkpt lat="47.27356" lon="5.99591">
        <ele>349.39999389648</ele>
        <time>2019-09-11T13:59:19Z</time>
      </trkpt>
      <trkpt lat="47.27367" lon="5.99584">
        <ele>349</ele>
        <time>2019-09-11T13:59:21Z</time>
      </trkpt>
      <trkpt lat="47.27404" lon="5.99556">
        <ele>348.20001220703</ele>
        <time>2019-09-11T13:59:28Z</time>
      </trkpt>
      <trkpt lat="47.27432" lon="5.9953">
        <ele>347.79998779297</ele>
        <time>2019-09-11T13:59:33Z</time>
      </trkpt>
      <trkpt lat="47.27437" lon="5.99524">
        <ele>347.79998779297</ele>
        <time>2019-09-11T13:59:34Z</time>
      </trkpt>
      <trkpt lat="47.27443" lon="5.99516">
        <ele>347.60000610352</ele>
        <time>2019-09-11T13:59:35Z</time>
      </trkpt>
      <trkpt lat="47.27456" lon="5.99486">
        <ele>346.79998779297</ele>
        <time>2019-09-11T13:59:38Z</time>
      </trkpt>
      <trkpt lat="47.2746" lon="5.99476">
        <ele>346.60000610352</ele>
        <time>2019-09-11T13:59:39Z</time>
      </trkpt>
      <trkpt lat="47.27462" lon="5.9944">
        <ele>345.20001220703</ele>
        <time>2019-09-11T13:59:42Z</time>
      </trkpt>
      <trkpt lat="47.27459" lon="5.99416">
        <ele>344.20001220703</ele>
        <time>2019-09-11T13:59:44Z</time>
      </trkpt>
      <trkpt lat="47.27454" lon="5.99394">
        <ele>343</ele>
        <time>2019-09-11T13:59:46Z</time>
      </trkpt>
      <trkpt lat="47.27444" lon="5.99375">
        <ele>342</ele>
        <time>2019-09-11T13:59:48Z</time>
      </trkpt>
      <trkpt lat="47.27436" lon="5.9937">
        <ele>341.39999389648</ele>
        <time>2019-09-11T13:59:49Z</time>
      </trkpt>
      <trkpt lat="47.27427" lon="5.99366">
        <ele>340.60000610352</ele>
        <time>2019-09-11T13:59:50Z</time>
      </trkpt>
      <trkpt lat="47.27418" lon="5.99363">
        <ele>339.79998779297</ele>
        <time>2019-09-11T13:59:51Z</time>
      </trkpt>
      <trkpt lat="47.27408" lon="5.99361">
        <ele>339</ele>
        <time>2019-09-11T13:59:52Z</time>
      </trkpt>
      <trkpt lat="47.2739" lon="5.99352">
        <ele>337.60000610352</ele>
        <time>2019-09-11T13:59:54Z</time>
      </trkpt>
      <trkpt lat="47.27382" lon="5.99344">
        <ele>337</ele>
        <time>2019-09-11T13:59:55Z</time>
      </trkpt>
      <trkpt lat="47.27376" lon="5.99335">
        <ele>336.20001220703</ele>
        <time>2019-09-11T13:59:56Z</time>
      </trkpt>
      <trkpt lat="47.27367" lon="5.99316">
        <ele>333.60000610352</ele>
        <time>2019-09-11T13:59:58Z</time>
      </trkpt>
      <trkpt lat="47.27363" lon="5.99296">
        <ele>332.20001220703</ele>
        <time>2019-09-11T14:00:00Z</time>
      </trkpt>
      <trkpt lat="47.2736" lon="5.99279">
        <ele>331.20001220703</ele>
        <time>2019-09-11T14:00:02Z</time>
      </trkpt>
      <trkpt lat="47.27357" lon="5.99273">
        <ele>331</ele>
        <time>2019-09-11T14:00:03Z</time>
      </trkpt>
      <trkpt lat="47.27345" lon="5.99248">
        <ele>330.79998779297</ele>
        <time>2019-09-11T14:00:07Z</time>
      </trkpt>
      <trkpt lat="47.27342" lon="5.99243">
        <ele>330.79998779297</ele>
        <time>2019-09-11T14:00:08Z</time>
      </trkpt>
      <trkpt lat="47.27328" lon="5.99232">
        <ele>330.60000610352</ele>
        <time>2019-09-11T14:00:11Z</time>
      </trkpt>
      <trkpt lat="47.27323" lon="5.99228">
        <ele>330.60000610352</ele>
        <time>2019-09-11T14:00:12Z</time>
      </trkpt>
      <trkpt lat="47.27282" lon="5.99195">
        <ele>330.20001220703</ele>
        <time>2019-09-11T14:00:20Z</time>
      </trkpt>
      <trkpt lat="47.27277" lon="5.99191">
        <ele>330.20001220703</ele>
        <time>2019-09-11T14:00:21Z</time>
      </trkpt>
      <trkpt lat="47.27271" lon="5.99177">
        <ele>330</ele>
        <time>2019-09-11T14:00:23Z</time>
      </trkpt>
      <trkpt lat="47.27273" lon="5.9917">
        <ele>330</ele>
        <time>2019-09-11T14:00:24Z</time>
      </trkpt>
      <trkpt lat="47.27279" lon="5.99159">
        <ele>329.79998779297</ele>
        <time>2019-09-11T14:00:26Z</time>
      </trkpt>
      <trkpt lat="47.27287" lon="5.99151">
        <ele>329.79998779297</ele>
        <time>2019-09-11T14:00:28Z</time>
      </trkpt>
      <trkpt lat="47.27298" lon="5.99144">
        <ele>329.79998779297</ele>
        <time>2019-09-11T14:00:31Z</time>
      </trkpt>
      <trkpt lat="47.27323" lon="5.99128">
        <ele>330.39999389648</ele>
        <time>2019-09-11T14:00:38Z</time>
      </trkpt>
      <trkpt lat="47.27344" lon="5.99116">
        <ele>330.79998779297</ele>
        <time>2019-09-11T14:00:45Z</time>
      </trkpt>
      <trkpt lat="47.27353" lon="5.99108">
        <ele>331.39999389648</ele>
        <time>2019-09-11T14:00:49Z</time>
      </trkpt>
      <trkpt lat="47.27359" lon="5.99102">
        <ele>331.79998779297</ele>
        <time>2019-09-11T14:00:52Z</time>
      </trkpt>
      <trkpt lat="47.27363" lon="5.99094">
        <ele>332.39999389648</ele>
        <time>2019-09-11T14:00:55Z</time>
      </trkpt>
      <trkpt lat="47.2737" lon="5.99082">
        <ele>333.39999389648</ele>
        <time>2019-09-11T14:01:00Z</time>
      </trkpt>
      <trkpt lat="47.27371" lon="5.99079">
        <ele>333.60000610352</ele>
        <time>2019-09-11T14:01:01Z</time>
      </trkpt>
      <trkpt lat="47.27378" lon="5.99067">
        <ele>334.79998779297</ele>
        <time>2019-09-11T14:01:06Z</time>
      </trkpt>
      <trkpt lat="47.27381" lon="5.9906">
        <ele>335.39999389648</ele>
        <time>2019-09-11T14:01:09Z</time>
      </trkpt>
      <trkpt lat="47.27383" lon="5.99055">
        <ele>335.79998779297</ele>
        <time>2019-09-11T14:01:11Z</time>
      </trkpt>
      <trkpt lat="47.27388" lon="5.99046">
        <ele>337</ele>
        <time>2019-09-11T14:01:15Z</time>
      </trkpt>
      <trkpt lat="47.27389" lon="5.99044">
        <ele>337.20001220703</ele>
        <time>2019-09-11T14:01:16Z</time>
      </trkpt>
      <trkpt lat="47.27393" lon="5.99033">
        <ele>338.20001220703</ele>
        <time>2019-09-11T14:01:20Z</time>
      </trkpt>
      <trkpt lat="47.27395" lon="5.99023">
        <ele>338.79998779297</ele>
        <time>2019-09-11T14:01:23Z</time>
      </trkpt>
      <trkpt lat="47.27396" lon="5.9901">
        <ele>339.39999389648</ele>
        <time>2019-09-11T14:01:27Z</time>
      </trkpt>
      <trkpt lat="47.274" lon="5.98998">
        <ele>340.20001220703</ele>
        <time>2019-09-11T14:01:31Z</time>
      </trkpt>
      <trkpt lat="47.27404" lon="5.98993">
        <ele>340.39999389648</ele>
        <time>2019-09-11T14:01:34Z</time>
      </trkpt>
      <trkpt lat="47.2741" lon="5.98991">
        <ele>340.60000610352</ele>
        <time>2019-09-11T14:01:37Z</time>
      </trkpt>
      <trkpt lat="47.27421" lon="5.98992">
        <ele>341.60000610352</ele>
        <time>2019-09-11T14:01:43Z</time>
      </trkpt>
      <trkpt lat="47.27428" lon="5.98994">
        <ele>342.79998779297</ele>
        <time>2019-09-11T14:01:47Z</time>
      </trkpt>
      <trkpt lat="47.27435" lon="5.98996">
        <ele>343.79998779297</ele>
        <time>2019-09-11T14:01:51Z</time>
      </trkpt>
      <trkpt lat="47.2744" lon="5.98997">
        <ele>344.20001220703</ele>
        <time>2019-09-11T14:01:53Z</time>
      </trkpt>
      <trkpt lat="47.27449" lon="5.98997">
        <ele>345</ele>
        <time>2019-09-11T14:01:57Z</time>
      </trkpt>
      <trkpt lat="47.27453" lon="5.98995">
        <ele>345.39999389648</ele>
        <time>2019-09-11T14:01:59Z</time>
      </trkpt>
      <trkpt lat="47.27469" lon="5.98982">
        <ele>346</ele>
        <time>2019-09-11T14:02:06Z</time>
      </trkpt>
      <trkpt lat="47.27488" lon="5.98964">
        <ele>346.39999389648</ele>
        <time>2019-09-11T14:02:14Z</time>
      </trkpt>
      <trkpt lat="47.27502" lon="5.98959">
        <ele>346.60000610352</ele>
        <time>2019-09-11T14:02:18Z</time>
      </trkpt>
      <trkpt lat="47.27521" lon="5.98961">
        <ele>346.60000610352</ele>
        <time>2019-09-11T14:02:23Z</time>
      </trkpt>
      <trkpt lat="47.27531" lon="5.98969">
        <ele>346.20001220703</ele>
        <time>2019-09-11T14:02:27Z</time>
      </trkpt>
      <trkpt lat="47.27548" lon="5.98976">
        <ele>345.20001220703</ele>
        <time>2019-09-11T14:02:33Z</time>
      </trkpt>
      <trkpt lat="47.2756" lon="5.98985">
        <ele>345</ele>
        <time>2019-09-11T14:02:37Z</time>
      </trkpt>
      <trkpt lat="47.27568" lon="5.98994">
        <ele>345</ele>
        <time>2019-09-11T14:02:40Z</time>
      </trkpt>
      <trkpt lat="47.27587" lon="5.99027">
        <ele>345</ele>
        <time>2019-09-11T14:02:49Z</time>
      </trkpt>
      <trkpt lat="47.27604" lon="5.99063">
        <ele>345.79998779297</ele>
        <time>2019-09-11T14:02:58Z</time>
      </trkpt>
      <trkpt lat="47.27607" lon="5.99076">
        <ele>346</ele>
        <time>2019-09-11T14:03:01Z</time>
      </trkpt>
      <trkpt lat="47.27612" lon="5.99089">
        <ele>346.60000610352</ele>
        <time>2019-09-11T14:03:04Z</time>
      </trkpt>
      <trkpt lat="47.27617" lon="5.99114">
        <ele>347.20001220703</ele>
        <time>2019-09-11T14:03:10Z</time>
      </trkpt>
      <trkpt lat="47.27615" lon="5.9912">
        <ele>347.39999389648</ele>
        <time>2019-09-11T14:03:12Z</time>
      </trkpt>
      <trkpt lat="47.27615" lon="5.99123">
        <ele>347.39999389648</ele>
        <time>2019-09-11T14:03:13Z</time>
      </trkpt>
      <trkpt lat="47.27616" lon="5.99124">
        <ele>347.60000610352</ele>
        <time>2019-09-11T14:03:14Z</time>
      </trkpt>
      <trkpt lat="47.27621" lon="5.99126">
        <ele>348.20001220703</ele>
        <time>2019-09-11T14:03:17Z</time>
      </trkpt>
      <trkpt lat="47.27621" lon="5.99126">
        <ele>348.60000610352</ele>
        <time>2019-09-11T14:03:18Z</time>
      </trkpt>
      <trkpt lat="47.27621" lon="5.99126">
        <ele>348.79998779297</ele>
        <time>2019-09-11T14:03:19Z</time>
      </trkpt>
      <trkpt lat="47.27623" lon="5.99128">
        <ele>349.39999389648</ele>
        <time>2019-09-11T14:03:22Z</time>
      </trkpt>
      <trkpt lat="47.27625" lon="5.99134">
        <ele>349.39999389648</ele>
        <time>2019-09-11T14:03:24Z</time>
      </trkpt>
      <trkpt lat="47.27625" lon="5.99144">
        <ele>349.39999389648</ele>
        <time>2019-09-11T14:03:26Z</time>
      </trkpt>
      <trkpt lat="47.27626" lon="5.99163">
        <ele>349.60000610352</ele>
        <time>2019-09-11T14:03:30Z</time>
      </trkpt>
      <trkpt lat="47.27627" lon="5.99201">
        <ele>350.60000610352</ele>
        <time>2019-09-11T14:03:38Z</time>
      </trkpt>
      <trkpt lat="47.27628" lon="5.99206">
        <ele>350.79998779297</ele>
        <time>2019-09-11T14:03:39Z</time>
      </trkpt>
      <trkpt lat="47.2763" lon="5.9923">
        <ele>351.79998779297</ele>
        <time>2019-09-11T14:03:44Z</time>
      </trkpt>
      <trkpt lat="47.27633" lon="5.99239">
        <ele>352</ele>
        <time>2019-09-11T14:03:46Z</time>
      </trkpt>
      <trkpt lat="47.27648" lon="5.99259">
        <ele>352.79998779297</ele>
        <time>2019-09-11T14:03:52Z</time>
      </trkpt>
      <trkpt lat="47.2765" lon="5.99261">
        <ele>352.79998779297</ele>
        <time>2019-09-11T14:03:53Z</time>
      </trkpt>
      <trkpt lat="47.27664" lon="5.99278">
        <ele>353.39999389648</ele>
        <time>2019-09-11T14:03:59Z</time>
      </trkpt>
      <trkpt lat="47.27666" lon="5.99283">
        <ele>353.60000610352</ele>
        <time>2019-09-11T14:04:03Z</time>
      </trkpt>
      <trkpt lat="47.27667" lon="5.99287">
        <ele>353.79998779297</ele>
        <time>2019-09-11T14:04:06Z</time>
      </trkpt>
      <trkpt lat="47.27669" lon="5.99296">
        <ele>354</ele>
        <time>2019-09-11T14:04:08Z</time>
      </trkpt>
      <trkpt lat="47.27683" lon="5.99329">
        <ele>354.20001220703</ele>
        <time>2019-09-11T14:04:15Z</time>
      </trkpt>
      <trkpt lat="47.2769" lon="5.99335">
        <ele>354.20001220703</ele>
        <time>2019-09-11T14:04:17Z</time>
      </trkpt>
      <trkpt lat="47.27703" lon="5.9934">
        <ele>354.39999389648</ele>
        <time>2019-09-11T14:04:20Z</time>
      </trkpt>
      <trkpt lat="47.27722" lon="5.99338">
        <ele>354.79998779297</ele>
        <time>2019-09-11T14:04:24Z</time>
      </trkpt>
      <trkpt lat="47.27726" lon="5.99337">
        <ele>354.79998779297</ele>
        <time>2019-09-11T14:04:25Z</time>
      </trkpt>
      <trkpt lat="47.27731" lon="5.99336">
        <ele>354.79998779297</ele>
        <time>2019-09-11T14:04:26Z</time>
      </trkpt>
      <trkpt lat="47.27736" lon="5.99337">
        <ele>354.79998779297</ele>
        <time>2019-09-11T14:04:27Z</time>
      </trkpt>
      <trkpt lat="47.2774" lon="5.9934">
        <ele>355</ele>
        <time>2019-09-11T14:04:28Z</time>
      </trkpt>
      <trkpt lat="47.27751" lon="5.99363">
        <ele>355</ele>
        <time>2019-09-11T14:04:32Z</time>
      </trkpt>
      <trkpt lat="47.27753" lon="5.99384">
        <ele>355</ele>
        <time>2019-09-11T14:04:36Z</time>
      </trkpt>
      <trkpt lat="47.27759" lon="5.99406">
        <ele>355</ele>
        <time>2019-09-11T14:04:40Z</time>
      </trkpt>
      <trkpt lat="47.27761" lon="5.9941">
        <ele>355</ele>
        <time>2019-09-11T14:04:41Z</time>
      </trkpt>
      <trkpt lat="47.27768" lon="5.99428">
        <ele>355.20001220703</ele>
        <time>2019-09-11T14:04:45Z</time>
      </trkpt>
      <trkpt lat="47.27769" lon="5.99433">
        <ele>355.20001220703</ele>
        <time>2019-09-11T14:04:49Z</time>
      </trkpt>
      <trkpt lat="47.27769" lon="5.99436">
        <ele>355.20001220703</ele>
        <time>2019-09-11T14:04:53Z</time>
      </trkpt>
      <trkpt lat="47.27769" lon="5.99441">
        <ele>355.20001220703</ele>
        <time>2019-09-11T14:04:56Z</time>
      </trkpt>
      <trkpt lat="47.2777" lon="5.99444">
        <ele>355.20001220703</ele>
        <time>2019-09-11T14:05:00Z</time>
      </trkpt>
      <trkpt lat="47.27772" lon="5.99446">
        <ele>355.20001220703</ele>
        <time>2019-09-11T14:05:03Z</time>
      </trkpt>
      <trkpt lat="47.27775" lon="5.99441">
        <ele>355</ele>
        <time>2019-09-11T14:05:06Z</time>
      </trkpt>
      <trkpt lat="47.27775" lon="5.99438">
        <ele>355</ele>
        <time>2019-09-11T14:05:07Z</time>
      </trkpt>
      <trkpt lat="47.27775" lon="5.99431">
        <ele>355</ele>
        <time>2019-09-11T14:05:09Z</time>
      </trkpt>
      <trkpt lat="47.27779" lon="5.99427">
        <ele>355</ele>
        <time>2019-09-11T14:05:11Z</time>
      </trkpt>
      <trkpt lat="47.27785" lon="5.99422">
        <ele>355</ele>
        <time>2019-09-11T14:05:14Z</time>
      </trkpt>
      <trkpt lat="47.27785" lon="5.99415">
        <ele>355</ele>
        <time>2019-09-11T14:05:16Z</time>
      </trkpt>
      <trkpt lat="47.27783" lon="5.99408">
        <ele>355.79998779297</ele>
        <time>2019-09-11T14:05:20Z</time>
      </trkpt>
      <trkpt lat="47.27783" lon="5.99407">
        <ele>356.20001220703</ele>
        <time>2019-09-11T14:05:30Z</time>
      </trkpt>
      <trkpt lat="47.27784" lon="5.99401">
        <ele>356.20001220703</ele>
        <time>2019-09-11T14:05:33Z</time>
      </trkpt>
      <trkpt lat="47.27799" lon="5.99395">
        <ele>356.39999389648</ele>
        <time>2019-09-11T14:05:39Z</time>
      </trkpt>
      <trkpt lat="47.27824" lon="5.99384">
        <ele>356.60000610352</ele>
        <time>2019-09-11T14:05:47Z</time>
      </trkpt>
      <trkpt lat="47.27844" lon="5.99375">
        <ele>357.39999389648</ele>
        <time>2019-09-11T14:05:53Z</time>
      </trkpt>
      <trkpt lat="47.27861" lon="5.99364">
        <ele>358</ele>
        <time>2019-09-11T14:05:58Z</time>
      </trkpt>
      <trkpt lat="47.27868" lon="5.99361">
        <ele>358.39999389648</ele>
        <time>2019-09-11T14:06:00Z</time>
      </trkpt>
      <trkpt lat="47.27888" lon="5.9935">
        <ele>359</ele>
        <time>2019-09-11T14:06:06Z</time>
      </trkpt>
      <trkpt lat="47.27895" lon="5.99347">
        <ele>359.39999389648</ele>
        <time>2019-09-11T14:06:08Z</time>
      </trkpt>
      <trkpt lat="47.27917" lon="5.99335">
        <ele>360.20001220703</ele>
        <time>2019-09-11T14:06:15Z</time>
      </trkpt>
      <trkpt lat="47.27927" lon="5.9933">
        <ele>360.60000610352</ele>
        <time>2019-09-11T14:06:18Z</time>
      </trkpt>
      <trkpt lat="47.27946" lon="5.9932">
        <ele>361.39999389648</ele>
        <time>2019-09-11T14:06:24Z</time>
      </trkpt>
      <trkpt lat="47.27953" lon="5.99317">
        <ele>361.60000610352</ele>
        <time>2019-09-11T14:06:26Z</time>
      </trkpt>
      <trkpt lat="47.27976" lon="5.99305">
        <ele>362.79998779297</ele>
        <time>2019-09-11T14:06:33Z</time>
      </trkpt>
      <trkpt lat="47.27979" lon="5.99304">
        <ele>363</ele>
        <time>2019-09-11T14:06:34Z</time>
      </trkpt>
      <trkpt lat="47.28007" lon="5.9929">
        <ele>363.79998779297</ele>
        <time>2019-09-11T14:06:43Z</time>
      </trkpt>
      <trkpt lat="47.28009" lon="5.99288">
        <ele>363.79998779297</ele>
        <time>2019-09-11T14:06:44Z</time>
      </trkpt>
      <trkpt lat="47.28013" lon="5.99286">
        <ele>364.39999389648</ele>
        <time>2019-09-11T14:06:48Z</time>
      </trkpt>
      <trkpt lat="47.28023" lon="5.99281">
        <ele>364.79998779297</ele>
        <time>2019-09-11T14:06:53Z</time>
      </trkpt>
      <trkpt lat="47.28056" lon="5.99264">
        <ele>365.39999389648</ele>
        <time>2019-09-11T14:07:03Z</time>
      </trkpt>
      <trkpt lat="47.2807" lon="5.99256">
        <ele>365.79998779297</ele>
        <time>2019-09-11T14:07:07Z</time>
      </trkpt>
      <trkpt lat="47.28074" lon="5.99255">
        <ele>366</ele>
        <time>2019-09-11T14:07:08Z</time>
      </trkpt>
      <trkpt lat="47.28105" lon="5.99242">
        <ele>367</ele>
        <time>2019-09-11T14:07:17Z</time>
      </trkpt>
      <trkpt lat="47.28134" lon="5.99236">
        <ele>367.79998779297</ele>
        <time>2019-09-11T14:07:25Z</time>
      </trkpt>
      <trkpt lat="47.28142" lon="5.99236">
        <ele>368.20001220703</ele>
        <time>2019-09-11T14:07:27Z</time>
      </trkpt>
      <trkpt lat="47.28164" lon="5.99237">
        <ele>368.60000610352</ele>
        <time>2019-09-11T14:07:32Z</time>
      </trkpt>
      <trkpt lat="47.282" lon="5.99245">
        <ele>368.79998779297</ele>
        <time>2019-09-11T14:07:40Z</time>
      </trkpt>
      <trkpt lat="47.28241" lon="5.9926">
        <ele>368.79998779297</ele>
        <time>2019-09-11T14:07:48Z</time>
      </trkpt>
      <trkpt lat="47.28292" lon="5.99277">
        <ele>368.20001220703</ele>
        <time>2019-09-11T14:07:57Z</time>
      </trkpt>
      <trkpt lat="47.28338" lon="5.99285">
        <ele>367</ele>
        <time>2019-09-11T14:08:04Z</time>
      </trkpt>
      <trkpt lat="47.2837" lon="5.99288">
        <ele>365.79998779297</ele>
        <time>2019-09-11T14:08:09Z</time>
      </trkpt>
      <trkpt lat="47.28374" lon="5.99288">
        <ele>365.39999389648</ele>
        <time>2019-09-11T14:08:10Z</time>
      </trkpt>
      <trkpt lat="47.28381" lon="5.99289">
        <ele>364.79998779297</ele>
        <time>2019-09-11T14:08:12Z</time>
      </trkpt>
      <trkpt lat="47.28389" lon="5.9929">
        <ele>364.60000610352</ele>
        <time>2019-09-11T14:08:15Z</time>
      </trkpt>
      <trkpt lat="47.28402" lon="5.9929">
        <ele>364.39999389648</ele>
        <time>2019-09-11T14:08:19Z</time>
      </trkpt>
      <trkpt lat="47.28433" lon="5.99291">
        <ele>364.60000610352</ele>
        <time>2019-09-11T14:08:26Z</time>
      </trkpt>
      <trkpt lat="47.28463" lon="5.99292">
        <ele>365</ele>
        <time>2019-09-11T14:08:33Z</time>
      </trkpt>
      <trkpt lat="47.28484" lon="5.99292">
        <ele>365.79998779297</ele>
        <time>2019-09-11T14:08:38Z</time>
      </trkpt>
      <trkpt lat="47.28498" lon="5.99292">
        <ele>366.39999389648</ele>
        <time>2019-09-11T14:08:41Z</time>
      </trkpt>
      <trkpt lat="47.28507" lon="5.99292">
        <ele>366.79998779297</ele>
        <time>2019-09-11T14:08:43Z</time>
      </trkpt>
      <trkpt lat="47.28536" lon="5.99294">
        <ele>367.60000610352</ele>
        <time>2019-09-11T14:08:49Z</time>
      </trkpt>
      <trkpt lat="47.28545" lon="5.99294">
        <ele>367.79998779297</ele>
        <time>2019-09-11T14:08:51Z</time>
      </trkpt>
      <trkpt lat="47.28566" lon="5.99294">
        <ele>367.79998779297</ele>
        <time>2019-09-11T14:08:55Z</time>
      </trkpt>
      <trkpt lat="47.28608" lon="5.99295">
        <ele>367.39999389648</ele>
        <time>2019-09-11T14:09:02Z</time>
      </trkpt>
      <trkpt lat="47.28643" lon="5.99295">
        <ele>366</ele>
        <time>2019-09-11T14:09:09Z</time>
      </trkpt>
      <trkpt lat="47.28647" lon="5.99295">
        <ele>366</ele>
        <time>2019-09-11T14:09:10Z</time>
      </trkpt>
      <trkpt lat="47.28662" lon="5.99297">
        <ele>365.79998779297</ele>
        <time>2019-09-11T14:09:14Z</time>
      </trkpt>
      <trkpt lat="47.28681" lon="5.99297">
        <ele>366.39999389648</ele>
        <time>2019-09-11T14:09:20Z</time>
      </trkpt>
      <trkpt lat="47.28699" lon="5.99298">
        <ele>367</ele>
        <time>2019-09-11T14:09:25Z</time>
      </trkpt>
      <trkpt lat="47.28709" lon="5.99296">
        <ele>367.60000610352</ele>
        <time>2019-09-11T14:09:28Z</time>
      </trkpt>
      <trkpt lat="47.28723" lon="5.99294">
        <ele>368.20001220703</ele>
        <time>2019-09-11T14:09:32Z</time>
      </trkpt>
      <trkpt lat="47.28726" lon="5.99295">
        <ele>368.60000610352</ele>
        <time>2019-09-11T14:09:33Z</time>
      </trkpt>
      <trkpt lat="47.28736" lon="5.99298">
        <ele>369.39999389648</ele>
        <time>2019-09-11T14:09:36Z</time>
      </trkpt>
      <trkpt lat="47.28738" lon="5.99296">
        <ele>369.60000610352</ele>
        <time>2019-09-11T14:09:37Z</time>
      </trkpt>
      <trkpt lat="47.28747" lon="5.99295">
        <ele>370.39999389648</ele>
        <time>2019-09-11T14:09:41Z</time>
      </trkpt>
      <trkpt lat="47.28751" lon="5.99295">
        <ele>370.39999389648</ele>
        <time>2019-09-11T14:09:42Z</time>
      </trkpt>
      <trkpt lat="47.28756" lon="5.9929">
        <ele>370.60000610352</ele>
        <time>2019-09-11T14:09:44Z</time>
      </trkpt>
      <trkpt lat="47.28767" lon="5.99279">
        <ele>371</ele>
        <time>2019-09-11T14:09:48Z</time>
      </trkpt>
      <trkpt lat="47.28781" lon="5.99281">
        <ele>371.20001220703</ele>
        <time>2019-09-11T14:09:52Z</time>
      </trkpt>
      <trkpt lat="47.28784" lon="5.99283">
        <ele>371.20001220703</ele>
        <time>2019-09-11T14:09:53Z</time>
      </trkpt>
      <trkpt lat="47.28811" lon="5.99292">
        <ele>371.20001220703</ele>
        <time>2019-09-11T14:10:00Z</time>
      </trkpt>
      <trkpt lat="47.28845" lon="5.99296">
        <ele>371.20001220703</ele>
        <time>2019-09-11T14:10:08Z</time>
      </trkpt>
      <trkpt lat="47.28883" lon="5.99298">
        <ele>370.79998779297</ele>
        <time>2019-09-11T14:10:16Z</time>
      </trkpt>
      <trkpt lat="47.28923" lon="5.99299">
        <ele>370.39999389648</ele>
        <time>2019-09-11T14:10:25Z</time>
      </trkpt>
      <trkpt lat="47.28966" lon="5.99299">
        <ele>369.60000610352</ele>
        <time>2019-09-11T14:10:34Z</time>
      </trkpt>
      <trkpt lat="47.28979" lon="5.99299">
        <ele>369.39999389648</ele>
        <time>2019-09-11T14:10:37Z</time>
      </trkpt>
      <trkpt lat="47.28996" lon="5.99299">
        <ele>369.39999389648</ele>
        <time>2019-09-11T14:10:41Z</time>
      </trkpt>
      <trkpt lat="47.2902" lon="5.99299">
        <ele>369.60000610352</ele>
        <time>2019-09-11T14:10:48Z</time>
      </trkpt>
      <trkpt lat="47.29041" lon="5.99307">
        <ele>370.39999389648</ele>
        <time>2019-09-11T14:10:55Z</time>
      </trkpt>
      <trkpt lat="47.29046" lon="5.99308">
        <ele>370.60000610352</ele>
        <time>2019-09-11T14:10:57Z</time>
      </trkpt>
      <trkpt lat="47.29047" lon="5.99306">
        <ele>370.60000610352</ele>
        <time>2019-09-11T14:10:58Z</time>
      </trkpt>
      <trkpt lat="47.29054" lon="5.99298">
        <ele>370.60000610352</ele>
        <time>2019-09-11T14:11:02Z</time>
      </trkpt>
      <trkpt lat="47.29056" lon="5.99298">
        <ele>370.60000610352</ele>
        <time>2019-09-11T14:11:03Z</time>
      </trkpt>
      <trkpt lat="47.29059" lon="5.99298">
        <ele>370.79998779297</ele>
        <time>2019-09-11T14:11:04Z</time>
      </trkpt>
      <trkpt lat="47.29071" lon="5.99298">
        <ele>371.79998779297</ele>
        <time>2019-09-11T14:11:09Z</time>
      </trkpt>
      <trkpt lat="47.29074" lon="5.99298">
        <ele>372.20001220703</ele>
        <time>2019-09-11T14:11:10Z</time>
      </trkpt>
      <trkpt lat="47.2909" lon="5.99298">
        <ele>372.79998779297</ele>
        <time>2019-09-11T14:11:16Z</time>
      </trkpt>
      <trkpt lat="47.29095" lon="5.99298">
        <ele>373.20001220703</ele>
        <time>2019-09-11T14:11:18Z</time>
      </trkpt>
      <trkpt lat="47.29105" lon="5.99297">
        <ele>374</ele>
        <time>2019-09-11T14:11:22Z</time>
      </trkpt>
      <trkpt lat="47.29112" lon="5.99298">
        <ele>374.39999389648</ele>
        <time>2019-09-11T14:11:25Z</time>
      </trkpt>
      <trkpt lat="47.2912" lon="5.99297">
        <ele>375.20001220703</ele>
        <time>2019-09-11T14:11:28Z</time>
      </trkpt>
      <trkpt lat="47.29129" lon="5.99297">
        <ele>376</ele>
        <time>2019-09-11T14:11:32Z</time>
      </trkpt>
      <trkpt lat="47.29132" lon="5.99297">
        <ele>376.20001220703</ele>
        <time>2019-09-11T14:11:33Z</time>
      </trkpt>
      <trkpt lat="47.29145" lon="5.99298">
        <ele>377.39999389648</ele>
        <time>2019-09-11T14:11:39Z</time>
      </trkpt>
      <trkpt lat="47.2915" lon="5.99298">
        <ele>377.79998779297</ele>
        <time>2019-09-11T14:11:41Z</time>
      </trkpt>
      <trkpt lat="47.29157" lon="5.99298">
        <ele>378.60000610352</ele>
        <time>2019-09-11T14:11:44Z</time>
      </trkpt>
      <trkpt lat="47.29167" lon="5.99298">
        <ele>379.60000610352</ele>
        <time>2019-09-11T14:11:49Z</time>
      </trkpt>
      <trkpt lat="47.2917" lon="5.99298">
        <ele>379.79998779297</ele>
        <time>2019-09-11T14:11:50Z</time>
      </trkpt>
      <trkpt lat="47.2918" lon="5.99298">
        <ele>380.60000610352</ele>
        <time>2019-09-11T14:11:55Z</time>
      </trkpt>
      <trkpt lat="47.29188" lon="5.99298">
        <ele>381.20001220703</ele>
        <time>2019-09-11T14:11:59Z</time>
      </trkpt>
      <trkpt lat="47.29192" lon="5.99297">
        <ele>381.60000610352</ele>
        <time>2019-09-11T14:12:01Z</time>
      </trkpt>
      <trkpt lat="47.29204" lon="5.99297">
        <ele>382.60000610352</ele>
        <time>2019-09-11T14:12:07Z</time>
      </trkpt>
      <trkpt lat="47.29206" lon="5.99298">
        <ele>382.79998779297</ele>
        <time>2019-09-11T14:12:08Z</time>
      </trkpt>
      <trkpt lat="47.29215" lon="5.99298">
        <ele>384</ele>
        <time>2019-09-11T14:12:12Z</time>
      </trkpt>
      <trkpt lat="47.29225" lon="5.99299">
        <ele>384.79998779297</ele>
        <time>2019-09-11T14:12:17Z</time>
      </trkpt>
      <trkpt lat="47.29227" lon="5.99299">
        <ele>385</ele>
        <time>2019-09-11T14:12:18Z</time>
      </trkpt>
      <trkpt lat="47.29237" lon="5.99299">
        <ele>386.20001220703</ele>
        <time>2019-09-11T14:12:23Z</time>
      </trkpt>
      <trkpt lat="47.29242" lon="5.99299">
        <ele>386.39999389648</ele>
        <time>2019-09-11T14:12:25Z</time>
      </trkpt>
      <trkpt lat="47.29252" lon="5.99299">
        <ele>387.20001220703</ele>
        <time>2019-09-11T14:12:30Z</time>
      </trkpt>
      <trkpt lat="47.29263" lon="5.99299">
        <ele>388.20001220703</ele>
        <time>2019-09-11T14:12:35Z</time>
      </trkpt>
      <trkpt lat="47.29266" lon="5.99299">
        <ele>388.39999389648</ele>
        <time>2019-09-11T14:12:36Z</time>
      </trkpt>
      <trkpt lat="47.29277" lon="5.993">
        <ele>389.20001220703</ele>
        <time>2019-09-11T14:12:41Z</time>
      </trkpt>
      <trkpt lat="47.29282" lon="5.993">
        <ele>389.60000610352</ele>
        <time>2019-09-11T14:12:43Z</time>
      </trkpt>
      <trkpt lat="47.29291" lon="5.99301">
        <ele>390.39999389648</ele>
        <time>2019-09-11T14:12:47Z</time>
      </trkpt>
      <trkpt lat="47.29303" lon="5.99301">
        <ele>391</ele>
        <time>2019-09-11T14:12:52Z</time>
      </trkpt>
      <trkpt lat="47.29311" lon="5.99301">
        <ele>391.39999389648</ele>
        <time>2019-09-11T14:12:55Z</time>
      </trkpt>
      <trkpt lat="47.29324" lon="5.99301">
        <ele>392</ele>
        <time>2019-09-11T14:13:00Z</time>
      </trkpt>
      <trkpt lat="47.29334" lon="5.99301">
        <ele>392.39999389648</ele>
        <time>2019-09-11T14:13:04Z</time>
      </trkpt>
      <trkpt lat="47.29344" lon="5.99303">
        <ele>393.20001220703</ele>
        <time>2019-09-11T14:13:08Z</time>
      </trkpt>
      <trkpt lat="47.29355" lon="5.99303">
        <ele>393.60000610352</ele>
        <time>2019-09-11T14:13:12Z</time>
      </trkpt>
      <trkpt lat="47.29372" lon="5.99304">
        <ele>394</ele>
        <time>2019-09-11T14:13:17Z</time>
      </trkpt>
      <trkpt lat="47.29407" lon="5.99306">
        <ele>394.20001220703</ele>
        <time>2019-09-11T14:13:26Z</time>
      </trkpt>
      <trkpt lat="47.29436" lon="5.99312">
        <ele>394.60000610352</ele>
        <time>2019-09-11T14:13:33Z</time>
      </trkpt>
      <trkpt lat="47.2944" lon="5.99313">
        <ele>394.60000610352</ele>
        <time>2019-09-11T14:13:34Z</time>
      </trkpt>
      <trkpt lat="47.29477" lon="5.99325">
        <ele>394.79998779297</ele>
        <time>2019-09-11T14:13:43Z</time>
      </trkpt>
      <trkpt lat="47.29504" lon="5.99338">
        <ele>395.20001220703</ele>
        <time>2019-09-11T14:13:50Z</time>
      </trkpt>
      <trkpt lat="47.29511" lon="5.99342">
        <ele>395.39999389648</ele>
        <time>2019-09-11T14:13:52Z</time>
      </trkpt>
      <trkpt lat="47.2953" lon="5.99352">
        <ele>396</ele>
        <time>2019-09-11T14:13:57Z</time>
      </trkpt>
      <trkpt lat="47.29547" lon="5.99363">
        <ele>396.39999389648</ele>
        <time>2019-09-11T14:14:02Z</time>
      </trkpt>
      <trkpt lat="47.29557" lon="5.99369">
        <ele>396.79998779297</ele>
        <time>2019-09-11T14:14:05Z</time>
      </trkpt>
      <trkpt lat="47.29569" lon="5.99377">
        <ele>397.39999389648</ele>
        <time>2019-09-11T14:14:09Z</time>
      </trkpt>
      <trkpt lat="47.29581" lon="5.99385">
        <ele>398.39999389648</ele>
        <time>2019-09-11T14:14:13Z</time>
      </trkpt>
      <trkpt lat="47.29584" lon="5.99386">
        <ele>399</ele>
        <time>2019-09-11T14:14:14Z</time>
      </trkpt>
      <trkpt lat="47.29598" lon="5.99396">
        <ele>400</ele>
        <time>2019-09-11T14:14:19Z</time>
      </trkpt>
      <trkpt lat="47.29601" lon="5.99398">
        <ele>400.39999389648</ele>
        <time>2019-09-11T14:14:20Z</time>
      </trkpt>
      <trkpt lat="47.29612" lon="5.99406">
        <ele>401.20001220703</ele>
        <time>2019-09-11T14:14:24Z</time>
      </trkpt>
      <trkpt lat="47.29628" lon="5.99416">
        <ele>402.39999389648</ele>
        <time>2019-09-11T14:14:30Z</time>
      </trkpt>
      <trkpt lat="47.29648" lon="5.99428">
        <ele>403.60000610352</ele>
        <time>2019-09-11T14:14:37Z</time>
      </trkpt>
      <trkpt lat="47.29666" lon="5.99437">
        <ele>404.60000610352</ele>
        <time>2019-09-11T14:14:43Z</time>
      </trkpt>
      <trkpt lat="47.29671" lon="5.9944">
        <ele>404.79998779297</ele>
        <time>2019-09-11T14:14:45Z</time>
      </trkpt>
      <trkpt lat="47.29695" lon="5.9945">
        <ele>405.60000610352</ele>
        <time>2019-09-11T14:14:53Z</time>
      </trkpt>
      <trkpt lat="47.29704" lon="5.99454">
        <ele>406</ele>
        <time>2019-09-11T14:14:56Z</time>
      </trkpt>
      <trkpt lat="47.2972" lon="5.9946">
        <ele>406.60000610352</ele>
        <time>2019-09-11T14:15:01Z</time>
      </trkpt>
      <trkpt lat="47.29739" lon="5.99468">
        <ele>407.39999389648</ele>
        <time>2019-09-11T14:15:07Z</time>
      </trkpt>
      <trkpt lat="47.29749" lon="5.99471">
        <ele>407.79998779297</ele>
        <time>2019-09-11T14:15:10Z</time>
      </trkpt>
      <trkpt lat="47.29771" lon="5.99479">
        <ele>408</ele>
        <time>2019-09-11T14:15:16Z</time>
      </trkpt>
      <trkpt lat="47.29785" lon="5.99492">
        <ele>408.20001220703</ele>
        <time>2019-09-11T14:15:21Z</time>
      </trkpt>
      <trkpt lat="47.298" lon="5.99512">
        <ele>408.20001220703</ele>
        <time>2019-09-11T14:15:27Z</time>
      </trkpt>
      <trkpt lat="47.29816" lon="5.99536">
        <ele>408.79998779297</ele>
        <time>2019-09-11T14:15:34Z</time>
      </trkpt>
      <trkpt lat="47.29818" lon="5.9954">
        <ele>409</ele>
        <time>2019-09-11T14:15:35Z</time>
      </trkpt>
      <trkpt lat="47.29827" lon="5.9956">
        <ele>410</ele>
        <time>2019-09-11T14:15:40Z</time>
      </trkpt>
      <trkpt lat="47.2983" lon="5.99567">
        <ele>410.39999389648</ele>
        <time>2019-09-11T14:15:42Z</time>
      </trkpt>
      <trkpt lat="47.29833" lon="5.99579">
        <ele>411.20001220703</ele>
        <time>2019-09-11T14:15:45Z</time>
      </trkpt>
      <trkpt lat="47.29837" lon="5.99595">
        <ele>412.39999389648</ele>
        <time>2019-09-11T14:15:49Z</time>
      </trkpt>
      <trkpt lat="47.2984" lon="5.9962">
        <ele>413.39999389648</ele>
        <time>2019-09-11T14:15:55Z</time>
      </trkpt>
      <trkpt lat="47.29844" lon="5.9964">
        <ele>414.60000610352</ele>
        <time>2019-09-11T14:16:00Z</time>
      </trkpt>
      <trkpt lat="47.29845" lon="5.99644">
        <ele>414.79998779297</ele>
        <time>2019-09-11T14:16:01Z</time>
      </trkpt>
      <trkpt lat="47.29854" lon="5.99667">
        <ele>415.60000610352</ele>
        <time>2019-09-11T14:16:07Z</time>
      </trkpt>
      <trkpt lat="47.29869" lon="5.9969">
        <ele>416.79998779297</ele>
        <time>2019-09-11T14:16:15Z</time>
      </trkpt>
      <trkpt lat="47.29894" lon="5.99715">
        <ele>417.60000610352</ele>
        <time>2019-09-11T14:16:23Z</time>
      </trkpt>
      <trkpt lat="47.29897" lon="5.99718">
        <ele>417.79998779297</ele>
        <time>2019-09-11T14:16:24Z</time>
      </trkpt>
      <trkpt lat="47.29925" lon="5.99745">
        <ele>418.20001220703</ele>
        <time>2019-09-11T14:16:33Z</time>
      </trkpt>
      <trkpt lat="47.29942" lon="5.99757">
        <ele>418.60000610352</ele>
        <time>2019-09-11T14:16:38Z</time>
      </trkpt>
      <trkpt lat="47.29945" lon="5.99761">
        <ele>418.79998779297</ele>
        <time>2019-09-11T14:16:39Z</time>
      </trkpt>
      <trkpt lat="47.29949" lon="5.99764">
        <ele>419</ele>
        <time>2019-09-11T14:16:40Z</time>
      </trkpt>
      <trkpt lat="47.29976" lon="5.99796">
        <ele>419.39999389648</ele>
        <time>2019-09-11T14:16:47Z</time>
      </trkpt>
      <trkpt lat="47.29996" lon="5.99829">
        <ele>419.20001220703</ele>
        <time>2019-09-11T14:16:52Z</time>
      </trkpt>
      <trkpt lat="47.30015" lon="5.99872">
        <ele>418.60000610352</ele>
        <time>2019-09-11T14:16:58Z</time>
      </trkpt>
      <trkpt lat="47.30029" lon="5.9992">
        <ele>418.20001220703</ele>
        <time>2019-09-11T14:17:05Z</time>
      </trkpt>
      <trkpt lat="47.30042" lon="5.99955">
        <ele>418.20001220703</ele>
        <time>2019-09-11T14:17:11Z</time>
      </trkpt>
      <trkpt lat="47.30052" lon="5.99975">
        <ele>418.79998779297</ele>
        <time>2019-09-11T14:17:15Z</time>
      </trkpt>
      <trkpt lat="47.30057" lon="5.99983">
        <ele>419.20001220703</ele>
        <time>2019-09-11T14:17:17Z</time>
      </trkpt>
      <trkpt lat="47.30072" lon="6.00004">
        <ele>420.39999389648</ele>
        <time>2019-09-11T14:17:22Z</time>
      </trkpt>
      <trkpt lat="47.30079" lon="6.00012">
        <ele>420.79998779297</ele>
        <time>2019-09-11T14:17:24Z</time>
      </trkpt>
      <trkpt lat="47.30084" lon="6.00019">
        <ele>421.39999389648</ele>
        <time>2019-09-11T14:17:26Z</time>
      </trkpt>
      <trkpt lat="47.30094" lon="6.00034">
        <ele>422.79998779297</ele>
        <time>2019-09-11T14:17:30Z</time>
      </trkpt>
      <trkpt lat="47.30107" lon="6.00053">
        <ele>423.79998779297</ele>
        <time>2019-09-11T14:17:35Z</time>
      </trkpt>
      <trkpt lat="47.30115" lon="6.00065">
        <ele>424.20001220703</ele>
        <time>2019-09-11T14:17:38Z</time>
      </trkpt>
      <trkpt lat="47.30122" lon="6.00076">
        <ele>424.79998779297</ele>
        <time>2019-09-11T14:17:41Z</time>
      </trkpt>
      <trkpt lat="47.30132" lon="6.0009">
        <ele>426.20001220703</ele>
        <time>2019-09-11T14:17:45Z</time>
      </trkpt>
      <trkpt lat="47.30157" lon="6.00127">
        <ele>427.20001220703</ele>
        <time>2019-09-11T14:17:54Z</time>
      </trkpt>
      <trkpt lat="47.30176" lon="6.00153">
        <ele>427.60000610352</ele>
        <time>2019-09-11T14:18:00Z</time>
      </trkpt>
      <trkpt lat="47.30203" lon="6.00188">
        <ele>427.79998779297</ele>
        <time>2019-09-11T14:18:08Z</time>
      </trkpt>
      <trkpt lat="47.30227" lon="6.00219">
        <ele>428</ele>
        <time>2019-09-11T14:18:15Z</time>
      </trkpt>
      <trkpt lat="47.30249" lon="6.00251">
        <ele>427.79998779297</ele>
        <time>2019-09-11T14:18:22Z</time>
      </trkpt>
      <trkpt lat="47.30279" lon="6.00293">
        <ele>427.60000610352</ele>
        <time>2019-09-11T14:18:31Z</time>
      </trkpt>
      <trkpt lat="47.30299" lon="6.00327">
        <ele>428.39999389648</ele>
        <time>2019-09-11T14:18:38Z</time>
      </trkpt>
      <trkpt lat="47.30301" lon="6.00332">
        <ele>428.60000610352</ele>
        <time>2019-09-11T14:18:39Z</time>
      </trkpt>
      <trkpt lat="47.3031" lon="6.00355">
        <ele>429.39999389648</ele>
        <time>2019-09-11T14:18:44Z</time>
      </trkpt>
      <trkpt lat="47.30319" lon="6.00371">
        <ele>430.20001220703</ele>
        <time>2019-09-11T14:18:48Z</time>
      </trkpt>
      <trkpt lat="47.30324" lon="6.00377">
        <ele>430.60000610352</ele>
        <time>2019-09-11T14:18:50Z</time>
      </trkpt>
      <trkpt lat="47.3034" lon="6.00395">
        <ele>431.60000610352</ele>
        <time>2019-09-11T14:18:56Z</time>
      </trkpt>
      <trkpt lat="47.30352" lon="6.00407">
        <ele>432.79998779297</ele>
        <time>2019-09-11T14:19:01Z</time>
      </trkpt>
      <trkpt lat="47.30362" lon="6.00416">
        <ele>433.60000610352</ele>
        <time>2019-09-11T14:19:05Z</time>
      </trkpt>
      <trkpt lat="47.30364" lon="6.00418">
        <ele>433.79998779297</ele>
        <time>2019-09-11T14:19:06Z</time>
      </trkpt>
      <trkpt lat="47.30376" lon="6.00429">
        <ele>434.79998779297</ele>
        <time>2019-09-11T14:19:11Z</time>
      </trkpt>
      <trkpt lat="47.30381" lon="6.00433">
        <ele>435.60000610352</ele>
        <time>2019-09-11T14:19:13Z</time>
      </trkpt>
      <trkpt lat="47.30385" lon="6.00437">
        <ele>436</ele>
        <time>2019-09-11T14:19:15Z</time>
      </trkpt>
      <trkpt lat="47.30397" lon="6.00448">
        <ele>437</ele>
        <time>2019-09-11T14:19:20Z</time>
      </trkpt>
      <trkpt lat="47.30409" lon="6.00459">
        <ele>438</ele>
        <time>2019-09-11T14:19:25Z</time>
      </trkpt>
      <trkpt lat="47.30414" lon="6.00464">
        <ele>438.20001220703</ele>
        <time>2019-09-11T14:19:27Z</time>
      </trkpt>
      <trkpt lat="47.3043" lon="6.00482">
        <ele>439.20001220703</ele>
        <time>2019-09-11T14:19:34Z</time>
      </trkpt>
      <trkpt lat="47.30448" lon="6.00504">
        <ele>440.39999389648</ele>
        <time>2019-09-11T14:19:42Z</time>
      </trkpt>
      <trkpt lat="47.3045" lon="6.00507">
        <ele>440.60000610352</ele>
        <time>2019-09-11T14:19:43Z</time>
      </trkpt>
      <trkpt lat="47.30463" lon="6.00521">
        <ele>441.39999389648</ele>
        <time>2019-09-11T14:19:48Z</time>
      </trkpt>
      <trkpt lat="47.30473" lon="6.0053">
        <ele>442</ele>
        <time>2019-09-11T14:19:52Z</time>
      </trkpt>
      <trkpt lat="47.30496" lon="6.00542">
        <ele>442.60000610352</ele>
        <time>2019-09-11T14:20:00Z</time>
      </trkpt>
      <trkpt lat="47.30513" lon="6.00547">
        <ele>443</ele>
        <time>2019-09-11T14:20:06Z</time>
      </trkpt>
      <trkpt lat="47.30526" lon="6.00549">
        <ele>443.39999389648</ele>
        <time>2019-09-11T14:20:11Z</time>
      </trkpt>
      <trkpt lat="47.30531" lon="6.00549">
        <ele>443.79998779297</ele>
        <time>2019-09-11T14:20:13Z</time>
      </trkpt>
      <trkpt lat="47.3054" lon="6.00551">
        <ele>444.60000610352</ele>
        <time>2019-09-11T14:20:16Z</time>
      </trkpt>
      <trkpt lat="47.30551" lon="6.0055">
        <ele>445.39999389648</ele>
        <time>2019-09-11T14:20:20Z</time>
      </trkpt>
      <trkpt lat="47.30554" lon="6.00551">
        <ele>445.60000610352</ele>
        <time>2019-09-11T14:20:21Z</time>
      </trkpt>
      <trkpt lat="47.30574" lon="6.00553">
        <ele>446.79998779297</ele>
        <time>2019-09-11T14:20:28Z</time>
      </trkpt>
      <trkpt lat="47.30577" lon="6.00553">
        <ele>446.79998779297</ele>
        <time>2019-09-11T14:20:29Z</time>
      </trkpt>
      <trkpt lat="47.30597" lon="6.00559">
        <ele>447.39999389648</ele>
        <time>2019-09-11T14:20:36Z</time>
      </trkpt>
      <trkpt lat="47.30611" lon="6.00569">
        <ele>447.79998779297</ele>
        <time>2019-09-11T14:20:41Z</time>
      </trkpt>
      <trkpt lat="47.30616" lon="6.00574">
        <ele>448</ele>
        <time>2019-09-11T14:20:43Z</time>
      </trkpt>
      <trkpt lat="47.30637" lon="6.00588">
        <ele>448.39999389648</ele>
        <time>2019-09-11T14:20:50Z</time>
      </trkpt>
      <trkpt lat="47.30635" lon="6.00599">
        <ele>448.60000610352</ele>
        <time>2019-09-11T14:20:53Z</time>
      </trkpt>
      <trkpt lat="47.30633" lon="6.00602">
        <ele>448.79998779297</ele>
        <time>2019-09-11T14:20:54Z</time>
      </trkpt>
      <trkpt lat="47.30631" lon="6.00605">
        <ele>449</ele>
        <time>2019-09-11T14:20:55Z</time>
      </trkpt>
      <trkpt lat="47.3062" lon="6.00623">
        <ele>449.39999389648</ele>
        <time>2019-09-11T14:21:00Z</time>
      </trkpt>
      <trkpt lat="47.30616" lon="6.0063">
        <ele>450</ele>
        <time>2019-09-11T14:21:02Z</time>
      </trkpt>
      <trkpt lat="47.30606" lon="6.00644">
        <ele>451.20001220703</ele>
        <time>2019-09-11T14:21:06Z</time>
      </trkpt>
      <trkpt lat="47.30604" lon="6.00647">
        <ele>451.39999389648</ele>
        <time>2019-09-11T14:21:07Z</time>
      </trkpt>
      <trkpt lat="47.30595" lon="6.0066">
        <ele>452.20001220703</ele>
        <time>2019-09-11T14:21:12Z</time>
      </trkpt>
      <trkpt lat="47.30591" lon="6.00664">
        <ele>452.39999389648</ele>
        <time>2019-09-11T14:21:14Z</time>
      </trkpt>
      <trkpt lat="47.3059" lon="6.00666">
        <ele>452.60000610352</ele>
        <time>2019-09-11T14:21:17Z</time>
      </trkpt>
      <trkpt lat="47.30592" lon="6.0067">
        <ele>453</ele>
        <time>2019-09-11T14:22:27Z</time>
      </trkpt>
      <trkpt lat="47.30592" lon="6.00671">
        <ele>453</ele>
        <time>2019-09-11T14:22:30Z</time>
      </trkpt>
      <trkpt lat="47.30586" lon="6.00657">
        <ele>504.39999389648</ele>
        <time>2019-09-12T06:37:44Z</time>
      </trkpt>
      <trkpt lat="47.30586" lon="6.00657">
        <ele>504.20001220703</ele>
        <time>2019-09-12T06:37:45Z</time>
      </trkpt>
      <trkpt lat="47.30583" lon="6.00646">
        <ele>503.79998779297</ele>
        <time>2019-09-12T06:37:46Z</time>
      </trkpt>
      <trkpt lat="47.3058" lon="6.00641">
        <ele>503.60000610352</ele>
        <time>2019-09-12T06:37:47Z</time>
      </trkpt>
      <trkpt lat="47.30577" lon="6.00635">
        <ele>503.39999389648</ele>
        <time>2019-09-12T06:37:48Z</time>
      </trkpt>
      <trkpt lat="47.30573" lon="6.00629">
        <ele>502.79998779297</ele>
        <time>2019-09-12T06:37:49Z</time>
      </trkpt>
      <trkpt lat="47.30569" lon="6.00622">
        <ele>502.60000610352</ele>
        <time>2019-09-12T06:37:50Z</time>
      </trkpt>
      <trkpt lat="47.30569" lon="6.00622">
        <ele>502</ele>
        <time>2019-09-12T06:37:51Z</time>
      </trkpt>
      <trkpt lat="47.30556" lon="6.00598">
        <ele>501</ele>
        <time>2019-09-12T06:37:53Z</time>
      </trkpt>
      <trkpt lat="47.30545" lon="6.00577">
        <ele>500</ele>
        <time>2019-09-12T06:37:56Z</time>
      </trkpt>
      <trkpt lat="47.30539" lon="6.00566">
        <ele>499.20001220703</ele>
        <time>2019-09-12T06:37:58Z</time>
      </trkpt>
      <trkpt lat="47.30536" lon="6.00561">
        <ele>499</ele>
        <time>2019-09-12T06:37:59Z</time>
      </trkpt>
      <trkpt lat="47.30529" lon="6.0055">
        <ele>499.20001220703</ele>
        <time>2019-09-12T06:38:03Z</time>
      </trkpt>
      <trkpt lat="47.30521" lon="6.00546">
        <ele>499.60000610352</ele>
        <time>2019-09-12T06:38:04Z</time>
      </trkpt>
      <trkpt lat="47.30512" lon="6.00544">
        <ele>499</ele>
        <time>2019-09-12T06:38:06Z</time>
      </trkpt>
      <trkpt lat="47.30501" lon="6.0054">
        <ele>498.60000610352</ele>
        <time>2019-09-12T06:38:08Z</time>
      </trkpt>
      <trkpt lat="47.3049" lon="6.00534">
        <ele>498.20001220703</ele>
        <time>2019-09-12T06:38:11Z</time>
      </trkpt>
      <trkpt lat="47.30488" lon="6.00533">
        <ele>497.79998779297</ele>
        <time>2019-09-12T06:38:12Z</time>
      </trkpt>
      <trkpt lat="47.30487" lon="6.00532">
        <ele>497.20001220703</ele>
        <time>2019-09-12T06:38:14Z</time>
      </trkpt>
      <trkpt lat="47.30485" lon="6.0053">
        <ele>495</ele>
        <time>2019-09-12T06:38:41Z</time>
      </trkpt>
      <trkpt lat="47.30481" lon="6.00527">
        <ele>495</ele>
        <time>2019-09-12T06:38:43Z</time>
      </trkpt>
      <trkpt lat="47.30463" lon="6.0051">
        <ele>495</ele>
        <time>2019-09-12T06:38:49Z</time>
      </trkpt>
      <trkpt lat="47.30435" lon="6.00483">
        <ele>494.60000610352</ele>
        <time>2019-09-12T06:38:56Z</time>
      </trkpt>
      <trkpt lat="47.3041" lon="6.00457">
        <ele>494</ele>
        <time>2019-09-12T06:39:01Z</time>
      </trkpt>
      <trkpt lat="47.30404" lon="6.00451">
        <ele>493.79998779297</ele>
        <time>2019-09-12T06:39:02Z</time>
      </trkpt>
      <trkpt lat="47.30371" lon="6.00423">
        <ele>492.79998779297</ele>
        <time>2019-09-12T06:39:07Z</time>
      </trkpt>
      <trkpt lat="47.30364" lon="6.00416">
        <ele>492.20001220703</ele>
        <time>2019-09-12T06:39:09Z</time>
      </trkpt>
      <trkpt lat="47.30349" lon="6.00402">
        <ele>491.79998779297</ele>
        <time>2019-09-12T06:39:10Z</time>
      </trkpt>
      <trkpt lat="47.30327" lon="6.00377">
        <ele>490.79998779297</ele>
        <time>2019-09-12T06:39:13Z</time>
      </trkpt>
      <trkpt lat="47.3032" lon="6.00368">
        <ele>490.39999389648</ele>
        <time>2019-09-12T06:39:14Z</time>
      </trkpt>
      <trkpt lat="47.30313" lon="6.00357">
        <ele>489.79998779297</ele>
        <time>2019-09-12T06:39:16Z</time>
      </trkpt>
      <trkpt lat="47.30301" lon="6.00333">
        <ele>489</ele>
        <time>2019-09-12T06:39:17Z</time>
      </trkpt>
      <trkpt lat="47.30291" lon="6.0031">
        <ele>487.60000610352</ele>
        <time>2019-09-12T06:39:19Z</time>
      </trkpt>
      <trkpt lat="47.30285" lon="6.003">
        <ele>486.60000610352</ele>
        <time>2019-09-12T06:39:21Z</time>
      </trkpt>
      <trkpt lat="47.30265" lon="6.00271">
        <ele>485.39999389648</ele>
        <time>2019-09-12T06:39:23Z</time>
      </trkpt>
      <trkpt lat="47.30259" lon="6.00262">
        <ele>484.20001220703</ele>
        <time>2019-09-12T06:39:25Z</time>
      </trkpt>
      <trkpt lat="47.30252" lon="6.00253">
        <ele>484</ele>
        <time>2019-09-12T06:39:26Z</time>
      </trkpt>
      <trkpt lat="47.30234" lon="6.00228">
        <ele>482.79998779297</ele>
        <time>2019-09-12T06:39:29Z</time>
      </trkpt>
      <trkpt lat="47.30222" lon="6.00214">
        <ele>482.20001220703</ele>
        <time>2019-09-12T06:39:31Z</time>
      </trkpt>
      <trkpt lat="47.30211" lon="6.00201">
        <ele>481.60000610352</ele>
        <time>2019-09-12T06:39:33Z</time>
      </trkpt>
      <trkpt lat="47.30187" lon="6.00169">
        <ele>480.79998779297</ele>
        <time>2019-09-12T06:39:38Z</time>
      </trkpt>
      <trkpt lat="47.3016" lon="6.00131">
        <ele>480.79998779297</ele>
        <time>2019-09-12T06:39:44Z</time>
      </trkpt>
      <trkpt lat="47.30147" lon="6.00114">
        <ele>480.60000610352</ele>
        <time>2019-09-12T06:39:46Z</time>
      </trkpt>
      <trkpt lat="47.30143" lon="6.00108">
        <ele>480.60000610352</ele>
        <time>2019-09-12T06:39:47Z</time>
      </trkpt>
      <trkpt lat="47.30132" lon="6.00088">
        <ele>480.60000610352</ele>
        <time>2019-09-12T06:39:50Z</time>
      </trkpt>
      <trkpt lat="47.30108" lon="6.00047">
        <ele>480.20001220703</ele>
        <time>2019-09-12T06:39:57Z</time>
      </trkpt>
      <trkpt lat="47.30103" lon="6.0004">
        <ele>480</ele>
        <time>2019-09-12T06:39:58Z</time>
      </trkpt>
      <trkpt lat="47.30094" lon="6.00026">
        <ele>479.39999389648</ele>
        <time>2019-09-12T06:40:00Z</time>
      </trkpt>
      <trkpt lat="47.30082" lon="6.00012">
        <ele>479</ele>
        <time>2019-09-12T06:40:02Z</time>
      </trkpt>
      <trkpt lat="47.30068" lon="5.99996">
        <ele>478.39999389648</ele>
        <time>2019-09-12T06:40:04Z</time>
      </trkpt>
      <trkpt lat="47.30062" lon="5.99987">
        <ele>478</ele>
        <time>2019-09-12T06:40:05Z</time>
      </trkpt>
      <trkpt lat="47.30056" lon="5.99977">
        <ele>477.79998779297</ele>
        <time>2019-09-12T06:40:06Z</time>
      </trkpt>
      <trkpt lat="47.30046" lon="5.99955">
        <ele>477</ele>
        <time>2019-09-12T06:40:08Z</time>
      </trkpt>
      <trkpt lat="47.30038" lon="5.99931">
        <ele>476.39999389648</ele>
        <time>2019-09-12T06:40:10Z</time>
      </trkpt>
      <trkpt lat="47.30035" lon="5.99918">
        <ele>476</ele>
        <time>2019-09-12T06:40:11Z</time>
      </trkpt>
      <trkpt lat="47.30027" lon="5.99892">
        <ele>475.60000610352</ele>
        <time>2019-09-12T06:40:12Z</time>
      </trkpt>
      <trkpt lat="47.30023" lon="5.99879">
        <ele>474.39999389648</ele>
        <time>2019-09-12T06:40:14Z</time>
      </trkpt>
      <trkpt lat="47.30006" lon="5.99839">
        <ele>473</ele>
        <time>2019-09-12T06:40:17Z</time>
      </trkpt>
      <trkpt lat="47.30002" lon="5.99832">
        <ele>472.60000610352</ele>
        <time>2019-09-12T06:40:18Z</time>
      </trkpt>
      <trkpt lat="47.29988" lon="5.99813">
        <ele>472.20001220703</ele>
        <time>2019-09-12T06:40:21Z</time>
      </trkpt>
      <trkpt lat="47.29964" lon="5.99786">
        <ele>472.20001220703</ele>
        <time>2019-09-12T06:40:26Z</time>
      </trkpt>
      <trkpt lat="47.29954" lon="5.99777">
        <ele>472</ele>
        <time>2019-09-12T06:40:28Z</time>
      </trkpt>
      <trkpt lat="47.29935" lon="5.99762">
        <ele>472.20001220703</ele>
        <time>2019-09-12T06:40:32Z</time>
      </trkpt>
      <trkpt lat="47.29903" lon="5.99728">
        <ele>472.20001220703</ele>
        <time>2019-09-12T06:40:38Z</time>
      </trkpt>
      <trkpt lat="47.29873" lon="5.99691">
        <ele>471.79998779297</ele>
        <time>2019-09-12T06:40:44Z</time>
      </trkpt>
      <trkpt lat="47.2987" lon="5.99683">
        <ele>471.79998779297</ele>
        <time>2019-09-12T06:40:45Z</time>
      </trkpt>
      <trkpt lat="47.29866" lon="5.99674">
        <ele>471.60000610352</ele>
        <time>2019-09-12T06:40:46Z</time>
      </trkpt>
      <trkpt lat="47.29861" lon="5.99654">
        <ele>471.39999389648</ele>
        <time>2019-09-12T06:40:48Z</time>
      </trkpt>
      <trkpt lat="47.2985" lon="5.99598">
        <ele>470.79998779297</ele>
        <time>2019-09-12T06:40:53Z</time>
      </trkpt>
      <trkpt lat="47.29848" lon="5.99587">
        <ele>470.60000610352</ele>
        <time>2019-09-12T06:40:54Z</time>
      </trkpt>
      <trkpt lat="47.2983" lon="5.99544">
        <ele>469.20001220703</ele>
        <time>2019-09-12T06:40:58Z</time>
      </trkpt>
      <trkpt lat="47.29817" lon="5.99526">
        <ele>469</ele>
        <time>2019-09-12T06:41:00Z</time>
      </trkpt>
      <trkpt lat="47.2981" lon="5.99519">
        <ele>468.60000610352</ele>
        <time>2019-09-12T06:41:01Z</time>
      </trkpt>
      <trkpt lat="47.29803" lon="5.9951">
        <ele>468</ele>
        <time>2019-09-12T06:41:03Z</time>
      </trkpt>
      <trkpt lat="47.298" lon="5.99507">
        <ele>467.39999389648</ele>
        <time>2019-09-12T06:41:04Z</time>
      </trkpt>
      <trkpt lat="47.29798" lon="5.99504">
        <ele>466.79998779297</ele>
        <time>2019-09-12T06:41:05Z</time>
      </trkpt>
      <trkpt lat="47.29796" lon="5.99501">
        <ele>465</ele>
        <time>2019-09-12T06:41:07Z</time>
      </trkpt>
      <trkpt lat="47.29795" lon="5.99501">
        <ele>464</ele>
        <time>2019-09-12T06:41:08Z</time>
      </trkpt>
      <trkpt lat="47.29794" lon="5.99497">
        <ele>461.79998779297</ele>
        <time>2019-09-12T06:41:20Z</time>
      </trkpt>
      <trkpt lat="47.29791" lon="5.99485">
        <ele>461.60000610352</ele>
        <time>2019-09-12T06:41:23Z</time>
      </trkpt>
      <trkpt lat="47.29788" lon="5.99482">
        <ele>461.60000610352</ele>
        <time>2019-09-12T06:41:24Z</time>
      </trkpt>
      <trkpt lat="47.2978" lon="5.99479">
        <ele>461.60000610352</ele>
        <time>2019-09-12T06:41:26Z</time>
      </trkpt>
      <trkpt lat="47.29753" lon="5.9947">
        <ele>461.20001220703</ele>
        <time>2019-09-12T06:41:33Z</time>
      </trkpt>
      <trkpt lat="47.29712" lon="5.99454">
        <ele>461</ele>
        <time>2019-09-12T06:41:40Z</time>
      </trkpt>
      <trkpt lat="47.29669" lon="5.99435">
        <ele>460.79998779297</ele>
        <time>2019-09-12T06:41:47Z</time>
      </trkpt>
      <trkpt lat="47.29655" lon="5.99429">
        <ele>460.39999389648</ele>
        <time>2019-09-12T06:41:49Z</time>
      </trkpt>
      <trkpt lat="47.29621" lon="5.99407">
        <ele>459.60000610352</ele>
        <time>2019-09-12T06:41:54Z</time>
      </trkpt>
      <trkpt lat="47.29613" lon="5.99403">
        <ele>459.20001220703</ele>
        <time>2019-09-12T06:41:55Z</time>
      </trkpt>
      <trkpt lat="47.29575" lon="5.99374">
        <ele>458</ele>
        <time>2019-09-12T06:42:00Z</time>
      </trkpt>
      <trkpt lat="47.29558" lon="5.99362">
        <ele>457</ele>
        <time>2019-09-12T06:42:03Z</time>
      </trkpt>
      <trkpt lat="47.2953" lon="5.99347">
        <ele>455.79998779297</ele>
        <time>2019-09-12T06:42:05Z</time>
      </trkpt>
      <trkpt lat="47.29521" lon="5.99342">
        <ele>455.39999389648</ele>
        <time>2019-09-12T06:42:06Z</time>
      </trkpt>
      <trkpt lat="47.29502" lon="5.99333">
        <ele>454.39999389648</ele>
        <time>2019-09-12T06:42:08Z</time>
      </trkpt>
      <trkpt lat="47.29485" lon="5.99325">
        <ele>453.20001220703</ele>
        <time>2019-09-12T06:42:10Z</time>
      </trkpt>
      <trkpt lat="47.29468" lon="5.99318">
        <ele>452</ele>
        <time>2019-09-12T06:42:12Z</time>
      </trkpt>
      <trkpt lat="47.29451" lon="5.99312">
        <ele>450.79998779297</ele>
        <time>2019-09-12T06:42:15Z</time>
      </trkpt>
      <trkpt lat="47.29413" lon="5.99304">
        <ele>449.20001220703</ele>
        <time>2019-09-12T06:42:19Z</time>
      </trkpt>
      <trkpt lat="47.29406" lon="5.99303">
        <ele>449.20001220703</ele>
        <time>2019-09-12T06:42:20Z</time>
      </trkpt>
      <trkpt lat="47.29352" lon="5.993">
        <ele>448.20001220703</ele>
        <time>2019-09-12T06:42:28Z</time>
      </trkpt>
      <trkpt lat="47.29308" lon="5.99298">
        <ele>447.60000610352</ele>
        <time>2019-09-12T06:42:35Z</time>
      </trkpt>
      <trkpt lat="47.29285" lon="5.99299">
        <ele>447.20001220703</ele>
        <time>2019-09-12T06:42:39Z</time>
      </trkpt>
      <trkpt lat="47.2926" lon="5.99299">
        <ele>446.79998779297</ele>
        <time>2019-09-12T06:42:41Z</time>
      </trkpt>
      <trkpt lat="47.29231" lon="5.99298">
        <ele>446</ele>
        <time>2019-09-12T06:42:44Z</time>
      </trkpt>
      <trkpt lat="47.2921" lon="5.99297">
        <ele>445.20001220703</ele>
        <time>2019-09-12T06:42:46Z</time>
      </trkpt>
      <trkpt lat="47.29187" lon="5.99296">
        <ele>444.60000610352</ele>
        <time>2019-09-12T06:42:48Z</time>
      </trkpt>
      <trkpt lat="47.29163" lon="5.99295">
        <ele>443</ele>
        <time>2019-09-12T06:42:51Z</time>
      </trkpt>
      <trkpt lat="47.29139" lon="5.99294">
        <ele>442.39999389648</ele>
        <time>2019-09-12T06:42:52Z</time>
      </trkpt>
      <trkpt lat="47.29126" lon="5.99293">
        <ele>441.60000610352</ele>
        <time>2019-09-12T06:42:53Z</time>
      </trkpt>
      <trkpt lat="47.29101" lon="5.99292">
        <ele>439.39999389648</ele>
        <time>2019-09-12T06:42:55Z</time>
      </trkpt>
      <trkpt lat="47.29088" lon="5.99292">
        <ele>437.60000610352</ele>
        <time>2019-09-12T06:42:57Z</time>
      </trkpt>
      <trkpt lat="47.29049" lon="5.99292">
        <ele>435.79998779297</ele>
        <time>2019-09-12T06:42:59Z</time>
      </trkpt>
      <trkpt lat="47.29024" lon="5.99292">
        <ele>433.79998779297</ele>
        <time>2019-09-12T06:43:01Z</time>
      </trkpt>
      <trkpt lat="47.29011" lon="5.99292">
        <ele>432.20001220703</ele>
        <time>2019-09-12T06:43:03Z</time>
      </trkpt>
      <trkpt lat="47.28976" lon="5.99291">
        <ele>430.20001220703</ele>
        <time>2019-09-12T06:43:05Z</time>
      </trkpt>
      <trkpt lat="47.28965" lon="5.99291">
        <ele>429.20001220703</ele>
        <time>2019-09-12T06:43:06Z</time>
      </trkpt>
      <trkpt lat="47.28954" lon="5.99291">
        <ele>428.39999389648</ele>
        <time>2019-09-12T06:43:07Z</time>
      </trkpt>
      <trkpt lat="47.28944" lon="5.99291">
        <ele>427.60000610352</ele>
        <time>2019-09-12T06:43:08Z</time>
      </trkpt>
      <trkpt lat="47.28925" lon="5.99291">
        <ele>425.79998779297</ele>
        <time>2019-09-12T06:43:10Z</time>
      </trkpt>
      <trkpt lat="47.28908" lon="5.99291">
        <ele>424.79998779297</ele>
        <time>2019-09-12T06:43:12Z</time>
      </trkpt>
      <trkpt lat="47.289" lon="5.99291">
        <ele>424.60000610352</ele>
        <time>2019-09-12T06:43:13Z</time>
      </trkpt>
      <trkpt lat="47.28871" lon="5.9929">
        <ele>423.39999389648</ele>
        <time>2019-09-12T06:43:17Z</time>
      </trkpt>
      <trkpt lat="47.28864" lon="5.99289">
        <ele>423.20001220703</ele>
        <time>2019-09-12T06:43:18Z</time>
      </trkpt>
      <trkpt lat="47.28815" lon="5.99281">
        <ele>423</ele>
        <time>2019-09-12T06:43:27Z</time>
      </trkpt>
      <trkpt lat="47.2877" lon="5.99265">
        <ele>423.39999389648</ele>
        <time>2019-09-12T06:43:34Z</time>
      </trkpt>
      <trkpt lat="47.28759" lon="5.99258">
        <ele>423.60000610352</ele>
        <time>2019-09-12T06:43:36Z</time>
      </trkpt>
      <trkpt lat="47.28748" lon="5.99253">
        <ele>423.60000610352</ele>
        <time>2019-09-12T06:43:38Z</time>
      </trkpt>
      <trkpt lat="47.28738" lon="5.9926">
        <ele>423.60000610352</ele>
        <time>2019-09-12T06:43:40Z</time>
      </trkpt>
      <trkpt lat="47.28735" lon="5.99267">
        <ele>423.60000610352</ele>
        <time>2019-09-12T06:43:41Z</time>
      </trkpt>
      <trkpt lat="47.28726" lon="5.99286">
        <ele>423.79998779297</ele>
        <time>2019-09-12T06:43:45Z</time>
      </trkpt>
      <trkpt lat="47.28715" lon="5.99289">
        <ele>423.79998779297</ele>
        <time>2019-09-12T06:43:46Z</time>
      </trkpt>
      <trkpt lat="47.28709" lon="5.99289">
        <ele>423.79998779297</ele>
        <time>2019-09-12T06:43:47Z</time>
      </trkpt>
      <trkpt lat="47.28668" lon="5.99287">
        <ele>423.39999389648</ele>
        <time>2019-09-12T06:43:53Z</time>
      </trkpt>
      <trkpt lat="47.28622" lon="5.99285">
        <ele>422</ele>
        <time>2019-09-12T06:43:59Z</time>
      </trkpt>
      <trkpt lat="47.286" lon="5.99284">
        <ele>421</ele>
        <time>2019-09-12T06:44:02Z</time>
      </trkpt>
      <trkpt lat="47.2858" lon="5.99283">
        <ele>419.79998779297</ele>
        <time>2019-09-12T06:44:05Z</time>
      </trkpt>
      <trkpt lat="47.28563" lon="5.99283">
        <ele>418.79998779297</ele>
        <time>2019-09-12T06:44:08Z</time>
      </trkpt>
      <trkpt lat="47.28536" lon="5.99283">
        <ele>418.79998779297</ele>
        <time>2019-09-12T06:44:15Z</time>
      </trkpt>
      <trkpt lat="47.28497" lon="5.99281">
        <ele>420</ele>
        <time>2019-09-12T06:44:22Z</time>
      </trkpt>
      <trkpt lat="47.28486" lon="5.9928">
        <ele>420.20001220703</ele>
        <time>2019-09-12T06:44:26Z</time>
      </trkpt>
      <trkpt lat="47.28488" lon="5.99282">
        <ele>420.39999389648</ele>
        <time>2019-09-12T06:44:29Z</time>
      </trkpt>
      <trkpt lat="47.28487" lon="5.99282">
        <ele>420.39999389648</ele>
        <time>2019-09-12T06:44:32Z</time>
      </trkpt>
      <trkpt lat="47.28487" lon="5.99282">
        <ele>420.39999389648</ele>
        <time>2019-09-12T06:44:33Z</time>
      </trkpt>
      <trkpt lat="47.2848" lon="5.99283">
        <ele>420.20001220703</ele>
        <time>2019-09-12T06:44:34Z</time>
      </trkpt>
      <trkpt lat="47.28471" lon="5.99283">
        <ele>420.20001220703</ele>
        <time>2019-09-12T06:44:36Z</time>
      </trkpt>
      <trkpt lat="47.28435" lon="5.99282">
        <ele>419.79998779297</ele>
        <time>2019-09-12T06:44:42Z</time>
      </trkpt>
      <trkpt lat="47.28382" lon="5.9928">
        <ele>418.39999389648</ele>
        <time>2019-09-12T06:44:50Z</time>
      </trkpt>
      <trkpt lat="47.28382" lon="5.9928">
        <ele>418.20001220703</ele>
        <time>2019-09-12T06:44:51Z</time>
      </trkpt>
      <trkpt lat="47.28342" lon="5.9928">
        <ele>417.39999389648</ele>
        <time>2019-09-12T06:44:57Z</time>
      </trkpt>
      <trkpt lat="47.28323" lon="5.99276">
        <ele>417.20001220703</ele>
        <time>2019-09-12T06:44:59Z</time>
      </trkpt>
      <trkpt lat="47.28284" lon="5.99266">
        <ele>417.20001220703</ele>
        <time>2019-09-12T06:45:06Z</time>
      </trkpt>
      <trkpt lat="47.28255" lon="5.99255">
        <ele>418.60000610352</ele>
        <time>2019-09-12T06:45:12Z</time>
      </trkpt>
      <trkpt lat="47.28236" lon="5.99247">
        <ele>419.39999389648</ele>
        <time>2019-09-12T06:45:16Z</time>
      </trkpt>
      <trkpt lat="47.28232" lon="5.99245">
        <ele>419.60000610352</ele>
        <time>2019-09-12T06:45:17Z</time>
      </trkpt>
      <trkpt lat="47.28213" lon="5.99238">
        <ele>420.60000610352</ele>
        <time>2019-09-12T06:45:22Z</time>
      </trkpt>
      <trkpt lat="47.28211" lon="5.99238">
        <ele>420.79998779297</ele>
        <time>2019-09-12T06:45:23Z</time>
      </trkpt>
      <trkpt lat="47.28202" lon="5.99234">
        <ele>421.60000610352</ele>
        <time>2019-09-12T06:45:28Z</time>
      </trkpt>
      <trkpt lat="47.28195" lon="5.99232">
        <ele>421.79998779297</ele>
        <time>2019-09-12T06:45:30Z</time>
      </trkpt>
      <trkpt lat="47.28186" lon="5.99229">
        <ele>421.79998779297</ele>
        <time>2019-09-12T06:45:32Z</time>
      </trkpt>
      <trkpt lat="47.28156" lon="5.99225">
        <ele>422.20001220703</ele>
        <time>2019-09-12T06:45:39Z</time>
      </trkpt>
      <trkpt lat="47.28125" lon="5.99227">
        <ele>422.20001220703</ele>
        <time>2019-09-12T06:45:45Z</time>
      </trkpt>
      <trkpt lat="47.28081" lon="5.99243">
        <ele>422.20001220703</ele>
        <time>2019-09-12T06:45:52Z</time>
      </trkpt>
      <trkpt lat="47.28032" lon="5.9927">
        <ele>421.20001220703</ele>
        <time>2019-09-12T06:46:00Z</time>
      </trkpt>
      <trkpt lat="47.28018" lon="5.99277">
        <ele>420.39999389648</ele>
        <time>2019-09-12T06:46:03Z</time>
      </trkpt>
      <trkpt lat="47.27984" lon="5.99293">
        <ele>419.39999389648</ele>
        <time>2019-09-12T06:46:07Z</time>
      </trkpt>
      <trkpt lat="47.27956" lon="5.99306">
        <ele>418.20001220703</ele>
        <time>2019-09-12T06:46:11Z</time>
      </trkpt>
      <trkpt lat="47.27922" lon="5.99323">
        <ele>417</ele>
        <time>2019-09-12T06:46:16Z</time>
      </trkpt>
      <trkpt lat="47.27897" lon="5.99336">
        <ele>416.39999389648</ele>
        <time>2019-09-12T06:46:20Z</time>
      </trkpt>
      <trkpt lat="47.27885" lon="5.99341">
        <ele>416</ele>
        <time>2019-09-12T06:46:22Z</time>
      </trkpt>
      <trkpt lat="47.27848" lon="5.99359">
        <ele>414.79998779297</ele>
        <time>2019-09-12T06:46:28Z</time>
      </trkpt>
      <trkpt lat="47.27837" lon="5.99364">
        <ele>414.20001220703</ele>
        <time>2019-09-12T06:46:30Z</time>
      </trkpt>
      <trkpt lat="47.27827" lon="5.9937">
        <ele>413.20001220703</ele>
        <time>2019-09-12T06:46:33Z</time>
      </trkpt>
      <trkpt lat="47.27799" lon="5.99385">
        <ele>412.20001220703</ele>
        <time>2019-09-12T06:46:38Z</time>
      </trkpt>
      <trkpt lat="47.2779" lon="5.99386">
        <ele>411.39999389648</ele>
        <time>2019-09-12T06:46:40Z</time>
      </trkpt>
      <trkpt lat="47.27781" lon="5.99382">
        <ele>410.79998779297</ele>
        <time>2019-09-12T06:46:42Z</time>
      </trkpt>
      <trkpt lat="47.27771" lon="5.99372">
        <ele>410.39999389648</ele>
        <time>2019-09-12T06:46:44Z</time>
      </trkpt>
      <trkpt lat="47.27761" lon="5.9936">
        <ele>409.79998779297</ele>
        <time>2019-09-12T06:46:46Z</time>
      </trkpt>
      <trkpt lat="47.27757" lon="5.99352">
        <ele>409.60000610352</ele>
        <time>2019-09-12T06:46:47Z</time>
      </trkpt>
      <trkpt lat="47.2775" lon="5.99332">
        <ele>409</ele>
        <time>2019-09-12T06:46:50Z</time>
      </trkpt>
      <trkpt lat="47.2775" lon="5.99332">
        <ele>408.79998779297</ele>
        <time>2019-09-12T06:46:51Z</time>
      </trkpt>
      <trkpt lat="47.2775" lon="5.99321">
        <ele>408.60000610352</ele>
        <time>2019-09-12T06:46:52Z</time>
      </trkpt>
      <trkpt lat="47.2775" lon="5.99318">
        <ele>408</ele>
        <time>2019-09-12T06:46:54Z</time>
      </trkpt>
      <trkpt lat="47.2775" lon="5.99317">
        <ele>407.79998779297</ele>
        <time>2019-09-12T06:46:56Z</time>
      </trkpt>
      <trkpt lat="47.2775" lon="5.99314">
        <ele>407.79998779297</ele>
        <time>2019-09-12T06:47:05Z</time>
      </trkpt>
      <trkpt lat="47.2775" lon="5.99309">
        <ele>407.79998779297</ele>
        <time>2019-09-12T06:47:07Z</time>
      </trkpt>
      <trkpt lat="47.27751" lon="5.99285">
        <ele>407.79998779297</ele>
        <time>2019-09-12T06:47:11Z</time>
      </trkpt>
      <trkpt lat="47.27751" lon="5.9927">
        <ele>407.79998779297</ele>
        <time>2019-09-12T06:47:13Z</time>
      </trkpt>
      <trkpt lat="47.27746" lon="5.9925">
        <ele>407.79998779297</ele>
        <time>2019-09-12T06:47:16Z</time>
      </trkpt>
      <trkpt lat="47.27731" lon="5.99227">
        <ele>407.79998779297</ele>
        <time>2019-09-12T06:47:21Z</time>
      </trkpt>
      <trkpt lat="47.27721" lon="5.99222">
        <ele>407.79998779297</ele>
        <time>2019-09-12T06:47:22Z</time>
      </trkpt>
      <trkpt lat="47.27709" lon="5.99221">
        <ele>407.79998779297</ele>
        <time>2019-09-12T06:47:24Z</time>
      </trkpt>
      <trkpt lat="47.27696" lon="5.99224">
        <ele>407.79998779297</ele>
        <time>2019-09-12T06:47:27Z</time>
      </trkpt>
      <trkpt lat="47.27684" lon="5.99235">
        <ele>407.79998779297</ele>
        <time>2019-09-12T06:47:28Z</time>
      </trkpt>
      <trkpt lat="47.27668" lon="5.99252">
        <ele>407.39999389648</ele>
        <time>2019-09-12T06:47:31Z</time>
      </trkpt>
      <trkpt lat="47.27662" lon="5.99256">
        <ele>407</ele>
        <time>2019-09-12T06:47:33Z</time>
      </trkpt>
      <trkpt lat="47.2765" lon="5.99253">
        <ele>407</ele>
        <time>2019-09-12T06:47:34Z</time>
      </trkpt>
      <trkpt lat="47.27645" lon="5.99247">
        <ele>406.79998779297</ele>
        <time>2019-09-12T06:47:35Z</time>
      </trkpt>
      <trkpt lat="47.27636" lon="5.99221">
        <ele>406.39999389648</ele>
        <time>2019-09-12T06:47:38Z</time>
      </trkpt>
      <trkpt lat="47.27636" lon="5.99221">
        <ele>406.39999389648</ele>
        <time>2019-09-12T06:47:39Z</time>
      </trkpt>
      <trkpt lat="47.27634" lon="5.99201">
        <ele>406.20001220703</ele>
        <time>2019-09-12T06:47:40Z</time>
      </trkpt>
      <trkpt lat="47.27633" lon="5.99169">
        <ele>406</ele>
        <time>2019-09-12T06:47:43Z</time>
      </trkpt>
      <trkpt lat="47.2763" lon="5.99135">
        <ele>405.79998779297</ele>
        <time>2019-09-12T06:47:46Z</time>
      </trkpt>
      <trkpt lat="47.27626" lon="5.9911">
        <ele>405</ele>
        <time>2019-09-12T06:47:48Z</time>
      </trkpt>
      <trkpt lat="47.27623" lon="5.99098">
        <ele>404.60000610352</ele>
        <time>2019-09-12T06:47:49Z</time>
      </trkpt>
      <trkpt lat="47.27619" lon="5.99086">
        <ele>403.79998779297</ele>
        <time>2019-09-12T06:47:51Z</time>
      </trkpt>
      <trkpt lat="47.27609" lon="5.99064">
        <ele>403.60000610352</ele>
        <time>2019-09-12T06:47:52Z</time>
      </trkpt>
      <trkpt lat="47.27599" lon="5.99042">
        <ele>402.79998779297</ele>
        <time>2019-09-12T06:47:54Z</time>
      </trkpt>
      <trkpt lat="47.27589" lon="5.99021">
        <ele>401.39999389648</ele>
        <time>2019-09-12T06:47:57Z</time>
      </trkpt>
      <trkpt lat="47.27574" lon="5.98992">
        <ele>400.60000610352</ele>
        <time>2019-09-12T06:47:59Z</time>
      </trkpt>
      <trkpt lat="47.27567" lon="5.98984">
        <ele>400.20001220703</ele>
        <time>2019-09-12T06:48:00Z</time>
      </trkpt>
      <trkpt lat="47.27541" lon="5.98964">
        <ele>399</ele>
        <time>2019-09-12T06:48:04Z</time>
      </trkpt>
      <trkpt lat="47.27535" lon="5.9896">
        <ele>398.79998779297</ele>
        <time>2019-09-12T06:48:05Z</time>
      </trkpt>
      <trkpt lat="47.27529" lon="5.98956">
        <ele>398.60000610352</ele>
        <time>2019-09-12T06:48:06Z</time>
      </trkpt>
      <trkpt lat="47.27518" lon="5.98951">
        <ele>398</ele>
        <time>2019-09-12T06:48:08Z</time>
      </trkpt>
      <trkpt lat="47.27518" lon="5.98951">
        <ele>397.79998779297</ele>
        <time>2019-09-12T06:48:09Z</time>
      </trkpt>
      <trkpt lat="47.27508" lon="5.98949">
        <ele>397.79998779297</ele>
        <time>2019-09-12T06:48:10Z</time>
      </trkpt>
      <trkpt lat="47.27495" lon="5.98951">
        <ele>397.79998779297</ele>
        <time>2019-09-12T06:48:13Z</time>
      </trkpt>
      <trkpt lat="47.27481" lon="5.98953">
        <ele>397.79998779297</ele>
        <time>2019-09-12T06:48:16Z</time>
      </trkpt>
      <trkpt lat="47.27472" lon="5.9895">
        <ele>397.79998779297</ele>
        <time>2019-09-12T06:48:18Z</time>
      </trkpt>
      <trkpt lat="47.27468" lon="5.98948">
        <ele>398</ele>
        <time>2019-09-12T06:48:19Z</time>
      </trkpt>
      <trkpt lat="47.27452" lon="5.98929">
        <ele>398.79998779297</ele>
        <time>2019-09-12T06:48:24Z</time>
      </trkpt>
      <trkpt lat="47.27449" lon="5.98925">
        <ele>399</ele>
        <time>2019-09-12T06:48:25Z</time>
      </trkpt>
      <trkpt lat="47.27429" lon="5.9889">
        <ele>400</ele>
        <time>2019-09-12T06:48:32Z</time>
      </trkpt>
      <trkpt lat="47.27426" lon="5.98883">
        <ele>400</ele>
        <time>2019-09-12T06:48:36Z</time>
      </trkpt>
      <trkpt lat="47.27426" lon="5.98881">
        <ele>398.60000610352</ele>
        <time>2019-09-12T06:49:00Z</time>
      </trkpt>
      <trkpt lat="47.27424" lon="5.98881">
        <ele>398.60000610352</ele>
        <time>2019-09-12T06:49:01Z</time>
      </trkpt>
      <trkpt lat="47.27422" lon="5.98882">
        <ele>398.60000610352</ele>
        <time>2019-09-12T06:49:02Z</time>
      </trkpt>
      <trkpt lat="47.27423" lon="5.98888">
        <ele>398.60000610352</ele>
        <time>2019-09-12T06:49:04Z</time>
      </trkpt>
      <trkpt lat="47.27427" lon="5.98894">
        <ele>398.60000610352</ele>
        <time>2019-09-12T06:49:06Z</time>
      </trkpt>
      <trkpt lat="47.27441" lon="5.9892">
        <ele>398.60000610352</ele>
        <time>2019-09-12T06:49:12Z</time>
      </trkpt>
      <trkpt lat="47.27451" lon="5.98938">
        <ele>398.79998779297</ele>
        <time>2019-09-12T06:49:16Z</time>
      </trkpt>
      <trkpt lat="47.27461" lon="5.98952">
        <ele>399</ele>
        <time>2019-09-12T06:49:19Z</time>
      </trkpt>
      <trkpt lat="47.27465" lon="5.98955">
        <ele>399</ele>
        <time>2019-09-12T06:49:20Z</time>
      </trkpt>
      <trkpt lat="47.27478" lon="5.98962">
        <ele>399.39999389648</ele>
        <time>2019-09-12T06:49:23Z</time>
      </trkpt>
      <trkpt lat="47.27479" lon="5.98967">
        <ele>399.39999389648</ele>
        <time>2019-09-12T06:49:24Z</time>
      </trkpt>
      <trkpt lat="47.27475" lon="5.98975">
        <ele>399.39999389648</ele>
        <time>2019-09-12T06:49:27Z</time>
      </trkpt>
      <trkpt lat="47.27462" lon="5.9899">
        <ele>399.20001220703</ele>
        <time>2019-09-12T06:49:30Z</time>
      </trkpt>
      <trkpt lat="47.27454" lon="5.98994">
        <ele>399</ele>
        <time>2019-09-12T06:49:33Z</time>
      </trkpt>
      <trkpt lat="47.27446" lon="5.98996">
        <ele>399</ele>
        <time>2019-09-12T06:49:34Z</time>
      </trkpt>
      <trkpt lat="47.27431" lon="5.98994">
        <ele>398.39999389648</ele>
        <time>2019-09-12T06:49:37Z</time>
      </trkpt>
      <trkpt lat="47.27414" lon="5.9899">
        <ele>398</ele>
        <time>2019-09-12T06:49:40Z</time>
      </trkpt>
      <trkpt lat="47.27402" lon="5.98994">
        <ele>397.79998779297</ele>
        <time>2019-09-12T06:49:42Z</time>
      </trkpt>
      <trkpt lat="47.27398" lon="5.99">
        <ele>397.79998779297</ele>
        <time>2019-09-12T06:49:43Z</time>
      </trkpt>
      <trkpt lat="47.27395" lon="5.99006">
        <ele>397</ele>
        <time>2019-09-12T06:49:45Z</time>
      </trkpt>
      <trkpt lat="47.27393" lon="5.99013">
        <ele>396.60000610352</ele>
        <time>2019-09-12T06:49:46Z</time>
      </trkpt>
      <trkpt lat="47.27393" lon="5.99013">
        <ele>396.20001220703</ele>
        <time>2019-09-12T06:49:47Z</time>
      </trkpt>
      <trkpt lat="47.27393" lon="5.99013">
        <ele>395.60000610352</ele>
        <time>2019-09-12T06:49:48Z</time>
      </trkpt>
      <trkpt lat="47.27393" lon="5.99019">
        <ele>391.60000610352</ele>
        <time>2019-09-12T06:50:01Z</time>
      </trkpt>
      <trkpt lat="47.27392" lon="5.99022">
        <ele>391.60000610352</ele>
        <time>2019-09-12T06:50:03Z</time>
      </trkpt>
      <trkpt lat="47.27386" lon="5.99046">
        <ele>391.60000610352</ele>
        <time>2019-09-12T06:50:07Z</time>
      </trkpt>
      <trkpt lat="47.27378" lon="5.99064">
        <ele>391.20001220703</ele>
        <time>2019-09-12T06:50:12Z</time>
      </trkpt>
      <trkpt lat="47.27374" lon="5.9907">
        <ele>390.60000610352</ele>
        <time>2019-09-12T06:50:15Z</time>
      </trkpt>
      <trkpt lat="47.2737" lon="5.99084">
        <ele>389.79998779297</ele>
        <time>2019-09-12T06:50:18Z</time>
      </trkpt>
      <trkpt lat="47.27372" lon="5.99089">
        <ele>389.39999389648</ele>
        <time>2019-09-12T06:50:19Z</time>
      </trkpt>
      <trkpt lat="47.27375" lon="5.99094">
        <ele>388.79998779297</ele>
        <time>2019-09-12T06:50:21Z</time>
      </trkpt>
      <trkpt lat="47.27381" lon="5.99105">
        <ele>388.39999389648</ele>
        <time>2019-09-12T06:50:22Z</time>
      </trkpt>
      <trkpt lat="47.27392" lon="5.99127">
        <ele>387.39999389648</ele>
        <time>2019-09-12T06:50:25Z</time>
      </trkpt>
      <trkpt lat="47.27396" lon="5.99135">
        <ele>387</ele>
        <time>2019-09-12T06:50:26Z</time>
      </trkpt>
      <trkpt lat="47.27412" lon="5.99171">
        <ele>385.79998779297</ele>
        <time>2019-09-12T06:50:31Z</time>
      </trkpt>
      <trkpt lat="47.2742" lon="5.99189">
        <ele>384.79998779297</ele>
        <time>2019-09-12T06:50:34Z</time>
      </trkpt>
      <trkpt lat="47.27432" lon="5.99211">
        <ele>384.60000610352</ele>
        <time>2019-09-12T06:50:38Z</time>
      </trkpt>
      <trkpt lat="47.27436" lon="5.99223">
        <ele>384.60000610352</ele>
        <time>2019-09-12T06:50:40Z</time>
      </trkpt>
      <trkpt lat="47.27442" lon="5.99242">
        <ele>384.60000610352</ele>
        <time>2019-09-12T06:50:43Z</time>
      </trkpt>
      <trkpt lat="47.27443" lon="5.9925">
        <ele>385</ele>
        <time>2019-09-12T06:50:45Z</time>
      </trkpt>
      <trkpt lat="47.27442" lon="5.99266">
        <ele>385.39999389648</ele>
        <time>2019-09-12T06:50:46Z</time>
      </trkpt>
      <trkpt lat="47.27441" lon="5.99292">
        <ele>385.79998779297</ele>
        <time>2019-09-12T06:50:49Z</time>
      </trkpt>
      <trkpt lat="47.27441" lon="5.99302">
        <ele>386</ele>
        <time>2019-09-12T06:50:50Z</time>
      </trkpt>
      <trkpt lat="47.27443" lon="5.99358">
        <ele>385.60000610352</ele>
        <time>2019-09-12T06:50:57Z</time>
      </trkpt>
      <trkpt lat="47.2744" lon="5.9937">
        <ele>385</ele>
        <time>2019-09-12T06:51:00Z</time>
      </trkpt>
      <trkpt lat="47.2744" lon="5.9937">
        <ele>384.79998779297</ele>
        <time>2019-09-12T06:51:01Z</time>
      </trkpt>
      <trkpt lat="47.27439" lon="5.9937">
        <ele>384.79998779297</ele>
        <time>2019-09-12T06:51:02Z</time>
      </trkpt>
      <trkpt lat="47.27436" lon="5.99369">
        <ele>384.60000610352</ele>
        <time>2019-09-12T06:53:05Z</time>
      </trkpt>
      <trkpt lat="47.27435" lon="5.99371">
        <ele>384.60000610352</ele>
        <time>2019-09-12T06:53:06Z</time>
      </trkpt>
      <trkpt lat="47.27435" lon="5.99374">
        <ele>384.60000610352</ele>
        <time>2019-09-12T06:53:07Z</time>
      </trkpt>
      <trkpt lat="47.27438" lon="5.99383">
        <ele>384.60000610352</ele>
        <time>2019-09-12T06:53:10Z</time>
      </trkpt>
      <trkpt lat="47.27439" lon="5.99383">
        <ele>384.60000610352</ele>
        <time>2019-09-12T06:53:11Z</time>
      </trkpt>
      <trkpt lat="47.27439" lon="5.99384">
        <ele>384.60000610352</ele>
        <time>2019-09-12T06:53:13Z</time>
      </trkpt>
      <trkpt lat="47.2744" lon="5.99387">
        <ele>385</ele>
        <time>2019-09-12T06:55:15Z</time>
      </trkpt>
      <trkpt lat="47.27444" lon="5.99395">
        <ele>385</ele>
        <time>2019-09-12T06:55:17Z</time>
      </trkpt>
      <trkpt lat="47.27448" lon="5.99407">
        <ele>385.20001220703</ele>
        <time>2019-09-12T06:55:21Z</time>
      </trkpt>
      <trkpt lat="47.2745" lon="5.99415">
        <ele>385.20001220703</ele>
        <time>2019-09-12T06:55:22Z</time>
      </trkpt>
      <trkpt lat="47.27451" lon="5.99424">
        <ele>385.60000610352</ele>
        <time>2019-09-12T06:55:24Z</time>
      </trkpt>
      <trkpt lat="47.27454" lon="5.9944">
        <ele>386.79998779297</ele>
        <time>2019-09-12T06:55:29Z</time>
      </trkpt>
      <trkpt lat="47.27455" lon="5.99449">
        <ele>388</ele>
        <time>2019-09-12T06:55:33Z</time>
      </trkpt>
      <trkpt lat="47.27455" lon="5.99456">
        <ele>388.20001220703</ele>
        <time>2019-09-12T06:55:34Z</time>
      </trkpt>
      <trkpt lat="47.27454" lon="5.9947">
        <ele>389</ele>
        <time>2019-09-12T06:55:38Z</time>
      </trkpt>
      <trkpt lat="47.27451" lon="5.99483">
        <ele>389.60000610352</ele>
        <time>2019-09-12T06:55:42Z</time>
      </trkpt>
      <trkpt lat="47.2745" lon="5.99486">
        <ele>390.20001220703</ele>
        <time>2019-09-12T06:55:43Z</time>
      </trkpt>
      <trkpt lat="47.27445" lon="5.99498">
        <ele>391.20001220703</ele>
        <time>2019-09-12T06:55:47Z</time>
      </trkpt>
      <trkpt lat="47.27442" lon="5.99505">
        <ele>392</ele>
        <time>2019-09-12T06:55:50Z</time>
      </trkpt>
      <trkpt lat="47.27442" lon="5.99505">
        <ele>392.20001220703</ele>
        <time>2019-09-12T06:55:51Z</time>
      </trkpt>
      <trkpt lat="47.27433" lon="5.99517">
        <ele>393.20001220703</ele>
        <time>2019-09-12T06:55:56Z</time>
      </trkpt>
      <trkpt lat="47.27425" lon="5.99526">
        <ele>394.20001220703</ele>
        <time>2019-09-12T06:56:01Z</time>
      </trkpt>
      <trkpt lat="47.27424" lon="5.99528">
        <ele>394.39999389648</ele>
        <time>2019-09-12T06:56:02Z</time>
      </trkpt>
      <trkpt lat="47.27415" lon="5.9954">
        <ele>395.60000610352</ele>
        <time>2019-09-12T06:56:07Z</time>
      </trkpt>
      <trkpt lat="47.27413" lon="5.99542">
        <ele>395.60000610352</ele>
        <time>2019-09-12T06:56:09Z</time>
      </trkpt>
      <trkpt lat="47.27402" lon="5.99556">
        <ele>396.39999389648</ele>
        <time>2019-09-12T06:56:14Z</time>
      </trkpt>
      <trkpt lat="47.27394" lon="5.99563">
        <ele>397</ele>
        <time>2019-09-12T06:56:17Z</time>
      </trkpt>
      <trkpt lat="47.27386" lon="5.9957">
        <ele>397.39999389648</ele>
        <time>2019-09-12T06:56:20Z</time>
      </trkpt>
      <trkpt lat="47.27371" lon="5.99581">
        <ele>398.20001220703</ele>
        <time>2019-09-12T06:56:25Z</time>
      </trkpt>
      <trkpt lat="47.27368" lon="5.99583">
        <ele>398.39999389648</ele>
        <time>2019-09-12T06:56:27Z</time>
      </trkpt>
      <trkpt lat="47.27341" lon="5.99601">
        <ele>398.60000610352</ele>
        <time>2019-09-12T06:56:34Z</time>
      </trkpt>
      <trkpt lat="47.27307" lon="5.99624">
        <ele>399</ele>
        <time>2019-09-12T06:56:44Z</time>
      </trkpt>
      <trkpt lat="47.27297" lon="5.9963">
        <ele>399.20001220703</ele>
        <time>2019-09-12T06:56:47Z</time>
      </trkpt>
      <trkpt lat="47.27288" lon="5.99637">
        <ele>399.39999389648</ele>
        <time>2019-09-12T06:56:51Z</time>
      </trkpt>
      <trkpt lat="47.2726" lon="5.99653">
        <ele>400.20001220703</ele>
        <time>2019-09-12T06:56:58Z</time>
      </trkpt>
      <trkpt lat="47.27257" lon="5.99655">
        <ele>400.20001220703</ele>
        <time>2019-09-12T06:56:59Z</time>
      </trkpt>
      <trkpt lat="47.27238" lon="5.99663">
        <ele>401.20001220703</ele>
        <time>2019-09-12T06:57:05Z</time>
      </trkpt>
      <trkpt lat="47.27206" lon="5.99675">
        <ele>402.39999389648</ele>
        <time>2019-09-12T06:57:13Z</time>
      </trkpt>
      <trkpt lat="47.27185" lon="5.99681">
        <ele>403.20001220703</ele>
        <time>2019-09-12T06:57:19Z</time>
      </trkpt>
      <trkpt lat="47.27171" lon="5.99679">
        <ele>403.39999389648</ele>
        <time>2019-09-12T06:57:23Z</time>
      </trkpt>
      <trkpt lat="47.27164" lon="5.99679">
        <ele>403.39999389648</ele>
        <time>2019-09-12T06:57:25Z</time>
      </trkpt>
      <trkpt lat="47.27147" lon="5.99692">
        <ele>403.79998779297</ele>
        <time>2019-09-12T06:57:30Z</time>
      </trkpt>
      <trkpt lat="47.2714" lon="5.99715">
        <ele>404.20001220703</ele>
        <time>2019-09-12T06:57:35Z</time>
      </trkpt>
      <trkpt lat="47.27139" lon="5.9972">
        <ele>404.60000610352</ele>
        <time>2019-09-12T06:57:36Z</time>
      </trkpt>
      <trkpt lat="47.27136" lon="5.99729">
        <ele>404.79998779297</ele>
        <time>2019-09-12T06:57:39Z</time>
      </trkpt>
      <trkpt lat="47.27116" lon="5.99746">
        <ele>404.79998779297</ele>
        <time>2019-09-12T06:57:44Z</time>
      </trkpt>
      <trkpt lat="47.27091" lon="5.99767">
        <ele>405.39999389648</ele>
        <time>2019-09-12T06:57:52Z</time>
      </trkpt>
      <trkpt lat="47.27087" lon="5.9977">
        <ele>405.60000610352</ele>
        <time>2019-09-12T06:57:53Z</time>
      </trkpt>
      <trkpt lat="47.27063" lon="5.99793">
        <ele>405.79998779297</ele>
        <time>2019-09-12T06:58:01Z</time>
      </trkpt>
      <trkpt lat="47.27047" lon="5.99812">
        <ele>406.39999389648</ele>
        <time>2019-09-12T06:58:07Z</time>
      </trkpt>
      <trkpt lat="47.27044" lon="5.99815">
        <ele>406.60000610352</ele>
        <time>2019-09-12T06:58:09Z</time>
      </trkpt>
      <trkpt lat="47.27021" lon="5.99843">
        <ele>407.39999389648</ele>
        <time>2019-09-12T06:58:16Z</time>
      </trkpt>
      <trkpt lat="47.27009" lon="5.9987">
        <ele>408.20001220703</ele>
        <time>2019-09-12T06:58:23Z</time>
      </trkpt>
      <trkpt lat="47.27003" lon="5.99878">
        <ele>408.60000610352</ele>
        <time>2019-09-12T06:58:26Z</time>
      </trkpt>
      <trkpt lat="47.27" lon="5.99889">
        <ele>408.79998779297</ele>
        <time>2019-09-12T06:58:29Z</time>
      </trkpt>
      <trkpt lat="47.26995" lon="5.99914">
        <ele>409.20001220703</ele>
        <time>2019-09-12T06:58:35Z</time>
      </trkpt>
      <trkpt lat="47.26996" lon="5.9993">
        <ele>409.60000610352</ele>
        <time>2019-09-12T06:58:39Z</time>
      </trkpt>
      <trkpt lat="47.26995" lon="5.9994">
        <ele>409.60000610352</ele>
        <time>2019-09-12T06:58:40Z</time>
      </trkpt>
      <trkpt lat="47.26992" lon="5.99944">
        <ele>409.60000610352</ele>
        <time>2019-09-12T06:58:41Z</time>
      </trkpt>
      <trkpt lat="47.26974" lon="5.99964">
        <ele>409.60000610352</ele>
        <time>2019-09-12T06:58:46Z</time>
      </trkpt>
      <trkpt lat="47.26966" lon="5.99987">
        <ele>410</ele>
        <time>2019-09-12T06:58:51Z</time>
      </trkpt>
      <trkpt lat="47.26949" lon="6.00022">
        <ele>409.79998779297</ele>
        <time>2019-09-12T06:58:57Z</time>
      </trkpt>
      <trkpt lat="47.26924" lon="6.00058">
        <ele>409.79998779297</ele>
        <time>2019-09-12T06:59:04Z</time>
      </trkpt>
      <trkpt lat="47.26906" lon="6.00086">
        <ele>409.39999389648</ele>
        <time>2019-09-12T06:59:09Z</time>
      </trkpt>
      <trkpt lat="47.26895" lon="6.00109">
        <ele>409</ele>
        <time>2019-09-12T06:59:11Z</time>
      </trkpt>
      <trkpt lat="47.26882" lon="6.00127">
        <ele>408</ele>
        <time>2019-09-12T06:59:14Z</time>
      </trkpt>
      <trkpt lat="47.26882" lon="6.00127">
        <ele>407.79998779297</ele>
        <time>2019-09-12T06:59:15Z</time>
      </trkpt>
      <trkpt lat="47.26859" lon="6.00155">
        <ele>407</ele>
        <time>2019-09-12T06:59:21Z</time>
      </trkpt>
      <trkpt lat="47.26832" lon="6.00192">
        <ele>407</ele>
        <time>2019-09-12T06:59:28Z</time>
      </trkpt>
      <trkpt lat="47.26824" lon="6.00199">
        <ele>407</ele>
        <time>2019-09-12T06:59:30Z</time>
      </trkpt>
      <trkpt lat="47.26816" lon="6.00206">
        <ele>407</ele>
        <time>2019-09-12T06:59:33Z</time>
      </trkpt>
      <trkpt lat="47.26806" lon="6.00219">
        <ele>407</ele>
        <time>2019-09-12T06:59:35Z</time>
      </trkpt>
      <trkpt lat="47.26794" lon="6.00231">
        <ele>407</ele>
        <time>2019-09-12T06:59:39Z</time>
      </trkpt>
      <trkpt lat="47.2676" lon="6.00264">
        <ele>406.60000610352</ele>
        <time>2019-09-12T06:59:46Z</time>
      </trkpt>
      <trkpt lat="47.26722" lon="6.00299">
        <ele>405.79998779297</ele>
        <time>2019-09-12T06:59:54Z</time>
      </trkpt>
      <trkpt lat="47.26717" lon="6.00304">
        <ele>405.39999389648</ele>
        <time>2019-09-12T06:59:55Z</time>
      </trkpt>
      <trkpt lat="47.26703" lon="6.00318">
        <ele>404.79998779297</ele>
        <time>2019-09-12T06:59:58Z</time>
      </trkpt>
      <trkpt lat="47.26695" lon="6.00328">
        <ele>404.39999389648</ele>
        <time>2019-09-12T07:00:00Z</time>
      </trkpt>
      <trkpt lat="47.26676" lon="6.0035">
        <ele>403.60000610352</ele>
        <time>2019-09-12T07:00:05Z</time>
      </trkpt>
      <trkpt lat="47.26672" lon="6.00354">
        <ele>403.39999389648</ele>
        <time>2019-09-12T07:00:06Z</time>
      </trkpt>
      <trkpt lat="47.26663" lon="6.00361">
        <ele>403.20001220703</ele>
        <time>2019-09-12T07:00:09Z</time>
      </trkpt>
      <trkpt lat="47.26644" lon="6.0038">
        <ele>403</ele>
        <time>2019-09-12T07:00:12Z</time>
      </trkpt>
      <trkpt lat="47.26605" lon="6.00416">
        <ele>402</ele>
        <time>2019-09-12T07:00:19Z</time>
      </trkpt>
      <trkpt lat="47.266" lon="6.00422">
        <ele>401.79998779297</ele>
        <time>2019-09-12T07:00:20Z</time>
      </trkpt>
      <trkpt lat="47.2657" lon="6.0045">
        <ele>400.79998779297</ele>
        <time>2019-09-12T07:00:25Z</time>
      </trkpt>
      <trkpt lat="47.26564" lon="6.00455">
        <ele>400.20001220703</ele>
        <time>2019-09-12T07:00:27Z</time>
      </trkpt>
      <trkpt lat="47.26544" lon="6.00472">
        <ele>399.60000610352</ele>
        <time>2019-09-12T07:00:29Z</time>
      </trkpt>
      <trkpt lat="47.26524" lon="6.00488">
        <ele>398.60000610352</ele>
        <time>2019-09-12T07:00:33Z</time>
      </trkpt>
      <trkpt lat="47.26505" lon="6.00504">
        <ele>398</ele>
        <time>2019-09-12T07:00:35Z</time>
      </trkpt>
      <trkpt lat="47.2649" lon="6.00512">
        <ele>397.20001220703</ele>
        <time>2019-09-12T07:00:37Z</time>
      </trkpt>
      <trkpt lat="47.26468" lon="6.0052">
        <ele>396.20001220703</ele>
        <time>2019-09-12T07:00:40Z</time>
      </trkpt>
      <trkpt lat="47.26461" lon="6.00521">
        <ele>396</ele>
        <time>2019-09-12T07:00:41Z</time>
      </trkpt>
      <trkpt lat="47.26438" lon="6.00524">
        <ele>395</ele>
        <time>2019-09-12T07:00:44Z</time>
      </trkpt>
      <trkpt lat="47.26402" lon="6.00525">
        <ele>393.79998779297</ele>
        <time>2019-09-12T07:00:49Z</time>
      </trkpt>
      <trkpt lat="47.26382" lon="6.00523">
        <ele>393.20001220703</ele>
        <time>2019-09-12T07:00:52Z</time>
      </trkpt>
      <trkpt lat="47.26371" lon="6.00521">
        <ele>393</ele>
        <time>2019-09-12T07:00:54Z</time>
      </trkpt>
      <trkpt lat="47.26364" lon="6.00521">
        <ele>392.79998779297</ele>
        <time>2019-09-12T07:00:55Z</time>
      </trkpt>
      <trkpt lat="47.26343" lon="6.00522">
        <ele>392</ele>
        <time>2019-09-12T07:00:58Z</time>
      </trkpt>
      <trkpt lat="47.26336" lon="6.0052">
        <ele>391.60000610352</ele>
        <time>2019-09-12T07:00:59Z</time>
      </trkpt>
      <trkpt lat="47.26323" lon="6.00517">
        <ele>391</ele>
        <time>2019-09-12T07:01:01Z</time>
      </trkpt>
      <trkpt lat="47.26305" lon="6.00509">
        <ele>390.60000610352</ele>
        <time>2019-09-12T07:01:04Z</time>
      </trkpt>
      <trkpt lat="47.263" lon="6.00507">
        <ele>390.60000610352</ele>
        <time>2019-09-12T07:01:05Z</time>
      </trkpt>
      <trkpt lat="47.26274" lon="6.00492">
        <ele>390</ele>
        <time>2019-09-12T07:01:10Z</time>
      </trkpt>
      <trkpt lat="47.26263" lon="6.00487">
        <ele>389.79998779297</ele>
        <time>2019-09-12T07:01:12Z</time>
      </trkpt>
      <trkpt lat="47.26257" lon="6.00486">
        <ele>389.60000610352</ele>
        <time>2019-09-12T07:01:13Z</time>
      </trkpt>
      <trkpt lat="47.26252" lon="6.00484">
        <ele>389.20001220703</ele>
        <time>2019-09-12T07:01:14Z</time>
      </trkpt>
      <trkpt lat="47.26243" lon="6.00484">
        <ele>389</ele>
        <time>2019-09-12T07:01:16Z</time>
      </trkpt>
      <trkpt lat="47.2624" lon="6.00485">
        <ele>389</ele>
        <time>2019-09-12T07:01:17Z</time>
      </trkpt>
      <trkpt lat="47.26237" lon="6.00485">
        <ele>389</ele>
        <time>2019-09-12T07:01:18Z</time>
      </trkpt>
      <trkpt lat="47.26233" lon="6.00482">
        <ele>388.79998779297</ele>
        <time>2019-09-12T07:01:20Z</time>
      </trkpt>
      <trkpt lat="47.26217" lon="6.00476">
        <ele>388.60000610352</ele>
        <time>2019-09-12T07:01:25Z</time>
      </trkpt>
      <trkpt lat="47.26214" lon="6.00477">
        <ele>388.39999389648</ele>
        <time>2019-09-12T07:01:26Z</time>
      </trkpt>
      <trkpt lat="47.26208" lon="6.00481">
        <ele>388.39999389648</ele>
        <time>2019-09-12T07:01:28Z</time>
      </trkpt>
      <trkpt lat="47.26192" lon="6.00483">
        <ele>388.39999389648</ele>
        <time>2019-09-12T07:01:32Z</time>
      </trkpt>
      <trkpt lat="47.26192" lon="6.00483">
        <ele>388.39999389648</ele>
        <time>2019-09-12T07:01:33Z</time>
      </trkpt>
      <trkpt lat="47.26184" lon="6.00487">
        <ele>388.39999389648</ele>
        <time>2019-09-12T07:01:34Z</time>
      </trkpt>
      <trkpt lat="47.26182" lon="6.00491">
        <ele>388.39999389648</ele>
        <time>2019-09-12T07:01:35Z</time>
      </trkpt>
      <trkpt lat="47.26168" lon="6.00513">
        <ele>388.60000610352</ele>
        <time>2019-09-12T07:01:40Z</time>
      </trkpt>
      <trkpt lat="47.26166" lon="6.00518">
        <ele>388.79998779297</ele>
        <time>2019-09-12T07:01:41Z</time>
      </trkpt>
      <trkpt lat="47.26161" lon="6.00542">
        <ele>389</ele>
        <time>2019-09-12T07:01:46Z</time>
      </trkpt>
      <trkpt lat="47.2616" lon="6.00548">
        <ele>389</ele>
        <time>2019-09-12T07:01:50Z</time>
      </trkpt>
      <trkpt lat="47.2616" lon="6.00548">
        <ele>389</ele>
        <time>2019-09-12T07:01:51Z</time>
      </trkpt>
      <trkpt lat="47.26161" lon="6.00548">
        <ele>389</ele>
        <time>2019-09-12T07:01:57Z</time>
      </trkpt>
      <trkpt lat="47.26161" lon="6.00544">
        <ele>389</ele>
        <time>2019-09-12T07:02:00Z</time>
      </trkpt>
      <trkpt lat="47.26163" lon="6.00523">
        <ele>389</ele>
        <time>2019-09-12T07:02:05Z</time>
      </trkpt>
      <trkpt lat="47.26165" lon="6.00518">
        <ele>389</ele>
        <time>2019-09-12T07:02:06Z</time>
      </trkpt>
      <trkpt lat="47.26176" lon="6.00498">
        <ele>389.20001220703</ele>
        <time>2019-09-12T07:02:10Z</time>
      </trkpt>
      <trkpt lat="47.26182" lon="6.00485">
        <ele>389.20001220703</ele>
        <time>2019-09-12T07:02:13Z</time>
      </trkpt>
      <trkpt lat="47.26182" lon="6.00479">
        <ele>389.20001220703</ele>
        <time>2019-09-12T07:02:14Z</time>
      </trkpt>
      <trkpt lat="47.26177" lon="6.00472">
        <ele>389.20001220703</ele>
        <time>2019-09-12T07:02:16Z</time>
      </trkpt>
      <trkpt lat="47.26174" lon="6.0047">
        <ele>389.20001220703</ele>
        <time>2019-09-12T07:02:17Z</time>
      </trkpt>
      <trkpt lat="47.26149" lon="6.00457">
        <ele>389</ele>
        <time>2019-09-12T07:02:22Z</time>
      </trkpt>
      <trkpt lat="47.26109" lon="6.00434">
        <ele>388.20001220703</ele>
        <time>2019-09-12T07:02:29Z</time>
      </trkpt>
      <trkpt lat="47.26104" lon="6.0043">
        <ele>388</ele>
        <time>2019-09-12T07:02:30Z</time>
      </trkpt>
      <trkpt lat="47.26076" lon="6.00404">
        <ele>387.20001220703</ele>
        <time>2019-09-12T07:02:35Z</time>
      </trkpt>
      <trkpt lat="47.2607" lon="6.004">
        <ele>387</ele>
        <time>2019-09-12T07:02:36Z</time>
      </trkpt>
      <trkpt lat="47.26039" lon="6.00381">
        <ele>386</ele>
        <time>2019-09-12T07:02:41Z</time>
      </trkpt>
      <trkpt lat="47.26028" lon="6.00373">
        <ele>385.60000610352</ele>
        <time>2019-09-12T07:02:43Z</time>
      </trkpt>
      <trkpt lat="47.26013" lon="6.00359">
        <ele>385.20001220703</ele>
        <time>2019-09-12T07:02:46Z</time>
      </trkpt>
      <trkpt lat="47.26008" lon="6.00354">
        <ele>385</ele>
        <time>2019-09-12T07:02:47Z</time>
      </trkpt>
      <trkpt lat="47.25993" lon="6.00337">
        <ele>384.60000610352</ele>
        <time>2019-09-12T07:02:50Z</time>
      </trkpt>
      <trkpt lat="47.25971" lon="6.00308">
        <ele>384</ele>
        <time>2019-09-12T07:02:55Z</time>
      </trkpt>
      <trkpt lat="47.25955" lon="6.00284">
        <ele>383.60000610352</ele>
        <time>2019-09-12T07:02:59Z</time>
      </trkpt>
      <trkpt lat="47.25918" lon="6.00229">
        <ele>383</ele>
        <time>2019-09-12T07:03:08Z</time>
      </trkpt>
      <trkpt lat="47.25918" lon="6.00229">
        <ele>383</ele>
        <time>2019-09-12T07:03:09Z</time>
      </trkpt>
      <trkpt lat="47.25888" lon="6.00175">
        <ele>382.39999389648</ele>
        <time>2019-09-12T07:03:16Z</time>
      </trkpt>
      <trkpt lat="47.25875" lon="6.00146">
        <ele>381.79998779297</ele>
        <time>2019-09-12T07:03:20Z</time>
      </trkpt>
      <trkpt lat="47.25868" lon="6.00124">
        <ele>381.60000610352</ele>
        <time>2019-09-12T07:03:23Z</time>
      </trkpt>
      <trkpt lat="47.25866" lon="6.0011">
        <ele>381.20001220703</ele>
        <time>2019-09-12T07:03:26Z</time>
      </trkpt>
      <trkpt lat="47.25866" lon="6.0011">
        <ele>381</ele>
        <time>2019-09-12T07:03:27Z</time>
      </trkpt>
      <trkpt lat="47.2586" lon="6.00103">
        <ele>380.60000610352</ele>
        <time>2019-09-12T07:03:29Z</time>
      </trkpt>
      <trkpt lat="47.25856" lon="6.00097">
        <ele>380</ele>
        <time>2019-09-12T07:03:31Z</time>
      </trkpt>
      <trkpt lat="47.25854" lon="6.00095">
        <ele>379.60000610352</ele>
        <time>2019-09-12T07:03:32Z</time>
      </trkpt>
      <trkpt lat="47.25849" lon="6.00093">
        <ele>379.39999389648</ele>
        <time>2019-09-12T07:03:34Z</time>
      </trkpt>
      <trkpt lat="47.25844" lon="6.00094">
        <ele>379.39999389648</ele>
        <time>2019-09-12T07:03:36Z</time>
      </trkpt>
      <trkpt lat="47.2582" lon="6.001">
        <ele>379.20001220703</ele>
        <time>2019-09-12T07:03:43Z</time>
      </trkpt>
      <trkpt lat="47.25794" lon="6.00109">
        <ele>380.20001220703</ele>
        <time>2019-09-12T07:03:50Z</time>
      </trkpt>
      <trkpt lat="47.25791" lon="6.00111">
        <ele>380.60000610352</ele>
        <time>2019-09-12T07:03:53Z</time>
      </trkpt>
      <trkpt lat="47.2579" lon="6.00111">
        <ele>380.60000610352</ele>
        <time>2019-09-12T07:03:54Z</time>
      </trkpt>
      <trkpt lat="47.25782" lon="6.00108">
        <ele>380.79998779297</ele>
        <time>2019-09-12T07:03:59Z</time>
      </trkpt>
      <trkpt lat="47.25782" lon="6.00105">
        <ele>381</ele>
        <time>2019-09-12T07:04:01Z</time>
      </trkpt>
      <trkpt lat="47.25783" lon="6.00099">
        <ele>381</ele>
        <time>2019-09-12T07:04:04Z</time>
      </trkpt>
      <trkpt lat="47.25782" lon="6.0008">
        <ele>381</ele>
        <time>2019-09-12T07:04:08Z</time>
      </trkpt>
      <trkpt lat="47.2578" lon="6.00052">
        <ele>381</ele>
        <time>2019-09-12T07:04:11Z</time>
      </trkpt>
      <trkpt lat="47.25777" lon="6.0004">
        <ele>381</ele>
        <time>2019-09-12T07:04:12Z</time>
      </trkpt>
      <trkpt lat="47.25769" lon="6.00018">
        <ele>380.79998779297</ele>
        <time>2019-09-12T07:04:15Z</time>
      </trkpt>
      <trkpt lat="47.2576" lon="5.99998">
        <ele>380.60000610352</ele>
        <time>2019-09-12T07:04:16Z</time>
      </trkpt>
      <trkpt lat="47.25748" lon="5.99968">
        <ele>379</ele>
        <time>2019-09-12T07:04:19Z</time>
      </trkpt>
      <trkpt lat="47.25744" lon="5.99959">
        <ele>377.20001220703</ele>
        <time>2019-09-12T07:04:21Z</time>
      </trkpt>
      <trkpt lat="47.25731" lon="5.9993">
        <ele>375.60000610352</ele>
        <time>2019-09-12T07:04:23Z</time>
      </trkpt>
      <trkpt lat="47.25727" lon="5.99921">
        <ele>375.39999389648</ele>
        <time>2019-09-12T07:04:24Z</time>
      </trkpt>
      <trkpt lat="47.25712" lon="5.99887">
        <ele>374.60000610352</ele>
        <time>2019-09-12T07:04:28Z</time>
      </trkpt>
      <trkpt lat="47.25705" lon="5.99873">
        <ele>374.20001220703</ele>
        <time>2019-09-12T07:04:30Z</time>
      </trkpt>
      <trkpt lat="47.25685" lon="5.99841">
        <ele>373.60000610352</ele>
        <time>2019-09-12T07:04:36Z</time>
      </trkpt>
      <trkpt lat="47.25661" lon="5.99802">
        <ele>374.20001220703</ele>
        <time>2019-09-12T07:04:45Z</time>
      </trkpt>
      <trkpt lat="47.25631" lon="5.99752">
        <ele>374.60000610352</ele>
        <time>2019-09-12T07:04:54Z</time>
      </trkpt>
      <trkpt lat="47.25609" lon="5.99719">
        <ele>374.60000610352</ele>
        <time>2019-09-12T07:05:00Z</time>
      </trkpt>
      <trkpt lat="47.25581" lon="5.99673">
        <ele>374.20001220703</ele>
        <time>2019-09-12T07:05:06Z</time>
      </trkpt>
      <trkpt lat="47.25571" lon="5.99655">
        <ele>373.39999389648</ele>
        <time>2019-09-12T07:05:09Z</time>
      </trkpt>
      <trkpt lat="47.25549" lon="5.99619">
        <ele>372.20001220703</ele>
        <time>2019-09-12T07:05:12Z</time>
      </trkpt>
      <trkpt lat="47.25544" lon="5.99611">
        <ele>371.79998779297</ele>
        <time>2019-09-12T07:05:13Z</time>
      </trkpt>
      <trkpt lat="47.25539" lon="5.99603">
        <ele>371</ele>
        <time>2019-09-12T07:05:15Z</time>
      </trkpt>
      <trkpt lat="47.25528" lon="5.99588">
        <ele>370.60000610352</ele>
        <time>2019-09-12T07:05:16Z</time>
      </trkpt>
      <trkpt lat="47.25518" lon="5.99576">
        <ele>369.79998779297</ele>
        <time>2019-09-12T07:05:18Z</time>
      </trkpt>
      <trkpt lat="47.25513" lon="5.9957">
        <ele>369</ele>
        <time>2019-09-12T07:05:19Z</time>
      </trkpt>
      <trkpt lat="47.25509" lon="5.99565">
        <ele>368</ele>
        <time>2019-09-12T07:05:21Z</time>
      </trkpt>
      <trkpt lat="47.25498" lon="5.99555">
        <ele>367</ele>
        <time>2019-09-12T07:05:23Z</time>
      </trkpt>
      <trkpt lat="47.25495" lon="5.99552">
        <ele>366.79998779297</ele>
        <time>2019-09-12T07:05:24Z</time>
      </trkpt>
      <trkpt lat="47.25493" lon="5.99544">
        <ele>366.20001220703</ele>
        <time>2019-09-12T07:05:26Z</time>
      </trkpt>
      <trkpt lat="47.25493" lon="5.99544">
        <ele>365.79998779297</ele>
        <time>2019-09-12T07:05:27Z</time>
      </trkpt>
      <trkpt lat="47.25497" lon="5.99538">
        <ele>365.60000610352</ele>
        <time>2019-09-12T07:05:28Z</time>
      </trkpt>
      <trkpt lat="47.25499" lon="5.99528">
        <ele>364.79998779297</ele>
        <time>2019-09-12T07:05:30Z</time>
      </trkpt>
      <trkpt lat="47.255" lon="5.99522">
        <ele>364.20001220703</ele>
        <time>2019-09-12T07:05:31Z</time>
      </trkpt>
      <trkpt lat="47.255" lon="5.99515">
        <ele>363.79998779297</ele>
        <time>2019-09-12T07:05:32Z</time>
      </trkpt>
      <trkpt lat="47.25498" lon="5.99503">
        <ele>363.20001220703</ele>
        <time>2019-09-12T07:05:34Z</time>
      </trkpt>
      <trkpt lat="47.25495" lon="5.99497">
        <ele>362.79998779297</ele>
        <time>2019-09-12T07:05:35Z</time>
      </trkpt>
      <trkpt lat="47.25483" lon="5.99491">
        <ele>362.20001220703</ele>
        <time>2019-09-12T07:05:38Z</time>
      </trkpt>
      <trkpt lat="47.25483" lon="5.99491">
        <ele>362</ele>
        <time>2019-09-12T07:05:39Z</time>
      </trkpt>
      <trkpt lat="47.25475" lon="5.99487">
        <ele>362</ele>
        <time>2019-09-12T07:05:40Z</time>
      </trkpt>
      <trkpt lat="47.25471" lon="5.99478">
        <ele>362</ele>
        <time>2019-09-12T07:05:42Z</time>
      </trkpt>
      <trkpt lat="47.25465" lon="5.99456">
        <ele>362</ele>
        <time>2019-09-12T07:05:46Z</time>
      </trkpt>
      <trkpt lat="47.25464" lon="5.99443">
        <ele>362</ele>
        <time>2019-09-12T07:05:48Z</time>
      </trkpt>
      <trkpt lat="47.25459" lon="5.99405">
        <ele>362</ele>
        <time>2019-09-12T07:05:53Z</time>
      </trkpt>
      <trkpt lat="47.25459" lon="5.99396">
        <ele>362</ele>
        <time>2019-09-12T07:05:54Z</time>
      </trkpt>
      <trkpt lat="47.2545" lon="5.9934">
        <ele>361.39999389648</ele>
        <time>2019-09-12T07:06:01Z</time>
      </trkpt>
      <trkpt lat="47.25448" lon="5.99332">
        <ele>361</ele>
        <time>2019-09-12T07:06:03Z</time>
      </trkpt>
      <trkpt lat="47.25435" lon="5.99271">
        <ele>360.60000610352</ele>
        <time>2019-09-12T07:06:10Z</time>
      </trkpt>
      <trkpt lat="47.25423" lon="5.9922">
        <ele>360.39999389648</ele>
        <time>2019-09-12T07:06:16Z</time>
      </trkpt>
      <trkpt lat="47.25414" lon="5.99189">
        <ele>360</ele>
        <time>2019-09-12T07:06:20Z</time>
      </trkpt>
      <trkpt lat="47.25403" lon="5.99153">
        <ele>360</ele>
        <time>2019-09-12T07:06:25Z</time>
      </trkpt>
      <trkpt lat="47.25401" lon="5.99146">
        <ele>360</ele>
        <time>2019-09-12T07:06:26Z</time>
      </trkpt>
      <trkpt lat="47.25389" lon="5.99101">
        <ele>360.39999389648</ele>
        <time>2019-09-12T07:06:32Z</time>
      </trkpt>
      <trkpt lat="47.25373" lon="5.99045">
        <ele>360.79998779297</ele>
        <time>2019-09-12T07:06:40Z</time>
      </trkpt>
      <trkpt lat="47.2537" lon="5.9903">
        <ele>360.79998779297</ele>
        <time>2019-09-12T07:06:42Z</time>
      </trkpt>
      <trkpt lat="47.25357" lon="5.98984">
        <ele>361</ele>
        <time>2019-09-12T07:06:49Z</time>
      </trkpt>
      <trkpt lat="47.25355" lon="5.98977">
        <ele>361</ele>
        <time>2019-09-12T07:06:50Z</time>
      </trkpt>
      <trkpt lat="47.25344" lon="5.98943">
        <ele>361.39999389648</ele>
        <time>2019-09-12T07:06:55Z</time>
      </trkpt>
      <trkpt lat="47.2534" lon="5.98937">
        <ele>361.39999389648</ele>
        <time>2019-09-12T07:06:56Z</time>
      </trkpt>
      <trkpt lat="47.25333" lon="5.98928">
        <ele>361.39999389648</ele>
        <time>2019-09-12T07:06:58Z</time>
      </trkpt>
      <trkpt lat="47.25323" lon="5.98922">
        <ele>361.39999389648</ele>
        <time>2019-09-12T07:07:00Z</time>
      </trkpt>
      <trkpt lat="47.25297" lon="5.98917">
        <ele>361.39999389648</ele>
        <time>2019-09-12T07:07:06Z</time>
      </trkpt>
      <trkpt lat="47.25278" lon="5.98937">
        <ele>361.39999389648</ele>
        <time>2019-09-12T07:07:11Z</time>
      </trkpt>
      <trkpt lat="47.25268" lon="5.98942">
        <ele>361.20001220703</ele>
        <time>2019-09-12T07:07:14Z</time>
      </trkpt>
      <trkpt lat="47.25263" lon="5.98939">
        <ele>361</ele>
        <time>2019-09-12T07:07:18Z</time>
      </trkpt>
      <trkpt lat="47.25259" lon="5.98932">
        <ele>360.60000610352</ele>
        <time>2019-09-12T07:07:21Z</time>
      </trkpt>
      <trkpt lat="47.25256" lon="5.98914">
        <ele>360.39999389648</ele>
        <time>2019-09-12T07:07:23Z</time>
      </trkpt>
      <trkpt lat="47.25253" lon="5.989">
        <ele>360.20001220703</ele>
        <time>2019-09-12T07:07:25Z</time>
      </trkpt>
      <trkpt lat="47.2525" lon="5.98893">
        <ele>360</ele>
        <time>2019-09-12T07:07:26Z</time>
      </trkpt>
      <trkpt lat="47.25235" lon="5.98854">
        <ele>359.79998779297</ele>
        <time>2019-09-12T07:07:31Z</time>
      </trkpt>
      <trkpt lat="47.25207" lon="5.98801">
        <ele>359</ele>
        <time>2019-09-12T07:07:38Z</time>
      </trkpt>
      <trkpt lat="47.25207" lon="5.98801">
        <ele>359</ele>
        <time>2019-09-12T07:07:39Z</time>
      </trkpt>
      <trkpt lat="47.25169" lon="5.98735">
        <ele>359</ele>
        <time>2019-09-12T07:07:48Z</time>
      </trkpt>
      <trkpt lat="47.25158" lon="5.98716">
        <ele>359</ele>
        <time>2019-09-12T07:07:51Z</time>
      </trkpt>
      <trkpt lat="47.25123" lon="5.98657">
        <ele>359.60000610352</ele>
        <time>2019-09-12T07:08:01Z</time>
      </trkpt>
      <trkpt lat="47.25103" lon="5.98623">
        <ele>360.39999389648</ele>
        <time>2019-09-12T07:08:07Z</time>
      </trkpt>
      <trkpt lat="47.25092" lon="5.98607">
        <ele>361</ele>
        <time>2019-09-12T07:08:10Z</time>
      </trkpt>
      <trkpt lat="47.25083" lon="5.98596">
        <ele>361.39999389648</ele>
        <time>2019-09-12T07:08:12Z</time>
      </trkpt>
      <trkpt lat="47.2506" lon="5.9857">
        <ele>361.79998779297</ele>
        <time>2019-09-12T07:08:17Z</time>
      </trkpt>
      <trkpt lat="47.2502" lon="5.98527">
        <ele>361.60000610352</ele>
        <time>2019-09-12T07:08:25Z</time>
      </trkpt>
      <trkpt lat="47.24973" lon="5.98479">
        <ele>360.60000610352</ele>
        <time>2019-09-12T07:08:34Z</time>
      </trkpt>
      <trkpt lat="47.24968" lon="5.98475">
        <ele>360.60000610352</ele>
        <time>2019-09-12T07:08:35Z</time>
      </trkpt>
      <trkpt lat="47.24955" lon="5.98469">
        <ele>360.60000610352</ele>
        <time>2019-09-12T07:08:38Z</time>
      </trkpt>
      <trkpt lat="47.24946" lon="5.98466">
        <ele>360.60000610352</ele>
        <time>2019-09-12T07:08:40Z</time>
      </trkpt>
      <trkpt lat="47.24937" lon="5.98465">
        <ele>360.60000610352</ele>
        <time>2019-09-12T07:08:42Z</time>
      </trkpt>
      <trkpt lat="47.24929" lon="5.98468">
        <ele>360.79998779297</ele>
        <time>2019-09-12T07:08:45Z</time>
      </trkpt>
      <trkpt lat="47.2492" lon="5.9847">
        <ele>361</ele>
        <time>2019-09-12T07:08:46Z</time>
      </trkpt>
      <trkpt lat="47.2491" lon="5.98474">
        <ele>361.39999389648</ele>
        <time>2019-09-12T07:08:48Z</time>
      </trkpt>
      <trkpt lat="47.24906" lon="5.98476">
        <ele>361.60000610352</ele>
        <time>2019-09-12T07:08:49Z</time>
      </trkpt>
      <trkpt lat="47.24901" lon="5.98478">
        <ele>361.79998779297</ele>
        <time>2019-09-12T07:08:50Z</time>
      </trkpt>
      <trkpt lat="47.24894" lon="5.98478">
        <ele>362.39999389648</ele>
        <time>2019-09-12T07:08:52Z</time>
      </trkpt>
      <trkpt lat="47.2489" lon="5.98476">
        <ele>362.39999389648</ele>
        <time>2019-09-12T07:08:53Z</time>
      </trkpt>
      <trkpt lat="47.24882" lon="5.98472">
        <ele>362.60000610352</ele>
        <time>2019-09-12T07:08:55Z</time>
      </trkpt>
      <trkpt lat="47.24876" lon="5.98468">
        <ele>362.79998779297</ele>
        <time>2019-09-12T07:08:58Z</time>
      </trkpt>
      <trkpt lat="47.24876" lon="5.98468">
        <ele>362.79998779297</ele>
        <time>2019-09-12T07:09:00Z</time>
      </trkpt>
      <trkpt lat="47.24876" lon="5.98466">
        <ele>362.79998779297</ele>
        <time>2019-09-12T07:09:03Z</time>
      </trkpt>
      <trkpt lat="47.24874" lon="5.98462">
        <ele>362.79998779297</ele>
        <time>2019-09-12T07:09:04Z</time>
      </trkpt>
      <trkpt lat="47.24865" lon="5.98454">
        <ele>362.79998779297</ele>
        <time>2019-09-12T07:09:07Z</time>
      </trkpt>
      <trkpt lat="47.24862" lon="5.98449">
        <ele>362.39999389648</ele>
        <time>2019-09-12T07:09:08Z</time>
      </trkpt>
      <trkpt lat="47.24853" lon="5.98441">
        <ele>362.39999389648</ele>
        <time>2019-09-12T07:09:10Z</time>
      </trkpt>
      <trkpt lat="47.24844" lon="5.98433">
        <ele>362.39999389648</ele>
        <time>2019-09-12T07:09:12Z</time>
      </trkpt>
      <trkpt lat="47.24839" lon="5.9843">
        <ele>362.39999389648</ele>
        <time>2019-09-12T07:09:13Z</time>
      </trkpt>
      <trkpt lat="47.24804" lon="5.98407">
        <ele>361.79998779297</ele>
        <time>2019-09-12T07:09:21Z</time>
      </trkpt>
      <trkpt lat="47.2477" lon="5.98392">
        <ele>361.20001220703</ele>
        <time>2019-09-12T07:09:27Z</time>
      </trkpt>
      <trkpt lat="47.24758" lon="5.98388">
        <ele>361</ele>
        <time>2019-09-12T07:09:28Z</time>
      </trkpt>
      <trkpt lat="47.24707" lon="5.98376">
        <ele>360.60000610352</ele>
        <time>2019-09-12T07:09:36Z</time>
      </trkpt>
      <trkpt lat="47.2468" lon="5.9837">
        <ele>360</ele>
        <time>2019-09-12T07:09:40Z</time>
      </trkpt>
      <trkpt lat="47.24661" lon="5.98366">
        <ele>359.60000610352</ele>
        <time>2019-09-12T07:09:43Z</time>
      </trkpt>
      <trkpt lat="47.24613" lon="5.98355">
        <ele>358.60000610352</ele>
        <time>2019-09-12T07:09:51Z</time>
      </trkpt>
      <trkpt lat="47.24557" lon="5.98346">
        <ele>358</ele>
        <time>2019-09-12T07:09:59Z</time>
      </trkpt>
      <trkpt lat="47.24512" lon="5.98347">
        <ele>358</ele>
        <time>2019-09-12T07:10:07Z</time>
      </trkpt>
      <trkpt lat="47.24479" lon="5.98344">
        <ele>358.60000610352</ele>
        <time>2019-09-12T07:10:14Z</time>
      </trkpt>
      <trkpt lat="47.24466" lon="5.98342">
        <ele>358.79998779297</ele>
        <time>2019-09-12T07:10:17Z</time>
      </trkpt>
      <trkpt lat="47.24456" lon="5.9834">
        <ele>359.20001220703</ele>
        <time>2019-09-12T07:10:20Z</time>
      </trkpt>
      <trkpt lat="47.24453" lon="5.98337">
        <ele>359.60000610352</ele>
        <time>2019-09-12T07:10:22Z</time>
      </trkpt>
      <trkpt lat="47.24453" lon="5.98334">
        <ele>359.60000610352</ele>
        <time>2019-09-12T07:10:23Z</time>
      </trkpt>
      <trkpt lat="47.24462" lon="5.98326">
        <ele>359.79998779297</ele>
        <time>2019-09-12T07:10:26Z</time>
      </trkpt>
      <trkpt lat="47.24472" lon="5.98318">
        <ele>359.79998779297</ele>
        <time>2019-09-12T07:10:29Z</time>
      </trkpt>
      <trkpt lat="47.24474" lon="5.98314">
        <ele>359.79998779297</ele>
        <time>2019-09-12T07:10:30Z</time>
      </trkpt>
      <trkpt lat="47.24481" lon="5.98287">
        <ele>360</ele>
        <time>2019-09-12T07:10:35Z</time>
      </trkpt>
      <trkpt lat="47.24482" lon="5.98281">
        <ele>360</ele>
        <time>2019-09-12T07:10:36Z</time>
      </trkpt>
      <trkpt lat="47.2448" lon="5.9826">
        <ele>360.20001220703</ele>
        <time>2019-09-12T07:10:40Z</time>
      </trkpt>
      <trkpt lat="47.24477" lon="5.98248">
        <ele>360.60000610352</ele>
        <time>2019-09-12T07:10:43Z</time>
      </trkpt>
      <trkpt lat="47.24474" lon="5.98244">
        <ele>360.79998779297</ele>
        <time>2019-09-12T07:10:45Z</time>
      </trkpt>
      <trkpt lat="47.24468" lon="5.98235">
        <ele>361</ele>
        <time>2019-09-12T07:10:46Z</time>
      </trkpt>
      <trkpt lat="47.24456" lon="5.98227">
        <ele>361.20001220703</ele>
        <time>2019-09-12T07:10:49Z</time>
      </trkpt>
      <trkpt lat="47.24452" lon="5.98226">
        <ele>361.20001220703</ele>
        <time>2019-09-12T07:10:50Z</time>
      </trkpt>
      <trkpt lat="47.24442" lon="5.98226">
        <ele>361.39999389648</ele>
        <time>2019-09-12T07:10:52Z</time>
      </trkpt>
      <trkpt lat="47.24437" lon="5.98227">
        <ele>361.39999389648</ele>
        <time>2019-09-12T07:10:53Z</time>
      </trkpt>
      <trkpt lat="47.24432" lon="5.98228">
        <ele>361.39999389648</ele>
        <time>2019-09-12T07:10:54Z</time>
      </trkpt>
      <trkpt lat="47.24423" lon="5.98226">
        <ele>361.60000610352</ele>
        <time>2019-09-12T07:10:56Z</time>
      </trkpt>
      <trkpt lat="47.24423" lon="5.98226">
        <ele>361.60000610352</ele>
        <time>2019-09-12T07:10:57Z</time>
      </trkpt>
      <trkpt lat="47.24409" lon="5.98217">
        <ele>361.79998779297</ele>
        <time>2019-09-12T07:10:59Z</time>
      </trkpt>
      <trkpt lat="47.24393" lon="5.98213">
        <ele>361.79998779297</ele>
        <time>2019-09-12T07:11:02Z</time>
      </trkpt>
      <trkpt lat="47.24346" lon="5.98202">
        <ele>361</ele>
        <time>2019-09-12T07:11:10Z</time>
      </trkpt>
      <trkpt lat="47.2434" lon="5.982">
        <ele>360.60000610352</ele>
        <time>2019-09-12T07:11:11Z</time>
      </trkpt>
      <trkpt lat="47.24292" lon="5.98195">
        <ele>360</ele>
        <time>2019-09-12T07:11:19Z</time>
      </trkpt>
      <trkpt lat="47.24255" lon="5.98191">
        <ele>360</ele>
        <time>2019-09-12T07:11:27Z</time>
      </trkpt>
      <trkpt lat="47.24231" lon="5.98188">
        <ele>360.20001220703</ele>
        <time>2019-09-12T07:11:32Z</time>
      </trkpt>
      <trkpt lat="47.24211" lon="5.98183">
        <ele>361.20001220703</ele>
        <time>2019-09-12T07:11:39Z</time>
      </trkpt>
      <trkpt lat="47.24203" lon="5.9818">
        <ele>361.60000610352</ele>
        <time>2019-09-12T07:11:41Z</time>
      </trkpt>
      <trkpt lat="47.24195" lon="5.98179">
        <ele>362.20001220703</ele>
        <time>2019-09-12T07:11:44Z</time>
      </trkpt>
      <trkpt lat="47.24187" lon="5.98178">
        <ele>362.60000610352</ele>
        <time>2019-09-12T07:11:47Z</time>
      </trkpt>
      <trkpt lat="47.24179" lon="5.98175">
        <ele>363.39999389648</ele>
        <time>2019-09-12T07:11:51Z</time>
      </trkpt>
      <trkpt lat="47.24167" lon="5.98168">
        <ele>364.39999389648</ele>
        <time>2019-09-12T07:11:54Z</time>
      </trkpt>
      <trkpt lat="47.24161" lon="5.98165">
        <ele>365.20001220703</ele>
        <time>2019-09-12T07:11:57Z</time>
      </trkpt>
      <trkpt lat="47.24145" lon="5.98156">
        <ele>365.60000610352</ele>
        <time>2019-09-12T07:12:01Z</time>
      </trkpt>
      <trkpt lat="47.24141" lon="5.98154">
        <ele>365.79998779297</ele>
        <time>2019-09-12T07:12:03Z</time>
      </trkpt>
      <trkpt lat="47.24118" lon="5.98137">
        <ele>365.79998779297</ele>
        <time>2019-09-12T07:12:09Z</time>
      </trkpt>
      <trkpt lat="47.24093" lon="5.98116">
        <ele>365.60000610352</ele>
        <time>2019-09-12T07:12:15Z</time>
      </trkpt>
      <trkpt lat="47.24085" lon="5.98108">
        <ele>365.60000610352</ele>
        <time>2019-09-12T07:12:16Z</time>
      </trkpt>
      <trkpt lat="47.2407" lon="5.98091">
        <ele>365.60000610352</ele>
        <time>2019-09-12T07:12:21Z</time>
      </trkpt>
      <trkpt lat="47.24063" lon="5.98081">
        <ele>365.60000610352</ele>
        <time>2019-09-12T07:12:22Z</time>
      </trkpt>
      <trkpt lat="47.24054" lon="5.98066">
        <ele>365.79998779297</ele>
        <time>2019-09-12T07:12:25Z</time>
      </trkpt>
      <trkpt lat="47.24051" lon="5.98062">
        <ele>365.79998779297</ele>
        <time>2019-09-12T07:12:27Z</time>
      </trkpt>
      <trkpt lat="47.24028" lon="5.98025">
        <ele>366</ele>
        <time>2019-09-12T07:12:34Z</time>
      </trkpt>
      <trkpt lat="47.24014" lon="5.98005">
        <ele>366.39999389648</ele>
        <time>2019-09-12T07:12:39Z</time>
      </trkpt>
      <trkpt lat="47.24008" lon="5.97996">
        <ele>366.39999389648</ele>
        <time>2019-09-12T07:12:40Z</time>
      </trkpt>
      <trkpt lat="47.23993" lon="5.97974">
        <ele>366.60000610352</ele>
        <time>2019-09-12T07:12:45Z</time>
      </trkpt>
      <trkpt lat="47.23975" lon="5.97955">
        <ele>366.39999389648</ele>
        <time>2019-09-12T07:12:49Z</time>
      </trkpt>
      <trkpt lat="47.23971" lon="5.97952">
        <ele>366.60000610352</ele>
        <time>2019-09-12T07:12:50Z</time>
      </trkpt>
      <trkpt lat="47.23962" lon="5.97945">
        <ele>366.39999389648</ele>
        <time>2019-09-12T07:12:52Z</time>
      </trkpt>
      <trkpt lat="47.23941" lon="5.97931">
        <ele>366.20001220703</ele>
        <time>2019-09-12T07:12:56Z</time>
      </trkpt>
      <trkpt lat="47.23897" lon="5.97895">
        <ele>365.79998779297</ele>
        <time>2019-09-12T07:13:05Z</time>
      </trkpt>
      <trkpt lat="47.23872" lon="5.97879">
        <ele>365.79998779297</ele>
        <time>2019-09-12T07:13:11Z</time>
      </trkpt>
      <trkpt lat="47.2386" lon="5.97872">
        <ele>365.79998779297</ele>
        <time>2019-09-12T07:13:14Z</time>
      </trkpt>
      <trkpt lat="47.23842" lon="5.97865">
        <ele>366.60000610352</ele>
        <time>2019-09-12T07:13:18Z</time>
      </trkpt>
      <trkpt lat="47.23823" lon="5.97859">
        <ele>367.20001220703</ele>
        <time>2019-09-12T07:13:22Z</time>
      </trkpt>
      <trkpt lat="47.23807" lon="5.97856">
        <ele>367.39999389648</ele>
        <time>2019-09-12T07:13:25Z</time>
      </trkpt>
      <trkpt lat="47.2377" lon="5.97845">
        <ele>367.39999389648</ele>
        <time>2019-09-12T07:13:32Z</time>
      </trkpt>
      <trkpt lat="47.23739" lon="5.97847">
        <ele>367</ele>
        <time>2019-09-12T07:13:39Z</time>
      </trkpt>
      <trkpt lat="47.2372" lon="5.97849">
        <ele>366.20001220703</ele>
        <time>2019-09-12T07:13:42Z</time>
      </trkpt>
      <trkpt lat="47.23715" lon="5.97851">
        <ele>366.20001220703</ele>
        <time>2019-09-12T07:13:43Z</time>
      </trkpt>
      <trkpt lat="47.23712" lon="5.97854">
        <ele>366</ele>
        <time>2019-09-12T07:13:44Z</time>
      </trkpt>
      <trkpt lat="47.23702" lon="5.97865">
        <ele>365.60000610352</ele>
        <time>2019-09-12T07:13:49Z</time>
      </trkpt>
      <trkpt lat="47.23693" lon="5.97867">
        <ele>365.39999389648</ele>
        <time>2019-09-12T07:13:52Z</time>
      </trkpt>
      <trkpt lat="47.23689" lon="5.97865">
        <ele>365.39999389648</ele>
        <time>2019-09-12T07:13:53Z</time>
      </trkpt>
      <trkpt lat="47.23678" lon="5.97855">
        <ele>365.20001220703</ele>
        <time>2019-09-12T07:13:57Z</time>
      </trkpt>
      <trkpt lat="47.23672" lon="5.97845">
        <ele>365</ele>
        <time>2019-09-12T07:13:58Z</time>
      </trkpt>
      <trkpt lat="47.23661" lon="5.97823">
        <ele>365</ele>
        <time>2019-09-12T07:14:02Z</time>
      </trkpt>
      <trkpt lat="47.23635" lon="5.97779">
        <ele>365</ele>
        <time>2019-09-12T07:14:10Z</time>
      </trkpt>
      <trkpt lat="47.23627" lon="5.97769">
        <ele>365.20001220703</ele>
        <time>2019-09-12T07:14:12Z</time>
      </trkpt>
      <trkpt lat="47.23589" lon="5.97728">
        <ele>365.20001220703</ele>
        <time>2019-09-12T07:14:20Z</time>
      </trkpt>
      <trkpt lat="47.23542" lon="5.97674">
        <ele>364.60000610352</ele>
        <time>2019-09-12T07:14:29Z</time>
      </trkpt>
      <trkpt lat="47.23536" lon="5.97667">
        <ele>364.39999389648</ele>
        <time>2019-09-12T07:14:30Z</time>
      </trkpt>
      <trkpt lat="47.23513" lon="5.97641">
        <ele>363.20001220703</ele>
        <time>2019-09-12T07:14:34Z</time>
      </trkpt>
      <trkpt lat="47.23489" lon="5.97613">
        <ele>362.60000610352</ele>
        <time>2019-09-12T07:14:38Z</time>
      </trkpt>
      <trkpt lat="47.23478" lon="5.97597">
        <ele>362</ele>
        <time>2019-09-12T07:14:40Z</time>
      </trkpt>
      <trkpt lat="47.23458" lon="5.97563">
        <ele>361</ele>
        <time>2019-09-12T07:14:44Z</time>
      </trkpt>
      <trkpt lat="47.23453" lon="5.97555">
        <ele>360.79998779297</ele>
        <time>2019-09-12T07:14:45Z</time>
      </trkpt>
      <trkpt lat="47.23433" lon="5.97521">
        <ele>359.60000610352</ele>
        <time>2019-09-12T07:14:49Z</time>
      </trkpt>
      <trkpt lat="47.23417" lon="5.97496">
        <ele>358.60000610352</ele>
        <time>2019-09-12T07:14:52Z</time>
      </trkpt>
      <trkpt lat="47.23399" lon="5.97474">
        <ele>357.60000610352</ele>
        <time>2019-09-12T07:14:55Z</time>
      </trkpt>
      <trkpt lat="47.23378" lon="5.97454">
        <ele>356.79998779297</ele>
        <time>2019-09-12T07:14:58Z</time>
      </trkpt>
      <trkpt lat="47.23371" lon="5.97448">
        <ele>356.39999389648</ele>
        <time>2019-09-12T07:14:59Z</time>
      </trkpt>
      <trkpt lat="47.23357" lon="5.97438">
        <ele>355.79998779297</ele>
        <time>2019-09-12T07:15:01Z</time>
      </trkpt>
      <trkpt lat="47.2335" lon="5.97437">
        <ele>355.39999389648</ele>
        <time>2019-09-12T07:15:02Z</time>
      </trkpt>
      <trkpt lat="47.23344" lon="5.97438">
        <ele>355</ele>
        <time>2019-09-12T07:15:03Z</time>
      </trkpt>
      <trkpt lat="47.23333" lon="5.97438">
        <ele>354.39999389648</ele>
        <time>2019-09-12T07:15:05Z</time>
      </trkpt>
      <trkpt lat="47.23325" lon="5.97434">
        <ele>354</ele>
        <time>2019-09-12T07:15:07Z</time>
      </trkpt>
      <trkpt lat="47.23321" lon="5.97431">
        <ele>353.60000610352</ele>
        <time>2019-09-12T07:15:08Z</time>
      </trkpt>
      <trkpt lat="47.23321" lon="5.97431">
        <ele>353.20001220703</ele>
        <time>2019-09-12T07:15:09Z</time>
      </trkpt>
      <trkpt lat="47.23315" lon="5.97423">
        <ele>352.79998779297</ele>
        <time>2019-09-12T07:15:11Z</time>
      </trkpt>
      <trkpt lat="47.23312" lon="5.97419">
        <ele>352.79998779297</ele>
        <time>2019-09-12T07:15:13Z</time>
      </trkpt>
      <trkpt lat="47.23309" lon="5.97414">
        <ele>352.79998779297</ele>
        <time>2019-09-12T07:15:18Z</time>
      </trkpt>
      <trkpt lat="47.23308" lon="5.97412">
        <ele>352.79998779297</ele>
        <time>2019-09-12T07:15:19Z</time>
      </trkpt>
      <trkpt lat="47.233" lon="5.97394">
        <ele>352.79998779297</ele>
        <time>2019-09-12T07:15:24Z</time>
      </trkpt>
      <trkpt lat="47.23286" lon="5.97359">
        <ele>353</ele>
        <time>2019-09-12T07:15:30Z</time>
      </trkpt>
      <trkpt lat="47.23274" lon="5.97328">
        <ele>354</ele>
        <time>2019-09-12T07:15:35Z</time>
      </trkpt>
      <trkpt lat="47.23268" lon="5.97315">
        <ele>354.60000610352</ele>
        <time>2019-09-12T07:15:37Z</time>
      </trkpt>
      <trkpt lat="47.23257" lon="5.97289">
        <ele>355</ele>
        <time>2019-09-12T07:15:41Z</time>
      </trkpt>
      <trkpt lat="47.23254" lon="5.97283">
        <ele>355</ele>
        <time>2019-09-12T07:15:42Z</time>
      </trkpt>
      <trkpt lat="47.23249" lon="5.97269">
        <ele>355</ele>
        <time>2019-09-12T07:15:44Z</time>
      </trkpt>
      <trkpt lat="47.23226" lon="5.97214">
        <ele>355</ele>
        <time>2019-09-12T07:15:52Z</time>
      </trkpt>
      <trkpt lat="47.23207" lon="5.97166">
        <ele>354.39999389648</ele>
        <time>2019-09-12T07:15:59Z</time>
      </trkpt>
      <trkpt lat="47.23202" lon="5.97154">
        <ele>354.39999389648</ele>
        <time>2019-09-12T07:16:01Z</time>
      </trkpt>
      <trkpt lat="47.23197" lon="5.97132">
        <ele>354.39999389648</ele>
        <time>2019-09-12T07:16:05Z</time>
      </trkpt>
      <trkpt lat="47.23191" lon="5.97087">
        <ele>355.20001220703</ele>
        <time>2019-09-12T07:16:12Z</time>
      </trkpt>
      <trkpt lat="47.23184" lon="5.97032">
        <ele>355.79998779297</ele>
        <time>2019-09-12T07:16:19Z</time>
      </trkpt>
      <trkpt lat="47.23175" lon="5.96978">
        <ele>355.60000610352</ele>
        <time>2019-09-12T07:16:26Z</time>
      </trkpt>
      <trkpt lat="47.23172" lon="5.96964">
        <ele>355.60000610352</ele>
        <time>2019-09-12T07:16:28Z</time>
      </trkpt>
      <trkpt lat="47.23164" lon="5.96937">
        <ele>355.60000610352</ele>
        <time>2019-09-12T07:16:33Z</time>
      </trkpt>
      <trkpt lat="47.23152" lon="5.96899">
        <ele>355.60000610352</ele>
        <time>2019-09-12T07:16:39Z</time>
      </trkpt>
      <trkpt lat="47.23143" lon="5.9688">
        <ele>356</ele>
        <time>2019-09-12T07:16:42Z</time>
      </trkpt>
      <trkpt lat="47.23138" lon="5.96871">
        <ele>356.39999389648</ele>
        <time>2019-09-12T07:16:45Z</time>
      </trkpt>
      <trkpt lat="47.2313" lon="5.96859">
        <ele>357</ele>
        <time>2019-09-12T07:16:47Z</time>
      </trkpt>
      <trkpt lat="47.23118" lon="5.96839">
        <ele>358.20001220703</ele>
        <time>2019-09-12T07:16:52Z</time>
      </trkpt>
      <trkpt lat="47.23113" lon="5.96831">
        <ele>358.60000610352</ele>
        <time>2019-09-12T07:16:54Z</time>
      </trkpt>
      <trkpt lat="47.23104" lon="5.96816">
        <ele>359.20001220703</ele>
        <time>2019-09-12T07:16:58Z</time>
      </trkpt>
      <trkpt lat="47.23094" lon="5.968">
        <ele>359.79998779297</ele>
        <time>2019-09-12T07:17:02Z</time>
      </trkpt>
      <trkpt lat="47.23084" lon="5.96785">
        <ele>360.39999389648</ele>
        <time>2019-09-12T07:17:06Z</time>
      </trkpt>
      <trkpt lat="47.2308" lon="5.96777">
        <ele>360.79998779297</ele>
        <time>2019-09-12T07:17:09Z</time>
      </trkpt>
      <trkpt lat="47.23069" lon="5.96759">
        <ele>361.39999389648</ele>
        <time>2019-09-12T07:17:13Z</time>
      </trkpt>
      <trkpt lat="47.23059" lon="5.96746">
        <ele>362</ele>
        <time>2019-09-12T07:17:17Z</time>
      </trkpt>
      <trkpt lat="47.23051" lon="5.96735">
        <ele>362.60000610352</ele>
        <time>2019-09-12T07:17:20Z</time>
      </trkpt>
      <trkpt lat="47.23036" lon="5.96713">
        <ele>363.20001220703</ele>
        <time>2019-09-12T07:17:26Z</time>
      </trkpt>
      <trkpt lat="47.23029" lon="5.96703">
        <ele>363.60000610352</ele>
        <time>2019-09-12T07:17:29Z</time>
      </trkpt>
      <trkpt lat="47.23012" lon="5.96684">
        <ele>364.39999389648</ele>
        <time>2019-09-12T07:17:35Z</time>
      </trkpt>
      <trkpt lat="47.23009" lon="5.96681">
        <ele>364.60000610352</ele>
        <time>2019-09-12T07:17:36Z</time>
      </trkpt>
      <trkpt lat="47.22993" lon="5.96661">
        <ele>365</ele>
        <time>2019-09-12T07:17:42Z</time>
      </trkpt>
      <trkpt lat="47.22981" lon="5.96648">
        <ele>365.60000610352</ele>
        <time>2019-09-12T07:17:46Z</time>
      </trkpt>
      <trkpt lat="47.22971" lon="5.96638">
        <ele>365.79998779297</ele>
        <time>2019-09-12T07:17:49Z</time>
      </trkpt>
      <trkpt lat="47.22946" lon="5.96619">
        <ele>366</ele>
        <time>2019-09-12T07:17:57Z</time>
      </trkpt>
      <trkpt lat="47.22908" lon="5.96595">
        <ele>366</ele>
        <time>2019-09-12T07:18:05Z</time>
      </trkpt>
      <trkpt lat="47.22874" lon="5.96583">
        <ele>365.79998779297</ele>
        <time>2019-09-12T07:18:12Z</time>
      </trkpt>
      <trkpt lat="47.22832" lon="5.96574">
        <ele>364.79998779297</ele>
        <time>2019-09-12T07:18:19Z</time>
      </trkpt>
      <trkpt lat="47.22826" lon="5.96573">
        <ele>364.60000610352</ele>
        <time>2019-09-12T07:18:20Z</time>
      </trkpt>
      <trkpt lat="47.22826" lon="5.96573">
        <ele>364.39999389648</ele>
        <time>2019-09-12T07:18:21Z</time>
      </trkpt>
      <trkpt lat="47.22799" lon="5.96564">
        <ele>363.60000610352</ele>
        <time>2019-09-12T07:18:25Z</time>
      </trkpt>
      <trkpt lat="47.22793" lon="5.96562">
        <ele>363.20001220703</ele>
        <time>2019-09-12T07:18:27Z</time>
      </trkpt>
      <trkpt lat="47.22758" lon="5.96554">
        <ele>362</ele>
        <time>2019-09-12T07:18:32Z</time>
      </trkpt>
      <trkpt lat="47.22749" lon="5.96554">
        <ele>361.60000610352</ele>
        <time>2019-09-12T07:18:34Z</time>
      </trkpt>
      <trkpt lat="47.22738" lon="5.96554">
        <ele>361.39999389648</ele>
        <time>2019-09-12T07:18:36Z</time>
      </trkpt>
      <trkpt lat="47.22732" lon="5.96553">
        <ele>361.20001220703</ele>
        <time>2019-09-12T07:18:37Z</time>
      </trkpt>
      <trkpt lat="47.22726" lon="5.96551">
        <ele>360.79998779297</ele>
        <time>2019-09-12T07:18:38Z</time>
      </trkpt>
      <trkpt lat="47.22718" lon="5.96544">
        <ele>359.79998779297</ele>
        <time>2019-09-12T07:18:40Z</time>
      </trkpt>
      <trkpt lat="47.22715" lon="5.96539">
        <ele>359.60000610352</ele>
        <time>2019-09-12T07:18:41Z</time>
      </trkpt>
      <trkpt lat="47.22711" lon="5.96522">
        <ele>358.60000610352</ele>
        <time>2019-09-12T07:18:44Z</time>
      </trkpt>
      <trkpt lat="47.22711" lon="5.96522">
        <ele>358.39999389648</ele>
        <time>2019-09-12T07:18:45Z</time>
      </trkpt>
      <trkpt lat="47.22712" lon="5.96491">
        <ele>357.79998779297</ele>
        <time>2019-09-12T07:18:51Z</time>
      </trkpt>
      <trkpt lat="47.22709" lon="5.96483">
        <ele>357.79998779297</ele>
        <time>2019-09-12T07:18:52Z</time>
      </trkpt>
      <trkpt lat="47.22705" lon="5.96483">
        <ele>357.79998779297</ele>
        <time>2019-09-12T07:18:53Z</time>
      </trkpt>
      <trkpt lat="47.22701" lon="5.96498">
        <ele>357.60000610352</ele>
        <time>2019-09-12T07:18:56Z</time>
      </trkpt>
      <trkpt lat="47.227" lon="5.9651">
        <ele>357.39999389648</ele>
        <time>2019-09-12T07:18:58Z</time>
      </trkpt>
      <trkpt lat="47.22699" lon="5.96534">
        <ele>357.39999389648</ele>
        <time>2019-09-12T07:19:02Z</time>
      </trkpt>
      <trkpt lat="47.22695" lon="5.96543">
        <ele>357.39999389648</ele>
        <time>2019-09-12T07:19:04Z</time>
      </trkpt>
      <trkpt lat="47.22691" lon="5.96549">
        <ele>357.39999389648</ele>
        <time>2019-09-12T07:19:06Z</time>
      </trkpt>
      <trkpt lat="47.22688" lon="5.96549">
        <ele>357</ele>
        <time>2019-09-12T07:19:10Z</time>
      </trkpt>
      <trkpt lat="47.22688" lon="5.96549">
        <ele>357</ele>
        <time>2019-09-12T07:19:11Z</time>
      </trkpt>
      <trkpt lat="47.22687" lon="5.9655">
        <ele>356.79998779297</ele>
        <time>2019-09-12T07:19:13Z</time>
      </trkpt>
      <trkpt lat="47.22685" lon="5.96551">
        <ele>356.39999389648</ele>
        <time>2019-09-12T07:19:15Z</time>
      </trkpt>
      <trkpt lat="47.2267" lon="5.9655">
        <ele>356.20001220703</ele>
        <time>2019-09-12T07:19:18Z</time>
      </trkpt>
      <trkpt lat="47.22659" lon="5.9655">
        <ele>356</ele>
        <time>2019-09-12T07:19:21Z</time>
      </trkpt>
      <trkpt lat="47.22636" lon="5.96549">
        <ele>355.79998779297</ele>
        <time>2019-09-12T07:19:24Z</time>
      </trkpt>
      <trkpt lat="47.2261" lon="5.96548">
        <ele>355</ele>
        <time>2019-09-12T07:19:28Z</time>
      </trkpt>
      <trkpt lat="47.22595" lon="5.96545">
        <ele>354</ele>
        <time>2019-09-12T07:19:31Z</time>
      </trkpt>
      <trkpt lat="47.22591" lon="5.96544">
        <ele>353.60000610352</ele>
        <time>2019-09-12T07:19:32Z</time>
      </trkpt>
      <trkpt lat="47.22586" lon="5.9654">
        <ele>353</ele>
        <time>2019-09-12T07:19:34Z</time>
      </trkpt>
      <trkpt lat="47.22584" lon="5.96536">
        <ele>352.79998779297</ele>
        <time>2019-09-12T07:19:35Z</time>
      </trkpt>
      <trkpt lat="47.22582" lon="5.96533">
        <ele>352.39999389648</ele>
        <time>2019-09-12T07:19:36Z</time>
      </trkpt>
      <trkpt lat="47.22575" lon="5.96529">
        <ele>352.20001220703</ele>
        <time>2019-09-12T07:19:38Z</time>
      </trkpt>
      <trkpt lat="47.22575" lon="5.96529">
        <ele>351.79998779297</ele>
        <time>2019-09-12T07:19:39Z</time>
      </trkpt>
      <trkpt lat="47.22561" lon="5.96531">
        <ele>351.60000610352</ele>
        <time>2019-09-12T07:19:41Z</time>
      </trkpt>
      <trkpt lat="47.22549" lon="5.9653">
        <ele>351.39999389648</ele>
        <time>2019-09-12T07:19:43Z</time>
      </trkpt>
      <trkpt lat="47.22543" lon="5.96531">
        <ele>351.39999389648</ele>
        <time>2019-09-12T07:19:44Z</time>
      </trkpt>
      <trkpt lat="47.22531" lon="5.96532">
        <ele>351.39999389648</ele>
        <time>2019-09-12T07:19:46Z</time>
      </trkpt>
      <trkpt lat="47.22525" lon="5.96532">
        <ele>351.20001220703</ele>
        <time>2019-09-12T07:19:47Z</time>
      </trkpt>
      <trkpt lat="47.22505" lon="5.96532">
        <ele>350.20001220703</ele>
        <time>2019-09-12T07:19:51Z</time>
      </trkpt>
      <trkpt lat="47.22485" lon="5.96531">
        <ele>348.79998779297</ele>
        <time>2019-09-12T07:19:53Z</time>
      </trkpt>
      <trkpt lat="47.22474" lon="5.96531">
        <ele>348</ele>
        <time>2019-09-12T07:19:55Z</time>
      </trkpt>
      <trkpt lat="47.22469" lon="5.96532">
        <ele>347.60000610352</ele>
        <time>2019-09-12T07:19:57Z</time>
      </trkpt>
      <trkpt lat="47.22452" lon="5.96534">
        <ele>347.60000610352</ele>
        <time>2019-09-12T07:20:00Z</time>
      </trkpt>
      <trkpt lat="47.22443" lon="5.96537">
        <ele>347.60000610352</ele>
        <time>2019-09-12T07:20:02Z</time>
      </trkpt>
      <trkpt lat="47.22426" lon="5.96541">
        <ele>347.60000610352</ele>
        <time>2019-09-12T07:20:06Z</time>
      </trkpt>
      <trkpt lat="47.2241" lon="5.96544">
        <ele>348.20001220703</ele>
        <time>2019-09-12T07:20:11Z</time>
      </trkpt>
      <trkpt lat="47.22408" lon="5.96547">
        <ele>348.20001220703</ele>
        <time>2019-09-12T07:20:12Z</time>
      </trkpt>
      <trkpt lat="47.22402" lon="5.96553">
        <ele>348.60000610352</ele>
        <time>2019-09-12T07:20:15Z</time>
      </trkpt>
      <trkpt lat="47.22395" lon="5.96557">
        <ele>348.79998779297</ele>
        <time>2019-09-12T07:20:16Z</time>
      </trkpt>
      <trkpt lat="47.22391" lon="5.96559">
        <ele>349</ele>
        <time>2019-09-12T07:20:17Z</time>
      </trkpt>
      <trkpt lat="47.22359" lon="5.9658">
        <ele>349</ele>
        <time>2019-09-12T07:20:24Z</time>
      </trkpt>
      <trkpt lat="47.2233" lon="5.96597">
        <ele>348.20001220703</ele>
        <time>2019-09-12T07:20:30Z</time>
      </trkpt>
      <trkpt lat="47.22326" lon="5.966">
        <ele>348.20001220703</ele>
        <time>2019-09-12T07:20:31Z</time>
      </trkpt>
      <trkpt lat="47.22315" lon="5.96607">
        <ele>347.60000610352</ele>
        <time>2019-09-12T07:20:35Z</time>
      </trkpt>
      <trkpt lat="47.22314" lon="5.96608">
        <ele>347.39999389648</ele>
        <time>2019-09-12T07:20:36Z</time>
      </trkpt>
      <trkpt lat="47.22314" lon="5.96608">
        <ele>347.20001220703</ele>
        <time>2019-09-12T07:20:37Z</time>
      </trkpt>
      <trkpt lat="47.22312" lon="5.9661">
        <ele>346.60000610352</ele>
        <time>2019-09-12T07:20:43Z</time>
      </trkpt>
      <trkpt lat="47.2231" lon="5.96611">
        <ele>346.60000610352</ele>
        <time>2019-09-12T07:20:45Z</time>
      </trkpt>
      <trkpt lat="47.22293" lon="5.96625">
        <ele>346.60000610352</ele>
        <time>2019-09-12T07:20:49Z</time>
      </trkpt>
      <trkpt lat="47.2226" lon="5.96656">
        <ele>347</ele>
        <time>2019-09-12T07:20:58Z</time>
      </trkpt>
      <trkpt lat="47.22232" lon="5.96685">
        <ele>347.79998779297</ele>
        <time>2019-09-12T07:21:06Z</time>
      </trkpt>
      <trkpt lat="47.22211" lon="5.96702">
        <ele>348.20001220703</ele>
        <time>2019-09-12T07:21:12Z</time>
      </trkpt>
      <trkpt lat="47.22186" lon="5.96726">
        <ele>348.20001220703</ele>
        <time>2019-09-12T07:21:20Z</time>
      </trkpt>
      <trkpt lat="47.22174" lon="5.96734">
        <ele>347.60000610352</ele>
        <time>2019-09-12T07:21:25Z</time>
      </trkpt>
      <trkpt lat="47.22163" lon="5.96747">
        <ele>347.39999389648</ele>
        <time>2019-09-12T07:21:29Z</time>
      </trkpt>
      <trkpt lat="47.22159" lon="5.96749">
        <ele>347.20001220703</ele>
        <time>2019-09-12T07:21:30Z</time>
      </trkpt>
      <trkpt lat="47.22152" lon="5.96746">
        <ele>347</ele>
        <time>2019-09-12T07:21:33Z</time>
      </trkpt>
      <trkpt lat="47.22141" lon="5.96723">
        <ele>346.79998779297</ele>
        <time>2019-09-12T07:21:37Z</time>
      </trkpt>
      <trkpt lat="47.22125" lon="5.96689">
        <ele>346.79998779297</ele>
        <time>2019-09-12T07:21:44Z</time>
      </trkpt>
      <trkpt lat="47.22106" lon="5.96644">
        <ele>347.39999389648</ele>
        <time>2019-09-12T07:21:52Z</time>
      </trkpt>
      <trkpt lat="47.22083" lon="5.96592">
        <ele>347.39999389648</ele>
        <time>2019-09-12T07:22:00Z</time>
      </trkpt>
      <trkpt lat="47.2207" lon="5.96564">
        <ele>346.79998779297</ele>
        <time>2019-09-12T07:22:04Z</time>
      </trkpt>
      <trkpt lat="47.22066" lon="5.96558">
        <ele>346.60000610352</ele>
        <time>2019-09-12T07:22:05Z</time>
      </trkpt>
      <trkpt lat="47.2205" lon="5.96546">
        <ele>346.20001220703</ele>
        <time>2019-09-12T07:22:08Z</time>
      </trkpt>
      <trkpt lat="47.2205" lon="5.96546">
        <ele>346.20001220703</ele>
        <time>2019-09-12T07:22:09Z</time>
      </trkpt>
      <trkpt lat="47.22037" lon="5.9654">
        <ele>346</ele>
        <time>2019-09-12T07:22:10Z</time>
      </trkpt>
      <trkpt lat="47.22011" lon="5.9653">
        <ele>345.20001220703</ele>
        <time>2019-09-12T07:22:14Z</time>
      </trkpt>
      <trkpt lat="47.22006" lon="5.96528">
        <ele>345</ele>
        <time>2019-09-12T07:22:15Z</time>
      </trkpt>
      <trkpt lat="47.22002" lon="5.96526">
        <ele>344.79998779297</ele>
        <time>2019-09-12T07:22:16Z</time>
      </trkpt>
      <trkpt lat="47.21991" lon="5.96517">
        <ele>344</ele>
        <time>2019-09-12T07:22:19Z</time>
      </trkpt>
      <trkpt lat="47.21986" lon="5.96516">
        <ele>343.79998779297</ele>
        <time>2019-09-12T07:22:20Z</time>
      </trkpt>
      <trkpt lat="47.21971" lon="5.96518">
        <ele>343.39999389648</ele>
        <time>2019-09-12T07:22:23Z</time>
      </trkpt>
      <trkpt lat="47.21966" lon="5.96517">
        <ele>343.20001220703</ele>
        <time>2019-09-12T07:22:24Z</time>
      </trkpt>
      <trkpt lat="47.21955" lon="5.96515">
        <ele>343</ele>
        <time>2019-09-12T07:22:26Z</time>
      </trkpt>
      <trkpt lat="47.21922" lon="5.96504">
        <ele>342.79998779297</ele>
        <time>2019-09-12T07:22:32Z</time>
      </trkpt>
      <trkpt lat="47.21889" lon="5.96493">
        <ele>342.39999389648</ele>
        <time>2019-09-12T07:22:39Z</time>
      </trkpt>
      <trkpt lat="47.21849" lon="5.96479">
        <ele>342.20001220703</ele>
        <time>2019-09-12T07:22:45Z</time>
      </trkpt>
      <trkpt lat="47.21818" lon="5.96465">
        <ele>341.79998779297</ele>
        <time>2019-09-12T07:22:50Z</time>
      </trkpt>
      <trkpt lat="47.21808" lon="5.96458">
        <ele>341.79998779297</ele>
        <time>2019-09-12T07:22:52Z</time>
      </trkpt>
      <trkpt lat="47.21798" lon="5.9645">
        <ele>341.60000610352</ele>
        <time>2019-09-12T07:22:54Z</time>
      </trkpt>
      <trkpt lat="47.21785" lon="5.96448">
        <ele>341.20001220703</ele>
        <time>2019-09-12T07:22:57Z</time>
      </trkpt>
      <trkpt lat="47.21773" lon="5.96443">
        <ele>341.20001220703</ele>
        <time>2019-09-12T07:22:58Z</time>
      </trkpt>
      <trkpt lat="47.21761" lon="5.96435">
        <ele>341</ele>
        <time>2019-09-12T07:23:00Z</time>
      </trkpt>
      <trkpt lat="47.21738" lon="5.96414">
        <ele>340.79998779297</ele>
        <time>2019-09-12T07:23:04Z</time>
      </trkpt>
      <trkpt lat="47.21728" lon="5.96402">
        <ele>340.79998779297</ele>
        <time>2019-09-12T07:23:06Z</time>
      </trkpt>
      <trkpt lat="47.21703" lon="5.96373">
        <ele>340.20001220703</ele>
        <time>2019-09-12T07:23:11Z</time>
      </trkpt>
      <trkpt lat="47.21689" lon="5.96356">
        <ele>340.20001220703</ele>
        <time>2019-09-12T07:23:14Z</time>
      </trkpt>
      <trkpt lat="47.21642" lon="5.96304">
        <ele>339.60000610352</ele>
        <time>2019-09-12T07:23:24Z</time>
      </trkpt>
      <trkpt lat="47.21594" lon="5.96257">
        <ele>339.79998779297</ele>
        <time>2019-09-12T07:23:34Z</time>
      </trkpt>
      <trkpt lat="47.21589" lon="5.96253">
        <ele>339.79998779297</ele>
        <time>2019-09-12T07:23:35Z</time>
      </trkpt>
      <trkpt lat="47.2155" lon="5.96212">
        <ele>340.60000610352</ele>
        <time>2019-09-12T07:23:44Z</time>
      </trkpt>
      <trkpt lat="47.21542" lon="5.96202">
        <ele>340.60000610352</ele>
        <time>2019-09-12T07:23:46Z</time>
      </trkpt>
      <trkpt lat="47.21534" lon="5.96183">
        <ele>340.79998779297</ele>
        <time>2019-09-12T07:23:49Z</time>
      </trkpt>
      <trkpt lat="47.21534" lon="5.96176">
        <ele>340.79998779297</ele>
        <time>2019-09-12T07:23:51Z</time>
      </trkpt>
      <trkpt lat="47.21535" lon="5.96162">
        <ele>340.79998779297</ele>
        <time>2019-09-12T07:23:52Z</time>
      </trkpt>
      <trkpt lat="47.21535" lon="5.96154">
        <ele>341</ele>
        <time>2019-09-12T07:23:53Z</time>
      </trkpt>
      <trkpt lat="47.2153" lon="5.9614">
        <ele>341.20001220703</ele>
        <time>2019-09-12T07:23:55Z</time>
      </trkpt>
      <trkpt lat="47.21527" lon="5.96135">
        <ele>341.39999389648</ele>
        <time>2019-09-12T07:23:56Z</time>
      </trkpt>
      <trkpt lat="47.21527" lon="5.96135">
        <ele>341.79998779297</ele>
        <time>2019-09-12T07:23:57Z</time>
      </trkpt>
      <trkpt lat="47.21518" lon="5.96128">
        <ele>342.20001220703</ele>
        <time>2019-09-12T07:23:58Z</time>
      </trkpt>
      <trkpt lat="47.21514" lon="5.96126">
        <ele>342.20001220703</ele>
        <time>2019-09-12T07:23:59Z</time>
      </trkpt>
      <trkpt lat="47.21509" lon="5.96127">
        <ele>342.39999389648</ele>
        <time>2019-09-12T07:24:00Z</time>
      </trkpt>
      <trkpt lat="47.21501" lon="5.96132">
        <ele>342.39999389648</ele>
        <time>2019-09-12T07:24:03Z</time>
      </trkpt>
      <trkpt lat="47.21493" lon="5.96142">
        <ele>342.39999389648</ele>
        <time>2019-09-12T07:24:04Z</time>
      </trkpt>
      <trkpt lat="47.21482" lon="5.96167">
        <ele>342.79998779297</ele>
        <time>2019-09-12T07:24:09Z</time>
      </trkpt>
      <trkpt lat="47.21476" lon="5.96179">
        <ele>342.79998779297</ele>
        <time>2019-09-12T07:24:10Z</time>
      </trkpt>
      <trkpt lat="47.21467" lon="5.96187">
        <ele>342.79998779297</ele>
        <time>2019-09-12T07:24:12Z</time>
      </trkpt>
      <trkpt lat="47.21458" lon="5.96192">
        <ele>342.60000610352</ele>
        <time>2019-09-12T07:24:14Z</time>
      </trkpt>
      <trkpt lat="47.21447" lon="5.96195">
        <ele>342.39999389648</ele>
        <time>2019-09-12T07:24:16Z</time>
      </trkpt>
      <trkpt lat="47.21442" lon="5.96196">
        <ele>342.20001220703</ele>
        <time>2019-09-12T07:24:17Z</time>
      </trkpt>
      <trkpt lat="47.21412" lon="5.96205">
        <ele>342.20001220703</ele>
        <time>2019-09-12T07:24:23Z</time>
      </trkpt>
      <trkpt lat="47.21377" lon="5.96219">
        <ele>342.39999389648</ele>
        <time>2019-09-12T07:24:30Z</time>
      </trkpt>
      <trkpt lat="47.21346" lon="5.96243">
        <ele>342.39999389648</ele>
        <time>2019-09-12T07:24:36Z</time>
      </trkpt>
      <trkpt lat="47.21303" lon="5.96277">
        <ele>341.60000610352</ele>
        <time>2019-09-12T07:24:44Z</time>
      </trkpt>
      <trkpt lat="47.21292" lon="5.96285">
        <ele>341.20001220703</ele>
        <time>2019-09-12T07:24:46Z</time>
      </trkpt>
      <trkpt lat="47.21285" lon="5.96289">
        <ele>341</ele>
        <time>2019-09-12T07:24:47Z</time>
      </trkpt>
      <trkpt lat="47.21266" lon="5.963">
        <ele>340.60000610352</ele>
        <time>2019-09-12T07:24:50Z</time>
      </trkpt>
      <trkpt lat="47.21238" lon="5.96312">
        <ele>339.79998779297</ele>
        <time>2019-09-12T07:24:54Z</time>
      </trkpt>
      <trkpt lat="47.21224" lon="5.96317">
        <ele>338.79998779297</ele>
        <time>2019-09-12T07:24:57Z</time>
      </trkpt>
      <trkpt lat="47.21209" lon="5.9632">
        <ele>338.60000610352</ele>
        <time>2019-09-12T07:24:58Z</time>
      </trkpt>
      <trkpt lat="47.21186" lon="5.96322">
        <ele>337.39999389648</ele>
        <time>2019-09-12T07:25:01Z</time>
      </trkpt>
      <trkpt lat="47.21179" lon="5.96322">
        <ele>337</ele>
        <time>2019-09-12T07:25:02Z</time>
      </trkpt>
      <trkpt lat="47.21156" lon="5.96321">
        <ele>336.39999389648</ele>
        <time>2019-09-12T07:25:05Z</time>
      </trkpt>
      <trkpt lat="47.21133" lon="5.96319">
        <ele>335.20001220703</ele>
        <time>2019-09-12T07:25:09Z</time>
      </trkpt>
      <trkpt lat="47.21118" lon="5.96317">
        <ele>335</ele>
        <time>2019-09-12T07:25:10Z</time>
      </trkpt>
      <trkpt lat="47.21097" lon="5.96314">
        <ele>334.20001220703</ele>
        <time>2019-09-12T07:25:13Z</time>
      </trkpt>
      <trkpt lat="47.21067" lon="5.96311">
        <ele>333</ele>
        <time>2019-09-12T07:25:17Z</time>
      </trkpt>
      <trkpt lat="47.21044" lon="5.96309">
        <ele>332.39999389648</ele>
        <time>2019-09-12T07:25:20Z</time>
      </trkpt>
      <trkpt lat="47.21028" lon="5.96307">
        <ele>332</ele>
        <time>2019-09-12T07:25:22Z</time>
      </trkpt>
      <trkpt lat="47.20996" lon="5.96304">
        <ele>330.79998779297</ele>
        <time>2019-09-12T07:25:26Z</time>
      </trkpt>
      <trkpt lat="47.20971" lon="5.96306">
        <ele>329.79998779297</ele>
        <time>2019-09-12T07:25:29Z</time>
      </trkpt>
      <trkpt lat="47.20962" lon="5.96308">
        <ele>329.39999389648</ele>
        <time>2019-09-12T07:25:30Z</time>
      </trkpt>
      <trkpt lat="47.20945" lon="5.96312">
        <ele>328.39999389648</ele>
        <time>2019-09-12T07:25:33Z</time>
      </trkpt>
      <trkpt lat="47.20913" lon="5.96322">
        <ele>327</ele>
        <time>2019-09-12T07:25:36Z</time>
      </trkpt>
      <trkpt lat="47.20898" lon="5.96329">
        <ele>325.60000610352</ele>
        <time>2019-09-12T07:25:39Z</time>
      </trkpt>
      <trkpt lat="47.2087" lon="5.96344">
        <ele>324.60000610352</ele>
        <time>2019-09-12T07:25:42Z</time>
      </trkpt>
      <trkpt lat="47.20863" lon="5.96346">
        <ele>324.20001220703</ele>
        <time>2019-09-12T07:25:43Z</time>
      </trkpt>
      <trkpt lat="47.20845" lon="5.96353">
        <ele>323.60000610352</ele>
        <time>2019-09-12T07:25:46Z</time>
      </trkpt>
      <trkpt lat="47.20841" lon="5.96359">
        <ele>323.20001220703</ele>
        <time>2019-09-12T07:25:47Z</time>
      </trkpt>
      <trkpt lat="47.20805" lon="5.96398">
        <ele>323</ele>
        <time>2019-09-12T07:25:55Z</time>
      </trkpt>
      <trkpt lat="47.20782" lon="5.96423">
        <ele>323.79998779297</ele>
        <time>2019-09-12T07:26:02Z</time>
      </trkpt>
      <trkpt lat="47.20769" lon="5.96432">
        <ele>324.60000610352</ele>
        <time>2019-09-12T07:26:06Z</time>
      </trkpt>
      <trkpt lat="47.20762" lon="5.96435">
        <ele>325.20001220703</ele>
        <time>2019-09-12T07:26:08Z</time>
      </trkpt>
      <trkpt lat="47.20756" lon="5.96436">
        <ele>325.79998779297</ele>
        <time>2019-09-12T07:26:10Z</time>
      </trkpt>
      <trkpt lat="47.20742" lon="5.96438">
        <ele>327</ele>
        <time>2019-09-12T07:26:14Z</time>
      </trkpt>
      <trkpt lat="47.20733" lon="5.96438">
        <ele>328</ele>
        <time>2019-09-12T07:26:17Z</time>
      </trkpt>
      <trkpt lat="47.20724" lon="5.96439">
        <ele>329</ele>
        <time>2019-09-12T07:26:20Z</time>
      </trkpt>
      <trkpt lat="47.20708" lon="5.96439">
        <ele>330.20001220703</ele>
        <time>2019-09-12T07:26:25Z</time>
      </trkpt>
      <trkpt lat="47.20699" lon="5.96441">
        <ele>330.79998779297</ele>
        <time>2019-09-12T07:26:28Z</time>
      </trkpt>
      <trkpt lat="47.20693" lon="5.96444">
        <ele>331.20001220703</ele>
        <time>2019-09-12T07:26:30Z</time>
      </trkpt>
      <trkpt lat="47.20677" lon="5.96444">
        <ele>332.39999389648</ele>
        <time>2019-09-12T07:26:35Z</time>
      </trkpt>
      <trkpt lat="47.20674" lon="5.96445">
        <ele>332.60000610352</ele>
        <time>2019-09-12T07:26:36Z</time>
      </trkpt>
      <trkpt lat="47.20671" lon="5.96447">
        <ele>333</ele>
        <time>2019-09-12T07:26:37Z</time>
      </trkpt>
      <trkpt lat="47.20663" lon="5.9646">
        <ele>333.60000610352</ele>
        <time>2019-09-12T07:26:40Z</time>
      </trkpt>
      <trkpt lat="47.20653" lon="5.96473">
        <ele>333.79998779297</ele>
        <time>2019-09-12T07:26:44Z</time>
      </trkpt>
      <trkpt lat="47.20633" lon="5.96485">
        <ele>334.60000610352</ele>
        <time>2019-09-12T07:26:51Z</time>
      </trkpt>
      <trkpt lat="47.20626" lon="5.96489">
        <ele>334.79998779297</ele>
        <time>2019-09-12T07:26:52Z</time>
      </trkpt>
      <trkpt lat="47.20596" lon="5.96502">
        <ele>335</ele>
        <time>2019-09-12T07:27:00Z</time>
      </trkpt>
      <trkpt lat="47.20573" lon="5.96512">
        <ele>335.39999389648</ele>
        <time>2019-09-12T07:27:06Z</time>
      </trkpt>
      <trkpt lat="47.20565" lon="5.96515">
        <ele>335.60000610352</ele>
        <time>2019-09-12T07:27:08Z</time>
      </trkpt>
      <trkpt lat="47.20543" lon="5.96522">
        <ele>335.79998779297</ele>
        <time>2019-09-12T07:27:13Z</time>
      </trkpt>
      <trkpt lat="47.20524" lon="5.96529">
        <ele>335.79998779297</ele>
        <time>2019-09-12T07:27:17Z</time>
      </trkpt>
      <trkpt lat="47.20514" lon="5.96531">
        <ele>335.60000610352</ele>
        <time>2019-09-12T07:27:19Z</time>
      </trkpt>
      <trkpt lat="47.20479" lon="5.96544">
        <ele>334.79998779297</ele>
        <time>2019-09-12T07:27:26Z</time>
      </trkpt>
      <trkpt lat="47.20479" lon="5.96544">
        <ele>334.79998779297</ele>
        <time>2019-09-12T07:27:27Z</time>
      </trkpt>
      <trkpt lat="47.20467" lon="5.96545">
        <ele>334.60000610352</ele>
        <time>2019-09-12T07:27:28Z</time>
      </trkpt>
      <trkpt lat="47.20441" lon="5.96551">
        <ele>334</ele>
        <time>2019-09-12T07:27:32Z</time>
      </trkpt>
      <trkpt lat="47.20411" lon="5.96561">
        <ele>333.60000610352</ele>
        <time>2019-09-12T07:27:36Z</time>
      </trkpt>
      <trkpt lat="47.20396" lon="5.96567">
        <ele>333</ele>
        <time>2019-09-12T07:27:38Z</time>
      </trkpt>
      <trkpt lat="47.2038" lon="5.96571">
        <ele>332.39999389648</ele>
        <time>2019-09-12T07:27:40Z</time>
      </trkpt>
      <trkpt lat="47.20364" lon="5.9657">
        <ele>331.79998779297</ele>
        <time>2019-09-12T07:27:42Z</time>
      </trkpt>
      <trkpt lat="47.20355" lon="5.96567">
        <ele>331.20001220703</ele>
        <time>2019-09-12T07:27:43Z</time>
      </trkpt>
      <trkpt lat="47.20347" lon="5.96563">
        <ele>330.79998779297</ele>
        <time>2019-09-12T07:27:44Z</time>
      </trkpt>
      <trkpt lat="47.20339" lon="5.96559">
        <ele>330.20001220703</ele>
        <time>2019-09-12T07:27:45Z</time>
      </trkpt>
      <trkpt lat="47.20322" lon="5.9655">
        <ele>328.79998779297</ele>
        <time>2019-09-12T07:27:47Z</time>
      </trkpt>
      <trkpt lat="47.20306" lon="5.9654">
        <ele>327.60000610352</ele>
        <time>2019-09-12T07:27:49Z</time>
      </trkpt>
      <trkpt lat="47.2029" lon="5.96529">
        <ele>326.39999389648</ele>
        <time>2019-09-12T07:27:51Z</time>
      </trkpt>
      <trkpt lat="47.20282" lon="5.96524">
        <ele>325.39999389648</ele>
        <time>2019-09-12T07:27:52Z</time>
      </trkpt>
      <trkpt lat="47.20267" lon="5.96512">
        <ele>324.39999389648</ele>
        <time>2019-09-12T07:27:54Z</time>
      </trkpt>
      <trkpt lat="47.2026" lon="5.96507">
        <ele>324</ele>
        <time>2019-09-12T07:27:55Z</time>
      </trkpt>
      <trkpt lat="47.20242" lon="5.96492">
        <ele>322.60000610352</ele>
        <time>2019-09-12T07:27:58Z</time>
      </trkpt>
      <trkpt lat="47.20224" lon="5.96482">
        <ele>321.60000610352</ele>
        <time>2019-09-12T07:28:01Z</time>
      </trkpt>
      <trkpt lat="47.2021" lon="5.96473">
        <ele>320.39999389648</ele>
        <time>2019-09-12T07:28:04Z</time>
      </trkpt>
      <trkpt lat="47.20201" lon="5.96468">
        <ele>319.20001220703</ele>
        <time>2019-09-12T07:28:08Z</time>
      </trkpt>
      <trkpt lat="47.20195" lon="5.96463">
        <ele>318.20001220703</ele>
        <time>2019-09-12T07:28:12Z</time>
      </trkpt>
      <trkpt lat="47.20191" lon="5.96461">
        <ele>318</ele>
        <time>2019-09-12T07:28:13Z</time>
      </trkpt>
      <trkpt lat="47.20177" lon="5.96453">
        <ele>317.20001220703</ele>
        <time>2019-09-12T07:28:16Z</time>
      </trkpt>
      <trkpt lat="47.20148" lon="5.96438">
        <ele>317</ele>
        <time>2019-09-12T07:28:21Z</time>
      </trkpt>
      <trkpt lat="47.20143" lon="5.96435">
        <ele>316.79998779297</ele>
        <time>2019-09-12T07:28:22Z</time>
      </trkpt>
      <trkpt lat="47.20135" lon="5.96425">
        <ele>316.39999389648</ele>
        <time>2019-09-12T07:28:24Z</time>
      </trkpt>
      <trkpt lat="47.20135" lon="5.96402">
        <ele>315.79998779297</ele>
        <time>2019-09-12T07:28:27Z</time>
      </trkpt>
      <trkpt lat="47.20136" lon="5.96393">
        <ele>315.60000610352</ele>
        <time>2019-09-12T07:28:28Z</time>
      </trkpt>
      <trkpt lat="47.20138" lon="5.96384">
        <ele>314.79998779297</ele>
        <time>2019-09-12T07:28:29Z</time>
      </trkpt>
      <trkpt lat="47.20142" lon="5.96365">
        <ele>313.79998779297</ele>
        <time>2019-09-12T07:28:31Z</time>
      </trkpt>
      <trkpt lat="47.20144" lon="5.96355">
        <ele>313.39999389648</ele>
        <time>2019-09-12T07:28:32Z</time>
      </trkpt>
      <trkpt lat="47.20153" lon="5.96317">
        <ele>312.20001220703</ele>
        <time>2019-09-12T07:28:36Z</time>
      </trkpt>
      <trkpt lat="47.20156" lon="5.96287">
        <ele>311.20001220703</ele>
        <time>2019-09-12T07:28:39Z</time>
      </trkpt>
      <trkpt lat="47.20159" lon="5.96269">
        <ele>311</ele>
        <time>2019-09-12T07:28:41Z</time>
      </trkpt>
      <trkpt lat="47.2016" lon="5.96253">
        <ele>310.60000610352</ele>
        <time>2019-09-12T07:28:43Z</time>
      </trkpt>
      <trkpt lat="47.20153" lon="5.96246">
        <ele>310.39999389648</ele>
        <time>2019-09-12T07:28:45Z</time>
      </trkpt>
      <trkpt lat="47.20144" lon="5.96252">
        <ele>310.20001220703</ele>
        <time>2019-09-12T07:28:48Z</time>
      </trkpt>
      <trkpt lat="47.20143" lon="5.96259">
        <ele>310</ele>
        <time>2019-09-12T07:28:51Z</time>
      </trkpt>
      <trkpt lat="47.20145" lon="5.9626">
        <ele>310</ele>
        <time>2019-09-12T07:28:52Z</time>
      </trkpt>
      <trkpt lat="47.20144" lon="5.96252">
        <ele>310</ele>
        <time>2019-09-12T07:28:55Z</time>
      </trkpt>
      <trkpt lat="47.20142" lon="5.96248">
        <ele>310</ele>
        <time>2019-09-12T07:28:57Z</time>
      </trkpt>
      <trkpt lat="47.20133" lon="5.9624">
        <ele>310</ele>
        <time>2019-09-12T07:28:59Z</time>
      </trkpt>
      <trkpt lat="47.20125" lon="5.96237">
        <ele>309.79998779297</ele>
        <time>2019-09-12T07:29:01Z</time>
      </trkpt>
      <trkpt lat="47.20112" lon="5.96236">
        <ele>309.79998779297</ele>
        <time>2019-09-12T07:29:04Z</time>
      </trkpt>
      <trkpt lat="47.20073" lon="5.96235">
        <ele>310.20001220703</ele>
        <time>2019-09-12T07:29:13Z</time>
      </trkpt>
      <trkpt lat="47.20052" lon="5.96235">
        <ele>310.60000610352</ele>
        <time>2019-09-12T07:29:19Z</time>
      </trkpt>
      <trkpt lat="47.20052" lon="5.96235">
        <ele>310.60000610352</ele>
        <time>2019-09-12T07:29:21Z</time>
      </trkpt>
      <trkpt lat="47.2005" lon="5.96234">
        <ele>310.79998779297</ele>
        <time>2019-09-12T07:29:30Z</time>
      </trkpt>
      <trkpt lat="47.20049" lon="5.96235">
        <ele>310.79998779297</ele>
        <time>2019-09-12T07:29:31Z</time>
      </trkpt>
      <trkpt lat="47.20033" lon="5.96235">
        <ele>310.79998779297</ele>
        <time>2019-09-12T07:29:36Z</time>
      </trkpt>
      <trkpt lat="47.20009" lon="5.96233">
        <ele>311</ele>
        <time>2019-09-12T07:29:42Z</time>
      </trkpt>
      <trkpt lat="47.2" lon="5.96232">
        <ele>311.20001220703</ele>
        <time>2019-09-12T07:29:44Z</time>
      </trkpt>
      <trkpt lat="47.19987" lon="5.96233">
        <ele>311.20001220703</ele>
        <time>2019-09-12T07:29:47Z</time>
      </trkpt>
      <trkpt lat="47.19957" lon="5.96233">
        <ele>311.20001220703</ele>
        <time>2019-09-12T07:29:53Z</time>
      </trkpt>
      <trkpt lat="47.19952" lon="5.96233">
        <ele>311.20001220703</ele>
        <time>2019-09-12T07:29:54Z</time>
      </trkpt>
      <trkpt lat="47.19945" lon="5.9623">
        <ele>311.20001220703</ele>
        <time>2019-09-12T07:29:57Z</time>
      </trkpt>
      <trkpt lat="47.1994" lon="5.96227">
        <ele>311.20001220703</ele>
        <time>2019-09-12T07:30:00Z</time>
      </trkpt>
      <trkpt lat="47.19939" lon="5.96228">
        <ele>311.20001220703</ele>
        <time>2019-09-12T07:30:11Z</time>
      </trkpt>
      <trkpt lat="47.19938" lon="5.96229">
        <ele>311.20001220703</ele>
        <time>2019-09-12T07:30:12Z</time>
      </trkpt>
      <trkpt lat="47.19935" lon="5.9623">
        <ele>311.20001220703</ele>
        <time>2019-09-12T07:30:14Z</time>
      </trkpt>
      <trkpt lat="47.19917" lon="5.96228">
        <ele>311.39999389648</ele>
        <time>2019-09-12T07:30:22Z</time>
      </trkpt>
      <trkpt lat="47.19912" lon="5.96213">
        <ele>311.39999389648</ele>
        <time>2019-09-12T07:30:25Z</time>
      </trkpt>
      <trkpt lat="47.19912" lon="5.96206">
        <ele>311.39999389648</ele>
        <time>2019-09-12T07:30:27Z</time>
      </trkpt>
      <trkpt lat="47.19911" lon="5.96189">
        <ele>311.39999389648</ele>
        <time>2019-09-12T07:30:28Z</time>
      </trkpt>
      <trkpt lat="47.1991" lon="5.9618">
        <ele>311.39999389648</ele>
        <time>2019-09-12T07:30:29Z</time>
      </trkpt>
      <trkpt lat="47.19903" lon="5.96135">
        <ele>310.79998779297</ele>
        <time>2019-09-12T07:30:34Z</time>
      </trkpt>
      <trkpt lat="47.19899" lon="5.96118">
        <ele>310.39999389648</ele>
        <time>2019-09-12T07:30:36Z</time>
      </trkpt>
      <trkpt lat="47.19897" lon="5.9611">
        <ele>310</ele>
        <time>2019-09-12T07:30:37Z</time>
      </trkpt>
      <trkpt lat="47.19884" lon="5.9608">
        <ele>309.20001220703</ele>
        <time>2019-09-12T07:30:41Z</time>
      </trkpt>
      <trkpt lat="47.19854" lon="5.96025">
        <ele>309</ele>
        <time>2019-09-12T07:30:49Z</time>
      </trkpt>
      <trkpt lat="47.19826" lon="5.95979">
        <ele>309</ele>
        <time>2019-09-12T07:30:57Z</time>
      </trkpt>
      <trkpt lat="47.19817" lon="5.95968">
        <ele>309</ele>
        <time>2019-09-12T07:30:58Z</time>
      </trkpt>
      <trkpt lat="47.19785" lon="5.95948">
        <ele>308.79998779297</ele>
        <time>2019-09-12T07:31:04Z</time>
      </trkpt>
      <trkpt lat="47.19751" lon="5.95943">
        <ele>308.60000610352</ele>
        <time>2019-09-12T07:31:10Z</time>
      </trkpt>
      <trkpt lat="47.19698" lon="5.95939">
        <ele>308.60000610352</ele>
        <time>2019-09-12T07:31:19Z</time>
      </trkpt>
      <trkpt lat="47.19639" lon="5.95936">
        <ele>308.39999389648</ele>
        <time>2019-09-12T07:31:29Z</time>
      </trkpt>
      <trkpt lat="47.19609" lon="5.95934">
        <ele>308.39999389648</ele>
        <time>2019-09-12T07:31:34Z</time>
      </trkpt>
      <trkpt lat="47.19597" lon="5.95933">
        <ele>308.39999389648</ele>
        <time>2019-09-12T07:31:36Z</time>
      </trkpt>
      <trkpt lat="47.19549" lon="5.95929">
        <ele>308.60000610352</ele>
        <time>2019-09-12T07:31:45Z</time>
      </trkpt>
      <trkpt lat="47.19491" lon="5.95927">
        <ele>308.79998779297</ele>
        <time>2019-09-12T07:31:54Z</time>
      </trkpt>
      <trkpt lat="47.19445" lon="5.95936">
        <ele>309</ele>
        <time>2019-09-12T07:32:02Z</time>
      </trkpt>
      <trkpt lat="47.19402" lon="5.95961">
        <ele>309</ele>
        <time>2019-09-12T07:32:10Z</time>
      </trkpt>
      <trkpt lat="47.19369" lon="5.95993">
        <ele>308.79998779297</ele>
        <time>2019-09-12T07:32:17Z</time>
      </trkpt>
      <trkpt lat="47.19342" lon="5.96035">
        <ele>308.79998779297</ele>
        <time>2019-09-12T07:32:24Z</time>
      </trkpt>
      <trkpt lat="47.19304" lon="5.96096">
        <ele>308.79998779297</ele>
        <time>2019-09-12T07:32:34Z</time>
      </trkpt>
      <trkpt lat="47.1927" lon="5.96151">
        <ele>309</ele>
        <time>2019-09-12T07:32:43Z</time>
      </trkpt>
      <trkpt lat="47.19236" lon="5.96207">
        <ele>308.79998779297</ele>
        <time>2019-09-12T07:32:52Z</time>
      </trkpt>
      <trkpt lat="47.19224" lon="5.96226">
        <ele>308.60000610352</ele>
        <time>2019-09-12T07:32:55Z</time>
      </trkpt>
      <trkpt lat="47.19196" lon="5.96268">
        <ele>308.60000610352</ele>
        <time>2019-09-12T07:33:02Z</time>
      </trkpt>
      <trkpt lat="47.19157" lon="5.96332">
        <ele>308.39999389648</ele>
        <time>2019-09-12T07:33:12Z</time>
      </trkpt>
      <trkpt lat="47.19122" lon="5.96376">
        <ele>308.79998779297</ele>
        <time>2019-09-12T07:33:21Z</time>
      </trkpt>
      <trkpt lat="47.19082" lon="5.96411">
        <ele>308.60000610352</ele>
        <time>2019-09-12T07:33:28Z</time>
      </trkpt>
      <trkpt lat="47.19077" lon="5.96414">
        <ele>308.60000610352</ele>
        <time>2019-09-12T07:33:29Z</time>
      </trkpt>
      <trkpt lat="47.19038" lon="5.96432">
        <ele>308.60000610352</ele>
        <time>2019-09-12T07:33:37Z</time>
      </trkpt>
      <trkpt lat="47.19032" lon="5.96433">
        <ele>308.60000610352</ele>
        <time>2019-09-12T07:33:38Z</time>
      </trkpt>
      <trkpt lat="47.18987" lon="5.9644">
        <ele>308.60000610352</ele>
        <time>2019-09-12T07:33:46Z</time>
      </trkpt>
      <trkpt lat="47.18937" lon="5.96436">
        <ele>308.60000610352</ele>
        <time>2019-09-12T07:33:55Z</time>
      </trkpt>
      <trkpt lat="47.18905" lon="5.96431">
        <ele>308.39999389648</ele>
        <time>2019-09-12T07:34:00Z</time>
      </trkpt>
      <trkpt lat="47.18889" lon="5.96427">
        <ele>308.20001220703</ele>
        <time>2019-09-12T07:34:03Z</time>
      </trkpt>
      <trkpt lat="47.18852" lon="5.96414">
        <ele>308.39999389648</ele>
        <time>2019-09-12T07:34:10Z</time>
      </trkpt>
      <trkpt lat="47.18815" lon="5.96395">
        <ele>308.60000610352</ele>
        <time>2019-09-12T07:34:17Z</time>
      </trkpt>
      <trkpt lat="47.18809" lon="5.96392">
        <ele>308.79998779297</ele>
        <time>2019-09-12T07:34:18Z</time>
      </trkpt>
      <trkpt lat="47.18777" lon="5.96373">
        <ele>308.79998779297</ele>
        <time>2019-09-12T07:34:24Z</time>
      </trkpt>
      <trkpt lat="47.18745" lon="5.96352">
        <ele>308.79998779297</ele>
        <time>2019-09-12T07:34:30Z</time>
      </trkpt>
      <trkpt lat="47.18725" lon="5.96338">
        <ele>308.79998779297</ele>
        <time>2019-09-12T07:34:34Z</time>
      </trkpt>
      <trkpt lat="47.18711" lon="5.96327">
        <ele>308.79998779297</ele>
        <time>2019-09-12T07:34:37Z</time>
      </trkpt>
      <trkpt lat="47.18678" lon="5.96295">
        <ele>308.60000610352</ele>
        <time>2019-09-12T07:34:44Z</time>
      </trkpt>
      <trkpt lat="47.18649" lon="5.96255">
        <ele>308.60000610352</ele>
        <time>2019-09-12T07:34:51Z</time>
      </trkpt>
      <trkpt lat="47.1863" lon="5.96214">
        <ele>308.60000610352</ele>
        <time>2019-09-12T07:34:57Z</time>
      </trkpt>
      <trkpt lat="47.18603" lon="5.96154">
        <ele>308.60000610352</ele>
        <time>2019-09-12T07:35:06Z</time>
      </trkpt>
      <trkpt lat="47.18576" lon="5.96101">
        <ele>308.60000610352</ele>
        <time>2019-09-12T07:35:15Z</time>
      </trkpt>
      <trkpt lat="47.18535" lon="5.96045">
        <ele>308.60000610352</ele>
        <time>2019-09-12T07:35:23Z</time>
      </trkpt>
      <trkpt lat="47.18507" lon="5.96003">
        <ele>308.60000610352</ele>
        <time>2019-09-12T07:35:30Z</time>
      </trkpt>
      <trkpt lat="47.18488" lon="5.95964">
        <ele>308.60000610352</ele>
        <time>2019-09-12T07:35:36Z</time>
      </trkpt>
      <trkpt lat="47.18482" lon="5.95951">
        <ele>308.60000610352</ele>
        <time>2019-09-12T07:35:38Z</time>
      </trkpt>
      <trkpt lat="47.18463" lon="5.9591">
        <ele>308.60000610352</ele>
        <time>2019-09-12T07:35:45Z</time>
      </trkpt>
      <trkpt lat="47.1843" lon="5.95862">
        <ele>308.60000610352</ele>
        <time>2019-09-12T07:35:52Z</time>
      </trkpt>
      <trkpt lat="47.18412" lon="5.95838">
        <ele>308.60000610352</ele>
        <time>2019-09-12T07:35:56Z</time>
      </trkpt>
      <trkpt lat="47.184" lon="5.95819">
        <ele>308.39999389648</ele>
        <time>2019-09-12T07:35:59Z</time>
      </trkpt>
      <trkpt lat="47.18367" lon="5.95773">
        <ele>308.39999389648</ele>
        <time>2019-09-12T07:36:07Z</time>
      </trkpt>
      <trkpt lat="47.18341" lon="5.95731">
        <ele>308.20001220703</ele>
        <time>2019-09-12T07:36:14Z</time>
      </trkpt>
      <trkpt lat="47.18313" lon="5.95683">
        <ele>308.20001220703</ele>
        <time>2019-09-12T07:36:22Z</time>
      </trkpt>
      <trkpt lat="47.18285" lon="5.95637">
        <ele>308</ele>
        <time>2019-09-12T07:36:29Z</time>
      </trkpt>
      <trkpt lat="47.18264" lon="5.95587">
        <ele>308</ele>
        <time>2019-09-12T07:36:36Z</time>
      </trkpt>
      <trkpt lat="47.18247" lon="5.9553">
        <ele>308</ele>
        <time>2019-09-12T07:36:44Z</time>
      </trkpt>
      <trkpt lat="47.18233" lon="5.95474">
        <ele>308</ele>
        <time>2019-09-12T07:36:52Z</time>
      </trkpt>
      <trkpt lat="47.18217" lon="5.95411">
        <ele>308</ele>
        <time>2019-09-12T07:37:01Z</time>
      </trkpt>
      <trkpt lat="47.18208" lon="5.95375">
        <ele>308</ele>
        <time>2019-09-12T07:37:06Z</time>
      </trkpt>
      <trkpt lat="47.18205" lon="5.95361">
        <ele>308</ele>
        <time>2019-09-12T07:37:08Z</time>
      </trkpt>
      <trkpt lat="47.18189" lon="5.95297">
        <ele>308</ele>
        <time>2019-09-12T07:37:17Z</time>
      </trkpt>
      <trkpt lat="47.18183" lon="5.95276">
        <ele>308</ele>
        <time>2019-09-12T07:37:20Z</time>
      </trkpt>
      <trkpt lat="47.18181" lon="5.95262">
        <ele>308</ele>
        <time>2019-09-12T07:37:22Z</time>
      </trkpt>
      <trkpt lat="47.18167" lon="5.95206">
        <ele>307.79998779297</ele>
        <time>2019-09-12T07:37:30Z</time>
      </trkpt>
      <trkpt lat="47.18147" lon="5.95127">
        <ele>307.79998779297</ele>
        <time>2019-09-12T07:37:41Z</time>
      </trkpt>
      <trkpt lat="47.18131" lon="5.95064">
        <ele>307.79998779297</ele>
        <time>2019-09-12T07:37:50Z</time>
      </trkpt>
      <trkpt lat="47.18115" lon="5.95001">
        <ele>307.79998779297</ele>
        <time>2019-09-12T07:37:59Z</time>
      </trkpt>
      <trkpt lat="47.181" lon="5.94938">
        <ele>307.60000610352</ele>
        <time>2019-09-12T07:38:08Z</time>
      </trkpt>
      <trkpt lat="47.18091" lon="5.94898">
        <ele>307.79998779297</ele>
        <time>2019-09-12T07:38:14Z</time>
      </trkpt>
      <trkpt lat="47.18077" lon="5.94845">
        <ele>307.79998779297</ele>
        <time>2019-09-12T07:38:22Z</time>
      </trkpt>
      <trkpt lat="47.18068" lon="5.94806">
        <ele>307.79998779297</ele>
        <time>2019-09-12T07:38:28Z</time>
      </trkpt>
      <trkpt lat="47.18052" lon="5.94752">
        <ele>307.60000610352</ele>
        <time>2019-09-12T07:38:35Z</time>
      </trkpt>
      <trkpt lat="47.18035" lon="5.94696">
        <ele>306.79998779297</ele>
        <time>2019-09-12T07:38:42Z</time>
      </trkpt>
      <trkpt lat="47.1803" lon="5.94684">
        <ele>306</ele>
        <time>2019-09-12T07:38:44Z</time>
      </trkpt>
      <trkpt lat="47.18023" lon="5.94671">
        <ele>305.60000610352</ele>
        <time>2019-09-12T07:38:47Z</time>
      </trkpt>
      <trkpt lat="47.18013" lon="5.94654">
        <ele>305</ele>
        <time>2019-09-12T07:38:54Z</time>
      </trkpt>
      <trkpt lat="47.18013" lon="5.94654">
        <ele>305</ele>
        <time>2019-09-12T07:38:55Z</time>
      </trkpt>
      <trkpt lat="47.18009" lon="5.94652">
        <ele>305.20001220703</ele>
        <time>2019-09-12T07:39:19Z</time>
      </trkpt>
      <trkpt lat="47.18005" lon="5.94646">
        <ele>305.20001220703</ele>
        <time>2019-09-12T07:39:21Z</time>
      </trkpt>
      <trkpt lat="47.17985" lon="5.94621">
        <ele>305.20001220703</ele>
        <time>2019-09-12T07:39:27Z</time>
      </trkpt>
      <trkpt lat="47.17952" lon="5.94584">
        <ele>305.39999389648</ele>
        <time>2019-09-12T07:39:36Z</time>
      </trkpt>
      <trkpt lat="47.17926" lon="5.94547">
        <ele>305.79998779297</ele>
        <time>2019-09-12T07:39:44Z</time>
      </trkpt>
      <trkpt lat="47.17918" lon="5.94539">
        <ele>306</ele>
        <time>2019-09-12T07:39:49Z</time>
      </trkpt>
      <trkpt lat="47.17915" lon="5.94541">
        <ele>306</ele>
        <time>2019-09-12T07:39:54Z</time>
      </trkpt>
      <trkpt lat="47.17915" lon="5.94542">
        <ele>306</ele>
        <time>2019-09-12T07:40:44Z</time>
      </trkpt>
      <trkpt lat="47.17914" lon="5.94539">
        <ele>306</ele>
        <time>2019-09-12T07:40:47Z</time>
      </trkpt>
      <trkpt lat="47.17914" lon="5.94537">
        <ele>306</ele>
        <time>2019-09-12T07:40:48Z</time>
      </trkpt>
      <trkpt lat="47.17914" lon="5.94537">
        <ele>306</ele>
        <time>2019-09-12T07:40:50Z</time>
      </trkpt>
      <trkpt lat="47.17914" lon="5.94533">
        <ele>306</ele>
        <time>2019-09-12T07:40:52Z</time>
      </trkpt>
      <trkpt lat="47.17913" lon="5.9453">
        <ele>306</ele>
        <time>2019-09-12T07:40:53Z</time>
      </trkpt>
      <trkpt lat="47.17904" lon="5.94516">
        <ele>305.79998779297</ele>
        <time>2019-09-12T07:40:57Z</time>
      </trkpt>
      <trkpt lat="47.17901" lon="5.94511">
        <ele>305.79998779297</ele>
        <time>2019-09-12T07:40:58Z</time>
      </trkpt>
      <trkpt lat="47.17889" lon="5.9449">
        <ele>305.79998779297</ele>
        <time>2019-09-12T07:41:02Z</time>
      </trkpt>
      <trkpt lat="47.1786" lon="5.94453">
        <ele>305.79998779297</ele>
        <time>2019-09-12T07:41:10Z</time>
      </trkpt>
      <trkpt lat="47.17856" lon="5.94448">
        <ele>305.79998779297</ele>
        <time>2019-09-12T07:41:11Z</time>
      </trkpt>
      <trkpt lat="47.17823" lon="5.94419">
        <ele>305.39999389648</ele>
        <time>2019-09-12T07:41:18Z</time>
      </trkpt>
      <trkpt lat="47.17784" lon="5.94382">
        <ele>304.60000610352</ele>
        <time>2019-09-12T07:41:26Z</time>
      </trkpt>
      <trkpt lat="47.17774" lon="5.94374">
        <ele>304.60000610352</ele>
        <time>2019-09-12T07:41:28Z</time>
      </trkpt>
      <trkpt lat="47.17755" lon="5.94359">
        <ele>304.39999389648</ele>
        <time>2019-09-12T07:41:33Z</time>
      </trkpt>
      <trkpt lat="47.17709" lon="5.94331">
        <ele>304.39999389648</ele>
        <time>2019-09-12T07:41:41Z</time>
      </trkpt>
      <trkpt lat="47.17665" lon="5.94301">
        <ele>304.39999389648</ele>
        <time>2019-09-12T07:41:50Z</time>
      </trkpt>
      <trkpt lat="47.17617" lon="5.94267">
        <ele>304.60000610352</ele>
        <time>2019-09-12T07:42:00Z</time>
      </trkpt>
      <trkpt lat="47.17581" lon="5.94236">
        <ele>304.60000610352</ele>
        <time>2019-09-12T07:42:09Z</time>
      </trkpt>
      <trkpt lat="47.17544" lon="5.94201">
        <ele>304.60000610352</ele>
        <time>2019-09-12T07:42:17Z</time>
      </trkpt>
      <trkpt lat="47.17525" lon="5.94177">
        <ele>304.60000610352</ele>
        <time>2019-09-12T07:42:22Z</time>
      </trkpt>
      <trkpt lat="47.17518" lon="5.94166">
        <ele>304.60000610352</ele>
        <time>2019-09-12T07:42:24Z</time>
      </trkpt>
      <trkpt lat="47.17493" lon="5.94119">
        <ele>304.60000610352</ele>
        <time>2019-09-12T07:42:32Z</time>
      </trkpt>
      <trkpt lat="47.17479" lon="5.94081">
        <ele>304.60000610352</ele>
        <time>2019-09-12T07:42:38Z</time>
      </trkpt>
      <trkpt lat="47.17464" lon="5.94042">
        <ele>304.60000610352</ele>
        <time>2019-09-12T07:42:45Z</time>
      </trkpt>
      <trkpt lat="47.17445" lon="5.93988">
        <ele>304.60000610352</ele>
        <time>2019-09-12T07:42:52Z</time>
      </trkpt>
      <trkpt lat="47.17433" lon="5.93941">
        <ele>304.39999389648</ele>
        <time>2019-09-12T07:42:59Z</time>
      </trkpt>
      <trkpt lat="47.17417" lon="5.93882">
        <ele>304.39999389648</ele>
        <time>2019-09-12T07:43:07Z</time>
      </trkpt>
      <trkpt lat="47.17405" lon="5.93829">
        <ele>304.20001220703</ele>
        <time>2019-09-12T07:43:14Z</time>
      </trkpt>
      <trkpt lat="47.1739" lon="5.93763">
        <ele>304</ele>
        <time>2019-09-12T07:43:23Z</time>
      </trkpt>
      <trkpt lat="47.17386" lon="5.93741">
        <ele>303.79998779297</ele>
        <time>2019-09-12T07:43:26Z</time>
      </trkpt>
      <trkpt lat="47.17377" lon="5.93705">
        <ele>303.60000610352</ele>
        <time>2019-09-12T07:43:31Z</time>
      </trkpt>
      <trkpt lat="47.17362" lon="5.93656">
        <ele>303.60000610352</ele>
        <time>2019-09-12T07:43:38Z</time>
      </trkpt>
      <trkpt lat="47.17357" lon="5.93642">
        <ele>303.60000610352</ele>
        <time>2019-09-12T07:43:40Z</time>
      </trkpt>
      <trkpt lat="47.17333" lon="5.93581">
        <ele>303.60000610352</ele>
        <time>2019-09-12T07:43:49Z</time>
      </trkpt>
      <trkpt lat="47.1731" lon="5.93521">
        <ele>303.39999389648</ele>
        <time>2019-09-12T07:43:58Z</time>
      </trkpt>
      <trkpt lat="47.17296" lon="5.93483">
        <ele>303.39999389648</ele>
        <time>2019-09-12T07:44:04Z</time>
      </trkpt>
      <trkpt lat="47.1728" lon="5.93437">
        <ele>303.39999389648</ele>
        <time>2019-09-12T07:44:12Z</time>
      </trkpt>
      <trkpt lat="47.17269" lon="5.93406">
        <ele>303.79998779297</ele>
        <time>2019-09-12T07:44:19Z</time>
      </trkpt>
      <trkpt lat="47.17253" lon="5.93369">
        <ele>304.20001220703</ele>
        <time>2019-09-12T07:44:26Z</time>
      </trkpt>
      <trkpt lat="47.17237" lon="5.93319">
        <ele>304.20001220703</ele>
        <time>2019-09-12T07:44:34Z</time>
      </trkpt>
      <trkpt lat="47.17219" lon="5.93263">
        <ele>304.20001220703</ele>
        <time>2019-09-12T07:44:42Z</time>
      </trkpt>
      <trkpt lat="47.17203" lon="5.93209">
        <ele>304.39999389648</ele>
        <time>2019-09-12T07:44:50Z</time>
      </trkpt>
      <trkpt lat="47.17193" lon="5.93174">
        <ele>304.39999389648</ele>
        <time>2019-09-12T07:44:57Z</time>
      </trkpt>
      <trkpt lat="47.17186" lon="5.93148">
        <ele>304.39999389648</ele>
        <time>2019-09-12T07:45:03Z</time>
      </trkpt>
      <trkpt lat="47.17185" lon="5.93147">
        <ele>304.39999389648</ele>
        <time>2019-09-12T07:45:05Z</time>
      </trkpt>
      <trkpt lat="47.17183" lon="5.93138">
        <ele>304.60000610352</ele>
        <time>2019-09-12T07:45:59Z</time>
      </trkpt>
      <trkpt lat="47.17173" lon="5.93105">
        <ele>304.79998779297</ele>
        <time>2019-09-12T07:46:05Z</time>
      </trkpt>
      <trkpt lat="47.1716" lon="5.93045">
        <ele>304.79998779297</ele>
        <time>2019-09-12T07:46:14Z</time>
      </trkpt>
      <trkpt lat="47.17147" lon="5.92981">
        <ele>305</ele>
        <time>2019-09-12T07:46:23Z</time>
      </trkpt>
      <trkpt lat="47.17136" lon="5.92916">
        <ele>305</ele>
        <time>2019-09-12T07:46:32Z</time>
      </trkpt>
      <trkpt lat="47.17128" lon="5.92859">
        <ele>304.79998779297</ele>
        <time>2019-09-12T07:46:41Z</time>
      </trkpt>
      <trkpt lat="47.17128" lon="5.92853">
        <ele>304.60000610352</ele>
        <time>2019-09-12T07:46:44Z</time>
      </trkpt>
      <trkpt lat="47.17128" lon="5.92853">
        <ele>304.60000610352</ele>
        <time>2019-09-12T07:46:45Z</time>
      </trkpt>
      <trkpt lat="47.17127" lon="5.92847">
        <ele>304.39999389648</ele>
        <time>2019-09-12T07:47:05Z</time>
      </trkpt>
      <trkpt lat="47.17126" lon="5.92839">
        <ele>304.39999389648</ele>
        <time>2019-09-12T07:47:07Z</time>
      </trkpt>
      <trkpt lat="47.17123" lon="5.92818">
        <ele>304.20001220703</ele>
        <time>2019-09-12T07:47:11Z</time>
      </trkpt>
      <trkpt lat="47.1712" lon="5.928">
        <ele>304.20001220703</ele>
        <time>2019-09-12T07:47:14Z</time>
      </trkpt>
      <trkpt lat="47.17112" lon="5.92732">
        <ele>304.39999389648</ele>
        <time>2019-09-12T07:47:24Z</time>
      </trkpt>
      <trkpt lat="47.17106" lon="5.9268">
        <ele>304.20001220703</ele>
        <time>2019-09-12T07:47:33Z</time>
      </trkpt>
      <trkpt lat="47.17104" lon="5.92657">
        <ele>304.20001220703</ele>
        <time>2019-09-12T07:47:37Z</time>
      </trkpt>
      <trkpt lat="47.17104" lon="5.92657">
        <ele>304</ele>
        <time>2019-09-12T07:47:38Z</time>
      </trkpt>
      <trkpt lat="47.17103" lon="5.92652">
        <ele>303.39999389648</ele>
        <time>2019-09-12T07:47:53Z</time>
      </trkpt>
      <trkpt lat="47.17102" lon="5.92644">
        <ele>303.39999389648</ele>
        <time>2019-09-12T07:47:55Z</time>
      </trkpt>
      <trkpt lat="47.17099" lon="5.92608">
        <ele>303.39999389648</ele>
        <time>2019-09-12T07:48:01Z</time>
      </trkpt>
      <trkpt lat="47.17093" lon="5.92554">
        <ele>303.20001220703</ele>
        <time>2019-09-12T07:48:09Z</time>
      </trkpt>
      <trkpt lat="47.17092" lon="5.92538">
        <ele>303</ele>
        <time>2019-09-12T07:48:10Z</time>
      </trkpt>
      <trkpt lat="47.17089" lon="5.92491">
        <ele>303</ele>
        <time>2019-09-12T07:48:16Z</time>
      </trkpt>
      <trkpt lat="47.17083" lon="5.92414">
        <ele>303.20001220703</ele>
        <time>2019-09-12T07:48:26Z</time>
      </trkpt>
      <trkpt lat="47.17078" lon="5.92336">
        <ele>303.60000610352</ele>
        <time>2019-09-12T07:48:36Z</time>
      </trkpt>
      <trkpt lat="47.17077" lon="5.92328">
        <ele>303.60000610352</ele>
        <time>2019-09-12T07:48:37Z</time>
      </trkpt>
      <trkpt lat="47.17074" lon="5.92275">
        <ele>303.60000610352</ele>
        <time>2019-09-12T07:48:45Z</time>
      </trkpt>
      <trkpt lat="47.17072" lon="5.9219">
        <ele>304</ele>
        <time>2019-09-12T07:48:55Z</time>
      </trkpt>
      <trkpt lat="47.17072" lon="5.92182">
        <ele>304</ele>
        <time>2019-09-12T07:48:56Z</time>
      </trkpt>
      <trkpt lat="47.17066" lon="5.92098">
        <ele>303.79998779297</ele>
        <time>2019-09-12T07:49:07Z</time>
      </trkpt>
      <trkpt lat="47.17066" lon="5.9209">
        <ele>303.79998779297</ele>
        <time>2019-09-12T07:49:08Z</time>
      </trkpt>
      <trkpt lat="47.17062" lon="5.92004">
        <ele>303.79998779297</ele>
        <time>2019-09-12T07:49:19Z</time>
      </trkpt>
      <trkpt lat="47.17062" lon="5.91996">
        <ele>303.79998779297</ele>
        <time>2019-09-12T07:49:21Z</time>
      </trkpt>
      <trkpt lat="47.17065" lon="5.91934">
        <ele>303.79998779297</ele>
        <time>2019-09-12T07:49:28Z</time>
      </trkpt>
      <trkpt lat="47.17066" lon="5.91859">
        <ele>303.79998779297</ele>
        <time>2019-09-12T07:49:38Z</time>
      </trkpt>
      <trkpt lat="47.17065" lon="5.91774">
        <ele>303.60000610352</ele>
        <time>2019-09-12T07:49:49Z</time>
      </trkpt>
      <trkpt lat="47.17064" lon="5.91767">
        <ele>303.60000610352</ele>
        <time>2019-09-12T07:49:50Z</time>
      </trkpt>
      <trkpt lat="47.17061" lon="5.91752">
        <ele>303.79998779297</ele>
        <time>2019-09-12T07:49:52Z</time>
      </trkpt>
      <trkpt lat="47.17055" lon="5.91724">
        <ele>303.79998779297</ele>
        <time>2019-09-12T07:49:57Z</time>
      </trkpt>
      <trkpt lat="47.17039" lon="5.9166">
        <ele>303.60000610352</ele>
        <time>2019-09-12T07:50:05Z</time>
      </trkpt>
      <trkpt lat="47.17024" lon="5.91597">
        <ele>303.60000610352</ele>
        <time>2019-09-12T07:50:14Z</time>
      </trkpt>
      <trkpt lat="47.1702" lon="5.91584">
        <ele>303.60000610352</ele>
        <time>2019-09-12T07:50:16Z</time>
      </trkpt>
      <trkpt lat="47.17011" lon="5.91545">
        <ele>303.60000610352</ele>
        <time>2019-09-12T07:50:22Z</time>
      </trkpt>
      <trkpt lat="47.16999" lon="5.91509">
        <ele>303.60000610352</ele>
        <time>2019-09-12T07:50:28Z</time>
      </trkpt>
      <trkpt lat="47.16997" lon="5.91504">
        <ele>303.60000610352</ele>
        <time>2019-09-12T07:50:29Z</time>
      </trkpt>
      <trkpt lat="47.16995" lon="5.91487">
        <ele>304</ele>
        <time>2019-09-12T07:50:32Z</time>
      </trkpt>
      <trkpt lat="47.16995" lon="5.91487">
        <ele>304</ele>
        <time>2019-09-12T07:50:33Z</time>
      </trkpt>
      <trkpt lat="47.17001" lon="5.9148">
        <ele>304.20001220703</ele>
        <time>2019-09-12T07:50:34Z</time>
      </trkpt>
      <trkpt lat="47.17007" lon="5.91476">
        <ele>304.39999389648</ele>
        <time>2019-09-12T07:50:36Z</time>
      </trkpt>
      <trkpt lat="47.17021" lon="5.91465">
        <ele>304.79998779297</ele>
        <time>2019-09-12T07:50:40Z</time>
      </trkpt>
      <trkpt lat="47.17022" lon="5.91459">
        <ele>304.79998779297</ele>
        <time>2019-09-12T07:50:41Z</time>
      </trkpt>
      <trkpt lat="47.17023" lon="5.91453">
        <ele>305</ele>
        <time>2019-09-12T07:50:42Z</time>
      </trkpt>
      <trkpt lat="47.1702" lon="5.9144">
        <ele>305</ele>
        <time>2019-09-12T07:50:44Z</time>
      </trkpt>
      <trkpt lat="47.1702" lon="5.9144">
        <ele>305</ele>
        <time>2019-09-12T07:50:45Z</time>
      </trkpt>
      <trkpt lat="47.17014" lon="5.91427">
        <ele>305</ele>
        <time>2019-09-12T07:50:46Z</time>
      </trkpt>
      <trkpt lat="47.17001" lon="5.91402">
        <ele>304.79998779297</ele>
        <time>2019-09-12T07:50:51Z</time>
      </trkpt>
      <trkpt lat="47.16997" lon="5.91388">
        <ele>304.60000610352</ele>
        <time>2019-09-12T07:50:52Z</time>
      </trkpt>
      <trkpt lat="47.16991" lon="5.9136">
        <ele>304.20001220703</ele>
        <time>2019-09-12T07:50:56Z</time>
      </trkpt>
      <trkpt lat="47.16989" lon="5.91345">
        <ele>304</ele>
        <time>2019-09-12T07:50:58Z</time>
      </trkpt>
      <trkpt lat="47.16989" lon="5.91337">
        <ele>303.79998779297</ele>
        <time>2019-09-12T07:50:59Z</time>
      </trkpt>
      <trkpt lat="47.16988" lon="5.91315">
        <ele>303.79998779297</ele>
        <time>2019-09-12T07:51:02Z</time>
      </trkpt>
      <trkpt lat="47.16995" lon="5.91259">
        <ele>303.60000610352</ele>
        <time>2019-09-12T07:51:10Z</time>
      </trkpt>
      <trkpt lat="47.1701" lon="5.91188">
        <ele>304</ele>
        <time>2019-09-12T07:51:21Z</time>
      </trkpt>
      <trkpt lat="47.17031" lon="5.91109">
        <ele>304</ele>
        <time>2019-09-12T07:51:31Z</time>
      </trkpt>
      <trkpt lat="47.17052" lon="5.91034">
        <ele>304</ele>
        <time>2019-09-12T07:51:42Z</time>
      </trkpt>
      <trkpt lat="47.17054" lon="5.91027">
        <ele>304</ele>
        <time>2019-09-12T07:51:43Z</time>
      </trkpt>
      <trkpt lat="47.17075" lon="5.9096">
        <ele>304</ele>
        <time>2019-09-12T07:51:53Z</time>
      </trkpt>
      <trkpt lat="47.17101" lon="5.90889">
        <ele>304</ele>
        <time>2019-09-12T07:52:04Z</time>
      </trkpt>
      <trkpt lat="47.1711" lon="5.90866">
        <ele>303.79998779297</ele>
        <time>2019-09-12T07:52:09Z</time>
      </trkpt>
      <trkpt lat="47.17127" lon="5.90845">
        <ele>303.79998779297</ele>
        <time>2019-09-12T07:52:14Z</time>
      </trkpt>
      <trkpt lat="47.17132" lon="5.90835">
        <ele>303.79998779297</ele>
        <time>2019-09-12T07:52:18Z</time>
      </trkpt>
      <trkpt lat="47.17132" lon="5.90835">
        <ele>303.79998779297</ele>
        <time>2019-09-12T07:52:19Z</time>
      </trkpt>
      <trkpt lat="47.17128" lon="5.90834">
        <ele>303.60000610352</ele>
        <time>2019-09-12T07:53:56Z</time>
      </trkpt>
      <trkpt lat="47.17131" lon="5.90832">
        <ele>303.60000610352</ele>
        <time>2019-09-12T07:53:58Z</time>
      </trkpt>
      <trkpt lat="47.17133" lon="5.90829">
        <ele>303.60000610352</ele>
        <time>2019-09-12T07:53:59Z</time>
      </trkpt>
      <trkpt lat="47.17145" lon="5.90811">
        <ele>303.79998779297</ele>
        <time>2019-09-12T07:54:06Z</time>
      </trkpt>
      <trkpt lat="47.17152" lon="5.90784">
        <ele>303.79998779297</ele>
        <time>2019-09-12T07:54:14Z</time>
      </trkpt>
      <trkpt lat="47.17156" lon="5.9076">
        <ele>303.79998779297</ele>
        <time>2019-09-12T07:54:20Z</time>
      </trkpt>
      <trkpt lat="47.17165" lon="5.90735">
        <ele>304.20001220703</ele>
        <time>2019-09-12T07:54:26Z</time>
      </trkpt>
      <trkpt lat="47.17173" lon="5.90711">
        <ele>304.39999389648</ele>
        <time>2019-09-12T07:54:31Z</time>
      </trkpt>
      <trkpt lat="47.17175" lon="5.90706">
        <ele>304.39999389648</ele>
        <time>2019-09-12T07:54:33Z</time>
      </trkpt>
      <trkpt lat="47.17189" lon="5.90678">
        <ele>305.20001220703</ele>
        <time>2019-09-12T07:54:40Z</time>
      </trkpt>
      <trkpt lat="47.17193" lon="5.90672">
        <ele>305.39999389648</ele>
        <time>2019-09-12T07:54:42Z</time>
      </trkpt>
      <trkpt lat="47.172" lon="5.9066">
        <ele>306.20001220703</ele>
        <time>2019-09-12T07:54:46Z</time>
      </trkpt>
      <trkpt lat="47.17205" lon="5.90655">
        <ele>306.39999389648</ele>
        <time>2019-09-12T07:54:48Z</time>
      </trkpt>
      <trkpt lat="47.17215" lon="5.90641">
        <ele>307.20001220703</ele>
        <time>2019-09-12T07:54:54Z</time>
      </trkpt>
      <trkpt lat="47.17216" lon="5.90639">
        <ele>307.39999389648</ele>
        <time>2019-09-12T07:54:55Z</time>
      </trkpt>
      <trkpt lat="47.17224" lon="5.90627">
        <ele>308.20001220703</ele>
        <time>2019-09-12T07:55:00Z</time>
      </trkpt>
      <trkpt lat="47.17226" lon="5.90624">
        <ele>308.60000610352</ele>
        <time>2019-09-12T07:55:01Z</time>
      </trkpt>
      <trkpt lat="47.17236" lon="5.90608">
        <ele>309.79998779297</ele>
        <time>2019-09-12T07:55:07Z</time>
      </trkpt>
      <trkpt lat="47.17237" lon="5.90605">
        <ele>310</ele>
        <time>2019-09-12T07:55:08Z</time>
      </trkpt>
      <trkpt lat="47.17246" lon="5.90593">
        <ele>310.79998779297</ele>
        <time>2019-09-12T07:55:14Z</time>
      </trkpt>
      <trkpt lat="47.17251" lon="5.90589">
        <ele>311.20001220703</ele>
        <time>2019-09-12T07:55:17Z</time>
      </trkpt>
      <trkpt lat="47.17254" lon="5.90584">
        <ele>311.79998779297</ele>
        <time>2019-09-12T07:55:20Z</time>
      </trkpt>
      <trkpt lat="47.17258" lon="5.90576">
        <ele>312.39999389648</ele>
        <time>2019-09-12T07:55:24Z</time>
      </trkpt>
      <trkpt lat="47.17259" lon="5.90571">
        <ele>312.79998779297</ele>
        <time>2019-09-12T07:55:26Z</time>
      </trkpt>
      <trkpt lat="47.17258" lon="5.90562">
        <ele>313.20001220703</ele>
        <time>2019-09-12T07:55:29Z</time>
      </trkpt>
      <trkpt lat="47.17255" lon="5.90555">
        <ele>313.79998779297</ele>
        <time>2019-09-12T07:55:32Z</time>
      </trkpt>
      <trkpt lat="47.17249" lon="5.90542">
        <ele>314.60000610352</ele>
        <time>2019-09-12T07:55:37Z</time>
      </trkpt>
      <trkpt lat="47.17248" lon="5.90539">
        <ele>315</ele>
        <time>2019-09-12T07:55:39Z</time>
      </trkpt>
      <trkpt lat="47.17243" lon="5.90524">
        <ele>315.60000610352</ele>
        <time>2019-09-12T07:55:44Z</time>
      </trkpt>
      <trkpt lat="47.17239" lon="5.90516">
        <ele>316</ele>
        <time>2019-09-12T07:55:47Z</time>
      </trkpt>
      <trkpt lat="47.17237" lon="5.90497">
        <ele>316.60000610352</ele>
        <time>2019-09-12T07:55:53Z</time>
      </trkpt>
      <trkpt lat="47.17236" lon="5.90495">
        <ele>316.79998779297</ele>
        <time>2019-09-12T07:55:54Z</time>
      </trkpt>
      <trkpt lat="47.1723" lon="5.90488">
        <ele>317.60000610352</ele>
        <time>2019-09-12T07:55:59Z</time>
      </trkpt>
      <trkpt lat="47.17221" lon="5.90485">
        <ele>317.79998779297</ele>
        <time>2019-09-12T07:56:01Z</time>
      </trkpt>
      <trkpt lat="47.17209" lon="5.90485">
        <ele>318</ele>
        <time>2019-09-12T07:56:04Z</time>
      </trkpt>
      <trkpt lat="47.172" lon="5.90486">
        <ele>318</ele>
        <time>2019-09-12T07:56:06Z</time>
      </trkpt>
      <trkpt lat="47.17192" lon="5.90488">
        <ele>318</ele>
        <time>2019-09-12T07:56:09Z</time>
      </trkpt>
      <trkpt lat="47.1717" lon="5.90495">
        <ele>317.39999389648</ele>
        <time>2019-09-12T07:56:13Z</time>
      </trkpt>
      <trkpt lat="47.17144" lon="5.90509">
        <ele>316.79998779297</ele>
        <time>2019-09-12T07:56:16Z</time>
      </trkpt>
      <trkpt lat="47.17131" lon="5.90519">
        <ele>316.20001220703</ele>
        <time>2019-09-12T07:56:18Z</time>
      </trkpt>
      <trkpt lat="47.17124" lon="5.90524">
        <ele>315.60000610352</ele>
        <time>2019-09-12T07:56:19Z</time>
      </trkpt>
      <trkpt lat="47.17117" lon="5.90529">
        <ele>314.60000610352</ele>
        <time>2019-09-12T07:56:21Z</time>
      </trkpt>
      <trkpt lat="47.17088" lon="5.90551">
        <ele>313.39999389648</ele>
        <time>2019-09-12T07:56:24Z</time>
      </trkpt>
      <trkpt lat="47.17072" lon="5.90561">
        <ele>312.79998779297</ele>
        <time>2019-09-12T07:56:26Z</time>
      </trkpt>
      <trkpt lat="47.17056" lon="5.90571">
        <ele>312.20001220703</ele>
        <time>2019-09-12T07:56:28Z</time>
      </trkpt>
      <trkpt lat="47.17039" lon="5.90581">
        <ele>311</ele>
        <time>2019-09-12T07:56:31Z</time>
      </trkpt>
      <trkpt lat="47.17023" lon="5.9059">
        <ele>310.39999389648</ele>
        <time>2019-09-12T07:56:32Z</time>
      </trkpt>
      <trkpt lat="47.17023" lon="5.9059">
        <ele>309.79998779297</ele>
        <time>2019-09-12T07:56:33Z</time>
      </trkpt>
      <trkpt lat="47.17005" lon="5.90592">
        <ele>309.60000610352</ele>
        <time>2019-09-12T07:56:34Z</time>
      </trkpt>
      <trkpt lat="47.16995" lon="5.90592">
        <ele>309</ele>
        <time>2019-09-12T07:56:35Z</time>
      </trkpt>
      <trkpt lat="47.16978" lon="5.90585">
        <ele>307.79998779297</ele>
        <time>2019-09-12T07:56:37Z</time>
      </trkpt>
      <trkpt lat="47.16971" lon="5.90578">
        <ele>307.20001220703</ele>
        <time>2019-09-12T07:56:38Z</time>
      </trkpt>
      <trkpt lat="47.16971" lon="5.90578">
        <ele>306.60000610352</ele>
        <time>2019-09-12T07:56:39Z</time>
      </trkpt>
      <trkpt lat="47.16954" lon="5.90552">
        <ele>305.60000610352</ele>
        <time>2019-09-12T07:56:41Z</time>
      </trkpt>
      <trkpt lat="47.16943" lon="5.90538">
        <ele>304.79998779297</ele>
        <time>2019-09-12T07:56:43Z</time>
      </trkpt>
      <trkpt lat="47.16938" lon="5.90531">
        <ele>304.20001220703</ele>
        <time>2019-09-12T07:56:44Z</time>
      </trkpt>
      <trkpt lat="47.16928" lon="5.90517">
        <ele>303.20001220703</ele>
        <time>2019-09-12T07:56:46Z</time>
      </trkpt>
      <trkpt lat="47.16915" lon="5.90499">
        <ele>302.20001220703</ele>
        <time>2019-09-12T07:56:49Z</time>
      </trkpt>
      <trkpt lat="47.16911" lon="5.90493">
        <ele>302.20001220703</ele>
        <time>2019-09-12T07:56:50Z</time>
      </trkpt>
      <trkpt lat="47.1688" lon="5.90451">
        <ele>301.79998779297</ele>
        <time>2019-09-12T07:56:58Z</time>
      </trkpt>
      <trkpt lat="47.16846" lon="5.90404">
        <ele>301.60000610352</ele>
        <time>2019-09-12T07:57:07Z</time>
      </trkpt>
      <trkpt lat="47.16813" lon="5.90359">
        <ele>301.79998779297</ele>
        <time>2019-09-12T07:57:16Z</time>
      </trkpt>
      <trkpt lat="47.16787" lon="5.90326">
        <ele>301.79998779297</ele>
        <time>2019-09-12T07:57:23Z</time>
      </trkpt>
      <trkpt lat="47.16768" lon="5.90308">
        <ele>301.79998779297</ele>
        <time>2019-09-12T07:57:28Z</time>
      </trkpt>
      <trkpt lat="47.16765" lon="5.90307">
        <ele>301.79998779297</ele>
        <time>2019-09-12T07:57:29Z</time>
      </trkpt>
      <trkpt lat="47.1676" lon="5.90311">
        <ele>301.79998779297</ele>
        <time>2019-09-12T07:57:32Z</time>
      </trkpt>
      <trkpt lat="47.1676" lon="5.90311">
        <ele>301.79998779297</ele>
        <time>2019-09-12T07:57:33Z</time>
      </trkpt>
      <trkpt lat="47.1676" lon="5.90311">
        <ele>301.79998779297</ele>
        <time>2019-09-12T07:57:35Z</time>
      </trkpt>
      <trkpt lat="47.1676" lon="5.90312">
        <ele>303</ele>
        <time>2019-09-12T07:58:00Z</time>
      </trkpt>
      <trkpt lat="47.16759" lon="5.90312">
        <ele>303</ele>
        <time>2019-09-12T07:58:01Z</time>
      </trkpt>
      <trkpt lat="47.16758" lon="5.90314">
        <ele>303</ele>
        <time>2019-09-12T07:58:02Z</time>
      </trkpt>
      <trkpt lat="47.16747" lon="5.90322">
        <ele>303</ele>
        <time>2019-09-12T07:58:06Z</time>
      </trkpt>
      <trkpt lat="47.16727" lon="5.90322">
        <ele>302.79998779297</ele>
        <time>2019-09-12T07:58:10Z</time>
      </trkpt>
      <trkpt lat="47.16721" lon="5.90322">
        <ele>302.79998779297</ele>
        <time>2019-09-12T07:58:11Z</time>
      </trkpt>
      <trkpt lat="47.1669" lon="5.90328">
        <ele>301.20001220703</ele>
        <time>2019-09-12T07:58:16Z</time>
      </trkpt>
      <trkpt lat="47.16684" lon="5.9033">
        <ele>301</ele>
        <time>2019-09-12T07:58:17Z</time>
      </trkpt>
      <trkpt lat="47.16667" lon="5.90333">
        <ele>299.79998779297</ele>
        <time>2019-09-12T07:58:21Z</time>
      </trkpt>
      <trkpt lat="47.16656" lon="5.90335">
        <ele>299.60000610352</ele>
        <time>2019-09-12T07:58:22Z</time>
      </trkpt>
      <trkpt lat="47.16641" lon="5.90337">
        <ele>299.20001220703</ele>
        <time>2019-09-12T07:58:25Z</time>
      </trkpt>
      <trkpt lat="47.1662" lon="5.90334">
        <ele>299.20001220703</ele>
        <time>2019-09-12T07:58:29Z</time>
      </trkpt>
      <trkpt lat="47.16581" lon="5.90323">
        <ele>299.39999389648</ele>
        <time>2019-09-12T07:58:37Z</time>
      </trkpt>
      <trkpt lat="47.16558" lon="5.90317">
        <ele>299.39999389648</ele>
        <time>2019-09-12T07:58:43Z</time>
      </trkpt>
      <trkpt lat="47.16545" lon="5.90307">
        <ele>299.79998779297</ele>
        <time>2019-09-12T07:58:49Z</time>
      </trkpt>
      <trkpt lat="47.16538" lon="5.90299">
        <ele>301.20001220703</ele>
        <time>2019-09-12T07:58:54Z</time>
      </trkpt>
      <trkpt lat="47.16537" lon="5.90298">
        <ele>301.39999389648</ele>
        <time>2019-09-12T07:58:55Z</time>
      </trkpt>
      <trkpt lat="47.16529" lon="5.90292">
        <ele>302.20001220703</ele>
        <time>2019-09-12T07:58:59Z</time>
      </trkpt>
      <trkpt lat="47.16527" lon="5.90289">
        <ele>302.39999389648</ele>
        <time>2019-09-12T07:59:00Z</time>
      </trkpt>
      <trkpt lat="47.16508" lon="5.90264">
        <ele>302.79998779297</ele>
        <time>2019-09-12T07:59:07Z</time>
      </trkpt>
      <trkpt lat="47.16499" lon="5.90251">
        <ele>302.79998779297</ele>
        <time>2019-09-12T07:59:10Z</time>
      </trkpt>
      <trkpt lat="47.16486" lon="5.90232">
        <ele>303</ele>
        <time>2019-09-12T07:59:15Z</time>
      </trkpt>
      <trkpt lat="47.16467" lon="5.90204">
        <ele>303.20001220703</ele>
        <time>2019-09-12T07:59:21Z</time>
      </trkpt>
      <trkpt lat="47.16462" lon="5.90195">
        <ele>303.39999389648</ele>
        <time>2019-09-12T07:59:22Z</time>
      </trkpt>
      <trkpt lat="47.16436" lon="5.90151">
        <ele>304</ele>
        <time>2019-09-12T07:59:30Z</time>
      </trkpt>
      <trkpt lat="47.16409" lon="5.90103">
        <ele>304</ele>
        <time>2019-09-12T07:59:38Z</time>
      </trkpt>
      <trkpt lat="47.16379" lon="5.90041">
        <ele>303.79998779297</ele>
        <time>2019-09-12T07:59:48Z</time>
      </trkpt>
      <trkpt lat="47.16376" lon="5.90034">
        <ele>303.79998779297</ele>
        <time>2019-09-12T07:59:49Z</time>
      </trkpt>
      <trkpt lat="47.16361" lon="5.89997">
        <ele>303.60000610352</ele>
        <time>2019-09-12T07:59:55Z</time>
      </trkpt>
      <trkpt lat="47.16346" lon="5.89959">
        <ele>303.39999389648</ele>
        <time>2019-09-12T08:00:01Z</time>
      </trkpt>
      <trkpt lat="47.16343" lon="5.89953">
        <ele>303.39999389648</ele>
        <time>2019-09-12T08:00:02Z</time>
      </trkpt>
      <trkpt lat="47.16334" lon="5.89925">
        <ele>303.39999389648</ele>
        <time>2019-09-12T08:00:07Z</time>
      </trkpt>
      <trkpt lat="47.16327" lon="5.89906">
        <ele>303.20001220703</ele>
        <time>2019-09-12T08:00:10Z</time>
      </trkpt>
      <trkpt lat="47.16321" lon="5.89888">
        <ele>303.39999389648</ele>
        <time>2019-09-12T08:00:13Z</time>
      </trkpt>
      <trkpt lat="47.16308" lon="5.89834">
        <ele>303.39999389648</ele>
        <time>2019-09-12T08:00:21Z</time>
      </trkpt>
      <trkpt lat="47.16299" lon="5.89785">
        <ele>303.39999389648</ele>
        <time>2019-09-12T08:00:28Z</time>
      </trkpt>
      <trkpt lat="47.16293" lon="5.89741">
        <ele>303.39999389648</ele>
        <time>2019-09-12T08:00:34Z</time>
      </trkpt>
      <trkpt lat="47.16282" lon="5.89696">
        <ele>302.79998779297</ele>
        <time>2019-09-12T08:00:40Z</time>
      </trkpt>
      <trkpt lat="47.16264" lon="5.89639">
        <ele>302.39999389648</ele>
        <time>2019-09-12T08:00:48Z</time>
      </trkpt>
      <trkpt lat="47.16256" lon="5.89609">
        <ele>302.39999389648</ele>
        <time>2019-09-12T08:00:52Z</time>
      </trkpt>
      <trkpt lat="47.1625" lon="5.89586">
        <ele>302.39999389648</ele>
        <time>2019-09-12T08:00:55Z</time>
      </trkpt>
      <trkpt lat="47.16241" lon="5.89545">
        <ele>302.60000610352</ele>
        <time>2019-09-12T08:01:00Z</time>
      </trkpt>
      <trkpt lat="47.16239" lon="5.89537">
        <ele>302.60000610352</ele>
        <time>2019-09-12T08:01:01Z</time>
      </trkpt>
      <trkpt lat="47.16233" lon="5.89513">
        <ele>302.39999389648</ele>
        <time>2019-09-12T08:01:04Z</time>
      </trkpt>
      <trkpt lat="47.1623" lon="5.89498">
        <ele>302.39999389648</ele>
        <time>2019-09-12T08:01:06Z</time>
      </trkpt>
      <trkpt lat="47.16226" lon="5.8946">
        <ele>302</ele>
        <time>2019-09-12T08:01:11Z</time>
      </trkpt>
      <trkpt lat="47.16219" lon="5.89412">
        <ele>301.60000610352</ele>
        <time>2019-09-12T08:01:17Z</time>
      </trkpt>
      <trkpt lat="47.16215" lon="5.89386">
        <ele>301.39999389648</ele>
        <time>2019-09-12T08:01:20Z</time>
      </trkpt>
      <trkpt lat="47.16212" lon="5.89368">
        <ele>301.39999389648</ele>
        <time>2019-09-12T08:01:22Z</time>
      </trkpt>
      <trkpt lat="47.16208" lon="5.89351">
        <ele>301.20001220703</ele>
        <time>2019-09-12T08:01:24Z</time>
      </trkpt>
      <trkpt lat="47.16193" lon="5.89292">
        <ele>301.20001220703</ele>
        <time>2019-09-12T08:01:31Z</time>
      </trkpt>
      <trkpt lat="47.16185" lon="5.89234">
        <ele>301</ele>
        <time>2019-09-12T08:01:38Z</time>
      </trkpt>
      <trkpt lat="47.16165" lon="5.89177">
        <ele>300.60000610352</ele>
        <time>2019-09-12T08:01:45Z</time>
      </trkpt>
      <trkpt lat="47.16149" lon="5.89141">
        <ele>300.39999389648</ele>
        <time>2019-09-12T08:01:50Z</time>
      </trkpt>
      <trkpt lat="47.1614" lon="5.89122">
        <ele>300.39999389648</ele>
        <time>2019-09-12T08:01:53Z</time>
      </trkpt>
      <trkpt lat="47.16133" lon="5.89111">
        <ele>300.39999389648</ele>
        <time>2019-09-12T08:01:54Z</time>
      </trkpt>
      <trkpt lat="47.1613" lon="5.89106">
        <ele>300.39999389648</ele>
        <time>2019-09-12T08:01:56Z</time>
      </trkpt>
      <trkpt lat="47.16129" lon="5.891">
        <ele>300.39999389648</ele>
        <time>2019-09-12T08:01:57Z</time>
      </trkpt>
      <trkpt lat="47.16136" lon="5.89076">
        <ele>300.39999389648</ele>
        <time>2019-09-12T08:02:00Z</time>
      </trkpt>
      <trkpt lat="47.16138" lon="5.89061">
        <ele>300.39999389648</ele>
        <time>2019-09-12T08:02:03Z</time>
      </trkpt>
      <trkpt lat="47.16142" lon="5.89032">
        <ele>300.39999389648</ele>
        <time>2019-09-12T08:02:06Z</time>
      </trkpt>
      <trkpt lat="47.16141" lon="5.89018">
        <ele>300.20001220703</ele>
        <time>2019-09-12T08:02:09Z</time>
      </trkpt>
      <trkpt lat="47.16135" lon="5.89004">
        <ele>300</ele>
        <time>2019-09-12T08:02:10Z</time>
      </trkpt>
      <trkpt lat="47.16125" lon="5.88985">
        <ele>299.79998779297</ele>
        <time>2019-09-12T08:02:13Z</time>
      </trkpt>
      <trkpt lat="47.1611" lon="5.88961">
        <ele>299.39999389648</ele>
        <time>2019-09-12T08:02:17Z</time>
      </trkpt>
      <trkpt lat="47.16099" lon="5.88942">
        <ele>299.20001220703</ele>
        <time>2019-09-12T08:02:21Z</time>
      </trkpt>
      <trkpt lat="47.16086" lon="5.88917">
        <ele>299</ele>
        <time>2019-09-12T08:02:25Z</time>
      </trkpt>
      <trkpt lat="47.1607" lon="5.88898">
        <ele>299</ele>
        <time>2019-09-12T08:02:28Z</time>
      </trkpt>
      <trkpt lat="47.16031" lon="5.88855">
        <ele>299.20001220703</ele>
        <time>2019-09-12T08:02:38Z</time>
      </trkpt>
      <trkpt lat="47.15992" lon="5.88811">
        <ele>299.20001220703</ele>
        <time>2019-09-12T08:02:49Z</time>
      </trkpt>
      <trkpt lat="47.15972" lon="5.8879">
        <ele>299.39999389648</ele>
        <time>2019-09-12T08:02:54Z</time>
      </trkpt>
      <trkpt lat="47.15967" lon="5.88779">
        <ele>299.39999389648</ele>
        <time>2019-09-12T08:02:56Z</time>
      </trkpt>
      <trkpt lat="47.15968" lon="5.88777">
        <ele>299.39999389648</ele>
        <time>2019-09-12T08:03:00Z</time>
      </trkpt>
      <trkpt lat="47.15968" lon="5.88775">
        <ele>299.60000610352</ele>
        <time>2019-09-12T08:03:03Z</time>
      </trkpt>
      <trkpt lat="47.1597" lon="5.88768">
        <ele>299.79998779297</ele>
        <time>2019-09-12T08:03:05Z</time>
      </trkpt>
      <trkpt lat="47.15976" lon="5.88758">
        <ele>299.79998779297</ele>
        <time>2019-09-12T08:03:08Z</time>
      </trkpt>
      <trkpt lat="47.15983" lon="5.88745">
        <ele>299.79998779297</ele>
        <time>2019-09-12T08:03:11Z</time>
      </trkpt>
      <trkpt lat="47.15993" lon="5.88733">
        <ele>300</ele>
        <time>2019-09-12T08:03:14Z</time>
      </trkpt>
      <trkpt lat="47.15993" lon="5.88733">
        <ele>300</ele>
        <time>2019-09-12T08:03:15Z</time>
      </trkpt>
      <trkpt lat="47.16009" lon="5.8872">
        <ele>300.20001220703</ele>
        <time>2019-09-12T08:03:19Z</time>
      </trkpt>
      <trkpt lat="47.1603" lon="5.8871">
        <ele>300.39999389648</ele>
        <time>2019-09-12T08:03:25Z</time>
      </trkpt>
      <trkpt lat="47.16033" lon="5.88709">
        <ele>300.60000610352</ele>
        <time>2019-09-12T08:03:27Z</time>
      </trkpt>
      <trkpt lat="47.16052" lon="5.88699">
        <ele>302</ele>
        <time>2019-09-12T08:03:33Z</time>
      </trkpt>
      <trkpt lat="47.16072" lon="5.88687">
        <ele>303.20001220703</ele>
        <time>2019-09-12T08:03:39Z</time>
      </trkpt>
      <trkpt lat="47.16083" lon="5.8868">
        <ele>303.60000610352</ele>
        <time>2019-09-12T08:03:41Z</time>
      </trkpt>
      <trkpt lat="47.16115" lon="5.88662">
        <ele>304</ele>
        <time>2019-09-12T08:03:50Z</time>
      </trkpt>
      <trkpt lat="47.16123" lon="5.88658">
        <ele>304</ele>
        <time>2019-09-12T08:03:52Z</time>
      </trkpt>
      <trkpt lat="47.16156" lon="5.88641">
        <ele>304.20001220703</ele>
        <time>2019-09-12T08:04:00Z</time>
      </trkpt>
      <trkpt lat="47.16178" lon="5.88628">
        <ele>304</ele>
        <time>2019-09-12T08:04:05Z</time>
      </trkpt>
      <trkpt lat="47.16183" lon="5.88624">
        <ele>304</ele>
        <time>2019-09-12T08:04:06Z</time>
      </trkpt>
      <trkpt lat="47.16218" lon="5.88607">
        <ele>303.39999389648</ele>
        <time>2019-09-12T08:04:12Z</time>
      </trkpt>
      <trkpt lat="47.1623" lon="5.886">
        <ele>302.79998779297</ele>
        <time>2019-09-12T08:04:15Z</time>
      </trkpt>
      <trkpt lat="47.16243" lon="5.88594">
        <ele>302.39999389648</ele>
        <time>2019-09-12T08:04:16Z</time>
      </trkpt>
      <trkpt lat="47.16257" lon="5.88591">
        <ele>302.20001220703</ele>
        <time>2019-09-12T08:04:18Z</time>
      </trkpt>
      <trkpt lat="47.16264" lon="5.88589">
        <ele>302</ele>
        <time>2019-09-12T08:04:19Z</time>
      </trkpt>
      <trkpt lat="47.16271" lon="5.88586">
        <ele>301.60000610352</ele>
        <time>2019-09-12T08:04:20Z</time>
      </trkpt>
      <trkpt lat="47.16288" lon="5.88577">
        <ele>300.79998779297</ele>
        <time>2019-09-12T08:04:23Z</time>
      </trkpt>
      <trkpt lat="47.16295" lon="5.88576">
        <ele>300.60000610352</ele>
        <time>2019-09-12T08:04:24Z</time>
      </trkpt>
      <trkpt lat="47.16306" lon="5.88574">
        <ele>300.20001220703</ele>
        <time>2019-09-12T08:04:26Z</time>
      </trkpt>
      <trkpt lat="47.16306" lon="5.88574">
        <ele>300</ele>
        <time>2019-09-12T08:04:27Z</time>
      </trkpt>
      <trkpt lat="47.16314" lon="5.88563">
        <ele>299.79998779297</ele>
        <time>2019-09-12T08:04:28Z</time>
      </trkpt>
      <trkpt lat="47.16315" lon="5.88556">
        <ele>299.79998779297</ele>
        <time>2019-09-12T08:04:29Z</time>
      </trkpt>
      <trkpt lat="47.16315" lon="5.88548">
        <ele>299.60000610352</ele>
        <time>2019-09-12T08:04:30Z</time>
      </trkpt>
      <trkpt lat="47.16312" lon="5.88534">
        <ele>299.39999389648</ele>
        <time>2019-09-12T08:04:33Z</time>
      </trkpt>
      <trkpt lat="47.16288" lon="5.88475">
        <ele>299</ele>
        <time>2019-09-12T08:04:41Z</time>
      </trkpt>
      <trkpt lat="47.16261" lon="5.88426">
        <ele>299</ele>
        <time>2019-09-12T08:04:49Z</time>
      </trkpt>
      <trkpt lat="47.16224" lon="5.88376">
        <ele>299</ele>
        <time>2019-09-12T08:04:58Z</time>
      </trkpt>
      <trkpt lat="47.16183" lon="5.88334">
        <ele>299</ele>
        <time>2019-09-12T08:05:07Z</time>
      </trkpt>
      <trkpt lat="47.16134" lon="5.88293">
        <ele>299.20001220703</ele>
        <time>2019-09-12T08:05:17Z</time>
      </trkpt>
      <trkpt lat="47.16092" lon="5.88267">
        <ele>299.20001220703</ele>
        <time>2019-09-12T08:05:25Z</time>
      </trkpt>
      <trkpt lat="47.16038" lon="5.88246">
        <ele>299</ele>
        <time>2019-09-12T08:05:35Z</time>
      </trkpt>
      <trkpt lat="47.15988" lon="5.88237">
        <ele>298.79998779297</ele>
        <time>2019-09-12T08:05:45Z</time>
      </trkpt>
      <trkpt lat="47.15938" lon="5.88237">
        <ele>299.20001220703</ele>
        <time>2019-09-12T08:05:53Z</time>
      </trkpt>
      <trkpt lat="47.1591" lon="5.8824">
        <ele>299.39999389648</ele>
        <time>2019-09-12T08:05:58Z</time>
      </trkpt>
      <trkpt lat="47.15899" lon="5.88243">
        <ele>299.39999389648</ele>
        <time>2019-09-12T08:06:00Z</time>
      </trkpt>
      <trkpt lat="47.15876" lon="5.88249">
        <ele>299.39999389648</ele>
        <time>2019-09-12T08:06:04Z</time>
      </trkpt>
      <trkpt lat="47.15865" lon="5.88254">
        <ele>299.39999389648</ele>
        <time>2019-09-12T08:06:06Z</time>
      </trkpt>
      <trkpt lat="47.15831" lon="5.8827">
        <ele>299.39999389648</ele>
        <time>2019-09-12T08:06:12Z</time>
      </trkpt>
      <trkpt lat="47.15786" lon="5.88291">
        <ele>299.20001220703</ele>
        <time>2019-09-12T08:06:20Z</time>
      </trkpt>
      <trkpt lat="47.15753" lon="5.88306">
        <ele>299.20001220703</ele>
        <time>2019-09-12T08:06:27Z</time>
      </trkpt>
      <trkpt lat="47.15723" lon="5.88321">
        <ele>299.20001220703</ele>
        <time>2019-09-12T08:06:33Z</time>
      </trkpt>
      <trkpt lat="47.15692" lon="5.88335">
        <ele>299.20001220703</ele>
        <time>2019-09-12T08:06:39Z</time>
      </trkpt>
      <trkpt lat="47.15677" lon="5.88343">
        <ele>299.20001220703</ele>
        <time>2019-09-12T08:06:41Z</time>
      </trkpt>
      <trkpt lat="47.15662" lon="5.88347">
        <ele>299.20001220703</ele>
        <time>2019-09-12T08:06:45Z</time>
      </trkpt>
      <trkpt lat="47.15619" lon="5.88357">
        <ele>299.20001220703</ele>
        <time>2019-09-12T08:06:52Z</time>
      </trkpt>
      <trkpt lat="47.15577" lon="5.88357">
        <ele>299.20001220703</ele>
        <time>2019-09-12T08:07:00Z</time>
      </trkpt>
      <trkpt lat="47.15535" lon="5.88359">
        <ele>299.79998779297</ele>
        <time>2019-09-12T08:07:09Z</time>
      </trkpt>
      <trkpt lat="47.15478" lon="5.88358">
        <ele>300</ele>
        <time>2019-09-12T08:07:18Z</time>
      </trkpt>
      <trkpt lat="47.15433" lon="5.88355">
        <ele>300</ele>
        <time>2019-09-12T08:07:27Z</time>
      </trkpt>
      <trkpt lat="47.15387" lon="5.88351">
        <ele>299.79998779297</ele>
        <time>2019-09-12T08:07:34Z</time>
      </trkpt>
      <trkpt lat="47.15327" lon="5.88347">
        <ele>299.79998779297</ele>
        <time>2019-09-12T08:07:44Z</time>
      </trkpt>
      <trkpt lat="47.15275" lon="5.88342">
        <ele>300</ele>
        <time>2019-09-12T08:07:53Z</time>
      </trkpt>
      <trkpt lat="47.15264" lon="5.88342">
        <ele>300</ele>
        <time>2019-09-12T08:07:55Z</time>
      </trkpt>
      <trkpt lat="47.15237" lon="5.88344">
        <ele>300</ele>
        <time>2019-09-12T08:08:00Z</time>
      </trkpt>
      <trkpt lat="47.15202" lon="5.88343">
        <ele>300</ele>
        <time>2019-09-12T08:08:07Z</time>
      </trkpt>
      <trkpt lat="47.15152" lon="5.8834">
        <ele>300</ele>
        <time>2019-09-12T08:08:14Z</time>
      </trkpt>
      <trkpt lat="47.15116" lon="5.88338">
        <ele>300</ele>
        <time>2019-09-12T08:08:21Z</time>
      </trkpt>
      <trkpt lat="47.15062" lon="5.88335">
        <ele>300</ele>
        <time>2019-09-12T08:08:29Z</time>
      </trkpt>
      <trkpt lat="47.15022" lon="5.88333">
        <ele>300</ele>
        <time>2019-09-12T08:08:36Z</time>
      </trkpt>
      <trkpt lat="47.14988" lon="5.88333">
        <ele>300</ele>
        <time>2019-09-12T08:08:42Z</time>
      </trkpt>
      <trkpt lat="47.14952" lon="5.88331">
        <ele>300</ele>
        <time>2019-09-12T08:08:49Z</time>
      </trkpt>
      <trkpt lat="47.14917" lon="5.88331">
        <ele>299.79998779297</ele>
        <time>2019-09-12T08:08:55Z</time>
      </trkpt>
      <trkpt lat="47.14905" lon="5.88329">
        <ele>299.79998779297</ele>
        <time>2019-09-12T08:08:57Z</time>
      </trkpt>
      <trkpt lat="47.14876" lon="5.88325">
        <ele>299.60000610352</ele>
        <time>2019-09-12T08:09:01Z</time>
      </trkpt>
      <trkpt lat="47.14828" lon="5.88321">
        <ele>299.60000610352</ele>
        <time>2019-09-12T08:09:10Z</time>
      </trkpt>
      <trkpt lat="47.14794" lon="5.88305">
        <ele>299.39999389648</ele>
        <time>2019-09-12T08:09:16Z</time>
      </trkpt>
      <trkpt lat="47.14758" lon="5.88275">
        <ele>299.20001220703</ele>
        <time>2019-09-12T08:09:23Z</time>
      </trkpt>
      <trkpt lat="47.14749" lon="5.88265">
        <ele>299.20001220703</ele>
        <time>2019-09-12T08:09:25Z</time>
      </trkpt>
      <trkpt lat="47.14724" lon="5.88241">
        <ele>299.20001220703</ele>
        <time>2019-09-12T08:09:30Z</time>
      </trkpt>
      <trkpt lat="47.1469" lon="5.88207">
        <ele>299</ele>
        <time>2019-09-12T08:09:37Z</time>
      </trkpt>
      <trkpt lat="47.14655" lon="5.88174">
        <ele>299</ele>
        <time>2019-09-12T08:09:44Z</time>
      </trkpt>
      <trkpt lat="47.14621" lon="5.88141">
        <ele>298.79998779297</ele>
        <time>2019-09-12T08:09:51Z</time>
      </trkpt>
      <trkpt lat="47.14597" lon="5.88119">
        <ele>298.60000610352</ele>
        <time>2019-09-12T08:09:56Z</time>
      </trkpt>
      <trkpt lat="47.14577" lon="5.881">
        <ele>298.39999389648</ele>
        <time>2019-09-12T08:10:00Z</time>
      </trkpt>
      <trkpt lat="47.14557" lon="5.88082">
        <ele>298.20001220703</ele>
        <time>2019-09-12T08:10:04Z</time>
      </trkpt>
      <trkpt lat="47.14509" lon="5.88036">
        <ele>298.39999389648</ele>
        <time>2019-09-12T08:10:14Z</time>
      </trkpt>
      <trkpt lat="47.14478" lon="5.87996">
        <ele>298.20001220703</ele>
        <time>2019-09-12T08:10:21Z</time>
      </trkpt>
      <trkpt lat="47.14459" lon="5.87951">
        <ele>298.20001220703</ele>
        <time>2019-09-12T08:10:27Z</time>
      </trkpt>
      <trkpt lat="47.14435" lon="5.87895">
        <ele>298</ele>
        <time>2019-09-12T08:10:35Z</time>
      </trkpt>
      <trkpt lat="47.14405" lon="5.87826">
        <ele>298.20001220703</ele>
        <time>2019-09-12T08:10:45Z</time>
      </trkpt>
      <trkpt lat="47.14402" lon="5.87819">
        <ele>298.20001220703</ele>
        <time>2019-09-12T08:10:46Z</time>
      </trkpt>
      <trkpt lat="47.14374" lon="5.87756">
        <ele>298</ele>
        <time>2019-09-12T08:10:55Z</time>
      </trkpt>
      <trkpt lat="47.14353" lon="5.87705">
        <ele>297.79998779297</ele>
        <time>2019-09-12T08:11:02Z</time>
      </trkpt>
      <trkpt lat="47.1435" lon="5.87698">
        <ele>297.79998779297</ele>
        <time>2019-09-12T08:11:03Z</time>
      </trkpt>
      <trkpt lat="47.14324" lon="5.87638">
        <ele>297.60000610352</ele>
        <time>2019-09-12T08:11:11Z</time>
      </trkpt>
      <trkpt lat="47.14295" lon="5.87564">
        <ele>297.20001220703</ele>
        <time>2019-09-12T08:11:21Z</time>
      </trkpt>
      <trkpt lat="47.14292" lon="5.87557">
        <ele>297.20001220703</ele>
        <time>2019-09-12T08:11:22Z</time>
      </trkpt>
      <trkpt lat="47.14288" lon="5.87549">
        <ele>297.20001220703</ele>
        <time>2019-09-12T08:11:23Z</time>
      </trkpt>
      <trkpt lat="47.14268" lon="5.87498">
        <ele>297.39999389648</ele>
        <time>2019-09-12T08:11:30Z</time>
      </trkpt>
      <trkpt lat="47.14239" lon="5.87428">
        <ele>297.39999389648</ele>
        <time>2019-09-12T08:11:40Z</time>
      </trkpt>
      <trkpt lat="47.14212" lon="5.87363">
        <ele>297.20001220703</ele>
        <time>2019-09-12T08:11:49Z</time>
      </trkpt>
      <trkpt lat="47.14208" lon="5.87357">
        <ele>297.20001220703</ele>
        <time>2019-09-12T08:11:50Z</time>
      </trkpt>
      <trkpt lat="47.14193" lon="5.87336">
        <ele>297.20001220703</ele>
        <time>2019-09-12T08:11:54Z</time>
      </trkpt>
      <trkpt lat="47.14185" lon="5.87321">
        <ele>297.20001220703</ele>
        <time>2019-09-12T08:11:57Z</time>
      </trkpt>
      <trkpt lat="47.14184" lon="5.87316">
        <ele>297.20001220703</ele>
        <time>2019-09-12T08:11:58Z</time>
      </trkpt>
      <trkpt lat="47.1418" lon="5.87293">
        <ele>297.20001220703</ele>
        <time>2019-09-12T08:12:02Z</time>
      </trkpt>
      <trkpt lat="47.14176" lon="5.87281">
        <ele>297.20001220703</ele>
        <time>2019-09-12T08:12:04Z</time>
      </trkpt>
      <trkpt lat="47.14162" lon="5.87239">
        <ele>297.20001220703</ele>
        <time>2019-09-12T08:12:10Z</time>
      </trkpt>
      <trkpt lat="47.14143" lon="5.87181">
        <ele>297.20001220703</ele>
        <time>2019-09-12T08:12:18Z</time>
      </trkpt>
      <trkpt lat="47.1412" lon="5.87113">
        <ele>297</ele>
        <time>2019-09-12T08:12:28Z</time>
      </trkpt>
      <trkpt lat="47.14109" lon="5.87082">
        <ele>297</ele>
        <time>2019-09-12T08:12:33Z</time>
      </trkpt>
      <trkpt lat="47.14106" lon="5.87069">
        <ele>297</ele>
        <time>2019-09-12T08:12:35Z</time>
      </trkpt>
      <trkpt lat="47.14097" lon="5.87049">
        <ele>297</ele>
        <time>2019-09-12T08:12:39Z</time>
      </trkpt>
      <trkpt lat="47.14083" lon="5.87019">
        <ele>298.20001220703</ele>
        <time>2019-09-12T08:12:47Z</time>
      </trkpt>
      <trkpt lat="47.14081" lon="5.87015">
        <ele>298.39999389648</ele>
        <time>2019-09-12T08:12:48Z</time>
      </trkpt>
      <trkpt lat="47.14072" lon="5.86991">
        <ele>299</ele>
        <time>2019-09-12T08:12:52Z</time>
      </trkpt>
      <trkpt lat="47.14056" lon="5.86944">
        <ele>299.20001220703</ele>
        <time>2019-09-12T08:12:58Z</time>
      </trkpt>
      <trkpt lat="47.14036" lon="5.86892">
        <ele>298.20001220703</ele>
        <time>2019-09-12T08:13:05Z</time>
      </trkpt>
      <trkpt lat="47.14018" lon="5.8684">
        <ele>297.79998779297</ele>
        <time>2019-09-12T08:13:12Z</time>
      </trkpt>
      <trkpt lat="47.14011" lon="5.86803">
        <ele>297.79998779297</ele>
        <time>2019-09-12T08:13:17Z</time>
      </trkpt>
      <trkpt lat="47.13998" lon="5.86742">
        <ele>297.60000610352</ele>
        <time>2019-09-12T08:13:25Z</time>
      </trkpt>
      <trkpt lat="47.13981" lon="5.86667">
        <ele>297.79998779297</ele>
        <time>2019-09-12T08:13:35Z</time>
      </trkpt>
      <trkpt lat="47.13979" lon="5.86659">
        <ele>297.79998779297</ele>
        <time>2019-09-12T08:13:36Z</time>
      </trkpt>
      <trkpt lat="47.13962" lon="5.86586">
        <ele>297.60000610352</ele>
        <time>2019-09-12T08:13:46Z</time>
      </trkpt>
      <trkpt lat="47.13947" lon="5.86525">
        <ele>297.60000610352</ele>
        <time>2019-09-12T08:13:55Z</time>
      </trkpt>
      <trkpt lat="47.13942" lon="5.86504">
        <ele>297.60000610352</ele>
        <time>2019-09-12T08:13:58Z</time>
      </trkpt>
      <trkpt lat="47.13934" lon="5.86469">
        <ele>297.60000610352</ele>
        <time>2019-09-12T08:14:03Z</time>
      </trkpt>
      <trkpt lat="47.13915" lon="5.86394">
        <ele>297.60000610352</ele>
        <time>2019-09-12T08:14:14Z</time>
      </trkpt>
      <trkpt lat="47.13912" lon="5.86387">
        <ele>297.60000610352</ele>
        <time>2019-09-12T08:14:15Z</time>
      </trkpt>
      <trkpt lat="47.13905" lon="5.8636">
        <ele>297.79998779297</ele>
        <time>2019-09-12T08:14:19Z</time>
      </trkpt>
      <trkpt lat="47.13902" lon="5.86338">
        <ele>297.79998779297</ele>
        <time>2019-09-12T08:14:22Z</time>
      </trkpt>
      <trkpt lat="47.13894" lon="5.86286">
        <ele>297.79998779297</ele>
        <time>2019-09-12T08:14:29Z</time>
      </trkpt>
      <trkpt lat="47.13894" lon="5.86279">
        <ele>297.79998779297</ele>
        <time>2019-09-12T08:14:30Z</time>
      </trkpt>
      <trkpt lat="47.13894" lon="5.86233">
        <ele>297.79998779297</ele>
        <time>2019-09-12T08:14:36Z</time>
      </trkpt>
      <trkpt lat="47.13896" lon="5.86218">
        <ele>297.79998779297</ele>
        <time>2019-09-12T08:14:38Z</time>
      </trkpt>
      <trkpt lat="47.13901" lon="5.8616">
        <ele>297.79998779297</ele>
        <time>2019-09-12T08:14:46Z</time>
      </trkpt>
      <trkpt lat="47.13907" lon="5.86094">
        <ele>297.79998779297</ele>
        <time>2019-09-12T08:14:55Z</time>
      </trkpt>
      <trkpt lat="47.13913" lon="5.86029">
        <ele>297.79998779297</ele>
        <time>2019-09-12T08:15:04Z</time>
      </trkpt>
      <trkpt lat="47.13919" lon="5.85957">
        <ele>298</ele>
        <time>2019-09-12T08:15:14Z</time>
      </trkpt>
      <trkpt lat="47.13922" lon="5.85906">
        <ele>298</ele>
        <time>2019-09-12T08:15:21Z</time>
      </trkpt>
      <trkpt lat="47.13922" lon="5.85899">
        <ele>298</ele>
        <time>2019-09-12T08:15:22Z</time>
      </trkpt>
      <trkpt lat="47.13926" lon="5.85863">
        <ele>297.79998779297</ele>
        <time>2019-09-12T08:15:27Z</time>
      </trkpt>
      <trkpt lat="47.13934" lon="5.85819">
        <ele>297.60000610352</ele>
        <time>2019-09-12T08:15:33Z</time>
      </trkpt>
      <trkpt lat="47.13935" lon="5.85811">
        <ele>297.60000610352</ele>
        <time>2019-09-12T08:15:34Z</time>
      </trkpt>
      <trkpt lat="47.13941" lon="5.85754">
        <ele>297</ele>
        <time>2019-09-12T08:15:41Z</time>
      </trkpt>
      <trkpt lat="47.13943" lon="5.8573">
        <ele>296.60000610352</ele>
        <time>2019-09-12T08:15:44Z</time>
      </trkpt>
      <trkpt lat="47.13949" lon="5.85658">
        <ele>296.79998779297</ele>
        <time>2019-09-12T08:15:53Z</time>
      </trkpt>
      <trkpt lat="47.13957" lon="5.85576">
        <ele>296.79998779297</ele>
        <time>2019-09-12T08:16:03Z</time>
      </trkpt>
      <trkpt lat="47.13961" lon="5.85521">
        <ele>296.79998779297</ele>
        <time>2019-09-12T08:16:10Z</time>
      </trkpt>
      <trkpt lat="47.13968" lon="5.85447">
        <ele>296.60000610352</ele>
        <time>2019-09-12T08:16:19Z</time>
      </trkpt>
      <trkpt lat="47.13974" lon="5.85381">
        <ele>296.39999389648</ele>
        <time>2019-09-12T08:16:27Z</time>
      </trkpt>
      <trkpt lat="47.13981" lon="5.85304">
        <ele>296.39999389648</ele>
        <time>2019-09-12T08:16:37Z</time>
      </trkpt>
      <trkpt lat="47.13984" lon="5.85283">
        <ele>296.39999389648</ele>
        <time>2019-09-12T08:16:41Z</time>
      </trkpt>
      <trkpt lat="47.13984" lon="5.85273">
        <ele>296.39999389648</ele>
        <time>2019-09-12T08:16:44Z</time>
      </trkpt>
      <trkpt lat="47.13982" lon="5.85271">
        <ele>296.39999389648</ele>
        <time>2019-09-12T08:16:45Z</time>
      </trkpt>
      <trkpt lat="47.13973" lon="5.85267">
        <ele>296.60000610352</ele>
        <time>2019-09-12T08:16:48Z</time>
      </trkpt>
      <trkpt lat="47.13967" lon="5.85265">
        <ele>296.79998779297</ele>
        <time>2019-09-12T08:16:50Z</time>
      </trkpt>
      <trkpt lat="47.1396" lon="5.85254">
        <ele>297.20001220703</ele>
        <time>2019-09-12T08:16:53Z</time>
      </trkpt>
      <trkpt lat="47.13964" lon="5.85231">
        <ele>297.20001220703</ele>
        <time>2019-09-12T08:16:57Z</time>
      </trkpt>
      <trkpt lat="47.13977" lon="5.85187">
        <ele>296.79998779297</ele>
        <time>2019-09-12T08:17:04Z</time>
      </trkpt>
      <trkpt lat="47.14" lon="5.85142">
        <ele>296.60000610352</ele>
        <time>2019-09-12T08:17:12Z</time>
      </trkpt>
      <trkpt lat="47.14025" lon="5.85107">
        <ele>296.60000610352</ele>
        <time>2019-09-12T08:17:19Z</time>
      </trkpt>
      <trkpt lat="47.1404" lon="5.85087">
        <ele>296.39999389648</ele>
        <time>2019-09-12T08:17:23Z</time>
      </trkpt>
      <trkpt lat="47.14044" lon="5.85083">
        <ele>296.39999389648</ele>
        <time>2019-09-12T08:17:24Z</time>
      </trkpt>
      <trkpt lat="47.14053" lon="5.85077">
        <ele>296.39999389648</ele>
        <time>2019-09-12T08:17:26Z</time>
      </trkpt>
      <trkpt lat="47.14088" lon="5.85057">
        <ele>296.39999389648</ele>
        <time>2019-09-12T08:17:34Z</time>
      </trkpt>
      <trkpt lat="47.14121" lon="5.85044">
        <ele>296.39999389648</ele>
        <time>2019-09-12T08:17:41Z</time>
      </trkpt>
      <trkpt lat="47.14162" lon="5.85044">
        <ele>296.39999389648</ele>
        <time>2019-09-12T08:17:49Z</time>
      </trkpt>
      <trkpt lat="47.14198" lon="5.85054">
        <ele>296.20001220703</ele>
        <time>2019-09-12T08:17:56Z</time>
      </trkpt>
      <trkpt lat="47.14224" lon="5.85064">
        <ele>296.39999389648</ele>
        <time>2019-09-12T08:18:01Z</time>
      </trkpt>
      <trkpt lat="47.14229" lon="5.85067">
        <ele>296.20001220703</ele>
        <time>2019-09-12T08:18:02Z</time>
      </trkpt>
      <trkpt lat="47.1427" lon="5.85086">
        <ele>296</ele>
        <time>2019-09-12T08:18:10Z</time>
      </trkpt>
      <trkpt lat="47.14312" lon="5.85106">
        <ele>295.79998779297</ele>
        <time>2019-09-12T08:18:18Z</time>
      </trkpt>
      <trkpt lat="47.14348" lon="5.85125">
        <ele>295.79998779297</ele>
        <time>2019-09-12T08:18:25Z</time>
      </trkpt>
      <trkpt lat="47.14392" lon="5.85147">
        <ele>295.60000610352</ele>
        <time>2019-09-12T08:18:33Z</time>
      </trkpt>
      <trkpt lat="47.14397" lon="5.8515">
        <ele>295.60000610352</ele>
        <time>2019-09-12T08:18:34Z</time>
      </trkpt>
      <trkpt lat="47.14441" lon="5.8517">
        <ele>295.39999389648</ele>
        <time>2019-09-12T08:18:42Z</time>
      </trkpt>
      <trkpt lat="47.14488" lon="5.85191">
        <ele>295.20001220703</ele>
        <time>2019-09-12T08:18:51Z</time>
      </trkpt>
      <trkpt lat="47.14538" lon="5.85213">
        <ele>295</ele>
        <time>2019-09-12T08:19:01Z</time>
      </trkpt>
      <trkpt lat="47.14585" lon="5.85238">
        <ele>295.20001220703</ele>
        <time>2019-09-12T08:19:11Z</time>
      </trkpt>
      <trkpt lat="47.14629" lon="5.8526">
        <ele>294.79998779297</ele>
        <time>2019-09-12T08:19:20Z</time>
      </trkpt>
      <trkpt lat="47.14663" lon="5.85277">
        <ele>294.60000610352</ele>
        <time>2019-09-12T08:19:27Z</time>
      </trkpt>
      <trkpt lat="47.14693" lon="5.8529">
        <ele>294.79998779297</ele>
        <time>2019-09-12T08:19:33Z</time>
      </trkpt>
      <trkpt lat="47.14729" lon="5.85309">
        <ele>294.79998779297</ele>
        <time>2019-09-12T08:19:40Z</time>
      </trkpt>
      <trkpt lat="47.14755" lon="5.85321">
        <ele>294.79998779297</ele>
        <time>2019-09-12T08:19:45Z</time>
      </trkpt>
      <trkpt lat="47.1477" lon="5.85328">
        <ele>294.60000610352</ele>
        <time>2019-09-12T08:19:48Z</time>
      </trkpt>
      <trkpt lat="47.14813" lon="5.85347">
        <ele>294.39999389648</ele>
        <time>2019-09-12T08:19:57Z</time>
      </trkpt>
      <trkpt lat="47.14846" lon="5.85364">
        <ele>294.39999389648</ele>
        <time>2019-09-12T08:20:04Z</time>
      </trkpt>
      <trkpt lat="47.1488" lon="5.85379">
        <ele>294.20001220703</ele>
        <time>2019-09-12T08:20:11Z</time>
      </trkpt>
      <trkpt lat="47.14899" lon="5.85387">
        <ele>294.20001220703</ele>
        <time>2019-09-12T08:20:15Z</time>
      </trkpt>
      <trkpt lat="47.14918" lon="5.85397">
        <ele>294.20001220703</ele>
        <time>2019-09-12T08:20:19Z</time>
      </trkpt>
      <trkpt lat="47.14962" lon="5.85417">
        <ele>294.39999389648</ele>
        <time>2019-09-12T08:20:28Z</time>
      </trkpt>
      <trkpt lat="47.14996" lon="5.85435">
        <ele>294.39999389648</ele>
        <time>2019-09-12T08:20:35Z</time>
      </trkpt>
      <trkpt lat="47.1503" lon="5.85452">
        <ele>294</ele>
        <time>2019-09-12T08:20:42Z</time>
      </trkpt>
      <trkpt lat="47.15062" lon="5.85468">
        <ele>294</ele>
        <time>2019-09-12T08:20:48Z</time>
      </trkpt>
      <trkpt lat="47.15071" lon="5.85473">
        <ele>294</ele>
        <time>2019-09-12T08:20:51Z</time>
      </trkpt>
      <trkpt lat="47.15104" lon="5.85489">
        <ele>293.79998779297</ele>
        <time>2019-09-12T08:20:58Z</time>
      </trkpt>
      <trkpt lat="47.15145" lon="5.85508">
        <ele>293.79998779297</ele>
        <time>2019-09-12T08:21:07Z</time>
      </trkpt>
      <trkpt lat="47.15192" lon="5.85528">
        <ele>293.79998779297</ele>
        <time>2019-09-12T08:21:17Z</time>
      </trkpt>
      <trkpt lat="47.15231" lon="5.85548">
        <ele>293.79998779297</ele>
        <time>2019-09-12T08:21:25Z</time>
      </trkpt>
      <trkpt lat="47.15249" lon="5.85558">
        <ele>293.79998779297</ele>
        <time>2019-09-12T08:21:29Z</time>
      </trkpt>
      <trkpt lat="47.15267" lon="5.85567">
        <ele>293.79998779297</ele>
        <time>2019-09-12T08:21:33Z</time>
      </trkpt>
      <trkpt lat="47.15306" lon="5.85583">
        <ele>294</ele>
        <time>2019-09-12T08:21:41Z</time>
      </trkpt>
      <trkpt lat="47.1535" lon="5.85599">
        <ele>293.79998779297</ele>
        <time>2019-09-12T08:21:50Z</time>
      </trkpt>
      <trkpt lat="47.15379" lon="5.85606">
        <ele>293.79998779297</ele>
        <time>2019-09-12T08:21:56Z</time>
      </trkpt>
      <trkpt lat="47.15409" lon="5.85609">
        <ele>293.79998779297</ele>
        <time>2019-09-12T08:22:02Z</time>
      </trkpt>
      <trkpt lat="47.15414" lon="5.8561">
        <ele>293.79998779297</ele>
        <time>2019-09-12T08:22:03Z</time>
      </trkpt>
      <trkpt lat="47.1544" lon="5.85615">
        <ele>293.60000610352</ele>
        <time>2019-09-12T08:22:08Z</time>
      </trkpt>
      <trkpt lat="47.15449" lon="5.85617">
        <ele>293.60000610352</ele>
        <time>2019-09-12T08:22:10Z</time>
      </trkpt>
      <trkpt lat="47.15457" lon="5.85616">
        <ele>293.60000610352</ele>
        <time>2019-09-12T08:22:12Z</time>
      </trkpt>
      <trkpt lat="47.15471" lon="5.85612">
        <ele>293.39999389648</ele>
        <time>2019-09-12T08:22:15Z</time>
      </trkpt>
      <trkpt lat="47.15503" lon="5.85616">
        <ele>293</ele>
        <time>2019-09-12T08:22:21Z</time>
      </trkpt>
      <trkpt lat="47.15512" lon="5.85617">
        <ele>293</ele>
        <time>2019-09-12T08:22:23Z</time>
      </trkpt>
      <trkpt lat="47.15525" lon="5.85616">
        <ele>293</ele>
        <time>2019-09-12T08:22:26Z</time>
      </trkpt>
      <trkpt lat="47.15529" lon="5.85614">
        <ele>293</ele>
        <time>2019-09-12T08:22:27Z</time>
      </trkpt>
      <trkpt lat="47.15534" lon="5.85614">
        <ele>293</ele>
        <time>2019-09-12T08:22:28Z</time>
      </trkpt>
      <trkpt lat="47.15557" lon="5.85612">
        <ele>293.20001220703</ele>
        <time>2019-09-12T08:22:33Z</time>
      </trkpt>
      <trkpt lat="47.15575" lon="5.85618">
        <ele>293.79998779297</ele>
        <time>2019-09-12T08:22:38Z</time>
      </trkpt>
      <trkpt lat="47.1558" lon="5.85633">
        <ele>294.39999389648</ele>
        <time>2019-09-12T08:22:42Z</time>
      </trkpt>
      <trkpt lat="47.15581" lon="5.85639">
        <ele>295</ele>
        <time>2019-09-12T08:22:44Z</time>
      </trkpt>
      <trkpt lat="47.15581" lon="5.85647">
        <ele>295.79998779297</ele>
        <time>2019-09-12T08:22:47Z</time>
      </trkpt>
      <trkpt lat="47.1558" lon="5.85653">
        <ele>296</ele>
        <time>2019-09-12T08:22:49Z</time>
      </trkpt>
      <trkpt lat="47.1558" lon="5.85662">
        <ele>296.60000610352</ele>
        <time>2019-09-12T08:22:51Z</time>
      </trkpt>
      <trkpt lat="47.15592" lon="5.85675">
        <ele>296.79998779297</ele>
        <time>2019-09-12T08:22:54Z</time>
      </trkpt>
      <trkpt lat="47.1561" lon="5.85673">
        <ele>296.79998779297</ele>
        <time>2019-09-12T08:22:57Z</time>
      </trkpt>
      <trkpt lat="47.15632" lon="5.85657">
        <ele>296</ele>
        <time>2019-09-12T08:23:01Z</time>
      </trkpt>
      <trkpt lat="47.1565" lon="5.85653">
        <ele>294.79998779297</ele>
        <time>2019-09-12T08:23:04Z</time>
      </trkpt>
      <trkpt lat="47.15661" lon="5.85651">
        <ele>294.60000610352</ele>
        <time>2019-09-12T08:23:06Z</time>
      </trkpt>
      <trkpt lat="47.15696" lon="5.85643">
        <ele>294</ele>
        <time>2019-09-12T08:23:13Z</time>
      </trkpt>
      <trkpt lat="47.15734" lon="5.85632">
        <ele>294</ele>
        <time>2019-09-12T08:23:21Z</time>
      </trkpt>
      <trkpt lat="47.15744" lon="5.85629">
        <ele>294</ele>
        <time>2019-09-12T08:23:23Z</time>
      </trkpt>
      <trkpt lat="47.15768" lon="5.85617">
        <ele>294</ele>
        <time>2019-09-12T08:23:28Z</time>
      </trkpt>
      <trkpt lat="47.15814" lon="5.8559">
        <ele>293.79998779297</ele>
        <time>2019-09-12T08:23:38Z</time>
      </trkpt>
      <trkpt lat="47.15819" lon="5.85586">
        <ele>293.79998779297</ele>
        <time>2019-09-12T08:23:39Z</time>
      </trkpt>
      <trkpt lat="47.15859" lon="5.85556">
        <ele>293.79998779297</ele>
        <time>2019-09-12T08:23:48Z</time>
      </trkpt>
      <trkpt lat="47.15908" lon="5.85516">
        <ele>293.60000610352</ele>
        <time>2019-09-12T08:23:59Z</time>
      </trkpt>
      <trkpt lat="47.15956" lon="5.85476">
        <ele>293.60000610352</ele>
        <time>2019-09-12T08:24:10Z</time>
      </trkpt>
      <trkpt lat="47.15991" lon="5.85448">
        <ele>293.79998779297</ele>
        <time>2019-09-12T08:24:18Z</time>
      </trkpt>
      <trkpt lat="47.1603" lon="5.85416">
        <ele>293.79998779297</ele>
        <time>2019-09-12T08:24:27Z</time>
      </trkpt>
      <trkpt lat="47.16078" lon="5.85378">
        <ele>293.60000610352</ele>
        <time>2019-09-12T08:24:38Z</time>
      </trkpt>
      <trkpt lat="47.16118" lon="5.85345">
        <ele>293.60000610352</ele>
        <time>2019-09-12T08:24:47Z</time>
      </trkpt>
      <trkpt lat="47.16149" lon="5.85321">
        <ele>293.60000610352</ele>
        <time>2019-09-12T08:24:54Z</time>
      </trkpt>
      <trkpt lat="47.16199" lon="5.85281">
        <ele>293.39999389648</ele>
        <time>2019-09-12T08:25:05Z</time>
      </trkpt>
      <trkpt lat="47.16208" lon="5.85274">
        <ele>293.20001220703</ele>
        <time>2019-09-12T08:25:07Z</time>
      </trkpt>
      <trkpt lat="47.16217" lon="5.85267">
        <ele>293.20001220703</ele>
        <time>2019-09-12T08:25:09Z</time>
      </trkpt>
      <trkpt lat="47.16252" lon="5.85237">
        <ele>293.20001220703</ele>
        <time>2019-09-12T08:25:17Z</time>
      </trkpt>
      <trkpt lat="47.16284" lon="5.85212">
        <ele>293</ele>
        <time>2019-09-12T08:25:24Z</time>
      </trkpt>
      <trkpt lat="47.16325" lon="5.85171">
        <ele>293</ele>
        <time>2019-09-12T08:25:34Z</time>
      </trkpt>
      <trkpt lat="47.16362" lon="5.85129">
        <ele>293.39999389648</ele>
        <time>2019-09-12T08:25:43Z</time>
      </trkpt>
      <trkpt lat="47.16404" lon="5.85074">
        <ele>293.20001220703</ele>
        <time>2019-09-12T08:25:54Z</time>
      </trkpt>
      <trkpt lat="47.16407" lon="5.85068">
        <ele>293.20001220703</ele>
        <time>2019-09-12T08:25:55Z</time>
      </trkpt>
      <trkpt lat="47.16443" lon="5.85014">
        <ele>293.20001220703</ele>
        <time>2019-09-12T08:26:05Z</time>
      </trkpt>
      <trkpt lat="47.16465" lon="5.84972">
        <ele>293</ele>
        <time>2019-09-12T08:26:12Z</time>
      </trkpt>
      <trkpt lat="47.16475" lon="5.84955">
        <ele>293</ele>
        <time>2019-09-12T08:26:15Z</time>
      </trkpt>
      <trkpt lat="47.16484" lon="5.84936">
        <ele>293</ele>
        <time>2019-09-12T08:26:18Z</time>
      </trkpt>
      <trkpt lat="47.16504" lon="5.84892">
        <ele>293</ele>
        <time>2019-09-12T08:26:25Z</time>
      </trkpt>
      <trkpt lat="47.16527" lon="5.84835">
        <ele>293.20001220703</ele>
        <time>2019-09-12T08:26:34Z</time>
      </trkpt>
      <trkpt lat="47.16546" lon="5.84782">
        <ele>293.39999389648</ele>
        <time>2019-09-12T08:26:42Z</time>
      </trkpt>
      <trkpt lat="47.16562" lon="5.84728">
        <ele>293.60000610352</ele>
        <time>2019-09-12T08:26:50Z</time>
      </trkpt>
      <trkpt lat="47.16567" lon="5.84707">
        <ele>293.60000610352</ele>
        <time>2019-09-12T08:26:53Z</time>
      </trkpt>
      <trkpt lat="47.16571" lon="5.84688">
        <ele>293.60000610352</ele>
        <time>2019-09-12T08:26:56Z</time>
      </trkpt>
      <trkpt lat="47.16578" lon="5.8465">
        <ele>293.39999389648</ele>
        <time>2019-09-12T08:27:02Z</time>
      </trkpt>
      <trkpt lat="47.1658" lon="5.84637">
        <ele>293.60000610352</ele>
        <time>2019-09-12T08:27:04Z</time>
      </trkpt>
      <trkpt lat="47.16585" lon="5.84616">
        <ele>293.60000610352</ele>
        <time>2019-09-12T08:27:07Z</time>
      </trkpt>
      <trkpt lat="47.16594" lon="5.84567">
        <ele>293.39999389648</ele>
        <time>2019-09-12T08:27:14Z</time>
      </trkpt>
      <trkpt lat="47.16604" lon="5.84517">
        <ele>293.20001220703</ele>
        <time>2019-09-12T08:27:21Z</time>
      </trkpt>
      <trkpt lat="47.16613" lon="5.8448">
        <ele>293.20001220703</ele>
        <time>2019-09-12T08:27:26Z</time>
      </trkpt>
      <trkpt lat="47.16617" lon="5.84459">
        <ele>293.20001220703</ele>
        <time>2019-09-12T08:27:29Z</time>
      </trkpt>
      <trkpt lat="47.16624" lon="5.84415">
        <ele>293.20001220703</ele>
        <time>2019-09-12T08:27:35Z</time>
      </trkpt>
      <trkpt lat="47.16635" lon="5.84346">
        <ele>293.20001220703</ele>
        <time>2019-09-12T08:27:44Z</time>
      </trkpt>
      <trkpt lat="47.16643" lon="5.84301">
        <ele>293</ele>
        <time>2019-09-12T08:27:50Z</time>
      </trkpt>
      <trkpt lat="47.16651" lon="5.84249">
        <ele>292.79998779297</ele>
        <time>2019-09-12T08:27:57Z</time>
      </trkpt>
      <trkpt lat="47.16653" lon="5.84234">
        <ele>292.79998779297</ele>
        <time>2019-09-12T08:27:59Z</time>
      </trkpt>
      <trkpt lat="47.16658" lon="5.84206">
        <ele>292.79998779297</ele>
        <time>2019-09-12T08:28:03Z</time>
      </trkpt>
      <trkpt lat="47.1666" lon="5.84199">
        <ele>292.79998779297</ele>
        <time>2019-09-12T08:28:04Z</time>
      </trkpt>
      <trkpt lat="47.16672" lon="5.84154">
        <ele>293</ele>
        <time>2019-09-12T08:28:11Z</time>
      </trkpt>
      <trkpt lat="47.16679" lon="5.84113">
        <ele>292.79998779297</ele>
        <time>2019-09-12T08:28:17Z</time>
      </trkpt>
      <trkpt lat="47.1668" lon="5.84106">
        <ele>292.60000610352</ele>
        <time>2019-09-12T08:28:18Z</time>
      </trkpt>
      <trkpt lat="47.16683" lon="5.84092">
        <ele>292.79998779297</ele>
        <time>2019-09-12T08:28:20Z</time>
      </trkpt>
      <trkpt lat="47.16687" lon="5.84069">
        <ele>292.60000610352</ele>
        <time>2019-09-12T08:28:23Z</time>
      </trkpt>
      <trkpt lat="47.16698" lon="5.84003">
        <ele>292.39999389648</ele>
        <time>2019-09-12T08:28:32Z</time>
      </trkpt>
      <trkpt lat="47.16711" lon="5.83931">
        <ele>292.20001220703</ele>
        <time>2019-09-12T08:28:42Z</time>
      </trkpt>
      <trkpt lat="47.16723" lon="5.83864">
        <ele>292.20001220703</ele>
        <time>2019-09-12T08:28:51Z</time>
      </trkpt>
      <trkpt lat="47.16734" lon="5.83782">
        <ele>292.20001220703</ele>
        <time>2019-09-12T08:29:02Z</time>
      </trkpt>
      <trkpt lat="47.16735" lon="5.83775">
        <ele>292.20001220703</ele>
        <time>2019-09-12T08:29:03Z</time>
      </trkpt>
      <trkpt lat="47.1674" lon="5.83716">
        <ele>292.20001220703</ele>
        <time>2019-09-12T08:29:11Z</time>
      </trkpt>
      <trkpt lat="47.16742" lon="5.83644">
        <ele>292.20001220703</ele>
        <time>2019-09-12T08:29:21Z</time>
      </trkpt>
      <trkpt lat="47.16742" lon="5.83562">
        <ele>292</ele>
        <time>2019-09-12T08:29:32Z</time>
      </trkpt>
      <trkpt lat="47.16742" lon="5.83555">
        <ele>292</ele>
        <time>2019-09-12T08:29:33Z</time>
      </trkpt>
      <trkpt lat="47.1674" lon="5.83503">
        <ele>291.79998779297</ele>
        <time>2019-09-12T08:29:40Z</time>
      </trkpt>
      <trkpt lat="47.16737" lon="5.83451">
        <ele>291.79998779297</ele>
        <time>2019-09-12T08:29:47Z</time>
      </trkpt>
      <trkpt lat="47.16735" lon="5.83437">
        <ele>291.79998779297</ele>
        <time>2019-09-12T08:29:49Z</time>
      </trkpt>
      <trkpt lat="47.16733" lon="5.83411">
        <ele>291.60000610352</ele>
        <time>2019-09-12T08:29:53Z</time>
      </trkpt>
      <trkpt lat="47.16726" lon="5.83362">
        <ele>291.60000610352</ele>
        <time>2019-09-12T08:30:00Z</time>
      </trkpt>
      <trkpt lat="47.16716" lon="5.83296">
        <ele>292</ele>
        <time>2019-09-12T08:30:09Z</time>
      </trkpt>
      <trkpt lat="47.16704" lon="5.83239">
        <ele>291.79998779297</ele>
        <time>2019-09-12T08:30:17Z</time>
      </trkpt>
      <trkpt lat="47.16689" lon="5.83186">
        <ele>291.79998779297</ele>
        <time>2019-09-12T08:30:25Z</time>
      </trkpt>
      <trkpt lat="47.16686" lon="5.83174">
        <ele>291.79998779297</ele>
        <time>2019-09-12T08:30:27Z</time>
      </trkpt>
      <trkpt lat="47.16674" lon="5.83133">
        <ele>291.79998779297</ele>
        <time>2019-09-12T08:30:33Z</time>
      </trkpt>
      <trkpt lat="47.16652" lon="5.83064">
        <ele>291.60000610352</ele>
        <time>2019-09-12T08:30:43Z</time>
      </trkpt>
      <trkpt lat="47.16635" lon="5.83002">
        <ele>291.60000610352</ele>
        <time>2019-09-12T08:30:52Z</time>
      </trkpt>
      <trkpt lat="47.16633" lon="5.82996">
        <ele>291.60000610352</ele>
        <time>2019-09-12T08:30:53Z</time>
      </trkpt>
      <trkpt lat="47.16624" lon="5.82981">
        <ele>291.60000610352</ele>
        <time>2019-09-12T08:30:56Z</time>
      </trkpt>
      <trkpt lat="47.16623" lon="5.82964">
        <ele>291.60000610352</ele>
        <time>2019-09-12T08:30:59Z</time>
      </trkpt>
      <trkpt lat="47.16623" lon="5.82957">
        <ele>291.39999389648</ele>
        <time>2019-09-12T08:31:00Z</time>
      </trkpt>
      <trkpt lat="47.16619" lon="5.82915">
        <ele>291.20001220703</ele>
        <time>2019-09-12T08:31:06Z</time>
      </trkpt>
      <trkpt lat="47.16615" lon="5.82856">
        <ele>291.20001220703</ele>
        <time>2019-09-12T08:31:14Z</time>
      </trkpt>
      <trkpt lat="47.1661" lon="5.82802">
        <ele>291.20001220703</ele>
        <time>2019-09-12T08:31:22Z</time>
      </trkpt>
      <trkpt lat="47.16613" lon="5.82768">
        <ele>291.39999389648</ele>
        <time>2019-09-12T08:31:27Z</time>
      </trkpt>
      <trkpt lat="47.16614" lon="5.82762">
        <ele>291.39999389648</ele>
        <time>2019-09-12T08:31:28Z</time>
      </trkpt>
      <trkpt lat="47.16616" lon="5.82733">
        <ele>291.39999389648</ele>
        <time>2019-09-12T08:31:33Z</time>
      </trkpt>
      <trkpt lat="47.16616" lon="5.82693">
        <ele>291.39999389648</ele>
        <time>2019-09-12T08:31:39Z</time>
      </trkpt>
      <trkpt lat="47.16616" lon="5.82678">
        <ele>291.39999389648</ele>
        <time>2019-09-12T08:31:41Z</time>
      </trkpt>
      <trkpt lat="47.16614" lon="5.82648">
        <ele>291.20001220703</ele>
        <time>2019-09-12T08:31:45Z</time>
      </trkpt>
      <trkpt lat="47.16613" lon="5.82598">
        <ele>291.20001220703</ele>
        <time>2019-09-12T08:31:52Z</time>
      </trkpt>
      <trkpt lat="47.16612" lon="5.82569">
        <ele>291.20001220703</ele>
        <time>2019-09-12T08:31:56Z</time>
      </trkpt>
      <trkpt lat="47.16612" lon="5.82546">
        <ele>291.20001220703</ele>
        <time>2019-09-12T08:31:59Z</time>
      </trkpt>
      <trkpt lat="47.16614" lon="5.82511">
        <ele>291</ele>
        <time>2019-09-12T08:32:04Z</time>
      </trkpt>
      <trkpt lat="47.16615" lon="5.82503">
        <ele>291</ele>
        <time>2019-09-12T08:32:05Z</time>
      </trkpt>
      <trkpt lat="47.16625" lon="5.82462">
        <ele>291</ele>
        <time>2019-09-12T08:32:11Z</time>
      </trkpt>
      <trkpt lat="47.16627" lon="5.82455">
        <ele>291</ele>
        <time>2019-09-12T08:32:12Z</time>
      </trkpt>
      <trkpt lat="47.16633" lon="5.82436">
        <ele>291</ele>
        <time>2019-09-12T08:32:15Z</time>
      </trkpt>
      <trkpt lat="47.16639" lon="5.82417">
        <ele>291</ele>
        <time>2019-09-12T08:32:18Z</time>
      </trkpt>
      <trkpt lat="47.16661" lon="5.82363">
        <ele>290.79998779297</ele>
        <time>2019-09-12T08:32:26Z</time>
      </trkpt>
      <trkpt lat="47.16679" lon="5.82318">
        <ele>290.79998779297</ele>
        <time>2019-09-12T08:32:33Z</time>
      </trkpt>
      <trkpt lat="47.16703" lon="5.8226">
        <ele>290.79998779297</ele>
        <time>2019-09-12T08:32:42Z</time>
      </trkpt>
      <trkpt lat="47.16724" lon="5.82209">
        <ele>291</ele>
        <time>2019-09-12T08:32:50Z</time>
      </trkpt>
      <trkpt lat="47.16742" lon="5.82157">
        <ele>291</ele>
        <time>2019-09-12T08:32:58Z</time>
      </trkpt>
      <trkpt lat="47.16755" lon="5.82117">
        <ele>291</ele>
        <time>2019-09-12T08:33:04Z</time>
      </trkpt>
      <trkpt lat="47.16773" lon="5.82058">
        <ele>291</ele>
        <time>2019-09-12T08:33:13Z</time>
      </trkpt>
      <trkpt lat="47.16783" lon="5.82">
        <ele>291</ele>
        <time>2019-09-12T08:33:21Z</time>
      </trkpt>
      <trkpt lat="47.1679" lon="5.81951">
        <ele>291</ele>
        <time>2019-09-12T08:33:28Z</time>
      </trkpt>
      <trkpt lat="47.16795" lon="5.81912">
        <ele>290.79998779297</ele>
        <time>2019-09-12T08:33:34Z</time>
      </trkpt>
      <trkpt lat="47.16802" lon="5.81864">
        <ele>290.79998779297</ele>
        <time>2019-09-12T08:33:40Z</time>
      </trkpt>
      <trkpt lat="47.16805" lon="5.81841">
        <ele>290.79998779297</ele>
        <time>2019-09-12T08:33:43Z</time>
      </trkpt>
      <trkpt lat="47.16808" lon="5.8181">
        <ele>290.39999389648</ele>
        <time>2019-09-12T08:33:47Z</time>
      </trkpt>
      <trkpt lat="47.16811" lon="5.8175">
        <ele>290.20001220703</ele>
        <time>2019-09-12T08:33:55Z</time>
      </trkpt>
      <trkpt lat="47.16813" lon="5.81699">
        <ele>290.20001220703</ele>
        <time>2019-09-12T08:34:02Z</time>
      </trkpt>
      <trkpt lat="47.1681" lon="5.81639">
        <ele>290.20001220703</ele>
        <time>2019-09-12T08:34:10Z</time>
      </trkpt>
      <trkpt lat="47.16809" lon="5.81578">
        <ele>290.20001220703</ele>
        <time>2019-09-12T08:34:18Z</time>
      </trkpt>
      <trkpt lat="47.16808" lon="5.81519">
        <ele>290</ele>
        <time>2019-09-12T08:34:26Z</time>
      </trkpt>
      <trkpt lat="47.16807" lon="5.81468">
        <ele>290</ele>
        <time>2019-09-12T08:34:33Z</time>
      </trkpt>
      <trkpt lat="47.16807" lon="5.8146">
        <ele>290</ele>
        <time>2019-09-12T08:34:34Z</time>
      </trkpt>
      <trkpt lat="47.16809" lon="5.81437">
        <ele>290</ele>
        <time>2019-09-12T08:34:37Z</time>
      </trkpt>
      <trkpt lat="47.16811" lon="5.81422">
        <ele>290</ele>
        <time>2019-09-12T08:34:39Z</time>
      </trkpt>
      <trkpt lat="47.16822" lon="5.81366">
        <ele>290</ele>
        <time>2019-09-12T08:34:47Z</time>
      </trkpt>
      <trkpt lat="47.16834" lon="5.81335">
        <ele>289.79998779297</ele>
        <time>2019-09-12T08:34:52Z</time>
      </trkpt>
      <trkpt lat="47.16841" lon="5.81324">
        <ele>289.79998779297</ele>
        <time>2019-09-12T08:34:54Z</time>
      </trkpt>
      <trkpt lat="47.16873" lon="5.81286">
        <ele>289.60000610352</ele>
        <time>2019-09-12T08:35:02Z</time>
      </trkpt>
      <trkpt lat="47.1689" lon="5.81269">
        <ele>289.39999389648</ele>
        <time>2019-09-12T08:35:06Z</time>
      </trkpt>
      <trkpt lat="47.16898" lon="5.81261">
        <ele>289.39999389648</ele>
        <time>2019-09-12T08:35:08Z</time>
      </trkpt>
      <trkpt lat="47.16936" lon="5.81223">
        <ele>289.20001220703</ele>
        <time>2019-09-12T08:35:17Z</time>
      </trkpt>
      <trkpt lat="47.16959" lon="5.81181">
        <ele>289.20001220703</ele>
        <time>2019-09-12T08:35:24Z</time>
      </trkpt>
      <trkpt lat="47.16982" lon="5.81146">
        <ele>289</ele>
        <time>2019-09-12T08:35:30Z</time>
      </trkpt>
      <trkpt lat="47.1699" lon="5.81135">
        <ele>288.79998779297</ele>
        <time>2019-09-12T08:35:32Z</time>
      </trkpt>
      <trkpt lat="47.17017" lon="5.8109">
        <ele>288.60000610352</ele>
        <time>2019-09-12T08:35:40Z</time>
      </trkpt>
      <trkpt lat="47.1705" lon="5.81043">
        <ele>288.79998779297</ele>
        <time>2019-09-12T08:35:49Z</time>
      </trkpt>
      <trkpt lat="47.17071" lon="5.81002">
        <ele>288.79998779297</ele>
        <time>2019-09-12T08:35:56Z</time>
      </trkpt>
      <trkpt lat="47.17078" lon="5.80991">
        <ele>288.79998779297</ele>
        <time>2019-09-12T08:35:58Z</time>
      </trkpt>
      <trkpt lat="47.17094" lon="5.80964">
        <ele>288.79998779297</ele>
        <time>2019-09-12T08:36:03Z</time>
      </trkpt>
      <trkpt lat="47.17119" lon="5.80917">
        <ele>288.79998779297</ele>
        <time>2019-09-12T08:36:11Z</time>
      </trkpt>
      <trkpt lat="47.17139" lon="5.80875">
        <ele>288.60000610352</ele>
        <time>2019-09-12T08:36:18Z</time>
      </trkpt>
      <trkpt lat="47.17167" lon="5.80814">
        <ele>288.79998779297</ele>
        <time>2019-09-12T08:36:28Z</time>
      </trkpt>
      <trkpt lat="47.17192" lon="5.8076">
        <ele>288.60000610352</ele>
        <time>2019-09-12T08:36:37Z</time>
      </trkpt>
      <trkpt lat="47.17206" lon="5.80717">
        <ele>288.60000610352</ele>
        <time>2019-09-12T08:36:44Z</time>
      </trkpt>
      <trkpt lat="47.17227" lon="5.8066">
        <ele>288.60000610352</ele>
        <time>2019-09-12T08:36:53Z</time>
      </trkpt>
      <trkpt lat="47.17243" lon="5.80608">
        <ele>288.60000610352</ele>
        <time>2019-09-12T08:37:01Z</time>
      </trkpt>
      <trkpt lat="47.17257" lon="5.80554">
        <ele>288.79998779297</ele>
        <time>2019-09-12T08:37:09Z</time>
      </trkpt>
      <trkpt lat="47.17272" lon="5.805">
        <ele>288.60000610352</ele>
        <time>2019-09-12T08:37:17Z</time>
      </trkpt>
      <trkpt lat="47.17282" lon="5.80458">
        <ele>288.60000610352</ele>
        <time>2019-09-12T08:37:23Z</time>
      </trkpt>
      <trkpt lat="47.17284" lon="5.80444">
        <ele>288.39999389648</ele>
        <time>2019-09-12T08:37:25Z</time>
      </trkpt>
      <trkpt lat="47.17295" lon="5.8038">
        <ele>288.39999389648</ele>
        <time>2019-09-12T08:37:34Z</time>
      </trkpt>
      <trkpt lat="47.17299" lon="5.80322">
        <ele>288.20001220703</ele>
        <time>2019-09-12T08:37:42Z</time>
      </trkpt>
      <trkpt lat="47.173" lon="5.80271">
        <ele>288.20001220703</ele>
        <time>2019-09-12T08:37:49Z</time>
      </trkpt>
      <trkpt lat="47.1731" lon="5.80193">
        <ele>288.39999389648</ele>
        <time>2019-09-12T08:38:00Z</time>
      </trkpt>
      <trkpt lat="47.17316" lon="5.80143">
        <ele>288.39999389648</ele>
        <time>2019-09-12T08:38:07Z</time>
      </trkpt>
      <trkpt lat="47.17321" lon="5.80086">
        <ele>288</ele>
        <time>2019-09-12T08:38:15Z</time>
      </trkpt>
      <trkpt lat="47.17329" lon="5.80029">
        <ele>288</ele>
        <time>2019-09-12T08:38:23Z</time>
      </trkpt>
      <trkpt lat="47.17337" lon="5.79965">
        <ele>288</ele>
        <time>2019-09-12T08:38:32Z</time>
      </trkpt>
      <trkpt lat="47.17339" lon="5.7995">
        <ele>287.79998779297</ele>
        <time>2019-09-12T08:38:34Z</time>
      </trkpt>
      <trkpt lat="47.17344" lon="5.79906">
        <ele>287.79998779297</ele>
        <time>2019-09-12T08:38:40Z</time>
      </trkpt>
      <trkpt lat="47.17349" lon="5.7987">
        <ele>287.60000610352</ele>
        <time>2019-09-12T08:38:45Z</time>
      </trkpt>
      <trkpt lat="47.17352" lon="5.79848">
        <ele>287.60000610352</ele>
        <time>2019-09-12T08:38:48Z</time>
      </trkpt>
      <trkpt lat="47.17362" lon="5.79797">
        <ele>287.60000610352</ele>
        <time>2019-09-12T08:38:56Z</time>
      </trkpt>
      <trkpt lat="47.17369" lon="5.79761">
        <ele>287.20001220703</ele>
        <time>2019-09-12T08:39:02Z</time>
      </trkpt>
      <trkpt lat="47.17381" lon="5.79704">
        <ele>287.20001220703</ele>
        <time>2019-09-12T08:39:11Z</time>
      </trkpt>
      <trkpt lat="47.17391" lon="5.79656">
        <ele>287.39999389648</ele>
        <time>2019-09-12T08:39:18Z</time>
      </trkpt>
      <trkpt lat="47.17403" lon="5.79599">
        <ele>287.39999389648</ele>
        <time>2019-09-12T08:39:26Z</time>
      </trkpt>
      <trkpt lat="47.17411" lon="5.79544">
        <ele>287.60000610352</ele>
        <time>2019-09-12T08:39:34Z</time>
      </trkpt>
      <trkpt lat="47.17415" lon="5.79525">
        <ele>287.60000610352</ele>
        <time>2019-09-12T08:39:37Z</time>
      </trkpt>
      <trkpt lat="47.17422" lon="5.795">
        <ele>287.79998779297</ele>
        <time>2019-09-12T08:39:41Z</time>
      </trkpt>
      <trkpt lat="47.17424" lon="5.79494">
        <ele>287.79998779297</ele>
        <time>2019-09-12T08:39:42Z</time>
      </trkpt>
      <trkpt lat="47.17438" lon="5.79466">
        <ele>288.20001220703</ele>
        <time>2019-09-12T08:39:47Z</time>
      </trkpt>
      <trkpt lat="47.17459" lon="5.79427">
        <ele>288.60000610352</ele>
        <time>2019-09-12T08:39:54Z</time>
      </trkpt>
      <trkpt lat="47.17485" lon="5.79385">
        <ele>288.60000610352</ele>
        <time>2019-09-12T08:40:02Z</time>
      </trkpt>
      <trkpt lat="47.17504" lon="5.79357">
        <ele>288.60000610352</ele>
        <time>2019-09-12T08:40:08Z</time>
      </trkpt>
      <trkpt lat="47.1751" lon="5.79332">
        <ele>288.60000610352</ele>
        <time>2019-09-12T08:40:13Z</time>
      </trkpt>
      <trkpt lat="47.17506" lon="5.79311">
        <ele>288.60000610352</ele>
        <time>2019-09-12T08:40:17Z</time>
      </trkpt>
      <trkpt lat="47.17504" lon="5.79307">
        <ele>288.60000610352</ele>
        <time>2019-09-12T08:40:18Z</time>
      </trkpt>
      <trkpt lat="47.17484" lon="5.79273">
        <ele>288.60000610352</ele>
        <time>2019-09-12T08:40:25Z</time>
      </trkpt>
      <trkpt lat="47.17461" lon="5.79238">
        <ele>288.79998779297</ele>
        <time>2019-09-12T08:40:33Z</time>
      </trkpt>
      <trkpt lat="47.17449" lon="5.79221">
        <ele>289</ele>
        <time>2019-09-12T08:40:37Z</time>
      </trkpt>
      <trkpt lat="47.17442" lon="5.79213">
        <ele>289</ele>
        <time>2019-09-12T08:40:39Z</time>
      </trkpt>
      <trkpt lat="47.17423" lon="5.79191">
        <ele>289</ele>
        <time>2019-09-12T08:40:43Z</time>
      </trkpt>
      <trkpt lat="47.17419" lon="5.79185">
        <ele>289</ele>
        <time>2019-09-12T08:40:44Z</time>
      </trkpt>
      <trkpt lat="47.17409" lon="5.79166">
        <ele>288.60000610352</ele>
        <time>2019-09-12T08:40:47Z</time>
      </trkpt>
      <trkpt lat="47.17404" lon="5.79153">
        <ele>288</ele>
        <time>2019-09-12T08:40:49Z</time>
      </trkpt>
      <trkpt lat="47.17402" lon="5.79146">
        <ele>288</ele>
        <time>2019-09-12T08:40:50Z</time>
      </trkpt>
      <trkpt lat="47.17395" lon="5.79102">
        <ele>287.79998779297</ele>
        <time>2019-09-12T08:40:56Z</time>
      </trkpt>
      <trkpt lat="47.17393" lon="5.79081">
        <ele>287.60000610352</ele>
        <time>2019-09-12T08:40:59Z</time>
      </trkpt>
      <trkpt lat="47.1739" lon="5.79061">
        <ele>287.60000610352</ele>
        <time>2019-09-12T08:41:02Z</time>
      </trkpt>
      <trkpt lat="47.17389" lon="5.79054">
        <ele>287.60000610352</ele>
        <time>2019-09-12T08:41:03Z</time>
      </trkpt>
      <trkpt lat="47.17386" lon="5.7903">
        <ele>287.79998779297</ele>
        <time>2019-09-12T08:41:07Z</time>
      </trkpt>
      <trkpt lat="47.17378" lon="5.78978">
        <ele>288</ele>
        <time>2019-09-12T08:41:15Z</time>
      </trkpt>
      <trkpt lat="47.17366" lon="5.78923">
        <ele>288.20001220703</ele>
        <time>2019-09-12T08:41:23Z</time>
      </trkpt>
      <trkpt lat="47.17355" lon="5.78865">
        <ele>288.20001220703</ele>
        <time>2019-09-12T08:41:31Z</time>
      </trkpt>
      <trkpt lat="47.17342" lon="5.78817">
        <ele>288</ele>
        <time>2019-09-12T08:41:38Z</time>
      </trkpt>
      <trkpt lat="47.17326" lon="5.78773">
        <ele>288</ele>
        <time>2019-09-12T08:41:45Z</time>
      </trkpt>
      <trkpt lat="47.17308" lon="5.78731">
        <ele>288.20001220703</ele>
        <time>2019-09-12T08:41:52Z</time>
      </trkpt>
      <trkpt lat="47.17305" lon="5.78725">
        <ele>288.20001220703</ele>
        <time>2019-09-12T08:41:53Z</time>
      </trkpt>
      <trkpt lat="47.1729" lon="5.78688">
        <ele>288.39999389648</ele>
        <time>2019-09-12T08:41:59Z</time>
      </trkpt>
      <trkpt lat="47.17287" lon="5.78682">
        <ele>288.39999389648</ele>
        <time>2019-09-12T08:42:00Z</time>
      </trkpt>
      <trkpt lat="47.17264" lon="5.78634">
        <ele>288.39999389648</ele>
        <time>2019-09-12T08:42:08Z</time>
      </trkpt>
      <trkpt lat="47.1724" lon="5.78594">
        <ele>288.39999389648</ele>
        <time>2019-09-12T08:42:15Z</time>
      </trkpt>
      <trkpt lat="47.17216" lon="5.78558">
        <ele>288.60000610352</ele>
        <time>2019-09-12T08:42:22Z</time>
      </trkpt>
      <trkpt lat="47.17188" lon="5.78528">
        <ele>288.60000610352</ele>
        <time>2019-09-12T08:42:29Z</time>
      </trkpt>
      <trkpt lat="47.17157" lon="5.78502">
        <ele>288.60000610352</ele>
        <time>2019-09-12T08:42:36Z</time>
      </trkpt>
      <trkpt lat="47.17113" lon="5.78466">
        <ele>288.39999389648</ele>
        <time>2019-09-12T08:42:46Z</time>
      </trkpt>
      <trkpt lat="47.17073" lon="5.78434">
        <ele>288.39999389648</ele>
        <time>2019-09-12T08:42:55Z</time>
      </trkpt>
      <trkpt lat="47.17036" lon="5.78406">
        <ele>288.39999389648</ele>
        <time>2019-09-12T08:43:03Z</time>
      </trkpt>
      <trkpt lat="47.17001" lon="5.78382">
        <ele>288.20001220703</ele>
        <time>2019-09-12T08:43:11Z</time>
      </trkpt>
      <trkpt lat="47.16992" lon="5.78377">
        <ele>288.20001220703</ele>
        <time>2019-09-12T08:43:13Z</time>
      </trkpt>
      <trkpt lat="47.16973" lon="5.7837">
        <ele>288</ele>
        <time>2019-09-12T08:43:17Z</time>
      </trkpt>
      <trkpt lat="47.16931" lon="5.7835">
        <ele>288</ele>
        <time>2019-09-12T08:43:26Z</time>
      </trkpt>
      <trkpt lat="47.16895" lon="5.78335">
        <ele>288</ele>
        <time>2019-09-12T08:43:34Z</time>
      </trkpt>
      <trkpt lat="47.16891" lon="5.78332">
        <ele>288</ele>
        <time>2019-09-12T08:43:35Z</time>
      </trkpt>
      <trkpt lat="47.16878" lon="5.78324">
        <ele>288</ele>
        <time>2019-09-12T08:43:38Z</time>
      </trkpt>
      <trkpt lat="47.16874" lon="5.78322">
        <ele>288</ele>
        <time>2019-09-12T08:43:39Z</time>
      </trkpt>
      <trkpt lat="47.16857" lon="5.78309">
        <ele>288</ele>
        <time>2019-09-12T08:43:43Z</time>
      </trkpt>
      <trkpt lat="47.16823" lon="5.78281">
        <ele>287.79998779297</ele>
        <time>2019-09-12T08:43:51Z</time>
      </trkpt>
      <trkpt lat="47.16794" lon="5.78257">
        <ele>287.79998779297</ele>
        <time>2019-09-12T08:43:58Z</time>
      </trkpt>
      <trkpt lat="47.16767" lon="5.78237">
        <ele>287.60000610352</ele>
        <time>2019-09-12T08:44:04Z</time>
      </trkpt>
      <trkpt lat="47.16737" lon="5.7821">
        <ele>287.60000610352</ele>
        <time>2019-09-12T08:44:11Z</time>
      </trkpt>
      <trkpt lat="47.16702" lon="5.78179">
        <ele>287.39999389648</ele>
        <time>2019-09-12T08:44:19Z</time>
      </trkpt>
      <trkpt lat="47.16659" lon="5.7814">
        <ele>287.39999389648</ele>
        <time>2019-09-12T08:44:29Z</time>
      </trkpt>
      <trkpt lat="47.16611" lon="5.78096">
        <ele>287.39999389648</ele>
        <time>2019-09-12T08:44:40Z</time>
      </trkpt>
      <trkpt lat="47.16573" lon="5.78061">
        <ele>287.39999389648</ele>
        <time>2019-09-12T08:44:49Z</time>
      </trkpt>
      <trkpt lat="47.16535" lon="5.78027">
        <ele>287.20001220703</ele>
        <time>2019-09-12T08:44:58Z</time>
      </trkpt>
      <trkpt lat="47.16512" lon="5.78001">
        <ele>287</ele>
        <time>2019-09-12T08:45:04Z</time>
      </trkpt>
      <trkpt lat="47.16482" lon="5.77963">
        <ele>286.79998779297</ele>
        <time>2019-09-12T08:45:12Z</time>
      </trkpt>
      <trkpt lat="47.16447" lon="5.77924">
        <ele>286.60000610352</ele>
        <time>2019-09-12T08:45:21Z</time>
      </trkpt>
      <trkpt lat="47.16424" lon="5.77898">
        <ele>286.79998779297</ele>
        <time>2019-09-12T08:45:27Z</time>
      </trkpt>
      <trkpt lat="47.16395" lon="5.77855">
        <ele>287</ele>
        <time>2019-09-12T08:45:35Z</time>
      </trkpt>
      <trkpt lat="47.16368" lon="5.77809">
        <ele>287.20001220703</ele>
        <time>2019-09-12T08:45:43Z</time>
      </trkpt>
      <trkpt lat="47.1634" lon="5.77759">
        <ele>287.20001220703</ele>
        <time>2019-09-12T08:45:52Z</time>
      </trkpt>
      <trkpt lat="47.16338" lon="5.77754">
        <ele>287.20001220703</ele>
        <time>2019-09-12T08:45:53Z</time>
      </trkpt>
      <trkpt lat="47.16329" lon="5.77734">
        <ele>287.20001220703</ele>
        <time>2019-09-12T08:45:57Z</time>
      </trkpt>
      <trkpt lat="47.16301" lon="5.77672">
        <ele>287.20001220703</ele>
        <time>2019-09-12T08:46:07Z</time>
      </trkpt>
      <trkpt lat="47.16288" lon="5.77634">
        <ele>287.20001220703</ele>
        <time>2019-09-12T08:46:13Z</time>
      </trkpt>
      <trkpt lat="47.1627" lon="5.77588">
        <ele>287</ele>
        <time>2019-09-12T08:46:20Z</time>
      </trkpt>
      <trkpt lat="47.16254" lon="5.77543">
        <ele>286.79998779297</ele>
        <time>2019-09-12T08:46:27Z</time>
      </trkpt>
      <trkpt lat="47.16243" lon="5.77516">
        <ele>287</ele>
        <time>2019-09-12T08:46:32Z</time>
      </trkpt>
      <trkpt lat="47.16229" lon="5.77467">
        <ele>287</ele>
        <time>2019-09-12T08:46:39Z</time>
      </trkpt>
      <trkpt lat="47.16216" lon="5.77415">
        <ele>286.79998779297</ele>
        <time>2019-09-12T08:46:46Z</time>
      </trkpt>
      <trkpt lat="47.16205" lon="5.77383">
        <ele>286.79998779297</ele>
        <time>2019-09-12T08:46:51Z</time>
      </trkpt>
      <trkpt lat="47.16193" lon="5.77345">
        <ele>286.79998779297</ele>
        <time>2019-09-12T08:46:57Z</time>
      </trkpt>
      <trkpt lat="47.16179" lon="5.77297">
        <ele>286.79998779297</ele>
        <time>2019-09-12T08:47:04Z</time>
      </trkpt>
      <trkpt lat="47.16168" lon="5.77263">
        <ele>286.60000610352</ele>
        <time>2019-09-12T08:47:09Z</time>
      </trkpt>
      <trkpt lat="47.16163" lon="5.77242">
        <ele>286.60000610352</ele>
        <time>2019-09-12T08:47:12Z</time>
      </trkpt>
      <trkpt lat="47.1615" lon="5.77185">
        <ele>286.60000610352</ele>
        <time>2019-09-12T08:47:20Z</time>
      </trkpt>
      <trkpt lat="47.16139" lon="5.77135">
        <ele>286.79998779297</ele>
        <time>2019-09-12T08:47:27Z</time>
      </trkpt>
      <trkpt lat="47.16129" lon="5.77086">
        <ele>286.79998779297</ele>
        <time>2019-09-12T08:47:34Z</time>
      </trkpt>
      <trkpt lat="47.16112" lon="5.77018">
        <ele>286.79998779297</ele>
        <time>2019-09-12T08:47:44Z</time>
      </trkpt>
      <trkpt lat="47.16106" lon="5.76991">
        <ele>286.79998779297</ele>
        <time>2019-09-12T08:47:48Z</time>
      </trkpt>
      <trkpt lat="47.16102" lon="5.76969">
        <ele>286.79998779297</ele>
        <time>2019-09-12T08:47:51Z</time>
      </trkpt>
      <trkpt lat="47.16093" lon="5.76928">
        <ele>286.79998779297</ele>
        <time>2019-09-12T08:47:57Z</time>
      </trkpt>
      <trkpt lat="47.16091" lon="5.76922">
        <ele>286.79998779297</ele>
        <time>2019-09-12T08:47:58Z</time>
      </trkpt>
      <trkpt lat="47.16076" lon="5.76894">
        <ele>286.79998779297</ele>
        <time>2019-09-12T08:48:04Z</time>
      </trkpt>
      <trkpt lat="47.16057" lon="5.76869">
        <ele>286.79998779297</ele>
        <time>2019-09-12T08:48:10Z</time>
      </trkpt>
      <trkpt lat="47.16037" lon="5.76847">
        <ele>286.60000610352</ele>
        <time>2019-09-12T08:48:16Z</time>
      </trkpt>
      <trkpt lat="47.16014" lon="5.76823">
        <ele>286.60000610352</ele>
        <time>2019-09-12T08:48:22Z</time>
      </trkpt>
      <trkpt lat="47.15999" lon="5.76795">
        <ele>286.60000610352</ele>
        <time>2019-09-12T08:48:26Z</time>
      </trkpt>
      <trkpt lat="47.15996" lon="5.76788">
        <ele>286.60000610352</ele>
        <time>2019-09-12T08:48:27Z</time>
      </trkpt>
      <trkpt lat="47.15983" lon="5.76741">
        <ele>286.79998779297</ele>
        <time>2019-09-12T08:48:34Z</time>
      </trkpt>
      <trkpt lat="47.15969" lon="5.76691">
        <ele>287.20001220703</ele>
        <time>2019-09-12T08:48:41Z</time>
      </trkpt>
      <trkpt lat="47.15955" lon="5.76644">
        <ele>287.20001220703</ele>
        <time>2019-09-12T08:48:48Z</time>
      </trkpt>
      <trkpt lat="47.15948" lon="5.76618">
        <ele>287.20001220703</ele>
        <time>2019-09-12T08:48:52Z</time>
      </trkpt>
      <trkpt lat="47.15943" lon="5.76604">
        <ele>287.20001220703</ele>
        <time>2019-09-12T08:48:54Z</time>
      </trkpt>
      <trkpt lat="47.15929" lon="5.76558">
        <ele>287</ele>
        <time>2019-09-12T08:49:01Z</time>
      </trkpt>
      <trkpt lat="47.15916" lon="5.7652">
        <ele>287.20001220703</ele>
        <time>2019-09-12T08:49:07Z</time>
      </trkpt>
      <trkpt lat="47.15903" lon="5.76472">
        <ele>287</ele>
        <time>2019-09-12T08:49:14Z</time>
      </trkpt>
      <trkpt lat="47.1589" lon="5.76423">
        <ele>287</ele>
        <time>2019-09-12T08:49:21Z</time>
      </trkpt>
      <trkpt lat="47.15879" lon="5.76381">
        <ele>286.79998779297</ele>
        <time>2019-09-12T08:49:27Z</time>
      </trkpt>
      <trkpt lat="47.15866" lon="5.76341">
        <ele>286.79998779297</ele>
        <time>2019-09-12T08:49:33Z</time>
      </trkpt>
      <trkpt lat="47.15864" lon="5.76334">
        <ele>286.79998779297</ele>
        <time>2019-09-12T08:49:34Z</time>
      </trkpt>
      <trkpt lat="47.15847" lon="5.76278">
        <ele>287</ele>
        <time>2019-09-12T08:49:42Z</time>
      </trkpt>
      <trkpt lat="47.15833" lon="5.76238">
        <ele>287</ele>
        <time>2019-09-12T08:49:48Z</time>
      </trkpt>
      <trkpt lat="47.15831" lon="5.76232">
        <ele>287</ele>
        <time>2019-09-12T08:49:49Z</time>
      </trkpt>
      <trkpt lat="47.15821" lon="5.76199">
        <ele>287</ele>
        <time>2019-09-12T08:49:54Z</time>
      </trkpt>
      <trkpt lat="47.15806" lon="5.76153">
        <ele>287</ele>
        <time>2019-09-12T08:50:01Z</time>
      </trkpt>
      <trkpt lat="47.15802" lon="5.7614">
        <ele>287</ele>
        <time>2019-09-12T08:50:03Z</time>
      </trkpt>
      <trkpt lat="47.15801" lon="5.76134">
        <ele>287</ele>
        <time>2019-09-12T08:50:04Z</time>
      </trkpt>
      <trkpt lat="47.1579" lon="5.76098">
        <ele>286.79998779297</ele>
        <time>2019-09-12T08:50:09Z</time>
      </trkpt>
      <trkpt lat="47.15778" lon="5.76056">
        <ele>286.79998779297</ele>
        <time>2019-09-12T08:50:15Z</time>
      </trkpt>
      <trkpt lat="47.15771" lon="5.76031">
        <ele>287</ele>
        <time>2019-09-12T08:50:20Z</time>
      </trkpt>
      <trkpt lat="47.1577" lon="5.76024">
        <ele>287.39999389648</ele>
        <time>2019-09-12T08:50:25Z</time>
      </trkpt>
      <trkpt lat="47.15768" lon="5.7602">
        <ele>288.60000610352</ele>
        <time>2019-09-12T08:50:52Z</time>
      </trkpt>
      <trkpt lat="47.15766" lon="5.76014">
        <ele>288.60000610352</ele>
        <time>2019-09-12T08:50:54Z</time>
      </trkpt>
      <trkpt lat="47.1576" lon="5.75994">
        <ele>288.60000610352</ele>
        <time>2019-09-12T08:50:58Z</time>
      </trkpt>
      <trkpt lat="47.15748" lon="5.75952">
        <ele>288.39999389648</ele>
        <time>2019-09-12T08:51:03Z</time>
      </trkpt>
      <trkpt lat="47.15741" lon="5.75926">
        <ele>287.39999389648</ele>
        <time>2019-09-12T08:51:06Z</time>
      </trkpt>
      <trkpt lat="47.15737" lon="5.7591">
        <ele>286.20001220703</ele>
        <time>2019-09-12T08:51:08Z</time>
      </trkpt>
      <trkpt lat="47.15732" lon="5.75894">
        <ele>285.60000610352</ele>
        <time>2019-09-12T08:51:10Z</time>
      </trkpt>
      <trkpt lat="47.15726" lon="5.75872">
        <ele>285.20001220703</ele>
        <time>2019-09-12T08:51:13Z</time>
      </trkpt>
      <trkpt lat="47.15713" lon="5.75828">
        <ele>285</ele>
        <time>2019-09-12T08:51:19Z</time>
      </trkpt>
      <trkpt lat="47.15704" lon="5.758">
        <ele>285</ele>
        <time>2019-09-12T08:51:23Z</time>
      </trkpt>
      <trkpt lat="47.157" lon="5.75787">
        <ele>285</ele>
        <time>2019-09-12T08:51:25Z</time>
      </trkpt>
      <trkpt lat="47.15681" lon="5.75723">
        <ele>285.20001220703</ele>
        <time>2019-09-12T08:51:34Z</time>
      </trkpt>
      <trkpt lat="47.15663" lon="5.75668">
        <ele>285.20001220703</ele>
        <time>2019-09-12T08:51:42Z</time>
      </trkpt>
      <trkpt lat="47.15647" lon="5.75606">
        <ele>285.20001220703</ele>
        <time>2019-09-12T08:51:51Z</time>
      </trkpt>
      <trkpt lat="47.15629" lon="5.75542">
        <ele>285</ele>
        <time>2019-09-12T08:52:00Z</time>
      </trkpt>
      <trkpt lat="47.1561" lon="5.75472">
        <ele>284.79998779297</ele>
        <time>2019-09-12T08:52:10Z</time>
      </trkpt>
      <trkpt lat="47.15589" lon="5.75402">
        <ele>284.79998779297</ele>
        <time>2019-09-12T08:52:20Z</time>
      </trkpt>
      <trkpt lat="47.15567" lon="5.75328">
        <ele>284.60000610352</ele>
        <time>2019-09-12T08:52:31Z</time>
      </trkpt>
      <trkpt lat="47.15557" lon="5.75294">
        <ele>284.39999389648</ele>
        <time>2019-09-12T08:52:36Z</time>
      </trkpt>
      <trkpt lat="47.15549" lon="5.75267">
        <ele>284.39999389648</ele>
        <time>2019-09-12T08:52:40Z</time>
      </trkpt>
      <trkpt lat="47.1554" lon="5.75234">
        <ele>284.20001220703</ele>
        <time>2019-09-12T08:52:45Z</time>
      </trkpt>
      <trkpt lat="47.15529" lon="5.75194">
        <ele>284.20001220703</ele>
        <time>2019-09-12T08:52:51Z</time>
      </trkpt>
      <trkpt lat="47.15513" lon="5.75142">
        <ele>284.20001220703</ele>
        <time>2019-09-12T08:52:59Z</time>
      </trkpt>
      <trkpt lat="47.15511" lon="5.75135">
        <ele>284.20001220703</ele>
        <time>2019-09-12T08:53:00Z</time>
      </trkpt>
      <trkpt lat="47.15503" lon="5.7511">
        <ele>284.39999389648</ele>
        <time>2019-09-12T08:53:04Z</time>
      </trkpt>
      <trkpt lat="47.15486" lon="5.75055">
        <ele>284.39999389648</ele>
        <time>2019-09-12T08:53:12Z</time>
      </trkpt>
      <trkpt lat="47.15472" lon="5.75007">
        <ele>284.39999389648</ele>
        <time>2019-09-12T08:53:19Z</time>
      </trkpt>
      <trkpt lat="47.15458" lon="5.7496">
        <ele>284.20001220703</ele>
        <time>2019-09-12T08:53:26Z</time>
      </trkpt>
      <trkpt lat="47.15456" lon="5.74954">
        <ele>284.20001220703</ele>
        <time>2019-09-12T08:53:27Z</time>
      </trkpt>
      <trkpt lat="47.15447" lon="5.74921">
        <ele>284.20001220703</ele>
        <time>2019-09-12T08:53:32Z</time>
      </trkpt>
      <trkpt lat="47.15432" lon="5.74876">
        <ele>284.20001220703</ele>
        <time>2019-09-12T08:53:39Z</time>
      </trkpt>
      <trkpt lat="47.1543" lon="5.7487">
        <ele>284.20001220703</ele>
        <time>2019-09-12T08:53:40Z</time>
      </trkpt>
      <trkpt lat="47.15421" lon="5.74846">
        <ele>284.20001220703</ele>
        <time>2019-09-12T08:53:44Z</time>
      </trkpt>
      <trkpt lat="47.15407" lon="5.748">
        <ele>284.20001220703</ele>
        <time>2019-09-12T08:53:51Z</time>
      </trkpt>
      <trkpt lat="47.15392" lon="5.74761">
        <ele>284</ele>
        <time>2019-09-12T08:53:58Z</time>
      </trkpt>
      <trkpt lat="47.15384" lon="5.74743">
        <ele>283.79998779297</ele>
        <time>2019-09-12T08:54:01Z</time>
      </trkpt>
      <trkpt lat="47.15382" lon="5.74736">
        <ele>284</ele>
        <time>2019-09-12T08:54:02Z</time>
      </trkpt>
      <trkpt lat="47.15376" lon="5.74698">
        <ele>283.79998779297</ele>
        <time>2019-09-12T08:54:08Z</time>
      </trkpt>
      <trkpt lat="47.15369" lon="5.74669">
        <ele>283.79998779297</ele>
        <time>2019-09-12T08:54:13Z</time>
      </trkpt>
      <trkpt lat="47.15356" lon="5.74639">
        <ele>284</ele>
        <time>2019-09-12T08:54:18Z</time>
      </trkpt>
      <trkpt lat="47.15352" lon="5.74625">
        <ele>284</ele>
        <time>2019-09-12T08:54:20Z</time>
      </trkpt>
      <trkpt lat="47.1534" lon="5.74586">
        <ele>284</ele>
        <time>2019-09-12T08:54:26Z</time>
      </trkpt>
      <trkpt lat="47.15327" lon="5.74536">
        <ele>283.60000610352</ele>
        <time>2019-09-12T08:54:33Z</time>
      </trkpt>
      <trkpt lat="47.15312" lon="5.74482">
        <ele>283.39999389648</ele>
        <time>2019-09-12T08:54:41Z</time>
      </trkpt>
      <trkpt lat="47.15303" lon="5.74447">
        <ele>283.39999389648</ele>
        <time>2019-09-12T08:54:46Z</time>
      </trkpt>
      <trkpt lat="47.15299" lon="5.74433">
        <ele>283.39999389648</ele>
        <time>2019-09-12T08:54:48Z</time>
      </trkpt>
      <trkpt lat="47.15295" lon="5.7442">
        <ele>283.39999389648</ele>
        <time>2019-09-12T08:54:50Z</time>
      </trkpt>
      <trkpt lat="47.15285" lon="5.74387">
        <ele>283.39999389648</ele>
        <time>2019-09-12T08:54:55Z</time>
      </trkpt>
      <trkpt lat="47.15273" lon="5.74345">
        <ele>283.39999389648</ele>
        <time>2019-09-12T08:55:01Z</time>
      </trkpt>
      <trkpt lat="47.15271" lon="5.74338">
        <ele>283.39999389648</ele>
        <time>2019-09-12T08:55:02Z</time>
      </trkpt>
      <trkpt lat="47.15254" lon="5.7428">
        <ele>283.39999389648</ele>
        <time>2019-09-12T08:55:10Z</time>
      </trkpt>
      <trkpt lat="47.1524" lon="5.7423">
        <ele>283.39999389648</ele>
        <time>2019-09-12T08:55:17Z</time>
      </trkpt>
      <trkpt lat="47.15224" lon="5.74173">
        <ele>282.79998779297</ele>
        <time>2019-09-12T08:55:25Z</time>
      </trkpt>
      <trkpt lat="47.15211" lon="5.74123">
        <ele>282.79998779297</ele>
        <time>2019-09-12T08:55:32Z</time>
      </trkpt>
      <trkpt lat="47.15206" lon="5.7411">
        <ele>282.79998779297</ele>
        <time>2019-09-12T08:55:34Z</time>
      </trkpt>
      <trkpt lat="47.15201" lon="5.7409">
        <ele>282.79998779297</ele>
        <time>2019-09-12T08:55:37Z</time>
      </trkpt>
      <trkpt lat="47.15195" lon="5.7407">
        <ele>282.79998779297</ele>
        <time>2019-09-12T08:55:40Z</time>
      </trkpt>
      <trkpt lat="47.15189" lon="5.74053">
        <ele>282.79998779297</ele>
        <time>2019-09-12T08:55:43Z</time>
      </trkpt>
      <trkpt lat="47.15186" lon="5.74048">
        <ele>282.79998779297</ele>
        <time>2019-09-12T08:55:44Z</time>
      </trkpt>
      <trkpt lat="47.15171" lon="5.74005">
        <ele>283</ele>
        <time>2019-09-12T08:55:51Z</time>
      </trkpt>
      <trkpt lat="47.15164" lon="5.73961">
        <ele>283</ele>
        <time>2019-09-12T08:55:57Z</time>
      </trkpt>
      <trkpt lat="47.15163" lon="5.73954">
        <ele>283</ele>
        <time>2019-09-12T08:55:58Z</time>
      </trkpt>
      <trkpt lat="47.15161" lon="5.7394">
        <ele>283</ele>
        <time>2019-09-12T08:56:00Z</time>
      </trkpt>
      <trkpt lat="47.1516" lon="5.73919">
        <ele>282.79998779297</ele>
        <time>2019-09-12T08:56:03Z</time>
      </trkpt>
      <trkpt lat="47.15159" lon="5.73906">
        <ele>282.60000610352</ele>
        <time>2019-09-12T08:56:05Z</time>
      </trkpt>
      <trkpt lat="47.15157" lon="5.73894">
        <ele>282.60000610352</ele>
        <time>2019-09-12T08:56:07Z</time>
      </trkpt>
      <trkpt lat="47.15158" lon="5.73881">
        <ele>282.60000610352</ele>
        <time>2019-09-12T08:56:09Z</time>
      </trkpt>
      <trkpt lat="47.15162" lon="5.73823">
        <ele>282.60000610352</ele>
        <time>2019-09-12T08:56:17Z</time>
      </trkpt>
      <trkpt lat="47.15166" lon="5.73758">
        <ele>282.39999389648</ele>
        <time>2019-09-12T08:56:26Z</time>
      </trkpt>
      <trkpt lat="47.15164" lon="5.73744">
        <ele>282.39999389648</ele>
        <time>2019-09-12T08:56:28Z</time>
      </trkpt>
      <trkpt lat="47.15159" lon="5.7371">
        <ele>282.39999389648</ele>
        <time>2019-09-12T08:56:33Z</time>
      </trkpt>
      <trkpt lat="47.15157" lon="5.73704">
        <ele>282.39999389648</ele>
        <time>2019-09-12T08:56:34Z</time>
      </trkpt>
      <trkpt lat="47.15146" lon="5.73664">
        <ele>282.39999389648</ele>
        <time>2019-09-12T08:56:40Z</time>
      </trkpt>
      <trkpt lat="47.15128" lon="5.73606">
        <ele>282.20001220703</ele>
        <time>2019-09-12T08:56:49Z</time>
      </trkpt>
      <trkpt lat="47.15111" lon="5.73552">
        <ele>282.39999389648</ele>
        <time>2019-09-12T08:56:57Z</time>
      </trkpt>
      <trkpt lat="47.15096" lon="5.73506">
        <ele>282.39999389648</ele>
        <time>2019-09-12T08:57:04Z</time>
      </trkpt>
      <trkpt lat="47.15078" lon="5.73444">
        <ele>282.60000610352</ele>
        <time>2019-09-12T08:57:12Z</time>
      </trkpt>
      <trkpt lat="47.15061" lon="5.7339">
        <ele>282.60000610352</ele>
        <time>2019-09-12T08:57:21Z</time>
      </trkpt>
      <trkpt lat="47.15047" lon="5.73342">
        <ele>282.79998779297</ele>
        <time>2019-09-12T08:57:28Z</time>
      </trkpt>
      <trkpt lat="47.15027" lon="5.73281">
        <ele>282.79998779297</ele>
        <time>2019-09-12T08:57:37Z</time>
      </trkpt>
      <trkpt lat="47.15001" lon="5.73207">
        <ele>282.60000610352</ele>
        <time>2019-09-12T08:57:48Z</time>
      </trkpt>
      <trkpt lat="47.14985" lon="5.73163">
        <ele>282.39999389648</ele>
        <time>2019-09-12T08:57:55Z</time>
      </trkpt>
      <trkpt lat="47.14983" lon="5.73158">
        <ele>282.39999389648</ele>
        <time>2019-09-12T08:57:56Z</time>
      </trkpt>
      <trkpt lat="47.14973" lon="5.73137">
        <ele>282.39999389648</ele>
        <time>2019-09-12T08:58:00Z</time>
      </trkpt>
      <trkpt lat="47.14951" lon="5.73101">
        <ele>282.39999389648</ele>
        <time>2019-09-12T08:58:07Z</time>
      </trkpt>
      <trkpt lat="47.14923" lon="5.73062">
        <ele>282.39999389648</ele>
        <time>2019-09-12T08:58:15Z</time>
      </trkpt>
      <trkpt lat="47.14895" lon="5.73021">
        <ele>282.39999389648</ele>
        <time>2019-09-12T08:58:23Z</time>
      </trkpt>
      <trkpt lat="47.14869" lon="5.72973">
        <ele>282.60000610352</ele>
        <time>2019-09-12T08:58:31Z</time>
      </trkpt>
      <trkpt lat="47.14848" lon="5.72911">
        <ele>282.60000610352</ele>
        <time>2019-09-12T08:58:40Z</time>
      </trkpt>
      <trkpt lat="47.14836" lon="5.72854">
        <ele>282.79998779297</ele>
        <time>2019-09-12T08:58:48Z</time>
      </trkpt>
      <trkpt lat="47.14828" lon="5.72797">
        <ele>283</ele>
        <time>2019-09-12T08:58:56Z</time>
      </trkpt>
      <trkpt lat="47.14825" lon="5.72733">
        <ele>283</ele>
        <time>2019-09-12T08:59:05Z</time>
      </trkpt>
      <trkpt lat="47.14825" lon="5.72726">
        <ele>283</ele>
        <time>2019-09-12T08:59:06Z</time>
      </trkpt>
      <trkpt lat="47.14824" lon="5.7269">
        <ele>283</ele>
        <time>2019-09-12T08:59:11Z</time>
      </trkpt>
      <trkpt lat="47.14825" lon="5.72641">
        <ele>283</ele>
        <time>2019-09-12T08:59:18Z</time>
      </trkpt>
      <trkpt lat="47.14832" lon="5.72593">
        <ele>283</ele>
        <time>2019-09-12T08:59:25Z</time>
      </trkpt>
      <trkpt lat="47.1483" lon="5.7255">
        <ele>283</ele>
        <time>2019-09-12T08:59:31Z</time>
      </trkpt>
      <trkpt lat="47.14831" lon="5.72493">
        <ele>283</ele>
        <time>2019-09-12T08:59:39Z</time>
      </trkpt>
      <trkpt lat="47.14833" lon="5.72465">
        <ele>283</ele>
        <time>2019-09-12T08:59:43Z</time>
      </trkpt>
      <trkpt lat="47.14835" lon="5.72446">
        <ele>283.20001220703</ele>
        <time>2019-09-12T08:59:46Z</time>
      </trkpt>
      <trkpt lat="47.14839" lon="5.72437">
        <ele>283.20001220703</ele>
        <time>2019-09-12T08:59:49Z</time>
      </trkpt>
      <trkpt lat="47.14841" lon="5.72437">
        <ele>283.20001220703</ele>
        <time>2019-09-12T08:59:50Z</time>
      </trkpt>
      <trkpt lat="47.14854" lon="5.72442">
        <ele>283.20001220703</ele>
        <time>2019-09-12T08:59:55Z</time>
      </trkpt>
      <trkpt lat="47.14874" lon="5.72453">
        <ele>283.20001220703</ele>
        <time>2019-09-12T09:00:00Z</time>
      </trkpt>
      <trkpt lat="47.14879" lon="5.72453">
        <ele>283.20001220703</ele>
        <time>2019-09-12T09:00:01Z</time>
      </trkpt>
      <trkpt lat="47.14894" lon="5.72442">
        <ele>283</ele>
        <time>2019-09-12T09:00:05Z</time>
      </trkpt>
      <trkpt lat="47.14899" lon="5.72434">
        <ele>282.60000610352</ele>
        <time>2019-09-12T09:00:07Z</time>
      </trkpt>
      <trkpt lat="47.14905" lon="5.72423">
        <ele>282.39999389648</ele>
        <time>2019-09-12T09:00:10Z</time>
      </trkpt>
      <trkpt lat="47.14914" lon="5.72413">
        <ele>282.20001220703</ele>
        <time>2019-09-12T09:00:14Z</time>
      </trkpt>
      <trkpt lat="47.14916" lon="5.72413">
        <ele>282.20001220703</ele>
        <time>2019-09-12T09:00:15Z</time>
      </trkpt>
      <trkpt lat="47.14918" lon="5.72412">
        <ele>282.20001220703</ele>
        <time>2019-09-12T09:00:18Z</time>
      </trkpt>
      <trkpt lat="47.14916" lon="5.72414">
        <ele>282.20001220703</ele>
        <time>2019-09-12T09:03:54Z</time>
      </trkpt>
      <trkpt lat="47.14916" lon="5.72415">
        <ele>282.20001220703</ele>
        <time>2019-09-12T09:03:56Z</time>
      </trkpt>
      <trkpt lat="47.14914" lon="5.72416">
        <ele>282.20001220703</ele>
        <time>2019-09-12T09:04:12Z</time>
      </trkpt>
      <trkpt lat="47.14913" lon="5.72417">
        <ele>282.20001220703</ele>
        <time>2019-09-12T09:04:13Z</time>
      </trkpt>
      <trkpt lat="47.1491" lon="5.7242">
        <ele>282.20001220703</ele>
        <time>2019-09-12T09:04:15Z</time>
      </trkpt>
      <trkpt lat="47.14899" lon="5.72428">
        <ele>282.20001220703</ele>
        <time>2019-09-12T09:04:19Z</time>
      </trkpt>
      <trkpt lat="47.14882" lon="5.72447">
        <ele>282.20001220703</ele>
        <time>2019-09-12T09:04:25Z</time>
      </trkpt>
      <trkpt lat="47.14876" lon="5.72449">
        <ele>282</ele>
        <time>2019-09-12T09:04:27Z</time>
      </trkpt>
      <trkpt lat="47.14869" lon="5.72447">
        <ele>282</ele>
        <time>2019-09-12T09:04:29Z</time>
      </trkpt>
      <trkpt lat="47.14844" lon="5.72435">
        <ele>282.20001220703</ele>
        <time>2019-09-12T09:04:37Z</time>
      </trkpt>
      <trkpt lat="47.14837" lon="5.72427">
        <ele>282.60000610352</ele>
        <time>2019-09-12T09:04:41Z</time>
      </trkpt>
      <trkpt lat="47.14839" lon="5.72406">
        <ele>283</ele>
        <time>2019-09-12T09:04:45Z</time>
      </trkpt>
      <trkpt lat="47.14846" lon="5.72364">
        <ele>283</ele>
        <time>2019-09-12T09:04:51Z</time>
      </trkpt>
      <trkpt lat="47.14851" lon="5.7232">
        <ele>282.20001220703</ele>
        <time>2019-09-12T09:04:57Z</time>
      </trkpt>
      <trkpt lat="47.14851" lon="5.72313">
        <ele>282.20001220703</ele>
        <time>2019-09-12T09:04:58Z</time>
      </trkpt>
      <trkpt lat="47.14852" lon="5.72269">
        <ele>281.20001220703</ele>
        <time>2019-09-12T09:05:04Z</time>
      </trkpt>
      <trkpt lat="47.1486" lon="5.72246">
        <ele>281</ele>
        <time>2019-09-12T09:05:08Z</time>
      </trkpt>
      <trkpt lat="47.14862" lon="5.72241">
        <ele>281</ele>
        <time>2019-09-12T09:05:09Z</time>
      </trkpt>
      <trkpt lat="47.14866" lon="5.7222">
        <ele>281</ele>
        <time>2019-09-12T09:05:13Z</time>
      </trkpt>
      <trkpt lat="47.1487" lon="5.72192">
        <ele>281.20001220703</ele>
        <time>2019-09-12T09:05:19Z</time>
      </trkpt>
      <trkpt lat="47.1487" lon="5.72189">
        <ele>281.60000610352</ele>
        <time>2019-09-12T09:05:22Z</time>
      </trkpt>
      <trkpt lat="47.1487" lon="5.72186">
        <ele>281.60000610352</ele>
        <time>2019-09-12T09:05:38Z</time>
      </trkpt>
      <trkpt lat="47.14873" lon="5.72166">
        <ele>281.60000610352</ele>
        <time>2019-09-12T09:05:44Z</time>
      </trkpt>
      <trkpt lat="47.14876" lon="5.72136">
        <ele>281.60000610352</ele>
        <time>2019-09-12T09:05:50Z</time>
      </trkpt>
      <trkpt lat="47.14884" lon="5.72077">
        <ele>281.60000610352</ele>
        <time>2019-09-12T09:06:00Z</time>
      </trkpt>
      <trkpt lat="47.14891" lon="5.72029">
        <ele>281.60000610352</ele>
        <time>2019-09-12T09:06:08Z</time>
      </trkpt>
      <trkpt lat="47.14899" lon="5.71976">
        <ele>281.60000610352</ele>
        <time>2019-09-12T09:06:16Z</time>
      </trkpt>
      <trkpt lat="47.14908" lon="5.71917">
        <ele>281.60000610352</ele>
        <time>2019-09-12T09:06:24Z</time>
      </trkpt>
      <trkpt lat="47.1491" lon="5.71902">
        <ele>281.60000610352</ele>
        <time>2019-09-12T09:06:26Z</time>
      </trkpt>
      <trkpt lat="47.14914" lon="5.71873">
        <ele>281.60000610352</ele>
        <time>2019-09-12T09:06:30Z</time>
      </trkpt>
      <trkpt lat="47.14924" lon="5.71808">
        <ele>281.79998779297</ele>
        <time>2019-09-12T09:06:39Z</time>
      </trkpt>
      <trkpt lat="47.14932" lon="5.71749">
        <ele>281.39999389648</ele>
        <time>2019-09-12T09:06:47Z</time>
      </trkpt>
      <trkpt lat="47.14943" lon="5.71673">
        <ele>281.20001220703</ele>
        <time>2019-09-12T09:06:57Z</time>
      </trkpt>
      <trkpt lat="47.14945" lon="5.71658">
        <ele>281.20001220703</ele>
        <time>2019-09-12T09:06:59Z</time>
      </trkpt>
      <trkpt lat="47.14949" lon="5.71628">
        <ele>281</ele>
        <time>2019-09-12T09:07:03Z</time>
      </trkpt>
      <trkpt lat="47.14959" lon="5.71565">
        <ele>281</ele>
        <time>2019-09-12T09:07:11Z</time>
      </trkpt>
      <trkpt lat="47.14961" lon="5.71509">
        <ele>280.79998779297</ele>
        <time>2019-09-12T09:07:18Z</time>
      </trkpt>
      <trkpt lat="47.14963" lon="5.71494">
        <ele>280.79998779297</ele>
        <time>2019-09-12T09:07:20Z</time>
      </trkpt>
      <trkpt lat="47.14968" lon="5.71472">
        <ele>280.79998779297</ele>
        <time>2019-09-12T09:07:23Z</time>
      </trkpt>
      <trkpt lat="47.14984" lon="5.71421">
        <ele>280.79998779297</ele>
        <time>2019-09-12T09:07:30Z</time>
      </trkpt>
      <trkpt lat="47.14996" lon="5.71396">
        <ele>280.60000610352</ele>
        <time>2019-09-12T09:07:34Z</time>
      </trkpt>
      <trkpt lat="47.15003" lon="5.71386">
        <ele>280.60000610352</ele>
        <time>2019-09-12T09:07:36Z</time>
      </trkpt>
      <trkpt lat="47.15025" lon="5.7135">
        <ele>280.60000610352</ele>
        <time>2019-09-12T09:07:42Z</time>
      </trkpt>
      <trkpt lat="47.15044" lon="5.71302">
        <ele>280.60000610352</ele>
        <time>2019-09-12T09:07:49Z</time>
      </trkpt>
      <trkpt lat="47.15057" lon="5.71247">
        <ele>280.60000610352</ele>
        <time>2019-09-12T09:07:56Z</time>
      </trkpt>
      <trkpt lat="47.15066" lon="5.71191">
        <ele>280.60000610352</ele>
        <time>2019-09-12T09:08:03Z</time>
      </trkpt>
      <trkpt lat="47.15074" lon="5.71135">
        <ele>280.60000610352</ele>
        <time>2019-09-12T09:08:10Z</time>
      </trkpt>
      <trkpt lat="47.15082" lon="5.7108">
        <ele>280.60000610352</ele>
        <time>2019-09-12T09:08:17Z</time>
      </trkpt>
      <trkpt lat="47.15092" lon="5.71014">
        <ele>280.39999389648</ele>
        <time>2019-09-12T09:08:25Z</time>
      </trkpt>
      <trkpt lat="47.15103" lon="5.70939">
        <ele>280.20001220703</ele>
        <time>2019-09-12T09:08:34Z</time>
      </trkpt>
      <trkpt lat="47.15108" lon="5.70873">
        <ele>280.20001220703</ele>
        <time>2019-09-12T09:08:42Z</time>
      </trkpt>
      <trkpt lat="47.15108" lon="5.70865">
        <ele>280.20001220703</ele>
        <time>2019-09-12T09:08:43Z</time>
      </trkpt>
      <trkpt lat="47.15102" lon="5.70826">
        <ele>280.20001220703</ele>
        <time>2019-09-12T09:08:48Z</time>
      </trkpt>
      <trkpt lat="47.15089" lon="5.70754">
        <ele>280.39999389648</ele>
        <time>2019-09-12T09:08:57Z</time>
      </trkpt>
      <trkpt lat="47.15078" lon="5.70691">
        <ele>280.39999389648</ele>
        <time>2019-09-12T09:09:05Z</time>
      </trkpt>
      <trkpt lat="47.15071" lon="5.70628">
        <ele>280.60000610352</ele>
        <time>2019-09-12T09:09:13Z</time>
      </trkpt>
      <trkpt lat="47.15066" lon="5.70566">
        <ele>281</ele>
        <time>2019-09-12T09:09:21Z</time>
      </trkpt>
      <trkpt lat="47.15062" lon="5.70494">
        <ele>281.20001220703</ele>
        <time>2019-09-12T09:09:30Z</time>
      </trkpt>
      <trkpt lat="47.1506" lon="5.70446">
        <ele>281.20001220703</ele>
        <time>2019-09-12T09:09:36Z</time>
      </trkpt>
      <trkpt lat="47.15059" lon="5.7043">
        <ele>281.20001220703</ele>
        <time>2019-09-12T09:09:38Z</time>
      </trkpt>
      <trkpt lat="47.15057" lon="5.7039">
        <ele>281</ele>
        <time>2019-09-12T09:09:43Z</time>
      </trkpt>
      <trkpt lat="47.15056" lon="5.70375">
        <ele>281</ele>
        <time>2019-09-12T09:09:45Z</time>
      </trkpt>
      <trkpt lat="47.15051" lon="5.70295">
        <ele>281</ele>
        <time>2019-09-12T09:09:55Z</time>
      </trkpt>
      <trkpt lat="47.15049" lon="5.70281">
        <ele>281</ele>
        <time>2019-09-12T09:09:57Z</time>
      </trkpt>
      <trkpt lat="47.15044" lon="5.70267">
        <ele>281</ele>
        <time>2019-09-12T09:09:59Z</time>
      </trkpt>
      <trkpt lat="47.15033" lon="5.70235">
        <ele>280.79998779297</ele>
        <time>2019-09-12T09:10:05Z</time>
      </trkpt>
      <trkpt lat="47.15032" lon="5.70233">
        <ele>280.79998779297</ele>
        <time>2019-09-12T09:10:06Z</time>
      </trkpt>
      <trkpt lat="47.15032" lon="5.70235">
        <ele>280.79998779297</ele>
        <time>2019-09-12T09:10:08Z</time>
      </trkpt>
      <trkpt lat="47.15036" lon="5.70247">
        <ele>280.79998779297</ele>
        <time>2019-09-12T09:10:13Z</time>
      </trkpt>
      <trkpt lat="47.15045" lon="5.70266">
        <ele>280.60000610352</ele>
        <time>2019-09-12T09:10:18Z</time>
      </trkpt>
      <trkpt lat="47.15047" lon="5.70266">
        <ele>280.60000610352</ele>
        <time>2019-09-12T09:10:19Z</time>
      </trkpt>
      <trkpt lat="47.15049" lon="5.70265">
        <ele>280.60000610352</ele>
        <time>2019-09-12T09:10:23Z</time>
      </trkpt>
      <trkpt lat="47.15052" lon="5.70262">
        <ele>280.60000610352</ele>
        <time>2019-09-12T09:10:27Z</time>
      </trkpt>
      <trkpt lat="47.15057" lon="5.7026">
        <ele>280.60000610352</ele>
        <time>2019-09-12T09:10:29Z</time>
      </trkpt>
      <trkpt lat="47.15059" lon="5.70258">
        <ele>280.60000610352</ele>
        <time>2019-09-12T09:10:30Z</time>
      </trkpt>
      <trkpt lat="47.15061" lon="5.70249">
        <ele>280.60000610352</ele>
        <time>2019-09-12T09:10:32Z</time>
      </trkpt>
      <trkpt lat="47.15067" lon="5.70223">
        <ele>280.79998779297</ele>
        <time>2019-09-12T09:10:37Z</time>
      </trkpt>
      <trkpt lat="47.1508" lon="5.70193">
        <ele>281</ele>
        <time>2019-09-12T09:10:43Z</time>
      </trkpt>
      <trkpt lat="47.15089" lon="5.70172">
        <ele>281</ele>
        <time>2019-09-12T09:10:47Z</time>
      </trkpt>
      <trkpt lat="47.15097" lon="5.70156">
        <ele>281</ele>
        <time>2019-09-12T09:10:50Z</time>
      </trkpt>
      <trkpt lat="47.15122" lon="5.70114">
        <ele>281</ele>
        <time>2019-09-12T09:10:58Z</time>
      </trkpt>
      <trkpt lat="47.15125" lon="5.70108">
        <ele>281</ele>
        <time>2019-09-12T09:10:59Z</time>
      </trkpt>
      <trkpt lat="47.15129" lon="5.70087">
        <ele>281</ele>
        <time>2019-09-12T09:11:02Z</time>
      </trkpt>
      <trkpt lat="47.1513" lon="5.7008">
        <ele>281</ele>
        <time>2019-09-12T09:11:03Z</time>
      </trkpt>
      <trkpt lat="47.15136" lon="5.70014">
        <ele>281.20001220703</ele>
        <time>2019-09-12T09:11:12Z</time>
      </trkpt>
      <trkpt lat="47.15137" lon="5.69965">
        <ele>281.20001220703</ele>
        <time>2019-09-12T09:11:19Z</time>
      </trkpt>
      <trkpt lat="47.15137" lon="5.69952">
        <ele>281.39999389648</ele>
        <time>2019-09-12T09:11:21Z</time>
      </trkpt>
      <trkpt lat="47.15135" lon="5.69923">
        <ele>281.60000610352</ele>
        <time>2019-09-12T09:11:26Z</time>
      </trkpt>
      <trkpt lat="47.15127" lon="5.69882">
        <ele>282.20001220703</ele>
        <time>2019-09-12T09:11:34Z</time>
      </trkpt>
      <trkpt lat="47.15124" lon="5.69862">
        <ele>282.60000610352</ele>
        <time>2019-09-12T09:11:38Z</time>
      </trkpt>
      <trkpt lat="47.15121" lon="5.69847">
        <ele>283</ele>
        <time>2019-09-12T09:11:41Z</time>
      </trkpt>
      <trkpt lat="47.15118" lon="5.69827">
        <ele>283.60000610352</ele>
        <time>2019-09-12T09:11:45Z</time>
      </trkpt>
      <trkpt lat="47.15115" lon="5.69803">
        <ele>284.20001220703</ele>
        <time>2019-09-12T09:11:50Z</time>
      </trkpt>
      <trkpt lat="47.15114" lon="5.69783">
        <ele>284.79998779297</ele>
        <time>2019-09-12T09:11:54Z</time>
      </trkpt>
      <trkpt lat="47.15114" lon="5.69772">
        <ele>285</ele>
        <time>2019-09-12T09:11:56Z</time>
      </trkpt>
      <trkpt lat="47.15114" lon="5.69743">
        <ele>285.79998779297</ele>
        <time>2019-09-12T09:12:02Z</time>
      </trkpt>
      <trkpt lat="47.15115" lon="5.69723">
        <ele>286</ele>
        <time>2019-09-12T09:12:06Z</time>
      </trkpt>
      <trkpt lat="47.15117" lon="5.69683">
        <ele>286.60000610352</ele>
        <time>2019-09-12T09:12:14Z</time>
      </trkpt>
      <trkpt lat="47.15117" lon="5.69678">
        <ele>286.79998779297</ele>
        <time>2019-09-12T09:12:15Z</time>
      </trkpt>
      <trkpt lat="47.1512" lon="5.69647">
        <ele>288</ele>
        <time>2019-09-12T09:12:22Z</time>
      </trkpt>
      <trkpt lat="47.15123" lon="5.69611">
        <ele>289</ele>
        <time>2019-09-12T09:12:30Z</time>
      </trkpt>
      <trkpt lat="47.15127" lon="5.69579">
        <ele>289.60000610352</ele>
        <time>2019-09-12T09:12:37Z</time>
      </trkpt>
      <trkpt lat="47.1513" lon="5.69564">
        <ele>290</ele>
        <time>2019-09-12T09:12:41Z</time>
      </trkpt>
      <trkpt lat="47.15131" lon="5.69553">
        <ele>290.20001220703</ele>
        <time>2019-09-12T09:12:44Z</time>
      </trkpt>
      <trkpt lat="47.15131" lon="5.69535">
        <ele>291</ele>
        <time>2019-09-12T09:12:50Z</time>
      </trkpt>
      <trkpt lat="47.15132" lon="5.69533">
        <ele>291.20001220703</ele>
        <time>2019-09-12T09:12:51Z</time>
      </trkpt>
      <trkpt lat="47.15135" lon="5.69511">
        <ele>292</ele>
        <time>2019-09-12T09:12:59Z</time>
      </trkpt>
      <trkpt lat="47.15139" lon="5.69495">
        <ele>292.79998779297</ele>
        <time>2019-09-12T09:13:05Z</time>
      </trkpt>
      <trkpt lat="47.15141" lon="5.6949">
        <ele>293.20001220703</ele>
        <time>2019-09-12T09:13:07Z</time>
      </trkpt>
      <trkpt lat="47.15148" lon="5.69473">
        <ele>294</ele>
        <time>2019-09-12T09:13:13Z</time>
      </trkpt>
      <trkpt lat="47.15149" lon="5.69471">
        <ele>294.20001220703</ele>
        <time>2019-09-12T09:13:14Z</time>
      </trkpt>
      <trkpt lat="47.15154" lon="5.69462">
        <ele>295.20001220703</ele>
        <time>2019-09-12T09:13:18Z</time>
      </trkpt>
      <trkpt lat="47.15154" lon="5.6946">
        <ele>295.39999389648</ele>
        <time>2019-09-12T09:13:19Z</time>
      </trkpt>
      <trkpt lat="47.15157" lon="5.69456">
        <ele>295.79998779297</ele>
        <time>2019-09-12T09:13:21Z</time>
      </trkpt>
      <trkpt lat="47.15164" lon="5.69449">
        <ele>296.39999389648</ele>
        <time>2019-09-12T09:13:25Z</time>
      </trkpt>
      <trkpt lat="47.15169" lon="5.69443">
        <ele>297</ele>
        <time>2019-09-12T09:13:28Z</time>
      </trkpt>
      <trkpt lat="47.15175" lon="5.69435">
        <ele>297.60000610352</ele>
        <time>2019-09-12T09:13:32Z</time>
      </trkpt>
      <trkpt lat="47.15185" lon="5.69424">
        <ele>298.39999389648</ele>
        <time>2019-09-12T09:13:38Z</time>
      </trkpt>
      <trkpt lat="47.15188" lon="5.6942">
        <ele>298.79998779297</ele>
        <time>2019-09-12T09:13:40Z</time>
      </trkpt>
      <trkpt lat="47.15201" lon="5.69404">
        <ele>299.60000610352</ele>
        <time>2019-09-12T09:13:48Z</time>
      </trkpt>
      <trkpt lat="47.15203" lon="5.69402">
        <ele>299.79998779297</ele>
        <time>2019-09-12T09:13:49Z</time>
      </trkpt>
      <trkpt lat="47.15215" lon="5.69389">
        <ele>300.79998779297</ele>
        <time>2019-09-12T09:13:56Z</time>
      </trkpt>
      <trkpt lat="47.15226" lon="5.69373">
        <ele>302</ele>
        <time>2019-09-12T09:14:04Z</time>
      </trkpt>
      <trkpt lat="47.15228" lon="5.69371">
        <ele>302.20001220703</ele>
        <time>2019-09-12T09:14:05Z</time>
      </trkpt>
      <trkpt lat="47.15235" lon="5.69361">
        <ele>303</ele>
        <time>2019-09-12T09:14:10Z</time>
      </trkpt>
      <trkpt lat="47.1524" lon="5.69352">
        <ele>303.79998779297</ele>
        <time>2019-09-12T09:14:14Z</time>
      </trkpt>
      <trkpt lat="47.15242" lon="5.69349">
        <ele>304</ele>
        <time>2019-09-12T09:14:16Z</time>
      </trkpt>
      <trkpt lat="47.15248" lon="5.69337">
        <ele>304.79998779297</ele>
        <time>2019-09-12T09:14:21Z</time>
      </trkpt>
      <trkpt lat="47.15249" lon="5.69331">
        <ele>305.20001220703</ele>
        <time>2019-09-12T09:14:23Z</time>
      </trkpt>
      <trkpt lat="47.15251" lon="5.69312">
        <ele>306</ele>
        <time>2019-09-12T09:14:29Z</time>
      </trkpt>
      <trkpt lat="47.15251" lon="5.69305">
        <ele>306.20001220703</ele>
        <time>2019-09-12T09:14:31Z</time>
      </trkpt>
      <trkpt lat="47.15248" lon="5.69288">
        <ele>306.60000610352</ele>
        <time>2019-09-12T09:14:37Z</time>
      </trkpt>
      <trkpt lat="47.15244" lon="5.69274">
        <ele>307.20001220703</ele>
        <time>2019-09-12T09:14:42Z</time>
      </trkpt>
      <trkpt lat="47.15241" lon="5.69266">
        <ele>307.60000610352</ele>
        <time>2019-09-12T09:14:45Z</time>
      </trkpt>
      <trkpt lat="47.15238" lon="5.69251">
        <ele>308.20001220703</ele>
        <time>2019-09-12T09:14:50Z</time>
      </trkpt>
      <trkpt lat="47.15238" lon="5.69249">
        <ele>308.20001220703</ele>
        <time>2019-09-12T09:14:51Z</time>
      </trkpt>
      <trkpt lat="47.15232" lon="5.69225">
        <ele>309</ele>
        <time>2019-09-12T09:14:59Z</time>
      </trkpt>
      <trkpt lat="47.15232" lon="5.69222">
        <ele>309.20001220703</ele>
        <time>2019-09-12T09:15:00Z</time>
      </trkpt>
      <trkpt lat="47.15228" lon="5.69201">
        <ele>309.79998779297</ele>
        <time>2019-09-12T09:15:06Z</time>
      </trkpt>
      <trkpt lat="47.15225" lon="5.69171">
        <ele>310.20001220703</ele>
        <time>2019-09-12T09:15:14Z</time>
      </trkpt>
      <trkpt lat="47.15225" lon="5.69164">
        <ele>310.20001220703</ele>
        <time>2019-09-12T09:15:16Z</time>
      </trkpt>
      <trkpt lat="47.15226" lon="5.69141">
        <ele>311</ele>
        <time>2019-09-12T09:15:22Z</time>
      </trkpt>
      <trkpt lat="47.15226" lon="5.69137">
        <ele>311.20001220703</ele>
        <time>2019-09-12T09:15:23Z</time>
      </trkpt>
      <trkpt lat="47.15225" lon="5.69114">
        <ele>311.79998779297</ele>
        <time>2019-09-12T09:15:29Z</time>
      </trkpt>
      <trkpt lat="47.15224" lon="5.69103">
        <ele>312.39999389648</ele>
        <time>2019-09-12T09:15:32Z</time>
      </trkpt>
      <trkpt lat="47.15222" lon="5.6908">
        <ele>312.79998779297</ele>
        <time>2019-09-12T09:15:38Z</time>
      </trkpt>
      <trkpt lat="47.1522" lon="5.69063">
        <ele>313.20001220703</ele>
        <time>2019-09-12T09:15:42Z</time>
      </trkpt>
      <trkpt lat="47.15217" lon="5.69045">
        <ele>313.39999389648</ele>
        <time>2019-09-12T09:15:46Z</time>
      </trkpt>
      <trkpt lat="47.1521" lon="5.69019">
        <ele>313.79998779297</ele>
        <time>2019-09-12T09:15:52Z</time>
      </trkpt>
      <trkpt lat="47.15196" lon="5.68977">
        <ele>314</ele>
        <time>2019-09-12T09:16:01Z</time>
      </trkpt>
      <trkpt lat="47.15186" lon="5.68954">
        <ele>314.20001220703</ele>
        <time>2019-09-12T09:16:06Z</time>
      </trkpt>
      <trkpt lat="47.15179" lon="5.68941">
        <ele>314.39999389648</ele>
        <time>2019-09-12T09:16:09Z</time>
      </trkpt>
      <trkpt lat="47.15161" lon="5.68915">
        <ele>314.60000610352</ele>
        <time>2019-09-12T09:16:16Z</time>
      </trkpt>
      <trkpt lat="47.1514" lon="5.68882">
        <ele>314.79998779297</ele>
        <time>2019-09-12T09:16:23Z</time>
      </trkpt>
      <trkpt lat="47.15108" lon="5.68832">
        <ele>314.79998779297</ele>
        <time>2019-09-12T09:16:32Z</time>
      </trkpt>
      <trkpt lat="47.15069" lon="5.68771">
        <ele>313.79998779297</ele>
        <time>2019-09-12T09:16:42Z</time>
      </trkpt>
      <trkpt lat="47.1505" lon="5.68739">
        <ele>313.20001220703</ele>
        <time>2019-09-12T09:16:47Z</time>
      </trkpt>
      <trkpt lat="47.15035" lon="5.68714">
        <ele>312.60000610352</ele>
        <time>2019-09-12T09:16:51Z</time>
      </trkpt>
      <trkpt lat="47.15021" lon="5.6869">
        <ele>312.20001220703</ele>
        <time>2019-09-12T09:16:55Z</time>
      </trkpt>
      <trkpt lat="47.15015" lon="5.68678">
        <ele>312.20001220703</ele>
        <time>2019-09-12T09:16:57Z</time>
      </trkpt>
      <trkpt lat="47.15011" lon="5.68672">
        <ele>312.20001220703</ele>
        <time>2019-09-12T09:16:58Z</time>
      </trkpt>
      <trkpt lat="47.1499" lon="5.68622">
        <ele>312.39999389648</ele>
        <time>2019-09-12T09:17:06Z</time>
      </trkpt>
      <trkpt lat="47.14969" lon="5.68566">
        <ele>313</ele>
        <time>2019-09-12T09:17:16Z</time>
      </trkpt>
      <trkpt lat="47.14965" lon="5.68556">
        <ele>313.20001220703</ele>
        <time>2019-09-12T09:17:18Z</time>
      </trkpt>
      <trkpt lat="47.14957" lon="5.68537">
        <ele>313.39999389648</ele>
        <time>2019-09-12T09:17:22Z</time>
      </trkpt>
      <trkpt lat="47.14943" lon="5.68511">
        <ele>314</ele>
        <time>2019-09-12T09:17:28Z</time>
      </trkpt>
      <trkpt lat="47.14937" lon="5.68503">
        <ele>314.39999389648</ele>
        <time>2019-09-12T09:17:30Z</time>
      </trkpt>
      <trkpt lat="47.14919" lon="5.68478">
        <ele>315.20001220703</ele>
        <time>2019-09-12T09:17:37Z</time>
      </trkpt>
      <trkpt lat="47.14899" lon="5.68458">
        <ele>315.60000610352</ele>
        <time>2019-09-12T09:17:43Z</time>
      </trkpt>
      <trkpt lat="47.14888" lon="5.68448">
        <ele>315.60000610352</ele>
        <time>2019-09-12T09:17:46Z</time>
      </trkpt>
      <trkpt lat="47.14876" lon="5.68437">
        <ele>315.39999389648</ele>
        <time>2019-09-12T09:17:49Z</time>
      </trkpt>
      <trkpt lat="47.1484" lon="5.68405">
        <ele>314.79998779297</ele>
        <time>2019-09-12T09:17:57Z</time>
      </trkpt>
      <trkpt lat="47.14804" lon="5.68374">
        <ele>314</ele>
        <time>2019-09-12T09:18:04Z</time>
      </trkpt>
      <trkpt lat="47.14785" lon="5.68353">
        <ele>313.60000610352</ele>
        <time>2019-09-12T09:18:08Z</time>
      </trkpt>
      <trkpt lat="47.1478" lon="5.68347">
        <ele>313.39999389648</ele>
        <time>2019-09-12T09:18:09Z</time>
      </trkpt>
      <trkpt lat="47.14767" lon="5.68329">
        <ele>313</ele>
        <time>2019-09-12T09:18:12Z</time>
      </trkpt>
      <trkpt lat="47.14759" lon="5.68318">
        <ele>312.79998779297</ele>
        <time>2019-09-12T09:18:14Z</time>
      </trkpt>
      <trkpt lat="47.14757" lon="5.68311">
        <ele>312.60000610352</ele>
        <time>2019-09-12T09:18:15Z</time>
      </trkpt>
      <trkpt lat="47.14762" lon="5.68298">
        <ele>312.60000610352</ele>
        <time>2019-09-12T09:18:18Z</time>
      </trkpt>
      <trkpt lat="47.14778" lon="5.68276">
        <ele>312.60000610352</ele>
        <time>2019-09-12T09:18:24Z</time>
      </trkpt>
      <trkpt lat="47.148" lon="5.68243">
        <ele>313.39999389648</ele>
        <time>2019-09-12T09:18:31Z</time>
      </trkpt>
      <trkpt lat="47.14807" lon="5.68235">
        <ele>313.60000610352</ele>
        <time>2019-09-12T09:18:33Z</time>
      </trkpt>
      <trkpt lat="47.14824" lon="5.68213">
        <ele>313.79998779297</ele>
        <time>2019-09-12T09:18:38Z</time>
      </trkpt>
      <trkpt lat="47.14851" lon="5.68176">
        <ele>314.20001220703</ele>
        <time>2019-09-12T09:18:46Z</time>
      </trkpt>
      <trkpt lat="47.14854" lon="5.6817">
        <ele>314.20001220703</ele>
        <time>2019-09-12T09:18:47Z</time>
      </trkpt>
      <trkpt lat="47.14861" lon="5.68147">
        <ele>314.20001220703</ele>
        <time>2019-09-12T09:18:51Z</time>
      </trkpt>
      <trkpt lat="47.14863" lon="5.68141">
        <ele>314.39999389648</ele>
        <time>2019-09-12T09:18:52Z</time>
      </trkpt>
      <trkpt lat="47.14866" lon="5.68128">
        <ele>314.60000610352</ele>
        <time>2019-09-12T09:18:54Z</time>
      </trkpt>
      <trkpt lat="47.14872" lon="5.68096">
        <ele>314.79998779297</ele>
        <time>2019-09-12T09:18:59Z</time>
      </trkpt>
      <trkpt lat="47.14879" lon="5.68041">
        <ele>315.20001220703</ele>
        <time>2019-09-12T09:19:07Z</time>
      </trkpt>
      <trkpt lat="47.14889" lon="5.67965">
        <ele>315.20001220703</ele>
        <time>2019-09-12T09:19:18Z</time>
      </trkpt>
      <trkpt lat="47.14893" lon="5.67945">
        <ele>315.20001220703</ele>
        <time>2019-09-12T09:19:21Z</time>
      </trkpt>
      <trkpt lat="47.149" lon="5.67934">
        <ele>315.39999389648</ele>
        <time>2019-09-12T09:19:23Z</time>
      </trkpt>
      <trkpt lat="47.14914" lon="5.67928">
        <ele>315.39999389648</ele>
        <time>2019-09-12T09:19:26Z</time>
      </trkpt>
      <trkpt lat="47.14918" lon="5.67928">
        <ele>315.39999389648</ele>
        <time>2019-09-12T09:19:27Z</time>
      </trkpt>
      <trkpt lat="47.14944" lon="5.67929">
        <ele>315.60000610352</ele>
        <time>2019-09-12T09:19:33Z</time>
      </trkpt>
      <trkpt lat="47.14968" lon="5.67926">
        <ele>316</ele>
        <time>2019-09-12T09:19:39Z</time>
      </trkpt>
      <trkpt lat="47.1497" lon="5.67922">
        <ele>316.20001220703</ele>
        <time>2019-09-12T09:19:40Z</time>
      </trkpt>
      <trkpt lat="47.14971" lon="5.67913">
        <ele>316.39999389648</ele>
        <time>2019-09-12T09:19:42Z</time>
      </trkpt>
      <trkpt lat="47.14971" lon="5.67903">
        <ele>316.79998779297</ele>
        <time>2019-09-12T09:19:44Z</time>
      </trkpt>
      <trkpt lat="47.14967" lon="5.67878">
        <ele>317.39999389648</ele>
        <time>2019-09-12T09:19:49Z</time>
      </trkpt>
      <trkpt lat="47.14963" lon="5.67833">
        <ele>317.39999389648</ele>
        <time>2019-09-12T09:19:56Z</time>
      </trkpt>
      <trkpt lat="47.14957" lon="5.67765">
        <ele>317.20001220703</ele>
        <time>2019-09-12T09:20:05Z</time>
      </trkpt>
      <trkpt lat="47.14951" lon="5.67699">
        <ele>316.60000610352</ele>
        <time>2019-09-12T09:20:13Z</time>
      </trkpt>
      <trkpt lat="47.14945" lon="5.67626">
        <ele>316.20001220703</ele>
        <time>2019-09-12T09:20:22Z</time>
      </trkpt>
      <trkpt lat="47.14938" lon="5.67547">
        <ele>316.20001220703</ele>
        <time>2019-09-12T09:20:32Z</time>
      </trkpt>
      <trkpt lat="47.14932" lon="5.67483">
        <ele>316.39999389648</ele>
        <time>2019-09-12T09:20:40Z</time>
      </trkpt>
      <trkpt lat="47.14925" lon="5.67403">
        <ele>316.39999389648</ele>
        <time>2019-09-12T09:20:50Z</time>
      </trkpt>
      <trkpt lat="47.14919" lon="5.67331">
        <ele>316.39999389648</ele>
        <time>2019-09-12T09:20:59Z</time>
      </trkpt>
      <trkpt lat="47.14912" lon="5.67248">
        <ele>316.39999389648</ele>
        <time>2019-09-12T09:21:09Z</time>
      </trkpt>
      <trkpt lat="47.14907" lon="5.6719">
        <ele>316.39999389648</ele>
        <time>2019-09-12T09:21:16Z</time>
      </trkpt>
      <trkpt lat="47.14901" lon="5.67126">
        <ele>316</ele>
        <time>2019-09-12T09:21:24Z</time>
      </trkpt>
      <trkpt lat="47.14895" lon="5.67059">
        <ele>316</ele>
        <time>2019-09-12T09:21:32Z</time>
      </trkpt>
      <trkpt lat="47.14891" lon="5.67038">
        <ele>315.79998779297</ele>
        <time>2019-09-12T09:21:35Z</time>
      </trkpt>
      <trkpt lat="47.14889" lon="5.67023">
        <ele>315.39999389648</ele>
        <time>2019-09-12T09:21:37Z</time>
      </trkpt>
      <trkpt lat="47.14882" lon="5.66961">
        <ele>315</ele>
        <time>2019-09-12T09:21:45Z</time>
      </trkpt>
      <trkpt lat="47.14877" lon="5.66912">
        <ele>315</ele>
        <time>2019-09-12T09:21:51Z</time>
      </trkpt>
      <trkpt lat="47.14875" lon="5.66896">
        <ele>314.79998779297</ele>
        <time>2019-09-12T09:21:53Z</time>
      </trkpt>
      <trkpt lat="47.14869" lon="5.66842">
        <ele>314.39999389648</ele>
        <time>2019-09-12T09:22:00Z</time>
      </trkpt>
      <trkpt lat="47.14862" lon="5.66776">
        <ele>314.39999389648</ele>
        <time>2019-09-12T09:22:08Z</time>
      </trkpt>
      <trkpt lat="47.14855" lon="5.66719">
        <ele>314.20001220703</ele>
        <time>2019-09-12T09:22:15Z</time>
      </trkpt>
      <trkpt lat="47.1485" lon="5.66676">
        <ele>313.79998779297</ele>
        <time>2019-09-12T09:22:20Z</time>
      </trkpt>
      <trkpt lat="47.14848" lon="5.66651">
        <ele>313.60000610352</ele>
        <time>2019-09-12T09:22:23Z</time>
      </trkpt>
      <trkpt lat="47.14841" lon="5.66584">
        <ele>313</ele>
        <time>2019-09-12T09:22:31Z</time>
      </trkpt>
      <trkpt lat="47.14835" lon="5.66525">
        <ele>312.79998779297</ele>
        <time>2019-09-12T09:22:38Z</time>
      </trkpt>
      <trkpt lat="47.14821" lon="5.66475">
        <ele>312.60000610352</ele>
        <time>2019-09-12T09:22:44Z</time>
      </trkpt>
      <trkpt lat="47.14803" lon="5.66423">
        <ele>311.79998779297</ele>
        <time>2019-09-12T09:22:50Z</time>
      </trkpt>
      <trkpt lat="47.148" lon="5.66413">
        <ele>311.60000610352</ele>
        <time>2019-09-12T09:22:51Z</time>
      </trkpt>
      <trkpt lat="47.14787" lon="5.66368">
        <ele>310.60000610352</ele>
        <time>2019-09-12T09:22:55Z</time>
      </trkpt>
      <trkpt lat="47.14783" lon="5.66356">
        <ele>310.39999389648</ele>
        <time>2019-09-12T09:22:56Z</time>
      </trkpt>
      <trkpt lat="47.14774" lon="5.66318">
        <ele>309.60000610352</ele>
        <time>2019-09-12T09:22:59Z</time>
      </trkpt>
      <trkpt lat="47.14767" lon="5.66277">
        <ele>308</ele>
        <time>2019-09-12T09:23:02Z</time>
      </trkpt>
      <trkpt lat="47.14762" lon="5.66251">
        <ele>306.39999389648</ele>
        <time>2019-09-12T09:23:04Z</time>
      </trkpt>
      <trkpt lat="47.14759" lon="5.66229">
        <ele>305.39999389648</ele>
        <time>2019-09-12T09:23:06Z</time>
      </trkpt>
      <trkpt lat="47.14758" lon="5.66219">
        <ele>304.79998779297</ele>
        <time>2019-09-12T09:23:07Z</time>
      </trkpt>
      <trkpt lat="47.14758" lon="5.66205">
        <ele>303.39999389648</ele>
        <time>2019-09-12T09:23:09Z</time>
      </trkpt>
      <trkpt lat="47.14755" lon="5.66196">
        <ele>301.60000610352</ele>
        <time>2019-09-12T09:23:11Z</time>
      </trkpt>
      <trkpt lat="47.14752" lon="5.66195">
        <ele>300.60000610352</ele>
        <time>2019-09-12T09:23:12Z</time>
      </trkpt>
      <trkpt lat="47.14749" lon="5.66197">
        <ele>300</ele>
        <time>2019-09-12T09:23:13Z</time>
      </trkpt>
      <trkpt lat="47.14743" lon="5.66203">
        <ele>299.39999389648</ele>
        <time>2019-09-12T09:23:15Z</time>
      </trkpt>
      <trkpt lat="47.14741" lon="5.66206">
        <ele>299</ele>
        <time>2019-09-12T09:23:16Z</time>
      </trkpt>
      <trkpt lat="47.14727" lon="5.66214">
        <ele>298.39999389648</ele>
        <time>2019-09-12T09:23:21Z</time>
      </trkpt>
      <trkpt lat="47.14721" lon="5.66217">
        <ele>298.20001220703</ele>
        <time>2019-09-12T09:23:25Z</time>
      </trkpt>
      <trkpt lat="47.14721" lon="5.66218">
        <ele>298.20001220703</ele>
        <time>2019-09-12T09:23:26Z</time>
      </trkpt>
      <trkpt lat="47.14716" lon="5.66219">
        <ele>297.79998779297</ele>
        <time>2019-09-12T09:23:33Z</time>
      </trkpt>
      <trkpt lat="47.14711" lon="5.66218">
        <ele>297.79998779297</ele>
        <time>2019-09-12T09:23:35Z</time>
      </trkpt>
      <trkpt lat="47.14694" lon="5.66211">
        <ele>297.60000610352</ele>
        <time>2019-09-12T09:23:40Z</time>
      </trkpt>
      <trkpt lat="47.14678" lon="5.66203">
        <ele>297.60000610352</ele>
        <time>2019-09-12T09:23:43Z</time>
      </trkpt>
      <trkpt lat="47.14671" lon="5.66201">
        <ele>297.60000610352</ele>
        <time>2019-09-12T09:23:44Z</time>
      </trkpt>
      <trkpt lat="47.14649" lon="5.66193">
        <ele>297.20001220703</ele>
        <time>2019-09-12T09:23:47Z</time>
      </trkpt>
      <trkpt lat="47.14643" lon="5.66186">
        <ele>297</ele>
        <time>2019-09-12T09:23:48Z</time>
      </trkpt>
      <trkpt lat="47.1464" lon="5.66177">
        <ele>296.60000610352</ele>
        <time>2019-09-12T09:23:49Z</time>
      </trkpt>
      <trkpt lat="47.14639" lon="5.66167">
        <ele>296.20001220703</ele>
        <time>2019-09-12T09:23:50Z</time>
      </trkpt>
      <trkpt lat="47.1464" lon="5.66156">
        <ele>295.60000610352</ele>
        <time>2019-09-12T09:23:51Z</time>
      </trkpt>
      <trkpt lat="47.14642" lon="5.66145">
        <ele>294.79998779297</ele>
        <time>2019-09-12T09:23:52Z</time>
      </trkpt>
      <trkpt lat="47.14643" lon="5.66134">
        <ele>294</ele>
        <time>2019-09-12T09:23:53Z</time>
      </trkpt>
      <trkpt lat="47.14644" lon="5.66123">
        <ele>293.39999389648</ele>
        <time>2019-09-12T09:23:54Z</time>
      </trkpt>
      <trkpt lat="47.14646" lon="5.66112">
        <ele>292.79998779297</ele>
        <time>2019-09-12T09:23:55Z</time>
      </trkpt>
      <trkpt lat="47.14649" lon="5.66091">
        <ele>291.79998779297</ele>
        <time>2019-09-12T09:23:57Z</time>
      </trkpt>
      <trkpt lat="47.14649" lon="5.66061">
        <ele>291</ele>
        <time>2019-09-12T09:24:00Z</time>
      </trkpt>
      <trkpt lat="47.14649" lon="5.66041">
        <ele>290.60000610352</ele>
        <time>2019-09-12T09:24:02Z</time>
      </trkpt>
      <trkpt lat="47.14651" lon="5.66005">
        <ele>289.79998779297</ele>
        <time>2019-09-12T09:24:06Z</time>
      </trkpt>
      <trkpt lat="47.14652" lon="5.65996">
        <ele>289.60000610352</ele>
        <time>2019-09-12T09:24:07Z</time>
      </trkpt>
      <trkpt lat="47.14653" lon="5.65987">
        <ele>289.60000610352</ele>
        <time>2019-09-12T09:24:08Z</time>
      </trkpt>
      <trkpt lat="47.14662" lon="5.65928">
        <ele>288.39999389648</ele>
        <time>2019-09-12T09:24:15Z</time>
      </trkpt>
      <trkpt lat="47.14664" lon="5.65915">
        <ele>288</ele>
        <time>2019-09-12T09:24:18Z</time>
      </trkpt>
      <trkpt lat="47.14663" lon="5.65913">
        <ele>288</ele>
        <time>2019-09-12T09:24:19Z</time>
      </trkpt>
      <trkpt lat="47.14656" lon="5.6591">
        <ele>287.39999389648</ele>
        <time>2019-09-12T09:24:22Z</time>
      </trkpt>
      <trkpt lat="47.14641" lon="5.65914">
        <ele>286.39999389648</ele>
        <time>2019-09-12T09:24:25Z</time>
      </trkpt>
      <trkpt lat="47.14635" lon="5.65914">
        <ele>286.20001220703</ele>
        <time>2019-09-12T09:24:26Z</time>
      </trkpt>
      <trkpt lat="47.14609" lon="5.65915">
        <ele>285.20001220703</ele>
        <time>2019-09-12T09:24:30Z</time>
      </trkpt>
      <trkpt lat="47.14596" lon="5.65915">
        <ele>284.60000610352</ele>
        <time>2019-09-12T09:24:32Z</time>
      </trkpt>
      <trkpt lat="47.14582" lon="5.65915">
        <ele>284</ele>
        <time>2019-09-12T09:24:34Z</time>
      </trkpt>
      <trkpt lat="47.14568" lon="5.65911">
        <ele>283.39999389648</ele>
        <time>2019-09-12T09:24:36Z</time>
      </trkpt>
      <trkpt lat="47.14564" lon="5.65906">
        <ele>283</ele>
        <time>2019-09-12T09:24:37Z</time>
      </trkpt>
      <trkpt lat="47.14561" lon="5.65889">
        <ele>282.39999389648</ele>
        <time>2019-09-12T09:24:39Z</time>
      </trkpt>
      <trkpt lat="47.14562" lon="5.65879">
        <ele>282</ele>
        <time>2019-09-12T09:24:40Z</time>
      </trkpt>
      <trkpt lat="47.14563" lon="5.65869">
        <ele>281.79998779297</ele>
        <time>2019-09-12T09:24:41Z</time>
      </trkpt>
      <trkpt lat="47.14569" lon="5.65816">
        <ele>280.79998779297</ele>
        <time>2019-09-12T09:24:47Z</time>
      </trkpt>
      <trkpt lat="47.14574" lon="5.65768">
        <ele>280</ele>
        <time>2019-09-12T09:24:53Z</time>
      </trkpt>
      <trkpt lat="47.14577" lon="5.65761">
        <ele>280</ele>
        <time>2019-09-12T09:24:54Z</time>
      </trkpt>
      <trkpt lat="47.14583" lon="5.65741">
        <ele>279.79998779297</ele>
        <time>2019-09-12T09:24:57Z</time>
      </trkpt>
      <trkpt lat="47.14586" lon="5.65726">
        <ele>279.79998779297</ele>
        <time>2019-09-12T09:24:59Z</time>
      </trkpt>
      <trkpt lat="47.14588" lon="5.65711">
        <ele>279.79998779297</ele>
        <time>2019-09-12T09:25:01Z</time>
      </trkpt>
      <trkpt lat="47.14592" lon="5.65667">
        <ele>279.60000610352</ele>
        <time>2019-09-12T09:25:07Z</time>
      </trkpt>
      <trkpt lat="47.14594" lon="5.65654">
        <ele>279.60000610352</ele>
        <time>2019-09-12T09:25:09Z</time>
      </trkpt>
      <trkpt lat="47.14595" lon="5.65634">
        <ele>279.60000610352</ele>
        <time>2019-09-12T09:25:12Z</time>
      </trkpt>
      <trkpt lat="47.146" lon="5.65612">
        <ele>279.60000610352</ele>
        <time>2019-09-12T09:25:17Z</time>
      </trkpt>
      <trkpt lat="47.14603" lon="5.65593">
        <ele>279.79998779297</ele>
        <time>2019-09-12T09:25:20Z</time>
      </trkpt>
      <trkpt lat="47.14604" lon="5.65585">
        <ele>279.79998779297</ele>
        <time>2019-09-12T09:25:21Z</time>
      </trkpt>
      <trkpt lat="47.14608" lon="5.65533">
        <ele>279.79998779297</ele>
        <time>2019-09-12T09:25:27Z</time>
      </trkpt>
      <trkpt lat="47.14606" lon="5.65503">
        <ele>278.60000610352</ele>
        <time>2019-09-12T09:25:31Z</time>
      </trkpt>
      <trkpt lat="47.14607" lon="5.65489">
        <ele>278.20001220703</ele>
        <time>2019-09-12T09:25:33Z</time>
      </trkpt>
      <trkpt lat="47.14616" lon="5.65431">
        <ele>278</ele>
        <time>2019-09-12T09:25:41Z</time>
      </trkpt>
      <trkpt lat="47.14617" lon="5.65416">
        <ele>278</ele>
        <time>2019-09-12T09:25:43Z</time>
      </trkpt>
      <trkpt lat="47.14618" lon="5.65402">
        <ele>278</ele>
        <time>2019-09-12T09:25:45Z</time>
      </trkpt>
      <trkpt lat="47.14621" lon="5.65386">
        <ele>278</ele>
        <time>2019-09-12T09:25:47Z</time>
      </trkpt>
      <trkpt lat="47.14632" lon="5.65328">
        <ele>278</ele>
        <time>2019-09-12T09:25:55Z</time>
      </trkpt>
      <trkpt lat="47.14641" lon="5.65303">
        <ele>277.79998779297</ele>
        <time>2019-09-12T09:25:59Z</time>
      </trkpt>
      <trkpt lat="47.14647" lon="5.65291">
        <ele>277.79998779297</ele>
        <time>2019-09-12T09:26:01Z</time>
      </trkpt>
      <trkpt lat="47.14671" lon="5.65248">
        <ele>278</ele>
        <time>2019-09-12T09:26:08Z</time>
      </trkpt>
      <trkpt lat="47.14684" lon="5.65214">
        <ele>278</ele>
        <time>2019-09-12T09:26:13Z</time>
      </trkpt>
      <trkpt lat="47.14685" lon="5.65207">
        <ele>278</ele>
        <time>2019-09-12T09:26:14Z</time>
      </trkpt>
      <trkpt lat="47.14691" lon="5.65156">
        <ele>278.20001220703</ele>
        <time>2019-09-12T09:26:21Z</time>
      </trkpt>
      <trkpt lat="47.14691" lon="5.65149">
        <ele>278.20001220703</ele>
        <time>2019-09-12T09:26:22Z</time>
      </trkpt>
      <trkpt lat="47.1469" lon="5.65115">
        <ele>278.20001220703</ele>
        <time>2019-09-12T09:26:27Z</time>
      </trkpt>
      <trkpt lat="47.14691" lon="5.65072">
        <ele>278.20001220703</ele>
        <time>2019-09-12T09:26:33Z</time>
      </trkpt>
      <trkpt lat="47.14691" lon="5.65013">
        <ele>278.20001220703</ele>
        <time>2019-09-12T09:26:41Z</time>
      </trkpt>
      <trkpt lat="47.14691" lon="5.64946">
        <ele>278.20001220703</ele>
        <time>2019-09-12T09:26:50Z</time>
      </trkpt>
      <trkpt lat="47.14689" lon="5.64895">
        <ele>278</ele>
        <time>2019-09-12T09:26:57Z</time>
      </trkpt>
      <trkpt lat="47.14686" lon="5.64846">
        <ele>278.39999389648</ele>
        <time>2019-09-12T09:27:04Z</time>
      </trkpt>
      <trkpt lat="47.14683" lon="5.64795">
        <ele>278.39999389648</ele>
        <time>2019-09-12T09:27:11Z</time>
      </trkpt>
      <trkpt lat="47.14677" lon="5.64739">
        <ele>278.39999389648</ele>
        <time>2019-09-12T09:27:19Z</time>
      </trkpt>
      <trkpt lat="47.14673" lon="5.64696">
        <ele>278.39999389648</ele>
        <time>2019-09-12T09:27:25Z</time>
      </trkpt>
      <trkpt lat="47.14671" lon="5.64674">
        <ele>278.39999389648</ele>
        <time>2019-09-12T09:27:28Z</time>
      </trkpt>
      <trkpt lat="47.14665" lon="5.64608">
        <ele>278.20001220703</ele>
        <time>2019-09-12T09:27:37Z</time>
      </trkpt>
      <trkpt lat="47.1466" lon="5.64566">
        <ele>278.20001220703</ele>
        <time>2019-09-12T09:27:43Z</time>
      </trkpt>
      <trkpt lat="47.14659" lon="5.64552">
        <ele>278.20001220703</ele>
        <time>2019-09-12T09:27:45Z</time>
      </trkpt>
      <trkpt lat="47.14649" lon="5.64494">
        <ele>278.20001220703</ele>
        <time>2019-09-12T09:27:53Z</time>
      </trkpt>
      <trkpt lat="47.14639" lon="5.64433">
        <ele>278.20001220703</ele>
        <time>2019-09-12T09:28:01Z</time>
      </trkpt>
      <trkpt lat="47.14628" lon="5.64366">
        <ele>277.79998779297</ele>
        <time>2019-09-12T09:28:10Z</time>
      </trkpt>
      <trkpt lat="47.14623" lon="5.64337">
        <ele>277.79998779297</ele>
        <time>2019-09-12T09:28:14Z</time>
      </trkpt>
      <trkpt lat="47.14618" lon="5.64308">
        <ele>277.79998779297</ele>
        <time>2019-09-12T09:28:18Z</time>
      </trkpt>
      <trkpt lat="47.14609" lon="5.64264">
        <ele>277.79998779297</ele>
        <time>2019-09-12T09:28:25Z</time>
      </trkpt>
      <trkpt lat="47.14606" lon="5.64244">
        <ele>277.79998779297</ele>
        <time>2019-09-12T09:28:28Z</time>
      </trkpt>
      <trkpt lat="47.14601" lon="5.64225">
        <ele>277.79998779297</ele>
        <time>2019-09-12T09:28:31Z</time>
      </trkpt>
      <trkpt lat="47.14598" lon="5.64212">
        <ele>277.60000610352</ele>
        <time>2019-09-12T09:28:33Z</time>
      </trkpt>
      <trkpt lat="47.14598" lon="5.64198">
        <ele>277.39999389648</ele>
        <time>2019-09-12T09:28:35Z</time>
      </trkpt>
      <trkpt lat="47.14597" lon="5.64176">
        <ele>277.39999389648</ele>
        <time>2019-09-12T09:28:38Z</time>
      </trkpt>
      <trkpt lat="47.14594" lon="5.64154">
        <ele>277.20001220703</ele>
        <time>2019-09-12T09:28:41Z</time>
      </trkpt>
      <trkpt lat="47.14592" lon="5.64146">
        <ele>277.20001220703</ele>
        <time>2019-09-12T09:28:42Z</time>
      </trkpt>
      <trkpt lat="47.14588" lon="5.64111">
        <ele>277.20001220703</ele>
        <time>2019-09-12T09:28:47Z</time>
      </trkpt>
      <trkpt lat="47.1458" lon="5.6407">
        <ele>277.20001220703</ele>
        <time>2019-09-12T09:28:53Z</time>
      </trkpt>
      <trkpt lat="47.14578" lon="5.64055">
        <ele>277.39999389648</ele>
        <time>2019-09-12T09:28:55Z</time>
      </trkpt>
      <trkpt lat="47.14569" lon="5.63995">
        <ele>277.39999389648</ele>
        <time>2019-09-12T09:29:03Z</time>
      </trkpt>
      <trkpt lat="47.14558" lon="5.63928">
        <ele>277.20001220703</ele>
        <time>2019-09-12T09:29:12Z</time>
      </trkpt>
      <trkpt lat="47.14551" lon="5.63884">
        <ele>277.20001220703</ele>
        <time>2019-09-12T09:29:18Z</time>
      </trkpt>
      <trkpt lat="47.14548" lon="5.63862">
        <ele>277.20001220703</ele>
        <time>2019-09-12T09:29:21Z</time>
      </trkpt>
      <trkpt lat="47.14538" lon="5.638">
        <ele>277.20001220703</ele>
        <time>2019-09-12T09:29:30Z</time>
      </trkpt>
      <trkpt lat="47.14528" lon="5.63739">
        <ele>277.20001220703</ele>
        <time>2019-09-12T09:29:39Z</time>
      </trkpt>
      <trkpt lat="47.1452" lon="5.6369">
        <ele>277.20001220703</ele>
        <time>2019-09-12T09:29:46Z</time>
      </trkpt>
      <trkpt lat="47.14507" lon="5.63619">
        <ele>277</ele>
        <time>2019-09-12T09:29:56Z</time>
      </trkpt>
      <trkpt lat="47.14501" lon="5.63584">
        <ele>277</ele>
        <time>2019-09-12T09:30:01Z</time>
      </trkpt>
      <trkpt lat="47.14498" lon="5.6357">
        <ele>277</ele>
        <time>2019-09-12T09:30:03Z</time>
      </trkpt>
      <trkpt lat="47.1449" lon="5.6352">
        <ele>277</ele>
        <time>2019-09-12T09:30:10Z</time>
      </trkpt>
      <trkpt lat="47.1448" lon="5.63466">
        <ele>277</ele>
        <time>2019-09-12T09:30:18Z</time>
      </trkpt>
      <trkpt lat="47.14471" lon="5.63415">
        <ele>277</ele>
        <time>2019-09-12T09:30:25Z</time>
      </trkpt>
      <trkpt lat="47.14462" lon="5.63359">
        <ele>277</ele>
        <time>2019-09-12T09:30:33Z</time>
      </trkpt>
      <trkpt lat="47.14455" lon="5.63308">
        <ele>277.20001220703</ele>
        <time>2019-09-12T09:30:40Z</time>
      </trkpt>
      <trkpt lat="47.14447" lon="5.63257">
        <ele>277.20001220703</ele>
        <time>2019-09-12T09:30:47Z</time>
      </trkpt>
      <trkpt lat="47.14438" lon="5.632">
        <ele>277.20001220703</ele>
        <time>2019-09-12T09:30:55Z</time>
      </trkpt>
      <trkpt lat="47.14427" lon="5.63129">
        <ele>277</ele>
        <time>2019-09-12T09:31:05Z</time>
      </trkpt>
      <trkpt lat="47.14418" lon="5.63072">
        <ele>277</ele>
        <time>2019-09-12T09:31:13Z</time>
      </trkpt>
      <trkpt lat="47.14405" lon="5.63008">
        <ele>277</ele>
        <time>2019-09-12T09:31:22Z</time>
      </trkpt>
      <trkpt lat="47.14398" lon="5.6296">
        <ele>277</ele>
        <time>2019-09-12T09:31:29Z</time>
      </trkpt>
      <trkpt lat="47.14389" lon="5.629">
        <ele>277</ele>
        <time>2019-09-12T09:31:37Z</time>
      </trkpt>
      <trkpt lat="47.14379" lon="5.62825">
        <ele>276.79998779297</ele>
        <time>2019-09-12T09:31:47Z</time>
      </trkpt>
      <trkpt lat="47.14371" lon="5.62799">
        <ele>276.79998779297</ele>
        <time>2019-09-12T09:31:52Z</time>
      </trkpt>
      <trkpt lat="47.14366" lon="5.62772">
        <ele>277.60000610352</ele>
        <time>2019-09-12T09:31:58Z</time>
      </trkpt>
      <trkpt lat="47.14362" lon="5.62743">
        <ele>278.39999389648</ele>
        <time>2019-09-12T09:32:05Z</time>
      </trkpt>
      <trkpt lat="47.14364" lon="5.62734">
        <ele>279</ele>
        <time>2019-09-12T09:32:08Z</time>
      </trkpt>
      <trkpt lat="47.14368" lon="5.62731">
        <ele>279.20001220703</ele>
        <time>2019-09-12T09:32:10Z</time>
      </trkpt>
      <trkpt lat="47.14379" lon="5.62728">
        <ele>280</ele>
        <time>2019-09-12T09:32:14Z</time>
      </trkpt>
      <trkpt lat="47.14384" lon="5.62727">
        <ele>280.39999389648</ele>
        <time>2019-09-12T09:32:16Z</time>
      </trkpt>
      <trkpt lat="47.14387" lon="5.62724">
        <ele>280.39999389648</ele>
        <time>2019-09-12T09:32:17Z</time>
      </trkpt>
      <trkpt lat="47.14388" lon="5.62716">
        <ele>280.39999389648</ele>
        <time>2019-09-12T09:32:19Z</time>
      </trkpt>
      <trkpt lat="47.14382" lon="5.62697">
        <ele>280.39999389648</ele>
        <time>2019-09-12T09:32:22Z</time>
      </trkpt>
      <trkpt lat="47.1438" lon="5.62689">
        <ele>280.39999389648</ele>
        <time>2019-09-12T09:32:23Z</time>
      </trkpt>
      <trkpt lat="47.1437" lon="5.62646">
        <ele>279.60000610352</ele>
        <time>2019-09-12T09:32:28Z</time>
      </trkpt>
      <trkpt lat="47.14368" lon="5.62639">
        <ele>279</ele>
        <time>2019-09-12T09:32:29Z</time>
      </trkpt>
      <trkpt lat="47.14365" lon="5.62624">
        <ele>277.60000610352</ele>
        <time>2019-09-12T09:32:31Z</time>
      </trkpt>
      <trkpt lat="47.1436" lon="5.62602">
        <ele>276.60000610352</ele>
        <time>2019-09-12T09:32:34Z</time>
      </trkpt>
      <trkpt lat="47.14358" lon="5.62595">
        <ele>276.60000610352</ele>
        <time>2019-09-12T09:32:35Z</time>
      </trkpt>
      <trkpt lat="47.14348" lon="5.62549">
        <ele>276.39999389648</ele>
        <time>2019-09-12T09:32:41Z</time>
      </trkpt>
      <trkpt lat="47.14337" lon="5.62493">
        <ele>276.20001220703</ele>
        <time>2019-09-12T09:32:48Z</time>
      </trkpt>
      <trkpt lat="47.14331" lon="5.62456">
        <ele>276.20001220703</ele>
        <time>2019-09-12T09:32:54Z</time>
      </trkpt>
      <trkpt lat="47.14332" lon="5.62449">
        <ele>276.20001220703</ele>
        <time>2019-09-12T09:32:57Z</time>
      </trkpt>
      <trkpt lat="47.14334" lon="5.62428">
        <ele>275.60000610352</ele>
        <time>2019-09-12T09:35:11Z</time>
      </trkpt>
      <trkpt lat="47.14329" lon="5.6241">
        <ele>275.60000610352</ele>
        <time>2019-09-12T09:35:18Z</time>
      </trkpt>
      <trkpt lat="47.14322" lon="5.62387">
        <ele>275.60000610352</ele>
        <time>2019-09-12T09:35:24Z</time>
      </trkpt>
      <trkpt lat="47.14316" lon="5.62353">
        <ele>275.60000610352</ele>
        <time>2019-09-12T09:35:30Z</time>
      </trkpt>
      <trkpt lat="47.14312" lon="5.6233">
        <ele>275.60000610352</ele>
        <time>2019-09-12T09:35:34Z</time>
      </trkpt>
      <trkpt lat="47.14309" lon="5.62319">
        <ele>275.60000610352</ele>
        <time>2019-09-12T09:35:36Z</time>
      </trkpt>
      <trkpt lat="47.14302" lon="5.6228">
        <ele>275.60000610352</ele>
        <time>2019-09-12T09:35:42Z</time>
      </trkpt>
      <trkpt lat="47.14295" lon="5.62234">
        <ele>275.79998779297</ele>
        <time>2019-09-12T09:35:48Z</time>
      </trkpt>
      <trkpt lat="47.14292" lon="5.6222">
        <ele>275.79998779297</ele>
        <time>2019-09-12T09:35:50Z</time>
      </trkpt>
      <trkpt lat="47.14288" lon="5.62192">
        <ele>276</ele>
        <time>2019-09-12T09:35:54Z</time>
      </trkpt>
      <trkpt lat="47.14282" lon="5.62138">
        <ele>276</ele>
        <time>2019-09-12T09:36:01Z</time>
      </trkpt>
      <trkpt lat="47.14273" lon="5.621">
        <ele>276</ele>
        <time>2019-09-12T09:36:07Z</time>
      </trkpt>
      <trkpt lat="47.14269" lon="5.62065">
        <ele>275.79998779297</ele>
        <time>2019-09-12T09:36:12Z</time>
      </trkpt>
      <trkpt lat="47.14267" lon="5.62058">
        <ele>275.79998779297</ele>
        <time>2019-09-12T09:36:13Z</time>
      </trkpt>
      <trkpt lat="47.14261" lon="5.62012">
        <ele>275.79998779297</ele>
        <time>2019-09-12T09:36:19Z</time>
      </trkpt>
      <trkpt lat="47.14255" lon="5.61976">
        <ele>276</ele>
        <time>2019-09-12T09:36:24Z</time>
      </trkpt>
      <trkpt lat="47.14254" lon="5.6197">
        <ele>276</ele>
        <time>2019-09-12T09:36:25Z</time>
      </trkpt>
      <trkpt lat="47.14249" lon="5.6193">
        <ele>276</ele>
        <time>2019-09-12T09:36:30Z</time>
      </trkpt>
      <trkpt lat="47.14247" lon="5.61915">
        <ele>276</ele>
        <time>2019-09-12T09:36:32Z</time>
      </trkpt>
      <trkpt lat="47.1424" lon="5.61864">
        <ele>275.79998779297</ele>
        <time>2019-09-12T09:36:39Z</time>
      </trkpt>
      <trkpt lat="47.14234" lon="5.61821">
        <ele>275.60000610352</ele>
        <time>2019-09-12T09:36:45Z</time>
      </trkpt>
      <trkpt lat="47.1423" lon="5.61787">
        <ele>275.60000610352</ele>
        <time>2019-09-12T09:36:50Z</time>
      </trkpt>
      <trkpt lat="47.14228" lon="5.61772">
        <ele>275.60000610352</ele>
        <time>2019-09-12T09:36:52Z</time>
      </trkpt>
      <trkpt lat="47.14223" lon="5.61745">
        <ele>275.60000610352</ele>
        <time>2019-09-12T09:36:56Z</time>
      </trkpt>
      <trkpt lat="47.1422" lon="5.61731">
        <ele>275.60000610352</ele>
        <time>2019-09-12T09:36:58Z</time>
      </trkpt>
      <trkpt lat="47.14211" lon="5.61673">
        <ele>275.60000610352</ele>
        <time>2019-09-12T09:37:06Z</time>
      </trkpt>
      <trkpt lat="47.14203" lon="5.61629">
        <ele>275.60000610352</ele>
        <time>2019-09-12T09:37:12Z</time>
      </trkpt>
      <trkpt lat="47.14196" lon="5.61595">
        <ele>275.39999389648</ele>
        <time>2019-09-12T09:37:17Z</time>
      </trkpt>
      <trkpt lat="47.14192" lon="5.61576">
        <ele>275.39999389648</ele>
        <time>2019-09-12T09:37:20Z</time>
      </trkpt>
      <trkpt lat="47.14186" lon="5.6155">
        <ele>275.60000610352</ele>
        <time>2019-09-12T09:37:24Z</time>
      </trkpt>
      <trkpt lat="47.14183" lon="5.61539">
        <ele>275.60000610352</ele>
        <time>2019-09-12T09:37:26Z</time>
      </trkpt>
      <trkpt lat="47.14182" lon="5.61524">
        <ele>275.60000610352</ele>
        <time>2019-09-12T09:37:28Z</time>
      </trkpt>
      <trkpt lat="47.14179" lon="5.615">
        <ele>275.39999389648</ele>
        <time>2019-09-12T09:37:31Z</time>
      </trkpt>
      <trkpt lat="47.14172" lon="5.61457">
        <ele>275.39999389648</ele>
        <time>2019-09-12T09:37:37Z</time>
      </trkpt>
      <trkpt lat="47.14167" lon="5.61428">
        <ele>275.60000610352</ele>
        <time>2019-09-12T09:37:41Z</time>
      </trkpt>
      <trkpt lat="47.14164" lon="5.61415">
        <ele>275.60000610352</ele>
        <time>2019-09-12T09:37:43Z</time>
      </trkpt>
      <trkpt lat="47.14162" lon="5.61403">
        <ele>275.60000610352</ele>
        <time>2019-09-12T09:37:45Z</time>
      </trkpt>
      <trkpt lat="47.14161" lon="5.61396">
        <ele>275.60000610352</ele>
        <time>2019-09-12T09:37:46Z</time>
      </trkpt>
      <trkpt lat="47.14159" lon="5.61373">
        <ele>275.60000610352</ele>
        <time>2019-09-12T09:37:49Z</time>
      </trkpt>
      <trkpt lat="47.14155" lon="5.61342">
        <ele>275.60000610352</ele>
        <time>2019-09-12T09:37:53Z</time>
      </trkpt>
      <trkpt lat="47.14153" lon="5.61326">
        <ele>275.39999389648</ele>
        <time>2019-09-12T09:37:55Z</time>
      </trkpt>
      <trkpt lat="47.14145" lon="5.61283">
        <ele>275.60000610352</ele>
        <time>2019-09-12T09:38:01Z</time>
      </trkpt>
      <trkpt lat="47.14136" lon="5.61242">
        <ele>275.60000610352</ele>
        <time>2019-09-12T09:38:07Z</time>
      </trkpt>
      <trkpt lat="47.14128" lon="5.61202">
        <ele>275.60000610352</ele>
        <time>2019-09-12T09:38:13Z</time>
      </trkpt>
      <trkpt lat="47.14127" lon="5.61196">
        <ele>275.60000610352</ele>
        <time>2019-09-12T09:38:14Z</time>
      </trkpt>
      <trkpt lat="47.1412" lon="5.61155">
        <ele>275.60000610352</ele>
        <time>2019-09-12T09:38:20Z</time>
      </trkpt>
      <trkpt lat="47.14111" lon="5.61108">
        <ele>275.60000610352</ele>
        <time>2019-09-12T09:38:27Z</time>
      </trkpt>
      <trkpt lat="47.14103" lon="5.61056">
        <ele>275.60000610352</ele>
        <time>2019-09-12T09:38:34Z</time>
      </trkpt>
      <trkpt lat="47.14101" lon="5.61036">
        <ele>275.60000610352</ele>
        <time>2019-09-12T09:38:37Z</time>
      </trkpt>
      <trkpt lat="47.14099" lon="5.61014">
        <ele>275.60000610352</ele>
        <time>2019-09-12T09:38:40Z</time>
      </trkpt>
      <trkpt lat="47.14092" lon="5.60972">
        <ele>275.60000610352</ele>
        <time>2019-09-12T09:38:46Z</time>
      </trkpt>
      <trkpt lat="47.14086" lon="5.60938">
        <ele>275.79998779297</ele>
        <time>2019-09-12T09:38:51Z</time>
      </trkpt>
      <trkpt lat="47.14079" lon="5.60901">
        <ele>275.79998779297</ele>
        <time>2019-09-12T09:38:57Z</time>
      </trkpt>
      <trkpt lat="47.14076" lon="5.60875">
        <ele>275.79998779297</ele>
        <time>2019-09-12T09:39:01Z</time>
      </trkpt>
      <trkpt lat="47.14069" lon="5.60836">
        <ele>276</ele>
        <time>2019-09-12T09:39:07Z</time>
      </trkpt>
      <trkpt lat="47.14065" lon="5.60801">
        <ele>276</ele>
        <time>2019-09-12T09:39:12Z</time>
      </trkpt>
      <trkpt lat="47.14064" lon="5.60794">
        <ele>276</ele>
        <time>2019-09-12T09:39:13Z</time>
      </trkpt>
      <trkpt lat="47.14057" lon="5.60756">
        <ele>276</ele>
        <time>2019-09-12T09:39:19Z</time>
      </trkpt>
      <trkpt lat="47.14049" lon="5.60718">
        <ele>276</ele>
        <time>2019-09-12T09:39:25Z</time>
      </trkpt>
      <trkpt lat="47.14041" lon="5.60669">
        <ele>275.79998779297</ele>
        <time>2019-09-12T09:39:32Z</time>
      </trkpt>
      <trkpt lat="47.14035" lon="5.60626">
        <ele>275.79998779297</ele>
        <time>2019-09-12T09:39:37Z</time>
      </trkpt>
      <trkpt lat="47.14034" lon="5.60618">
        <ele>275.79998779297</ele>
        <time>2019-09-12T09:39:38Z</time>
      </trkpt>
      <trkpt lat="47.1403" lon="5.60602">
        <ele>276</ele>
        <time>2019-09-12T09:39:40Z</time>
      </trkpt>
      <trkpt lat="47.14028" lon="5.60572">
        <ele>275.79998779297</ele>
        <time>2019-09-12T09:39:44Z</time>
      </trkpt>
      <trkpt lat="47.14026" lon="5.60551">
        <ele>276</ele>
        <time>2019-09-12T09:39:47Z</time>
      </trkpt>
      <trkpt lat="47.14022" lon="5.60529">
        <ele>275.79998779297</ele>
        <time>2019-09-12T09:39:50Z</time>
      </trkpt>
      <trkpt lat="47.1402" lon="5.60513">
        <ele>275.79998779297</ele>
        <time>2019-09-12T09:39:52Z</time>
      </trkpt>
      <trkpt lat="47.14018" lon="5.60487">
        <ele>275.60000610352</ele>
        <time>2019-09-12T09:39:55Z</time>
      </trkpt>
      <trkpt lat="47.14017" lon="5.6043">
        <ele>275</ele>
        <time>2019-09-12T09:40:02Z</time>
      </trkpt>
      <trkpt lat="47.14016" lon="5.60423">
        <ele>274.79998779297</ele>
        <time>2019-09-12T09:40:03Z</time>
      </trkpt>
      <trkpt lat="47.14011" lon="5.60402">
        <ele>274.60000610352</ele>
        <time>2019-09-12T09:40:06Z</time>
      </trkpt>
      <trkpt lat="47.14005" lon="5.60381">
        <ele>274.60000610352</ele>
        <time>2019-09-12T09:40:09Z</time>
      </trkpt>
      <trkpt lat="47.13988" lon="5.60319">
        <ele>274.39999389648</ele>
        <time>2019-09-12T09:40:18Z</time>
      </trkpt>
      <trkpt lat="47.13971" lon="5.60258">
        <ele>274.20001220703</ele>
        <time>2019-09-12T09:40:27Z</time>
      </trkpt>
      <trkpt lat="47.13964" lon="5.60232">
        <ele>274.20001220703</ele>
        <time>2019-09-12T09:40:31Z</time>
      </trkpt>
      <trkpt lat="47.1396" lon="5.60219">
        <ele>274.20001220703</ele>
        <time>2019-09-12T09:40:33Z</time>
      </trkpt>
      <trkpt lat="47.13944" lon="5.60165">
        <ele>274.39999389648</ele>
        <time>2019-09-12T09:40:41Z</time>
      </trkpt>
      <trkpt lat="47.13928" lon="5.60112">
        <ele>274.20001220703</ele>
        <time>2019-09-12T09:40:49Z</time>
      </trkpt>
      <trkpt lat="47.13923" lon="5.60095">
        <ele>274.20001220703</ele>
        <time>2019-09-12T09:40:52Z</time>
      </trkpt>
      <trkpt lat="47.13921" lon="5.60088">
        <ele>274.20001220703</ele>
        <time>2019-09-12T09:40:53Z</time>
      </trkpt>
      <trkpt lat="47.13905" lon="5.60045">
        <ele>274.39999389648</ele>
        <time>2019-09-12T09:41:00Z</time>
      </trkpt>
      <trkpt lat="47.13888" lon="5.60001">
        <ele>274.60000610352</ele>
        <time>2019-09-12T09:41:07Z</time>
      </trkpt>
      <trkpt lat="47.13865" lon="5.59944">
        <ele>274.60000610352</ele>
        <time>2019-09-12T09:41:16Z</time>
      </trkpt>
      <trkpt lat="47.13862" lon="5.59938">
        <ele>274.60000610352</ele>
        <time>2019-09-12T09:41:17Z</time>
      </trkpt>
      <trkpt lat="47.13851" lon="5.59913">
        <ele>274.39999389648</ele>
        <time>2019-09-12T09:41:21Z</time>
      </trkpt>
      <trkpt lat="47.13849" lon="5.59907">
        <ele>274.39999389648</ele>
        <time>2019-09-12T09:41:22Z</time>
      </trkpt>
      <trkpt lat="47.13818" lon="5.59839">
        <ele>274.20001220703</ele>
        <time>2019-09-12T09:41:33Z</time>
      </trkpt>
      <trkpt lat="47.13791" lon="5.59786">
        <ele>274</ele>
        <time>2019-09-12T09:41:42Z</time>
      </trkpt>
      <trkpt lat="47.13764" lon="5.59741">
        <ele>274.20001220703</ele>
        <time>2019-09-12T09:41:50Z</time>
      </trkpt>
      <trkpt lat="47.13733" lon="5.59694">
        <ele>274.20001220703</ele>
        <time>2019-09-12T09:41:59Z</time>
      </trkpt>
      <trkpt lat="47.13727" lon="5.59685">
        <ele>274.20001220703</ele>
        <time>2019-09-12T09:42:01Z</time>
      </trkpt>
      <trkpt lat="47.13719" lon="5.59671">
        <ele>274.20001220703</ele>
        <time>2019-09-12T09:42:04Z</time>
      </trkpt>
      <trkpt lat="47.13705" lon="5.59646">
        <ele>274.20001220703</ele>
        <time>2019-09-12T09:42:10Z</time>
      </trkpt>
      <trkpt lat="47.13688" lon="5.59618">
        <ele>274.39999389648</ele>
        <time>2019-09-12T09:42:16Z</time>
      </trkpt>
      <trkpt lat="47.13665" lon="5.59576">
        <ele>274.20001220703</ele>
        <time>2019-09-12T09:42:24Z</time>
      </trkpt>
      <trkpt lat="47.13638" lon="5.59528">
        <ele>274.20001220703</ele>
        <time>2019-09-12T09:42:33Z</time>
      </trkpt>
      <trkpt lat="47.13614" lon="5.59483">
        <ele>274.39999389648</ele>
        <time>2019-09-12T09:42:41Z</time>
      </trkpt>
      <trkpt lat="47.13584" lon="5.59427">
        <ele>274.39999389648</ele>
        <time>2019-09-12T09:42:51Z</time>
      </trkpt>
      <trkpt lat="47.13582" lon="5.59421">
        <ele>274.39999389648</ele>
        <time>2019-09-12T09:42:52Z</time>
      </trkpt>
      <trkpt lat="47.13573" lon="5.59387">
        <ele>274.39999389648</ele>
        <time>2019-09-12T09:42:57Z</time>
      </trkpt>
      <trkpt lat="47.13561" lon="5.59352">
        <ele>274.60000610352</ele>
        <time>2019-09-12T09:43:03Z</time>
      </trkpt>
      <trkpt lat="47.13557" lon="5.59342">
        <ele>274.60000610352</ele>
        <time>2019-09-12T09:43:05Z</time>
      </trkpt>
      <trkpt lat="47.13545" lon="5.59321">
        <ele>275.20001220703</ele>
        <time>2019-09-12T09:43:11Z</time>
      </trkpt>
      <trkpt lat="47.1354" lon="5.59312">
        <ele>275.39999389648</ele>
        <time>2019-09-12T09:43:14Z</time>
      </trkpt>
      <trkpt lat="47.13537" lon="5.59304">
        <ele>275.79998779297</ele>
        <time>2019-09-12T09:43:16Z</time>
      </trkpt>
      <trkpt lat="47.13525" lon="5.59274">
        <ele>275.79998779297</ele>
        <time>2019-09-12T09:43:21Z</time>
      </trkpt>
      <trkpt lat="47.1351" lon="5.59238">
        <ele>275.39999389648</ele>
        <time>2019-09-12T09:43:27Z</time>
      </trkpt>
      <trkpt lat="47.13492" lon="5.59196">
        <ele>275</ele>
        <time>2019-09-12T09:43:34Z</time>
      </trkpt>
      <trkpt lat="47.13475" lon="5.59156">
        <ele>274.79998779297</ele>
        <time>2019-09-12T09:43:41Z</time>
      </trkpt>
      <trkpt lat="47.13464" lon="5.59131">
        <ele>274.79998779297</ele>
        <time>2019-09-12T09:43:45Z</time>
      </trkpt>
      <trkpt lat="47.13457" lon="5.59121">
        <ele>274.79998779297</ele>
        <time>2019-09-12T09:43:47Z</time>
      </trkpt>
      <trkpt lat="47.13449" lon="5.59104">
        <ele>274.79998779297</ele>
        <time>2019-09-12T09:43:50Z</time>
      </trkpt>
      <trkpt lat="47.13442" lon="5.59084">
        <ele>274.79998779297</ele>
        <time>2019-09-12T09:43:53Z</time>
      </trkpt>
      <trkpt lat="47.13426" lon="5.59044">
        <ele>274.79998779297</ele>
        <time>2019-09-12T09:43:59Z</time>
      </trkpt>
      <trkpt lat="47.13423" lon="5.59038">
        <ele>274.79998779297</ele>
        <time>2019-09-12T09:44:00Z</time>
      </trkpt>
      <trkpt lat="47.13412" lon="5.59016">
        <ele>274.79998779297</ele>
        <time>2019-09-12T09:44:04Z</time>
      </trkpt>
      <trkpt lat="47.13402" lon="5.59">
        <ele>274.60000610352</ele>
        <time>2019-09-12T09:44:07Z</time>
      </trkpt>
      <trkpt lat="47.13393" lon="5.58975">
        <ele>274.60000610352</ele>
        <time>2019-09-12T09:44:11Z</time>
      </trkpt>
      <trkpt lat="47.13385" lon="5.58956">
        <ele>274.60000610352</ele>
        <time>2019-09-12T09:44:14Z</time>
      </trkpt>
      <trkpt lat="47.13382" lon="5.5895">
        <ele>274.60000610352</ele>
        <time>2019-09-12T09:44:15Z</time>
      </trkpt>
      <trkpt lat="47.13366" lon="5.58918">
        <ele>274.39999389648</ele>
        <time>2019-09-12T09:44:21Z</time>
      </trkpt>
      <trkpt lat="47.13363" lon="5.58912">
        <ele>274.39999389648</ele>
        <time>2019-09-12T09:44:22Z</time>
      </trkpt>
      <trkpt lat="47.13355" lon="5.58884">
        <ele>274.39999389648</ele>
        <time>2019-09-12T09:44:26Z</time>
      </trkpt>
      <trkpt lat="47.1334" lon="5.58841">
        <ele>274.39999389648</ele>
        <time>2019-09-12T09:44:32Z</time>
      </trkpt>
      <trkpt lat="47.13338" lon="5.58834">
        <ele>274.39999389648</ele>
        <time>2019-09-12T09:44:33Z</time>
      </trkpt>
      <trkpt lat="47.13335" lon="5.58822">
        <ele>274.39999389648</ele>
        <time>2019-09-12T09:44:35Z</time>
      </trkpt>
      <trkpt lat="47.13329" lon="5.58787">
        <ele>274.39999389648</ele>
        <time>2019-09-12T09:44:40Z</time>
      </trkpt>
      <trkpt lat="47.13327" lon="5.58743">
        <ele>274.39999389648</ele>
        <time>2019-09-12T09:44:46Z</time>
      </trkpt>
      <trkpt lat="47.13327" lon="5.58735">
        <ele>274.39999389648</ele>
        <time>2019-09-12T09:44:47Z</time>
      </trkpt>
      <trkpt lat="47.13338" lon="5.58662">
        <ele>274.39999389648</ele>
        <time>2019-09-12T09:44:57Z</time>
      </trkpt>
      <trkpt lat="47.13345" lon="5.58605">
        <ele>274.39999389648</ele>
        <time>2019-09-12T09:45:05Z</time>
      </trkpt>
      <trkpt lat="47.13349" lon="5.58578">
        <ele>274.20001220703</ele>
        <time>2019-09-12T09:45:09Z</time>
      </trkpt>
      <trkpt lat="47.13351" lon="5.58557">
        <ele>274.20001220703</ele>
        <time>2019-09-12T09:45:12Z</time>
      </trkpt>
      <trkpt lat="47.13355" lon="5.58524">
        <ele>274.20001220703</ele>
        <time>2019-09-12T09:45:17Z</time>
      </trkpt>
      <trkpt lat="47.13357" lon="5.58518">
        <ele>274.20001220703</ele>
        <time>2019-09-12T09:45:18Z</time>
      </trkpt>
      <trkpt lat="47.1336" lon="5.58491">
        <ele>274.20001220703</ele>
        <time>2019-09-12T09:45:22Z</time>
      </trkpt>
      <trkpt lat="47.13362" lon="5.58478">
        <ele>274.20001220703</ele>
        <time>2019-09-12T09:45:24Z</time>
      </trkpt>
      <trkpt lat="47.13367" lon="5.58444">
        <ele>274.20001220703</ele>
        <time>2019-09-12T09:45:29Z</time>
      </trkpt>
      <trkpt lat="47.13367" lon="5.58437">
        <ele>274.20001220703</ele>
        <time>2019-09-12T09:45:30Z</time>
      </trkpt>
      <trkpt lat="47.13373" lon="5.58392">
        <ele>274.20001220703</ele>
        <time>2019-09-12T09:45:36Z</time>
      </trkpt>
      <trkpt lat="47.13381" lon="5.58327">
        <ele>274.20001220703</ele>
        <time>2019-09-12T09:45:45Z</time>
      </trkpt>
      <trkpt lat="47.1339" lon="5.5826">
        <ele>274</ele>
        <time>2019-09-12T09:45:54Z</time>
      </trkpt>
      <trkpt lat="47.13397" lon="5.58201">
        <ele>273.79998779297</ele>
        <time>2019-09-12T09:46:02Z</time>
      </trkpt>
      <trkpt lat="47.13403" lon="5.58151">
        <ele>273.79998779297</ele>
        <time>2019-09-12T09:46:09Z</time>
      </trkpt>
      <trkpt lat="47.13405" lon="5.58102">
        <ele>273.79998779297</ele>
        <time>2019-09-12T09:46:16Z</time>
      </trkpt>
      <trkpt lat="47.13406" lon="5.58095">
        <ele>273.79998779297</ele>
        <time>2019-09-12T09:46:17Z</time>
      </trkpt>
      <trkpt lat="47.13409" lon="5.58081">
        <ele>274</ele>
        <time>2019-09-12T09:46:19Z</time>
      </trkpt>
      <trkpt lat="47.13412" lon="5.58068">
        <ele>274</ele>
        <time>2019-09-12T09:46:21Z</time>
      </trkpt>
      <trkpt lat="47.13415" lon="5.58054">
        <ele>274</ele>
        <time>2019-09-12T09:46:23Z</time>
      </trkpt>
      <trkpt lat="47.13422" lon="5.57996">
        <ele>274</ele>
        <time>2019-09-12T09:46:31Z</time>
      </trkpt>
      <trkpt lat="47.13426" lon="5.57953">
        <ele>274</ele>
        <time>2019-09-12T09:46:37Z</time>
      </trkpt>
      <trkpt lat="47.13427" lon="5.57931">
        <ele>274</ele>
        <time>2019-09-12T09:46:40Z</time>
      </trkpt>
      <trkpt lat="47.13428" lon="5.57909">
        <ele>273.79998779297</ele>
        <time>2019-09-12T09:46:43Z</time>
      </trkpt>
      <trkpt lat="47.13429" lon="5.57887">
        <ele>273.60000610352</ele>
        <time>2019-09-12T09:46:46Z</time>
      </trkpt>
      <trkpt lat="47.13429" lon="5.57858">
        <ele>273.79998779297</ele>
        <time>2019-09-12T09:46:50Z</time>
      </trkpt>
      <trkpt lat="47.13429" lon="5.57851">
        <ele>273.60000610352</ele>
        <time>2019-09-12T09:46:51Z</time>
      </trkpt>
      <trkpt lat="47.13423" lon="5.57806">
        <ele>273.60000610352</ele>
        <time>2019-09-12T09:46:58Z</time>
      </trkpt>
      <trkpt lat="47.13418" lon="5.57787">
        <ele>273.60000610352</ele>
        <time>2019-09-12T09:47:01Z</time>
      </trkpt>
      <trkpt lat="47.13412" lon="5.57769">
        <ele>273.60000610352</ele>
        <time>2019-09-12T09:47:04Z</time>
      </trkpt>
      <trkpt lat="47.1341" lon="5.57762">
        <ele>273.60000610352</ele>
        <time>2019-09-12T09:47:05Z</time>
      </trkpt>
      <trkpt lat="47.13396" lon="5.57724">
        <ele>273.39999389648</ele>
        <time>2019-09-12T09:47:11Z</time>
      </trkpt>
      <trkpt lat="47.13376" lon="5.57686">
        <ele>273.39999389648</ele>
        <time>2019-09-12T09:47:18Z</time>
      </trkpt>
      <trkpt lat="47.1335" lon="5.57654">
        <ele>273.20001220703</ele>
        <time>2019-09-12T09:47:25Z</time>
      </trkpt>
      <trkpt lat="47.13328" lon="5.57631">
        <ele>273</ele>
        <time>2019-09-12T09:47:31Z</time>
      </trkpt>
      <trkpt lat="47.13305" lon="5.57606">
        <ele>273</ele>
        <time>2019-09-12T09:47:37Z</time>
      </trkpt>
      <trkpt lat="47.13286" lon="5.57585">
        <ele>273</ele>
        <time>2019-09-12T09:47:42Z</time>
      </trkpt>
      <trkpt lat="47.13279" lon="5.57574">
        <ele>273</ele>
        <time>2019-09-12T09:47:44Z</time>
      </trkpt>
      <trkpt lat="47.13245" lon="5.5752">
        <ele>273</ele>
        <time>2019-09-12T09:47:54Z</time>
      </trkpt>
      <trkpt lat="47.13216" lon="5.57473">
        <ele>273</ele>
        <time>2019-09-12T09:48:03Z</time>
      </trkpt>
      <trkpt lat="47.13196" lon="5.57431">
        <ele>273</ele>
        <time>2019-09-12T09:48:10Z</time>
      </trkpt>
      <trkpt lat="47.13186" lon="5.57406">
        <ele>273</ele>
        <time>2019-09-12T09:48:14Z</time>
      </trkpt>
      <trkpt lat="47.13182" lon="5.57394">
        <ele>273</ele>
        <time>2019-09-12T09:48:16Z</time>
      </trkpt>
      <trkpt lat="47.13174" lon="5.57368">
        <ele>273</ele>
        <time>2019-09-12T09:48:20Z</time>
      </trkpt>
      <trkpt lat="47.13169" lon="5.57355">
        <ele>273</ele>
        <time>2019-09-12T09:48:22Z</time>
      </trkpt>
      <trkpt lat="47.13167" lon="5.57349">
        <ele>273</ele>
        <time>2019-09-12T09:48:23Z</time>
      </trkpt>
      <trkpt lat="47.13163" lon="5.57336">
        <ele>273</ele>
        <time>2019-09-12T09:48:25Z</time>
      </trkpt>
      <trkpt lat="47.13154" lon="5.5731">
        <ele>273</ele>
        <time>2019-09-12T09:48:29Z</time>
      </trkpt>
      <trkpt lat="47.13152" lon="5.57304">
        <ele>273.20001220703</ele>
        <time>2019-09-12T09:48:30Z</time>
      </trkpt>
      <trkpt lat="47.1314" lon="5.57272">
        <ele>273.20001220703</ele>
        <time>2019-09-12T09:48:35Z</time>
      </trkpt>
      <trkpt lat="47.1312" lon="5.57223">
        <ele>273.20001220703</ele>
        <time>2019-09-12T09:48:43Z</time>
      </trkpt>
      <trkpt lat="47.13097" lon="5.57177">
        <ele>273.20001220703</ele>
        <time>2019-09-12T09:48:51Z</time>
      </trkpt>
      <trkpt lat="47.13084" lon="5.57154">
        <ele>273.20001220703</ele>
        <time>2019-09-12T09:48:55Z</time>
      </trkpt>
      <trkpt lat="47.13074" lon="5.57138">
        <ele>273.20001220703</ele>
        <time>2019-09-12T09:48:58Z</time>
      </trkpt>
      <trkpt lat="47.13047" lon="5.57104">
        <ele>272.79998779297</ele>
        <time>2019-09-12T09:49:05Z</time>
      </trkpt>
      <trkpt lat="47.13036" lon="5.5709">
        <ele>272.79998779297</ele>
        <time>2019-09-12T09:49:08Z</time>
      </trkpt>
      <trkpt lat="47.13027" lon="5.57073">
        <ele>272.79998779297</ele>
        <time>2019-09-12T09:49:11Z</time>
      </trkpt>
      <trkpt lat="47.13009" lon="5.57027">
        <ele>272.60000610352</ele>
        <time>2019-09-12T09:49:18Z</time>
      </trkpt>
      <trkpt lat="47.12986" lon="5.56978">
        <ele>272.39999389648</ele>
        <time>2019-09-12T09:49:26Z</time>
      </trkpt>
      <trkpt lat="47.12963" lon="5.56933">
        <ele>272.39999389648</ele>
        <time>2019-09-12T09:49:34Z</time>
      </trkpt>
      <trkpt lat="47.12946" lon="5.56903">
        <ele>272.39999389648</ele>
        <time>2019-09-12T09:49:40Z</time>
      </trkpt>
      <trkpt lat="47.12923" lon="5.56858">
        <ele>272.39999389648</ele>
        <time>2019-09-12T09:49:48Z</time>
      </trkpt>
      <trkpt lat="47.12891" lon="5.56805">
        <ele>272.20001220703</ele>
        <time>2019-09-12T09:49:58Z</time>
      </trkpt>
      <trkpt lat="47.12863" lon="5.56763">
        <ele>272.20001220703</ele>
        <time>2019-09-12T09:50:06Z</time>
      </trkpt>
      <trkpt lat="47.12835" lon="5.56727">
        <ele>272.20001220703</ele>
        <time>2019-09-12T09:50:14Z</time>
      </trkpt>
      <trkpt lat="47.12809" lon="5.56699">
        <ele>272.39999389648</ele>
        <time>2019-09-12T09:50:21Z</time>
      </trkpt>
      <trkpt lat="47.12802" lon="5.56691">
        <ele>272.39999389648</ele>
        <time>2019-09-12T09:50:23Z</time>
      </trkpt>
      <trkpt lat="47.12791" lon="5.56672">
        <ele>272.60000610352</ele>
        <time>2019-09-12T09:50:27Z</time>
      </trkpt>
      <trkpt lat="47.12762" lon="5.56611">
        <ele>272.60000610352</ele>
        <time>2019-09-12T09:50:38Z</time>
      </trkpt>
      <trkpt lat="47.1274" lon="5.56571">
        <ele>272.79998779297</ele>
        <time>2019-09-12T09:50:46Z</time>
      </trkpt>
      <trkpt lat="47.1272" lon="5.5654">
        <ele>273.39999389648</ele>
        <time>2019-09-12T09:50:53Z</time>
      </trkpt>
      <trkpt lat="47.127" lon="5.56518">
        <ele>273.39999389648</ele>
        <time>2019-09-12T09:50:59Z</time>
      </trkpt>
      <trkpt lat="47.12677" lon="5.56494">
        <ele>273.60000610352</ele>
        <time>2019-09-12T09:51:05Z</time>
      </trkpt>
      <trkpt lat="47.12669" lon="5.56487">
        <ele>273.39999389648</ele>
        <time>2019-09-12T09:51:07Z</time>
      </trkpt>
      <trkpt lat="47.12648" lon="5.5647">
        <ele>273.39999389648</ele>
        <time>2019-09-12T09:51:12Z</time>
      </trkpt>
      <trkpt lat="47.12609" lon="5.5644">
        <ele>273.39999389648</ele>
        <time>2019-09-12T09:51:20Z</time>
      </trkpt>
      <trkpt lat="47.12577" lon="5.56412">
        <ele>273.39999389648</ele>
        <time>2019-09-12T09:51:27Z</time>
      </trkpt>
      <trkpt lat="47.12547" lon="5.5638">
        <ele>273.39999389648</ele>
        <time>2019-09-12T09:51:34Z</time>
      </trkpt>
      <trkpt lat="47.12522" lon="5.56353">
        <ele>273.39999389648</ele>
        <time>2019-09-12T09:51:40Z</time>
      </trkpt>
      <trkpt lat="47.12504" lon="5.56339">
        <ele>273.39999389648</ele>
        <time>2019-09-12T09:51:44Z</time>
      </trkpt>
      <trkpt lat="47.12492" lon="5.56331">
        <ele>273.39999389648</ele>
        <time>2019-09-12T09:51:47Z</time>
      </trkpt>
      <trkpt lat="47.12472" lon="5.56314">
        <ele>273.60000610352</ele>
        <time>2019-09-12T09:51:53Z</time>
      </trkpt>
      <trkpt lat="47.12459" lon="5.56307">
        <ele>274.20001220703</ele>
        <time>2019-09-12T09:51:58Z</time>
      </trkpt>
      <trkpt lat="47.1244" lon="5.56297">
        <ele>274.20001220703</ele>
        <time>2019-09-12T09:52:03Z</time>
      </trkpt>
      <trkpt lat="47.12409" lon="5.5628">
        <ele>274</ele>
        <time>2019-09-12T09:52:09Z</time>
      </trkpt>
      <trkpt lat="47.12384" lon="5.56266">
        <ele>273.20001220703</ele>
        <time>2019-09-12T09:52:14Z</time>
      </trkpt>
      <trkpt lat="47.12375" lon="5.56259">
        <ele>273</ele>
        <time>2019-09-12T09:52:16Z</time>
      </trkpt>
      <trkpt lat="47.12348" lon="5.56228">
        <ele>272.20001220703</ele>
        <time>2019-09-12T09:52:23Z</time>
      </trkpt>
      <trkpt lat="47.12335" lon="5.56207">
        <ele>272.20001220703</ele>
        <time>2019-09-12T09:52:27Z</time>
      </trkpt>
      <trkpt lat="47.12327" lon="5.56197">
        <ele>272.20001220703</ele>
        <time>2019-09-12T09:52:29Z</time>
      </trkpt>
      <trkpt lat="47.12295" lon="5.56149">
        <ele>272.20001220703</ele>
        <time>2019-09-12T09:52:38Z</time>
      </trkpt>
      <trkpt lat="47.12262" lon="5.56106">
        <ele>272.20001220703</ele>
        <time>2019-09-12T09:52:47Z</time>
      </trkpt>
      <trkpt lat="47.1224" lon="5.56077">
        <ele>272.20001220703</ele>
        <time>2019-09-12T09:52:53Z</time>
      </trkpt>
      <trkpt lat="47.12222" lon="5.56055">
        <ele>272</ele>
        <time>2019-09-12T09:52:58Z</time>
      </trkpt>
      <trkpt lat="47.12215" lon="5.56045">
        <ele>272</ele>
        <time>2019-09-12T09:53:00Z</time>
      </trkpt>
      <trkpt lat="47.12192" lon="5.56008">
        <ele>271.79998779297</ele>
        <time>2019-09-12T09:53:07Z</time>
      </trkpt>
      <trkpt lat="47.12157" lon="5.55959">
        <ele>271.79998779297</ele>
        <time>2019-09-12T09:53:16Z</time>
      </trkpt>
      <trkpt lat="47.12127" lon="5.55917">
        <ele>271.79998779297</ele>
        <time>2019-09-12T09:53:24Z</time>
      </trkpt>
      <trkpt lat="47.12094" lon="5.55872">
        <ele>272</ele>
        <time>2019-09-12T09:53:33Z</time>
      </trkpt>
      <trkpt lat="47.12063" lon="5.55834">
        <ele>271.79998779297</ele>
        <time>2019-09-12T09:53:41Z</time>
      </trkpt>
      <trkpt lat="47.12031" lon="5.55789">
        <ele>271.79998779297</ele>
        <time>2019-09-12T09:53:49Z</time>
      </trkpt>
      <trkpt lat="47.12" lon="5.55742">
        <ele>271.60000610352</ele>
        <time>2019-09-12T09:53:57Z</time>
      </trkpt>
      <trkpt lat="47.1197" lon="5.55702">
        <ele>271.60000610352</ele>
        <time>2019-09-12T09:54:04Z</time>
      </trkpt>
      <trkpt lat="47.11958" lon="5.55685">
        <ele>271.60000610352</ele>
        <time>2019-09-12T09:54:07Z</time>
      </trkpt>
      <trkpt lat="47.11947" lon="5.55669">
        <ele>271.39999389648</ele>
        <time>2019-09-12T09:54:10Z</time>
      </trkpt>
      <trkpt lat="47.11915" lon="5.55628">
        <ele>271.39999389648</ele>
        <time>2019-09-12T09:54:18Z</time>
      </trkpt>
      <trkpt lat="47.1189" lon="5.55593">
        <ele>271.60000610352</ele>
        <time>2019-09-12T09:54:25Z</time>
      </trkpt>
      <trkpt lat="47.11864" lon="5.55555">
        <ele>271.60000610352</ele>
        <time>2019-09-12T09:54:32Z</time>
      </trkpt>
      <trkpt lat="47.11836" lon="5.55518">
        <ele>271.60000610352</ele>
        <time>2019-09-12T09:54:39Z</time>
      </trkpt>
      <trkpt lat="47.11809" lon="5.5548">
        <ele>271.60000610352</ele>
        <time>2019-09-12T09:54:46Z</time>
      </trkpt>
      <trkpt lat="47.11805" lon="5.55475">
        <ele>271.60000610352</ele>
        <time>2019-09-12T09:54:47Z</time>
      </trkpt>
      <trkpt lat="47.11782" lon="5.55441">
        <ele>271.60000610352</ele>
        <time>2019-09-12T09:54:53Z</time>
      </trkpt>
      <trkpt lat="47.11747" lon="5.55389">
        <ele>271.79998779297</ele>
        <time>2019-09-12T09:55:02Z</time>
      </trkpt>
      <trkpt lat="47.11735" lon="5.55372">
        <ele>271.79998779297</ele>
        <time>2019-09-12T09:55:05Z</time>
      </trkpt>
      <trkpt lat="47.11714" lon="5.55343">
        <ele>271.79998779297</ele>
        <time>2019-09-12T09:55:10Z</time>
      </trkpt>
      <trkpt lat="47.11677" lon="5.5529">
        <ele>271.60000610352</ele>
        <time>2019-09-12T09:55:19Z</time>
      </trkpt>
      <trkpt lat="47.11648" lon="5.55248">
        <ele>271.60000610352</ele>
        <time>2019-09-12T09:55:26Z</time>
      </trkpt>
      <trkpt lat="47.11611" lon="5.55197">
        <ele>271.60000610352</ele>
        <time>2019-09-12T09:55:35Z</time>
      </trkpt>
      <trkpt lat="47.11576" lon="5.55148">
        <ele>271.60000610352</ele>
        <time>2019-09-12T09:55:44Z</time>
      </trkpt>
      <trkpt lat="47.11543" lon="5.551">
        <ele>271.60000610352</ele>
        <time>2019-09-12T09:55:52Z</time>
      </trkpt>
      <trkpt lat="47.11508" lon="5.55048">
        <ele>271.39999389648</ele>
        <time>2019-09-12T09:56:00Z</time>
      </trkpt>
      <trkpt lat="47.11504" lon="5.55043">
        <ele>271.39999389648</ele>
        <time>2019-09-12T09:56:01Z</time>
      </trkpt>
      <trkpt lat="47.1149" lon="5.55029">
        <ele>271.39999389648</ele>
        <time>2019-09-12T09:56:04Z</time>
      </trkpt>
      <trkpt lat="47.11459" lon="5.54992">
        <ele>271.39999389648</ele>
        <time>2019-09-12T09:56:11Z</time>
      </trkpt>
      <trkpt lat="47.11438" lon="5.54959">
        <ele>271.39999389648</ele>
        <time>2019-09-12T09:56:17Z</time>
      </trkpt>
      <trkpt lat="47.11406" lon="5.54911">
        <ele>271.39999389648</ele>
        <time>2019-09-12T09:56:26Z</time>
      </trkpt>
      <trkpt lat="47.11399" lon="5.54899">
        <ele>271.39999389648</ele>
        <time>2019-09-12T09:56:28Z</time>
      </trkpt>
      <trkpt lat="47.11384" lon="5.54876">
        <ele>271.39999389648</ele>
        <time>2019-09-12T09:56:32Z</time>
      </trkpt>
      <trkpt lat="47.11353" lon="5.54838">
        <ele>271.39999389648</ele>
        <time>2019-09-12T09:56:39Z</time>
      </trkpt>
      <trkpt lat="47.11349" lon="5.54833">
        <ele>271.39999389648</ele>
        <time>2019-09-12T09:56:40Z</time>
      </trkpt>
      <trkpt lat="47.11324" lon="5.54812">
        <ele>271.20001220703</ele>
        <time>2019-09-12T09:56:45Z</time>
      </trkpt>
      <trkpt lat="47.11291" lon="5.54796">
        <ele>271</ele>
        <time>2019-09-12T09:56:51Z</time>
      </trkpt>
      <trkpt lat="47.11245" lon="5.54781">
        <ele>271</ele>
        <time>2019-09-12T09:56:59Z</time>
      </trkpt>
      <trkpt lat="47.11201" lon="5.54763">
        <ele>271</ele>
        <time>2019-09-12T09:57:07Z</time>
      </trkpt>
      <trkpt lat="47.11146" lon="5.54739">
        <ele>271.20001220703</ele>
        <time>2019-09-12T09:57:17Z</time>
      </trkpt>
      <trkpt lat="47.11107" lon="5.54724">
        <ele>271.20001220703</ele>
        <time>2019-09-12T09:57:24Z</time>
      </trkpt>
      <trkpt lat="47.11062" lon="5.54704">
        <ele>271.20001220703</ele>
        <time>2019-09-12T09:57:32Z</time>
      </trkpt>
      <trkpt lat="47.11016" lon="5.54686">
        <ele>271.39999389648</ele>
        <time>2019-09-12T09:57:40Z</time>
      </trkpt>
      <trkpt lat="47.10979" lon="5.54672">
        <ele>271.39999389648</ele>
        <time>2019-09-12T09:57:47Z</time>
      </trkpt>
      <trkpt lat="47.10949" lon="5.54661">
        <ele>271.39999389648</ele>
        <time>2019-09-12T09:57:53Z</time>
      </trkpt>
      <trkpt lat="47.10928" lon="5.54654">
        <ele>271.39999389648</ele>
        <time>2019-09-12T09:57:57Z</time>
      </trkpt>
      <trkpt lat="47.10897" lon="5.54641">
        <ele>271.39999389648</ele>
        <time>2019-09-12T09:58:03Z</time>
      </trkpt>
      <trkpt lat="47.10855" lon="5.54624">
        <ele>271.39999389648</ele>
        <time>2019-09-12T09:58:11Z</time>
      </trkpt>
      <trkpt lat="47.10811" lon="5.54608">
        <ele>271.39999389648</ele>
        <time>2019-09-12T09:58:19Z</time>
      </trkpt>
      <trkpt lat="47.10778" lon="5.54595">
        <ele>271.39999389648</ele>
        <time>2019-09-12T09:58:25Z</time>
      </trkpt>
      <trkpt lat="47.10745" lon="5.5458">
        <ele>271.20001220703</ele>
        <time>2019-09-12T09:58:31Z</time>
      </trkpt>
      <trkpt lat="47.10696" lon="5.54558">
        <ele>271.20001220703</ele>
        <time>2019-09-12T09:58:40Z</time>
      </trkpt>
      <trkpt lat="47.10657" lon="5.54542">
        <ele>271.20001220703</ele>
        <time>2019-09-12T09:58:47Z</time>
      </trkpt>
      <trkpt lat="47.10601" lon="5.54519">
        <ele>271.20001220703</ele>
        <time>2019-09-12T09:58:57Z</time>
      </trkpt>
      <trkpt lat="47.10595" lon="5.54517">
        <ele>271.20001220703</ele>
        <time>2019-09-12T09:58:58Z</time>
      </trkpt>
      <trkpt lat="47.10544" lon="5.54496">
        <ele>271.20001220703</ele>
        <time>2019-09-12T09:59:07Z</time>
      </trkpt>
      <trkpt lat="47.10505" lon="5.54481">
        <ele>271.20001220703</ele>
        <time>2019-09-12T09:59:14Z</time>
      </trkpt>
      <trkpt lat="47.1046" lon="5.54464">
        <ele>271.20001220703</ele>
        <time>2019-09-12T09:59:22Z</time>
      </trkpt>
      <trkpt lat="47.10432" lon="5.54453">
        <ele>271.20001220703</ele>
        <time>2019-09-12T09:59:27Z</time>
      </trkpt>
      <trkpt lat="47.10416" lon="5.54446">
        <ele>271</ele>
        <time>2019-09-12T09:59:30Z</time>
      </trkpt>
      <trkpt lat="47.10377" lon="5.5443">
        <ele>271</ele>
        <time>2019-09-12T09:59:37Z</time>
      </trkpt>
      <trkpt lat="47.10338" lon="5.54416">
        <ele>271</ele>
        <time>2019-09-12T09:59:44Z</time>
      </trkpt>
      <trkpt lat="47.10283" lon="5.54393">
        <ele>271.20001220703</ele>
        <time>2019-09-12T09:59:54Z</time>
      </trkpt>
      <trkpt lat="47.10249" lon="5.54378">
        <ele>271.39999389648</ele>
        <time>2019-09-12T10:00:01Z</time>
      </trkpt>
      <trkpt lat="47.10213" lon="5.54364">
        <ele>271.39999389648</ele>
        <time>2019-09-12T10:00:08Z</time>
      </trkpt>
      <trkpt lat="47.10172" lon="5.54349">
        <ele>271.39999389648</ele>
        <time>2019-09-12T10:00:16Z</time>
      </trkpt>
      <trkpt lat="47.10124" lon="5.5433">
        <ele>271.20001220703</ele>
        <time>2019-09-12T10:00:25Z</time>
      </trkpt>
      <trkpt lat="47.10084" lon="5.54312">
        <ele>271.20001220703</ele>
        <time>2019-09-12T10:00:33Z</time>
      </trkpt>
      <trkpt lat="47.10052" lon="5.54292">
        <ele>271.20001220703</ele>
        <time>2019-09-12T10:00:40Z</time>
      </trkpt>
      <trkpt lat="47.10043" lon="5.54285">
        <ele>271.20001220703</ele>
        <time>2019-09-12T10:00:42Z</time>
      </trkpt>
      <trkpt lat="47.1002" lon="5.54267">
        <ele>271</ele>
        <time>2019-09-12T10:00:47Z</time>
      </trkpt>
      <trkpt lat="47.09996" lon="5.54251">
        <ele>271</ele>
        <time>2019-09-12T10:00:52Z</time>
      </trkpt>
      <trkpt lat="47.09986" lon="5.54244">
        <ele>271</ele>
        <time>2019-09-12T10:00:54Z</time>
      </trkpt>
      <trkpt lat="47.09953" lon="5.54212">
        <ele>271</ele>
        <time>2019-09-12T10:01:01Z</time>
      </trkpt>
      <trkpt lat="47.09922" lon="5.5417">
        <ele>271</ele>
        <time>2019-09-12T10:01:08Z</time>
      </trkpt>
      <trkpt lat="47.09883" lon="5.54111">
        <ele>271.20001220703</ele>
        <time>2019-09-12T10:01:18Z</time>
      </trkpt>
      <trkpt lat="47.09866" lon="5.54076">
        <ele>271.20001220703</ele>
        <time>2019-09-12T10:01:24Z</time>
      </trkpt>
      <trkpt lat="47.0984" lon="5.54022">
        <ele>271.20001220703</ele>
        <time>2019-09-12T10:01:32Z</time>
      </trkpt>
      <trkpt lat="47.09811" lon="5.53948">
        <ele>271.20001220703</ele>
        <time>2019-09-12T10:01:42Z</time>
      </trkpt>
      <trkpt lat="47.09796" lon="5.53897">
        <ele>271.20001220703</ele>
        <time>2019-09-12T10:01:49Z</time>
      </trkpt>
      <trkpt lat="47.09795" lon="5.53891">
        <ele>271.20001220703</ele>
        <time>2019-09-12T10:01:50Z</time>
      </trkpt>
      <trkpt lat="47.09788" lon="5.53866">
        <ele>271.20001220703</ele>
        <time>2019-09-12T10:01:54Z</time>
      </trkpt>
      <trkpt lat="47.09777" lon="5.53829">
        <ele>271.39999389648</ele>
        <time>2019-09-12T10:02:00Z</time>
      </trkpt>
      <trkpt lat="47.09766" lon="5.53793">
        <ele>271.60000610352</ele>
        <time>2019-09-12T10:02:07Z</time>
      </trkpt>
      <trkpt lat="47.09765" lon="5.53767">
        <ele>271.60000610352</ele>
        <time>2019-09-12T10:02:12Z</time>
      </trkpt>
      <trkpt lat="47.09763" lon="5.53746">
        <ele>271.79998779297</ele>
        <time>2019-09-12T10:02:16Z</time>
      </trkpt>
      <trkpt lat="47.09755" lon="5.53703">
        <ele>271.60000610352</ele>
        <time>2019-09-12T10:02:22Z</time>
      </trkpt>
      <trkpt lat="47.09746" lon="5.5365">
        <ele>271.20001220703</ele>
        <time>2019-09-12T10:02:29Z</time>
      </trkpt>
      <trkpt lat="47.09735" lon="5.53598">
        <ele>271</ele>
        <time>2019-09-12T10:02:36Z</time>
      </trkpt>
      <trkpt lat="47.09719" lon="5.53525">
        <ele>270.60000610352</ele>
        <time>2019-09-12T10:02:45Z</time>
      </trkpt>
      <trkpt lat="47.09706" lon="5.53458">
        <ele>270.39999389648</ele>
        <time>2019-09-12T10:02:53Z</time>
      </trkpt>
      <trkpt lat="47.09692" lon="5.5339">
        <ele>270</ele>
        <time>2019-09-12T10:03:01Z</time>
      </trkpt>
      <trkpt lat="47.09676" lon="5.53315">
        <ele>269.79998779297</ele>
        <time>2019-09-12T10:03:10Z</time>
      </trkpt>
      <trkpt lat="47.09662" lon="5.53243">
        <ele>269.79998779297</ele>
        <time>2019-09-12T10:03:19Z</time>
      </trkpt>
      <trkpt lat="47.09656" lon="5.53217">
        <ele>270</ele>
        <time>2019-09-12T10:03:23Z</time>
      </trkpt>
      <trkpt lat="47.09652" lon="5.53204">
        <ele>270</ele>
        <time>2019-09-12T10:03:25Z</time>
      </trkpt>
      <trkpt lat="47.09643" lon="5.53185">
        <ele>270</ele>
        <time>2019-09-12T10:03:28Z</time>
      </trkpt>
      <trkpt lat="47.09641" lon="5.5318">
        <ele>270</ele>
        <time>2019-09-12T10:03:29Z</time>
      </trkpt>
      <trkpt lat="47.0964" lon="5.53156">
        <ele>270.20001220703</ele>
        <time>2019-09-12T10:03:32Z</time>
      </trkpt>
      <trkpt lat="47.0964" lon="5.53132">
        <ele>270.20001220703</ele>
        <time>2019-09-12T10:03:35Z</time>
      </trkpt>
      <trkpt lat="47.09638" lon="5.53116">
        <ele>270.20001220703</ele>
        <time>2019-09-12T10:03:37Z</time>
      </trkpt>
      <trkpt lat="47.09627" lon="5.5306">
        <ele>270.39999389648</ele>
        <time>2019-09-12T10:03:44Z</time>
      </trkpt>
      <trkpt lat="47.09615" lon="5.52995">
        <ele>270.39999389648</ele>
        <time>2019-09-12T10:03:52Z</time>
      </trkpt>
      <trkpt lat="47.09613" lon="5.52987">
        <ele>270.39999389648</ele>
        <time>2019-09-12T10:03:53Z</time>
      </trkpt>
      <trkpt lat="47.0961" lon="5.52972">
        <ele>270.39999389648</ele>
        <time>2019-09-12T10:03:55Z</time>
      </trkpt>
      <trkpt lat="47.09607" lon="5.52956">
        <ele>270.39999389648</ele>
        <time>2019-09-12T10:03:57Z</time>
      </trkpt>
      <trkpt lat="47.09596" lon="5.52899">
        <ele>270.20001220703</ele>
        <time>2019-09-12T10:04:04Z</time>
      </trkpt>
      <trkpt lat="47.09582" lon="5.5283">
        <ele>270.20001220703</ele>
        <time>2019-09-12T10:04:12Z</time>
      </trkpt>
      <trkpt lat="47.09571" lon="5.52781">
        <ele>270.20001220703</ele>
        <time>2019-09-12T10:04:18Z</time>
      </trkpt>
      <trkpt lat="47.09566" lon="5.52764">
        <ele>270.20001220703</ele>
        <time>2019-09-12T10:04:20Z</time>
      </trkpt>
      <trkpt lat="47.09558" lon="5.52717">
        <ele>270.20001220703</ele>
        <time>2019-09-12T10:04:25Z</time>
      </trkpt>
      <trkpt lat="47.09554" lon="5.52694">
        <ele>270.20001220703</ele>
        <time>2019-09-12T10:04:29Z</time>
      </trkpt>
      <trkpt lat="47.09548" lon="5.5268">
        <ele>270.60000610352</ele>
        <time>2019-09-12T10:04:33Z</time>
      </trkpt>
      <trkpt lat="47.09545" lon="5.52679">
        <ele>270.79998779297</ele>
        <time>2019-09-12T10:04:34Z</time>
      </trkpt>
      <trkpt lat="47.09536" lon="5.52682">
        <ele>271.79998779297</ele>
        <time>2019-09-12T10:04:37Z</time>
      </trkpt>
      <trkpt lat="47.09531" lon="5.52685">
        <ele>272.39999389648</ele>
        <time>2019-09-12T10:04:39Z</time>
      </trkpt>
      <trkpt lat="47.09527" lon="5.52683">
        <ele>272.79998779297</ele>
        <time>2019-09-12T10:04:41Z</time>
      </trkpt>
      <trkpt lat="47.09524" lon="5.52677">
        <ele>273</ele>
        <time>2019-09-12T10:04:43Z</time>
      </trkpt>
      <trkpt lat="47.0952" lon="5.52662">
        <ele>273</ele>
        <time>2019-09-12T10:04:46Z</time>
      </trkpt>
      <trkpt lat="47.09518" lon="5.52655">
        <ele>273</ele>
        <time>2019-09-12T10:04:47Z</time>
      </trkpt>
      <trkpt lat="47.09506" lon="5.52599">
        <ele>271.79998779297</ele>
        <time>2019-09-12T10:04:54Z</time>
      </trkpt>
      <trkpt lat="47.09505" lon="5.5259">
        <ele>271.39999389648</ele>
        <time>2019-09-12T10:04:55Z</time>
      </trkpt>
      <trkpt lat="47.09496" lon="5.52549">
        <ele>270.39999389648</ele>
        <time>2019-09-12T10:05:00Z</time>
      </trkpt>
      <trkpt lat="47.09491" lon="5.52524">
        <ele>270.20001220703</ele>
        <time>2019-09-12T10:05:03Z</time>
      </trkpt>
      <trkpt lat="47.09474" lon="5.52441">
        <ele>270</ele>
        <time>2019-09-12T10:05:13Z</time>
      </trkpt>
      <trkpt lat="47.09472" lon="5.52433">
        <ele>270</ele>
        <time>2019-09-12T10:05:14Z</time>
      </trkpt>
      <trkpt lat="47.09456" lon="5.52359">
        <ele>270</ele>
        <time>2019-09-12T10:05:23Z</time>
      </trkpt>
      <trkpt lat="47.09441" lon="5.52287">
        <ele>270</ele>
        <time>2019-09-12T10:05:32Z</time>
      </trkpt>
      <trkpt lat="47.09428" lon="5.52223">
        <ele>270</ele>
        <time>2019-09-12T10:05:40Z</time>
      </trkpt>
      <trkpt lat="47.09415" lon="5.52167">
        <ele>270.20001220703</ele>
        <time>2019-09-12T10:05:47Z</time>
      </trkpt>
      <trkpt lat="47.09399" lon="5.5209">
        <ele>270.39999389648</ele>
        <time>2019-09-12T10:05:56Z</time>
      </trkpt>
      <trkpt lat="47.09398" lon="5.52082">
        <ele>270.39999389648</ele>
        <time>2019-09-12T10:05:57Z</time>
      </trkpt>
      <trkpt lat="47.09388" lon="5.52032">
        <ele>270.60000610352</ele>
        <time>2019-09-12T10:06:03Z</time>
      </trkpt>
      <trkpt lat="47.09386" lon="5.52024">
        <ele>270.60000610352</ele>
        <time>2019-09-12T10:06:04Z</time>
      </trkpt>
      <trkpt lat="47.09375" lon="5.51968">
        <ele>270.60000610352</ele>
        <time>2019-09-12T10:06:11Z</time>
      </trkpt>
      <trkpt lat="47.09364" lon="5.51909">
        <ele>270.39999389648</ele>
        <time>2019-09-12T10:06:18Z</time>
      </trkpt>
      <trkpt lat="47.09347" lon="5.51827">
        <ele>270.39999389648</ele>
        <time>2019-09-12T10:06:28Z</time>
      </trkpt>
      <trkpt lat="47.09334" lon="5.51764">
        <ele>270.39999389648</ele>
        <time>2019-09-12T10:06:36Z</time>
      </trkpt>
      <trkpt lat="47.09332" lon="5.51755">
        <ele>270.39999389648</ele>
        <time>2019-09-12T10:06:37Z</time>
      </trkpt>
      <trkpt lat="47.09329" lon="5.5173">
        <ele>270.39999389648</ele>
        <time>2019-09-12T10:06:40Z</time>
      </trkpt>
      <trkpt lat="47.09319" lon="5.5167">
        <ele>270.39999389648</ele>
        <time>2019-09-12T10:06:47Z</time>
      </trkpt>
      <trkpt lat="47.09303" lon="5.51589">
        <ele>270.39999389648</ele>
        <time>2019-09-12T10:06:57Z</time>
      </trkpt>
      <trkpt lat="47.09302" lon="5.51581">
        <ele>270.39999389648</ele>
        <time>2019-09-12T10:06:58Z</time>
      </trkpt>
      <trkpt lat="47.09291" lon="5.51514">
        <ele>270.20001220703</ele>
        <time>2019-09-12T10:07:06Z</time>
      </trkpt>
      <trkpt lat="47.09283" lon="5.51442">
        <ele>270.39999389648</ele>
        <time>2019-09-12T10:07:14Z</time>
      </trkpt>
      <trkpt lat="47.09284" lon="5.51384">
        <ele>270.39999389648</ele>
        <time>2019-09-12T10:07:21Z</time>
      </trkpt>
      <trkpt lat="47.09282" lon="5.51355">
        <ele>270.39999389648</ele>
        <time>2019-09-12T10:07:25Z</time>
      </trkpt>
      <trkpt lat="47.09279" lon="5.51333">
        <ele>270.39999389648</ele>
        <time>2019-09-12T10:07:28Z</time>
      </trkpt>
      <trkpt lat="47.09278" lon="5.5129">
        <ele>270.39999389648</ele>
        <time>2019-09-12T10:07:34Z</time>
      </trkpt>
      <trkpt lat="47.09277" lon="5.51278">
        <ele>270.39999389648</ele>
        <time>2019-09-12T10:07:36Z</time>
      </trkpt>
      <trkpt lat="47.09277" lon="5.51264">
        <ele>270.39999389648</ele>
        <time>2019-09-12T10:07:38Z</time>
      </trkpt>
      <trkpt lat="47.09281" lon="5.51207">
        <ele>270.60000610352</ele>
        <time>2019-09-12T10:07:45Z</time>
      </trkpt>
      <trkpt lat="47.09288" lon="5.51127">
        <ele>270.60000610352</ele>
        <time>2019-09-12T10:07:54Z</time>
      </trkpt>
      <trkpt lat="47.0929" lon="5.51089">
        <ele>270.60000610352</ele>
        <time>2019-09-12T10:07:59Z</time>
      </trkpt>
      <trkpt lat="47.09292" lon="5.51065">
        <ele>270.60000610352</ele>
        <time>2019-09-12T10:08:02Z</time>
      </trkpt>
      <trkpt lat="47.09294" lon="5.51042">
        <ele>270.79998779297</ele>
        <time>2019-09-12T10:08:05Z</time>
      </trkpt>
      <trkpt lat="47.09296" lon="5.50999">
        <ele>270.79998779297</ele>
        <time>2019-09-12T10:08:10Z</time>
      </trkpt>
      <trkpt lat="47.093" lon="5.50948">
        <ele>270.60000610352</ele>
        <time>2019-09-12T10:08:16Z</time>
      </trkpt>
      <trkpt lat="47.09301" lon="5.50932">
        <ele>270.60000610352</ele>
        <time>2019-09-12T10:08:18Z</time>
      </trkpt>
      <trkpt lat="47.09304" lon="5.5091">
        <ele>270.39999389648</ele>
        <time>2019-09-12T10:08:21Z</time>
      </trkpt>
      <trkpt lat="47.09305" lon="5.50904">
        <ele>270.39999389648</ele>
        <time>2019-09-12T10:08:22Z</time>
      </trkpt>
      <trkpt lat="47.09314" lon="5.5088">
        <ele>270.20001220703</ele>
        <time>2019-09-12T10:08:26Z</time>
      </trkpt>
      <trkpt lat="47.09314" lon="5.5086">
        <ele>270.20001220703</ele>
        <time>2019-09-12T10:08:29Z</time>
      </trkpt>
      <trkpt lat="47.09312" lon="5.50854">
        <ele>270.20001220703</ele>
        <time>2019-09-12T10:08:30Z</time>
      </trkpt>
      <trkpt lat="47.09306" lon="5.50829">
        <ele>270.20001220703</ele>
        <time>2019-09-12T10:08:34Z</time>
      </trkpt>
      <trkpt lat="47.09306" lon="5.50822">
        <ele>270.20001220703</ele>
        <time>2019-09-12T10:08:35Z</time>
      </trkpt>
      <trkpt lat="47.09307" lon="5.50794">
        <ele>270.20001220703</ele>
        <time>2019-09-12T10:08:39Z</time>
      </trkpt>
      <trkpt lat="47.09308" lon="5.50763">
        <ele>270.39999389648</ele>
        <time>2019-09-12T10:08:43Z</time>
      </trkpt>
      <trkpt lat="47.0931" lon="5.50745">
        <ele>270.60000610352</ele>
        <time>2019-09-12T10:08:45Z</time>
      </trkpt>
      <trkpt lat="47.09313" lon="5.50677">
        <ele>270.39999389648</ele>
        <time>2019-09-12T10:08:53Z</time>
      </trkpt>
      <trkpt lat="47.09316" lon="5.50627">
        <ele>270.60000610352</ele>
        <time>2019-09-12T10:08:59Z</time>
      </trkpt>
      <trkpt lat="47.09319" lon="5.50584">
        <ele>270.60000610352</ele>
        <time>2019-09-12T10:09:05Z</time>
      </trkpt>
      <trkpt lat="47.09318" lon="5.50549">
        <ele>270.20001220703</ele>
        <time>2019-09-12T10:09:10Z</time>
      </trkpt>
      <trkpt lat="47.09319" lon="5.50534">
        <ele>270.20001220703</ele>
        <time>2019-09-12T10:09:12Z</time>
      </trkpt>
      <trkpt lat="47.09321" lon="5.50504">
        <ele>270.20001220703</ele>
        <time>2019-09-12T10:09:15Z</time>
      </trkpt>
      <trkpt lat="47.09319" lon="5.50494">
        <ele>270.20001220703</ele>
        <time>2019-09-12T10:09:16Z</time>
      </trkpt>
      <trkpt lat="47.09311" lon="5.50479">
        <ele>270.20001220703</ele>
        <time>2019-09-12T10:09:18Z</time>
      </trkpt>
      <trkpt lat="47.093" lon="5.50467">
        <ele>270.20001220703</ele>
        <time>2019-09-12T10:09:20Z</time>
      </trkpt>
      <trkpt lat="47.09297" lon="5.50461">
        <ele>270</ele>
        <time>2019-09-12T10:09:21Z</time>
      </trkpt>
      <trkpt lat="47.09295" lon="5.50446">
        <ele>269</ele>
        <time>2019-09-12T10:09:23Z</time>
      </trkpt>
      <trkpt lat="47.09298" lon="5.50433">
        <ele>268.60000610352</ele>
        <time>2019-09-12T10:09:25Z</time>
      </trkpt>
      <trkpt lat="47.09306" lon="5.50403">
        <ele>268.60000610352</ele>
        <time>2019-09-12T10:09:30Z</time>
      </trkpt>
      <trkpt lat="47.09314" lon="5.50367">
        <ele>268.79998779297</ele>
        <time>2019-09-12T10:09:36Z</time>
      </trkpt>
      <trkpt lat="47.09325" lon="5.5032">
        <ele>269</ele>
        <time>2019-09-12T10:09:44Z</time>
      </trkpt>
      <trkpt lat="47.09336" lon="5.50306">
        <ele>269.20001220703</ele>
        <time>2019-09-12T10:09:49Z</time>
      </trkpt>
      <trkpt lat="47.09348" lon="5.50304">
        <ele>269.60000610352</ele>
        <time>2019-09-12T10:09:54Z</time>
      </trkpt>
      <trkpt lat="47.09354" lon="5.50303">
        <ele>270.20001220703</ele>
        <time>2019-09-12T10:09:57Z</time>
      </trkpt>
      <trkpt lat="47.0936" lon="5.50302">
        <ele>270.60000610352</ele>
        <time>2019-09-12T10:09:59Z</time>
      </trkpt>
      <trkpt lat="47.09362" lon="5.50299">
        <ele>270.79998779297</ele>
        <time>2019-09-12T10:10:00Z</time>
      </trkpt>
      <trkpt lat="47.09364" lon="5.50289">
        <ele>271</ele>
        <time>2019-09-12T10:10:02Z</time>
      </trkpt>
      <trkpt lat="47.09365" lon="5.50278">
        <ele>271.20001220703</ele>
        <time>2019-09-12T10:10:04Z</time>
      </trkpt>
      <trkpt lat="47.09366" lon="5.50272">
        <ele>271.20001220703</ele>
        <time>2019-09-12T10:10:05Z</time>
      </trkpt>
      <trkpt lat="47.09367" lon="5.50258">
        <ele>271.20001220703</ele>
        <time>2019-09-12T10:10:07Z</time>
      </trkpt>
      <trkpt lat="47.09368" lon="5.50238">
        <ele>270.60000610352</ele>
        <time>2019-09-12T10:10:10Z</time>
      </trkpt>
      <trkpt lat="47.09368" lon="5.50227">
        <ele>270.20001220703</ele>
        <time>2019-09-12T10:10:12Z</time>
      </trkpt>
      <trkpt lat="47.09369" lon="5.5019">
        <ele>269.39999389648</ele>
        <time>2019-09-12T10:10:18Z</time>
      </trkpt>
      <trkpt lat="47.09371" lon="5.5016">
        <ele>269.39999389648</ele>
        <time>2019-09-12T10:10:23Z</time>
      </trkpt>
      <trkpt lat="47.09374" lon="5.50111">
        <ele>269.39999389648</ele>
        <time>2019-09-12T10:10:30Z</time>
      </trkpt>
      <trkpt lat="47.09377" lon="5.50056">
        <ele>269.60000610352</ele>
        <time>2019-09-12T10:10:37Z</time>
      </trkpt>
      <trkpt lat="47.09377" lon="5.50029">
        <ele>269.79998779297</ele>
        <time>2019-09-12T10:10:42Z</time>
      </trkpt>
      <trkpt lat="47.09378" lon="5.50028">
        <ele>269.79998779297</ele>
        <time>2019-09-12T10:10:43Z</time>
      </trkpt>
      <trkpt lat="47.0938" lon="5.50022">
        <ele>269.79998779297</ele>
        <time>2019-09-12T10:11:00Z</time>
      </trkpt>
      <trkpt lat="47.09381" lon="5.50013">
        <ele>269.79998779297</ele>
        <time>2019-09-12T10:11:03Z</time>
      </trkpt>
      <trkpt lat="47.09383" lon="5.49991">
        <ele>269.79998779297</ele>
        <time>2019-09-12T10:11:07Z</time>
      </trkpt>
      <trkpt lat="47.09383" lon="5.49966">
        <ele>270</ele>
        <time>2019-09-12T10:11:11Z</time>
      </trkpt>
      <trkpt lat="47.0938" lon="5.49948">
        <ele>270</ele>
        <time>2019-09-12T10:11:14Z</time>
      </trkpt>
      <trkpt lat="47.09377" lon="5.49939">
        <ele>270</ele>
        <time>2019-09-12T10:11:16Z</time>
      </trkpt>
      <trkpt lat="47.09373" lon="5.49928">
        <ele>270.39999389648</ele>
        <time>2019-09-12T10:11:19Z</time>
      </trkpt>
      <trkpt lat="47.09368" lon="5.49918">
        <ele>270.79998779297</ele>
        <time>2019-09-12T10:11:22Z</time>
      </trkpt>
      <trkpt lat="47.09363" lon="5.49917">
        <ele>271</ele>
        <time>2019-09-12T10:11:24Z</time>
      </trkpt>
      <trkpt lat="47.09357" lon="5.49923">
        <ele>271.39999389648</ele>
        <time>2019-09-12T10:11:27Z</time>
      </trkpt>
      <trkpt lat="47.09352" lon="5.49928">
        <ele>271.79998779297</ele>
        <time>2019-09-12T10:11:29Z</time>
      </trkpt>
      <trkpt lat="47.0934" lon="5.49947">
        <ele>272.60000610352</ele>
        <time>2019-09-12T10:11:35Z</time>
      </trkpt>
      <trkpt lat="47.09339" lon="5.49952">
        <ele>272.60000610352</ele>
        <time>2019-09-12T10:11:36Z</time>
      </trkpt>
      <trkpt lat="47.0934" lon="5.49971">
        <ele>272.60000610352</ele>
        <time>2019-09-12T10:11:39Z</time>
      </trkpt>
      <trkpt lat="47.0934" lon="5.49981">
        <ele>272.60000610352</ele>
        <time>2019-09-12T10:11:41Z</time>
      </trkpt>
      <trkpt lat="47.09338" lon="5.49982">
        <ele>272.60000610352</ele>
        <time>2019-09-12T10:11:42Z</time>
      </trkpt>
      <trkpt lat="47.09334" lon="5.49972">
        <ele>272.39999389648</ele>
        <time>2019-09-12T10:11:45Z</time>
      </trkpt>
      <trkpt lat="47.09329" lon="5.49952">
        <ele>271.39999389648</ele>
        <time>2019-09-12T10:11:50Z</time>
      </trkpt>
      <trkpt lat="47.09322" lon="5.49947">
        <ele>271.20001220703</ele>
        <time>2019-09-12T10:11:55Z</time>
      </trkpt>
      <trkpt lat="47.09322" lon="5.49948">
        <ele>271</ele>
        <time>2019-09-12T10:11:56Z</time>
      </trkpt>
      <trkpt lat="47.09321" lon="5.49947">
        <ele>271</ele>
        <time>2019-09-12T10:12:02Z</time>
      </trkpt>
      <trkpt lat="47.0932" lon="5.49946">
        <ele>271</ele>
        <time>2019-09-12T10:12:03Z</time>
      </trkpt>
      <trkpt lat="47.09319" lon="5.49944">
        <ele>271</ele>
        <time>2019-09-12T10:12:05Z</time>
      </trkpt>
      <trkpt lat="47.09318" lon="5.49943">
        <ele>271</ele>
        <time>2019-09-12T10:12:06Z</time>
      </trkpt>
      <trkpt lat="47.0932" lon="5.49936">
        <ele>271</ele>
        <time>2019-09-12T10:12:10Z</time>
      </trkpt>
      <trkpt lat="47.09324" lon="5.49933">
        <ele>271</ele>
        <time>2019-09-12T10:12:12Z</time>
      </trkpt>
      <trkpt lat="47.09325" lon="5.49931">
        <ele>271</ele>
        <time>2019-09-12T10:12:13Z</time>
      </trkpt>
      <trkpt lat="47.09326" lon="5.49928">
        <ele>271</ele>
        <time>2019-09-12T10:12:14Z</time>
      </trkpt>
      <trkpt lat="47.09321" lon="5.49925">
        <ele>271</ele>
        <time>2019-09-12T10:12:17Z</time>
      </trkpt>
      <trkpt lat="47.09318" lon="5.49922">
        <ele>271.20001220703</ele>
        <time>2019-09-12T10:12:18Z</time>
      </trkpt>
      <trkpt lat="47.09306" lon="5.49908">
        <ele>271.39999389648</ele>
        <time>2019-09-12T10:12:22Z</time>
      </trkpt>
      <trkpt lat="47.09276" lon="5.49877">
        <ele>271.39999389648</ele>
        <time>2019-09-12T10:12:30Z</time>
      </trkpt>
      <trkpt lat="47.09253" lon="5.49852">
        <ele>271</ele>
        <time>2019-09-12T10:12:37Z</time>
      </trkpt>
      <trkpt lat="47.09256" lon="5.49836">
        <ele>270.79998779297</ele>
        <time>2019-09-12T10:12:40Z</time>
      </trkpt>
      <trkpt lat="47.09258" lon="5.49824">
        <ele>270.60000610352</ele>
        <time>2019-09-12T10:12:43Z</time>
      </trkpt>
      <trkpt lat="47.09255" lon="5.49821">
        <ele>270.60000610352</ele>
        <time>2019-09-12T10:12:44Z</time>
      </trkpt>
      <trkpt lat="47.09253" lon="5.49818">
        <ele>270.39999389648</ele>
        <time>2019-09-12T10:12:45Z</time>
      </trkpt>
      <trkpt lat="47.09246" lon="5.49812">
        <ele>270.20001220703</ele>
        <time>2019-09-12T10:12:47Z</time>
      </trkpt>
      <trkpt lat="47.09238" lon="5.49805">
        <ele>269.60000610352</ele>
        <time>2019-09-12T10:12:49Z</time>
      </trkpt>
      <trkpt lat="47.0923" lon="5.49798">
        <ele>269.39999389648</ele>
        <time>2019-09-12T10:12:51Z</time>
      </trkpt>
      <trkpt lat="47.09213" lon="5.49784">
        <ele>268.79998779297</ele>
        <time>2019-09-12T10:12:55Z</time>
      </trkpt>
      <trkpt lat="47.0918" lon="5.49755">
        <ele>268.79998779297</ele>
        <time>2019-09-12T10:13:03Z</time>
      </trkpt>
      <trkpt lat="47.09151" lon="5.4973">
        <ele>268.79998779297</ele>
        <time>2019-09-12T10:13:10Z</time>
      </trkpt>
      <trkpt lat="47.09107" lon="5.49692">
        <ele>269.20001220703</ele>
        <time>2019-09-12T10:13:21Z</time>
      </trkpt>
      <trkpt lat="47.09103" lon="5.49688">
        <ele>269</ele>
        <time>2019-09-12T10:13:25Z</time>
      </trkpt>
      <trkpt lat="47.09101" lon="5.49687">
        <ele>268.79998779297</ele>
        <time>2019-09-12T10:13:51Z</time>
      </trkpt>
      <trkpt lat="47.09095" lon="5.49684">
        <ele>268.79998779297</ele>
        <time>2019-09-12T10:13:54Z</time>
      </trkpt>
      <trkpt lat="47.09093" lon="5.49682">
        <ele>268.79998779297</ele>
        <time>2019-09-12T10:13:55Z</time>
      </trkpt>
      <trkpt lat="47.0908" lon="5.49669">
        <ele>268.79998779297</ele>
        <time>2019-09-12T10:13:59Z</time>
      </trkpt>
      <trkpt lat="47.09062" lon="5.49652">
        <ele>268.79998779297</ele>
        <time>2019-09-12T10:14:05Z</time>
      </trkpt>
      <trkpt lat="47.09037" lon="5.49639">
        <ele>269</ele>
        <time>2019-09-12T10:14:11Z</time>
      </trkpt>
      <trkpt lat="47.09008" lon="5.4962">
        <ele>269.20001220703</ele>
        <time>2019-09-12T10:14:18Z</time>
      </trkpt>
      <trkpt lat="47.09004" lon="5.49618">
        <ele>269.20001220703</ele>
        <time>2019-09-12T10:14:19Z</time>
      </trkpt>
      <trkpt lat="47.08979" lon="5.49599">
        <ele>269.39999389648</ele>
        <time>2019-09-12T10:14:25Z</time>
      </trkpt>
      <trkpt lat="47.08955" lon="5.4958">
        <ele>269.79998779297</ele>
        <time>2019-09-12T10:14:31Z</time>
      </trkpt>
      <trkpt lat="47.08935" lon="5.49546">
        <ele>270</ele>
        <time>2019-09-12T10:14:37Z</time>
      </trkpt>
      <trkpt lat="47.08923" lon="5.49521">
        <ele>270</ele>
        <time>2019-09-12T10:14:41Z</time>
      </trkpt>
      <trkpt lat="47.0892" lon="5.49508">
        <ele>270</ele>
        <time>2019-09-12T10:14:43Z</time>
      </trkpt>
      <trkpt lat="47.08914" lon="5.49457">
        <ele>269.79998779297</ele>
        <time>2019-09-12T10:14:50Z</time>
      </trkpt>
      <trkpt lat="47.08905" lon="5.49406">
        <ele>269.39999389648</ele>
        <time>2019-09-12T10:14:57Z</time>
      </trkpt>
      <trkpt lat="47.08895" lon="5.49372">
        <ele>269</ele>
        <time>2019-09-12T10:15:03Z</time>
      </trkpt>
      <trkpt lat="47.08893" lon="5.49364">
        <ele>269</ele>
        <time>2019-09-12T10:15:07Z</time>
      </trkpt>
      <trkpt lat="47.0889" lon="5.49361">
        <ele>269.39999389648</ele>
        <time>2019-09-12T10:15:32Z</time>
      </trkpt>
      <trkpt lat="47.08888" lon="5.49356">
        <ele>269.39999389648</ele>
        <time>2019-09-12T10:15:34Z</time>
      </trkpt>
      <trkpt lat="47.08886" lon="5.49349">
        <ele>269.39999389648</ele>
        <time>2019-09-12T10:15:36Z</time>
      </trkpt>
      <trkpt lat="47.08881" lon="5.4933">
        <ele>269.39999389648</ele>
        <time>2019-09-12T10:15:40Z</time>
      </trkpt>
      <trkpt lat="47.08868" lon="5.49287">
        <ele>269.60000610352</ele>
        <time>2019-09-12T10:15:49Z</time>
      </trkpt>
      <trkpt lat="47.08867" lon="5.4928">
        <ele>269.60000610352</ele>
        <time>2019-09-12T10:15:51Z</time>
      </trkpt>
      <trkpt lat="47.08869" lon="5.49274">
        <ele>269.60000610352</ele>
        <time>2019-09-12T10:15:53Z</time>
      </trkpt>
      <trkpt lat="47.08877" lon="5.49266">
        <ele>270.20001220703</ele>
        <time>2019-09-12T10:15:58Z</time>
      </trkpt>
      <trkpt lat="47.0888" lon="5.49251">
        <ele>270.39999389648</ele>
        <time>2019-09-12T10:16:01Z</time>
      </trkpt>
      <trkpt lat="47.08873" lon="5.49232">
        <ele>270.39999389648</ele>
        <time>2019-09-12T10:16:04Z</time>
      </trkpt>
      <trkpt lat="47.08871" lon="5.49226">
        <ele>270.39999389648</ele>
        <time>2019-09-12T10:16:05Z</time>
      </trkpt>
      <trkpt lat="47.08868" lon="5.49221">
        <ele>270.39999389648</ele>
        <time>2019-09-12T10:16:06Z</time>
      </trkpt>
      <trkpt lat="47.08856" lon="5.49196">
        <ele>270</ele>
        <time>2019-09-12T10:16:11Z</time>
      </trkpt>
      <trkpt lat="47.08844" lon="5.49179">
        <ele>269.79998779297</ele>
        <time>2019-09-12T10:16:15Z</time>
      </trkpt>
      <trkpt lat="47.08836" lon="5.49174">
        <ele>269.79998779297</ele>
        <time>2019-09-12T10:16:17Z</time>
      </trkpt>
      <trkpt lat="47.08801" lon="5.49154">
        <ele>269.60000610352</ele>
        <time>2019-09-12T10:16:25Z</time>
      </trkpt>
      <trkpt lat="47.0877" lon="5.4913">
        <ele>269.39999389648</ele>
        <time>2019-09-12T10:16:32Z</time>
      </trkpt>
      <trkpt lat="47.08742" lon="5.49095">
        <ele>269</ele>
        <time>2019-09-12T10:16:39Z</time>
      </trkpt>
      <trkpt lat="47.08738" lon="5.4909">
        <ele>268.79998779297</ele>
        <time>2019-09-12T10:16:40Z</time>
      </trkpt>
      <trkpt lat="47.0873" lon="5.4907">
        <ele>268.60000610352</ele>
        <time>2019-09-12T10:16:43Z</time>
      </trkpt>
      <trkpt lat="47.08728" lon="5.49064">
        <ele>268.60000610352</ele>
        <time>2019-09-12T10:16:44Z</time>
      </trkpt>
      <trkpt lat="47.08711" lon="5.49019">
        <ele>268.60000610352</ele>
        <time>2019-09-12T10:16:51Z</time>
      </trkpt>
      <trkpt lat="47.08692" lon="5.48975">
        <ele>268.60000610352</ele>
        <time>2019-09-12T10:16:58Z</time>
      </trkpt>
      <trkpt lat="47.08672" lon="5.4893">
        <ele>268.39999389648</ele>
        <time>2019-09-12T10:17:05Z</time>
      </trkpt>
      <trkpt lat="47.08646" lon="5.4887">
        <ele>268.60000610352</ele>
        <time>2019-09-12T10:17:15Z</time>
      </trkpt>
      <trkpt lat="47.08629" lon="5.4883">
        <ele>268.79998779297</ele>
        <time>2019-09-12T10:17:22Z</time>
      </trkpt>
      <trkpt lat="47.08615" lon="5.48796">
        <ele>269</ele>
        <time>2019-09-12T10:17:28Z</time>
      </trkpt>
      <trkpt lat="47.08592" lon="5.48744">
        <ele>269</ele>
        <time>2019-09-12T10:17:36Z</time>
      </trkpt>
      <trkpt lat="47.08578" lon="5.48714">
        <ele>268.79998779297</ele>
        <time>2019-09-12T10:17:41Z</time>
      </trkpt>
      <trkpt lat="47.08569" lon="5.48695">
        <ele>268.79998779297</ele>
        <time>2019-09-12T10:17:44Z</time>
      </trkpt>
      <trkpt lat="47.08546" lon="5.48657">
        <ele>268.79998779297</ele>
        <time>2019-09-12T10:17:51Z</time>
      </trkpt>
      <trkpt lat="47.08517" lon="5.48611">
        <ele>269.20001220703</ele>
        <time>2019-09-12T10:18:00Z</time>
      </trkpt>
      <trkpt lat="47.08486" lon="5.48562">
        <ele>269.79998779297</ele>
        <time>2019-09-12T10:18:09Z</time>
      </trkpt>
      <trkpt lat="47.08456" lon="5.48516">
        <ele>270</ele>
        <time>2019-09-12T10:18:17Z</time>
      </trkpt>
      <trkpt lat="47.08421" lon="5.48456">
        <ele>270.20001220703</ele>
        <time>2019-09-12T10:18:27Z</time>
      </trkpt>
      <trkpt lat="47.08384" lon="5.48395">
        <ele>270</ele>
        <time>2019-09-12T10:18:37Z</time>
      </trkpt>
      <trkpt lat="47.08348" lon="5.48345">
        <ele>269.79998779297</ele>
        <time>2019-09-12T10:18:46Z</time>
      </trkpt>
      <trkpt lat="47.08307" lon="5.48305">
        <ele>269.60000610352</ele>
        <time>2019-09-12T10:18:55Z</time>
      </trkpt>
      <trkpt lat="47.0828" lon="5.48277">
        <ele>269.39999389648</ele>
        <time>2019-09-12T10:19:01Z</time>
      </trkpt>
      <trkpt lat="47.08254" lon="5.48234">
        <ele>269.20001220703</ele>
        <time>2019-09-12T10:19:08Z</time>
      </trkpt>
      <trkpt lat="47.08243" lon="5.48215">
        <ele>269</ele>
        <time>2019-09-12T10:19:11Z</time>
      </trkpt>
      <trkpt lat="47.08221" lon="5.4818">
        <ele>269</ele>
        <time>2019-09-12T10:19:17Z</time>
      </trkpt>
      <trkpt lat="47.08196" lon="5.48139">
        <ele>269.20001220703</ele>
        <time>2019-09-12T10:19:24Z</time>
      </trkpt>
      <trkpt lat="47.0817" lon="5.48104">
        <ele>269.39999389648</ele>
        <time>2019-09-12T10:19:31Z</time>
      </trkpt>
      <trkpt lat="47.08138" lon="5.48067">
        <ele>269.20001220703</ele>
        <time>2019-09-12T10:19:39Z</time>
      </trkpt>
      <trkpt lat="47.08108" lon="5.48036">
        <ele>269.39999389648</ele>
        <time>2019-09-12T10:19:46Z</time>
      </trkpt>
      <trkpt lat="47.08078" lon="5.48005">
        <ele>269.39999389648</ele>
        <time>2019-09-12T10:19:53Z</time>
      </trkpt>
      <trkpt lat="47.08048" lon="5.47976">
        <ele>269.39999389648</ele>
        <time>2019-09-12T10:20:00Z</time>
      </trkpt>
      <trkpt lat="47.08016" lon="5.47933">
        <ele>269.39999389648</ele>
        <time>2019-09-12T10:20:08Z</time>
      </trkpt>
      <trkpt lat="47.07993" lon="5.47895">
        <ele>269.39999389648</ele>
        <time>2019-09-12T10:20:14Z</time>
      </trkpt>
      <trkpt lat="47.07967" lon="5.47851">
        <ele>269</ele>
        <time>2019-09-12T10:20:21Z</time>
      </trkpt>
      <trkpt lat="47.07935" lon="5.47799">
        <ele>268.79998779297</ele>
        <time>2019-09-12T10:20:29Z</time>
      </trkpt>
      <trkpt lat="47.07895" lon="5.47736">
        <ele>268.60000610352</ele>
        <time>2019-09-12T10:20:39Z</time>
      </trkpt>
      <trkpt lat="47.07871" lon="5.47699">
        <ele>268.39999389648</ele>
        <time>2019-09-12T10:20:45Z</time>
      </trkpt>
      <trkpt lat="47.07842" lon="5.47661">
        <ele>268.39999389648</ele>
        <time>2019-09-12T10:20:52Z</time>
      </trkpt>
      <trkpt lat="47.07831" lon="5.47643">
        <ele>268.20001220703</ele>
        <time>2019-09-12T10:20:55Z</time>
      </trkpt>
      <trkpt lat="47.07809" lon="5.47609">
        <ele>268</ele>
        <time>2019-09-12T10:21:01Z</time>
      </trkpt>
      <trkpt lat="47.07771" lon="5.47547">
        <ele>267.60000610352</ele>
        <time>2019-09-12T10:21:11Z</time>
      </trkpt>
      <trkpt lat="47.07737" lon="5.47493">
        <ele>267.60000610352</ele>
        <time>2019-09-12T10:21:20Z</time>
      </trkpt>
      <trkpt lat="47.07713" lon="5.47459">
        <ele>267.39999389648</ele>
        <time>2019-09-12T10:21:26Z</time>
      </trkpt>
      <trkpt lat="47.07688" lon="5.47421">
        <ele>267.60000610352</ele>
        <time>2019-09-12T10:21:33Z</time>
      </trkpt>
      <trkpt lat="47.07663" lon="5.47381">
        <ele>267.39999389648</ele>
        <time>2019-09-12T10:21:40Z</time>
      </trkpt>
      <trkpt lat="47.07659" lon="5.47376">
        <ele>267.39999389648</ele>
        <time>2019-09-12T10:21:41Z</time>
      </trkpt>
      <trkpt lat="47.07656" lon="5.4737">
        <ele>267.39999389648</ele>
        <time>2019-09-12T10:21:42Z</time>
      </trkpt>
      <trkpt lat="47.07642" lon="5.47349">
        <ele>267.39999389648</ele>
        <time>2019-09-12T10:21:46Z</time>
      </trkpt>
      <trkpt lat="47.07622" lon="5.47313">
        <ele>267.20001220703</ele>
        <time>2019-09-12T10:21:51Z</time>
      </trkpt>
      <trkpt lat="47.07598" lon="5.47281">
        <ele>267.39999389648</ele>
        <time>2019-09-12T10:21:57Z</time>
      </trkpt>
      <trkpt lat="47.07569" lon="5.47256">
        <ele>267.39999389648</ele>
        <time>2019-09-12T10:22:03Z</time>
      </trkpt>
      <trkpt lat="47.07544" lon="5.47237">
        <ele>267.39999389648</ele>
        <time>2019-09-12T10:22:08Z</time>
      </trkpt>
      <trkpt lat="47.0752" lon="5.47216">
        <ele>267.39999389648</ele>
        <time>2019-09-12T10:22:13Z</time>
      </trkpt>
      <trkpt lat="47.07484" lon="5.47189">
        <ele>267.39999389648</ele>
        <time>2019-09-12T10:22:19Z</time>
      </trkpt>
      <trkpt lat="47.07438" lon="5.4715">
        <ele>267.20001220703</ele>
        <time>2019-09-12T10:22:27Z</time>
      </trkpt>
      <trkpt lat="47.0739" lon="5.47112">
        <ele>267</ele>
        <time>2019-09-12T10:22:36Z</time>
      </trkpt>
      <trkpt lat="47.07349" lon="5.47079">
        <ele>267</ele>
        <time>2019-09-12T10:22:44Z</time>
      </trkpt>
      <trkpt lat="47.07308" lon="5.47047">
        <ele>267.20001220703</ele>
        <time>2019-09-12T10:22:52Z</time>
      </trkpt>
      <trkpt lat="47.07289" lon="5.47034">
        <ele>267.20001220703</ele>
        <time>2019-09-12T10:22:56Z</time>
      </trkpt>
      <trkpt lat="47.07284" lon="5.47032">
        <ele>267.20001220703</ele>
        <time>2019-09-12T10:22:57Z</time>
      </trkpt>
      <trkpt lat="47.0727" lon="5.47028">
        <ele>267.20001220703</ele>
        <time>2019-09-12T10:23:00Z</time>
      </trkpt>
      <trkpt lat="47.07263" lon="5.4702">
        <ele>267.20001220703</ele>
        <time>2019-09-12T10:23:02Z</time>
      </trkpt>
      <trkpt lat="47.07244" lon="5.46996">
        <ele>267.20001220703</ele>
        <time>2019-09-12T10:23:07Z</time>
      </trkpt>
      <trkpt lat="47.0724" lon="5.46992">
        <ele>267.20001220703</ele>
        <time>2019-09-12T10:23:08Z</time>
      </trkpt>
      <trkpt lat="47.07214" lon="5.46971">
        <ele>267.20001220703</ele>
        <time>2019-09-12T10:23:13Z</time>
      </trkpt>
      <trkpt lat="47.07199" lon="5.46959">
        <ele>267.20001220703</ele>
        <time>2019-09-12T10:23:16Z</time>
      </trkpt>
      <trkpt lat="47.0719" lon="5.46947">
        <ele>267.20001220703</ele>
        <time>2019-09-12T10:23:18Z</time>
      </trkpt>
      <trkpt lat="47.07174" lon="5.46924">
        <ele>267.20001220703</ele>
        <time>2019-09-12T10:23:22Z</time>
      </trkpt>
      <trkpt lat="47.07169" lon="5.46919">
        <ele>267.20001220703</ele>
        <time>2019-09-12T10:23:23Z</time>
      </trkpt>
      <trkpt lat="47.07139" lon="5.46895">
        <ele>267.60000610352</ele>
        <time>2019-09-12T10:23:29Z</time>
      </trkpt>
      <trkpt lat="47.07104" lon="5.46868">
        <ele>267.60000610352</ele>
        <time>2019-09-12T10:23:36Z</time>
      </trkpt>
      <trkpt lat="47.07073" lon="5.46847">
        <ele>267.60000610352</ele>
        <time>2019-09-12T10:23:43Z</time>
      </trkpt>
      <trkpt lat="47.07046" lon="5.46829">
        <ele>267.60000610352</ele>
        <time>2019-09-12T10:23:49Z</time>
      </trkpt>
      <trkpt lat="47.07015" lon="5.46808">
        <ele>267.79998779297</ele>
        <time>2019-09-12T10:23:55Z</time>
      </trkpt>
      <trkpt lat="47.06966" lon="5.46763">
        <ele>267.79998779297</ele>
        <time>2019-09-12T10:24:04Z</time>
      </trkpt>
      <trkpt lat="47.0693" lon="5.46733">
        <ele>267.60000610352</ele>
        <time>2019-09-12T10:24:11Z</time>
      </trkpt>
      <trkpt lat="47.06901" lon="5.46709">
        <ele>267.79998779297</ele>
        <time>2019-09-12T10:24:18Z</time>
      </trkpt>
      <trkpt lat="47.06868" lon="5.46683">
        <ele>267.79998779297</ele>
        <time>2019-09-12T10:24:25Z</time>
      </trkpt>
      <trkpt lat="47.06823" lon="5.46647">
        <ele>268.20001220703</ele>
        <time>2019-09-12T10:24:34Z</time>
      </trkpt>
      <trkpt lat="47.06794" lon="5.46629">
        <ele>268.20001220703</ele>
        <time>2019-09-12T10:24:40Z</time>
      </trkpt>
      <trkpt lat="47.06766" lon="5.46614">
        <ele>268</ele>
        <time>2019-09-12T10:24:45Z</time>
      </trkpt>
      <trkpt lat="47.0673" lon="5.46587">
        <ele>267.39999389648</ele>
        <time>2019-09-12T10:24:52Z</time>
      </trkpt>
      <trkpt lat="47.06681" lon="5.46549">
        <ele>267.20001220703</ele>
        <time>2019-09-12T10:25:01Z</time>
      </trkpt>
      <trkpt lat="47.06676" lon="5.46545">
        <ele>267.20001220703</ele>
        <time>2019-09-12T10:25:02Z</time>
      </trkpt>
      <trkpt lat="47.0663" lon="5.46509">
        <ele>267</ele>
        <time>2019-09-12T10:25:11Z</time>
      </trkpt>
      <trkpt lat="47.0658" lon="5.4647">
        <ele>267</ele>
        <time>2019-09-12T10:25:21Z</time>
      </trkpt>
      <trkpt lat="47.06549" lon="5.46443">
        <ele>267</ele>
        <time>2019-09-12T10:25:28Z</time>
      </trkpt>
      <trkpt lat="47.06512" lon="5.46414">
        <ele>267</ele>
        <time>2019-09-12T10:25:36Z</time>
      </trkpt>
      <trkpt lat="47.06468" lon="5.46381">
        <ele>266.79998779297</ele>
        <time>2019-09-12T10:25:45Z</time>
      </trkpt>
      <trkpt lat="47.06418" lon="5.46342">
        <ele>266.60000610352</ele>
        <time>2019-09-12T10:25:55Z</time>
      </trkpt>
      <trkpt lat="47.06407" lon="5.46335">
        <ele>266.60000610352</ele>
        <time>2019-09-12T10:25:57Z</time>
      </trkpt>
      <trkpt lat="47.0636" lon="5.46297">
        <ele>266.60000610352</ele>
        <time>2019-09-12T10:26:06Z</time>
      </trkpt>
      <trkpt lat="47.06337" lon="5.46272">
        <ele>266.79998779297</ele>
        <time>2019-09-12T10:26:11Z</time>
      </trkpt>
      <trkpt lat="47.06328" lon="5.46265">
        <ele>266.79998779297</ele>
        <time>2019-09-12T10:26:13Z</time>
      </trkpt>
      <trkpt lat="47.06309" lon="5.46249">
        <ele>266.79998779297</ele>
        <time>2019-09-12T10:26:17Z</time>
      </trkpt>
      <trkpt lat="47.06294" lon="5.46239">
        <ele>266.79998779297</ele>
        <time>2019-09-12T10:26:20Z</time>
      </trkpt>
      <trkpt lat="47.06267" lon="5.46217">
        <ele>266.79998779297</ele>
        <time>2019-09-12T10:26:26Z</time>
      </trkpt>
      <trkpt lat="47.06228" lon="5.46192">
        <ele>266.79998779297</ele>
        <time>2019-09-12T10:26:33Z</time>
      </trkpt>
      <trkpt lat="47.06184" lon="5.46165">
        <ele>266.79998779297</ele>
        <time>2019-09-12T10:26:41Z</time>
      </trkpt>
      <trkpt lat="47.06153" lon="5.46143">
        <ele>266.79998779297</ele>
        <time>2019-09-12T10:26:47Z</time>
      </trkpt>
      <trkpt lat="47.06121" lon="5.46119">
        <ele>266.60000610352</ele>
        <time>2019-09-12T10:26:53Z</time>
      </trkpt>
      <trkpt lat="47.06111" lon="5.46115">
        <ele>266.60000610352</ele>
        <time>2019-09-12T10:26:55Z</time>
      </trkpt>
      <trkpt lat="47.06089" lon="5.46107">
        <ele>266.60000610352</ele>
        <time>2019-09-12T10:26:59Z</time>
      </trkpt>
      <trkpt lat="47.06085" lon="5.46102">
        <ele>266.60000610352</ele>
        <time>2019-09-12T10:27:00Z</time>
      </trkpt>
      <trkpt lat="47.06066" lon="5.46072">
        <ele>266.79998779297</ele>
        <time>2019-09-12T10:27:05Z</time>
      </trkpt>
      <trkpt lat="47.06059" lon="5.46059">
        <ele>266.79998779297</ele>
        <time>2019-09-12T10:27:07Z</time>
      </trkpt>
      <trkpt lat="47.0605" lon="5.46035">
        <ele>266.79998779297</ele>
        <time>2019-09-12T10:27:10Z</time>
      </trkpt>
      <trkpt lat="47.06047" lon="5.46026">
        <ele>266.79998779297</ele>
        <time>2019-09-12T10:27:11Z</time>
      </trkpt>
      <trkpt lat="47.0603" lon="5.45968">
        <ele>266.79998779297</ele>
        <time>2019-09-12T10:27:18Z</time>
      </trkpt>
      <trkpt lat="47.06008" lon="5.45894">
        <ele>266.79998779297</ele>
        <time>2019-09-12T10:27:27Z</time>
      </trkpt>
      <trkpt lat="47.05986" lon="5.45821">
        <ele>266.79998779297</ele>
        <time>2019-09-12T10:27:36Z</time>
      </trkpt>
      <trkpt lat="47.05983" lon="5.45813">
        <ele>266.79998779297</ele>
        <time>2019-09-12T10:27:37Z</time>
      </trkpt>
      <trkpt lat="47.05958" lon="5.45736">
        <ele>266.79998779297</ele>
        <time>2019-09-12T10:27:47Z</time>
      </trkpt>
      <trkpt lat="47.05934" lon="5.45658">
        <ele>267</ele>
        <time>2019-09-12T10:27:57Z</time>
      </trkpt>
      <trkpt lat="47.05932" lon="5.4565">
        <ele>267</ele>
        <time>2019-09-12T10:27:58Z</time>
      </trkpt>
      <trkpt lat="47.05919" lon="5.4561">
        <ele>267.20001220703</ele>
        <time>2019-09-12T10:28:04Z</time>
      </trkpt>
      <trkpt lat="47.05909" lon="5.45577">
        <ele>267.20001220703</ele>
        <time>2019-09-12T10:28:09Z</time>
      </trkpt>
      <trkpt lat="47.05907" lon="5.45571">
        <ele>267.39999389648</ele>
        <time>2019-09-12T10:28:10Z</time>
      </trkpt>
      <trkpt lat="47.05888" lon="5.45511">
        <ele>267.60000610352</ele>
        <time>2019-09-12T10:28:18Z</time>
      </trkpt>
      <trkpt lat="47.05864" lon="5.45437">
        <ele>267.60000610352</ele>
        <time>2019-09-12T10:28:28Z</time>
      </trkpt>
      <trkpt lat="47.05847" lon="5.45385">
        <ele>267.60000610352</ele>
        <time>2019-09-12T10:28:35Z</time>
      </trkpt>
      <trkpt lat="47.05834" lon="5.45336">
        <ele>267.39999389648</ele>
        <time>2019-09-12T10:28:42Z</time>
      </trkpt>
      <trkpt lat="47.05814" lon="5.45274">
        <ele>267.39999389648</ele>
        <time>2019-09-12T10:28:50Z</time>
      </trkpt>
      <trkpt lat="47.05792" lon="5.45209">
        <ele>267.20001220703</ele>
        <time>2019-09-12T10:28:59Z</time>
      </trkpt>
      <trkpt lat="47.0578" lon="5.45168">
        <ele>267.39999389648</ele>
        <time>2019-09-12T10:29:05Z</time>
      </trkpt>
      <trkpt lat="47.05772" lon="5.45138">
        <ele>267.20001220703</ele>
        <time>2019-09-12T10:29:11Z</time>
      </trkpt>
      <trkpt lat="47.05772" lon="5.45137">
        <ele>267.20001220703</ele>
        <time>2019-09-12T10:29:12Z</time>
      </trkpt>
      <trkpt lat="47.05771" lon="5.45137">
        <ele>267</ele>
        <time>2019-09-12T10:29:13Z</time>
      </trkpt>
      <trkpt lat="47.0577" lon="5.45135">
        <ele>267</ele>
        <time>2019-09-12T10:40:48Z</time>
      </trkpt>
      <trkpt lat="47.0577" lon="5.45134">
        <ele>267</ele>
        <time>2019-09-12T10:40:49Z</time>
      </trkpt>
      <trkpt lat="47.0577" lon="5.45134">
        <ele>267</ele>
        <time>2019-09-12T10:40:51Z</time>
      </trkpt>
      <trkpt lat="47.05768" lon="5.4513">
        <ele>267.20001220703</ele>
        <time>2019-09-12T10:42:03Z</time>
      </trkpt>
      <trkpt lat="47.05767" lon="5.45124">
        <ele>267.20001220703</ele>
        <time>2019-09-12T10:42:05Z</time>
      </trkpt>
      <trkpt lat="47.05758" lon="5.45096">
        <ele>267.20001220703</ele>
        <time>2019-09-12T10:42:11Z</time>
      </trkpt>
      <trkpt lat="47.05747" lon="5.45055">
        <ele>267.39999389648</ele>
        <time>2019-09-12T10:42:18Z</time>
      </trkpt>
      <trkpt lat="47.05731" lon="5.44997">
        <ele>267.39999389648</ele>
        <time>2019-09-12T10:42:27Z</time>
      </trkpt>
      <trkpt lat="47.05713" lon="5.44942">
        <ele>267.39999389648</ele>
        <time>2019-09-12T10:42:35Z</time>
      </trkpt>
      <trkpt lat="47.05693" lon="5.44881">
        <ele>267.20001220703</ele>
        <time>2019-09-12T10:42:44Z</time>
      </trkpt>
      <trkpt lat="47.05678" lon="5.44834">
        <ele>267</ele>
        <time>2019-09-12T10:42:51Z</time>
      </trkpt>
      <trkpt lat="47.05663" lon="5.44789">
        <ele>267</ele>
        <time>2019-09-12T10:42:58Z</time>
      </trkpt>
      <trkpt lat="47.05646" lon="5.44737">
        <ele>267.20001220703</ele>
        <time>2019-09-12T10:43:06Z</time>
      </trkpt>
      <trkpt lat="47.05627" lon="5.44676">
        <ele>267.20001220703</ele>
        <time>2019-09-12T10:43:15Z</time>
      </trkpt>
      <trkpt lat="47.05611" lon="5.44618">
        <ele>267</ele>
        <time>2019-09-12T10:43:23Z</time>
      </trkpt>
      <trkpt lat="47.05593" lon="5.44558">
        <ele>267</ele>
        <time>2019-09-12T10:43:31Z</time>
      </trkpt>
      <trkpt lat="47.05573" lon="5.44499">
        <ele>266.79998779297</ele>
        <time>2019-09-12T10:43:39Z</time>
      </trkpt>
      <trkpt lat="47.05552" lon="5.44431">
        <ele>266.79998779297</ele>
        <time>2019-09-12T10:43:48Z</time>
      </trkpt>
      <trkpt lat="47.05547" lon="5.44391">
        <ele>266.79998779297</ele>
        <time>2019-09-12T10:43:53Z</time>
      </trkpt>
      <trkpt lat="47.05553" lon="5.44353">
        <ele>266.79998779297</ele>
        <time>2019-09-12T10:43:58Z</time>
      </trkpt>
      <trkpt lat="47.05563" lon="5.44333">
        <ele>266.79998779297</ele>
        <time>2019-09-12T10:44:01Z</time>
      </trkpt>
      <trkpt lat="47.0557" lon="5.44321">
        <ele>266.79998779297</ele>
        <time>2019-09-12T10:44:03Z</time>
      </trkpt>
      <trkpt lat="47.05605" lon="5.44273">
        <ele>267</ele>
        <time>2019-09-12T10:44:12Z</time>
      </trkpt>
      <trkpt lat="47.05624" lon="5.44253">
        <ele>266.79998779297</ele>
        <time>2019-09-12T10:44:17Z</time>
      </trkpt>
      <trkpt lat="47.05626" lon="5.44249">
        <ele>266.79998779297</ele>
        <time>2019-09-12T10:44:18Z</time>
      </trkpt>
      <trkpt lat="47.05638" lon="5.44221">
        <ele>266.60000610352</ele>
        <time>2019-09-12T10:44:23Z</time>
      </trkpt>
      <trkpt lat="47.0565" lon="5.44206">
        <ele>266.39999389648</ele>
        <time>2019-09-12T10:44:27Z</time>
      </trkpt>
      <trkpt lat="47.05654" lon="5.44205">
        <ele>266</ele>
        <time>2019-09-12T10:44:28Z</time>
      </trkpt>
      <trkpt lat="47.05662" lon="5.44204">
        <ele>265.60000610352</ele>
        <time>2019-09-12T10:44:30Z</time>
      </trkpt>
      <trkpt lat="47.05669" lon="5.44197">
        <ele>265.39999389648</ele>
        <time>2019-09-12T10:44:32Z</time>
      </trkpt>
      <trkpt lat="47.05673" lon="5.44192">
        <ele>265.39999389648</ele>
        <time>2019-09-12T10:44:33Z</time>
      </trkpt>
      <trkpt lat="47.05695" lon="5.44168">
        <ele>265</ele>
        <time>2019-09-12T10:44:38Z</time>
      </trkpt>
      <trkpt lat="47.05727" lon="5.44128">
        <ele>265</ele>
        <time>2019-09-12T10:44:46Z</time>
      </trkpt>
      <trkpt lat="47.05745" lon="5.44103">
        <ele>265</ele>
        <time>2019-09-12T10:44:51Z</time>
      </trkpt>
      <trkpt lat="47.0576" lon="5.44083">
        <ele>265</ele>
        <time>2019-09-12T10:44:55Z</time>
      </trkpt>
      <trkpt lat="47.05802" lon="5.44029">
        <ele>265</ele>
        <time>2019-09-12T10:45:06Z</time>
      </trkpt>
      <trkpt lat="47.05833" lon="5.43989">
        <ele>264.79998779297</ele>
        <time>2019-09-12T10:45:14Z</time>
      </trkpt>
      <trkpt lat="47.05852" lon="5.43965">
        <ele>264.79998779297</ele>
        <time>2019-09-12T10:45:19Z</time>
      </trkpt>
      <trkpt lat="47.05867" lon="5.43944">
        <ele>264.79998779297</ele>
        <time>2019-09-12T10:45:23Z</time>
      </trkpt>
      <trkpt lat="47.05897" lon="5.43896">
        <ele>265</ele>
        <time>2019-09-12T10:45:32Z</time>
      </trkpt>
      <trkpt lat="47.05932" lon="5.43854">
        <ele>265</ele>
        <time>2019-09-12T10:45:41Z</time>
      </trkpt>
      <trkpt lat="47.05959" lon="5.4381">
        <ele>264.79998779297</ele>
        <time>2019-09-12T10:45:49Z</time>
      </trkpt>
      <trkpt lat="47.05966" lon="5.43792">
        <ele>265</ele>
        <time>2019-09-12T10:45:52Z</time>
      </trkpt>
      <trkpt lat="47.05972" lon="5.43766">
        <ele>265</ele>
        <time>2019-09-12T10:45:56Z</time>
      </trkpt>
      <trkpt lat="47.05975" lon="5.43746">
        <ele>265</ele>
        <time>2019-09-12T10:45:59Z</time>
      </trkpt>
      <trkpt lat="47.05975" lon="5.43729">
        <ele>265</ele>
        <time>2019-09-12T10:46:02Z</time>
      </trkpt>
      <trkpt lat="47.05975" lon="5.43722">
        <ele>265.20001220703</ele>
        <time>2019-09-12T10:46:06Z</time>
      </trkpt>
      <trkpt lat="47.05975" lon="5.43723">
        <ele>265.20001220703</ele>
        <time>2019-09-12T10:46:10Z</time>
      </trkpt>
      <trkpt lat="47.05975" lon="5.43724">
        <ele>265.60000610352</ele>
        <time>2019-09-12T10:46:39Z</time>
      </trkpt>
      <trkpt lat="47.05975" lon="5.43721">
        <ele>265.60000610352</ele>
        <time>2019-09-12T10:46:40Z</time>
      </trkpt>
      <trkpt lat="47.05976" lon="5.43702">
        <ele>265.60000610352</ele>
        <time>2019-09-12T10:46:44Z</time>
      </trkpt>
      <trkpt lat="47.05976" lon="5.43688">
        <ele>265.60000610352</ele>
        <time>2019-09-12T10:46:46Z</time>
      </trkpt>
      <trkpt lat="47.05975" lon="5.43665">
        <ele>265.60000610352</ele>
        <time>2019-09-12T10:46:49Z</time>
      </trkpt>
      <trkpt lat="47.05973" lon="5.43622">
        <ele>265.60000610352</ele>
        <time>2019-09-12T10:46:55Z</time>
      </trkpt>
      <trkpt lat="47.05971" lon="5.43546">
        <ele>265</ele>
        <time>2019-09-12T10:47:04Z</time>
      </trkpt>
      <trkpt lat="47.05971" lon="5.43486">
        <ele>264.60000610352</ele>
        <time>2019-09-12T10:47:11Z</time>
      </trkpt>
      <trkpt lat="47.05971" lon="5.43401">
        <ele>264.20001220703</ele>
        <time>2019-09-12T10:47:21Z</time>
      </trkpt>
      <trkpt lat="47.05971" lon="5.43393">
        <ele>264.20001220703</ele>
        <time>2019-09-12T10:47:22Z</time>
      </trkpt>
      <trkpt lat="47.0597" lon="5.43317">
        <ele>264.20001220703</ele>
        <time>2019-09-12T10:47:31Z</time>
      </trkpt>
      <trkpt lat="47.0597" lon="5.43233">
        <ele>264.20001220703</ele>
        <time>2019-09-12T10:47:41Z</time>
      </trkpt>
      <trkpt lat="47.0597" lon="5.43225">
        <ele>264.20001220703</ele>
        <time>2019-09-12T10:47:42Z</time>
      </trkpt>
      <trkpt lat="47.05971" lon="5.4314">
        <ele>264.20001220703</ele>
        <time>2019-09-12T10:47:52Z</time>
      </trkpt>
      <trkpt lat="47.05969" lon="5.43107">
        <ele>264.20001220703</ele>
        <time>2019-09-12T10:47:56Z</time>
      </trkpt>
      <trkpt lat="47.05969" lon="5.43098">
        <ele>264.20001220703</ele>
        <time>2019-09-12T10:47:57Z</time>
      </trkpt>
      <trkpt lat="47.0597" lon="5.43047">
        <ele>264.20001220703</ele>
        <time>2019-09-12T10:48:03Z</time>
      </trkpt>
      <trkpt lat="47.05969" lon="5.4299">
        <ele>264.20001220703</ele>
        <time>2019-09-12T10:48:10Z</time>
      </trkpt>
      <trkpt lat="47.05968" lon="5.42982">
        <ele>264.20001220703</ele>
        <time>2019-09-12T10:48:11Z</time>
      </trkpt>
      <trkpt lat="47.05961" lon="5.42954">
        <ele>264.39999389648</ele>
        <time>2019-09-12T10:48:15Z</time>
      </trkpt>
      <trkpt lat="47.05962" lon="5.4294">
        <ele>264.39999389648</ele>
        <time>2019-09-12T10:48:17Z</time>
      </trkpt>
      <trkpt lat="47.05967" lon="5.42912">
        <ele>264.39999389648</ele>
        <time>2019-09-12T10:48:21Z</time>
      </trkpt>
      <trkpt lat="47.05967" lon="5.42897">
        <ele>264.39999389648</ele>
        <time>2019-09-12T10:48:23Z</time>
      </trkpt>
      <trkpt lat="47.05967" lon="5.42843">
        <ele>264.39999389648</ele>
        <time>2019-09-12T10:48:30Z</time>
      </trkpt>
      <trkpt lat="47.05967" lon="5.42769">
        <ele>264.39999389648</ele>
        <time>2019-09-12T10:48:39Z</time>
      </trkpt>
      <trkpt lat="47.05967" lon="5.42723">
        <ele>264.39999389648</ele>
        <time>2019-09-12T10:48:45Z</time>
      </trkpt>
      <trkpt lat="47.05967" lon="5.42693">
        <ele>264.60000610352</ele>
        <time>2019-09-12T10:48:50Z</time>
      </trkpt>
      <trkpt lat="47.05968" lon="5.42676">
        <ele>264.79998779297</ele>
        <time>2019-09-12T10:48:55Z</time>
      </trkpt>
      <trkpt lat="47.05958" lon="5.42672">
        <ele>266</ele>
        <time>2019-09-12T10:48:59Z</time>
      </trkpt>
      <trkpt lat="47.05956" lon="5.42673">
        <ele>266.20001220703</ele>
        <time>2019-09-12T10:49:00Z</time>
      </trkpt>
      <trkpt lat="47.05949" lon="5.42673">
        <ele>267.20001220703</ele>
        <time>2019-09-12T10:49:03Z</time>
      </trkpt>
      <trkpt lat="47.05947" lon="5.42673">
        <ele>267.20001220703</ele>
        <time>2019-09-12T10:49:04Z</time>
      </trkpt>
      <trkpt lat="47.05945" lon="5.42673">
        <ele>267.39999389648</ele>
        <time>2019-09-12T10:49:05Z</time>
      </trkpt>
      <trkpt lat="47.05941" lon="5.42667">
        <ele>267.60000610352</ele>
        <time>2019-09-12T10:49:07Z</time>
      </trkpt>
      <trkpt lat="47.05941" lon="5.42648">
        <ele>267.60000610352</ele>
        <time>2019-09-12T10:49:10Z</time>
      </trkpt>
      <trkpt lat="47.05943" lon="5.42609">
        <ele>267.60000610352</ele>
        <time>2019-09-12T10:49:14Z</time>
      </trkpt>
      <trkpt lat="47.05943" lon="5.42554">
        <ele>265.79998779297</ele>
        <time>2019-09-12T10:49:20Z</time>
      </trkpt>
      <trkpt lat="47.05943" lon="5.42529">
        <ele>264.39999389648</ele>
        <time>2019-09-12T10:49:23Z</time>
      </trkpt>
      <trkpt lat="47.05943" lon="5.42481">
        <ele>264.39999389648</ele>
        <time>2019-09-12T10:49:29Z</time>
      </trkpt>
      <trkpt lat="47.05943" lon="5.42412">
        <ele>264.39999389648</ele>
        <time>2019-09-12T10:49:38Z</time>
      </trkpt>
      <trkpt lat="47.05943" lon="5.42361">
        <ele>264.39999389648</ele>
        <time>2019-09-12T10:49:45Z</time>
      </trkpt>
      <trkpt lat="47.05945" lon="5.42307">
        <ele>264.39999389648</ele>
        <time>2019-09-12T10:49:52Z</time>
      </trkpt>
      <trkpt lat="47.05945" lon="5.42267">
        <ele>264.39999389648</ele>
        <time>2019-09-12T10:49:57Z</time>
      </trkpt>
      <trkpt lat="47.05945" lon="5.42259">
        <ele>264.39999389648</ele>
        <time>2019-09-12T10:49:58Z</time>
      </trkpt>
      <trkpt lat="47.05946" lon="5.42187">
        <ele>264.39999389648</ele>
        <time>2019-09-12T10:50:07Z</time>
      </trkpt>
      <trkpt lat="47.05945" lon="5.42124">
        <ele>264.60000610352</ele>
        <time>2019-09-12T10:50:15Z</time>
      </trkpt>
      <trkpt lat="47.05945" lon="5.42065">
        <ele>264.60000610352</ele>
        <time>2019-09-12T10:50:23Z</time>
      </trkpt>
      <trkpt lat="47.05945" lon="5.42013">
        <ele>264.39999389648</ele>
        <time>2019-09-12T10:50:30Z</time>
      </trkpt>
      <trkpt lat="47.05945" lon="5.41991">
        <ele>264.39999389648</ele>
        <time>2019-09-12T10:50:33Z</time>
      </trkpt>
      <trkpt lat="47.05944" lon="5.41953">
        <ele>264.39999389648</ele>
        <time>2019-09-12T10:50:38Z</time>
      </trkpt>
      <trkpt lat="47.05945" lon="5.41883">
        <ele>264.39999389648</ele>
        <time>2019-09-12T10:50:47Z</time>
      </trkpt>
      <trkpt lat="47.05945" lon="5.41801">
        <ele>264.60000610352</ele>
        <time>2019-09-12T10:50:57Z</time>
      </trkpt>
      <trkpt lat="47.05945" lon="5.41745">
        <ele>264.60000610352</ele>
        <time>2019-09-12T10:51:04Z</time>
      </trkpt>
      <trkpt lat="47.05945" lon="5.41697">
        <ele>264.79998779297</ele>
        <time>2019-09-12T10:51:10Z</time>
      </trkpt>
      <trkpt lat="47.05945" lon="5.41632">
        <ele>264.79998779297</ele>
        <time>2019-09-12T10:51:18Z</time>
      </trkpt>
      <trkpt lat="47.05945" lon="5.41566">
        <ele>264.79998779297</ele>
        <time>2019-09-12T10:51:26Z</time>
      </trkpt>
      <trkpt lat="47.05944" lon="5.41526">
        <ele>264.79998779297</ele>
        <time>2019-09-12T10:51:31Z</time>
      </trkpt>
      <trkpt lat="47.05945" lon="5.41495">
        <ele>264.79998779297</ele>
        <time>2019-09-12T10:51:35Z</time>
      </trkpt>
      <trkpt lat="47.05943" lon="5.41438">
        <ele>265</ele>
        <time>2019-09-12T10:51:42Z</time>
      </trkpt>
      <trkpt lat="47.05943" lon="5.41414">
        <ele>265</ele>
        <time>2019-09-12T10:51:45Z</time>
      </trkpt>
      <trkpt lat="47.05941" lon="5.41371">
        <ele>265.20001220703</ele>
        <time>2019-09-12T10:51:50Z</time>
      </trkpt>
      <trkpt lat="47.05939" lon="5.41314">
        <ele>265.20001220703</ele>
        <time>2019-09-12T10:51:57Z</time>
      </trkpt>
      <trkpt lat="47.05941" lon="5.41282">
        <ele>265.20001220703</ele>
        <time>2019-09-12T10:52:02Z</time>
      </trkpt>
      <trkpt lat="47.05945" lon="5.4127">
        <ele>265.20001220703</ele>
        <time>2019-09-12T10:52:05Z</time>
      </trkpt>
      <trkpt lat="47.05948" lon="5.41268">
        <ele>265.39999389648</ele>
        <time>2019-09-12T10:52:06Z</time>
      </trkpt>
      <trkpt lat="47.05958" lon="5.41267">
        <ele>265.60000610352</ele>
        <time>2019-09-12T10:52:09Z</time>
      </trkpt>
      <trkpt lat="47.05966" lon="5.41269">
        <ele>265.60000610352</ele>
        <time>2019-09-12T10:52:11Z</time>
      </trkpt>
      <trkpt lat="47.05979" lon="5.41271">
        <ele>266</ele>
        <time>2019-09-12T10:52:14Z</time>
      </trkpt>
      <trkpt lat="47.05993" lon="5.41278">
        <ele>266</ele>
        <time>2019-09-12T10:52:17Z</time>
      </trkpt>
      <trkpt lat="47.06029" lon="5.41303">
        <ele>265.79998779297</ele>
        <time>2019-09-12T10:52:25Z</time>
      </trkpt>
      <trkpt lat="47.06055" lon="5.4132">
        <ele>265.79998779297</ele>
        <time>2019-09-12T10:52:32Z</time>
      </trkpt>
      <trkpt lat="47.06079" lon="5.41336">
        <ele>267.20001220703</ele>
        <time>2019-09-12T10:52:39Z</time>
      </trkpt>
      <trkpt lat="47.06101" lon="5.4135">
        <ele>268.20001220703</ele>
        <time>2019-09-12T10:52:46Z</time>
      </trkpt>
      <trkpt lat="47.06104" lon="5.41352">
        <ele>268.39999389648</ele>
        <time>2019-09-12T10:52:47Z</time>
      </trkpt>
      <trkpt lat="47.06126" lon="5.41367">
        <ele>269.20001220703</ele>
        <time>2019-09-12T10:52:54Z</time>
      </trkpt>
      <trkpt lat="47.06129" lon="5.41368">
        <ele>269.39999389648</ele>
        <time>2019-09-12T10:52:55Z</time>
      </trkpt>
      <trkpt lat="47.06146" lon="5.41377">
        <ele>270</ele>
        <time>2019-09-12T10:53:01Z</time>
      </trkpt>
      <trkpt lat="47.06158" lon="5.41384">
        <ele>270.39999389648</ele>
        <time>2019-09-12T10:53:05Z</time>
      </trkpt>
      <trkpt lat="47.06161" lon="5.41386">
        <ele>270.60000610352</ele>
        <time>2019-09-12T10:53:06Z</time>
      </trkpt>
      <trkpt lat="47.06167" lon="5.4139">
        <ele>270.79998779297</ele>
        <time>2019-09-12T10:53:08Z</time>
      </trkpt>
      <trkpt lat="47.06183" lon="5.41409">
        <ele>271.39999389648</ele>
        <time>2019-09-12T10:53:14Z</time>
      </trkpt>
      <trkpt lat="47.06186" lon="5.41412">
        <ele>271.39999389648</ele>
        <time>2019-09-12T10:53:15Z</time>
      </trkpt>
      <trkpt lat="47.06203" lon="5.41436">
        <ele>272.20001220703</ele>
        <time>2019-09-12T10:53:22Z</time>
      </trkpt>
      <trkpt lat="47.06212" lon="5.41451">
        <ele>272.60000610352</ele>
        <time>2019-09-12T10:53:26Z</time>
      </trkpt>
      <trkpt lat="47.0622" lon="5.41462">
        <ele>273</ele>
        <time>2019-09-12T10:53:29Z</time>
      </trkpt>
      <trkpt lat="47.06241" lon="5.41498">
        <ele>273.39999389648</ele>
        <time>2019-09-12T10:53:38Z</time>
      </trkpt>
      <trkpt lat="47.06256" lon="5.4152">
        <ele>273.79998779297</ele>
        <time>2019-09-12T10:53:44Z</time>
      </trkpt>
      <trkpt lat="47.06275" lon="5.4155">
        <ele>274.39999389648</ele>
        <time>2019-09-12T10:53:52Z</time>
      </trkpt>
      <trkpt lat="47.06293" lon="5.41573">
        <ele>275.20001220703</ele>
        <time>2019-09-12T10:53:59Z</time>
      </trkpt>
      <trkpt lat="47.06308" lon="5.41583">
        <ele>275.60000610352</ele>
        <time>2019-09-12T10:54:04Z</time>
      </trkpt>
      <trkpt lat="47.06311" lon="5.41584">
        <ele>275.60000610352</ele>
        <time>2019-09-12T10:54:05Z</time>
      </trkpt>
      <trkpt lat="47.0633" lon="5.41592">
        <ele>276.60000610352</ele>
        <time>2019-09-12T10:54:11Z</time>
      </trkpt>
      <trkpt lat="47.06333" lon="5.41593">
        <ele>276.79998779297</ele>
        <time>2019-09-12T10:54:12Z</time>
      </trkpt>
      <trkpt lat="47.06362" lon="5.41597">
        <ele>277.20001220703</ele>
        <time>2019-09-12T10:54:20Z</time>
      </trkpt>
      <trkpt lat="47.06386" lon="5.41596">
        <ele>277.60000610352</ele>
        <time>2019-09-12T10:54:26Z</time>
      </trkpt>
      <trkpt lat="47.0639" lon="5.41595">
        <ele>277.79998779297</ele>
        <time>2019-09-12T10:54:27Z</time>
      </trkpt>
      <trkpt lat="47.0642" lon="5.41583">
        <ele>278.20001220703</ele>
        <time>2019-09-12T10:54:35Z</time>
      </trkpt>
      <trkpt lat="47.06439" lon="5.41575">
        <ele>278.60000610352</ele>
        <time>2019-09-12T10:54:40Z</time>
      </trkpt>
      <trkpt lat="47.06456" lon="5.41569">
        <ele>278.79998779297</ele>
        <time>2019-09-12T10:54:44Z</time>
      </trkpt>
      <trkpt lat="47.06494" lon="5.41553">
        <ele>279</ele>
        <time>2019-09-12T10:54:53Z</time>
      </trkpt>
      <trkpt lat="47.06527" lon="5.41539">
        <ele>279.60000610352</ele>
        <time>2019-09-12T10:55:01Z</time>
      </trkpt>
      <trkpt lat="47.06557" lon="5.41523">
        <ele>279.79998779297</ele>
        <time>2019-09-12T10:55:08Z</time>
      </trkpt>
      <trkpt lat="47.06597" lon="5.41506">
        <ele>279.79998779297</ele>
        <time>2019-09-12T10:55:16Z</time>
      </trkpt>
      <trkpt lat="47.06641" lon="5.41487">
        <ele>279.20001220703</ele>
        <time>2019-09-12T10:55:24Z</time>
      </trkpt>
      <trkpt lat="47.06685" lon="5.41475">
        <ele>279.20001220703</ele>
        <time>2019-09-12T10:55:32Z</time>
      </trkpt>
      <trkpt lat="47.06702" lon="5.41476">
        <ele>279</ele>
        <time>2019-09-12T10:55:35Z</time>
      </trkpt>
      <trkpt lat="47.06712" lon="5.41482">
        <ele>279</ele>
        <time>2019-09-12T10:55:37Z</time>
      </trkpt>
      <trkpt lat="47.06729" lon="5.41487">
        <ele>278.79998779297</ele>
        <time>2019-09-12T10:55:40Z</time>
      </trkpt>
      <trkpt lat="47.06741" lon="5.41472">
        <ele>278.79998779297</ele>
        <time>2019-09-12T10:55:43Z</time>
      </trkpt>
      <trkpt lat="47.06744" lon="5.41465">
        <ele>278.79998779297</ele>
        <time>2019-09-12T10:55:44Z</time>
      </trkpt>
      <trkpt lat="47.06747" lon="5.41459">
        <ele>278.79998779297</ele>
        <time>2019-09-12T10:55:45Z</time>
      </trkpt>
      <trkpt lat="47.0676" lon="5.41444">
        <ele>279</ele>
        <time>2019-09-12T10:55:48Z</time>
      </trkpt>
      <trkpt lat="47.06764" lon="5.4144">
        <ele>279</ele>
        <time>2019-09-12T10:55:49Z</time>
      </trkpt>
      <trkpt lat="47.06783" lon="5.4143">
        <ele>279</ele>
        <time>2019-09-12T10:55:53Z</time>
      </trkpt>
      <trkpt lat="47.06811" lon="5.41416">
        <ele>279.20001220703</ele>
        <time>2019-09-12T10:55:59Z</time>
      </trkpt>
      <trkpt lat="47.06825" lon="5.4141">
        <ele>279.39999389648</ele>
        <time>2019-09-12T10:56:02Z</time>
      </trkpt>
      <trkpt lat="47.06871" lon="5.41385">
        <ele>279.20001220703</ele>
        <time>2019-09-12T10:56:12Z</time>
      </trkpt>
      <trkpt lat="47.06908" lon="5.41367">
        <ele>279</ele>
        <time>2019-09-12T10:56:20Z</time>
      </trkpt>
      <trkpt lat="47.06941" lon="5.41349">
        <ele>279</ele>
        <time>2019-09-12T10:56:27Z</time>
      </trkpt>
      <trkpt lat="47.06961" lon="5.4134">
        <ele>278.79998779297</ele>
        <time>2019-09-12T10:56:31Z</time>
      </trkpt>
      <trkpt lat="47.06971" lon="5.4134">
        <ele>278.79998779297</ele>
        <time>2019-09-12T10:56:33Z</time>
      </trkpt>
      <trkpt lat="47.06991" lon="5.41335">
        <ele>278.79998779297</ele>
        <time>2019-09-12T10:56:37Z</time>
      </trkpt>
      <trkpt lat="47.07003" lon="5.4132">
        <ele>278.60000610352</ele>
        <time>2019-09-12T10:56:40Z</time>
      </trkpt>
      <trkpt lat="47.07007" lon="5.41315">
        <ele>278.39999389648</ele>
        <time>2019-09-12T10:56:41Z</time>
      </trkpt>
      <trkpt lat="47.07012" lon="5.4131">
        <ele>278.39999389648</ele>
        <time>2019-09-12T10:56:42Z</time>
      </trkpt>
      <trkpt lat="47.07037" lon="5.41296">
        <ele>278.39999389648</ele>
        <time>2019-09-12T10:56:47Z</time>
      </trkpt>
      <trkpt lat="47.07065" lon="5.41281">
        <ele>278</ele>
        <time>2019-09-12T10:56:53Z</time>
      </trkpt>
      <trkpt lat="47.07085" lon="5.4127">
        <ele>277.79998779297</ele>
        <time>2019-09-12T10:56:57Z</time>
      </trkpt>
      <trkpt lat="47.07102" lon="5.41262">
        <ele>277.60000610352</ele>
        <time>2019-09-12T10:57:00Z</time>
      </trkpt>
      <trkpt lat="47.07141" lon="5.41242">
        <ele>277.20001220703</ele>
        <time>2019-09-12T10:57:07Z</time>
      </trkpt>
      <trkpt lat="47.0717" lon="5.41231">
        <ele>276.60000610352</ele>
        <time>2019-09-12T10:57:12Z</time>
      </trkpt>
      <trkpt lat="47.07176" lon="5.41231">
        <ele>276.60000610352</ele>
        <time>2019-09-12T10:57:13Z</time>
      </trkpt>
      <trkpt lat="47.0721" lon="5.41237">
        <ele>276</ele>
        <time>2019-09-12T10:57:19Z</time>
      </trkpt>
      <trkpt lat="47.07246" lon="5.41258">
        <ele>275.79998779297</ele>
        <time>2019-09-12T10:57:26Z</time>
      </trkpt>
      <trkpt lat="47.0728" lon="5.41278">
        <ele>275.79998779297</ele>
        <time>2019-09-12T10:57:33Z</time>
      </trkpt>
      <trkpt lat="47.07315" lon="5.41299">
        <ele>276</ele>
        <time>2019-09-12T10:57:41Z</time>
      </trkpt>
      <trkpt lat="47.07348" lon="5.41319">
        <ele>276.60000610352</ele>
        <time>2019-09-12T10:57:49Z</time>
      </trkpt>
      <trkpt lat="47.07369" lon="5.41328">
        <ele>277</ele>
        <time>2019-09-12T10:57:54Z</time>
      </trkpt>
      <trkpt lat="47.07374" lon="5.41328">
        <ele>277</ele>
        <time>2019-09-12T10:57:55Z</time>
      </trkpt>
      <trkpt lat="47.07391" lon="5.41321">
        <ele>277.20001220703</ele>
        <time>2019-09-12T10:57:59Z</time>
      </trkpt>
      <trkpt lat="47.07395" lon="5.41319">
        <ele>277.20001220703</ele>
        <time>2019-09-12T10:58:00Z</time>
      </trkpt>
      <trkpt lat="47.07412" lon="5.41309">
        <ele>277.39999389648</ele>
        <time>2019-09-12T10:58:04Z</time>
      </trkpt>
      <trkpt lat="47.07424" lon="5.41305">
        <ele>277.39999389648</ele>
        <time>2019-09-12T10:58:07Z</time>
      </trkpt>
      <trkpt lat="47.07451" lon="5.41293">
        <ele>277</ele>
        <time>2019-09-12T10:58:14Z</time>
      </trkpt>
      <trkpt lat="47.07463" lon="5.4129">
        <ele>276.79998779297</ele>
        <time>2019-09-12T10:58:17Z</time>
      </trkpt>
      <trkpt lat="47.0747" lon="5.41284">
        <ele>276.60000610352</ele>
        <time>2019-09-12T10:58:19Z</time>
      </trkpt>
      <trkpt lat="47.07503" lon="5.41251">
        <ele>276.20001220703</ele>
        <time>2019-09-12T10:58:27Z</time>
      </trkpt>
      <trkpt lat="47.07524" lon="5.41227">
        <ele>276</ele>
        <time>2019-09-12T10:58:32Z</time>
      </trkpt>
      <trkpt lat="47.07528" lon="5.41222">
        <ele>276</ele>
        <time>2019-09-12T10:58:33Z</time>
      </trkpt>
      <trkpt lat="47.07536" lon="5.412">
        <ele>275.60000610352</ele>
        <time>2019-09-12T10:58:36Z</time>
      </trkpt>
      <trkpt lat="47.07538" lon="5.41192">
        <ele>275.60000610352</ele>
        <time>2019-09-12T10:58:37Z</time>
      </trkpt>
      <trkpt lat="47.0755" lon="5.41161">
        <ele>274.79998779297</ele>
        <time>2019-09-12T10:58:42Z</time>
      </trkpt>
      <trkpt lat="47.07551" lon="5.41156">
        <ele>274.39999389648</ele>
        <time>2019-09-12T10:58:43Z</time>
      </trkpt>
      <trkpt lat="47.07552" lon="5.41151">
        <ele>274.39999389648</ele>
        <time>2019-09-12T10:58:44Z</time>
      </trkpt>
      <trkpt lat="47.07551" lon="5.41145">
        <ele>274.20001220703</ele>
        <time>2019-09-12T10:58:45Z</time>
      </trkpt>
      <trkpt lat="47.07542" lon="5.41127">
        <ele>273.60000610352</ele>
        <time>2019-09-12T10:58:48Z</time>
      </trkpt>
      <trkpt lat="47.07534" lon="5.41116">
        <ele>273</ele>
        <time>2019-09-12T10:58:50Z</time>
      </trkpt>
      <trkpt lat="47.07511" lon="5.41091">
        <ele>272.20001220703</ele>
        <time>2019-09-12T10:58:55Z</time>
      </trkpt>
      <trkpt lat="47.0748" lon="5.41062">
        <ele>271.60000610352</ele>
        <time>2019-09-12T10:59:01Z</time>
      </trkpt>
      <trkpt lat="47.07464" lon="5.41047">
        <ele>271.20001220703</ele>
        <time>2019-09-12T10:59:04Z</time>
      </trkpt>
      <trkpt lat="47.07453" lon="5.41035">
        <ele>271.20001220703</ele>
        <time>2019-09-12T10:59:06Z</time>
      </trkpt>
      <trkpt lat="47.0745" lon="5.41026">
        <ele>271</ele>
        <time>2019-09-12T10:59:07Z</time>
      </trkpt>
      <trkpt lat="47.0745" lon="5.41007">
        <ele>270.39999389648</ele>
        <time>2019-09-12T10:59:09Z</time>
      </trkpt>
      <trkpt lat="47.07453" lon="5.40997">
        <ele>270.20001220703</ele>
        <time>2019-09-12T10:59:10Z</time>
      </trkpt>
      <trkpt lat="47.07458" lon="5.4097">
        <ele>269.39999389648</ele>
        <time>2019-09-12T10:59:13Z</time>
      </trkpt>
      <trkpt lat="47.0746" lon="5.40961">
        <ele>269.20001220703</ele>
        <time>2019-09-12T10:59:14Z</time>
      </trkpt>
      <trkpt lat="47.07463" lon="5.40952">
        <ele>268.79998779297</ele>
        <time>2019-09-12T10:59:15Z</time>
      </trkpt>
      <trkpt lat="47.07468" lon="5.40936">
        <ele>268.39999389648</ele>
        <time>2019-09-12T10:59:17Z</time>
      </trkpt>
      <trkpt lat="47.07476" lon="5.40917">
        <ele>268.39999389648</ele>
        <time>2019-09-12T10:59:20Z</time>
      </trkpt>
      <trkpt lat="47.07496" lon="5.40883">
        <ele>268.60000610352</ele>
        <time>2019-09-12T10:59:27Z</time>
      </trkpt>
      <trkpt lat="47.07519" lon="5.40844">
        <ele>270</ele>
        <time>2019-09-12T10:59:36Z</time>
      </trkpt>
      <trkpt lat="47.07521" lon="5.4084">
        <ele>270.20001220703</ele>
        <time>2019-09-12T10:59:37Z</time>
      </trkpt>
      <trkpt lat="47.07535" lon="5.40813">
        <ele>271</ele>
        <time>2019-09-12T10:59:43Z</time>
      </trkpt>
      <trkpt lat="47.07537" lon="5.40808">
        <ele>271.20001220703</ele>
        <time>2019-09-12T10:59:44Z</time>
      </trkpt>
      <trkpt lat="47.07541" lon="5.40797">
        <ele>271.20001220703</ele>
        <time>2019-09-12T10:59:46Z</time>
      </trkpt>
      <trkpt lat="47.07544" lon="5.40784">
        <ele>271.20001220703</ele>
        <time>2019-09-12T10:59:48Z</time>
      </trkpt>
      <trkpt lat="47.07546" lon="5.40769">
        <ele>271.20001220703</ele>
        <time>2019-09-12T10:59:50Z</time>
      </trkpt>
      <trkpt lat="47.07554" lon="5.40706">
        <ele>270.79998779297</ele>
        <time>2019-09-12T10:59:58Z</time>
      </trkpt>
      <trkpt lat="47.0756" lon="5.40662">
        <ele>270.20001220703</ele>
        <time>2019-09-12T11:00:03Z</time>
      </trkpt>
      <trkpt lat="47.07561" lon="5.40644">
        <ele>270</ele>
        <time>2019-09-12T11:00:05Z</time>
      </trkpt>
      <trkpt lat="47.07569" lon="5.40585">
        <ele>269</ele>
        <time>2019-09-12T11:00:12Z</time>
      </trkpt>
      <trkpt lat="47.0757" lon="5.40577">
        <ele>268.79998779297</ele>
        <time>2019-09-12T11:00:13Z</time>
      </trkpt>
      <trkpt lat="47.07579" lon="5.40506">
        <ele>268</ele>
        <time>2019-09-12T11:00:22Z</time>
      </trkpt>
      <trkpt lat="47.07587" lon="5.40491">
        <ele>268</ele>
        <time>2019-09-12T11:00:25Z</time>
      </trkpt>
      <trkpt lat="47.07592" lon="5.40465">
        <ele>268.20001220703</ele>
        <time>2019-09-12T11:00:30Z</time>
      </trkpt>
      <trkpt lat="47.07595" lon="5.40429">
        <ele>269.20001220703</ele>
        <time>2019-09-12T11:00:37Z</time>
      </trkpt>
      <trkpt lat="47.07596" lon="5.40419">
        <ele>269.60000610352</ele>
        <time>2019-09-12T11:00:39Z</time>
      </trkpt>
      <trkpt lat="47.07598" lon="5.40398">
        <ele>270.20001220703</ele>
        <time>2019-09-12T11:00:43Z</time>
      </trkpt>
      <trkpt lat="47.07602" lon="5.40371">
        <ele>270.60000610352</ele>
        <time>2019-09-12T11:00:48Z</time>
      </trkpt>
      <trkpt lat="47.07603" lon="5.4036">
        <ele>270.79998779297</ele>
        <time>2019-09-12T11:00:50Z</time>
      </trkpt>
      <trkpt lat="47.07606" lon="5.40335">
        <ele>271</ele>
        <time>2019-09-12T11:00:54Z</time>
      </trkpt>
      <trkpt lat="47.07612" lon="5.40282">
        <ele>271.20001220703</ele>
        <time>2019-09-12T11:01:02Z</time>
      </trkpt>
      <trkpt lat="47.0762" lon="5.40224">
        <ele>271</ele>
        <time>2019-09-12T11:01:10Z</time>
      </trkpt>
      <trkpt lat="47.07627" lon="5.40165">
        <ele>271</ele>
        <time>2019-09-12T11:01:18Z</time>
      </trkpt>
      <trkpt lat="47.07634" lon="5.40096">
        <ele>271</ele>
        <time>2019-09-12T11:01:27Z</time>
      </trkpt>
      <trkpt lat="47.07643" lon="5.40028">
        <ele>271</ele>
        <time>2019-09-12T11:01:35Z</time>
      </trkpt>
      <trkpt lat="47.07651" lon="5.39966">
        <ele>270.60000610352</ele>
        <time>2019-09-12T11:01:42Z</time>
      </trkpt>
      <trkpt lat="47.07659" lon="5.39897">
        <ele>270.39999389648</ele>
        <time>2019-09-12T11:01:50Z</time>
      </trkpt>
      <trkpt lat="47.07667" lon="5.39836">
        <ele>270.20001220703</ele>
        <time>2019-09-12T11:01:57Z</time>
      </trkpt>
      <trkpt lat="47.07677" lon="5.39756">
        <ele>269.79998779297</ele>
        <time>2019-09-12T11:02:06Z</time>
      </trkpt>
      <trkpt lat="47.07679" lon="5.39747">
        <ele>269.60000610352</ele>
        <time>2019-09-12T11:02:07Z</time>
      </trkpt>
      <trkpt lat="47.07688" lon="5.39674">
        <ele>269</ele>
        <time>2019-09-12T11:02:15Z</time>
      </trkpt>
      <trkpt lat="47.07692" lon="5.39645">
        <ele>268.60000610352</ele>
        <time>2019-09-12T11:02:18Z</time>
      </trkpt>
      <trkpt lat="47.07698" lon="5.39596">
        <ele>267.60000610352</ele>
        <time>2019-09-12T11:02:23Z</time>
      </trkpt>
      <trkpt lat="47.07702" lon="5.39554">
        <ele>266.60000610352</ele>
        <time>2019-09-12T11:02:27Z</time>
      </trkpt>
      <trkpt lat="47.07707" lon="5.39521">
        <ele>265.79998779297</ele>
        <time>2019-09-12T11:02:30Z</time>
      </trkpt>
      <trkpt lat="47.07708" lon="5.39511">
        <ele>265.39999389648</ele>
        <time>2019-09-12T11:02:31Z</time>
      </trkpt>
      <trkpt lat="47.07712" lon="5.3948">
        <ele>264.60000610352</ele>
        <time>2019-09-12T11:02:34Z</time>
      </trkpt>
      <trkpt lat="47.07713" lon="5.3947">
        <ele>264.20001220703</ele>
        <time>2019-09-12T11:02:35Z</time>
      </trkpt>
      <trkpt lat="47.07715" lon="5.3946">
        <ele>263.79998779297</ele>
        <time>2019-09-12T11:02:36Z</time>
      </trkpt>
      <trkpt lat="47.07718" lon="5.39433">
        <ele>263</ele>
        <time>2019-09-12T11:02:39Z</time>
      </trkpt>
      <trkpt lat="47.07721" lon="5.39416">
        <ele>262.60000610352</ele>
        <time>2019-09-12T11:02:41Z</time>
      </trkpt>
      <trkpt lat="47.07727" lon="5.39364">
        <ele>262.20001220703</ele>
        <time>2019-09-12T11:02:48Z</time>
      </trkpt>
      <trkpt lat="47.07735" lon="5.39315">
        <ele>262.79998779297</ele>
        <time>2019-09-12T11:02:55Z</time>
      </trkpt>
      <trkpt lat="47.07743" lon="5.39243">
        <ele>263.39999389648</ele>
        <time>2019-09-12T11:03:04Z</time>
      </trkpt>
      <trkpt lat="47.07754" lon="5.39158">
        <ele>262.79998779297</ele>
        <time>2019-09-12T11:03:14Z</time>
      </trkpt>
      <trkpt lat="47.07755" lon="5.3915">
        <ele>262.79998779297</ele>
        <time>2019-09-12T11:03:15Z</time>
      </trkpt>
      <trkpt lat="47.07757" lon="5.39125">
        <ele>262.60000610352</ele>
        <time>2019-09-12T11:03:18Z</time>
      </trkpt>
      <trkpt lat="47.07755" lon="5.39109">
        <ele>262.60000610352</ele>
        <time>2019-09-12T11:03:20Z</time>
      </trkpt>
      <trkpt lat="47.07746" lon="5.39086">
        <ele>262.39999389648</ele>
        <time>2019-09-12T11:03:23Z</time>
      </trkpt>
      <trkpt lat="47.07743" lon="5.39079">
        <ele>262.39999389648</ele>
        <time>2019-09-12T11:03:24Z</time>
      </trkpt>
      <trkpt lat="47.0772" lon="5.39025">
        <ele>262</ele>
        <time>2019-09-12T11:03:31Z</time>
      </trkpt>
      <trkpt lat="47.07713" lon="5.3901">
        <ele>261.79998779297</ele>
        <time>2019-09-12T11:03:33Z</time>
      </trkpt>
      <trkpt lat="47.07694" lon="5.38963">
        <ele>261</ele>
        <time>2019-09-12T11:03:39Z</time>
      </trkpt>
      <trkpt lat="47.07684" lon="5.38939">
        <ele>260.79998779297</ele>
        <time>2019-09-12T11:03:42Z</time>
      </trkpt>
      <trkpt lat="47.07655" lon="5.38873">
        <ele>260</ele>
        <time>2019-09-12T11:03:51Z</time>
      </trkpt>
      <trkpt lat="47.07634" lon="5.38821">
        <ele>260</ele>
        <time>2019-09-12T11:03:58Z</time>
      </trkpt>
      <trkpt lat="47.07628" lon="5.38807">
        <ele>259.79998779297</ele>
        <time>2019-09-12T11:04:00Z</time>
      </trkpt>
      <trkpt lat="47.07618" lon="5.38776">
        <ele>259.60000610352</ele>
        <time>2019-09-12T11:04:04Z</time>
      </trkpt>
      <trkpt lat="47.07606" lon="5.38719">
        <ele>259.39999389648</ele>
        <time>2019-09-12T11:04:11Z</time>
      </trkpt>
      <trkpt lat="47.07595" lon="5.38641">
        <ele>259.20001220703</ele>
        <time>2019-09-12T11:04:20Z</time>
      </trkpt>
      <trkpt lat="47.07594" lon="5.38632">
        <ele>259.20001220703</ele>
        <time>2019-09-12T11:04:21Z</time>
      </trkpt>
      <trkpt lat="47.07586" lon="5.38575">
        <ele>259</ele>
        <time>2019-09-12T11:04:28Z</time>
      </trkpt>
      <trkpt lat="47.07579" lon="5.38512">
        <ele>259</ele>
        <time>2019-09-12T11:04:36Z</time>
      </trkpt>
      <trkpt lat="47.07574" lon="5.38479">
        <ele>258.79998779297</ele>
        <time>2019-09-12T11:04:40Z</time>
      </trkpt>
      <trkpt lat="47.07569" lon="5.38429">
        <ele>259</ele>
        <time>2019-09-12T11:04:46Z</time>
      </trkpt>
      <trkpt lat="47.07561" lon="5.38364">
        <ele>259</ele>
        <time>2019-09-12T11:04:54Z</time>
      </trkpt>
      <trkpt lat="47.07553" lon="5.38305">
        <ele>259</ele>
        <time>2019-09-12T11:05:01Z</time>
      </trkpt>
      <trkpt lat="47.07545" lon="5.38242">
        <ele>258.79998779297</ele>
        <time>2019-09-12T11:05:09Z</time>
      </trkpt>
      <trkpt lat="47.0754" lon="5.38192">
        <ele>258.79998779297</ele>
        <time>2019-09-12T11:05:16Z</time>
      </trkpt>
      <trkpt lat="47.07533" lon="5.3814">
        <ele>258.60000610352</ele>
        <time>2019-09-12T11:05:23Z</time>
      </trkpt>
      <trkpt lat="47.07523" lon="5.38059">
        <ele>258.39999389648</ele>
        <time>2019-09-12T11:05:33Z</time>
      </trkpt>
      <trkpt lat="47.07515" lon="5.37987">
        <ele>258.60000610352</ele>
        <time>2019-09-12T11:05:42Z</time>
      </trkpt>
      <trkpt lat="47.0751" lon="5.37914">
        <ele>259.20001220703</ele>
        <time>2019-09-12T11:05:51Z</time>
      </trkpt>
      <trkpt lat="47.07505" lon="5.37838">
        <ele>259</ele>
        <time>2019-09-12T11:06:00Z</time>
      </trkpt>
      <trkpt lat="47.07498" lon="5.37769">
        <ele>258.79998779297</ele>
        <time>2019-09-12T11:06:09Z</time>
      </trkpt>
      <trkpt lat="47.07498" lon="5.37761">
        <ele>258.79998779297</ele>
        <time>2019-09-12T11:06:10Z</time>
      </trkpt>
      <trkpt lat="47.07494" lon="5.37729">
        <ele>258.79998779297</ele>
        <time>2019-09-12T11:06:14Z</time>
      </trkpt>
      <trkpt lat="47.07492" lon="5.37713">
        <ele>258.79998779297</ele>
        <time>2019-09-12T11:06:16Z</time>
      </trkpt>
      <trkpt lat="47.07482" lon="5.37639">
        <ele>258.79998779297</ele>
        <time>2019-09-12T11:06:24Z</time>
      </trkpt>
      <trkpt lat="47.07475" lon="5.37571">
        <ele>258.39999389648</ele>
        <time>2019-09-12T11:06:33Z</time>
      </trkpt>
      <trkpt lat="47.07469" lon="5.37511">
        <ele>258.20001220703</ele>
        <time>2019-09-12T11:06:41Z</time>
      </trkpt>
      <trkpt lat="47.07463" lon="5.37453">
        <ele>258.20001220703</ele>
        <time>2019-09-12T11:06:49Z</time>
      </trkpt>
      <trkpt lat="47.0745" lon="5.37389">
        <ele>258.20001220703</ele>
        <time>2019-09-12T11:06:57Z</time>
      </trkpt>
      <trkpt lat="47.07425" lon="5.37311">
        <ele>258</ele>
        <time>2019-09-12T11:07:07Z</time>
      </trkpt>
      <trkpt lat="47.0742" lon="5.37295">
        <ele>258</ele>
        <time>2019-09-12T11:07:09Z</time>
      </trkpt>
      <trkpt lat="47.07402" lon="5.37252">
        <ele>258</ele>
        <time>2019-09-12T11:07:15Z</time>
      </trkpt>
      <trkpt lat="47.07371" lon="5.37198">
        <ele>258</ele>
        <time>2019-09-12T11:07:23Z</time>
      </trkpt>
      <trkpt lat="47.07342" lon="5.37152">
        <ele>258</ele>
        <time>2019-09-12T11:07:30Z</time>
      </trkpt>
      <trkpt lat="47.07305" lon="5.37109">
        <ele>257.79998779297</ele>
        <time>2019-09-12T11:07:38Z</time>
      </trkpt>
      <trkpt lat="47.07274" lon="5.37091">
        <ele>257.79998779297</ele>
        <time>2019-09-12T11:07:44Z</time>
      </trkpt>
      <trkpt lat="47.07243" lon="5.37078">
        <ele>257.79998779297</ele>
        <time>2019-09-12T11:07:50Z</time>
      </trkpt>
      <trkpt lat="47.07238" lon="5.37077">
        <ele>258</ele>
        <time>2019-09-12T11:07:51Z</time>
      </trkpt>
      <trkpt lat="47.07227" lon="5.37064">
        <ele>258</ele>
        <time>2019-09-12T11:07:54Z</time>
      </trkpt>
      <trkpt lat="47.07222" lon="5.37051">
        <ele>258</ele>
        <time>2019-09-12T11:07:56Z</time>
      </trkpt>
      <trkpt lat="47.07219" lon="5.37045">
        <ele>258</ele>
        <time>2019-09-12T11:07:57Z</time>
      </trkpt>
      <trkpt lat="47.07212" lon="5.37034">
        <ele>258</ele>
        <time>2019-09-12T11:07:59Z</time>
      </trkpt>
      <trkpt lat="47.07193" lon="5.37025">
        <ele>258</ele>
        <time>2019-09-12T11:08:03Z</time>
      </trkpt>
      <trkpt lat="47.07183" lon="5.37013">
        <ele>257.79998779297</ele>
        <time>2019-09-12T11:08:06Z</time>
      </trkpt>
      <trkpt lat="47.07174" lon="5.36993">
        <ele>257.79998779297</ele>
        <time>2019-09-12T11:08:10Z</time>
      </trkpt>
      <trkpt lat="47.07162" lon="5.36987">
        <ele>257.79998779297</ele>
        <time>2019-09-12T11:08:13Z</time>
      </trkpt>
      <trkpt lat="47.07154" lon="5.36984">
        <ele>257.79998779297</ele>
        <time>2019-09-12T11:08:15Z</time>
      </trkpt>
      <trkpt lat="47.07141" lon="5.36973">
        <ele>258</ele>
        <time>2019-09-12T11:08:20Z</time>
      </trkpt>
      <trkpt lat="47.07142" lon="5.3696">
        <ele>258.20001220703</ele>
        <time>2019-09-12T11:08:23Z</time>
      </trkpt>
      <trkpt lat="47.07144" lon="5.36955">
        <ele>258.20001220703</ele>
        <time>2019-09-12T11:08:24Z</time>
      </trkpt>
      <trkpt lat="47.07152" lon="5.3693">
        <ele>258.20001220703</ele>
        <time>2019-09-12T11:08:28Z</time>
      </trkpt>
      <trkpt lat="47.07169" lon="5.36881">
        <ele>257.79998779297</ele>
        <time>2019-09-12T11:08:35Z</time>
      </trkpt>
      <trkpt lat="47.07191" lon="5.36814">
        <ele>257.60000610352</ele>
        <time>2019-09-12T11:08:44Z</time>
      </trkpt>
      <trkpt lat="47.07212" lon="5.36748">
        <ele>257.79998779297</ele>
        <time>2019-09-12T11:08:53Z</time>
      </trkpt>
      <trkpt lat="47.07227" lon="5.36707">
        <ele>258</ele>
        <time>2019-09-12T11:08:59Z</time>
      </trkpt>
      <trkpt lat="47.07241" lon="5.36665">
        <ele>258</ele>
        <time>2019-09-12T11:09:05Z</time>
      </trkpt>
      <trkpt lat="47.07257" lon="5.36616">
        <ele>258.20001220703</ele>
        <time>2019-09-12T11:09:12Z</time>
      </trkpt>
      <trkpt lat="47.0727" lon="5.36571">
        <ele>258.39999389648</ele>
        <time>2019-09-12T11:09:18Z</time>
      </trkpt>
      <trkpt lat="47.07293" lon="5.36507">
        <ele>258.20001220703</ele>
        <time>2019-09-12T11:09:26Z</time>
      </trkpt>
      <trkpt lat="47.07315" lon="5.36452">
        <ele>257.60000610352</ele>
        <time>2019-09-12T11:09:33Z</time>
      </trkpt>
      <trkpt lat="47.07331" lon="5.36427">
        <ele>257.39999389648</ele>
        <time>2019-09-12T11:09:37Z</time>
      </trkpt>
      <trkpt lat="47.07336" lon="5.36422">
        <ele>257.39999389648</ele>
        <time>2019-09-12T11:09:38Z</time>
      </trkpt>
      <trkpt lat="47.07346" lon="5.36412">
        <ele>257.20001220703</ele>
        <time>2019-09-12T11:09:40Z</time>
      </trkpt>
      <trkpt lat="47.07363" lon="5.364">
        <ele>257.20001220703</ele>
        <time>2019-09-12T11:09:43Z</time>
      </trkpt>
      <trkpt lat="47.0741" lon="5.3637">
        <ele>257.20001220703</ele>
        <time>2019-09-12T11:09:52Z</time>
      </trkpt>
      <trkpt lat="47.0745" lon="5.36345">
        <ele>257</ele>
        <time>2019-09-12T11:10:00Z</time>
      </trkpt>
      <trkpt lat="47.07484" lon="5.36325">
        <ele>257</ele>
        <time>2019-09-12T11:10:07Z</time>
      </trkpt>
      <trkpt lat="47.07523" lon="5.36301">
        <ele>257</ele>
        <time>2019-09-12T11:10:15Z</time>
      </trkpt>
      <trkpt lat="47.07576" lon="5.36268">
        <ele>256.79998779297</ele>
        <time>2019-09-12T11:10:26Z</time>
      </trkpt>
      <trkpt lat="47.07618" lon="5.36242">
        <ele>256.79998779297</ele>
        <time>2019-09-12T11:10:35Z</time>
      </trkpt>
      <trkpt lat="47.07656" lon="5.36219">
        <ele>256.79998779297</ele>
        <time>2019-09-12T11:10:43Z</time>
      </trkpt>
      <trkpt lat="47.0768" lon="5.36204">
        <ele>256.79998779297</ele>
        <time>2019-09-12T11:10:48Z</time>
      </trkpt>
      <trkpt lat="47.077" lon="5.36192">
        <ele>256.79998779297</ele>
        <time>2019-09-12T11:10:52Z</time>
      </trkpt>
      <trkpt lat="47.07743" lon="5.36165">
        <ele>256.79998779297</ele>
        <time>2019-09-12T11:11:01Z</time>
      </trkpt>
      <trkpt lat="47.07777" lon="5.36144">
        <ele>256.79998779297</ele>
        <time>2019-09-12T11:11:08Z</time>
      </trkpt>
      <trkpt lat="47.07817" lon="5.36119">
        <ele>256.60000610352</ele>
        <time>2019-09-12T11:11:16Z</time>
      </trkpt>
      <trkpt lat="47.07869" lon="5.36088">
        <ele>256.60000610352</ele>
        <time>2019-09-12T11:11:26Z</time>
      </trkpt>
      <trkpt lat="47.079" lon="5.36069">
        <ele>256.60000610352</ele>
        <time>2019-09-12T11:11:32Z</time>
      </trkpt>
      <trkpt lat="47.07932" lon="5.36048">
        <ele>256.60000610352</ele>
        <time>2019-09-12T11:11:39Z</time>
      </trkpt>
      <trkpt lat="47.07968" lon="5.36027">
        <ele>256.60000610352</ele>
        <time>2019-09-12T11:11:46Z</time>
      </trkpt>
      <trkpt lat="47.07997" lon="5.36009">
        <ele>256.39999389648</ele>
        <time>2019-09-12T11:11:52Z</time>
      </trkpt>
      <trkpt lat="47.08008" lon="5.36004">
        <ele>256.60000610352</ele>
        <time>2019-09-12T11:11:54Z</time>
      </trkpt>
      <trkpt lat="47.08044" lon="5.35982">
        <ele>256.60000610352</ele>
        <time>2019-09-12T11:12:01Z</time>
      </trkpt>
      <trkpt lat="47.0808" lon="5.35959">
        <ele>256.60000610352</ele>
        <time>2019-09-12T11:12:08Z</time>
      </trkpt>
      <trkpt lat="47.08115" lon="5.35936">
        <ele>256.60000610352</ele>
        <time>2019-09-12T11:12:15Z</time>
      </trkpt>
      <trkpt lat="47.0814" lon="5.3592">
        <ele>256.60000610352</ele>
        <time>2019-09-12T11:12:20Z</time>
      </trkpt>
      <trkpt lat="47.08149" lon="5.35914">
        <ele>256.79998779297</ele>
        <time>2019-09-12T11:12:22Z</time>
      </trkpt>
      <trkpt lat="47.08175" lon="5.35898">
        <ele>257</ele>
        <time>2019-09-12T11:12:27Z</time>
      </trkpt>
      <trkpt lat="47.08212" lon="5.35875">
        <ele>257.20001220703</ele>
        <time>2019-09-12T11:12:34Z</time>
      </trkpt>
      <trkpt lat="47.08261" lon="5.35848">
        <ele>257.39999389648</ele>
        <time>2019-09-12T11:12:43Z</time>
      </trkpt>
      <trkpt lat="47.08304" lon="5.35822">
        <ele>257.39999389648</ele>
        <time>2019-09-12T11:12:51Z</time>
      </trkpt>
      <trkpt lat="47.08335" lon="5.35798">
        <ele>257.20001220703</ele>
        <time>2019-09-12T11:12:57Z</time>
      </trkpt>
      <trkpt lat="47.0836" lon="5.35762">
        <ele>257</ele>
        <time>2019-09-12T11:13:03Z</time>
      </trkpt>
      <trkpt lat="47.08375" lon="5.35718">
        <ele>256.79998779297</ele>
        <time>2019-09-12T11:13:09Z</time>
      </trkpt>
      <trkpt lat="47.0838" lon="5.35685">
        <ele>256.79998779297</ele>
        <time>2019-09-12T11:13:14Z</time>
      </trkpt>
      <trkpt lat="47.08381" lon="5.35679">
        <ele>256.79998779297</ele>
        <time>2019-09-12T11:13:15Z</time>
      </trkpt>
      <trkpt lat="47.08386" lon="5.35644">
        <ele>256.79998779297</ele>
        <time>2019-09-12T11:13:21Z</time>
      </trkpt>
      <trkpt lat="47.08392" lon="5.35619">
        <ele>257.60000610352</ele>
        <time>2019-09-12T11:13:27Z</time>
      </trkpt>
      <trkpt lat="47.08394" lon="5.35598">
        <ele>258.20001220703</ele>
        <time>2019-09-12T11:13:31Z</time>
      </trkpt>
      <trkpt lat="47.08396" lon="5.35591">
        <ele>258.20001220703</ele>
        <time>2019-09-12T11:13:32Z</time>
      </trkpt>
      <trkpt lat="47.08407" lon="5.35532">
        <ele>258.39999389648</ele>
        <time>2019-09-12T11:13:39Z</time>
      </trkpt>
      <trkpt lat="47.08412" lon="5.35502">
        <ele>257.20001220703</ele>
        <time>2019-09-12T11:13:43Z</time>
      </trkpt>
      <trkpt lat="47.08413" lon="5.35489">
        <ele>256.79998779297</ele>
        <time>2019-09-12T11:13:45Z</time>
      </trkpt>
      <trkpt lat="47.0842" lon="5.3544">
        <ele>256.20001220703</ele>
        <time>2019-09-12T11:13:52Z</time>
      </trkpt>
      <trkpt lat="47.0843" lon="5.3538">
        <ele>256.39999389648</ele>
        <time>2019-09-12T11:14:00Z</time>
      </trkpt>
      <trkpt lat="47.08439" lon="5.35332">
        <ele>256.39999389648</ele>
        <time>2019-09-12T11:14:06Z</time>
      </trkpt>
      <trkpt lat="47.08449" lon="5.35279">
        <ele>256.39999389648</ele>
        <time>2019-09-12T11:14:13Z</time>
      </trkpt>
      <trkpt lat="47.08456" lon="5.35233">
        <ele>256.39999389648</ele>
        <time>2019-09-12T11:14:19Z</time>
      </trkpt>
      <trkpt lat="47.08463" lon="5.35178">
        <ele>256.39999389648</ele>
        <time>2019-09-12T11:14:26Z</time>
      </trkpt>
      <trkpt lat="47.0847" lon="5.35137">
        <ele>256.39999389648</ele>
        <time>2019-09-12T11:14:31Z</time>
      </trkpt>
      <trkpt lat="47.08472" lon="5.35129">
        <ele>256.39999389648</ele>
        <time>2019-09-12T11:14:32Z</time>
      </trkpt>
      <trkpt lat="47.08479" lon="5.35083">
        <ele>256.60000610352</ele>
        <time>2019-09-12T11:14:38Z</time>
      </trkpt>
      <trkpt lat="47.0849" lon="5.35019">
        <ele>256.39999389648</ele>
        <time>2019-09-12T11:14:46Z</time>
      </trkpt>
      <trkpt lat="47.08504" lon="5.34949">
        <ele>256.39999389648</ele>
        <time>2019-09-12T11:14:55Z</time>
      </trkpt>
      <trkpt lat="47.08516" lon="5.34889">
        <ele>256.39999389648</ele>
        <time>2019-09-12T11:15:03Z</time>
      </trkpt>
      <trkpt lat="47.08523" lon="5.34844">
        <ele>256.20001220703</ele>
        <time>2019-09-12T11:15:09Z</time>
      </trkpt>
      <trkpt lat="47.08527" lon="5.3482">
        <ele>256.20001220703</ele>
        <time>2019-09-12T11:15:12Z</time>
      </trkpt>
      <trkpt lat="47.0853" lon="5.34803">
        <ele>256.20001220703</ele>
        <time>2019-09-12T11:15:14Z</time>
      </trkpt>
      <trkpt lat="47.08542" lon="5.34746">
        <ele>256.20001220703</ele>
        <time>2019-09-12T11:15:21Z</time>
      </trkpt>
      <trkpt lat="47.08551" lon="5.34696">
        <ele>256.20001220703</ele>
        <time>2019-09-12T11:15:27Z</time>
      </trkpt>
      <trkpt lat="47.0856" lon="5.34645">
        <ele>256.20001220703</ele>
        <time>2019-09-12T11:15:33Z</time>
      </trkpt>
      <trkpt lat="47.0857" lon="5.34587">
        <ele>256.20001220703</ele>
        <time>2019-09-12T11:15:40Z</time>
      </trkpt>
      <trkpt lat="47.08579" lon="5.34541">
        <ele>256.39999389648</ele>
        <time>2019-09-12T11:15:46Z</time>
      </trkpt>
      <trkpt lat="47.08587" lon="5.34494">
        <ele>256.60000610352</ele>
        <time>2019-09-12T11:15:52Z</time>
      </trkpt>
      <trkpt lat="47.08595" lon="5.34439">
        <ele>256.39999389648</ele>
        <time>2019-09-12T11:15:59Z</time>
      </trkpt>
      <trkpt lat="47.08606" lon="5.34384">
        <ele>256.60000610352</ele>
        <time>2019-09-12T11:16:06Z</time>
      </trkpt>
      <trkpt lat="47.08616" lon="5.34335">
        <ele>256.39999389648</ele>
        <time>2019-09-12T11:16:13Z</time>
      </trkpt>
      <trkpt lat="47.08618" lon="5.34307">
        <ele>256.39999389648</ele>
        <time>2019-09-12T11:16:17Z</time>
      </trkpt>
      <trkpt lat="47.0862" lon="5.34294">
        <ele>256.39999389648</ele>
        <time>2019-09-12T11:16:19Z</time>
      </trkpt>
      <trkpt lat="47.08626" lon="5.34277">
        <ele>256.39999389648</ele>
        <time>2019-09-12T11:16:22Z</time>
      </trkpt>
      <trkpt lat="47.08631" lon="5.34262">
        <ele>256.39999389648</ele>
        <time>2019-09-12T11:16:24Z</time>
      </trkpt>
      <trkpt lat="47.08632" lon="5.34254">
        <ele>256.39999389648</ele>
        <time>2019-09-12T11:16:25Z</time>
      </trkpt>
      <trkpt lat="47.08635" lon="5.34223">
        <ele>256.39999389648</ele>
        <time>2019-09-12T11:16:29Z</time>
      </trkpt>
      <trkpt lat="47.08638" lon="5.34206">
        <ele>256.39999389648</ele>
        <time>2019-09-12T11:16:31Z</time>
      </trkpt>
      <trkpt lat="47.08641" lon="5.34181">
        <ele>256.39999389648</ele>
        <time>2019-09-12T11:16:34Z</time>
      </trkpt>
      <trkpt lat="47.08648" lon="5.3414">
        <ele>256.39999389648</ele>
        <time>2019-09-12T11:16:39Z</time>
      </trkpt>
      <trkpt lat="47.08653" lon="5.34106">
        <ele>256.39999389648</ele>
        <time>2019-09-12T11:16:43Z</time>
      </trkpt>
      <trkpt lat="47.08665" lon="5.34041">
        <ele>256.20001220703</ele>
        <time>2019-09-12T11:16:51Z</time>
      </trkpt>
      <trkpt lat="47.08676" lon="5.3397">
        <ele>256.39999389648</ele>
        <time>2019-09-12T11:17:00Z</time>
      </trkpt>
      <trkpt lat="47.08692" lon="5.33891">
        <ele>256.39999389648</ele>
        <time>2019-09-12T11:17:10Z</time>
      </trkpt>
      <trkpt lat="47.08696" lon="5.33875">
        <ele>256.39999389648</ele>
        <time>2019-09-12T11:17:12Z</time>
      </trkpt>
      <trkpt lat="47.08706" lon="5.33824">
        <ele>256.20001220703</ele>
        <time>2019-09-12T11:17:19Z</time>
      </trkpt>
      <trkpt lat="47.08715" lon="5.33776">
        <ele>256.20001220703</ele>
        <time>2019-09-12T11:17:26Z</time>
      </trkpt>
      <trkpt lat="47.08734" lon="5.3373">
        <ele>256.20001220703</ele>
        <time>2019-09-12T11:17:33Z</time>
      </trkpt>
      <trkpt lat="47.0875" lon="5.33694">
        <ele>256.20001220703</ele>
        <time>2019-09-12T11:17:39Z</time>
      </trkpt>
      <trkpt lat="47.08769" lon="5.33647">
        <ele>256.20001220703</ele>
        <time>2019-09-12T11:17:47Z</time>
      </trkpt>
      <trkpt lat="47.08786" lon="5.33604">
        <ele>256.20001220703</ele>
        <time>2019-09-12T11:17:54Z</time>
      </trkpt>
      <trkpt lat="47.088" lon="5.33556">
        <ele>256</ele>
        <time>2019-09-12T11:18:01Z</time>
      </trkpt>
      <trkpt lat="47.08809" lon="5.33501">
        <ele>256</ele>
        <time>2019-09-12T11:18:08Z</time>
      </trkpt>
      <trkpt lat="47.08815" lon="5.33433">
        <ele>256</ele>
        <time>2019-09-12T11:18:17Z</time>
      </trkpt>
      <trkpt lat="47.08817" lon="5.33374">
        <ele>256</ele>
        <time>2019-09-12T11:18:25Z</time>
      </trkpt>
      <trkpt lat="47.08818" lon="5.33324">
        <ele>256.20001220703</ele>
        <time>2019-09-12T11:18:32Z</time>
      </trkpt>
      <trkpt lat="47.0882" lon="5.3328">
        <ele>256.20001220703</ele>
        <time>2019-09-12T11:18:38Z</time>
      </trkpt>
      <trkpt lat="47.08823" lon="5.33258">
        <ele>256.20001220703</ele>
        <time>2019-09-12T11:18:41Z</time>
      </trkpt>
      <trkpt lat="47.08823" lon="5.33242">
        <ele>256.20001220703</ele>
        <time>2019-09-12T11:18:43Z</time>
      </trkpt>
      <trkpt lat="47.08824" lon="5.3322">
        <ele>256</ele>
        <time>2019-09-12T11:18:46Z</time>
      </trkpt>
      <trkpt lat="47.08825" lon="5.33183">
        <ele>256</ele>
        <time>2019-09-12T11:18:51Z</time>
      </trkpt>
      <trkpt lat="47.08828" lon="5.3314">
        <ele>256</ele>
        <time>2019-09-12T11:18:57Z</time>
      </trkpt>
      <trkpt lat="47.0883" lon="5.3311">
        <ele>256</ele>
        <time>2019-09-12T11:19:01Z</time>
      </trkpt>
      <trkpt lat="47.0883" lon="5.33095">
        <ele>256</ele>
        <time>2019-09-12T11:19:03Z</time>
      </trkpt>
      <trkpt lat="47.08831" lon="5.33088">
        <ele>256</ele>
        <time>2019-09-12T11:19:04Z</time>
      </trkpt>
      <trkpt lat="47.08831" lon="5.33074">
        <ele>256</ele>
        <time>2019-09-12T11:19:06Z</time>
      </trkpt>
      <trkpt lat="47.08831" lon="5.33061">
        <ele>256</ele>
        <time>2019-09-12T11:19:08Z</time>
      </trkpt>
      <trkpt lat="47.08834" lon="5.33009">
        <ele>256</ele>
        <time>2019-09-12T11:19:15Z</time>
      </trkpt>
      <trkpt lat="47.08838" lon="5.32961">
        <ele>256</ele>
        <time>2019-09-12T11:19:21Z</time>
      </trkpt>
      <trkpt lat="47.0884" lon="5.32946">
        <ele>256</ele>
        <time>2019-09-12T11:19:23Z</time>
      </trkpt>
      <trkpt lat="47.08846" lon="5.32928">
        <ele>256</ele>
        <time>2019-09-12T11:19:26Z</time>
      </trkpt>
      <trkpt lat="47.08863" lon="5.32887">
        <ele>255.80000305176</ele>
        <time>2019-09-12T11:19:32Z</time>
      </trkpt>
      <trkpt lat="47.08877" lon="5.32861">
        <ele>256</ele>
        <time>2019-09-12T11:19:36Z</time>
      </trkpt>
      <trkpt lat="47.0889" lon="5.32846">
        <ele>256</ele>
        <time>2019-09-12T11:19:39Z</time>
      </trkpt>
      <trkpt lat="47.08917" lon="5.32826">
        <ele>256.20001220703</ele>
        <time>2019-09-12T11:19:45Z</time>
      </trkpt>
      <trkpt lat="47.08943" lon="5.32811">
        <ele>256.20001220703</ele>
        <time>2019-09-12T11:19:51Z</time>
      </trkpt>
      <trkpt lat="47.08976" lon="5.32795">
        <ele>256.39999389648</ele>
        <time>2019-09-12T11:19:58Z</time>
      </trkpt>
      <trkpt lat="47.09004" lon="5.32775">
        <ele>256.20001220703</ele>
        <time>2019-09-12T11:20:04Z</time>
      </trkpt>
      <trkpt lat="47.09042" lon="5.32749">
        <ele>256.20001220703</ele>
        <time>2019-09-12T11:20:12Z</time>
      </trkpt>
      <trkpt lat="47.09088" lon="5.32713">
        <ele>256.39999389648</ele>
        <time>2019-09-12T11:20:22Z</time>
      </trkpt>
      <trkpt lat="47.09118" lon="5.32683">
        <ele>256.39999389648</ele>
        <time>2019-09-12T11:20:29Z</time>
      </trkpt>
      <trkpt lat="47.09146" lon="5.32643">
        <ele>256.20001220703</ele>
        <time>2019-09-12T11:20:37Z</time>
      </trkpt>
      <trkpt lat="47.09176" lon="5.32606">
        <ele>256</ele>
        <time>2019-09-12T11:20:45Z</time>
      </trkpt>
      <trkpt lat="47.09211" lon="5.32573">
        <ele>256.20001220703</ele>
        <time>2019-09-12T11:20:53Z</time>
      </trkpt>
      <trkpt lat="47.09257" lon="5.32541">
        <ele>256.20001220703</ele>
        <time>2019-09-12T11:21:03Z</time>
      </trkpt>
      <trkpt lat="47.09301" lon="5.32516">
        <ele>256.39999389648</ele>
        <time>2019-09-12T11:21:12Z</time>
      </trkpt>
      <trkpt lat="47.09311" lon="5.32513">
        <ele>256.39999389648</ele>
        <time>2019-09-12T11:21:14Z</time>
      </trkpt>
      <trkpt lat="47.09326" lon="5.32511">
        <ele>256.39999389648</ele>
        <time>2019-09-12T11:21:17Z</time>
      </trkpt>
      <trkpt lat="47.09342" lon="5.32512">
        <ele>256.39999389648</ele>
        <time>2019-09-12T11:21:20Z</time>
      </trkpt>
      <trkpt lat="47.09357" lon="5.32515">
        <ele>256.39999389648</ele>
        <time>2019-09-12T11:21:23Z</time>
      </trkpt>
      <trkpt lat="47.09394" lon="5.32515">
        <ele>256.60000610352</ele>
        <time>2019-09-12T11:21:30Z</time>
      </trkpt>
      <trkpt lat="47.09429" lon="5.32517">
        <ele>256.60000610352</ele>
        <time>2019-09-12T11:21:37Z</time>
      </trkpt>
      <trkpt lat="47.0947" lon="5.3252">
        <ele>256.39999389648</ele>
        <time>2019-09-12T11:21:45Z</time>
      </trkpt>
      <trkpt lat="47.09505" lon="5.32522">
        <ele>256.39999389648</ele>
        <time>2019-09-12T11:21:52Z</time>
      </trkpt>
      <trkpt lat="47.09544" lon="5.32529">
        <ele>256.39999389648</ele>
        <time>2019-09-12T11:22:00Z</time>
      </trkpt>
      <trkpt lat="47.09581" lon="5.32538">
        <ele>256.39999389648</ele>
        <time>2019-09-12T11:22:08Z</time>
      </trkpt>
      <trkpt lat="47.0962" lon="5.32543">
        <ele>256.39999389648</ele>
        <time>2019-09-12T11:22:16Z</time>
      </trkpt>
      <trkpt lat="47.09635" lon="5.32544">
        <ele>256.39999389648</ele>
        <time>2019-09-12T11:22:19Z</time>
      </trkpt>
      <trkpt lat="47.09649" lon="5.32539">
        <ele>256.39999389648</ele>
        <time>2019-09-12T11:22:22Z</time>
      </trkpt>
      <trkpt lat="47.09654" lon="5.32536">
        <ele>256.39999389648</ele>
        <time>2019-09-12T11:22:23Z</time>
      </trkpt>
      <trkpt lat="47.09666" lon="5.32524">
        <ele>256.39999389648</ele>
        <time>2019-09-12T11:22:26Z</time>
      </trkpt>
      <trkpt lat="47.0967" lon="5.32519">
        <ele>256.39999389648</ele>
        <time>2019-09-12T11:22:27Z</time>
      </trkpt>
      <trkpt lat="47.09683" lon="5.32488">
        <ele>256.39999389648</ele>
        <time>2019-09-12T11:22:32Z</time>
      </trkpt>
      <trkpt lat="47.09684" lon="5.32453">
        <ele>256.39999389648</ele>
        <time>2019-09-12T11:22:37Z</time>
      </trkpt>
      <trkpt lat="47.09682" lon="5.32439">
        <ele>256.39999389648</ele>
        <time>2019-09-12T11:22:39Z</time>
      </trkpt>
      <trkpt lat="47.09674" lon="5.32404">
        <ele>256.39999389648</ele>
        <time>2019-09-12T11:22:44Z</time>
      </trkpt>
      <trkpt lat="47.09671" lon="5.32377">
        <ele>256.60000610352</ele>
        <time>2019-09-12T11:22:48Z</time>
      </trkpt>
      <trkpt lat="47.09672" lon="5.32363">
        <ele>256.60000610352</ele>
        <time>2019-09-12T11:22:50Z</time>
      </trkpt>
      <trkpt lat="47.09679" lon="5.32328">
        <ele>256.79998779297</ele>
        <time>2019-09-12T11:22:55Z</time>
      </trkpt>
      <trkpt lat="47.09693" lon="5.32281">
        <ele>256.79998779297</ele>
        <time>2019-09-12T11:23:02Z</time>
      </trkpt>
      <trkpt lat="47.09695" lon="5.32274">
        <ele>256.79998779297</ele>
        <time>2019-09-12T11:23:03Z</time>
      </trkpt>
      <trkpt lat="47.09709" lon="5.32224">
        <ele>256.79998779297</ele>
        <time>2019-09-12T11:23:10Z</time>
      </trkpt>
      <trkpt lat="47.09726" lon="5.3218">
        <ele>256.60000610352</ele>
        <time>2019-09-12T11:23:17Z</time>
      </trkpt>
      <trkpt lat="47.09733" lon="5.32162">
        <ele>256.60000610352</ele>
        <time>2019-09-12T11:23:20Z</time>
      </trkpt>
      <trkpt lat="47.09742" lon="5.32145">
        <ele>256.79998779297</ele>
        <time>2019-09-12T11:23:23Z</time>
      </trkpt>
      <trkpt lat="47.09766" lon="5.32099">
        <ele>256.79998779297</ele>
        <time>2019-09-12T11:23:31Z</time>
      </trkpt>
      <trkpt lat="47.09792" lon="5.32058">
        <ele>257</ele>
        <time>2019-09-12T11:23:39Z</time>
      </trkpt>
      <trkpt lat="47.09816" lon="5.32031">
        <ele>257.39999389648</ele>
        <time>2019-09-12T11:23:46Z</time>
      </trkpt>
      <trkpt lat="47.09827" lon="5.32021">
        <ele>257.60000610352</ele>
        <time>2019-09-12T11:23:49Z</time>
      </trkpt>
      <trkpt lat="47.09845" lon="5.32012">
        <ele>257.79998779297</ele>
        <time>2019-09-12T11:23:53Z</time>
      </trkpt>
      <trkpt lat="47.09875" lon="5.32006">
        <ele>257.79998779297</ele>
        <time>2019-09-12T11:24:00Z</time>
      </trkpt>
      <trkpt lat="47.09884" lon="5.32005">
        <ele>257.79998779297</ele>
        <time>2019-09-12T11:24:02Z</time>
      </trkpt>
      <trkpt lat="47.09907" lon="5.32002">
        <ele>257.79998779297</ele>
        <time>2019-09-12T11:24:07Z</time>
      </trkpt>
      <trkpt lat="47.09912" lon="5.32002">
        <ele>257.79998779297</ele>
        <time>2019-09-12T11:24:08Z</time>
      </trkpt>
      <trkpt lat="47.09939" lon="5.31994">
        <ele>257.60000610352</ele>
        <time>2019-09-12T11:24:14Z</time>
      </trkpt>
      <trkpt lat="47.09948" lon="5.3199">
        <ele>257.60000610352</ele>
        <time>2019-09-12T11:24:16Z</time>
      </trkpt>
      <trkpt lat="47.0996" lon="5.31979">
        <ele>257.39999389648</ele>
        <time>2019-09-12T11:24:19Z</time>
      </trkpt>
      <trkpt lat="47.09969" lon="5.31964">
        <ele>257.39999389648</ele>
        <time>2019-09-12T11:24:22Z</time>
      </trkpt>
      <trkpt lat="47.09978" lon="5.31948">
        <ele>257.39999389648</ele>
        <time>2019-09-12T11:24:25Z</time>
      </trkpt>
      <trkpt lat="47.09994" lon="5.31912">
        <ele>256.60000610352</ele>
        <time>2019-09-12T11:24:32Z</time>
      </trkpt>
      <trkpt lat="47.09999" lon="5.31901">
        <ele>256.60000610352</ele>
        <time>2019-09-12T11:24:34Z</time>
      </trkpt>
      <trkpt lat="47.10005" lon="5.31891">
        <ele>256.60000610352</ele>
        <time>2019-09-12T11:24:36Z</time>
      </trkpt>
      <trkpt lat="47.10011" lon="5.31881">
        <ele>256.39999389648</ele>
        <time>2019-09-12T11:24:38Z</time>
      </trkpt>
      <trkpt lat="47.10036" lon="5.31845">
        <ele>256.39999389648</ele>
        <time>2019-09-12T11:24:45Z</time>
      </trkpt>
      <trkpt lat="47.10044" lon="5.31831">
        <ele>256.39999389648</ele>
        <time>2019-09-12T11:24:47Z</time>
      </trkpt>
      <trkpt lat="47.10056" lon="5.3181">
        <ele>256.39999389648</ele>
        <time>2019-09-12T11:24:50Z</time>
      </trkpt>
      <trkpt lat="47.10067" lon="5.31792">
        <ele>255.39999389648</ele>
        <time>2019-09-12T11:24:53Z</time>
      </trkpt>
      <trkpt lat="47.10073" lon="5.31783">
        <ele>255</ele>
        <time>2019-09-12T11:24:55Z</time>
      </trkpt>
      <trkpt lat="47.10076" lon="5.31779">
        <ele>255</ele>
        <time>2019-09-12T11:24:56Z</time>
      </trkpt>
      <trkpt lat="47.10081" lon="5.31769">
        <ele>255</ele>
        <time>2019-09-12T11:24:58Z</time>
      </trkpt>
      <trkpt lat="47.10085" lon="5.31758">
        <ele>254.80000305176</ele>
        <time>2019-09-12T11:25:00Z</time>
      </trkpt>
      <trkpt lat="47.10088" lon="5.31754">
        <ele>254.80000305176</ele>
        <time>2019-09-12T11:25:01Z</time>
      </trkpt>
      <trkpt lat="47.10098" lon="5.3174">
        <ele>254.80000305176</ele>
        <time>2019-09-12T11:25:04Z</time>
      </trkpt>
      <trkpt lat="47.10111" lon="5.31715">
        <ele>254.80000305176</ele>
        <time>2019-09-12T11:25:08Z</time>
      </trkpt>
      <trkpt lat="47.10119" lon="5.31704">
        <ele>254.80000305176</ele>
        <time>2019-09-12T11:25:10Z</time>
      </trkpt>
      <trkpt lat="47.10136" lon="5.31685">
        <ele>254.80000305176</ele>
        <time>2019-09-12T11:25:14Z</time>
      </trkpt>
      <trkpt lat="47.10146" lon="5.31678">
        <ele>254.60000610352</ele>
        <time>2019-09-12T11:25:16Z</time>
      </trkpt>
      <trkpt lat="47.10176" lon="5.31662">
        <ele>254.19999694824</ele>
        <time>2019-09-12T11:25:22Z</time>
      </trkpt>
      <trkpt lat="47.10186" lon="5.3166">
        <ele>254.19999694824</ele>
        <time>2019-09-12T11:25:24Z</time>
      </trkpt>
      <trkpt lat="47.10192" lon="5.3166">
        <ele>254.19999694824</ele>
        <time>2019-09-12T11:25:25Z</time>
      </trkpt>
      <trkpt lat="47.10218" lon="5.31663">
        <ele>254</ele>
        <time>2019-09-12T11:25:30Z</time>
      </trkpt>
      <trkpt lat="47.10255" lon="5.31664">
        <ele>254.19999694824</ele>
        <time>2019-09-12T11:25:37Z</time>
      </trkpt>
      <trkpt lat="47.10285" lon="5.31661">
        <ele>254</ele>
        <time>2019-09-12T11:25:43Z</time>
      </trkpt>
      <trkpt lat="47.1032" lon="5.31652">
        <ele>253.80000305176</ele>
        <time>2019-09-12T11:25:50Z</time>
      </trkpt>
      <trkpt lat="47.10371" lon="5.31639">
        <ele>253.60000610352</ele>
        <time>2019-09-12T11:26:00Z</time>
      </trkpt>
      <trkpt lat="47.10417" lon="5.31627">
        <ele>253.60000610352</ele>
        <time>2019-09-12T11:26:09Z</time>
      </trkpt>
      <trkpt lat="47.10461" lon="5.31614">
        <ele>253.80000305176</ele>
        <time>2019-09-12T11:26:18Z</time>
      </trkpt>
      <trkpt lat="47.10491" lon="5.31602">
        <ele>253.80000305176</ele>
        <time>2019-09-12T11:26:24Z</time>
      </trkpt>
      <trkpt lat="47.10505" lon="5.31598">
        <ele>253.80000305176</ele>
        <time>2019-09-12T11:26:27Z</time>
      </trkpt>
      <trkpt lat="47.10534" lon="5.31593">
        <ele>253.60000610352</ele>
        <time>2019-09-12T11:26:33Z</time>
      </trkpt>
      <trkpt lat="47.10572" lon="5.31584">
        <ele>253.19999694824</ele>
        <time>2019-09-12T11:26:40Z</time>
      </trkpt>
      <trkpt lat="47.10607" lon="5.31574">
        <ele>252</ele>
        <time>2019-09-12T11:26:47Z</time>
      </trkpt>
      <trkpt lat="47.10646" lon="5.31556">
        <ele>251.80000305176</ele>
        <time>2019-09-12T11:26:55Z</time>
      </trkpt>
      <trkpt lat="47.10682" lon="5.31529">
        <ele>251.80000305176</ele>
        <time>2019-09-12T11:27:03Z</time>
      </trkpt>
      <trkpt lat="47.10719" lon="5.3149">
        <ele>251.80000305176</ele>
        <time>2019-09-12T11:27:12Z</time>
      </trkpt>
      <trkpt lat="47.10745" lon="5.31446">
        <ele>251.80000305176</ele>
        <time>2019-09-12T11:27:20Z</time>
      </trkpt>
      <trkpt lat="47.10758" lon="5.31415">
        <ele>252</ele>
        <time>2019-09-12T11:27:25Z</time>
      </trkpt>
      <trkpt lat="47.1076" lon="5.31409">
        <ele>252</ele>
        <time>2019-09-12T11:27:26Z</time>
      </trkpt>
      <trkpt lat="47.10765" lon="5.31388">
        <ele>252</ele>
        <time>2019-09-12T11:27:29Z</time>
      </trkpt>
      <trkpt lat="47.10769" lon="5.31377">
        <ele>252</ele>
        <time>2019-09-12T11:27:31Z</time>
      </trkpt>
      <trkpt lat="47.10783" lon="5.31353">
        <ele>252</ele>
        <time>2019-09-12T11:27:37Z</time>
      </trkpt>
      <trkpt lat="47.10785" lon="5.31341">
        <ele>252.19999694824</ele>
        <time>2019-09-12T11:27:41Z</time>
      </trkpt>
      <trkpt lat="47.10784" lon="5.31339">
        <ele>252.19999694824</ele>
        <time>2019-09-12T11:27:42Z</time>
      </trkpt>
      <trkpt lat="47.10778" lon="5.31336">
        <ele>253</ele>
        <time>2019-09-12T11:27:48Z</time>
      </trkpt>
      <trkpt lat="47.10777" lon="5.31334">
        <ele>253.80000305176</ele>
        <time>2019-09-12T11:28:27Z</time>
      </trkpt>
      <trkpt lat="47.10772" lon="5.31329">
        <ele>253.80000305176</ele>
        <time>2019-09-12T11:28:30Z</time>
      </trkpt>
      <trkpt lat="47.10755" lon="5.3131">
        <ele>253.80000305176</ele>
        <time>2019-09-12T11:28:35Z</time>
      </trkpt>
      <trkpt lat="47.10752" lon="5.31305">
        <ele>253.80000305176</ele>
        <time>2019-09-12T11:28:36Z</time>
      </trkpt>
      <trkpt lat="47.10749" lon="5.31293">
        <ele>253.60000610352</ele>
        <time>2019-09-12T11:28:38Z</time>
      </trkpt>
      <trkpt lat="47.10754" lon="5.31274">
        <ele>252.80000305176</ele>
        <time>2019-09-12T11:28:41Z</time>
      </trkpt>
      <trkpt lat="47.10756" lon="5.31269">
        <ele>252.60000610352</ele>
        <time>2019-09-12T11:28:42Z</time>
      </trkpt>
      <trkpt lat="47.10764" lon="5.31231">
        <ele>251.80000305176</ele>
        <time>2019-09-12T11:28:49Z</time>
      </trkpt>
      <trkpt lat="47.10765" lon="5.31219">
        <ele>251.80000305176</ele>
        <time>2019-09-12T11:28:51Z</time>
      </trkpt>
      <trkpt lat="47.10762" lon="5.3119">
        <ele>251.60000610352</ele>
        <time>2019-09-12T11:28:55Z</time>
      </trkpt>
      <trkpt lat="47.10761" lon="5.31182">
        <ele>251.60000610352</ele>
        <time>2019-09-12T11:28:56Z</time>
      </trkpt>
      <trkpt lat="47.10757" lon="5.31166">
        <ele>251.60000610352</ele>
        <time>2019-09-12T11:28:58Z</time>
      </trkpt>
      <trkpt lat="47.10754" lon="5.3115">
        <ele>251.19999694824</ele>
        <time>2019-09-12T11:29:00Z</time>
      </trkpt>
      <trkpt lat="47.10742" lon="5.3108">
        <ele>250.60000610352</ele>
        <time>2019-09-12T11:29:09Z</time>
      </trkpt>
      <trkpt lat="47.1074" lon="5.31072">
        <ele>250.39999389648</ele>
        <time>2019-09-12T11:29:10Z</time>
      </trkpt>
      <trkpt lat="47.10729" lon="5.31015">
        <ele>250.39999389648</ele>
        <time>2019-09-12T11:29:17Z</time>
      </trkpt>
      <trkpt lat="47.10719" lon="5.30942">
        <ele>250</ele>
        <time>2019-09-12T11:29:26Z</time>
      </trkpt>
      <trkpt lat="47.10711" lon="5.30877">
        <ele>250</ele>
        <time>2019-09-12T11:29:34Z</time>
      </trkpt>
      <trkpt lat="47.10696" lon="5.30796">
        <ele>250</ele>
        <time>2019-09-12T11:29:44Z</time>
      </trkpt>
      <trkpt lat="47.10693" lon="5.3078">
        <ele>250</ele>
        <time>2019-09-12T11:29:46Z</time>
      </trkpt>
      <trkpt lat="47.10681" lon="5.30717">
        <ele>249.80000305176</ele>
        <time>2019-09-12T11:29:54Z</time>
      </trkpt>
      <trkpt lat="47.10671" lon="5.3066">
        <ele>249.60000610352</ele>
        <time>2019-09-12T11:30:01Z</time>
      </trkpt>
      <trkpt lat="47.10654" lon="5.30597">
        <ele>249.60000610352</ele>
        <time>2019-09-12T11:30:09Z</time>
      </trkpt>
      <trkpt lat="47.10635" lon="5.30544">
        <ele>250</ele>
        <time>2019-09-12T11:30:16Z</time>
      </trkpt>
      <trkpt lat="47.1061" lon="5.30485">
        <ele>250</ele>
        <time>2019-09-12T11:30:24Z</time>
      </trkpt>
      <trkpt lat="47.10584" lon="5.30428">
        <ele>250</ele>
        <time>2019-09-12T11:30:32Z</time>
      </trkpt>
      <trkpt lat="47.10554" lon="5.30364">
        <ele>250.19999694824</ele>
        <time>2019-09-12T11:30:41Z</time>
      </trkpt>
      <trkpt lat="47.10523" lon="5.30315">
        <ele>250</ele>
        <time>2019-09-12T11:30:49Z</time>
      </trkpt>
      <trkpt lat="47.10481" lon="5.30269">
        <ele>249.80000305176</ele>
        <time>2019-09-12T11:30:58Z</time>
      </trkpt>
      <trkpt lat="47.1044" lon="5.30235">
        <ele>249.80000305176</ele>
        <time>2019-09-12T11:31:06Z</time>
      </trkpt>
      <trkpt lat="47.10405" lon="5.30203">
        <ele>250</ele>
        <time>2019-09-12T11:31:13Z</time>
      </trkpt>
      <trkpt lat="47.10367" lon="5.30164">
        <ele>250</ele>
        <time>2019-09-12T11:31:21Z</time>
      </trkpt>
      <trkpt lat="47.10324" lon="5.30112">
        <ele>250</ele>
        <time>2019-09-12T11:31:31Z</time>
      </trkpt>
      <trkpt lat="47.10291" lon="5.30072">
        <ele>250.39999389648</ele>
        <time>2019-09-12T11:31:39Z</time>
      </trkpt>
      <trkpt lat="47.1026" lon="5.30028">
        <ele>250.39999389648</ele>
        <time>2019-09-12T11:31:47Z</time>
      </trkpt>
      <trkpt lat="47.10234" lon="5.29986">
        <ele>250.39999389648</ele>
        <time>2019-09-12T11:31:54Z</time>
      </trkpt>
      <trkpt lat="47.10204" lon="5.29924">
        <ele>250.19999694824</ele>
        <time>2019-09-12T11:32:03Z</time>
      </trkpt>
      <trkpt lat="47.10179" lon="5.29859">
        <ele>250</ele>
        <time>2019-09-12T11:32:12Z</time>
      </trkpt>
      <trkpt lat="47.10161" lon="5.29797">
        <ele>250</ele>
        <time>2019-09-12T11:32:20Z</time>
      </trkpt>
      <trkpt lat="47.10148" lon="5.2974">
        <ele>250</ele>
        <time>2019-09-12T11:32:27Z</time>
      </trkpt>
      <trkpt lat="47.10143" lon="5.29689">
        <ele>250</ele>
        <time>2019-09-12T11:32:33Z</time>
      </trkpt>
      <trkpt lat="47.10143" lon="5.29672">
        <ele>250</ele>
        <time>2019-09-12T11:32:35Z</time>
      </trkpt>
      <trkpt lat="47.10143" lon="5.29611">
        <ele>250.19999694824</ele>
        <time>2019-09-12T11:32:42Z</time>
      </trkpt>
      <trkpt lat="47.10144" lon="5.29534">
        <ele>250.39999389648</ele>
        <time>2019-09-12T11:32:51Z</time>
      </trkpt>
      <trkpt lat="47.10141" lon="5.29486">
        <ele>250.39999389648</ele>
        <time>2019-09-12T11:32:57Z</time>
      </trkpt>
      <trkpt lat="47.10141" lon="5.29479">
        <ele>250.39999389648</ele>
        <time>2019-09-12T11:32:58Z</time>
      </trkpt>
      <trkpt lat="47.10143" lon="5.29441">
        <ele>250.39999389648</ele>
        <time>2019-09-12T11:33:03Z</time>
      </trkpt>
      <trkpt lat="47.10145" lon="5.29378">
        <ele>250.19999694824</ele>
        <time>2019-09-12T11:33:11Z</time>
      </trkpt>
      <trkpt lat="47.1015" lon="5.29303">
        <ele>250.39999389648</ele>
        <time>2019-09-12T11:33:20Z</time>
      </trkpt>
      <trkpt lat="47.10156" lon="5.29219">
        <ele>250.39999389648</ele>
        <time>2019-09-12T11:33:30Z</time>
      </trkpt>
      <trkpt lat="47.10163" lon="5.29145">
        <ele>250.19999694824</ele>
        <time>2019-09-12T11:33:39Z</time>
      </trkpt>
      <trkpt lat="47.10169" lon="5.29078">
        <ele>250.19999694824</ele>
        <time>2019-09-12T11:33:47Z</time>
      </trkpt>
      <trkpt lat="47.10178" lon="5.29009">
        <ele>250.39999389648</ele>
        <time>2019-09-12T11:33:55Z</time>
      </trkpt>
      <trkpt lat="47.10189" lon="5.28925">
        <ele>250.39999389648</ele>
        <time>2019-09-12T11:34:05Z</time>
      </trkpt>
      <trkpt lat="47.10197" lon="5.28867">
        <ele>250.39999389648</ele>
        <time>2019-09-12T11:34:12Z</time>
      </trkpt>
      <trkpt lat="47.102" lon="5.28843">
        <ele>250.19999694824</ele>
        <time>2019-09-12T11:34:15Z</time>
      </trkpt>
      <trkpt lat="47.10203" lon="5.28812">
        <ele>250.19999694824</ele>
        <time>2019-09-12T11:34:19Z</time>
      </trkpt>
      <trkpt lat="47.10206" lon="5.28798">
        <ele>250.19999694824</ele>
        <time>2019-09-12T11:34:21Z</time>
      </trkpt>
      <trkpt lat="47.10207" lon="5.28785">
        <ele>250.19999694824</ele>
        <time>2019-09-12T11:34:23Z</time>
      </trkpt>
      <trkpt lat="47.10208" lon="5.28773">
        <ele>250.19999694824</ele>
        <time>2019-09-12T11:34:25Z</time>
      </trkpt>
      <trkpt lat="47.10214" lon="5.2873">
        <ele>250.19999694824</ele>
        <time>2019-09-12T11:34:32Z</time>
      </trkpt>
      <trkpt lat="47.10216" lon="5.28715">
        <ele>250.19999694824</ele>
        <time>2019-09-12T11:34:34Z</time>
      </trkpt>
      <trkpt lat="47.10221" lon="5.28685">
        <ele>250.19999694824</ele>
        <time>2019-09-12T11:34:38Z</time>
      </trkpt>
      <trkpt lat="47.10225" lon="5.28621">
        <ele>250.19999694824</ele>
        <time>2019-09-12T11:34:46Z</time>
      </trkpt>
      <trkpt lat="47.10222" lon="5.28555">
        <ele>250.19999694824</ele>
        <time>2019-09-12T11:34:54Z</time>
      </trkpt>
      <trkpt lat="47.10216" lon="5.28481">
        <ele>250.19999694824</ele>
        <time>2019-09-12T11:35:03Z</time>
      </trkpt>
      <trkpt lat="47.10211" lon="5.28413">
        <ele>250.19999694824</ele>
        <time>2019-09-12T11:35:11Z</time>
      </trkpt>
      <trkpt lat="47.10203" lon="5.28346">
        <ele>250.19999694824</ele>
        <time>2019-09-12T11:35:19Z</time>
      </trkpt>
      <trkpt lat="47.10195" lon="5.28287">
        <ele>250.19999694824</ele>
        <time>2019-09-12T11:35:26Z</time>
      </trkpt>
      <trkpt lat="47.10184" lon="5.28211">
        <ele>249.80000305176</ele>
        <time>2019-09-12T11:35:35Z</time>
      </trkpt>
      <trkpt lat="47.10172" lon="5.28126">
        <ele>249.80000305176</ele>
        <time>2019-09-12T11:35:45Z</time>
      </trkpt>
      <trkpt lat="47.10162" lon="5.28058">
        <ele>250</ele>
        <time>2019-09-12T11:35:53Z</time>
      </trkpt>
      <trkpt lat="47.1015" lon="5.27975">
        <ele>250</ele>
        <time>2019-09-12T11:36:03Z</time>
      </trkpt>
      <trkpt lat="47.10144" lon="5.27937">
        <ele>250</ele>
        <time>2019-09-12T11:36:08Z</time>
      </trkpt>
      <trkpt lat="47.10143" lon="5.27923">
        <ele>250</ele>
        <time>2019-09-12T11:36:10Z</time>
      </trkpt>
      <trkpt lat="47.10135" lon="5.27869">
        <ele>249.80000305176</ele>
        <time>2019-09-12T11:36:17Z</time>
      </trkpt>
      <trkpt lat="47.10124" lon="5.27796">
        <ele>249.60000610352</ele>
        <time>2019-09-12T11:36:26Z</time>
      </trkpt>
      <trkpt lat="47.10106" lon="5.27725">
        <ele>250</ele>
        <time>2019-09-12T11:36:35Z</time>
      </trkpt>
      <trkpt lat="47.10091" lon="5.2767">
        <ele>249.80000305176</ele>
        <time>2019-09-12T11:36:42Z</time>
      </trkpt>
      <trkpt lat="47.1008" lon="5.27597">
        <ele>250.19999694824</ele>
        <time>2019-09-12T11:36:51Z</time>
      </trkpt>
      <trkpt lat="47.10075" lon="5.27544">
        <ele>250.19999694824</ele>
        <time>2019-09-12T11:36:58Z</time>
      </trkpt>
      <trkpt lat="47.10073" lon="5.2753">
        <ele>250.19999694824</ele>
        <time>2019-09-12T11:37:00Z</time>
      </trkpt>
      <trkpt lat="47.10071" lon="5.27503">
        <ele>250</ele>
        <time>2019-09-12T11:37:04Z</time>
      </trkpt>
      <trkpt lat="47.10066" lon="5.27437">
        <ele>250</ele>
        <time>2019-09-12T11:37:13Z</time>
      </trkpt>
      <trkpt lat="47.10059" lon="5.27376">
        <ele>250</ele>
        <time>2019-09-12T11:37:21Z</time>
      </trkpt>
      <trkpt lat="47.10048" lon="5.27306">
        <ele>249.80000305176</ele>
        <time>2019-09-12T11:37:30Z</time>
      </trkpt>
      <trkpt lat="47.10034" lon="5.27249">
        <ele>250</ele>
        <time>2019-09-12T11:37:38Z</time>
      </trkpt>
      <trkpt lat="47.1003" lon="5.27229">
        <ele>250.19999694824</ele>
        <time>2019-09-12T11:37:41Z</time>
      </trkpt>
      <trkpt lat="47.10026" lon="5.27205">
        <ele>250.19999694824</ele>
        <time>2019-09-12T11:37:45Z</time>
      </trkpt>
      <trkpt lat="47.10021" lon="5.27163">
        <ele>250.19999694824</ele>
        <time>2019-09-12T11:37:51Z</time>
      </trkpt>
      <trkpt lat="47.1001" lon="5.27106">
        <ele>250.39999389648</ele>
        <time>2019-09-12T11:37:59Z</time>
      </trkpt>
      <trkpt lat="47.09996" lon="5.27056">
        <ele>250.19999694824</ele>
        <time>2019-09-12T11:38:06Z</time>
      </trkpt>
      <trkpt lat="47.09992" lon="5.27041">
        <ele>250.19999694824</ele>
        <time>2019-09-12T11:38:08Z</time>
      </trkpt>
      <trkpt lat="47.09982" lon="5.27004">
        <ele>250</ele>
        <time>2019-09-12T11:38:13Z</time>
      </trkpt>
      <trkpt lat="47.09966" lon="5.26936">
        <ele>250</ele>
        <time>2019-09-12T11:38:22Z</time>
      </trkpt>
      <trkpt lat="47.09954" lon="5.26875">
        <ele>250</ele>
        <time>2019-09-12T11:38:30Z</time>
      </trkpt>
      <trkpt lat="47.09945" lon="5.26822">
        <ele>250.19999694824</ele>
        <time>2019-09-12T11:38:37Z</time>
      </trkpt>
      <trkpt lat="47.09943" lon="5.26802">
        <ele>250</ele>
        <time>2019-09-12T11:38:40Z</time>
      </trkpt>
      <trkpt lat="47.09941" lon="5.2679">
        <ele>250</ele>
        <time>2019-09-12T11:38:42Z</time>
      </trkpt>
      <trkpt lat="47.09939" lon="5.26777">
        <ele>250</ele>
        <time>2019-09-12T11:38:44Z</time>
      </trkpt>
      <trkpt lat="47.09936" lon="5.26731">
        <ele>250</ele>
        <time>2019-09-12T11:38:51Z</time>
      </trkpt>
      <trkpt lat="47.09935" lon="5.26702">
        <ele>249.80000305176</ele>
        <time>2019-09-12T11:38:55Z</time>
      </trkpt>
      <trkpt lat="47.09935" lon="5.2668">
        <ele>250</ele>
        <time>2019-09-12T11:38:58Z</time>
      </trkpt>
      <trkpt lat="47.09941" lon="5.26612">
        <ele>250</ele>
        <time>2019-09-12T11:39:07Z</time>
      </trkpt>
      <trkpt lat="47.09952" lon="5.26544">
        <ele>250.19999694824</ele>
        <time>2019-09-12T11:39:16Z</time>
      </trkpt>
      <trkpt lat="47.09963" lon="5.26483">
        <ele>250.19999694824</ele>
        <time>2019-09-12T11:39:24Z</time>
      </trkpt>
      <trkpt lat="47.09968" lon="5.26436">
        <ele>250.19999694824</ele>
        <time>2019-09-12T11:39:30Z</time>
      </trkpt>
      <trkpt lat="47.09971" lon="5.26406">
        <ele>250.39999389648</ele>
        <time>2019-09-12T11:39:35Z</time>
      </trkpt>
      <trkpt lat="47.09972" lon="5.26401">
        <ele>250.60000610352</ele>
        <time>2019-09-12T11:39:38Z</time>
      </trkpt>
      <trkpt lat="47.09972" lon="5.26399">
        <ele>251.60000610352</ele>
        <time>2019-09-12T11:40:05Z</time>
      </trkpt>
      <trkpt lat="47.09974" lon="5.26394">
        <ele>251.60000610352</ele>
        <time>2019-09-12T11:40:07Z</time>
      </trkpt>
      <trkpt lat="47.09976" lon="5.26381">
        <ele>251.60000610352</ele>
        <time>2019-09-12T11:40:10Z</time>
      </trkpt>
      <trkpt lat="47.09976" lon="5.26374">
        <ele>251.39999389648</ele>
        <time>2019-09-12T11:40:11Z</time>
      </trkpt>
      <trkpt lat="47.09981" lon="5.26327">
        <ele>251</ele>
        <time>2019-09-12T11:40:17Z</time>
      </trkpt>
      <trkpt lat="47.09982" lon="5.26321">
        <ele>250.60000610352</ele>
        <time>2019-09-12T11:40:18Z</time>
      </trkpt>
      <trkpt lat="47.09985" lon="5.26308">
        <ele>250.19999694824</ele>
        <time>2019-09-12T11:40:20Z</time>
      </trkpt>
      <trkpt lat="47.09986" lon="5.26301">
        <ele>250</ele>
        <time>2019-09-12T11:40:21Z</time>
      </trkpt>
      <trkpt lat="47.09986" lon="5.26295">
        <ele>249.80000305176</ele>
        <time>2019-09-12T11:40:22Z</time>
      </trkpt>
      <trkpt lat="47.09985" lon="5.26269">
        <ele>249.39999389648</ele>
        <time>2019-09-12T11:40:26Z</time>
      </trkpt>
      <trkpt lat="47.09985" lon="5.26263">
        <ele>249.39999389648</ele>
        <time>2019-09-12T11:40:27Z</time>
      </trkpt>
      <trkpt lat="47.09984" lon="5.26232">
        <ele>249.39999389648</ele>
        <time>2019-09-12T11:40:32Z</time>
      </trkpt>
      <trkpt lat="47.09984" lon="5.26221">
        <ele>249.39999389648</ele>
        <time>2019-09-12T11:40:34Z</time>
      </trkpt>
      <trkpt lat="47.09982" lon="5.26197">
        <ele>249.60000610352</ele>
        <time>2019-09-12T11:40:40Z</time>
      </trkpt>
      <trkpt lat="47.09976" lon="5.26187">
        <ele>250.60000610352</ele>
        <time>2019-09-12T11:40:45Z</time>
      </trkpt>
      <trkpt lat="47.09974" lon="5.26186">
        <ele>250.80000305176</ele>
        <time>2019-09-12T11:40:46Z</time>
      </trkpt>
      <trkpt lat="47.09971" lon="5.26185">
        <ele>251</ele>
        <time>2019-09-12T11:40:47Z</time>
      </trkpt>
      <trkpt lat="47.09968" lon="5.26185">
        <ele>251.19999694824</ele>
        <time>2019-09-12T11:40:48Z</time>
      </trkpt>
      <trkpt lat="47.09949" lon="5.26179">
        <ele>251.39999389648</ele>
        <time>2019-09-12T11:40:53Z</time>
      </trkpt>
      <trkpt lat="47.09946" lon="5.26178">
        <ele>251.39999389648</ele>
        <time>2019-09-12T11:40:54Z</time>
      </trkpt>
      <trkpt lat="47.09922" lon="5.26171">
        <ele>251.39999389648</ele>
        <time>2019-09-12T11:41:00Z</time>
      </trkpt>
      <trkpt lat="47.09901" lon="5.26165">
        <ele>251.19999694824</ele>
        <time>2019-09-12T11:41:05Z</time>
      </trkpt>
      <trkpt lat="47.09861" lon="5.26155">
        <ele>251.19999694824</ele>
        <time>2019-09-12T11:41:13Z</time>
      </trkpt>
      <trkpt lat="47.09826" lon="5.26149">
        <ele>251</ele>
        <time>2019-09-12T11:41:20Z</time>
      </trkpt>
      <trkpt lat="47.09802" lon="5.26143">
        <ele>251</ele>
        <time>2019-09-12T11:41:25Z</time>
      </trkpt>
      <trkpt lat="47.09797" lon="5.26142">
        <ele>251</ele>
        <time>2019-09-12T11:41:26Z</time>
      </trkpt>
      <trkpt lat="47.09757" lon="5.26132">
        <ele>251</ele>
        <time>2019-09-12T11:41:34Z</time>
      </trkpt>
      <trkpt lat="47.09717" lon="5.26122">
        <ele>250.80000305176</ele>
        <time>2019-09-12T11:41:42Z</time>
      </trkpt>
      <trkpt lat="47.09687" lon="5.26114">
        <ele>250.80000305176</ele>
        <time>2019-09-12T11:41:48Z</time>
      </trkpt>
      <trkpt lat="47.09647" lon="5.26105">
        <ele>250.60000610352</ele>
        <time>2019-09-12T11:41:56Z</time>
      </trkpt>
      <trkpt lat="47.09607" lon="5.26095">
        <ele>250.60000610352</ele>
        <time>2019-09-12T11:42:04Z</time>
      </trkpt>
      <trkpt lat="47.09573" lon="5.26086">
        <ele>250.60000610352</ele>
        <time>2019-09-12T11:42:11Z</time>
      </trkpt>
      <trkpt lat="47.09563" lon="5.26085">
        <ele>250.60000610352</ele>
        <time>2019-09-12T11:42:13Z</time>
      </trkpt>
      <trkpt lat="47.0955" lon="5.26081">
        <ele>250.60000610352</ele>
        <time>2019-09-12T11:42:16Z</time>
      </trkpt>
      <trkpt lat="47.0954" lon="5.26077">
        <ele>250.60000610352</ele>
        <time>2019-09-12T11:42:19Z</time>
      </trkpt>
      <trkpt lat="47.09536" lon="5.26076">
        <ele>250.60000610352</ele>
        <time>2019-09-12T11:42:20Z</time>
      </trkpt>
      <trkpt lat="47.09509" lon="5.26069">
        <ele>250.60000610352</ele>
        <time>2019-09-12T11:42:26Z</time>
      </trkpt>
      <trkpt lat="47.09472" lon="5.2606">
        <ele>250.60000610352</ele>
        <time>2019-09-12T11:42:33Z</time>
      </trkpt>
      <trkpt lat="47.09437" lon="5.26051">
        <ele>250.39999389648</ele>
        <time>2019-09-12T11:42:40Z</time>
      </trkpt>
      <trkpt lat="47.09403" lon="5.26043">
        <ele>250.39999389648</ele>
        <time>2019-09-12T11:42:47Z</time>
      </trkpt>
      <trkpt lat="47.0939" lon="5.2604">
        <ele>250.39999389648</ele>
        <time>2019-09-12T11:42:50Z</time>
      </trkpt>
      <trkpt lat="47.09381" lon="5.26037">
        <ele>250.60000610352</ele>
        <time>2019-09-12T11:42:52Z</time>
      </trkpt>
      <trkpt lat="47.09348" lon="5.26029">
        <ele>250.60000610352</ele>
        <time>2019-09-12T11:42:59Z</time>
      </trkpt>
      <trkpt lat="47.09339" lon="5.26027">
        <ele>250.60000610352</ele>
        <time>2019-09-12T11:43:01Z</time>
      </trkpt>
      <trkpt lat="47.0932" lon="5.26023">
        <ele>250.60000610352</ele>
        <time>2019-09-12T11:43:05Z</time>
      </trkpt>
      <trkpt lat="47.09287" lon="5.26014">
        <ele>250.60000610352</ele>
        <time>2019-09-12T11:43:12Z</time>
      </trkpt>
      <trkpt lat="47.09252" lon="5.26005">
        <ele>250.60000610352</ele>
        <time>2019-09-12T11:43:19Z</time>
      </trkpt>
      <trkpt lat="47.09204" lon="5.25994">
        <ele>250.39999389648</ele>
        <time>2019-09-12T11:43:29Z</time>
      </trkpt>
      <trkpt lat="47.09171" lon="5.25986">
        <ele>250.39999389648</ele>
        <time>2019-09-12T11:43:36Z</time>
      </trkpt>
      <trkpt lat="47.09158" lon="5.25982">
        <ele>250.19999694824</ele>
        <time>2019-09-12T11:43:39Z</time>
      </trkpt>
      <trkpt lat="47.09142" lon="5.25978">
        <ele>250.19999694824</ele>
        <time>2019-09-12T11:43:43Z</time>
      </trkpt>
      <trkpt lat="47.09107" lon="5.25969">
        <ele>250</ele>
        <time>2019-09-12T11:43:51Z</time>
      </trkpt>
      <trkpt lat="47.09074" lon="5.25961">
        <ele>250</ele>
        <time>2019-09-12T11:43:58Z</time>
      </trkpt>
      <trkpt lat="47.0903" lon="5.25949">
        <ele>249.80000305176</ele>
        <time>2019-09-12T11:44:07Z</time>
      </trkpt>
      <trkpt lat="47.08989" lon="5.25938">
        <ele>250</ele>
        <time>2019-09-12T11:44:15Z</time>
      </trkpt>
      <trkpt lat="47.08954" lon="5.25931">
        <ele>250</ele>
        <time>2019-09-12T11:44:22Z</time>
      </trkpt>
      <trkpt lat="47.08933" lon="5.25928">
        <ele>250</ele>
        <time>2019-09-12T11:44:27Z</time>
      </trkpt>
      <trkpt lat="47.08912" lon="5.25922">
        <ele>250.19999694824</ele>
        <time>2019-09-12T11:44:32Z</time>
      </trkpt>
      <trkpt lat="47.08897" lon="5.25909">
        <ele>250.39999389648</ele>
        <time>2019-09-12T11:44:36Z</time>
      </trkpt>
      <trkpt lat="47.08894" lon="5.25906">
        <ele>250.60000610352</ele>
        <time>2019-09-12T11:44:37Z</time>
      </trkpt>
      <trkpt lat="47.08873" lon="5.25876">
        <ele>251</ele>
        <time>2019-09-12T11:44:44Z</time>
      </trkpt>
      <trkpt lat="47.08864" lon="5.2586">
        <ele>251.39999389648</ele>
        <time>2019-09-12T11:44:49Z</time>
      </trkpt>
      <trkpt lat="47.08861" lon="5.25855">
        <ele>251.60000610352</ele>
        <time>2019-09-12T11:44:51Z</time>
      </trkpt>
      <trkpt lat="47.08855" lon="5.25839">
        <ele>251.80000305176</ele>
        <time>2019-09-12T11:44:55Z</time>
      </trkpt>
      <trkpt lat="47.08841" lon="5.25788">
        <ele>252.39999389648</ele>
        <time>2019-09-12T11:45:04Z</time>
      </trkpt>
      <trkpt lat="47.08839" lon="5.25782">
        <ele>252.60000610352</ele>
        <time>2019-09-12T11:45:05Z</time>
      </trkpt>
      <trkpt lat="47.08822" lon="5.25737">
        <ele>253</ele>
        <time>2019-09-12T11:45:13Z</time>
      </trkpt>
      <trkpt lat="47.08811" lon="5.2571">
        <ele>253.39999389648</ele>
        <time>2019-09-12T11:45:18Z</time>
      </trkpt>
      <trkpt lat="47.08802" lon="5.25697">
        <ele>253.60000610352</ele>
        <time>2019-09-12T11:45:21Z</time>
      </trkpt>
      <trkpt lat="47.08775" lon="5.25664">
        <ele>254.19999694824</ele>
        <time>2019-09-12T11:45:29Z</time>
      </trkpt>
      <trkpt lat="47.08765" lon="5.25652">
        <ele>254.19999694824</ele>
        <time>2019-09-12T11:45:32Z</time>
      </trkpt>
      <trkpt lat="47.08754" lon="5.25641">
        <ele>254.19999694824</ele>
        <time>2019-09-12T11:45:35Z</time>
      </trkpt>
      <trkpt lat="47.08741" lon="5.25627">
        <ele>254.80000305176</ele>
        <time>2019-09-12T11:45:39Z</time>
      </trkpt>
      <trkpt lat="47.08735" lon="5.2562">
        <ele>255</ele>
        <time>2019-09-12T11:45:41Z</time>
      </trkpt>
      <trkpt lat="47.08719" lon="5.25599">
        <ele>255.80000305176</ele>
        <time>2019-09-12T11:45:48Z</time>
      </trkpt>
      <trkpt lat="47.08716" lon="5.25596">
        <ele>256.20001220703</ele>
        <time>2019-09-12T11:45:49Z</time>
      </trkpt>
      <trkpt lat="47.08705" lon="5.25579">
        <ele>257</ele>
        <time>2019-09-12T11:45:54Z</time>
      </trkpt>
      <trkpt lat="47.08701" lon="5.25572">
        <ele>257.39999389648</ele>
        <time>2019-09-12T11:45:56Z</time>
      </trkpt>
      <trkpt lat="47.08687" lon="5.2555">
        <ele>258.20001220703</ele>
        <time>2019-09-12T11:46:02Z</time>
      </trkpt>
      <trkpt lat="47.08683" lon="5.25541">
        <ele>258.39999389648</ele>
        <time>2019-09-12T11:46:04Z</time>
      </trkpt>
      <trkpt lat="47.08664" lon="5.25498">
        <ele>258.79998779297</ele>
        <time>2019-09-12T11:46:13Z</time>
      </trkpt>
      <trkpt lat="47.08651" lon="5.25455">
        <ele>258.79998779297</ele>
        <time>2019-09-12T11:46:20Z</time>
      </trkpt>
      <trkpt lat="47.08636" lon="5.25407">
        <ele>258</ele>
        <time>2019-09-12T11:46:26Z</time>
      </trkpt>
      <trkpt lat="47.08628" lon="5.25378">
        <ele>257.20001220703</ele>
        <time>2019-09-12T11:46:29Z</time>
      </trkpt>
      <trkpt lat="47.08621" lon="5.25353">
        <ele>256.20001220703</ele>
        <time>2019-09-12T11:46:32Z</time>
      </trkpt>
      <trkpt lat="47.08621" lon="5.25346">
        <ele>255.80000305176</ele>
        <time>2019-09-12T11:46:33Z</time>
      </trkpt>
      <trkpt lat="47.08624" lon="5.25334">
        <ele>255.39999389648</ele>
        <time>2019-09-12T11:46:35Z</time>
      </trkpt>
      <trkpt lat="47.08628" lon="5.25327">
        <ele>254.60000610352</ele>
        <time>2019-09-12T11:46:37Z</time>
      </trkpt>
      <trkpt lat="47.08631" lon="5.25327">
        <ele>254.39999389648</ele>
        <time>2019-09-12T11:46:38Z</time>
      </trkpt>
      <trkpt lat="47.08639" lon="5.25336">
        <ele>253.60000610352</ele>
        <time>2019-09-12T11:46:41Z</time>
      </trkpt>
      <trkpt lat="47.08645" lon="5.25343">
        <ele>253</ele>
        <time>2019-09-12T11:46:43Z</time>
      </trkpt>
      <trkpt lat="47.0866" lon="5.25356">
        <ele>252.39999389648</ele>
        <time>2019-09-12T11:46:47Z</time>
      </trkpt>
      <trkpt lat="47.08697" lon="5.25393">
        <ele>252.60000610352</ele>
        <time>2019-09-12T11:46:57Z</time>
      </trkpt>
      <trkpt lat="47.0873" lon="5.25424">
        <ele>252.60000610352</ele>
        <time>2019-09-12T11:47:06Z</time>
      </trkpt>
      <trkpt lat="47.08743" lon="5.25428">
        <ele>252.60000610352</ele>
        <time>2019-09-12T11:47:10Z</time>
      </trkpt>
      <trkpt lat="47.08745" lon="5.25425">
        <ele>252.80000305176</ele>
        <time>2019-09-12T11:47:11Z</time>
      </trkpt>
      <trkpt lat="47.08747" lon="5.2541">
        <ele>252.80000305176</ele>
        <time>2019-09-12T11:47:14Z</time>
      </trkpt>
      <trkpt lat="47.08745" lon="5.25399">
        <ele>252.80000305176</ele>
        <time>2019-09-12T11:47:16Z</time>
      </trkpt>
      <trkpt lat="47.08736" lon="5.25362">
        <ele>252.80000305176</ele>
        <time>2019-09-12T11:47:22Z</time>
      </trkpt>
      <trkpt lat="47.08725" lon="5.2531">
        <ele>252.80000305176</ele>
        <time>2019-09-12T11:47:30Z</time>
      </trkpt>
      <trkpt lat="47.08716" lon="5.25264">
        <ele>252.80000305176</ele>
        <time>2019-09-12T11:47:37Z</time>
      </trkpt>
      <trkpt lat="47.08702" lon="5.25217">
        <ele>252.60000610352</ele>
        <time>2019-09-12T11:47:44Z</time>
      </trkpt>
      <trkpt lat="47.08677" lon="5.25167">
        <ele>252.39999389648</ele>
        <time>2019-09-12T11:47:52Z</time>
      </trkpt>
      <trkpt lat="47.08647" lon="5.25112">
        <ele>252</ele>
        <time>2019-09-12T11:48:01Z</time>
      </trkpt>
      <trkpt lat="47.08615" lon="5.25059">
        <ele>252</ele>
        <time>2019-09-12T11:48:10Z</time>
      </trkpt>
      <trkpt lat="47.08577" lon="5.25">
        <ele>252.39999389648</ele>
        <time>2019-09-12T11:48:20Z</time>
      </trkpt>
      <trkpt lat="47.08538" lon="5.24941">
        <ele>252.60000610352</ele>
        <time>2019-09-12T11:48:30Z</time>
      </trkpt>
      <trkpt lat="47.08498" lon="5.24885">
        <ele>252.80000305176</ele>
        <time>2019-09-12T11:48:40Z</time>
      </trkpt>
      <trkpt lat="47.08456" lon="5.24831">
        <ele>252.80000305176</ele>
        <time>2019-09-12T11:48:50Z</time>
      </trkpt>
      <trkpt lat="47.08425" lon="5.24794">
        <ele>252.80000305176</ele>
        <time>2019-09-12T11:48:57Z</time>
      </trkpt>
      <trkpt lat="47.08396" lon="5.24758">
        <ele>253</ele>
        <time>2019-09-12T11:49:04Z</time>
      </trkpt>
      <trkpt lat="47.08358" lon="5.24711">
        <ele>253.19999694824</ele>
        <time>2019-09-12T11:49:13Z</time>
      </trkpt>
      <trkpt lat="47.08326" lon="5.24663">
        <ele>253</ele>
        <time>2019-09-12T11:49:21Z</time>
      </trkpt>
      <trkpt lat="47.08311" lon="5.24638">
        <ele>252.39999389648</ele>
        <time>2019-09-12T11:49:25Z</time>
      </trkpt>
      <trkpt lat="47.08305" lon="5.24621">
        <ele>252</ele>
        <time>2019-09-12T11:49:27Z</time>
      </trkpt>
      <trkpt lat="47.083" lon="5.24604">
        <ele>251.80000305176</ele>
        <time>2019-09-12T11:49:29Z</time>
      </trkpt>
      <trkpt lat="47.08297" lon="5.24596">
        <ele>251.80000305176</ele>
        <time>2019-09-12T11:49:30Z</time>
      </trkpt>
      <trkpt lat="47.08287" lon="5.24576">
        <ele>251</ele>
        <time>2019-09-12T11:49:33Z</time>
      </trkpt>
      <trkpt lat="47.08284" lon="5.24571">
        <ele>250.80000305176</ele>
        <time>2019-09-12T11:49:34Z</time>
      </trkpt>
      <trkpt lat="47.08272" lon="5.2456">
        <ele>250.60000610352</ele>
        <time>2019-09-12T11:49:37Z</time>
      </trkpt>
      <trkpt lat="47.08248" lon="5.24533">
        <ele>250.60000610352</ele>
        <time>2019-09-12T11:49:44Z</time>
      </trkpt>
      <trkpt lat="47.08222" lon="5.24505">
        <ele>250.80000305176</ele>
        <time>2019-09-12T11:49:51Z</time>
      </trkpt>
      <trkpt lat="47.08201" lon="5.2447">
        <ele>251.39999389648</ele>
        <time>2019-09-12T11:49:58Z</time>
      </trkpt>
      <trkpt lat="47.08179" lon="5.24424">
        <ele>251.60000610352</ele>
        <time>2019-09-12T11:50:06Z</time>
      </trkpt>
      <trkpt lat="47.0816" lon="5.24373">
        <ele>251.60000610352</ele>
        <time>2019-09-12T11:50:14Z</time>
      </trkpt>
      <trkpt lat="47.08145" lon="5.2433">
        <ele>251.60000610352</ele>
        <time>2019-09-12T11:50:21Z</time>
      </trkpt>
      <trkpt lat="47.0814" lon="5.24303">
        <ele>251.39999389648</ele>
        <time>2019-09-12T11:50:25Z</time>
      </trkpt>
      <trkpt lat="47.08138" lon="5.24288">
        <ele>251.39999389648</ele>
        <time>2019-09-12T11:50:27Z</time>
      </trkpt>
      <trkpt lat="47.08136" lon="5.24238">
        <ele>251</ele>
        <time>2019-09-12T11:50:34Z</time>
      </trkpt>
      <trkpt lat="47.08136" lon="5.242">
        <ele>250.60000610352</ele>
        <time>2019-09-12T11:50:40Z</time>
      </trkpt>
      <trkpt lat="47.08134" lon="5.24157">
        <ele>250.39999389648</ele>
        <time>2019-09-12T11:50:47Z</time>
      </trkpt>
      <trkpt lat="47.08133" lon="5.241">
        <ele>250.39999389648</ele>
        <time>2019-09-12T11:50:55Z</time>
      </trkpt>
      <trkpt lat="47.08135" lon="5.24041">
        <ele>250</ele>
        <time>2019-09-12T11:51:03Z</time>
      </trkpt>
      <trkpt lat="47.08142" lon="5.23997">
        <ele>250</ele>
        <time>2019-09-12T11:51:09Z</time>
      </trkpt>
      <trkpt lat="47.08157" lon="5.23941">
        <ele>250</ele>
        <time>2019-09-12T11:51:17Z</time>
      </trkpt>
      <trkpt lat="47.08178" lon="5.23881">
        <ele>250</ele>
        <time>2019-09-12T11:51:26Z</time>
      </trkpt>
      <trkpt lat="47.08205" lon="5.23827">
        <ele>250</ele>
        <time>2019-09-12T11:51:35Z</time>
      </trkpt>
      <trkpt lat="47.0824" lon="5.23774">
        <ele>250.19999694824</ele>
        <time>2019-09-12T11:51:45Z</time>
      </trkpt>
      <trkpt lat="47.08243" lon="5.23769">
        <ele>250.19999694824</ele>
        <time>2019-09-12T11:51:46Z</time>
      </trkpt>
      <trkpt lat="47.08259" lon="5.2374">
        <ele>250</ele>
        <time>2019-09-12T11:51:51Z</time>
      </trkpt>
      <trkpt lat="47.08262" lon="5.23735">
        <ele>250.19999694824</ele>
        <time>2019-09-12T11:51:52Z</time>
      </trkpt>
      <trkpt lat="47.08275" lon="5.23713">
        <ele>250.19999694824</ele>
        <time>2019-09-12T11:51:56Z</time>
      </trkpt>
      <trkpt lat="47.08278" lon="5.23708">
        <ele>250.19999694824</ele>
        <time>2019-09-12T11:51:57Z</time>
      </trkpt>
      <trkpt lat="47.08305" lon="5.23664">
        <ele>250.39999389648</ele>
        <time>2019-09-12T11:52:05Z</time>
      </trkpt>
      <trkpt lat="47.0833" lon="5.2362">
        <ele>250.39999389648</ele>
        <time>2019-09-12T11:52:13Z</time>
      </trkpt>
      <trkpt lat="47.08354" lon="5.23583">
        <ele>250.39999389648</ele>
        <time>2019-09-12T11:52:20Z</time>
      </trkpt>
      <trkpt lat="47.08358" lon="5.23579">
        <ele>250.39999389648</ele>
        <time>2019-09-12T11:52:21Z</time>
      </trkpt>
      <trkpt lat="47.08389" lon="5.23549">
        <ele>250.39999389648</ele>
        <time>2019-09-12T11:52:28Z</time>
      </trkpt>
      <trkpt lat="47.08408" lon="5.23529">
        <ele>250.19999694824</ele>
        <time>2019-09-12T11:52:33Z</time>
      </trkpt>
      <trkpt lat="47.08412" lon="5.23526">
        <ele>250.19999694824</ele>
        <time>2019-09-12T11:52:34Z</time>
      </trkpt>
      <trkpt lat="47.08421" lon="5.23514">
        <ele>250.19999694824</ele>
        <time>2019-09-12T11:52:37Z</time>
      </trkpt>
      <trkpt lat="47.08431" lon="5.23501">
        <ele>250</ele>
        <time>2019-09-12T11:52:40Z</time>
      </trkpt>
      <trkpt lat="47.08456" lon="5.23469">
        <ele>250.39999389648</ele>
        <time>2019-09-12T11:52:47Z</time>
      </trkpt>
      <trkpt lat="47.08477" lon="5.23434">
        <ele>250.19999694824</ele>
        <time>2019-09-12T11:52:55Z</time>
      </trkpt>
      <trkpt lat="47.08478" lon="5.23431">
        <ele>250.19999694824</ele>
        <time>2019-09-12T11:52:58Z</time>
      </trkpt>
      <trkpt lat="47.0848" lon="5.23431">
        <ele>250.19999694824</ele>
        <time>2019-09-12T11:56:23Z</time>
      </trkpt>
      <trkpt lat="47.08485" lon="5.23419">
        <ele>250.19999694824</ele>
        <time>2019-09-12T11:56:29Z</time>
      </trkpt>
      <trkpt lat="47.08497" lon="5.23396">
        <ele>250.19999694824</ele>
        <time>2019-09-12T11:56:36Z</time>
      </trkpt>
      <trkpt lat="47.08511" lon="5.23368">
        <ele>250.19999694824</ele>
        <time>2019-09-12T11:56:42Z</time>
      </trkpt>
      <trkpt lat="47.08532" lon="5.23323">
        <ele>250.39999389648</ele>
        <time>2019-09-12T11:56:50Z</time>
      </trkpt>
      <trkpt lat="47.08541" lon="5.23302">
        <ele>250.60000610352</ele>
        <time>2019-09-12T11:56:54Z</time>
      </trkpt>
      <trkpt lat="47.08549" lon="5.23281">
        <ele>250.60000610352</ele>
        <time>2019-09-12T11:56:57Z</time>
      </trkpt>
      <trkpt lat="47.08555" lon="5.23259">
        <ele>250.60000610352</ele>
        <time>2019-09-12T11:57:00Z</time>
      </trkpt>
      <trkpt lat="47.08557" lon="5.23236">
        <ele>250.60000610352</ele>
        <time>2019-09-12T11:57:03Z</time>
      </trkpt>
      <trkpt lat="47.08557" lon="5.23221">
        <ele>250.60000610352</ele>
        <time>2019-09-12T11:57:05Z</time>
      </trkpt>
      <trkpt lat="47.08554" lon="5.23192">
        <ele>250.39999389648</ele>
        <time>2019-09-12T11:57:09Z</time>
      </trkpt>
      <trkpt lat="47.08553" lon="5.23133">
        <ele>250.39999389648</ele>
        <time>2019-09-12T11:57:17Z</time>
      </trkpt>
      <trkpt lat="47.08546" lon="5.2309">
        <ele>250.39999389648</ele>
        <time>2019-09-12T11:57:23Z</time>
      </trkpt>
      <trkpt lat="47.08528" lon="5.23046">
        <ele>250.39999389648</ele>
        <time>2019-09-12T11:57:30Z</time>
      </trkpt>
      <trkpt lat="47.08506" lon="5.23009">
        <ele>250.19999694824</ele>
        <time>2019-09-12T11:57:37Z</time>
      </trkpt>
      <trkpt lat="47.08493" lon="5.22992">
        <ele>250.19999694824</ele>
        <time>2019-09-12T11:57:41Z</time>
      </trkpt>
      <trkpt lat="47.08486" lon="5.22985">
        <ele>250.19999694824</ele>
        <time>2019-09-12T11:57:43Z</time>
      </trkpt>
      <trkpt lat="47.08466" lon="5.22965">
        <ele>250.19999694824</ele>
        <time>2019-09-12T11:57:48Z</time>
      </trkpt>
      <trkpt lat="47.08455" lon="5.22954">
        <ele>250.19999694824</ele>
        <time>2019-09-12T11:57:51Z</time>
      </trkpt>
      <trkpt lat="47.08445" lon="5.22942">
        <ele>250.39999389648</ele>
        <time>2019-09-12T11:57:54Z</time>
      </trkpt>
      <trkpt lat="47.08423" lon="5.22916">
        <ele>250.39999389648</ele>
        <time>2019-09-12T11:58:01Z</time>
      </trkpt>
      <trkpt lat="47.08394" lon="5.22891">
        <ele>250.60000610352</ele>
        <time>2019-09-12T11:58:07Z</time>
      </trkpt>
      <trkpt lat="47.08357" lon="5.22853">
        <ele>250.60000610352</ele>
        <time>2019-09-12T11:58:15Z</time>
      </trkpt>
      <trkpt lat="47.08312" lon="5.22808">
        <ele>250.39999389648</ele>
        <time>2019-09-12T11:58:25Z</time>
      </trkpt>
      <trkpt lat="47.08281" lon="5.22778">
        <ele>250.39999389648</ele>
        <time>2019-09-12T11:58:32Z</time>
      </trkpt>
      <trkpt lat="47.08253" lon="5.22747">
        <ele>250.60000610352</ele>
        <time>2019-09-12T11:58:39Z</time>
      </trkpt>
      <trkpt lat="47.08219" lon="5.227">
        <ele>250.80000305176</ele>
        <time>2019-09-12T11:58:48Z</time>
      </trkpt>
      <trkpt lat="47.08189" lon="5.22651">
        <ele>250.80000305176</ele>
        <time>2019-09-12T11:58:57Z</time>
      </trkpt>
      <trkpt lat="47.08167" lon="5.22612">
        <ele>250.80000305176</ele>
        <time>2019-09-12T11:59:04Z</time>
      </trkpt>
      <trkpt lat="47.08149" lon="5.22577">
        <ele>250.80000305176</ele>
        <time>2019-09-12T11:59:10Z</time>
      </trkpt>
      <trkpt lat="47.08122" lon="5.2253">
        <ele>250.80000305176</ele>
        <time>2019-09-12T11:59:18Z</time>
      </trkpt>
      <trkpt lat="47.08104" lon="5.22503">
        <ele>250.60000610352</ele>
        <time>2019-09-12T11:59:23Z</time>
      </trkpt>
      <trkpt lat="47.08097" lon="5.22491">
        <ele>250.60000610352</ele>
        <time>2019-09-12T11:59:25Z</time>
      </trkpt>
      <trkpt lat="47.08068" lon="5.22439">
        <ele>250.60000610352</ele>
        <time>2019-09-12T11:59:34Z</time>
      </trkpt>
      <trkpt lat="47.08044" lon="5.22392">
        <ele>250.60000610352</ele>
        <time>2019-09-12T11:59:42Z</time>
      </trkpt>
      <trkpt lat="47.08023" lon="5.2234">
        <ele>250.60000610352</ele>
        <time>2019-09-12T11:59:50Z</time>
      </trkpt>
      <trkpt lat="47.08001" lon="5.2228">
        <ele>250.60000610352</ele>
        <time>2019-09-12T11:59:59Z</time>
      </trkpt>
      <trkpt lat="47.07979" lon="5.22213">
        <ele>250.60000610352</ele>
        <time>2019-09-12T12:00:09Z</time>
      </trkpt>
      <trkpt lat="47.0796" lon="5.22146">
        <ele>250.80000305176</ele>
        <time>2019-09-12T12:00:19Z</time>
      </trkpt>
      <trkpt lat="47.07947" lon="5.22084">
        <ele>250.80000305176</ele>
        <time>2019-09-12T12:00:28Z</time>
      </trkpt>
      <trkpt lat="47.07934" lon="5.2202">
        <ele>250.60000610352</ele>
        <time>2019-09-12T12:00:37Z</time>
      </trkpt>
      <trkpt lat="47.07924" lon="5.21954">
        <ele>250.60000610352</ele>
        <time>2019-09-12T12:00:46Z</time>
      </trkpt>
      <trkpt lat="47.07916" lon="5.21896">
        <ele>250.39999389648</ele>
        <time>2019-09-12T12:00:54Z</time>
      </trkpt>
      <trkpt lat="47.07912" lon="5.21838">
        <ele>250.39999389648</ele>
        <time>2019-09-12T12:01:02Z</time>
      </trkpt>
      <trkpt lat="47.07911" lon="5.21778">
        <ele>250.60000610352</ele>
        <time>2019-09-12T12:01:10Z</time>
      </trkpt>
      <trkpt lat="47.0791" lon="5.21726">
        <ele>250.39999389648</ele>
        <time>2019-09-12T12:01:17Z</time>
      </trkpt>
      <trkpt lat="47.07907" lon="5.21643">
        <ele>250.39999389648</ele>
        <time>2019-09-12T12:01:28Z</time>
      </trkpt>
      <trkpt lat="47.07907" lon="5.21636">
        <ele>250.39999389648</ele>
        <time>2019-09-12T12:01:29Z</time>
      </trkpt>
      <trkpt lat="47.07903" lon="5.21561">
        <ele>250.60000610352</ele>
        <time>2019-09-12T12:01:39Z</time>
      </trkpt>
      <trkpt lat="47.07901" lon="5.21516">
        <ele>250.60000610352</ele>
        <time>2019-09-12T12:01:45Z</time>
      </trkpt>
      <trkpt lat="47.07898" lon="5.21501">
        <ele>251</ele>
        <time>2019-09-12T12:01:47Z</time>
      </trkpt>
      <trkpt lat="47.07895" lon="5.21487">
        <ele>251</ele>
        <time>2019-09-12T12:01:49Z</time>
      </trkpt>
      <trkpt lat="47.07884" lon="5.21438">
        <ele>250.80000305176</ele>
        <time>2019-09-12T12:01:56Z</time>
      </trkpt>
      <trkpt lat="47.07865" lon="5.21378">
        <ele>250.80000305176</ele>
        <time>2019-09-12T12:02:05Z</time>
      </trkpt>
      <trkpt lat="47.07863" lon="5.21373">
        <ele>250.80000305176</ele>
        <time>2019-09-12T12:02:06Z</time>
      </trkpt>
      <trkpt lat="47.0785" lon="5.21344">
        <ele>250.80000305176</ele>
        <time>2019-09-12T12:02:11Z</time>
      </trkpt>
      <trkpt lat="47.07826" lon="5.21306">
        <ele>250.80000305176</ele>
        <time>2019-09-12T12:02:18Z</time>
      </trkpt>
      <trkpt lat="47.07799" lon="5.21264">
        <ele>250.60000610352</ele>
        <time>2019-09-12T12:02:25Z</time>
      </trkpt>
      <trkpt lat="47.07795" lon="5.21259">
        <ele>250.60000610352</ele>
        <time>2019-09-12T12:02:27Z</time>
      </trkpt>
      <trkpt lat="47.07777" lon="5.21232">
        <ele>250.60000610352</ele>
        <time>2019-09-12T12:02:32Z</time>
      </trkpt>
      <trkpt lat="47.07752" lon="5.21196">
        <ele>250.60000610352</ele>
        <time>2019-09-12T12:02:39Z</time>
      </trkpt>
      <trkpt lat="47.0772" lon="5.21149">
        <ele>250.39999389648</ele>
        <time>2019-09-12T12:02:48Z</time>
      </trkpt>
      <trkpt lat="47.07695" lon="5.21112">
        <ele>250.60000610352</ele>
        <time>2019-09-12T12:02:55Z</time>
      </trkpt>
      <trkpt lat="47.07667" lon="5.21071">
        <ele>250.19999694824</ele>
        <time>2019-09-12T12:03:03Z</time>
      </trkpt>
      <trkpt lat="47.07649" lon="5.21043">
        <ele>250.19999694824</ele>
        <time>2019-09-12T12:03:08Z</time>
      </trkpt>
      <trkpt lat="47.07644" lon="5.2103">
        <ele>250.19999694824</ele>
        <time>2019-09-12T12:03:10Z</time>
      </trkpt>
      <trkpt lat="47.07623" lon="5.20963">
        <ele>250.39999389648</ele>
        <time>2019-09-12T12:03:20Z</time>
      </trkpt>
      <trkpt lat="47.07621" lon="5.20957">
        <ele>250.39999389648</ele>
        <time>2019-09-12T12:03:21Z</time>
      </trkpt>
      <trkpt lat="47.07608" lon="5.20916">
        <ele>250.19999694824</ele>
        <time>2019-09-12T12:03:27Z</time>
      </trkpt>
      <trkpt lat="47.07605" lon="5.20909">
        <ele>250.19999694824</ele>
        <time>2019-09-12T12:03:28Z</time>
      </trkpt>
      <trkpt lat="47.07582" lon="5.20842">
        <ele>250.19999694824</ele>
        <time>2019-09-12T12:03:38Z</time>
      </trkpt>
      <trkpt lat="47.07564" lon="5.2081">
        <ele>250.19999694824</ele>
        <time>2019-09-12T12:03:44Z</time>
      </trkpt>
      <trkpt lat="47.0754" lon="5.20778">
        <ele>250</ele>
        <time>2019-09-12T12:03:51Z</time>
      </trkpt>
      <trkpt lat="47.07509" lon="5.20731">
        <ele>250.39999389648</ele>
        <time>2019-09-12T12:04:00Z</time>
      </trkpt>
      <trkpt lat="47.07482" lon="5.20699">
        <ele>250.39999389648</ele>
        <time>2019-09-12T12:04:07Z</time>
      </trkpt>
      <trkpt lat="47.07452" lon="5.20672">
        <ele>250.39999389648</ele>
        <time>2019-09-12T12:04:14Z</time>
      </trkpt>
      <trkpt lat="47.07448" lon="5.20668">
        <ele>250.39999389648</ele>
        <time>2019-09-12T12:04:15Z</time>
      </trkpt>
      <trkpt lat="47.07416" lon="5.20638">
        <ele>250.39999389648</ele>
        <time>2019-09-12T12:04:23Z</time>
      </trkpt>
      <trkpt lat="47.07385" lon="5.20607">
        <ele>250.39999389648</ele>
        <time>2019-09-12T12:04:31Z</time>
      </trkpt>
      <trkpt lat="47.07348" lon="5.20571">
        <ele>250.39999389648</ele>
        <time>2019-09-12T12:04:40Z</time>
      </trkpt>
      <trkpt lat="47.07327" lon="5.20552">
        <ele>250.60000610352</ele>
        <time>2019-09-12T12:04:45Z</time>
      </trkpt>
      <trkpt lat="47.07319" lon="5.20544">
        <ele>250.80000305176</ele>
        <time>2019-09-12T12:04:47Z</time>
      </trkpt>
      <trkpt lat="47.0729" lon="5.20516">
        <ele>250.80000305176</ele>
        <time>2019-09-12T12:04:54Z</time>
      </trkpt>
      <trkpt lat="47.0726" lon="5.20487">
        <ele>250.60000610352</ele>
        <time>2019-09-12T12:05:01Z</time>
      </trkpt>
      <trkpt lat="47.07237" lon="5.20462">
        <ele>250.60000610352</ele>
        <time>2019-09-12T12:05:07Z</time>
      </trkpt>
      <trkpt lat="47.07203" lon="5.20423">
        <ele>251</ele>
        <time>2019-09-12T12:05:16Z</time>
      </trkpt>
      <trkpt lat="47.07179" lon="5.20397">
        <ele>251.39999389648</ele>
        <time>2019-09-12T12:05:23Z</time>
      </trkpt>
      <trkpt lat="47.07163" lon="5.20379">
        <ele>251.80000305176</ele>
        <time>2019-09-12T12:05:28Z</time>
      </trkpt>
      <trkpt lat="47.07155" lon="5.20371">
        <ele>251.80000305176</ele>
        <time>2019-09-12T12:05:30Z</time>
      </trkpt>
      <trkpt lat="47.07119" lon="5.20335">
        <ele>252</ele>
        <time>2019-09-12T12:05:39Z</time>
      </trkpt>
      <trkpt lat="47.07072" lon="5.2029">
        <ele>252.19999694824</ele>
        <time>2019-09-12T12:05:50Z</time>
      </trkpt>
      <trkpt lat="47.0703" lon="5.2025">
        <ele>252.39999389648</ele>
        <time>2019-09-12T12:06:00Z</time>
      </trkpt>
      <trkpt lat="47.06997" lon="5.20218">
        <ele>252.19999694824</ele>
        <time>2019-09-12T12:06:08Z</time>
      </trkpt>
      <trkpt lat="47.06959" lon="5.20182">
        <ele>252.19999694824</ele>
        <time>2019-09-12T12:06:17Z</time>
      </trkpt>
      <trkpt lat="47.06922" lon="5.20146">
        <ele>252.19999694824</ele>
        <time>2019-09-12T12:06:26Z</time>
      </trkpt>
      <trkpt lat="47.06881" lon="5.20106">
        <ele>252.19999694824</ele>
        <time>2019-09-12T12:06:36Z</time>
      </trkpt>
      <trkpt lat="47.06847" lon="5.20073">
        <ele>252.19999694824</ele>
        <time>2019-09-12T12:06:44Z</time>
      </trkpt>
      <trkpt lat="47.06813" lon="5.20041">
        <ele>252.39999389648</ele>
        <time>2019-09-12T12:06:52Z</time>
      </trkpt>
      <trkpt lat="47.06783" lon="5.20011">
        <ele>252.60000610352</ele>
        <time>2019-09-12T12:06:59Z</time>
      </trkpt>
      <trkpt lat="47.06753" lon="5.19983">
        <ele>252.39999389648</ele>
        <time>2019-09-12T12:07:06Z</time>
      </trkpt>
      <trkpt lat="47.06716" lon="5.19946">
        <ele>252.60000610352</ele>
        <time>2019-09-12T12:07:15Z</time>
      </trkpt>
      <trkpt lat="47.06691" lon="5.19921">
        <ele>252.60000610352</ele>
        <time>2019-09-12T12:07:22Z</time>
      </trkpt>
      <trkpt lat="47.06666" lon="5.19899">
        <ele>252.60000610352</ele>
        <time>2019-09-12T12:07:29Z</time>
      </trkpt>
      <trkpt lat="47.06636" lon="5.19878">
        <ele>252.60000610352</ele>
        <time>2019-09-12T12:07:36Z</time>
      </trkpt>
      <trkpt lat="47.06608" lon="5.19853">
        <ele>252.60000610352</ele>
        <time>2019-09-12T12:07:43Z</time>
      </trkpt>
      <trkpt lat="47.06567" lon="5.19814">
        <ele>252.60000610352</ele>
        <time>2019-09-12T12:07:53Z</time>
      </trkpt>
      <trkpt lat="47.06521" lon="5.19771">
        <ele>252.60000610352</ele>
        <time>2019-09-12T12:08:04Z</time>
      </trkpt>
      <trkpt lat="47.06517" lon="5.19767">
        <ele>252.60000610352</ele>
        <time>2019-09-12T12:08:05Z</time>
      </trkpt>
      <trkpt lat="47.06478" lon="5.19726">
        <ele>252.60000610352</ele>
        <time>2019-09-12T12:08:15Z</time>
      </trkpt>
      <trkpt lat="47.06445" lon="5.19693">
        <ele>252.60000610352</ele>
        <time>2019-09-12T12:08:23Z</time>
      </trkpt>
      <trkpt lat="47.06418" lon="5.19662">
        <ele>252.60000610352</ele>
        <time>2019-09-12T12:08:30Z</time>
      </trkpt>
      <trkpt lat="47.06386" lon="5.19629">
        <ele>252.60000610352</ele>
        <time>2019-09-12T12:08:38Z</time>
      </trkpt>
      <trkpt lat="47.06349" lon="5.19595">
        <ele>252.80000305176</ele>
        <time>2019-09-12T12:08:47Z</time>
      </trkpt>
      <trkpt lat="47.06341" lon="5.19587">
        <ele>252.80000305176</ele>
        <time>2019-09-12T12:08:49Z</time>
      </trkpt>
      <trkpt lat="47.06312" lon="5.19558">
        <ele>252.60000610352</ele>
        <time>2019-09-12T12:08:56Z</time>
      </trkpt>
      <trkpt lat="47.06279" lon="5.19526">
        <ele>252.39999389648</ele>
        <time>2019-09-12T12:09:04Z</time>
      </trkpt>
      <trkpt lat="47.06249" lon="5.19498">
        <ele>252.60000610352</ele>
        <time>2019-09-12T12:09:11Z</time>
      </trkpt>
      <trkpt lat="47.0622" lon="5.1947">
        <ele>252.60000610352</ele>
        <time>2019-09-12T12:09:18Z</time>
      </trkpt>
      <trkpt lat="47.06179" lon="5.19428">
        <ele>252.60000610352</ele>
        <time>2019-09-12T12:09:28Z</time>
      </trkpt>
      <trkpt lat="47.06146" lon="5.19397">
        <ele>252.39999389648</ele>
        <time>2019-09-12T12:09:36Z</time>
      </trkpt>
      <trkpt lat="47.06142" lon="5.19394">
        <ele>252.39999389648</ele>
        <time>2019-09-12T12:09:37Z</time>
      </trkpt>
      <trkpt lat="47.06115" lon="5.19367">
        <ele>252.19999694824</ele>
        <time>2019-09-12T12:09:44Z</time>
      </trkpt>
      <trkpt lat="47.06074" lon="5.19327">
        <ele>252.19999694824</ele>
        <time>2019-09-12T12:09:54Z</time>
      </trkpt>
      <trkpt lat="47.06036" lon="5.1929">
        <ele>252.19999694824</ele>
        <time>2019-09-12T12:10:03Z</time>
      </trkpt>
      <trkpt lat="47.0599" lon="5.19246">
        <ele>252.19999694824</ele>
        <time>2019-09-12T12:10:14Z</time>
      </trkpt>
      <trkpt lat="47.05986" lon="5.19242">
        <ele>252.19999694824</ele>
        <time>2019-09-12T12:10:15Z</time>
      </trkpt>
      <trkpt lat="47.05965" lon="5.19223">
        <ele>252.19999694824</ele>
        <time>2019-09-12T12:10:20Z</time>
      </trkpt>
      <trkpt lat="47.05957" lon="5.19215">
        <ele>252.19999694824</ele>
        <time>2019-09-12T12:10:22Z</time>
      </trkpt>
      <trkpt lat="47.05942" lon="5.192">
        <ele>252.19999694824</ele>
        <time>2019-09-12T12:10:26Z</time>
      </trkpt>
      <trkpt lat="47.05935" lon="5.19193">
        <ele>252.19999694824</ele>
        <time>2019-09-12T12:10:28Z</time>
      </trkpt>
      <trkpt lat="47.05928" lon="5.19185">
        <ele>252.19999694824</ele>
        <time>2019-09-12T12:10:30Z</time>
      </trkpt>
      <trkpt lat="47.05908" lon="5.19165">
        <ele>252.19999694824</ele>
        <time>2019-09-12T12:10:35Z</time>
      </trkpt>
      <trkpt lat="47.0587" lon="5.19128">
        <ele>252.39999389648</ele>
        <time>2019-09-12T12:10:44Z</time>
      </trkpt>
      <trkpt lat="47.05836" lon="5.19095">
        <ele>252.60000610352</ele>
        <time>2019-09-12T12:10:52Z</time>
      </trkpt>
      <trkpt lat="47.05807" lon="5.19066">
        <ele>252.60000610352</ele>
        <time>2019-09-12T12:10:59Z</time>
      </trkpt>
      <trkpt lat="47.05781" lon="5.19041">
        <ele>252.39999389648</ele>
        <time>2019-09-12T12:11:05Z</time>
      </trkpt>
      <trkpt lat="47.05758" lon="5.19018">
        <ele>252.39999389648</ele>
        <time>2019-09-12T12:11:11Z</time>
      </trkpt>
      <trkpt lat="47.05746" lon="5.19005">
        <ele>252.39999389648</ele>
        <time>2019-09-12T12:11:14Z</time>
      </trkpt>
      <trkpt lat="47.05733" lon="5.18992">
        <ele>252.39999389648</ele>
        <time>2019-09-12T12:11:17Z</time>
      </trkpt>
      <trkpt lat="47.05691" lon="5.1895">
        <ele>252.39999389648</ele>
        <time>2019-09-12T12:11:27Z</time>
      </trkpt>
      <trkpt lat="47.05659" lon="5.18916">
        <ele>252.39999389648</ele>
        <time>2019-09-12T12:11:35Z</time>
      </trkpt>
      <trkpt lat="47.05626" lon="5.18882">
        <ele>252.80000305176</ele>
        <time>2019-09-12T12:11:43Z</time>
      </trkpt>
      <trkpt lat="47.05593" lon="5.1885">
        <ele>253</ele>
        <time>2019-09-12T12:11:51Z</time>
      </trkpt>
      <trkpt lat="47.05585" lon="5.18842">
        <ele>253</ele>
        <time>2019-09-12T12:11:53Z</time>
      </trkpt>
      <trkpt lat="47.05569" lon="5.18824">
        <ele>253</ele>
        <time>2019-09-12T12:11:57Z</time>
      </trkpt>
      <trkpt lat="47.05536" lon="5.1879">
        <ele>253</ele>
        <time>2019-09-12T12:12:05Z</time>
      </trkpt>
      <trkpt lat="47.05502" lon="5.18756">
        <ele>252.80000305176</ele>
        <time>2019-09-12T12:12:13Z</time>
      </trkpt>
      <trkpt lat="47.05477" lon="5.18734">
        <ele>252.60000610352</ele>
        <time>2019-09-12T12:12:19Z</time>
      </trkpt>
      <trkpt lat="47.05457" lon="5.18722">
        <ele>252.60000610352</ele>
        <time>2019-09-12T12:12:24Z</time>
      </trkpt>
      <trkpt lat="47.05442" lon="5.18731">
        <ele>252.39999389648</ele>
        <time>2019-09-12T12:12:28Z</time>
      </trkpt>
      <trkpt lat="47.05439" lon="5.18734">
        <ele>252.19999694824</ele>
        <time>2019-09-12T12:12:29Z</time>
      </trkpt>
      <trkpt lat="47.05421" lon="5.18755">
        <ele>252.19999694824</ele>
        <time>2019-09-12T12:12:35Z</time>
      </trkpt>
      <trkpt lat="47.05399" lon="5.18775">
        <ele>252</ele>
        <time>2019-09-12T12:12:41Z</time>
      </trkpt>
      <trkpt lat="47.05366" lon="5.18806">
        <ele>251.80000305176</ele>
        <time>2019-09-12T12:12:49Z</time>
      </trkpt>
      <trkpt lat="47.05336" lon="5.18832">
        <ele>251.80000305176</ele>
        <time>2019-09-12T12:12:56Z</time>
      </trkpt>
      <trkpt lat="47.05298" lon="5.18849">
        <ele>252</ele>
        <time>2019-09-12T12:13:04Z</time>
      </trkpt>
      <trkpt lat="47.05264" lon="5.18863">
        <ele>252.39999389648</ele>
        <time>2019-09-12T12:13:12Z</time>
      </trkpt>
      <trkpt lat="47.05246" lon="5.18871">
        <ele>253</ele>
        <time>2019-09-12T12:13:17Z</time>
      </trkpt>
      <trkpt lat="47.05246" lon="5.18863">
        <ele>253</ele>
        <time>2019-09-12T12:13:19Z</time>
      </trkpt>
      <trkpt lat="47.05252" lon="5.18856">
        <ele>253</ele>
        <time>2019-09-12T12:13:22Z</time>
      </trkpt>
      <trkpt lat="47.05252" lon="5.18855">
        <ele>253</ele>
        <time>2019-09-12T12:13:23Z</time>
      </trkpt>
      <trkpt lat="47.05252" lon="5.18855">
        <ele>253</ele>
        <time>2019-09-12T12:13:24Z</time>
      </trkpt>
      <trkpt lat="47.05254" lon="5.18854">
        <ele>253</ele>
        <time>2019-09-12T12:13:29Z</time>
      </trkpt>
      <trkpt lat="47.05257" lon="5.18849">
        <ele>253</ele>
        <time>2019-09-12T12:13:31Z</time>
      </trkpt>
      <trkpt lat="47.05273" lon="5.18831">
        <ele>252.80000305176</ele>
        <time>2019-09-12T12:13:36Z</time>
      </trkpt>
      <trkpt lat="47.05303" lon="5.18797">
        <ele>252.80000305176</ele>
        <time>2019-09-12T12:13:44Z</time>
      </trkpt>
      <trkpt lat="47.05332" lon="5.18766">
        <ele>253.19999694824</ele>
        <time>2019-09-12T12:13:52Z</time>
      </trkpt>
      <trkpt lat="47.05354" lon="5.18741">
        <ele>253.60000610352</ele>
        <time>2019-09-12T12:13:59Z</time>
      </trkpt>
      <trkpt lat="47.05357" lon="5.18738">
        <ele>253.80000305176</ele>
        <time>2019-09-12T12:14:00Z</time>
      </trkpt>
      <trkpt lat="47.05379" lon="5.18714">
        <ele>254.80000305176</ele>
        <time>2019-09-12T12:14:08Z</time>
      </trkpt>
      <trkpt lat="47.05391" lon="5.187">
        <ele>256</ele>
        <time>2019-09-12T12:14:13Z</time>
      </trkpt>
      <trkpt lat="47.05396" lon="5.18695">
        <ele>256.20001220703</ele>
        <time>2019-09-12T12:14:15Z</time>
      </trkpt>
      <trkpt lat="47.05411" lon="5.18678">
        <ele>257</ele>
        <time>2019-09-12T12:14:21Z</time>
      </trkpt>
      <trkpt lat="47.05421" lon="5.18666">
        <ele>257.60000610352</ele>
        <time>2019-09-12T12:14:25Z</time>
      </trkpt>
      <trkpt lat="47.05434" lon="5.18652">
        <ele>258</ele>
        <time>2019-09-12T12:14:30Z</time>
      </trkpt>
      <trkpt lat="47.05442" lon="5.18644">
        <ele>258.39999389648</ele>
        <time>2019-09-12T12:14:33Z</time>
      </trkpt>
      <trkpt lat="47.0547" lon="5.18612">
        <ele>258.60000610352</ele>
        <time>2019-09-12T12:14:42Z</time>
      </trkpt>
      <trkpt lat="47.05498" lon="5.18581">
        <ele>258.39999389648</ele>
        <time>2019-09-12T12:14:49Z</time>
      </trkpt>
      <trkpt lat="47.05537" lon="5.18538">
        <ele>257.60000610352</ele>
        <time>2019-09-12T12:14:57Z</time>
      </trkpt>
      <trkpt lat="47.05548" lon="5.18525">
        <ele>257.20001220703</ele>
        <time>2019-09-12T12:14:59Z</time>
      </trkpt>
      <trkpt lat="47.05553" lon="5.18517">
        <ele>257</ele>
        <time>2019-09-12T12:15:00Z</time>
      </trkpt>
      <trkpt lat="47.05564" lon="5.18506">
        <ele>256.39999389648</ele>
        <time>2019-09-12T12:15:02Z</time>
      </trkpt>
      <trkpt lat="47.05568" lon="5.18504">
        <ele>256</ele>
        <time>2019-09-12T12:15:03Z</time>
      </trkpt>
      <trkpt lat="47.05572" lon="5.18505">
        <ele>255.60000610352</ele>
        <time>2019-09-12T12:15:04Z</time>
      </trkpt>
      <trkpt lat="47.05574" lon="5.18509">
        <ele>255.39999389648</ele>
        <time>2019-09-12T12:15:05Z</time>
      </trkpt>
      <trkpt lat="47.05568" lon="5.18525">
        <ele>254.60000610352</ele>
        <time>2019-09-12T12:15:08Z</time>
      </trkpt>
      <trkpt lat="47.05565" lon="5.18529">
        <ele>254.39999389648</ele>
        <time>2019-09-12T12:15:09Z</time>
      </trkpt>
      <trkpt lat="47.05549" lon="5.18558">
        <ele>253.60000610352</ele>
        <time>2019-09-12T12:15:14Z</time>
      </trkpt>
      <trkpt lat="47.05524" lon="5.18608">
        <ele>253</ele>
        <time>2019-09-12T12:15:22Z</time>
      </trkpt>
      <trkpt lat="47.0551" lon="5.18635">
        <ele>252.39999389648</ele>
        <time>2019-09-12T12:15:27Z</time>
      </trkpt>
      <trkpt lat="47.05506" lon="5.18638">
        <ele>252.39999389648</ele>
        <time>2019-09-12T12:15:28Z</time>
      </trkpt>
      <trkpt lat="47.05499" lon="5.1864">
        <ele>252.19999694824</ele>
        <time>2019-09-12T12:15:30Z</time>
      </trkpt>
      <trkpt lat="47.05496" lon="5.18638">
        <ele>252.19999694824</ele>
        <time>2019-09-12T12:15:31Z</time>
      </trkpt>
      <trkpt lat="47.05489" lon="5.1863">
        <ele>252.19999694824</ele>
        <time>2019-09-12T12:15:33Z</time>
      </trkpt>
      <trkpt lat="47.05475" lon="5.18613">
        <ele>252.19999694824</ele>
        <time>2019-09-12T12:15:37Z</time>
      </trkpt>
      <trkpt lat="47.05458" lon="5.18595">
        <ele>252.19999694824</ele>
        <time>2019-09-12T12:15:42Z</time>
      </trkpt>
      <trkpt lat="47.05447" lon="5.18582">
        <ele>252.19999694824</ele>
        <time>2019-09-12T12:15:47Z</time>
      </trkpt>
      <trkpt lat="47.05438" lon="5.18571">
        <ele>252.39999389648</ele>
        <time>2019-09-12T12:15:53Z</time>
      </trkpt>
      <trkpt lat="47.05438" lon="5.18571">
        <ele>252.39999389648</ele>
        <time>2019-09-12T12:15:54Z</time>
      </trkpt>
      <trkpt lat="47.0544" lon="5.18573">
        <ele>251.80000305176</ele>
        <time>2019-09-12T12:18:54Z</time>
      </trkpt>
      <trkpt lat="47.05441" lon="5.18573">
        <ele>251.80000305176</ele>
        <time>2019-09-12T12:18:55Z</time>
      </trkpt>
      <trkpt lat="47.05443" lon="5.18576">
        <ele>251.80000305176</ele>
        <time>2019-09-12T12:18:57Z</time>
      </trkpt>
      <trkpt lat="47.05457" lon="5.18591">
        <ele>251.60000610352</ele>
        <time>2019-09-12T12:19:04Z</time>
      </trkpt>
      <trkpt lat="47.05473" lon="5.18606">
        <ele>251.60000610352</ele>
        <time>2019-09-12T12:19:10Z</time>
      </trkpt>
      <trkpt lat="47.05488" lon="5.18624">
        <ele>251.60000610352</ele>
        <time>2019-09-12T12:19:16Z</time>
      </trkpt>
      <trkpt lat="47.05502" lon="5.18636">
        <ele>251.80000305176</ele>
        <time>2019-09-12T12:19:21Z</time>
      </trkpt>
      <trkpt lat="47.05512" lon="5.18641">
        <ele>251.80000305176</ele>
        <time>2019-09-12T12:19:26Z</time>
      </trkpt>
      <trkpt lat="47.05513" lon="5.18642">
        <ele>251.60000610352</ele>
        <time>2019-09-12T12:19:28Z</time>
      </trkpt>
      <trkpt lat="47.05515" lon="5.18644">
        <ele>252</ele>
        <time>2019-09-12T12:20:11Z</time>
      </trkpt>
      <trkpt lat="47.05517" lon="5.18645">
        <ele>252</ele>
        <time>2019-09-12T12:20:12Z</time>
      </trkpt>
      <trkpt lat="47.05525" lon="5.18662">
        <ele>251.60000610352</ele>
        <time>2019-09-12T12:20:17Z</time>
      </trkpt>
      <trkpt lat="47.05531" lon="5.1867">
        <ele>251.60000610352</ele>
        <time>2019-09-12T12:20:19Z</time>
      </trkpt>
      <trkpt lat="47.05542" lon="5.18682">
        <ele>251.60000610352</ele>
        <time>2019-09-12T12:20:22Z</time>
      </trkpt>
      <trkpt lat="47.05573" lon="5.18715">
        <ele>251.80000305176</ele>
        <time>2019-09-12T12:20:30Z</time>
      </trkpt>
      <trkpt lat="47.05577" lon="5.18719">
        <ele>251.80000305176</ele>
        <time>2019-09-12T12:20:31Z</time>
      </trkpt>
      <trkpt lat="47.05598" lon="5.18741">
        <ele>251.80000305176</ele>
        <time>2019-09-12T12:20:36Z</time>
      </trkpt>
      <trkpt lat="47.05626" lon="5.18771">
        <ele>252</ele>
        <time>2019-09-12T12:20:43Z</time>
      </trkpt>
      <trkpt lat="47.05671" lon="5.18817">
        <ele>252</ele>
        <time>2019-09-12T12:20:54Z</time>
      </trkpt>
      <trkpt lat="47.05703" lon="5.1885">
        <ele>252.19999694824</ele>
        <time>2019-09-12T12:21:02Z</time>
      </trkpt>
      <trkpt lat="47.05743" lon="5.18892">
        <ele>252.19999694824</ele>
        <time>2019-09-12T12:21:12Z</time>
      </trkpt>
      <trkpt lat="47.05784" lon="5.18933">
        <ele>252.19999694824</ele>
        <time>2019-09-12T12:21:22Z</time>
      </trkpt>
      <trkpt lat="47.05817" lon="5.18968">
        <ele>252.19999694824</ele>
        <time>2019-09-12T12:21:30Z</time>
      </trkpt>
      <trkpt lat="47.05858" lon="5.19009">
        <ele>252.19999694824</ele>
        <time>2019-09-12T12:21:40Z</time>
      </trkpt>
      <trkpt lat="47.059" lon="5.1905">
        <ele>252.19999694824</ele>
        <time>2019-09-12T12:21:50Z</time>
      </trkpt>
      <trkpt lat="47.05937" lon="5.19087">
        <ele>252.60000610352</ele>
        <time>2019-09-12T12:21:59Z</time>
      </trkpt>
      <trkpt lat="47.05975" lon="5.19124">
        <ele>252.60000610352</ele>
        <time>2019-09-12T12:22:08Z</time>
      </trkpt>
      <trkpt lat="47.06013" lon="5.19161">
        <ele>252.60000610352</ele>
        <time>2019-09-12T12:22:17Z</time>
      </trkpt>
      <trkpt lat="47.06026" lon="5.19173">
        <ele>252.60000610352</ele>
        <time>2019-09-12T12:22:20Z</time>
      </trkpt>
      <trkpt lat="47.06039" lon="5.19187">
        <ele>252.60000610352</ele>
        <time>2019-09-12T12:22:23Z</time>
      </trkpt>
      <trkpt lat="47.06077" lon="5.19223">
        <ele>252.60000610352</ele>
        <time>2019-09-12T12:22:32Z</time>
      </trkpt>
      <trkpt lat="47.06116" lon="5.19261">
        <ele>252.60000610352</ele>
        <time>2019-09-12T12:22:41Z</time>
      </trkpt>
      <trkpt lat="47.06145" lon="5.19291">
        <ele>252.80000305176</ele>
        <time>2019-09-12T12:22:48Z</time>
      </trkpt>
      <trkpt lat="47.06183" lon="5.19328">
        <ele>252.80000305176</ele>
        <time>2019-09-12T12:22:57Z</time>
      </trkpt>
      <trkpt lat="47.06212" lon="5.19356">
        <ele>253</ele>
        <time>2019-09-12T12:23:04Z</time>
      </trkpt>
      <trkpt lat="47.0625" lon="5.19393">
        <ele>252.80000305176</ele>
        <time>2019-09-12T12:23:13Z</time>
      </trkpt>
      <trkpt lat="47.06288" lon="5.19429">
        <ele>252.60000610352</ele>
        <time>2019-09-12T12:23:22Z</time>
      </trkpt>
      <trkpt lat="47.06326" lon="5.19465">
        <ele>252.80000305176</ele>
        <time>2019-09-12T12:23:31Z</time>
      </trkpt>
      <trkpt lat="47.06339" lon="5.19477">
        <ele>252.60000610352</ele>
        <time>2019-09-12T12:23:34Z</time>
      </trkpt>
      <trkpt lat="47.06357" lon="5.19487">
        <ele>252.60000610352</ele>
        <time>2019-09-12T12:23:38Z</time>
      </trkpt>
      <trkpt lat="47.06366" lon="5.1948">
        <ele>252.60000610352</ele>
        <time>2019-09-12T12:23:41Z</time>
      </trkpt>
      <trkpt lat="47.06368" lon="5.19464">
        <ele>252.39999389648</ele>
        <time>2019-09-12T12:23:44Z</time>
      </trkpt>
      <trkpt lat="47.06366" lon="5.19451">
        <ele>252.39999389648</ele>
        <time>2019-09-12T12:23:46Z</time>
      </trkpt>
      <trkpt lat="47.06366" lon="5.19444">
        <ele>252.39999389648</ele>
        <time>2019-09-12T12:23:47Z</time>
      </trkpt>
      <trkpt lat="47.06364" lon="5.19423">
        <ele>252.19999694824</ele>
        <time>2019-09-12T12:23:50Z</time>
      </trkpt>
      <trkpt lat="47.06364" lon="5.19416">
        <ele>252.19999694824</ele>
        <time>2019-09-12T12:23:51Z</time>
      </trkpt>
      <trkpt lat="47.06365" lon="5.19372">
        <ele>252</ele>
        <time>2019-09-12T12:23:57Z</time>
      </trkpt>
      <trkpt lat="47.06367" lon="5.19306">
        <ele>251.60000610352</ele>
        <time>2019-09-12T12:24:05Z</time>
      </trkpt>
      <trkpt lat="47.06368" lon="5.19297">
        <ele>251.60000610352</ele>
        <time>2019-09-12T12:24:06Z</time>
      </trkpt>
      <trkpt lat="47.06372" lon="5.19216">
        <ele>250.80000305176</ele>
        <time>2019-09-12T12:24:16Z</time>
      </trkpt>
      <trkpt lat="47.06378" lon="5.19147">
        <ele>250.60000610352</ele>
        <time>2019-09-12T12:24:24Z</time>
      </trkpt>
      <trkpt lat="47.0638" lon="5.1913">
        <ele>250.60000610352</ele>
        <time>2019-09-12T12:24:26Z</time>
      </trkpt>
      <trkpt lat="47.06383" lon="5.19114">
        <ele>250.39999389648</ele>
        <time>2019-09-12T12:24:28Z</time>
      </trkpt>
      <trkpt lat="47.06388" lon="5.1909">
        <ele>250.39999389648</ele>
        <time>2019-09-12T12:24:31Z</time>
      </trkpt>
      <trkpt lat="47.064" lon="5.19032">
        <ele>250.39999389648</ele>
        <time>2019-09-12T12:24:38Z</time>
      </trkpt>
      <trkpt lat="47.06415" lon="5.18969">
        <ele>250.39999389648</ele>
        <time>2019-09-12T12:24:46Z</time>
      </trkpt>
      <trkpt lat="47.06428" lon="5.189">
        <ele>250.39999389648</ele>
        <time>2019-09-12T12:24:55Z</time>
      </trkpt>
      <trkpt lat="47.06436" lon="5.18844">
        <ele>250.19999694824</ele>
        <time>2019-09-12T12:25:02Z</time>
      </trkpt>
      <trkpt lat="47.06444" lon="5.18779">
        <ele>250.19999694824</ele>
        <time>2019-09-12T12:25:10Z</time>
      </trkpt>
      <trkpt lat="47.06449" lon="5.18725">
        <ele>250.39999389648</ele>
        <time>2019-09-12T12:25:17Z</time>
      </trkpt>
      <trkpt lat="47.06452" lon="5.18662">
        <ele>250.19999694824</ele>
        <time>2019-09-12T12:25:25Z</time>
      </trkpt>
      <trkpt lat="47.06455" lon="5.18603">
        <ele>250.19999694824</ele>
        <time>2019-09-12T12:25:33Z</time>
      </trkpt>
      <trkpt lat="47.06456" lon="5.18573">
        <ele>250.19999694824</ele>
        <time>2019-09-12T12:25:38Z</time>
      </trkpt>
      <trkpt lat="47.06457" lon="5.18567">
        <ele>250.19999694824</ele>
        <time>2019-09-12T12:25:39Z</time>
      </trkpt>
      <trkpt lat="47.06457" lon="5.18553">
        <ele>250.39999389648</ele>
        <time>2019-09-12T12:25:41Z</time>
      </trkpt>
      <trkpt lat="47.06457" lon="5.18515">
        <ele>250.39999389648</ele>
        <time>2019-09-12T12:25:46Z</time>
      </trkpt>
      <trkpt lat="47.06451" lon="5.18462">
        <ele>250.39999389648</ele>
        <time>2019-09-12T12:25:53Z</time>
      </trkpt>
      <trkpt lat="47.06439" lon="5.18389">
        <ele>250.39999389648</ele>
        <time>2019-09-12T12:26:02Z</time>
      </trkpt>
      <trkpt lat="47.06428" lon="5.18315">
        <ele>250.19999694824</ele>
        <time>2019-09-12T12:26:11Z</time>
      </trkpt>
      <trkpt lat="47.06419" lon="5.1826">
        <ele>250</ele>
        <time>2019-09-12T12:26:18Z</time>
      </trkpt>
      <trkpt lat="47.06412" lon="5.18205">
        <ele>250.19999694824</ele>
        <time>2019-09-12T12:26:25Z</time>
      </trkpt>
      <trkpt lat="47.0641" lon="5.18198">
        <ele>250.19999694824</ele>
        <time>2019-09-12T12:26:26Z</time>
      </trkpt>
      <trkpt lat="47.06401" lon="5.18156">
        <ele>250.39999389648</ele>
        <time>2019-09-12T12:26:32Z</time>
      </trkpt>
      <trkpt lat="47.06396" lon="5.18123">
        <ele>250.39999389648</ele>
        <time>2019-09-12T12:26:36Z</time>
      </trkpt>
      <trkpt lat="47.06387" lon="5.18047">
        <ele>250.39999389648</ele>
        <time>2019-09-12T12:26:45Z</time>
      </trkpt>
      <trkpt lat="47.06376" lon="5.17965">
        <ele>250.39999389648</ele>
        <time>2019-09-12T12:26:55Z</time>
      </trkpt>
      <trkpt lat="47.06371" lon="5.17923">
        <ele>250.60000610352</ele>
        <time>2019-09-12T12:27:00Z</time>
      </trkpt>
      <trkpt lat="47.0637" lon="5.17915">
        <ele>250.60000610352</ele>
        <time>2019-09-12T12:27:01Z</time>
      </trkpt>
      <trkpt lat="47.06363" lon="5.17858">
        <ele>250.60000610352</ele>
        <time>2019-09-12T12:27:08Z</time>
      </trkpt>
      <trkpt lat="47.06361" lon="5.17843">
        <ele>250.60000610352</ele>
        <time>2019-09-12T12:27:10Z</time>
      </trkpt>
      <trkpt lat="47.06357" lon="5.17811">
        <ele>250.60000610352</ele>
        <time>2019-09-12T12:27:14Z</time>
      </trkpt>
      <trkpt lat="47.06347" lon="5.17747">
        <ele>250.60000610352</ele>
        <time>2019-09-12T12:27:22Z</time>
      </trkpt>
      <trkpt lat="47.06337" lon="5.17678">
        <ele>250.39999389648</ele>
        <time>2019-09-12T12:27:31Z</time>
      </trkpt>
      <trkpt lat="47.0633" lon="5.17632">
        <ele>250.39999389648</ele>
        <time>2019-09-12T12:27:38Z</time>
      </trkpt>
      <trkpt lat="47.06321" lon="5.17604">
        <ele>250.19999694824</ele>
        <time>2019-09-12T12:27:44Z</time>
      </trkpt>
      <trkpt lat="47.06308" lon="5.17598">
        <ele>250</ele>
        <time>2019-09-12T12:27:48Z</time>
      </trkpt>
      <trkpt lat="47.063" lon="5.17594">
        <ele>250</ele>
        <time>2019-09-12T12:27:50Z</time>
      </trkpt>
      <trkpt lat="47.06283" lon="5.1759">
        <ele>250.39999389648</ele>
        <time>2019-09-12T12:27:54Z</time>
      </trkpt>
      <trkpt lat="47.06262" lon="5.17582">
        <ele>250.80000305176</ele>
        <time>2019-09-12T12:28:00Z</time>
      </trkpt>
      <trkpt lat="47.06255" lon="5.17583">
        <ele>251</ele>
        <time>2019-09-12T12:28:02Z</time>
      </trkpt>
      <trkpt lat="47.06249" lon="5.17589">
        <ele>251</ele>
        <time>2019-09-12T12:28:04Z</time>
      </trkpt>
      <trkpt lat="47.06237" lon="5.17615">
        <ele>251.80000305176</ele>
        <time>2019-09-12T12:28:10Z</time>
      </trkpt>
      <trkpt lat="47.06235" lon="5.1762">
        <ele>252</ele>
        <time>2019-09-12T12:28:11Z</time>
      </trkpt>
      <trkpt lat="47.06223" lon="5.17643">
        <ele>252.19999694824</ele>
        <time>2019-09-12T12:28:16Z</time>
      </trkpt>
      <trkpt lat="47.06212" lon="5.17655">
        <ele>252.39999389648</ele>
        <time>2019-09-12T12:28:20Z</time>
      </trkpt>
      <trkpt lat="47.06208" lon="5.17654">
        <ele>252.39999389648</ele>
        <time>2019-09-12T12:28:21Z</time>
      </trkpt>
      <trkpt lat="47.06187" lon="5.17642">
        <ele>252.60000610352</ele>
        <time>2019-09-12T12:28:27Z</time>
      </trkpt>
      <trkpt lat="47.06171" lon="5.17633">
        <ele>252.39999389648</ele>
        <time>2019-09-12T12:28:33Z</time>
      </trkpt>
      <trkpt lat="47.06169" lon="5.17633">
        <ele>252.39999389648</ele>
        <time>2019-09-12T12:28:34Z</time>
      </trkpt>
      <trkpt lat="47.06164" lon="5.17639">
        <ele>252.39999389648</ele>
        <time>2019-09-12T12:28:36Z</time>
      </trkpt>
      <trkpt lat="47.06152" lon="5.17653">
        <ele>252.39999389648</ele>
        <time>2019-09-12T12:28:41Z</time>
      </trkpt>
      <trkpt lat="47.06145" lon="5.17649">
        <ele>252.39999389648</ele>
        <time>2019-09-12T12:28:43Z</time>
      </trkpt>
      <trkpt lat="47.06133" lon="5.17641">
        <ele>252.39999389648</ele>
        <time>2019-09-12T12:28:46Z</time>
      </trkpt>
      <trkpt lat="47.06101" lon="5.17615">
        <ele>252.39999389648</ele>
        <time>2019-09-12T12:28:54Z</time>
      </trkpt>
      <trkpt lat="47.06093" lon="5.17609">
        <ele>252.39999389648</ele>
        <time>2019-09-12T12:28:56Z</time>
      </trkpt>
      <trkpt lat="47.06089" lon="5.17601">
        <ele>252.39999389648</ele>
        <time>2019-09-12T12:28:58Z</time>
      </trkpt>
      <trkpt lat="47.06093" lon="5.17586">
        <ele>252.39999389648</ele>
        <time>2019-09-12T12:29:02Z</time>
      </trkpt>
      <trkpt lat="47.06102" lon="5.17564">
        <ele>252.19999694824</ele>
        <time>2019-09-12T12:29:07Z</time>
      </trkpt>
      <trkpt lat="47.06113" lon="5.17524">
        <ele>252.39999389648</ele>
        <time>2019-09-12T12:29:14Z</time>
      </trkpt>
      <trkpt lat="47.06127" lon="5.17475">
        <ele>252.60000610352</ele>
        <time>2019-09-12T12:29:22Z</time>
      </trkpt>
      <trkpt lat="47.06131" lon="5.17464">
        <ele>252.60000610352</ele>
        <time>2019-09-12T12:29:24Z</time>
      </trkpt>
      <trkpt lat="47.06139" lon="5.17448">
        <ele>252.80000305176</ele>
        <time>2019-09-12T12:29:27Z</time>
      </trkpt>
      <trkpt lat="47.06141" lon="5.17443">
        <ele>252.80000305176</ele>
        <time>2019-09-12T12:29:28Z</time>
      </trkpt>
      <trkpt lat="47.06165" lon="5.17398">
        <ele>253</ele>
        <time>2019-09-12T12:29:37Z</time>
      </trkpt>
      <trkpt lat="47.06169" lon="5.1739">
        <ele>253.19999694824</ele>
        <time>2019-09-12T12:29:39Z</time>
      </trkpt>
      <trkpt lat="47.06176" lon="5.17374">
        <ele>253.39999389648</ele>
        <time>2019-09-12T12:29:43Z</time>
      </trkpt>
      <trkpt lat="47.06185" lon="5.17357">
        <ele>253.60000610352</ele>
        <time>2019-09-12T12:29:47Z</time>
      </trkpt>
      <trkpt lat="47.06188" lon="5.17345">
        <ele>253.60000610352</ele>
        <time>2019-09-12T12:29:49Z</time>
      </trkpt>
      <trkpt lat="47.06202" lon="5.17288">
        <ele>253.80000305176</ele>
        <time>2019-09-12T12:29:58Z</time>
      </trkpt>
      <trkpt lat="47.06208" lon="5.17259">
        <ele>253.60000610352</ele>
        <time>2019-09-12T12:30:02Z</time>
      </trkpt>
      <trkpt lat="47.06211" lon="5.17244">
        <ele>253.60000610352</ele>
        <time>2019-09-12T12:30:04Z</time>
      </trkpt>
      <trkpt lat="47.06217" lon="5.17223">
        <ele>253.60000610352</ele>
        <time>2019-09-12T12:30:07Z</time>
      </trkpt>
      <trkpt lat="47.06227" lon="5.17196">
        <ele>253.39999389648</ele>
        <time>2019-09-12T12:30:11Z</time>
      </trkpt>
      <trkpt lat="47.06229" lon="5.1719">
        <ele>253.39999389648</ele>
        <time>2019-09-12T12:30:12Z</time>
      </trkpt>
      <trkpt lat="47.06236" lon="5.17172">
        <ele>253.19999694824</ele>
        <time>2019-09-12T12:30:15Z</time>
      </trkpt>
      <trkpt lat="47.06239" lon="5.17168">
        <ele>253.19999694824</ele>
        <time>2019-09-12T12:30:16Z</time>
      </trkpt>
      <trkpt lat="47.06245" lon="5.17152">
        <ele>252.80000305176</ele>
        <time>2019-09-12T12:30:20Z</time>
      </trkpt>
      <trkpt lat="47.06239" lon="5.17139">
        <ele>252.60000610352</ele>
        <time>2019-09-12T12:30:23Z</time>
      </trkpt>
      <trkpt lat="47.06236" lon="5.17135">
        <ele>252.39999389648</ele>
        <time>2019-09-12T12:30:24Z</time>
      </trkpt>
      <trkpt lat="47.06233" lon="5.1713">
        <ele>252.39999389648</ele>
        <time>2019-09-12T12:30:25Z</time>
      </trkpt>
      <trkpt lat="47.06219" lon="5.1711">
        <ele>252.39999389648</ele>
        <time>2019-09-12T12:30:29Z</time>
      </trkpt>
      <trkpt lat="47.06188" lon="5.17066">
        <ele>252.19999694824</ele>
        <time>2019-09-12T12:30:37Z</time>
      </trkpt>
      <trkpt lat="47.06179" lon="5.17055">
        <ele>252</ele>
        <time>2019-09-12T12:30:39Z</time>
      </trkpt>
      <trkpt lat="47.06152" lon="5.17014">
        <ele>251.60000610352</ele>
        <time>2019-09-12T12:30:46Z</time>
      </trkpt>
      <trkpt lat="47.06145" lon="5.17001">
        <ele>251.60000610352</ele>
        <time>2019-09-12T12:30:48Z</time>
      </trkpt>
      <trkpt lat="47.06139" lon="5.16978">
        <ele>251.60000610352</ele>
        <time>2019-09-12T12:30:51Z</time>
      </trkpt>
      <trkpt lat="47.06138" lon="5.1697">
        <ele>251.60000610352</ele>
        <time>2019-09-12T12:30:52Z</time>
      </trkpt>
      <trkpt lat="47.06133" lon="5.16911">
        <ele>251.39999389648</ele>
        <time>2019-09-12T12:30:59Z</time>
      </trkpt>
      <trkpt lat="47.06127" lon="5.1683">
        <ele>251.39999389648</ele>
        <time>2019-09-12T12:31:09Z</time>
      </trkpt>
      <trkpt lat="47.06126" lon="5.16815">
        <ele>251.39999389648</ele>
        <time>2019-09-12T12:31:11Z</time>
      </trkpt>
      <trkpt lat="47.0612" lon="5.1674">
        <ele>251.60000610352</ele>
        <time>2019-09-12T12:31:21Z</time>
      </trkpt>
      <trkpt lat="47.06114" lon="5.16674">
        <ele>251.60000610352</ele>
        <time>2019-09-12T12:31:30Z</time>
      </trkpt>
      <trkpt lat="47.06109" lon="5.16615">
        <ele>251.39999389648</ele>
        <time>2019-09-12T12:31:38Z</time>
      </trkpt>
      <trkpt lat="47.06103" lon="5.16557">
        <ele>251.19999694824</ele>
        <time>2019-09-12T12:31:46Z</time>
      </trkpt>
      <trkpt lat="47.06102" lon="5.16549">
        <ele>251.19999694824</ele>
        <time>2019-09-12T12:31:47Z</time>
      </trkpt>
      <trkpt lat="47.06097" lon="5.16483">
        <ele>251</ele>
        <time>2019-09-12T12:31:56Z</time>
      </trkpt>
      <trkpt lat="47.06092" lon="5.16416">
        <ele>251</ele>
        <time>2019-09-12T12:32:05Z</time>
      </trkpt>
      <trkpt lat="47.06089" lon="5.16344">
        <ele>251</ele>
        <time>2019-09-12T12:32:14Z</time>
      </trkpt>
      <trkpt lat="47.06086" lon="5.16287">
        <ele>251</ele>
        <time>2019-09-12T12:32:21Z</time>
      </trkpt>
      <trkpt lat="47.06077" lon="5.16232">
        <ele>251.19999694824</ele>
        <time>2019-09-12T12:32:28Z</time>
      </trkpt>
      <trkpt lat="47.06062" lon="5.16177">
        <ele>251</ele>
        <time>2019-09-12T12:32:35Z</time>
      </trkpt>
      <trkpt lat="47.06047" lon="5.16096">
        <ele>251</ele>
        <time>2019-09-12T12:32:45Z</time>
      </trkpt>
      <trkpt lat="47.06041" lon="5.16047">
        <ele>251</ele>
        <time>2019-09-12T12:32:51Z</time>
      </trkpt>
      <trkpt lat="47.06037" lon="5.1598">
        <ele>251</ele>
        <time>2019-09-12T12:32:59Z</time>
      </trkpt>
      <trkpt lat="47.06037" lon="5.15915">
        <ele>251</ele>
        <time>2019-09-12T12:33:07Z</time>
      </trkpt>
      <trkpt lat="47.06043" lon="5.15838">
        <ele>251.19999694824</ele>
        <time>2019-09-12T12:33:17Z</time>
      </trkpt>
      <trkpt lat="47.06055" lon="5.15792">
        <ele>251.19999694824</ele>
        <time>2019-09-12T12:33:24Z</time>
      </trkpt>
      <trkpt lat="47.06067" lon="5.15753">
        <ele>251.19999694824</ele>
        <time>2019-09-12T12:33:30Z</time>
      </trkpt>
      <trkpt lat="47.06088" lon="5.15682">
        <ele>251.39999389648</ele>
        <time>2019-09-12T12:33:40Z</time>
      </trkpt>
      <trkpt lat="47.06103" lon="5.15631">
        <ele>251.39999389648</ele>
        <time>2019-09-12T12:33:47Z</time>
      </trkpt>
      <trkpt lat="47.06125" lon="5.15556">
        <ele>251.39999389648</ele>
        <time>2019-09-12T12:33:57Z</time>
      </trkpt>
      <trkpt lat="47.0613" lon="5.15541">
        <ele>251.19999694824</ele>
        <time>2019-09-12T12:33:59Z</time>
      </trkpt>
      <trkpt lat="47.06148" lon="5.15482">
        <ele>251.19999694824</ele>
        <time>2019-09-12T12:34:07Z</time>
      </trkpt>
      <trkpt lat="47.06164" lon="5.15431">
        <ele>251</ele>
        <time>2019-09-12T12:34:14Z</time>
      </trkpt>
      <trkpt lat="47.06182" lon="5.15372">
        <ele>251</ele>
        <time>2019-09-12T12:34:22Z</time>
      </trkpt>
      <trkpt lat="47.06198" lon="5.1532">
        <ele>251</ele>
        <time>2019-09-12T12:34:29Z</time>
      </trkpt>
      <trkpt lat="47.0622" lon="5.15265">
        <ele>251</ele>
        <time>2019-09-12T12:34:37Z</time>
      </trkpt>
      <trkpt lat="47.06242" lon="5.15224">
        <ele>251</ele>
        <time>2019-09-12T12:34:44Z</time>
      </trkpt>
      <trkpt lat="47.06266" lon="5.15198">
        <ele>251.19999694824</ele>
        <time>2019-09-12T12:34:50Z</time>
      </trkpt>
      <trkpt lat="47.06273" lon="5.15188">
        <ele>251.19999694824</ele>
        <time>2019-09-12T12:34:52Z</time>
      </trkpt>
      <trkpt lat="47.06284" lon="5.15164">
        <ele>251</ele>
        <time>2019-09-12T12:34:56Z</time>
      </trkpt>
      <trkpt lat="47.06305" lon="5.15114">
        <ele>251</ele>
        <time>2019-09-12T12:35:04Z</time>
      </trkpt>
      <trkpt lat="47.06313" lon="5.1508">
        <ele>251</ele>
        <time>2019-09-12T12:35:09Z</time>
      </trkpt>
      <trkpt lat="47.06313" lon="5.15065">
        <ele>251</ele>
        <time>2019-09-12T12:35:11Z</time>
      </trkpt>
      <trkpt lat="47.0631" lon="5.15012">
        <ele>251</ele>
        <time>2019-09-12T12:35:18Z</time>
      </trkpt>
      <trkpt lat="47.063" lon="5.14957">
        <ele>251</ele>
        <time>2019-09-12T12:35:25Z</time>
      </trkpt>
      <trkpt lat="47.06298" lon="5.14949">
        <ele>251</ele>
        <time>2019-09-12T12:35:26Z</time>
      </trkpt>
      <trkpt lat="47.06295" lon="5.14901">
        <ele>251</ele>
        <time>2019-09-12T12:35:32Z</time>
      </trkpt>
      <trkpt lat="47.06301" lon="5.14845">
        <ele>251</ele>
        <time>2019-09-12T12:35:39Z</time>
      </trkpt>
      <trkpt lat="47.06309" lon="5.14802">
        <ele>251.19999694824</ele>
        <time>2019-09-12T12:35:45Z</time>
      </trkpt>
      <trkpt lat="47.06321" lon="5.14753">
        <ele>251.19999694824</ele>
        <time>2019-09-12T12:35:52Z</time>
      </trkpt>
      <trkpt lat="47.06333" lon="5.14705">
        <ele>251</ele>
        <time>2019-09-12T12:35:59Z</time>
      </trkpt>
      <trkpt lat="47.06334" lon="5.14698">
        <ele>250.80000305176</ele>
        <time>2019-09-12T12:36:00Z</time>
      </trkpt>
      <trkpt lat="47.06337" lon="5.14663">
        <ele>250.60000610352</ele>
        <time>2019-09-12T12:36:05Z</time>
      </trkpt>
      <trkpt lat="47.0633" lon="5.14619">
        <ele>250.60000610352</ele>
        <time>2019-09-12T12:36:11Z</time>
      </trkpt>
      <trkpt lat="47.0632" lon="5.14575">
        <ele>250.39999389648</ele>
        <time>2019-09-12T12:36:18Z</time>
      </trkpt>
      <trkpt lat="47.06318" lon="5.14549">
        <ele>250.80000305176</ele>
        <time>2019-09-12T12:36:24Z</time>
      </trkpt>
      <trkpt lat="47.06311" lon="5.14529">
        <ele>251.60000610352</ele>
        <time>2019-09-12T12:36:29Z</time>
      </trkpt>
      <trkpt lat="47.06307" lon="5.14522">
        <ele>252.19999694824</ele>
        <time>2019-09-12T12:36:31Z</time>
      </trkpt>
      <trkpt lat="47.06297" lon="5.14509">
        <ele>252.39999389648</ele>
        <time>2019-09-12T12:36:34Z</time>
      </trkpt>
      <trkpt lat="47.06276" lon="5.14483">
        <ele>252.39999389648</ele>
        <time>2019-09-12T12:36:39Z</time>
      </trkpt>
      <trkpt lat="47.06256" lon="5.14469">
        <ele>252</ele>
        <time>2019-09-12T12:36:43Z</time>
      </trkpt>
      <trkpt lat="47.06247" lon="5.14465">
        <ele>251.39999389648</ele>
        <time>2019-09-12T12:36:45Z</time>
      </trkpt>
      <trkpt lat="47.06237" lon="5.14461">
        <ele>251</ele>
        <time>2019-09-12T12:36:47Z</time>
      </trkpt>
      <trkpt lat="47.06207" lon="5.14451">
        <ele>250.80000305176</ele>
        <time>2019-09-12T12:36:53Z</time>
      </trkpt>
      <trkpt lat="47.06162" lon="5.14427">
        <ele>250.60000610352</ele>
        <time>2019-09-12T12:37:02Z</time>
      </trkpt>
      <trkpt lat="47.06123" lon="5.14398">
        <ele>250.80000305176</ele>
        <time>2019-09-12T12:37:10Z</time>
      </trkpt>
      <trkpt lat="47.06085" lon="5.14365">
        <ele>250.80000305176</ele>
        <time>2019-09-12T12:37:18Z</time>
      </trkpt>
      <trkpt lat="47.06049" lon="5.14338">
        <ele>251</ele>
        <time>2019-09-12T12:37:26Z</time>
      </trkpt>
      <trkpt lat="47.06013" lon="5.14315">
        <ele>251.39999389648</ele>
        <time>2019-09-12T12:37:34Z</time>
      </trkpt>
      <trkpt lat="47.05974" lon="5.1429">
        <ele>251.60000610352</ele>
        <time>2019-09-12T12:37:42Z</time>
      </trkpt>
      <trkpt lat="47.05926" lon="5.14254">
        <ele>251.60000610352</ele>
        <time>2019-09-12T12:37:52Z</time>
      </trkpt>
      <trkpt lat="47.05888" lon="5.14226">
        <ele>251.80000305176</ele>
        <time>2019-09-12T12:38:00Z</time>
      </trkpt>
      <trkpt lat="47.05853" lon="5.14201">
        <ele>252</ele>
        <time>2019-09-12T12:38:07Z</time>
      </trkpt>
      <trkpt lat="47.05825" lon="5.14183">
        <ele>252</ele>
        <time>2019-09-12T12:38:13Z</time>
      </trkpt>
      <trkpt lat="47.0582" lon="5.14181">
        <ele>252</ele>
        <time>2019-09-12T12:38:14Z</time>
      </trkpt>
      <trkpt lat="47.05792" lon="5.14164">
        <ele>251.60000610352</ele>
        <time>2019-09-12T12:38:21Z</time>
      </trkpt>
      <trkpt lat="47.05768" lon="5.14153">
        <ele>251.60000610352</ele>
        <time>2019-09-12T12:38:26Z</time>
      </trkpt>
      <trkpt lat="47.05763" lon="5.14151">
        <ele>251.60000610352</ele>
        <time>2019-09-12T12:38:27Z</time>
      </trkpt>
      <trkpt lat="47.05727" lon="5.14137">
        <ele>251.39999389648</ele>
        <time>2019-09-12T12:38:34Z</time>
      </trkpt>
      <trkpt lat="47.05695" lon="5.14126">
        <ele>251.19999694824</ele>
        <time>2019-09-12T12:38:40Z</time>
      </trkpt>
      <trkpt lat="47.05647" lon="5.14105">
        <ele>251.19999694824</ele>
        <time>2019-09-12T12:38:49Z</time>
      </trkpt>
      <trkpt lat="47.05595" lon="5.14083">
        <ele>251.39999389648</ele>
        <time>2019-09-12T12:38:59Z</time>
      </trkpt>
      <trkpt lat="47.05558" lon="5.14068">
        <ele>251.39999389648</ele>
        <time>2019-09-12T12:39:06Z</time>
      </trkpt>
      <trkpt lat="47.05532" lon="5.14048">
        <ele>251.39999389648</ele>
        <time>2019-09-12T12:39:11Z</time>
      </trkpt>
      <trkpt lat="47.05519" lon="5.14033">
        <ele>251.19999694824</ele>
        <time>2019-09-12T12:39:14Z</time>
      </trkpt>
      <trkpt lat="47.0551" lon="5.14016">
        <ele>251</ele>
        <time>2019-09-12T12:39:17Z</time>
      </trkpt>
      <trkpt lat="47.055" lon="5.14001">
        <ele>251</ele>
        <time>2019-09-12T12:39:20Z</time>
      </trkpt>
      <trkpt lat="47.05489" lon="5.13986">
        <ele>250.80000305176</ele>
        <time>2019-09-12T12:39:23Z</time>
      </trkpt>
      <trkpt lat="47.05462" lon="5.13946">
        <ele>250.60000610352</ele>
        <time>2019-09-12T12:39:30Z</time>
      </trkpt>
      <trkpt lat="47.05432" lon="5.13901">
        <ele>250.60000610352</ele>
        <time>2019-09-12T12:39:38Z</time>
      </trkpt>
      <trkpt lat="47.054" lon="5.13857">
        <ele>250.60000610352</ele>
        <time>2019-09-12T12:39:46Z</time>
      </trkpt>
      <trkpt lat="47.05375" lon="5.13829">
        <ele>250.80000305176</ele>
        <time>2019-09-12T12:39:52Z</time>
      </trkpt>
      <trkpt lat="47.05342" lon="5.13805">
        <ele>250.80000305176</ele>
        <time>2019-09-12T12:39:59Z</time>
      </trkpt>
      <trkpt lat="47.05304" lon="5.13779">
        <ele>250.80000305176</ele>
        <time>2019-09-12T12:40:07Z</time>
      </trkpt>
      <trkpt lat="47.05295" lon="5.13772">
        <ele>250.80000305176</ele>
        <time>2019-09-12T12:40:09Z</time>
      </trkpt>
      <trkpt lat="47.05276" lon="5.13749">
        <ele>251</ele>
        <time>2019-09-12T12:40:14Z</time>
      </trkpt>
      <trkpt lat="47.05245" lon="5.13705">
        <ele>251</ele>
        <time>2019-09-12T12:40:23Z</time>
      </trkpt>
      <trkpt lat="47.05223" lon="5.13668">
        <ele>251</ele>
        <time>2019-09-12T12:40:30Z</time>
      </trkpt>
      <trkpt lat="47.05202" lon="5.13628">
        <ele>251</ele>
        <time>2019-09-12T12:40:37Z</time>
      </trkpt>
      <trkpt lat="47.05183" lon="5.13585">
        <ele>250.80000305176</ele>
        <time>2019-09-12T12:40:44Z</time>
      </trkpt>
      <trkpt lat="47.05169" lon="5.13537">
        <ele>250.80000305176</ele>
        <time>2019-09-12T12:40:51Z</time>
      </trkpt>
      <trkpt lat="47.05158" lon="5.13489">
        <ele>250.60000610352</ele>
        <time>2019-09-12T12:40:58Z</time>
      </trkpt>
      <trkpt lat="47.05147" lon="5.13433">
        <ele>250.60000610352</ele>
        <time>2019-09-12T12:41:06Z</time>
      </trkpt>
      <trkpt lat="47.05145" lon="5.1342">
        <ele>250.60000610352</ele>
        <time>2019-09-12T12:41:08Z</time>
      </trkpt>
      <trkpt lat="47.05142" lon="5.13394">
        <ele>250.80000305176</ele>
        <time>2019-09-12T12:41:12Z</time>
      </trkpt>
      <trkpt lat="47.0514" lon="5.13388">
        <ele>250.80000305176</ele>
        <time>2019-09-12T12:41:13Z</time>
      </trkpt>
      <trkpt lat="47.05135" lon="5.13354">
        <ele>250.80000305176</ele>
        <time>2019-09-12T12:41:18Z</time>
      </trkpt>
      <trkpt lat="47.05131" lon="5.13326">
        <ele>250.80000305176</ele>
        <time>2019-09-12T12:41:22Z</time>
      </trkpt>
      <trkpt lat="47.05128" lon="5.13312">
        <ele>250.80000305176</ele>
        <time>2019-09-12T12:41:24Z</time>
      </trkpt>
      <trkpt lat="47.05127" lon="5.13305">
        <ele>250.80000305176</ele>
        <time>2019-09-12T12:41:25Z</time>
      </trkpt>
      <trkpt lat="47.05122" lon="5.1327">
        <ele>250.80000305176</ele>
        <time>2019-09-12T12:41:30Z</time>
      </trkpt>
      <trkpt lat="47.05114" lon="5.13211">
        <ele>250.80000305176</ele>
        <time>2019-09-12T12:41:38Z</time>
      </trkpt>
      <trkpt lat="47.05109" lon="5.13152">
        <ele>251</ele>
        <time>2019-09-12T12:41:46Z</time>
      </trkpt>
      <trkpt lat="47.05105" lon="5.13094">
        <ele>251</ele>
        <time>2019-09-12T12:41:54Z</time>
      </trkpt>
      <trkpt lat="47.05102" lon="5.13023">
        <ele>251</ele>
        <time>2019-09-12T12:42:04Z</time>
      </trkpt>
      <trkpt lat="47.05102" lon="5.13008">
        <ele>251</ele>
        <time>2019-09-12T12:42:06Z</time>
      </trkpt>
      <trkpt lat="47.05102" lon="5.12971">
        <ele>251</ele>
        <time>2019-09-12T12:42:11Z</time>
      </trkpt>
      <trkpt lat="47.05104" lon="5.12949">
        <ele>251</ele>
        <time>2019-09-12T12:42:14Z</time>
      </trkpt>
      <trkpt lat="47.05104" lon="5.12929">
        <ele>250.80000305176</ele>
        <time>2019-09-12T12:42:17Z</time>
      </trkpt>
      <trkpt lat="47.05106" lon="5.12897">
        <ele>251</ele>
        <time>2019-09-12T12:42:22Z</time>
      </trkpt>
      <trkpt lat="47.05108" lon="5.12883">
        <ele>251</ele>
        <time>2019-09-12T12:42:24Z</time>
      </trkpt>
      <trkpt lat="47.05117" lon="5.12822">
        <ele>251</ele>
        <time>2019-09-12T12:42:33Z</time>
      </trkpt>
      <trkpt lat="47.05129" lon="5.12766">
        <ele>251</ele>
        <time>2019-09-12T12:42:41Z</time>
      </trkpt>
      <trkpt lat="47.05146" lon="5.12705">
        <ele>251</ele>
        <time>2019-09-12T12:42:50Z</time>
      </trkpt>
      <trkpt lat="47.05164" lon="5.12656">
        <ele>250.80000305176</ele>
        <time>2019-09-12T12:42:58Z</time>
      </trkpt>
      <trkpt lat="47.05175" lon="5.12626">
        <ele>250.80000305176</ele>
        <time>2019-09-12T12:43:04Z</time>
      </trkpt>
      <trkpt lat="47.0518" lon="5.12615">
        <ele>250.60000610352</ele>
        <time>2019-09-12T12:43:08Z</time>
      </trkpt>
      <trkpt lat="47.0518" lon="5.12615">
        <ele>250.60000610352</ele>
        <time>2019-09-12T12:43:09Z</time>
      </trkpt>
      <trkpt lat="47.05179" lon="5.12613">
        <ele>250.60000610352</ele>
        <time>2019-09-12T12:44:25Z</time>
      </trkpt>
      <trkpt lat="47.05177" lon="5.12612">
        <ele>250.60000610352</ele>
        <time>2019-09-12T12:44:27Z</time>
      </trkpt>
      <trkpt lat="47.05174" lon="5.12622">
        <ele>250.60000610352</ele>
        <time>2019-09-12T12:44:30Z</time>
      </trkpt>
      <trkpt lat="47.05168" lon="5.12643">
        <ele>250.60000610352</ele>
        <time>2019-09-12T12:44:35Z</time>
      </trkpt>
      <trkpt lat="47.05162" lon="5.12656">
        <ele>250.60000610352</ele>
        <time>2019-09-12T12:44:38Z</time>
      </trkpt>
      <trkpt lat="47.05159" lon="5.12666">
        <ele>250.60000610352</ele>
        <time>2019-09-12T12:44:40Z</time>
      </trkpt>
      <trkpt lat="47.05143" lon="5.12717">
        <ele>251</ele>
        <time>2019-09-12T12:44:49Z</time>
      </trkpt>
      <trkpt lat="47.05127" lon="5.12774">
        <ele>251</ele>
        <time>2019-09-12T12:44:58Z</time>
      </trkpt>
      <trkpt lat="47.05118" lon="5.12821">
        <ele>251</ele>
        <time>2019-09-12T12:45:05Z</time>
      </trkpt>
      <trkpt lat="47.05116" lon="5.12833">
        <ele>251</ele>
        <time>2019-09-12T12:45:07Z</time>
      </trkpt>
      <trkpt lat="47.05114" lon="5.12847">
        <ele>251</ele>
        <time>2019-09-12T12:45:09Z</time>
      </trkpt>
      <trkpt lat="47.05112" lon="5.1286">
        <ele>251</ele>
        <time>2019-09-12T12:45:11Z</time>
      </trkpt>
      <trkpt lat="47.05105" lon="5.12916">
        <ele>251</ele>
        <time>2019-09-12T12:45:19Z</time>
      </trkpt>
      <trkpt lat="47.05103" lon="5.12967">
        <ele>251.19999694824</ele>
        <time>2019-09-12T12:45:26Z</time>
      </trkpt>
      <trkpt lat="47.05102" lon="5.13025">
        <ele>251.19999694824</ele>
        <time>2019-09-12T12:45:34Z</time>
      </trkpt>
      <trkpt lat="47.05105" lon="5.13098">
        <ele>251.19999694824</ele>
        <time>2019-09-12T12:45:44Z</time>
      </trkpt>
      <trkpt lat="47.0511" lon="5.13164">
        <ele>251.19999694824</ele>
        <time>2019-09-12T12:45:53Z</time>
      </trkpt>
      <trkpt lat="47.05116" lon="5.1323">
        <ele>251.39999389648</ele>
        <time>2019-09-12T12:46:02Z</time>
      </trkpt>
      <trkpt lat="47.05126" lon="5.13294">
        <ele>251.39999389648</ele>
        <time>2019-09-12T12:46:11Z</time>
      </trkpt>
      <trkpt lat="47.05137" lon="5.13359">
        <ele>251.39999389648</ele>
        <time>2019-09-12T12:46:20Z</time>
      </trkpt>
      <trkpt lat="47.05145" lon="5.13417">
        <ele>251.19999694824</ele>
        <time>2019-09-12T12:46:28Z</time>
      </trkpt>
      <trkpt lat="47.05155" lon="5.13472">
        <ele>251</ele>
        <time>2019-09-12T12:46:36Z</time>
      </trkpt>
      <trkpt lat="47.05166" lon="5.13521">
        <ele>251</ele>
        <time>2019-09-12T12:46:43Z</time>
      </trkpt>
      <trkpt lat="47.05174" lon="5.13557">
        <ele>251</ele>
        <time>2019-09-12T12:46:48Z</time>
      </trkpt>
      <trkpt lat="47.0518" lon="5.13577">
        <ele>251</ele>
        <time>2019-09-12T12:46:51Z</time>
      </trkpt>
      <trkpt lat="47.05187" lon="5.13596">
        <ele>251</ele>
        <time>2019-09-12T12:46:54Z</time>
      </trkpt>
      <trkpt lat="47.05197" lon="5.13621">
        <ele>251</ele>
        <time>2019-09-12T12:46:58Z</time>
      </trkpt>
      <trkpt lat="47.05215" lon="5.13656">
        <ele>251</ele>
        <time>2019-09-12T12:47:04Z</time>
      </trkpt>
      <trkpt lat="47.05237" lon="5.13696">
        <ele>251</ele>
        <time>2019-09-12T12:47:11Z</time>
      </trkpt>
      <trkpt lat="47.05265" lon="5.13736">
        <ele>251</ele>
        <time>2019-09-12T12:47:19Z</time>
      </trkpt>
      <trkpt lat="47.05301" lon="5.13779">
        <ele>251.39999389648</ele>
        <time>2019-09-12T12:47:28Z</time>
      </trkpt>
      <trkpt lat="47.05333" lon="5.13801">
        <ele>251.60000610352</ele>
        <time>2019-09-12T12:47:35Z</time>
      </trkpt>
      <trkpt lat="47.05366" lon="5.13822">
        <ele>251.60000610352</ele>
        <time>2019-09-12T12:47:42Z</time>
      </trkpt>
      <trkpt lat="47.05383" lon="5.13836">
        <ele>251.60000610352</ele>
        <time>2019-09-12T12:47:46Z</time>
      </trkpt>
      <trkpt lat="47.05391" lon="5.13845">
        <ele>251.60000610352</ele>
        <time>2019-09-12T12:47:48Z</time>
      </trkpt>
      <trkpt lat="47.05416" lon="5.1388">
        <ele>251.39999389648</ele>
        <time>2019-09-12T12:47:55Z</time>
      </trkpt>
      <trkpt lat="47.05441" lon="5.13915">
        <ele>251.39999389648</ele>
        <time>2019-09-12T12:48:02Z</time>
      </trkpt>
      <trkpt lat="47.05444" lon="5.1392">
        <ele>251.39999389648</ele>
        <time>2019-09-12T12:48:03Z</time>
      </trkpt>
      <trkpt lat="47.05461" lon="5.13945">
        <ele>251.39999389648</ele>
        <time>2019-09-12T12:48:08Z</time>
      </trkpt>
      <trkpt lat="47.05494" lon="5.13991">
        <ele>251.39999389648</ele>
        <time>2019-09-12T12:48:18Z</time>
      </trkpt>
      <trkpt lat="47.05516" lon="5.14026">
        <ele>251.60000610352</ele>
        <time>2019-09-12T12:48:25Z</time>
      </trkpt>
      <trkpt lat="47.05529" lon="5.14047">
        <ele>251.80000305176</ele>
        <time>2019-09-12T12:48:29Z</time>
      </trkpt>
      <trkpt lat="47.05537" lon="5.14056">
        <ele>251.80000305176</ele>
        <time>2019-09-12T12:48:31Z</time>
      </trkpt>
      <trkpt lat="47.05558" lon="5.14071">
        <ele>252</ele>
        <time>2019-09-12T12:48:36Z</time>
      </trkpt>
      <trkpt lat="47.05581" lon="5.14079">
        <ele>252</ele>
        <time>2019-09-12T12:48:41Z</time>
      </trkpt>
      <trkpt lat="47.0559" lon="5.14083">
        <ele>252.19999694824</ele>
        <time>2019-09-12T12:48:43Z</time>
      </trkpt>
      <trkpt lat="47.05604" lon="5.14088">
        <ele>252.19999694824</ele>
        <time>2019-09-12T12:48:46Z</time>
      </trkpt>
      <trkpt lat="47.05617" lon="5.14094">
        <ele>252.39999389648</ele>
        <time>2019-09-12T12:48:49Z</time>
      </trkpt>
      <trkpt lat="47.05622" lon="5.14095">
        <ele>252.39999389648</ele>
        <time>2019-09-12T12:48:50Z</time>
      </trkpt>
      <trkpt lat="47.05644" lon="5.14106">
        <ele>252.60000610352</ele>
        <time>2019-09-12T12:48:55Z</time>
      </trkpt>
      <trkpt lat="47.05683" lon="5.14121">
        <ele>252.60000610352</ele>
        <time>2019-09-12T12:49:03Z</time>
      </trkpt>
      <trkpt lat="47.0572" lon="5.14134">
        <ele>252.80000305176</ele>
        <time>2019-09-12T12:49:11Z</time>
      </trkpt>
      <trkpt lat="47.05757" lon="5.14149">
        <ele>252.80000305176</ele>
        <time>2019-09-12T12:49:19Z</time>
      </trkpt>
      <trkpt lat="47.0579" lon="5.14164">
        <ele>252.60000610352</ele>
        <time>2019-09-12T12:49:26Z</time>
      </trkpt>
      <trkpt lat="47.05827" lon="5.14186">
        <ele>252.80000305176</ele>
        <time>2019-09-12T12:49:34Z</time>
      </trkpt>
      <trkpt lat="47.0586" lon="5.14208">
        <ele>253</ele>
        <time>2019-09-12T12:49:41Z</time>
      </trkpt>
      <trkpt lat="47.05899" lon="5.14235">
        <ele>253.19999694824</ele>
        <time>2019-09-12T12:49:50Z</time>
      </trkpt>
      <trkpt lat="47.05907" lon="5.1424">
        <ele>253</ele>
        <time>2019-09-12T12:49:52Z</time>
      </trkpt>
      <trkpt lat="47.05919" lon="5.14253">
        <ele>253</ele>
        <time>2019-09-12T12:49:56Z</time>
      </trkpt>
      <trkpt lat="47.0592" lon="5.14258">
        <ele>253</ele>
        <time>2019-09-12T12:49:57Z</time>
      </trkpt>
      <trkpt lat="47.05916" lon="5.14279">
        <ele>253.19999694824</ele>
        <time>2019-09-12T12:50:01Z</time>
      </trkpt>
      <trkpt lat="47.05914" lon="5.14285">
        <ele>253.19999694824</ele>
        <time>2019-09-12T12:50:02Z</time>
      </trkpt>
      <trkpt lat="47.05903" lon="5.14323">
        <ele>253.19999694824</ele>
        <time>2019-09-12T12:50:08Z</time>
      </trkpt>
      <trkpt lat="47.05892" lon="5.14362">
        <ele>253.39999389648</ele>
        <time>2019-09-12T12:50:14Z</time>
      </trkpt>
      <trkpt lat="47.05889" lon="5.14366">
        <ele>253.39999389648</ele>
        <time>2019-09-12T12:50:15Z</time>
      </trkpt>
      <trkpt lat="47.05872" lon="5.14371">
        <ele>253.39999389648</ele>
        <time>2019-09-12T12:50:19Z</time>
      </trkpt>
      <trkpt lat="47.05867" lon="5.1437">
        <ele>253.39999389648</ele>
        <time>2019-09-12T12:50:20Z</time>
      </trkpt>
      <trkpt lat="47.05822" lon="5.14367">
        <ele>253.80000305176</ele>
        <time>2019-09-12T12:50:29Z</time>
      </trkpt>
      <trkpt lat="47.05781" lon="5.14361">
        <ele>254</ele>
        <time>2019-09-12T12:50:37Z</time>
      </trkpt>
      <trkpt lat="47.05751" lon="5.14362">
        <ele>254</ele>
        <time>2019-09-12T12:50:43Z</time>
      </trkpt>
      <trkpt lat="47.05746" lon="5.14363">
        <ele>254</ele>
        <time>2019-09-12T12:50:44Z</time>
      </trkpt>
      <trkpt lat="47.05741" lon="5.14363">
        <ele>254</ele>
        <time>2019-09-12T12:50:45Z</time>
      </trkpt>
      <trkpt lat="47.0571" lon="5.1437">
        <ele>254</ele>
        <time>2019-09-12T12:50:51Z</time>
      </trkpt>
      <trkpt lat="47.05663" lon="5.14381">
        <ele>254.19999694824</ele>
        <time>2019-09-12T12:51:00Z</time>
      </trkpt>
      <trkpt lat="47.05647" lon="5.14386">
        <ele>254.19999694824</ele>
        <time>2019-09-12T12:51:03Z</time>
      </trkpt>
      <trkpt lat="47.05608" lon="5.14393">
        <ele>254.39999389648</ele>
        <time>2019-09-12T12:51:10Z</time>
      </trkpt>
      <trkpt lat="47.05558" lon="5.14396">
        <ele>254.39999389648</ele>
        <time>2019-09-12T12:51:19Z</time>
      </trkpt>
      <trkpt lat="47.055" lon="5.14397">
        <ele>254.39999389648</ele>
        <time>2019-09-12T12:51:29Z</time>
      </trkpt>
      <trkpt lat="47.05495" lon="5.14397">
        <ele>254.39999389648</ele>
        <time>2019-09-12T12:51:30Z</time>
      </trkpt>
      <trkpt lat="47.05444" lon="5.144">
        <ele>254.39999389648</ele>
        <time>2019-09-12T12:51:39Z</time>
      </trkpt>
      <trkpt lat="47.05397" lon="5.14407">
        <ele>254.19999694824</ele>
        <time>2019-09-12T12:51:47Z</time>
      </trkpt>
      <trkpt lat="47.0535" lon="5.14415">
        <ele>254</ele>
        <time>2019-09-12T12:51:55Z</time>
      </trkpt>
      <trkpt lat="47.05297" lon="5.14415">
        <ele>253.60000610352</ele>
        <time>2019-09-12T12:52:04Z</time>
      </trkpt>
      <trkpt lat="47.0524" lon="5.14402">
        <ele>253.39999389648</ele>
        <time>2019-09-12T12:52:14Z</time>
      </trkpt>
      <trkpt lat="47.05235" lon="5.14401">
        <ele>253.39999389648</ele>
        <time>2019-09-12T12:52:15Z</time>
      </trkpt>
      <trkpt lat="47.05204" lon="5.14393">
        <ele>253.80000305176</ele>
        <time>2019-09-12T12:52:21Z</time>
      </trkpt>
      <trkpt lat="47.05167" lon="5.14385">
        <ele>254</ele>
        <time>2019-09-12T12:52:28Z</time>
      </trkpt>
      <trkpt lat="47.05129" lon="5.14384">
        <ele>254.39999389648</ele>
        <time>2019-09-12T12:52:35Z</time>
      </trkpt>
      <trkpt lat="47.0509" lon="5.1439">
        <ele>254.60000610352</ele>
        <time>2019-09-12T12:52:42Z</time>
      </trkpt>
      <trkpt lat="47.05032" lon="5.14401">
        <ele>254.60000610352</ele>
        <time>2019-09-12T12:52:52Z</time>
      </trkpt>
      <trkpt lat="47.04982" lon="5.14416">
        <ele>254.60000610352</ele>
        <time>2019-09-12T12:53:01Z</time>
      </trkpt>
      <trkpt lat="47.04928" lon="5.14442">
        <ele>254.80000305176</ele>
        <time>2019-09-12T12:53:11Z</time>
      </trkpt>
      <trkpt lat="47.0489" lon="5.14461">
        <ele>254.80000305176</ele>
        <time>2019-09-12T12:53:19Z</time>
      </trkpt>
      <trkpt lat="47.04841" lon="5.14482">
        <ele>254.80000305176</ele>
        <time>2019-09-12T12:53:29Z</time>
      </trkpt>
      <trkpt lat="47.04791" lon="5.14503">
        <ele>254.80000305176</ele>
        <time>2019-09-12T12:53:39Z</time>
      </trkpt>
      <trkpt lat="47.04743" lon="5.14525">
        <ele>254.80000305176</ele>
        <time>2019-09-12T12:53:48Z</time>
      </trkpt>
      <trkpt lat="47.04692" lon="5.14553">
        <ele>254.19999694824</ele>
        <time>2019-09-12T12:53:57Z</time>
      </trkpt>
      <trkpt lat="47.04659" lon="5.14573">
        <ele>253.60000610352</ele>
        <time>2019-09-12T12:54:03Z</time>
      </trkpt>
      <trkpt lat="47.04643" lon="5.14583">
        <ele>253.39999389648</ele>
        <time>2019-09-12T12:54:06Z</time>
      </trkpt>
      <trkpt lat="47.04612" lon="5.14601">
        <ele>253.39999389648</ele>
        <time>2019-09-12T12:54:12Z</time>
      </trkpt>
      <trkpt lat="47.04571" lon="5.14627">
        <ele>253.39999389648</ele>
        <time>2019-09-12T12:54:20Z</time>
      </trkpt>
      <trkpt lat="47.04534" lon="5.14648">
        <ele>253.39999389648</ele>
        <time>2019-09-12T12:54:27Z</time>
      </trkpt>
      <trkpt lat="47.045" lon="5.14665">
        <ele>253.39999389648</ele>
        <time>2019-09-12T12:54:34Z</time>
      </trkpt>
      <trkpt lat="47.0447" lon="5.14676">
        <ele>253.60000610352</ele>
        <time>2019-09-12T12:54:41Z</time>
      </trkpt>
      <trkpt lat="47.0442" lon="5.14694">
        <ele>253.39999389648</ele>
        <time>2019-09-12T12:54:51Z</time>
      </trkpt>
      <trkpt lat="47.04378" lon="5.14722">
        <ele>253.39999389648</ele>
        <time>2019-09-12T12:55:00Z</time>
      </trkpt>
      <trkpt lat="47.04345" lon="5.14744">
        <ele>253.60000610352</ele>
        <time>2019-09-12T12:55:07Z</time>
      </trkpt>
      <trkpt lat="47.04295" lon="5.14775">
        <ele>253.80000305176</ele>
        <time>2019-09-12T12:55:17Z</time>
      </trkpt>
      <trkpt lat="47.0425" lon="5.14803">
        <ele>253.80000305176</ele>
        <time>2019-09-12T12:55:26Z</time>
      </trkpt>
      <trkpt lat="47.04206" lon="5.14822">
        <ele>253.80000305176</ele>
        <time>2019-09-12T12:55:34Z</time>
      </trkpt>
      <trkpt lat="47.04156" lon="5.14835">
        <ele>253.80000305176</ele>
        <time>2019-09-12T12:55:43Z</time>
      </trkpt>
      <trkpt lat="47.0411" lon="5.14844">
        <ele>253.80000305176</ele>
        <time>2019-09-12T12:55:51Z</time>
      </trkpt>
      <trkpt lat="47.04052" lon="5.14859">
        <ele>253.80000305176</ele>
        <time>2019-09-12T12:56:01Z</time>
      </trkpt>
      <trkpt lat="47.04041" lon="5.14862">
        <ele>253.80000305176</ele>
        <time>2019-09-12T12:56:03Z</time>
      </trkpt>
      <trkpt lat="47.03997" lon="5.14878">
        <ele>254</ele>
        <time>2019-09-12T12:56:12Z</time>
      </trkpt>
      <trkpt lat="47.03967" lon="5.14895">
        <ele>254.19999694824</ele>
        <time>2019-09-12T12:56:19Z</time>
      </trkpt>
      <trkpt lat="47.03936" lon="5.14914">
        <ele>254.19999694824</ele>
        <time>2019-09-12T12:56:25Z</time>
      </trkpt>
      <trkpt lat="47.03926" lon="5.14921">
        <ele>254.19999694824</ele>
        <time>2019-09-12T12:56:27Z</time>
      </trkpt>
      <trkpt lat="47.03913" lon="5.14935">
        <ele>254</ele>
        <time>2019-09-12T12:56:30Z</time>
      </trkpt>
      <trkpt lat="47.03909" lon="5.14939">
        <ele>254</ele>
        <time>2019-09-12T12:56:31Z</time>
      </trkpt>
      <trkpt lat="47.03894" lon="5.14946">
        <ele>254</ele>
        <time>2019-09-12T12:56:34Z</time>
      </trkpt>
      <trkpt lat="47.03884" lon="5.14949">
        <ele>253.80000305176</ele>
        <time>2019-09-12T12:56:36Z</time>
      </trkpt>
      <trkpt lat="47.03868" lon="5.14951">
        <ele>253.80000305176</ele>
        <time>2019-09-12T12:56:39Z</time>
      </trkpt>
      <trkpt lat="47.03829" lon="5.14949">
        <ele>253.80000305176</ele>
        <time>2019-09-12T12:56:46Z</time>
      </trkpt>
      <trkpt lat="47.03786" lon="5.14933">
        <ele>253.80000305176</ele>
        <time>2019-09-12T12:56:54Z</time>
      </trkpt>
      <trkpt lat="47.03737" lon="5.14914">
        <ele>253.80000305176</ele>
        <time>2019-09-12T12:57:03Z</time>
      </trkpt>
      <trkpt lat="47.03688" lon="5.149">
        <ele>253.60000610352</ele>
        <time>2019-09-12T12:57:12Z</time>
      </trkpt>
      <trkpt lat="47.03647" lon="5.14891">
        <ele>253.60000610352</ele>
        <time>2019-09-12T12:57:20Z</time>
      </trkpt>
      <trkpt lat="47.03603" lon="5.14885">
        <ele>254</ele>
        <time>2019-09-12T12:57:29Z</time>
      </trkpt>
      <trkpt lat="47.03555" lon="5.14887">
        <ele>254.19999694824</ele>
        <time>2019-09-12T12:57:39Z</time>
      </trkpt>
      <trkpt lat="47.03518" lon="5.1489">
        <ele>254.60000610352</ele>
        <time>2019-09-12T12:57:47Z</time>
      </trkpt>
      <trkpt lat="47.03486" lon="5.14892">
        <ele>254.80000305176</ele>
        <time>2019-09-12T12:57:54Z</time>
      </trkpt>
      <trkpt lat="47.03442" lon="5.14895">
        <ele>254.80000305176</ele>
        <time>2019-09-12T12:58:03Z</time>
      </trkpt>
      <trkpt lat="47.03391" lon="5.14893">
        <ele>255</ele>
        <time>2019-09-12T12:58:13Z</time>
      </trkpt>
      <trkpt lat="47.03338" lon="5.14879">
        <ele>255.19999694824</ele>
        <time>2019-09-12T12:58:24Z</time>
      </trkpt>
      <trkpt lat="47.03289" lon="5.14863">
        <ele>255.19999694824</ele>
        <time>2019-09-12T12:58:34Z</time>
      </trkpt>
      <trkpt lat="47.03234" lon="5.14844">
        <ele>255</ele>
        <time>2019-09-12T12:58:45Z</time>
      </trkpt>
      <trkpt lat="47.03189" lon="5.1483">
        <ele>254.80000305176</ele>
        <time>2019-09-12T12:58:54Z</time>
      </trkpt>
      <trkpt lat="47.03148" lon="5.14819">
        <ele>254.80000305176</ele>
        <time>2019-09-12T12:59:02Z</time>
      </trkpt>
      <trkpt lat="47.03112" lon="5.14804">
        <ele>254.80000305176</ele>
        <time>2019-09-12T12:59:09Z</time>
      </trkpt>
      <trkpt lat="47.03067" lon="5.1479">
        <ele>254.60000610352</ele>
        <time>2019-09-12T12:59:18Z</time>
      </trkpt>
      <trkpt lat="47.03023" lon="5.14777">
        <ele>254.60000610352</ele>
        <time>2019-09-12T12:59:27Z</time>
      </trkpt>
      <trkpt lat="47.0297" lon="5.14763">
        <ele>255</ele>
        <time>2019-09-12T12:59:38Z</time>
      </trkpt>
      <trkpt lat="47.02935" lon="5.14758">
        <ele>255</ele>
        <time>2019-09-12T12:59:45Z</time>
      </trkpt>
      <trkpt lat="47.02896" lon="5.14751">
        <ele>254.80000305176</ele>
        <time>2019-09-12T12:59:53Z</time>
      </trkpt>
      <trkpt lat="47.02859" lon="5.14746">
        <ele>254.80000305176</ele>
        <time>2019-09-12T13:00:00Z</time>
      </trkpt>
      <trkpt lat="47.02814" lon="5.14736">
        <ele>254.39999389648</ele>
        <time>2019-09-12T13:00:09Z</time>
      </trkpt>
      <trkpt lat="47.02809" lon="5.14733">
        <ele>254.39999389648</ele>
        <time>2019-09-12T13:00:10Z</time>
      </trkpt>
      <trkpt lat="47.02768" lon="5.14702">
        <ele>254.19999694824</ele>
        <time>2019-09-12T13:00:19Z</time>
      </trkpt>
      <trkpt lat="47.02756" lon="5.14689">
        <ele>254.19999694824</ele>
        <time>2019-09-12T13:00:22Z</time>
      </trkpt>
      <trkpt lat="47.02742" lon="5.14669">
        <ele>254.19999694824</ele>
        <time>2019-09-12T13:00:26Z</time>
      </trkpt>
      <trkpt lat="47.02716" lon="5.14631">
        <ele>254.19999694824</ele>
        <time>2019-09-12T13:00:33Z</time>
      </trkpt>
      <trkpt lat="47.02712" lon="5.14626">
        <ele>254.19999694824</ele>
        <time>2019-09-12T13:00:34Z</time>
      </trkpt>
      <trkpt lat="47.02682" lon="5.14583">
        <ele>254.19999694824</ele>
        <time>2019-09-12T13:00:42Z</time>
      </trkpt>
      <trkpt lat="47.02651" lon="5.1454">
        <ele>254.19999694824</ele>
        <time>2019-09-12T13:00:50Z</time>
      </trkpt>
      <trkpt lat="47.02623" lon="5.14498">
        <ele>254.39999389648</ele>
        <time>2019-09-12T13:00:58Z</time>
      </trkpt>
      <trkpt lat="47.02593" lon="5.14463">
        <ele>254.60000610352</ele>
        <time>2019-09-12T13:01:06Z</time>
      </trkpt>
      <trkpt lat="47.02565" lon="5.14442">
        <ele>255.19999694824</ele>
        <time>2019-09-12T13:01:14Z</time>
      </trkpt>
      <trkpt lat="47.02544" lon="5.14433">
        <ele>256</ele>
        <time>2019-09-12T13:01:20Z</time>
      </trkpt>
      <trkpt lat="47.02541" lon="5.14432">
        <ele>256</ele>
        <time>2019-09-12T13:01:21Z</time>
      </trkpt>
      <trkpt lat="47.02523" lon="5.14429">
        <ele>257</ele>
        <time>2019-09-12T13:01:26Z</time>
      </trkpt>
      <trkpt lat="47.02507" lon="5.14428">
        <ele>257.79998779297</ele>
        <time>2019-09-12T13:01:31Z</time>
      </trkpt>
      <trkpt lat="47.02501" lon="5.14429">
        <ele>258.20001220703</ele>
        <time>2019-09-12T13:01:33Z</time>
      </trkpt>
      <trkpt lat="47.02492" lon="5.14431">
        <ele>258.39999389648</ele>
        <time>2019-09-12T13:01:36Z</time>
      </trkpt>
      <trkpt lat="47.02473" lon="5.14437">
        <ele>259.20001220703</ele>
        <time>2019-09-12T13:01:42Z</time>
      </trkpt>
      <trkpt lat="47.02467" lon="5.1444">
        <ele>259.39999389648</ele>
        <time>2019-09-12T13:01:44Z</time>
      </trkpt>
      <trkpt lat="47.02448" lon="5.14452">
        <ele>260.20001220703</ele>
        <time>2019-09-12T13:01:50Z</time>
      </trkpt>
      <trkpt lat="47.02445" lon="5.14454">
        <ele>260.39999389648</ele>
        <time>2019-09-12T13:01:51Z</time>
      </trkpt>
      <trkpt lat="47.02419" lon="5.1447">
        <ele>261.39999389648</ele>
        <time>2019-09-12T13:01:59Z</time>
      </trkpt>
      <trkpt lat="47.02415" lon="5.14472">
        <ele>261.39999389648</ele>
        <time>2019-09-12T13:02:00Z</time>
      </trkpt>
      <trkpt lat="47.02394" lon="5.14486">
        <ele>261.79998779297</ele>
        <time>2019-09-12T13:02:06Z</time>
      </trkpt>
      <trkpt lat="47.02391" lon="5.14489">
        <ele>262</ele>
        <time>2019-09-12T13:02:07Z</time>
      </trkpt>
      <trkpt lat="47.02367" lon="5.14504">
        <ele>262</ele>
        <time>2019-09-12T13:02:13Z</time>
      </trkpt>
      <trkpt lat="47.02335" lon="5.14526">
        <ele>262</ele>
        <time>2019-09-12T13:02:20Z</time>
      </trkpt>
      <trkpt lat="47.02302" lon="5.14546">
        <ele>261.39999389648</ele>
        <time>2019-09-12T13:02:26Z</time>
      </trkpt>
      <trkpt lat="47.02266" lon="5.14571">
        <ele>260.39999389648</ele>
        <time>2019-09-12T13:02:32Z</time>
      </trkpt>
      <trkpt lat="47.0226" lon="5.14575">
        <ele>260.20001220703</ele>
        <time>2019-09-12T13:02:33Z</time>
      </trkpt>
      <trkpt lat="47.0224" lon="5.14587">
        <ele>259.39999389648</ele>
        <time>2019-09-12T13:02:36Z</time>
      </trkpt>
      <trkpt lat="47.0222" lon="5.14601">
        <ele>258.60000610352</ele>
        <time>2019-09-12T13:02:39Z</time>
      </trkpt>
      <trkpt lat="47.02213" lon="5.14606">
        <ele>258.20001220703</ele>
        <time>2019-09-12T13:02:40Z</time>
      </trkpt>
      <trkpt lat="47.02185" lon="5.14625">
        <ele>257</ele>
        <time>2019-09-12T13:02:44Z</time>
      </trkpt>
      <trkpt lat="47.02165" lon="5.14642">
        <ele>256</ele>
        <time>2019-09-12T13:02:47Z</time>
      </trkpt>
      <trkpt lat="47.0214" lon="5.14666">
        <ele>254.60000610352</ele>
        <time>2019-09-12T13:02:51Z</time>
      </trkpt>
      <trkpt lat="47.02129" lon="5.14679">
        <ele>254</ele>
        <time>2019-09-12T13:02:53Z</time>
      </trkpt>
      <trkpt lat="47.02119" lon="5.14692">
        <ele>253.39999389648</ele>
        <time>2019-09-12T13:02:55Z</time>
      </trkpt>
      <trkpt lat="47.02102" lon="5.14716">
        <ele>253</ele>
        <time>2019-09-12T13:02:59Z</time>
      </trkpt>
      <trkpt lat="47.02094" lon="5.14726">
        <ele>252.60000610352</ele>
        <time>2019-09-12T13:03:01Z</time>
      </trkpt>
      <trkpt lat="47.02083" lon="5.14741">
        <ele>252.60000610352</ele>
        <time>2019-09-12T13:03:04Z</time>
      </trkpt>
      <trkpt lat="47.02075" lon="5.1475">
        <ele>252.39999389648</ele>
        <time>2019-09-12T13:03:06Z</time>
      </trkpt>
      <trkpt lat="47.0205" lon="5.14785">
        <ele>252.19999694824</ele>
        <time>2019-09-12T13:03:13Z</time>
      </trkpt>
      <trkpt lat="47.02024" lon="5.1483">
        <ele>252.39999389648</ele>
        <time>2019-09-12T13:03:21Z</time>
      </trkpt>
      <trkpt lat="47.0201" lon="5.14876">
        <ele>252.60000610352</ele>
        <time>2019-09-12T13:03:28Z</time>
      </trkpt>
      <trkpt lat="47.01996" lon="5.14935">
        <ele>252.80000305176</ele>
        <time>2019-09-12T13:03:37Z</time>
      </trkpt>
      <trkpt lat="47.01993" lon="5.14948">
        <ele>252.80000305176</ele>
        <time>2019-09-12T13:03:39Z</time>
      </trkpt>
      <trkpt lat="47.01988" lon="5.14954">
        <ele>253</ele>
        <time>2019-09-12T13:03:41Z</time>
      </trkpt>
      <trkpt lat="47.01978" lon="5.14949">
        <ele>253.19999694824</ele>
        <time>2019-09-12T13:03:44Z</time>
      </trkpt>
      <trkpt lat="47.01958" lon="5.14938">
        <ele>253.60000610352</ele>
        <time>2019-09-12T13:03:49Z</time>
      </trkpt>
      <trkpt lat="47.01919" lon="5.14922">
        <ele>254</ele>
        <time>2019-09-12T13:03:57Z</time>
      </trkpt>
      <trkpt lat="47.01869" lon="5.14903">
        <ele>254.19999694824</ele>
        <time>2019-09-12T13:04:07Z</time>
      </trkpt>
      <trkpt lat="47.01835" lon="5.14891">
        <ele>254.39999389648</ele>
        <time>2019-09-12T13:04:14Z</time>
      </trkpt>
      <trkpt lat="47.01789" lon="5.14882">
        <ele>254.60000610352</ele>
        <time>2019-09-12T13:04:23Z</time>
      </trkpt>
      <trkpt lat="47.0175" lon="5.14876">
        <ele>254.80000305176</ele>
        <time>2019-09-12T13:04:31Z</time>
      </trkpt>
      <trkpt lat="47.01735" lon="5.14873">
        <ele>255</ele>
        <time>2019-09-12T13:04:34Z</time>
      </trkpt>
      <trkpt lat="47.01705" lon="5.1487">
        <ele>255</ele>
        <time>2019-09-12T13:04:40Z</time>
      </trkpt>
      <trkpt lat="47.01681" lon="5.14871">
        <ele>255</ele>
        <time>2019-09-12T13:04:45Z</time>
      </trkpt>
      <trkpt lat="47.01671" lon="5.14875">
        <ele>255</ele>
        <time>2019-09-12T13:04:47Z</time>
      </trkpt>
      <trkpt lat="47.01662" lon="5.14878">
        <ele>255</ele>
        <time>2019-09-12T13:04:49Z</time>
      </trkpt>
      <trkpt lat="47.01642" lon="5.1488">
        <ele>254.80000305176</ele>
        <time>2019-09-12T13:04:53Z</time>
      </trkpt>
      <trkpt lat="47.01628" lon="5.14881">
        <ele>254.80000305176</ele>
        <time>2019-09-12T13:04:56Z</time>
      </trkpt>
      <trkpt lat="47.01614" lon="5.1489">
        <ele>254.80000305176</ele>
        <time>2019-09-12T13:04:59Z</time>
      </trkpt>
      <trkpt lat="47.01608" lon="5.149">
        <ele>254.80000305176</ele>
        <time>2019-09-12T13:05:01Z</time>
      </trkpt>
      <trkpt lat="47.01596" lon="5.14924">
        <ele>254.80000305176</ele>
        <time>2019-09-12T13:05:05Z</time>
      </trkpt>
      <trkpt lat="47.01573" lon="5.1497">
        <ele>255</ele>
        <time>2019-09-12T13:05:13Z</time>
      </trkpt>
      <trkpt lat="47.0157" lon="5.14975">
        <ele>255</ele>
        <time>2019-09-12T13:05:14Z</time>
      </trkpt>
      <trkpt lat="47.01557" lon="5.14991">
        <ele>255.19999694824</ele>
        <time>2019-09-12T13:05:18Z</time>
      </trkpt>
      <trkpt lat="47.01554" lon="5.14995">
        <ele>255.19999694824</ele>
        <time>2019-09-12T13:05:19Z</time>
      </trkpt>
      <trkpt lat="47.01537" lon="5.15023">
        <ele>255.19999694824</ele>
        <time>2019-09-12T13:05:25Z</time>
      </trkpt>
      <trkpt lat="47.01534" lon="5.15028">
        <ele>255</ele>
        <time>2019-09-12T13:05:26Z</time>
      </trkpt>
      <trkpt lat="47.01523" lon="5.15034">
        <ele>254.80000305176</ele>
        <time>2019-09-12T13:05:29Z</time>
      </trkpt>
      <trkpt lat="47.01491" lon="5.15042">
        <ele>254.39999389648</ele>
        <time>2019-09-12T13:05:36Z</time>
      </trkpt>
      <trkpt lat="47.01449" lon="5.15051">
        <ele>254.19999694824</ele>
        <time>2019-09-12T13:05:44Z</time>
      </trkpt>
      <trkpt lat="47.01393" lon="5.15061">
        <ele>254.19999694824</ele>
        <time>2019-09-12T13:05:55Z</time>
      </trkpt>
      <trkpt lat="47.01336" lon="5.15066">
        <ele>254.60000610352</ele>
        <time>2019-09-12T13:06:06Z</time>
      </trkpt>
      <trkpt lat="47.01286" lon="5.15064">
        <ele>254.60000610352</ele>
        <time>2019-09-12T13:06:15Z</time>
      </trkpt>
      <trkpt lat="47.0125" lon="5.15069">
        <ele>254.39999389648</ele>
        <time>2019-09-12T13:06:21Z</time>
      </trkpt>
      <trkpt lat="47.01208" lon="5.15067">
        <ele>254.19999694824</ele>
        <time>2019-09-12T13:06:28Z</time>
      </trkpt>
      <trkpt lat="47.01167" lon="5.15063">
        <ele>254.19999694824</ele>
        <time>2019-09-12T13:06:35Z</time>
      </trkpt>
      <trkpt lat="47.01115" lon="5.15059">
        <ele>254.19999694824</ele>
        <time>2019-09-12T13:06:44Z</time>
      </trkpt>
      <trkpt lat="47.01055" lon="5.15054">
        <ele>254</ele>
        <time>2019-09-12T13:06:54Z</time>
      </trkpt>
      <trkpt lat="47.0102" lon="5.15052">
        <ele>254</ele>
        <time>2019-09-12T13:07:00Z</time>
      </trkpt>
      <trkpt lat="47.00986" lon="5.15049">
        <ele>253.80000305176</ele>
        <time>2019-09-12T13:07:06Z</time>
      </trkpt>
      <trkpt lat="47.00927" lon="5.15044">
        <ele>253.60000610352</ele>
        <time>2019-09-12T13:07:16Z</time>
      </trkpt>
      <trkpt lat="47.00876" lon="5.15037">
        <ele>253.60000610352</ele>
        <time>2019-09-12T13:07:25Z</time>
      </trkpt>
      <trkpt lat="47.00834" lon="5.1502">
        <ele>253.39999389648</ele>
        <time>2019-09-12T13:07:33Z</time>
      </trkpt>
      <trkpt lat="47.00785" lon="5.14995">
        <ele>253.39999389648</ele>
        <time>2019-09-12T13:07:42Z</time>
      </trkpt>
      <trkpt lat="47.00731" lon="5.14964">
        <ele>253.39999389648</ele>
        <time>2019-09-12T13:07:52Z</time>
      </trkpt>
      <trkpt lat="47.00691" lon="5.14934">
        <ele>253.80000305176</ele>
        <time>2019-09-12T13:08:00Z</time>
      </trkpt>
      <trkpt lat="47.00657" lon="5.14906">
        <ele>254</ele>
        <time>2019-09-12T13:08:07Z</time>
      </trkpt>
      <trkpt lat="47.00618" lon="5.14875">
        <ele>254.60000610352</ele>
        <time>2019-09-12T13:08:16Z</time>
      </trkpt>
      <trkpt lat="47.00603" lon="5.14866">
        <ele>254.60000610352</ele>
        <time>2019-09-12T13:08:20Z</time>
      </trkpt>
      <trkpt lat="47.00599" lon="5.14863">
        <ele>254.60000610352</ele>
        <time>2019-09-12T13:08:21Z</time>
      </trkpt>
      <trkpt lat="47.00588" lon="5.14851">
        <ele>254.60000610352</ele>
        <time>2019-09-12T13:08:24Z</time>
      </trkpt>
      <trkpt lat="47.00583" lon="5.14848">
        <ele>254.60000610352</ele>
        <time>2019-09-12T13:08:25Z</time>
      </trkpt>
      <trkpt lat="47.00542" lon="5.14819">
        <ele>254.80000305176</ele>
        <time>2019-09-12T13:08:33Z</time>
      </trkpt>
      <trkpt lat="47.00495" lon="5.14785">
        <ele>254.80000305176</ele>
        <time>2019-09-12T13:08:42Z</time>
      </trkpt>
      <trkpt lat="47.00465" lon="5.14761">
        <ele>254.60000610352</ele>
        <time>2019-09-12T13:08:48Z</time>
      </trkpt>
      <trkpt lat="47.00428" lon="5.14736">
        <ele>254.39999389648</ele>
        <time>2019-09-12T13:08:55Z</time>
      </trkpt>
      <trkpt lat="47.00423" lon="5.14733">
        <ele>254.19999694824</ele>
        <time>2019-09-12T13:08:56Z</time>
      </trkpt>
      <trkpt lat="47.00387" lon="5.14709">
        <ele>253.39999389648</ele>
        <time>2019-09-12T13:09:03Z</time>
      </trkpt>
      <trkpt lat="47.00358" lon="5.14691">
        <ele>253.19999694824</ele>
        <time>2019-09-12T13:09:10Z</time>
      </trkpt>
      <trkpt lat="47.00345" lon="5.14691">
        <ele>253.19999694824</ele>
        <time>2019-09-12T13:09:14Z</time>
      </trkpt>
      <trkpt lat="47.00343" lon="5.14691">
        <ele>253.39999389648</ele>
        <time>2019-09-12T13:09:15Z</time>
      </trkpt>
      <trkpt lat="47.00342" lon="5.14691">
        <ele>253.19999694824</ele>
        <time>2019-09-12T13:09:16Z</time>
      </trkpt>
      <trkpt lat="47.00332" lon="5.14688">
        <ele>253</ele>
        <time>2019-09-12T13:09:21Z</time>
      </trkpt>
      <trkpt lat="47.00332" lon="5.14688">
        <ele>253</ele>
        <time>2019-09-12T13:09:23Z</time>
      </trkpt>
      <trkpt lat="47.0033" lon="5.14687">
        <ele>252.80000305176</ele>
        <time>2019-09-12T13:09:26Z</time>
      </trkpt>
      <trkpt lat="47.00329" lon="5.14687">
        <ele>252.80000305176</ele>
        <time>2019-09-12T13:09:27Z</time>
      </trkpt>
      <trkpt lat="47.00321" lon="5.14685">
        <ele>252.80000305176</ele>
        <time>2019-09-12T13:09:32Z</time>
      </trkpt>
      <trkpt lat="47.00313" lon="5.14684">
        <ele>252.80000305176</ele>
        <time>2019-09-12T13:09:39Z</time>
      </trkpt>
      <trkpt lat="47.00311" lon="5.14683">
        <ele>252.80000305176</ele>
        <time>2019-09-12T13:09:40Z</time>
      </trkpt>
      <trkpt lat="47.00304" lon="5.14679">
        <ele>252.80000305176</ele>
        <time>2019-09-12T13:09:43Z</time>
      </trkpt>
      <trkpt lat="47.00291" lon="5.14669">
        <ele>252.80000305176</ele>
        <time>2019-09-12T13:09:48Z</time>
      </trkpt>
      <trkpt lat="47.00275" lon="5.14663">
        <ele>252.80000305176</ele>
        <time>2019-09-12T13:09:53Z</time>
      </trkpt>
      <trkpt lat="47.00257" lon="5.14657">
        <ele>252.80000305176</ele>
        <time>2019-09-12T13:09:58Z</time>
      </trkpt>
      <trkpt lat="47.00252" lon="5.14652">
        <ele>252.80000305176</ele>
        <time>2019-09-12T13:10:00Z</time>
      </trkpt>
      <trkpt lat="47.0025" lon="5.14645">
        <ele>252.80000305176</ele>
        <time>2019-09-12T13:10:02Z</time>
      </trkpt>
      <trkpt lat="47.00251" lon="5.14626">
        <ele>252.80000305176</ele>
        <time>2019-09-12T13:10:07Z</time>
      </trkpt>
      <trkpt lat="47.00253" lon="5.14595">
        <ele>253.19999694824</ele>
        <time>2019-09-12T13:10:13Z</time>
      </trkpt>
      <trkpt lat="47.00255" lon="5.14546">
        <ele>253.19999694824</ele>
        <time>2019-09-12T13:10:21Z</time>
      </trkpt>
      <trkpt lat="47.00256" lon="5.14514">
        <ele>253.39999389648</ele>
        <time>2019-09-12T13:10:26Z</time>
      </trkpt>
      <trkpt lat="47.00258" lon="5.14489">
        <ele>253.60000610352</ele>
        <time>2019-09-12T13:10:30Z</time>
      </trkpt>
      <trkpt lat="47.00264" lon="5.14437">
        <ele>253.60000610352</ele>
        <time>2019-09-12T13:10:38Z</time>
      </trkpt>
      <trkpt lat="47.00269" lon="5.14395">
        <ele>253.39999389648</ele>
        <time>2019-09-12T13:10:45Z</time>
      </trkpt>
      <trkpt lat="47.00267" lon="5.1436">
        <ele>253.19999694824</ele>
        <time>2019-09-12T13:10:51Z</time>
      </trkpt>
      <trkpt lat="47.00254" lon="5.14341">
        <ele>253.19999694824</ele>
        <time>2019-09-12T13:10:56Z</time>
      </trkpt>
      <trkpt lat="47.0023" lon="5.14332">
        <ele>253.19999694824</ele>
        <time>2019-09-12T13:11:02Z</time>
      </trkpt>
      <trkpt lat="47.00191" lon="5.14321">
        <ele>253.19999694824</ele>
        <time>2019-09-12T13:11:11Z</time>
      </trkpt>
      <trkpt lat="47.0016" lon="5.14314">
        <ele>253.19999694824</ele>
        <time>2019-09-12T13:11:18Z</time>
      </trkpt>
      <trkpt lat="47.00156" lon="5.14316">
        <ele>253.19999694824</ele>
        <time>2019-09-12T13:11:19Z</time>
      </trkpt>
      <trkpt lat="47.00126" lon="5.14326">
        <ele>252.80000305176</ele>
        <time>2019-09-12T13:11:26Z</time>
      </trkpt>
      <trkpt lat="47.00092" lon="5.14341">
        <ele>252.80000305176</ele>
        <time>2019-09-12T13:11:34Z</time>
      </trkpt>
      <trkpt lat="47.00061" lon="5.14359">
        <ele>252.80000305176</ele>
        <time>2019-09-12T13:11:41Z</time>
      </trkpt>
      <trkpt lat="47.0003" lon="5.1438">
        <ele>253</ele>
        <time>2019-09-12T13:11:49Z</time>
      </trkpt>
      <trkpt lat="46.99998" lon="5.14398">
        <ele>253.80000305176</ele>
        <time>2019-09-12T13:11:57Z</time>
      </trkpt>
      <trkpt lat="46.99965" lon="5.14414">
        <ele>254</ele>
        <time>2019-09-12T13:12:05Z</time>
      </trkpt>
      <trkpt lat="46.99957" lon="5.14417">
        <ele>254</ele>
        <time>2019-09-12T13:12:07Z</time>
      </trkpt>
      <trkpt lat="46.99948" lon="5.14419">
        <ele>254</ele>
        <time>2019-09-12T13:12:09Z</time>
      </trkpt>
      <trkpt lat="46.9993" lon="5.14422">
        <ele>254</ele>
        <time>2019-09-12T13:12:13Z</time>
      </trkpt>
      <trkpt lat="46.99899" lon="5.14425">
        <ele>254</ele>
        <time>2019-09-12T13:12:20Z</time>
      </trkpt>
      <trkpt lat="46.99895" lon="5.14425">
        <ele>254</ele>
        <time>2019-09-12T13:12:21Z</time>
      </trkpt>
      <trkpt lat="46.99863" lon="5.14429">
        <ele>254.19999694824</ele>
        <time>2019-09-12T13:12:29Z</time>
      </trkpt>
      <trkpt lat="46.9985" lon="5.14431">
        <ele>254.80000305176</ele>
        <time>2019-09-12T13:12:33Z</time>
      </trkpt>
      <trkpt lat="46.99842" lon="5.14431">
        <ele>255.80000305176</ele>
        <time>2019-09-12T13:12:36Z</time>
      </trkpt>
      <trkpt lat="46.99837" lon="5.14432">
        <ele>256</ele>
        <time>2019-09-12T13:12:38Z</time>
      </trkpt>
      <trkpt lat="46.99827" lon="5.14433">
        <ele>256.39999389648</ele>
        <time>2019-09-12T13:12:42Z</time>
      </trkpt>
      <trkpt lat="46.99806" lon="5.14434">
        <ele>256.39999389648</ele>
        <time>2019-09-12T13:12:48Z</time>
      </trkpt>
      <trkpt lat="46.99802" lon="5.14436">
        <ele>256.39999389648</ele>
        <time>2019-09-12T13:12:49Z</time>
      </trkpt>
      <trkpt lat="46.99783" lon="5.14445">
        <ele>256</ele>
        <time>2019-09-12T13:12:53Z</time>
      </trkpt>
      <trkpt lat="46.9977" lon="5.14453">
        <ele>255.60000610352</ele>
        <time>2019-09-12T13:12:56Z</time>
      </trkpt>
      <trkpt lat="46.9976" lon="5.14463">
        <ele>255</ele>
        <time>2019-09-12T13:12:59Z</time>
      </trkpt>
      <trkpt lat="46.99759" lon="5.14469">
        <ele>254.80000305176</ele>
        <time>2019-09-12T13:13:00Z</time>
      </trkpt>
      <trkpt lat="46.99761" lon="5.14479">
        <ele>254.60000610352</ele>
        <time>2019-09-12T13:13:02Z</time>
      </trkpt>
      <trkpt lat="46.99762" lon="5.14487">
        <ele>254.19999694824</ele>
        <time>2019-09-12T13:13:04Z</time>
      </trkpt>
      <trkpt lat="46.99762" lon="5.14489">
        <ele>254</ele>
        <time>2019-09-12T13:13:06Z</time>
      </trkpt>
      <trkpt lat="46.99762" lon="5.14489">
        <ele>254</ele>
        <time>2019-09-12T13:13:07Z</time>
      </trkpt>
      <trkpt lat="46.99763" lon="5.14489">
        <ele>254.80000305176</ele>
        <time>2019-09-12T13:18:31Z</time>
      </trkpt>
      <trkpt lat="46.99761" lon="5.14493">
        <ele>254.80000305176</ele>
        <time>2019-09-12T13:18:33Z</time>
      </trkpt>
      <trkpt lat="46.99757" lon="5.14508">
        <ele>254.80000305176</ele>
        <time>2019-09-12T13:18:38Z</time>
      </trkpt>
      <trkpt lat="46.99757" lon="5.14511">
        <ele>254.80000305176</ele>
        <time>2019-09-12T13:18:39Z</time>
      </trkpt>
      <trkpt lat="46.99755" lon="5.14541">
        <ele>255</ele>
        <time>2019-09-12T13:18:46Z</time>
      </trkpt>
      <trkpt lat="46.99754" lon="5.14566">
        <ele>255.39999389648</ele>
        <time>2019-09-12T13:18:52Z</time>
      </trkpt>
      <trkpt lat="46.99753" lon="5.14595">
        <ele>255.80000305176</ele>
        <time>2019-09-12T13:18:59Z</time>
      </trkpt>
      <trkpt lat="46.9975" lon="5.14614">
        <ele>256.39999389648</ele>
        <time>2019-09-12T13:19:04Z</time>
      </trkpt>
      <trkpt lat="46.99746" lon="5.14633">
        <ele>256.60000610352</ele>
        <time>2019-09-12T13:19:09Z</time>
      </trkpt>
      <trkpt lat="46.99745" lon="5.14643">
        <ele>256.79998779297</ele>
        <time>2019-09-12T13:19:11Z</time>
      </trkpt>
      <trkpt lat="46.99742" lon="5.14675">
        <ele>257.20001220703</ele>
        <time>2019-09-12T13:19:19Z</time>
      </trkpt>
      <trkpt lat="46.9974" lon="5.14679">
        <ele>257.20001220703</ele>
        <time>2019-09-12T13:19:23Z</time>
      </trkpt>
      <trkpt lat="46.9974" lon="5.1468">
        <ele>257.20001220703</ele>
        <time>2019-09-12T13:19:25Z</time>
      </trkpt>
      <trkpt lat="46.99744" lon="5.14682">
        <ele>257.20001220703</ele>
        <time>2019-09-12T13:19:28Z</time>
      </trkpt>
      <trkpt lat="46.99761" lon="5.14683">
        <ele>257.20001220703</ele>
        <time>2019-09-12T13:19:35Z</time>
      </trkpt>
      <trkpt lat="46.99781" lon="5.14686">
        <ele>257</ele>
        <time>2019-09-12T13:19:43Z</time>
      </trkpt>
      <trkpt lat="46.99801" lon="5.14689">
        <ele>257</ele>
        <time>2019-09-12T13:19:50Z</time>
      </trkpt>
      <trkpt lat="46.99827" lon="5.14692">
        <ele>256.79998779297</ele>
        <time>2019-09-12T13:19:58Z</time>
      </trkpt>
      <trkpt lat="46.99834" lon="5.14692">
        <ele>256.79998779297</ele>
        <time>2019-09-12T13:20:00Z</time>
      </trkpt>
      <trkpt lat="46.99843" lon="5.14688">
        <ele>256.79998779297</ele>
        <time>2019-09-12T13:20:04Z</time>
      </trkpt>
      <trkpt lat="46.99848" lon="5.14688">
        <ele>256.60000610352</ele>
        <time>2019-09-12T13:20:08Z</time>
      </trkpt>
      <trkpt lat="46.99852" lon="5.1469">
        <ele>256.39999389648</ele>
        <time>2019-09-12T13:20:20Z</time>
      </trkpt>
      <trkpt lat="46.99853" lon="5.14694">
        <ele>256.39999389648</ele>
        <time>2019-09-12T13:20:22Z</time>
      </trkpt>
      <trkpt lat="46.99853" lon="5.14701">
        <ele>256.39999389648</ele>
        <time>2019-09-12T13:20:24Z</time>
      </trkpt>
      <trkpt lat="46.99854" lon="5.14721">
        <ele>256.39999389648</ele>
        <time>2019-09-12T13:20:29Z</time>
      </trkpt>
      <trkpt lat="46.99854" lon="5.14729">
        <ele>256.39999389648</ele>
        <time>2019-09-12T13:20:31Z</time>
      </trkpt>
      <trkpt lat="46.99853" lon="5.14732">
        <ele>256.60000610352</ele>
        <time>2019-09-12T13:20:33Z</time>
      </trkpt>
      <trkpt lat="46.99855" lon="5.14732">
        <ele>256.60000610352</ele>
        <time>2019-09-12T13:20:36Z</time>
      </trkpt>
      <trkpt lat="46.99856" lon="5.14731">
        <ele>256.60000610352</ele>
        <time>2019-09-12T13:20:37Z</time>
      </trkpt>
      <trkpt lat="46.99856" lon="5.14719">
        <ele>256.60000610352</ele>
        <time>2019-09-12T13:20:43Z</time>
      </trkpt>
      <trkpt lat="46.99857" lon="5.14712">
        <ele>256.60000610352</ele>
        <time>2019-09-12T13:20:47Z</time>
      </trkpt>
      <trkpt lat="46.99857" lon="5.1471">
        <ele>256.60000610352</ele>
        <time>2019-09-12T13:20:48Z</time>
      </trkpt>
      <trkpt lat="46.99856" lon="5.14707">
        <ele>256.60000610352</ele>
        <time>2019-09-12T13:20:49Z</time>
      </trkpt>
      <trkpt lat="46.99851" lon="5.14702">
        <ele>256.60000610352</ele>
        <time>2019-09-12T13:20:53Z</time>
      </trkpt>
      <trkpt lat="46.99839" lon="5.14695">
        <ele>256.79998779297</ele>
        <time>2019-09-12T13:21:03Z</time>
      </trkpt>
      <trkpt lat="46.99838" lon="5.14694">
        <ele>256.79998779297</ele>
        <time>2019-09-12T13:21:04Z</time>
      </trkpt>
      <trkpt lat="46.99837" lon="5.14694">
        <ele>256.79998779297</ele>
        <time>2019-09-12T13:21:06Z</time>
      </trkpt>
      <trkpt lat="46.99833" lon="5.14696">
        <ele>257</ele>
        <time>2019-09-12T13:21:27Z</time>
      </trkpt>
      <trkpt lat="46.99837" lon="5.14694">
        <ele>257</ele>
        <time>2019-09-12T13:21:29Z</time>
      </trkpt>
      <trkpt lat="46.99845" lon="5.14688">
        <ele>256.79998779297</ele>
        <time>2019-09-12T13:21:34Z</time>
      </trkpt>
      <trkpt lat="46.99845" lon="5.14676">
        <ele>256.79998779297</ele>
        <time>2019-09-12T13:21:38Z</time>
      </trkpt>
      <trkpt lat="46.99845" lon="5.14643">
        <ele>256.60000610352</ele>
        <time>2019-09-12T13:21:46Z</time>
      </trkpt>
      <trkpt lat="46.99844" lon="5.14637">
        <ele>256.39999389648</ele>
        <time>2019-09-12T13:21:49Z</time>
      </trkpt>
      <trkpt lat="46.99842" lon="5.14636">
        <ele>256.39999389648</ele>
        <time>2019-09-12T13:21:50Z</time>
      </trkpt>
      <trkpt lat="46.99821" lon="5.14635">
        <ele>256.39999389648</ele>
        <time>2019-09-12T13:21:56Z</time>
      </trkpt>
      <trkpt lat="46.99793" lon="5.14628">
        <ele>256.39999389648</ele>
        <time>2019-09-12T13:22:04Z</time>
      </trkpt>
      <trkpt lat="46.9979" lon="5.14613">
        <ele>256.39999389648</ele>
        <time>2019-09-12T13:22:08Z</time>
      </trkpt>
      <trkpt lat="46.9979" lon="5.14609">
        <ele>256.39999389648</ele>
        <time>2019-09-12T13:22:09Z</time>
      </trkpt>
      <trkpt lat="46.99794" lon="5.14587">
        <ele>256.39999389648</ele>
        <time>2019-09-12T13:22:15Z</time>
      </trkpt>
      <trkpt lat="46.99794" lon="5.14585">
        <ele>256.39999389648</ele>
        <time>2019-09-12T13:22:16Z</time>
      </trkpt>
      <trkpt lat="46.99787" lon="5.1458">
        <ele>256.20001220703</ele>
        <time>2019-09-12T13:22:19Z</time>
      </trkpt>
      <trkpt lat="46.99784" lon="5.14578">
        <ele>256.20001220703</ele>
        <time>2019-09-12T13:22:20Z</time>
      </trkpt>
      <trkpt lat="46.99773" lon="5.1457">
        <ele>256.20001220703</ele>
        <time>2019-09-12T13:22:24Z</time>
      </trkpt>
      <trkpt lat="46.99771" lon="5.14557">
        <ele>256</ele>
        <time>2019-09-12T13:22:27Z</time>
      </trkpt>
      <trkpt lat="46.99774" lon="5.14513">
        <ele>255.80000305176</ele>
        <time>2019-09-12T13:22:34Z</time>
      </trkpt>
      <trkpt lat="46.99773" lon="5.14489">
        <ele>255.60000610352</ele>
        <time>2019-09-12T13:22:38Z</time>
      </trkpt>
      <trkpt lat="46.99772" lon="5.14483">
        <ele>255.60000610352</ele>
        <time>2019-09-12T13:22:39Z</time>
      </trkpt>
      <trkpt lat="46.99761" lon="5.14467">
        <ele>255.19999694824</ele>
        <time>2019-09-12T13:22:43Z</time>
      </trkpt>
      <trkpt lat="46.99748" lon="5.14469">
        <ele>255</ele>
        <time>2019-09-12T13:22:46Z</time>
      </trkpt>
      <trkpt lat="46.99744" lon="5.14471">
        <ele>254.80000305176</ele>
        <time>2019-09-12T13:22:47Z</time>
      </trkpt>
      <trkpt lat="46.99726" lon="5.14478">
        <ele>254.60000610352</ele>
        <time>2019-09-12T13:22:51Z</time>
      </trkpt>
      <trkpt lat="46.99708" lon="5.14489">
        <ele>254.39999389648</ele>
        <time>2019-09-12T13:22:55Z</time>
      </trkpt>
      <trkpt lat="46.99679" lon="5.14504">
        <ele>254.39999389648</ele>
        <time>2019-09-12T13:23:02Z</time>
      </trkpt>
      <trkpt lat="46.99671" lon="5.14507">
        <ele>254.39999389648</ele>
        <time>2019-09-12T13:23:04Z</time>
      </trkpt>
      <trkpt lat="46.99663" lon="5.14512">
        <ele>254.60000610352</ele>
        <time>2019-09-12T13:23:06Z</time>
      </trkpt>
      <trkpt lat="46.99635" lon="5.14536">
        <ele>254.60000610352</ele>
        <time>2019-09-12T13:23:13Z</time>
      </trkpt>
      <trkpt lat="46.99605" lon="5.1456">
        <ele>254.60000610352</ele>
        <time>2019-09-12T13:23:20Z</time>
      </trkpt>
      <trkpt lat="46.99574" lon="5.14585">
        <ele>254.60000610352</ele>
        <time>2019-09-12T13:23:27Z</time>
      </trkpt>
      <trkpt lat="46.99535" lon="5.14617">
        <ele>254.19999694824</ele>
        <time>2019-09-12T13:23:36Z</time>
      </trkpt>
      <trkpt lat="46.99496" lon="5.14648">
        <ele>254.39999389648</ele>
        <time>2019-09-12T13:23:45Z</time>
      </trkpt>
      <trkpt lat="46.99458" lon="5.1468">
        <ele>254.19999694824</ele>
        <time>2019-09-12T13:23:54Z</time>
      </trkpt>
      <trkpt lat="46.9941" lon="5.14719">
        <ele>254</ele>
        <time>2019-09-12T13:24:05Z</time>
      </trkpt>
      <trkpt lat="46.99392" lon="5.14732">
        <ele>253.80000305176</ele>
        <time>2019-09-12T13:24:09Z</time>
      </trkpt>
      <trkpt lat="46.99377" lon="5.14736">
        <ele>253.80000305176</ele>
        <time>2019-09-12T13:24:12Z</time>
      </trkpt>
      <trkpt lat="46.99372" lon="5.14737">
        <ele>253.80000305176</ele>
        <time>2019-09-12T13:24:13Z</time>
      </trkpt>
      <trkpt lat="46.99347" lon="5.14742">
        <ele>253.60000610352</ele>
        <time>2019-09-12T13:24:18Z</time>
      </trkpt>
      <trkpt lat="46.99337" lon="5.14744">
        <ele>253.39999389648</ele>
        <time>2019-09-12T13:24:20Z</time>
      </trkpt>
      <trkpt lat="46.99297" lon="5.14744">
        <ele>253.19999694824</ele>
        <time>2019-09-12T13:24:28Z</time>
      </trkpt>
      <trkpt lat="46.99258" lon="5.14729">
        <ele>253</ele>
        <time>2019-09-12T13:24:36Z</time>
      </trkpt>
      <trkpt lat="46.99211" lon="5.147">
        <ele>252.60000610352</ele>
        <time>2019-09-12T13:24:46Z</time>
      </trkpt>
      <trkpt lat="46.99181" lon="5.1468">
        <ele>252.60000610352</ele>
        <time>2019-09-12T13:24:53Z</time>
      </trkpt>
      <trkpt lat="46.99147" lon="5.14656">
        <ele>252.60000610352</ele>
        <time>2019-09-12T13:25:01Z</time>
      </trkpt>
      <trkpt lat="46.99112" lon="5.14629">
        <ele>253</ele>
        <time>2019-09-12T13:25:09Z</time>
      </trkpt>
      <trkpt lat="46.99091" lon="5.14611">
        <ele>253</ele>
        <time>2019-09-12T13:25:14Z</time>
      </trkpt>
      <trkpt lat="46.99086" lon="5.14608">
        <ele>253</ele>
        <time>2019-09-12T13:25:15Z</time>
      </trkpt>
      <trkpt lat="46.9906" lon="5.14588">
        <ele>253</ele>
        <time>2019-09-12T13:25:21Z</time>
      </trkpt>
      <trkpt lat="46.99038" lon="5.1457">
        <ele>252.80000305176</ele>
        <time>2019-09-12T13:25:27Z</time>
      </trkpt>
      <trkpt lat="46.9903" lon="5.14563">
        <ele>252.60000610352</ele>
        <time>2019-09-12T13:25:29Z</time>
      </trkpt>
      <trkpt lat="46.99013" lon="5.1455">
        <ele>252.60000610352</ele>
        <time>2019-09-12T13:25:33Z</time>
      </trkpt>
      <trkpt lat="46.98977" lon="5.14524">
        <ele>252.80000305176</ele>
        <time>2019-09-12T13:25:41Z</time>
      </trkpt>
      <trkpt lat="46.98964" lon="5.14518">
        <ele>252.60000610352</ele>
        <time>2019-09-12T13:25:44Z</time>
      </trkpt>
      <trkpt lat="46.9895" lon="5.14515">
        <ele>252.60000610352</ele>
        <time>2019-09-12T13:25:47Z</time>
      </trkpt>
      <trkpt lat="46.98918" lon="5.14511">
        <ele>252.60000610352</ele>
        <time>2019-09-12T13:25:54Z</time>
      </trkpt>
      <trkpt lat="46.9888" lon="5.14507">
        <ele>252.39999389648</ele>
        <time>2019-09-12T13:26:02Z</time>
      </trkpt>
      <trkpt lat="46.98835" lon="5.14505">
        <ele>252.39999389648</ele>
        <time>2019-09-12T13:26:11Z</time>
      </trkpt>
      <trkpt lat="46.98816" lon="5.14505">
        <ele>252.39999389648</ele>
        <time>2019-09-12T13:26:15Z</time>
      </trkpt>
      <trkpt lat="46.98806" lon="5.14504">
        <ele>252.39999389648</ele>
        <time>2019-09-12T13:26:17Z</time>
      </trkpt>
      <trkpt lat="46.98798" lon="5.14501">
        <ele>252.39999389648</ele>
        <time>2019-09-12T13:26:19Z</time>
      </trkpt>
      <trkpt lat="46.98785" lon="5.14494">
        <ele>252.60000610352</ele>
        <time>2019-09-12T13:26:22Z</time>
      </trkpt>
      <trkpt lat="46.98755" lon="5.14474">
        <ele>252.60000610352</ele>
        <time>2019-09-12T13:26:29Z</time>
      </trkpt>
      <trkpt lat="46.98742" lon="5.14465">
        <ele>252.60000610352</ele>
        <time>2019-09-12T13:26:32Z</time>
      </trkpt>
      <trkpt lat="46.98729" lon="5.14457">
        <ele>252.60000610352</ele>
        <time>2019-09-12T13:26:35Z</time>
      </trkpt>
      <trkpt lat="46.98717" lon="5.14448">
        <ele>252.60000610352</ele>
        <time>2019-09-12T13:26:38Z</time>
      </trkpt>
      <trkpt lat="46.98705" lon="5.14438">
        <ele>252.60000610352</ele>
        <time>2019-09-12T13:26:41Z</time>
      </trkpt>
      <trkpt lat="46.98702" lon="5.14433">
        <ele>252.60000610352</ele>
        <time>2019-09-12T13:26:42Z</time>
      </trkpt>
      <trkpt lat="46.98661" lon="5.14391">
        <ele>252.60000610352</ele>
        <time>2019-09-12T13:26:52Z</time>
      </trkpt>
      <trkpt lat="46.98648" lon="5.14371">
        <ele>253</ele>
        <time>2019-09-12T13:26:56Z</time>
      </trkpt>
      <trkpt lat="46.98639" lon="5.14353">
        <ele>253</ele>
        <time>2019-09-12T13:26:59Z</time>
      </trkpt>
      <trkpt lat="46.98617" lon="5.14304">
        <ele>253</ele>
        <time>2019-09-12T13:27:07Z</time>
      </trkpt>
      <trkpt lat="46.98593" lon="5.1423">
        <ele>253</ele>
        <time>2019-09-12T13:27:18Z</time>
      </trkpt>
      <trkpt lat="46.98574" lon="5.1417">
        <ele>253</ele>
        <time>2019-09-12T13:27:27Z</time>
      </trkpt>
      <trkpt lat="46.98556" lon="5.14118">
        <ele>253</ele>
        <time>2019-09-12T13:27:35Z</time>
      </trkpt>
      <trkpt lat="46.98537" lon="5.14073">
        <ele>253</ele>
        <time>2019-09-12T13:27:42Z</time>
      </trkpt>
      <trkpt lat="46.98515" lon="5.14024">
        <ele>253</ele>
        <time>2019-09-12T13:27:50Z</time>
      </trkpt>
      <trkpt lat="46.98512" lon="5.14018">
        <ele>253</ele>
        <time>2019-09-12T13:27:51Z</time>
      </trkpt>
      <trkpt lat="46.98495" lon="5.13981">
        <ele>253</ele>
        <time>2019-09-12T13:27:57Z</time>
      </trkpt>
      <trkpt lat="46.98468" lon="5.13929">
        <ele>253.19999694824</ele>
        <time>2019-09-12T13:28:06Z</time>
      </trkpt>
      <trkpt lat="46.9844" lon="5.13876">
        <ele>253.19999694824</ele>
        <time>2019-09-12T13:28:15Z</time>
      </trkpt>
      <trkpt lat="46.98415" lon="5.13834">
        <ele>253.39999389648</ele>
        <time>2019-09-12T13:28:23Z</time>
      </trkpt>
      <trkpt lat="46.98384" lon="5.13778">
        <ele>253.19999694824</ele>
        <time>2019-09-12T13:28:33Z</time>
      </trkpt>
      <trkpt lat="46.98357" lon="5.13733">
        <ele>253</ele>
        <time>2019-09-12T13:28:41Z</time>
      </trkpt>
      <trkpt lat="46.98323" lon="5.13692">
        <ele>253</ele>
        <time>2019-09-12T13:28:50Z</time>
      </trkpt>
      <trkpt lat="46.98294" lon="5.13666">
        <ele>253</ele>
        <time>2019-09-12T13:28:57Z</time>
      </trkpt>
      <trkpt lat="46.98282" lon="5.13657">
        <ele>253.19999694824</ele>
        <time>2019-09-12T13:29:00Z</time>
      </trkpt>
      <trkpt lat="46.98262" lon="5.13642">
        <ele>253.80000305176</ele>
        <time>2019-09-12T13:29:05Z</time>
      </trkpt>
      <trkpt lat="46.98226" lon="5.13617">
        <ele>253.80000305176</ele>
        <time>2019-09-12T13:29:13Z</time>
      </trkpt>
      <trkpt lat="46.98193" lon="5.1359">
        <ele>253.19999694824</ele>
        <time>2019-09-12T13:29:20Z</time>
      </trkpt>
      <trkpt lat="46.98148" lon="5.13553">
        <ele>252.60000610352</ele>
        <time>2019-09-12T13:29:30Z</time>
      </trkpt>
      <trkpt lat="46.9814" lon="5.13546">
        <ele>252.39999389648</ele>
        <time>2019-09-12T13:29:32Z</time>
      </trkpt>
      <trkpt lat="46.98108" lon="5.13521">
        <ele>252.39999389648</ele>
        <time>2019-09-12T13:29:39Z</time>
      </trkpt>
      <trkpt lat="46.98069" lon="5.13489">
        <ele>252.60000610352</ele>
        <time>2019-09-12T13:29:48Z</time>
      </trkpt>
      <trkpt lat="46.98033" lon="5.1346">
        <ele>252.60000610352</ele>
        <time>2019-09-12T13:29:56Z</time>
      </trkpt>
      <trkpt lat="46.97998" lon="5.13432">
        <ele>252.60000610352</ele>
        <time>2019-09-12T13:30:04Z</time>
      </trkpt>
      <trkpt lat="46.97962" lon="5.13403">
        <ele>252.60000610352</ele>
        <time>2019-09-12T13:30:12Z</time>
      </trkpt>
      <trkpt lat="46.97912" lon="5.13364">
        <ele>252.60000610352</ele>
        <time>2019-09-12T13:30:23Z</time>
      </trkpt>
      <trkpt lat="46.97868" lon="5.13329">
        <ele>252.80000305176</ele>
        <time>2019-09-12T13:30:33Z</time>
      </trkpt>
      <trkpt lat="46.97828" lon="5.13298">
        <ele>252.80000305176</ele>
        <time>2019-09-12T13:30:42Z</time>
      </trkpt>
      <trkpt lat="46.97795" lon="5.13273">
        <ele>252.80000305176</ele>
        <time>2019-09-12T13:30:50Z</time>
      </trkpt>
      <trkpt lat="46.97775" lon="5.13257">
        <ele>253.19999694824</ele>
        <time>2019-09-12T13:30:57Z</time>
      </trkpt>
      <trkpt lat="46.97766" lon="5.13251">
        <ele>254</ele>
        <time>2019-09-12T13:31:01Z</time>
      </trkpt>
      <trkpt lat="46.97764" lon="5.13249">
        <ele>254.39999389648</ele>
        <time>2019-09-12T13:31:02Z</time>
      </trkpt>
      <trkpt lat="46.97756" lon="5.13241">
        <ele>255</ele>
        <time>2019-09-12T13:31:05Z</time>
      </trkpt>
      <trkpt lat="46.97752" lon="5.13238">
        <ele>255</ele>
        <time>2019-09-12T13:31:06Z</time>
      </trkpt>
      <trkpt lat="46.97732" lon="5.13221">
        <ele>255</ele>
        <time>2019-09-12T13:31:10Z</time>
      </trkpt>
      <trkpt lat="46.9769" lon="5.13192">
        <ele>253.39999389648</ele>
        <time>2019-09-12T13:31:18Z</time>
      </trkpt>
      <trkpt lat="46.97686" lon="5.13189">
        <ele>253.19999694824</ele>
        <time>2019-09-12T13:31:19Z</time>
      </trkpt>
      <trkpt lat="46.97659" lon="5.13176">
        <ele>252.80000305176</ele>
        <time>2019-09-12T13:31:25Z</time>
      </trkpt>
      <trkpt lat="46.9763" lon="5.13175">
        <ele>252.80000305176</ele>
        <time>2019-09-12T13:31:31Z</time>
      </trkpt>
      <trkpt lat="46.97625" lon="5.13176">
        <ele>252.80000305176</ele>
        <time>2019-09-12T13:31:32Z</time>
      </trkpt>
      <trkpt lat="46.97605" lon="5.13173">
        <ele>252.80000305176</ele>
        <time>2019-09-12T13:31:36Z</time>
      </trkpt>
      <trkpt lat="46.976" lon="5.13171">
        <ele>252.80000305176</ele>
        <time>2019-09-12T13:31:37Z</time>
      </trkpt>
      <trkpt lat="46.97567" lon="5.13154">
        <ele>252.80000305176</ele>
        <time>2019-09-12T13:31:44Z</time>
      </trkpt>
      <trkpt lat="46.97535" lon="5.13133">
        <ele>252.80000305176</ele>
        <time>2019-09-12T13:31:51Z</time>
      </trkpt>
      <trkpt lat="46.97502" lon="5.13114">
        <ele>253</ele>
        <time>2019-09-12T13:31:58Z</time>
      </trkpt>
      <trkpt lat="46.97466" lon="5.13089">
        <ele>252.80000305176</ele>
        <time>2019-09-12T13:32:06Z</time>
      </trkpt>
      <trkpt lat="46.97442" lon="5.1306">
        <ele>252.80000305176</ele>
        <time>2019-09-12T13:32:12Z</time>
      </trkpt>
      <trkpt lat="46.9741" lon="5.13011">
        <ele>252.60000610352</ele>
        <time>2019-09-12T13:32:21Z</time>
      </trkpt>
      <trkpt lat="46.97385" lon="5.12965">
        <ele>252.80000305176</ele>
        <time>2019-09-12T13:32:29Z</time>
      </trkpt>
      <trkpt lat="46.97367" lon="5.12933">
        <ele>252.80000305176</ele>
        <time>2019-09-12T13:32:35Z</time>
      </trkpt>
      <trkpt lat="46.97344" lon="5.12885">
        <ele>252.80000305176</ele>
        <time>2019-09-12T13:32:43Z</time>
      </trkpt>
      <trkpt lat="46.97326" lon="5.12831">
        <ele>252.80000305176</ele>
        <time>2019-09-12T13:32:51Z</time>
      </trkpt>
      <trkpt lat="46.97309" lon="5.12768">
        <ele>252.80000305176</ele>
        <time>2019-09-12T13:33:00Z</time>
      </trkpt>
      <trkpt lat="46.97295" lon="5.1269">
        <ele>252.80000305176</ele>
        <time>2019-09-12T13:33:11Z</time>
      </trkpt>
      <trkpt lat="46.97288" lon="5.12615">
        <ele>253</ele>
        <time>2019-09-12T13:33:21Z</time>
      </trkpt>
      <trkpt lat="46.97283" lon="5.12541">
        <ele>253</ele>
        <time>2019-09-12T13:33:31Z</time>
      </trkpt>
      <trkpt lat="46.97278" lon="5.1247">
        <ele>253</ele>
        <time>2019-09-12T13:33:41Z</time>
      </trkpt>
      <trkpt lat="46.97272" lon="5.12392">
        <ele>253</ele>
        <time>2019-09-12T13:33:52Z</time>
      </trkpt>
      <trkpt lat="46.97266" lon="5.12341">
        <ele>253</ele>
        <time>2019-09-12T13:33:59Z</time>
      </trkpt>
      <trkpt lat="46.97255" lon="5.12293">
        <ele>253.19999694824</ele>
        <time>2019-09-12T13:34:06Z</time>
      </trkpt>
      <trkpt lat="46.97244" lon="5.12247">
        <ele>253.19999694824</ele>
        <time>2019-09-12T13:34:13Z</time>
      </trkpt>
      <trkpt lat="46.97236" lon="5.12202">
        <ele>253.19999694824</ele>
        <time>2019-09-12T13:34:20Z</time>
      </trkpt>
      <trkpt lat="46.97216" lon="5.12153">
        <ele>253</ele>
        <time>2019-09-12T13:34:28Z</time>
      </trkpt>
      <trkpt lat="46.97197" lon="5.1212">
        <ele>253</ele>
        <time>2019-09-12T13:34:34Z</time>
      </trkpt>
      <trkpt lat="46.97185" lon="5.12105">
        <ele>253</ele>
        <time>2019-09-12T13:34:37Z</time>
      </trkpt>
      <trkpt lat="46.97152" lon="5.1207">
        <ele>252.80000305176</ele>
        <time>2019-09-12T13:34:45Z</time>
      </trkpt>
      <trkpt lat="46.97112" lon="5.12045">
        <ele>252.80000305176</ele>
        <time>2019-09-12T13:34:53Z</time>
      </trkpt>
      <trkpt lat="46.97061" lon="5.12016">
        <ele>252.80000305176</ele>
        <time>2019-09-12T13:35:03Z</time>
      </trkpt>
      <trkpt lat="46.97019" lon="5.11997">
        <ele>252.80000305176</ele>
        <time>2019-09-12T13:35:11Z</time>
      </trkpt>
      <trkpt lat="46.96978" lon="5.11987">
        <ele>252.80000305176</ele>
        <time>2019-09-12T13:35:19Z</time>
      </trkpt>
      <trkpt lat="46.96935" lon="5.11978">
        <ele>253</ele>
        <time>2019-09-12T13:35:28Z</time>
      </trkpt>
      <trkpt lat="46.96893" lon="5.1196">
        <ele>253</ele>
        <time>2019-09-12T13:35:37Z</time>
      </trkpt>
      <trkpt lat="46.96888" lon="5.11958">
        <ele>253</ele>
        <time>2019-09-12T13:35:38Z</time>
      </trkpt>
      <trkpt lat="46.96865" lon="5.11952">
        <ele>253</ele>
        <time>2019-09-12T13:35:43Z</time>
      </trkpt>
      <trkpt lat="46.96825" lon="5.11946">
        <ele>253</ele>
        <time>2019-09-12T13:35:51Z</time>
      </trkpt>
      <trkpt lat="46.96795" lon="5.11941">
        <ele>253</ele>
        <time>2019-09-12T13:35:57Z</time>
      </trkpt>
      <trkpt lat="46.96773" lon="5.11939">
        <ele>253</ele>
        <time>2019-09-12T13:36:02Z</time>
      </trkpt>
      <trkpt lat="46.96769" lon="5.11939">
        <ele>253</ele>
        <time>2019-09-12T13:36:03Z</time>
      </trkpt>
      <trkpt lat="46.96725" lon="5.11939">
        <ele>252.80000305176</ele>
        <time>2019-09-12T13:36:12Z</time>
      </trkpt>
      <trkpt lat="46.96685" lon="5.11942">
        <ele>252.80000305176</ele>
        <time>2019-09-12T13:36:20Z</time>
      </trkpt>
      <trkpt lat="46.96634" lon="5.11948">
        <ele>253</ele>
        <time>2019-09-12T13:36:30Z</time>
      </trkpt>
      <trkpt lat="46.96579" lon="5.11955">
        <ele>252.80000305176</ele>
        <time>2019-09-12T13:36:41Z</time>
      </trkpt>
      <trkpt lat="46.96536" lon="5.11968">
        <ele>252.60000610352</ele>
        <time>2019-09-12T13:36:50Z</time>
      </trkpt>
      <trkpt lat="46.96495" lon="5.1199">
        <ele>252.60000610352</ele>
        <time>2019-09-12T13:36:59Z</time>
      </trkpt>
      <trkpt lat="46.96462" lon="5.1201">
        <ele>252.60000610352</ele>
        <time>2019-09-12T13:37:06Z</time>
      </trkpt>
      <trkpt lat="46.96458" lon="5.12014">
        <ele>252.60000610352</ele>
        <time>2019-09-12T13:37:07Z</time>
      </trkpt>
      <trkpt lat="46.96413" lon="5.12046">
        <ele>252.80000305176</ele>
        <time>2019-09-12T13:37:17Z</time>
      </trkpt>
      <trkpt lat="46.96373" lon="5.12074">
        <ele>252.80000305176</ele>
        <time>2019-09-12T13:37:26Z</time>
      </trkpt>
      <trkpt lat="46.96333" lon="5.12101">
        <ele>252.80000305176</ele>
        <time>2019-09-12T13:37:35Z</time>
      </trkpt>
      <trkpt lat="46.96329" lon="5.12103">
        <ele>252.80000305176</ele>
        <time>2019-09-12T13:37:36Z</time>
      </trkpt>
      <trkpt lat="46.96305" lon="5.12116">
        <ele>252.80000305176</ele>
        <time>2019-09-12T13:37:41Z</time>
      </trkpt>
      <trkpt lat="46.96291" lon="5.12124">
        <ele>252.80000305176</ele>
        <time>2019-09-12T13:37:44Z</time>
      </trkpt>
      <trkpt lat="46.96273" lon="5.12135">
        <ele>252.80000305176</ele>
        <time>2019-09-12T13:37:48Z</time>
      </trkpt>
      <trkpt lat="46.96269" lon="5.12137">
        <ele>252.80000305176</ele>
        <time>2019-09-12T13:37:49Z</time>
      </trkpt>
      <trkpt lat="46.96229" lon="5.12148">
        <ele>252.60000610352</ele>
        <time>2019-09-12T13:37:57Z</time>
      </trkpt>
      <trkpt lat="46.9619" lon="5.12148">
        <ele>252.60000610352</ele>
        <time>2019-09-12T13:38:05Z</time>
      </trkpt>
      <trkpt lat="46.96152" lon="5.12138">
        <ele>252.80000305176</ele>
        <time>2019-09-12T13:38:13Z</time>
      </trkpt>
      <trkpt lat="46.96125" lon="5.12123">
        <ele>252.80000305176</ele>
        <time>2019-09-12T13:38:20Z</time>
      </trkpt>
      <trkpt lat="46.96109" lon="5.12112">
        <ele>252.80000305176</ele>
        <time>2019-09-12T13:38:25Z</time>
      </trkpt>
      <trkpt lat="46.96106" lon="5.12109">
        <ele>252.80000305176</ele>
        <time>2019-09-12T13:38:26Z</time>
      </trkpt>
      <trkpt lat="46.96087" lon="5.12093">
        <ele>252.80000305176</ele>
        <time>2019-09-12T13:38:31Z</time>
      </trkpt>
      <trkpt lat="46.96068" lon="5.12087">
        <ele>253</ele>
        <time>2019-09-12T13:38:36Z</time>
      </trkpt>
      <trkpt lat="46.9605" lon="5.12077">
        <ele>253.39999389648</ele>
        <time>2019-09-12T13:38:43Z</time>
      </trkpt>
      <trkpt lat="46.9604" lon="5.12065">
        <ele>254.39999389648</ele>
        <time>2019-09-12T13:38:47Z</time>
      </trkpt>
      <trkpt lat="46.9603" lon="5.12052">
        <ele>255</ele>
        <time>2019-09-12T13:38:51Z</time>
      </trkpt>
      <trkpt lat="46.96012" lon="5.12024">
        <ele>255.39999389648</ele>
        <time>2019-09-12T13:38:57Z</time>
      </trkpt>
      <trkpt lat="46.96004" lon="5.12014">
        <ele>255.39999389648</ele>
        <time>2019-09-12T13:38:59Z</time>
      </trkpt>
      <trkpt lat="46.95991" lon="5.12004">
        <ele>255.39999389648</ele>
        <time>2019-09-12T13:39:02Z</time>
      </trkpt>
      <trkpt lat="46.95954" lon="5.11989">
        <ele>255.39999389648</ele>
        <time>2019-09-12T13:39:10Z</time>
      </trkpt>
      <trkpt lat="46.95936" lon="5.11981">
        <ele>255.60000610352</ele>
        <time>2019-09-12T13:39:14Z</time>
      </trkpt>
      <trkpt lat="46.95922" lon="5.11976">
        <ele>255.60000610352</ele>
        <time>2019-09-12T13:39:17Z</time>
      </trkpt>
      <trkpt lat="46.95912" lon="5.11975">
        <ele>255.80000305176</ele>
        <time>2019-09-12T13:39:19Z</time>
      </trkpt>
      <trkpt lat="46.95897" lon="5.11977">
        <ele>256</ele>
        <time>2019-09-12T13:39:22Z</time>
      </trkpt>
      <trkpt lat="46.95858" lon="5.11992">
        <ele>256.39999389648</ele>
        <time>2019-09-12T13:39:30Z</time>
      </trkpt>
      <trkpt lat="46.95853" lon="5.11994">
        <ele>256.39999389648</ele>
        <time>2019-09-12T13:39:31Z</time>
      </trkpt>
      <trkpt lat="46.95849" lon="5.11997">
        <ele>256.39999389648</ele>
        <time>2019-09-12T13:39:32Z</time>
      </trkpt>
      <trkpt lat="46.95843" lon="5.11998">
        <ele>256.39999389648</ele>
        <time>2019-09-12T13:39:34Z</time>
      </trkpt>
      <trkpt lat="46.95841" lon="5.11999">
        <ele>256.39999389648</ele>
        <time>2019-09-12T13:39:37Z</time>
      </trkpt>
      <trkpt lat="46.9584" lon="5.12001">
        <ele>256.20001220703</ele>
        <time>2019-09-12T13:39:40Z</time>
      </trkpt>
      <trkpt lat="46.9583" lon="5.12009">
        <ele>256</ele>
        <time>2019-09-12T13:39:44Z</time>
      </trkpt>
      <trkpt lat="46.95812" lon="5.12027">
        <ele>255.80000305176</ele>
        <time>2019-09-12T13:39:49Z</time>
      </trkpt>
      <trkpt lat="46.95808" lon="5.12032">
        <ele>255.80000305176</ele>
        <time>2019-09-12T13:39:50Z</time>
      </trkpt>
      <trkpt lat="46.95802" lon="5.12042">
        <ele>255.80000305176</ele>
        <time>2019-09-12T13:39:52Z</time>
      </trkpt>
      <trkpt lat="46.95794" lon="5.1206">
        <ele>255.80000305176</ele>
        <time>2019-09-12T13:39:55Z</time>
      </trkpt>
      <trkpt lat="46.9578" lon="5.12115">
        <ele>255.80000305176</ele>
        <time>2019-09-12T13:40:03Z</time>
      </trkpt>
      <trkpt lat="46.95762" lon="5.1219">
        <ele>255.80000305176</ele>
        <time>2019-09-12T13:40:14Z</time>
      </trkpt>
      <trkpt lat="46.95746" lon="5.12253">
        <ele>256</ele>
        <time>2019-09-12T13:40:23Z</time>
      </trkpt>
      <trkpt lat="46.95732" lon="5.12317">
        <ele>256.20001220703</ele>
        <time>2019-09-12T13:40:32Z</time>
      </trkpt>
      <trkpt lat="46.95727" lon="5.12337">
        <ele>256.20001220703</ele>
        <time>2019-09-12T13:40:35Z</time>
      </trkpt>
      <trkpt lat="46.95718" lon="5.12354">
        <ele>256.20001220703</ele>
        <time>2019-09-12T13:40:38Z</time>
      </trkpt>
      <trkpt lat="46.95704" lon="5.12363">
        <ele>256.20001220703</ele>
        <time>2019-09-12T13:40:41Z</time>
      </trkpt>
      <trkpt lat="46.95699" lon="5.12365">
        <ele>256.20001220703</ele>
        <time>2019-09-12T13:40:42Z</time>
      </trkpt>
      <trkpt lat="46.95645" lon="5.12386">
        <ele>256.39999389648</ele>
        <time>2019-09-12T13:40:53Z</time>
      </trkpt>
      <trkpt lat="46.95611" lon="5.12399">
        <ele>256.60000610352</ele>
        <time>2019-09-12T13:41:00Z</time>
      </trkpt>
      <trkpt lat="46.95592" lon="5.12406">
        <ele>256.60000610352</ele>
        <time>2019-09-12T13:41:04Z</time>
      </trkpt>
      <trkpt lat="46.95544" lon="5.1242">
        <ele>257.20001220703</ele>
        <time>2019-09-12T13:41:14Z</time>
      </trkpt>
      <trkpt lat="46.95501" lon="5.12421">
        <ele>257.60000610352</ele>
        <time>2019-09-12T13:41:23Z</time>
      </trkpt>
      <trkpt lat="46.95465" lon="5.12422">
        <ele>258.39999389648</ele>
        <time>2019-09-12T13:41:31Z</time>
      </trkpt>
      <trkpt lat="46.95448" lon="5.12421">
        <ele>258.60000610352</ele>
        <time>2019-09-12T13:41:35Z</time>
      </trkpt>
      <trkpt lat="46.95426" lon="5.1242">
        <ele>259.20001220703</ele>
        <time>2019-09-12T13:41:40Z</time>
      </trkpt>
      <trkpt lat="46.95414" lon="5.12419">
        <ele>259.79998779297</ele>
        <time>2019-09-12T13:41:43Z</time>
      </trkpt>
      <trkpt lat="46.95406" lon="5.12418">
        <ele>260</ele>
        <time>2019-09-12T13:41:45Z</time>
      </trkpt>
      <trkpt lat="46.95402" lon="5.12418">
        <ele>260</ele>
        <time>2019-09-12T13:41:46Z</time>
      </trkpt>
      <trkpt lat="46.9537" lon="5.12417">
        <ele>260.79998779297</ele>
        <time>2019-09-12T13:41:54Z</time>
      </trkpt>
      <trkpt lat="46.95365" lon="5.12417">
        <ele>261</ele>
        <time>2019-09-12T13:41:55Z</time>
      </trkpt>
      <trkpt lat="46.95341" lon="5.12415">
        <ele>261.79998779297</ele>
        <time>2019-09-12T13:42:02Z</time>
      </trkpt>
      <trkpt lat="46.95334" lon="5.12416">
        <ele>262</ele>
        <time>2019-09-12T13:42:04Z</time>
      </trkpt>
      <trkpt lat="46.95318" lon="5.12415">
        <ele>262.39999389648</ele>
        <time>2019-09-12T13:42:08Z</time>
      </trkpt>
      <trkpt lat="46.95295" lon="5.12415">
        <ele>263</ele>
        <time>2019-09-12T13:42:14Z</time>
      </trkpt>
      <trkpt lat="46.95287" lon="5.12414">
        <ele>263.20001220703</ele>
        <time>2019-09-12T13:42:16Z</time>
      </trkpt>
      <trkpt lat="46.95254" lon="5.12412">
        <ele>264</ele>
        <time>2019-09-12T13:42:24Z</time>
      </trkpt>
      <trkpt lat="46.95246" lon="5.12411">
        <ele>264.20001220703</ele>
        <time>2019-09-12T13:42:26Z</time>
      </trkpt>
      <trkpt lat="46.95221" lon="5.12408">
        <ele>265.20001220703</ele>
        <time>2019-09-12T13:42:32Z</time>
      </trkpt>
      <trkpt lat="46.95209" lon="5.12405">
        <ele>265.39999389648</ele>
        <time>2019-09-12T13:42:35Z</time>
      </trkpt>
      <trkpt lat="46.95192" lon="5.12402">
        <ele>265.60000610352</ele>
        <time>2019-09-12T13:42:39Z</time>
      </trkpt>
      <trkpt lat="46.95174" lon="5.12397">
        <ele>265.79998779297</ele>
        <time>2019-09-12T13:42:43Z</time>
      </trkpt>
      <trkpt lat="46.95132" lon="5.12387">
        <ele>266.39999389648</ele>
        <time>2019-09-12T13:42:53Z</time>
      </trkpt>
      <trkpt lat="46.95119" lon="5.12383">
        <ele>266.39999389648</ele>
        <time>2019-09-12T13:42:56Z</time>
      </trkpt>
      <trkpt lat="46.95093" lon="5.12375">
        <ele>266.60000610352</ele>
        <time>2019-09-12T13:43:02Z</time>
      </trkpt>
      <trkpt lat="46.95058" lon="5.12364">
        <ele>266.79998779297</ele>
        <time>2019-09-12T13:43:10Z</time>
      </trkpt>
      <trkpt lat="46.95053" lon="5.12361">
        <ele>266.79998779297</ele>
        <time>2019-09-12T13:43:11Z</time>
      </trkpt>
      <trkpt lat="46.95012" lon="5.1234">
        <ele>266.60000610352</ele>
        <time>2019-09-12T13:43:20Z</time>
      </trkpt>
      <trkpt lat="46.94975" lon="5.12316">
        <ele>266.60000610352</ele>
        <time>2019-09-12T13:43:28Z</time>
      </trkpt>
      <trkpt lat="46.94944" lon="5.12291">
        <ele>266.39999389648</ele>
        <time>2019-09-12T13:43:35Z</time>
      </trkpt>
      <trkpt lat="46.9491" lon="5.12258">
        <ele>266.39999389648</ele>
        <time>2019-09-12T13:43:43Z</time>
      </trkpt>
      <trkpt lat="46.94874" lon="5.12226">
        <ele>266.39999389648</ele>
        <time>2019-09-12T13:43:51Z</time>
      </trkpt>
      <trkpt lat="46.94828" lon="5.12189">
        <ele>266.20001220703</ele>
        <time>2019-09-12T13:44:01Z</time>
      </trkpt>
      <trkpt lat="46.94824" lon="5.12185">
        <ele>266.20001220703</ele>
        <time>2019-09-12T13:44:02Z</time>
      </trkpt>
      <trkpt lat="46.94803" lon="5.12164">
        <ele>266.20001220703</ele>
        <time>2019-09-12T13:44:07Z</time>
      </trkpt>
      <trkpt lat="46.94772" lon="5.12125">
        <ele>266</ele>
        <time>2019-09-12T13:44:15Z</time>
      </trkpt>
      <trkpt lat="46.94743" lon="5.1208">
        <ele>265.60000610352</ele>
        <time>2019-09-12T13:44:23Z</time>
      </trkpt>
      <trkpt lat="46.94726" lon="5.12038">
        <ele>265.39999389648</ele>
        <time>2019-09-12T13:44:29Z</time>
      </trkpt>
      <trkpt lat="46.94724" lon="5.12031">
        <ele>265.39999389648</ele>
        <time>2019-09-12T13:44:30Z</time>
      </trkpt>
      <trkpt lat="46.94711" lon="5.11965">
        <ele>265</ele>
        <time>2019-09-12T13:44:38Z</time>
      </trkpt>
      <trkpt lat="46.94697" lon="5.11889">
        <ele>264.60000610352</ele>
        <time>2019-09-12T13:44:47Z</time>
      </trkpt>
      <trkpt lat="46.94695" lon="5.11881">
        <ele>264.60000610352</ele>
        <time>2019-09-12T13:44:48Z</time>
      </trkpt>
      <trkpt lat="46.94676" lon="5.11827">
        <ele>264.79998779297</ele>
        <time>2019-09-12T13:44:55Z</time>
      </trkpt>
      <trkpt lat="46.94649" lon="5.11778">
        <ele>264.60000610352</ele>
        <time>2019-09-12T13:45:02Z</time>
      </trkpt>
      <trkpt lat="46.94638" lon="5.11758">
        <ele>264.39999389648</ele>
        <time>2019-09-12T13:45:05Z</time>
      </trkpt>
      <trkpt lat="46.94617" lon="5.11727">
        <ele>264.39999389648</ele>
        <time>2019-09-12T13:45:10Z</time>
      </trkpt>
      <trkpt lat="46.94605" lon="5.11709">
        <ele>264.20001220703</ele>
        <time>2019-09-12T13:45:13Z</time>
      </trkpt>
      <trkpt lat="46.94594" lon="5.11692">
        <ele>264.20001220703</ele>
        <time>2019-09-12T13:45:16Z</time>
      </trkpt>
      <trkpt lat="46.94569" lon="5.11646">
        <ele>264</ele>
        <time>2019-09-12T13:45:24Z</time>
      </trkpt>
      <trkpt lat="46.9455" lon="5.11605">
        <ele>264</ele>
        <time>2019-09-12T13:45:30Z</time>
      </trkpt>
      <trkpt lat="46.94528" lon="5.11553">
        <ele>263.60000610352</ele>
        <time>2019-09-12T13:45:37Z</time>
      </trkpt>
      <trkpt lat="46.9452" lon="5.11531">
        <ele>263.39999389648</ele>
        <time>2019-09-12T13:45:40Z</time>
      </trkpt>
      <trkpt lat="46.94516" lon="5.11517">
        <ele>263.39999389648</ele>
        <time>2019-09-12T13:45:42Z</time>
      </trkpt>
      <trkpt lat="46.94513" lon="5.11503">
        <ele>263.20001220703</ele>
        <time>2019-09-12T13:45:44Z</time>
      </trkpt>
      <trkpt lat="46.945" lon="5.11441">
        <ele>262.79998779297</ele>
        <time>2019-09-12T13:45:52Z</time>
      </trkpt>
      <trkpt lat="46.94495" lon="5.11406">
        <ele>262.39999389648</ele>
        <time>2019-09-12T13:45:56Z</time>
      </trkpt>
      <trkpt lat="46.94486" lon="5.11355">
        <ele>261.79998779297</ele>
        <time>2019-09-12T13:46:02Z</time>
      </trkpt>
      <trkpt lat="46.94475" lon="5.1129">
        <ele>261.39999389648</ele>
        <time>2019-09-12T13:46:10Z</time>
      </trkpt>
      <trkpt lat="46.94472" lon="5.11273">
        <ele>261.39999389648</ele>
        <time>2019-09-12T13:46:12Z</time>
      </trkpt>
      <trkpt lat="46.94462" lon="5.11216">
        <ele>261.20001220703</ele>
        <time>2019-09-12T13:46:19Z</time>
      </trkpt>
      <trkpt lat="46.94453" lon="5.1115">
        <ele>260.79998779297</ele>
        <time>2019-09-12T13:46:27Z</time>
      </trkpt>
      <trkpt lat="46.94449" lon="5.11117">
        <ele>260.60000610352</ele>
        <time>2019-09-12T13:46:31Z</time>
      </trkpt>
      <trkpt lat="46.94443" lon="5.11084">
        <ele>260.39999389648</ele>
        <time>2019-09-12T13:46:35Z</time>
      </trkpt>
      <trkpt lat="46.94424" lon="5.1102">
        <ele>260</ele>
        <time>2019-09-12T13:46:43Z</time>
      </trkpt>
      <trkpt lat="46.94399" lon="5.10951">
        <ele>259.79998779297</ele>
        <time>2019-09-12T13:46:52Z</time>
      </trkpt>
      <trkpt lat="46.9437" lon="5.10875">
        <ele>259.39999389648</ele>
        <time>2019-09-12T13:47:02Z</time>
      </trkpt>
      <trkpt lat="46.94366" lon="5.10858">
        <ele>259.39999389648</ele>
        <time>2019-09-12T13:47:04Z</time>
      </trkpt>
      <trkpt lat="46.94353" lon="5.10806">
        <ele>259</ele>
        <time>2019-09-12T13:47:10Z</time>
      </trkpt>
      <trkpt lat="46.94342" lon="5.10755">
        <ele>258.39999389648</ele>
        <time>2019-09-12T13:47:16Z</time>
      </trkpt>
      <trkpt lat="46.94341" lon="5.10747">
        <ele>258.20001220703</ele>
        <time>2019-09-12T13:47:17Z</time>
      </trkpt>
      <trkpt lat="46.94326" lon="5.10674">
        <ele>258</ele>
        <time>2019-09-12T13:47:26Z</time>
      </trkpt>
      <trkpt lat="46.94312" lon="5.106">
        <ele>258</ele>
        <time>2019-09-12T13:47:35Z</time>
      </trkpt>
      <trkpt lat="46.94301" lon="5.10519">
        <ele>258.39999389648</ele>
        <time>2019-09-12T13:47:45Z</time>
      </trkpt>
      <trkpt lat="46.94289" lon="5.10455">
        <ele>259.20001220703</ele>
        <time>2019-09-12T13:47:54Z</time>
      </trkpt>
      <trkpt lat="46.94282" lon="5.10428">
        <ele>259.60000610352</ele>
        <time>2019-09-12T13:47:58Z</time>
      </trkpt>
      <trkpt lat="46.94275" lon="5.10403">
        <ele>260</ele>
        <time>2019-09-12T13:48:02Z</time>
      </trkpt>
      <trkpt lat="46.94266" lon="5.10372">
        <ele>260.60000610352</ele>
        <time>2019-09-12T13:48:07Z</time>
      </trkpt>
      <trkpt lat="46.94259" lon="5.10353">
        <ele>261</ele>
        <time>2019-09-12T13:48:10Z</time>
      </trkpt>
      <trkpt lat="46.94243" lon="5.10304">
        <ele>261.79998779297</ele>
        <time>2019-09-12T13:48:18Z</time>
      </trkpt>
      <trkpt lat="46.94241" lon="5.10298">
        <ele>261.79998779297</ele>
        <time>2019-09-12T13:48:19Z</time>
      </trkpt>
      <trkpt lat="46.94223" lon="5.10246">
        <ele>262.79998779297</ele>
        <time>2019-09-12T13:48:27Z</time>
      </trkpt>
      <trkpt lat="46.94219" lon="5.10233">
        <ele>263</ele>
        <time>2019-09-12T13:48:29Z</time>
      </trkpt>
      <trkpt lat="46.942" lon="5.10176">
        <ele>263.20001220703</ele>
        <time>2019-09-12T13:48:37Z</time>
      </trkpt>
      <trkpt lat="46.9418" lon="5.10115">
        <ele>263.20001220703</ele>
        <time>2019-09-12T13:48:45Z</time>
      </trkpt>
      <trkpt lat="46.94164" lon="5.10071">
        <ele>262.60000610352</ele>
        <time>2019-09-12T13:48:51Z</time>
      </trkpt>
      <trkpt lat="46.94144" lon="5.1002">
        <ele>262.20001220703</ele>
        <time>2019-09-12T13:48:58Z</time>
      </trkpt>
      <trkpt lat="46.94117" lon="5.09963">
        <ele>262.20001220703</ele>
        <time>2019-09-12T13:49:06Z</time>
      </trkpt>
      <trkpt lat="46.94085" lon="5.099">
        <ele>262.39999389648</ele>
        <time>2019-09-12T13:49:15Z</time>
      </trkpt>
      <trkpt lat="46.94059" lon="5.0985">
        <ele>262.20001220703</ele>
        <time>2019-09-12T13:49:22Z</time>
      </trkpt>
      <trkpt lat="46.94041" lon="5.09814">
        <ele>261.79998779297</ele>
        <time>2019-09-12T13:49:27Z</time>
      </trkpt>
      <trkpt lat="46.94027" lon="5.09787">
        <ele>261.39999389648</ele>
        <time>2019-09-12T13:49:31Z</time>
      </trkpt>
      <trkpt lat="46.94021" lon="5.09775">
        <ele>261.20001220703</ele>
        <time>2019-09-12T13:49:33Z</time>
      </trkpt>
      <trkpt lat="46.94009" lon="5.09749">
        <ele>260.79998779297</ele>
        <time>2019-09-12T13:49:37Z</time>
      </trkpt>
      <trkpt lat="46.94005" lon="5.09743">
        <ele>260.79998779297</ele>
        <time>2019-09-12T13:49:38Z</time>
      </trkpt>
      <trkpt lat="46.93985" lon="5.09704">
        <ele>260.39999389648</ele>
        <time>2019-09-12T13:49:44Z</time>
      </trkpt>
      <trkpt lat="46.93958" lon="5.09651">
        <ele>259.60000610352</ele>
        <time>2019-09-12T13:49:52Z</time>
      </trkpt>
      <trkpt lat="46.93927" lon="5.09585">
        <ele>258.60000610352</ele>
        <time>2019-09-12T13:50:01Z</time>
      </trkpt>
      <trkpt lat="46.93902" lon="5.09536">
        <ele>258</ele>
        <time>2019-09-12T13:50:08Z</time>
      </trkpt>
      <trkpt lat="46.9388" lon="5.09508">
        <ele>257.39999389648</ele>
        <time>2019-09-12T13:50:13Z</time>
      </trkpt>
      <trkpt lat="46.93871" lon="5.09498">
        <ele>257.20001220703</ele>
        <time>2019-09-12T13:50:15Z</time>
      </trkpt>
      <trkpt lat="46.93834" lon="5.09452">
        <ele>256.79998779297</ele>
        <time>2019-09-12T13:50:23Z</time>
      </trkpt>
      <trkpt lat="46.93814" lon="5.0943">
        <ele>256.39999389648</ele>
        <time>2019-09-12T13:50:27Z</time>
      </trkpt>
      <trkpt lat="46.93804" lon="5.0942">
        <ele>256.20001220703</ele>
        <time>2019-09-12T13:50:29Z</time>
      </trkpt>
      <trkpt lat="46.93799" lon="5.09416">
        <ele>256</ele>
        <time>2019-09-12T13:50:30Z</time>
      </trkpt>
      <trkpt lat="46.93793" lon="5.09413">
        <ele>255.80000305176</ele>
        <time>2019-09-12T13:50:31Z</time>
      </trkpt>
      <trkpt lat="46.93775" lon="5.09411">
        <ele>255.60000610352</ele>
        <time>2019-09-12T13:50:34Z</time>
      </trkpt>
      <trkpt lat="46.93757" lon="5.09424">
        <ele>255.39999389648</ele>
        <time>2019-09-12T13:50:37Z</time>
      </trkpt>
      <trkpt lat="46.93752" lon="5.09429">
        <ele>255.39999389648</ele>
        <time>2019-09-12T13:50:38Z</time>
      </trkpt>
      <trkpt lat="46.93726" lon="5.09462">
        <ele>255</ele>
        <time>2019-09-12T13:50:44Z</time>
      </trkpt>
      <trkpt lat="46.93701" lon="5.09488">
        <ele>254.60000610352</ele>
        <time>2019-09-12T13:50:50Z</time>
      </trkpt>
      <trkpt lat="46.93696" lon="5.0949">
        <ele>254.39999389648</ele>
        <time>2019-09-12T13:50:51Z</time>
      </trkpt>
      <trkpt lat="46.93673" lon="5.09489">
        <ele>254.19999694824</ele>
        <time>2019-09-12T13:50:55Z</time>
      </trkpt>
      <trkpt lat="46.93667" lon="5.09487">
        <ele>254.19999694824</ele>
        <time>2019-09-12T13:50:56Z</time>
      </trkpt>
      <trkpt lat="46.93638" lon="5.09473">
        <ele>253.39999389648</ele>
        <time>2019-09-12T13:51:01Z</time>
      </trkpt>
      <trkpt lat="46.93627" lon="5.09467">
        <ele>253.39999389648</ele>
        <time>2019-09-12T13:51:03Z</time>
      </trkpt>
      <trkpt lat="46.9361" lon="5.09457">
        <ele>253.19999694824</ele>
        <time>2019-09-12T13:51:06Z</time>
      </trkpt>
      <trkpt lat="46.93605" lon="5.09455">
        <ele>253.19999694824</ele>
        <time>2019-09-12T13:51:07Z</time>
      </trkpt>
      <trkpt lat="46.9356" lon="5.09432">
        <ele>253</ele>
        <time>2019-09-12T13:51:15Z</time>
      </trkpt>
      <trkpt lat="46.93533" lon="5.09418">
        <ele>253</ele>
        <time>2019-09-12T13:51:20Z</time>
      </trkpt>
      <trkpt lat="46.93522" lon="5.09411">
        <ele>253</ele>
        <time>2019-09-12T13:51:22Z</time>
      </trkpt>
      <trkpt lat="46.93483" lon="5.09394">
        <ele>253</ele>
        <time>2019-09-12T13:51:29Z</time>
      </trkpt>
      <trkpt lat="46.93471" lon="5.09391">
        <ele>253</ele>
        <time>2019-09-12T13:51:31Z</time>
      </trkpt>
      <trkpt lat="46.93447" lon="5.0939">
        <ele>253</ele>
        <time>2019-09-12T13:51:35Z</time>
      </trkpt>
      <trkpt lat="46.93388" lon="5.09396">
        <ele>253</ele>
        <time>2019-09-12T13:51:45Z</time>
      </trkpt>
      <trkpt lat="46.93343" lon="5.09409">
        <ele>253</ele>
        <time>2019-09-12T13:51:53Z</time>
      </trkpt>
      <trkpt lat="46.93313" lon="5.09417">
        <ele>253</ele>
        <time>2019-09-12T13:51:59Z</time>
      </trkpt>
      <trkpt lat="46.9328" lon="5.09422">
        <ele>253</ele>
        <time>2019-09-12T13:52:06Z</time>
      </trkpt>
      <trkpt lat="46.93242" lon="5.09426">
        <ele>253.19999694824</ele>
        <time>2019-09-12T13:52:13Z</time>
      </trkpt>
      <trkpt lat="46.93205" lon="5.09429">
        <ele>253.19999694824</ele>
        <time>2019-09-12T13:52:20Z</time>
      </trkpt>
      <trkpt lat="46.93156" lon="5.09436">
        <ele>253.19999694824</ele>
        <time>2019-09-12T13:52:30Z</time>
      </trkpt>
      <trkpt lat="46.93121" lon="5.0944">
        <ele>253.19999694824</ele>
        <time>2019-09-12T13:52:37Z</time>
      </trkpt>
      <trkpt lat="46.93075" lon="5.09441">
        <ele>253.19999694824</ele>
        <time>2019-09-12T13:52:46Z</time>
      </trkpt>
      <trkpt lat="46.93027" lon="5.09431">
        <ele>253</ele>
        <time>2019-09-12T13:52:55Z</time>
      </trkpt>
      <trkpt lat="46.93006" lon="5.09423">
        <ele>253</ele>
        <time>2019-09-12T13:52:59Z</time>
      </trkpt>
      <trkpt lat="46.92989" lon="5.09418">
        <ele>253</ele>
        <time>2019-09-12T13:53:02Z</time>
      </trkpt>
      <trkpt lat="46.92957" lon="5.09405">
        <ele>253</ele>
        <time>2019-09-12T13:53:08Z</time>
      </trkpt>
      <trkpt lat="46.92901" lon="5.09385">
        <ele>252.80000305176</ele>
        <time>2019-09-12T13:53:18Z</time>
      </trkpt>
      <trkpt lat="46.92896" lon="5.09382">
        <ele>252.80000305176</ele>
        <time>2019-09-12T13:53:19Z</time>
      </trkpt>
      <trkpt lat="46.9285" lon="5.09365">
        <ele>253</ele>
        <time>2019-09-12T13:53:27Z</time>
      </trkpt>
      <trkpt lat="46.92812" lon="5.09349">
        <ele>253.19999694824</ele>
        <time>2019-09-12T13:53:34Z</time>
      </trkpt>
      <trkpt lat="46.9277" lon="5.09321">
        <ele>253.39999389648</ele>
        <time>2019-09-12T13:53:42Z</time>
      </trkpt>
      <trkpt lat="46.92726" lon="5.0928">
        <ele>253.39999389648</ele>
        <time>2019-09-12T13:53:51Z</time>
      </trkpt>
      <trkpt lat="46.92697" lon="5.09252">
        <ele>253.39999389648</ele>
        <time>2019-09-12T13:53:57Z</time>
      </trkpt>
      <trkpt lat="46.92692" lon="5.09248">
        <ele>253.39999389648</ele>
        <time>2019-09-12T13:53:58Z</time>
      </trkpt>
      <trkpt lat="46.92654" lon="5.0922">
        <ele>253.60000610352</ele>
        <time>2019-09-12T13:54:05Z</time>
      </trkpt>
      <trkpt lat="46.92598" lon="5.0919">
        <ele>253.39999389648</ele>
        <time>2019-09-12T13:54:15Z</time>
      </trkpt>
      <trkpt lat="46.9255" lon="5.09165">
        <ele>253.39999389648</ele>
        <time>2019-09-12T13:54:24Z</time>
      </trkpt>
      <trkpt lat="46.9251" lon="5.0914">
        <ele>253.60000610352</ele>
        <time>2019-09-12T13:54:32Z</time>
      </trkpt>
      <trkpt lat="46.92459" lon="5.09102">
        <ele>253.60000610352</ele>
        <time>2019-09-12T13:54:42Z</time>
      </trkpt>
      <trkpt lat="46.92411" lon="5.09057">
        <ele>253.60000610352</ele>
        <time>2019-09-12T13:54:52Z</time>
      </trkpt>
      <trkpt lat="46.9237" lon="5.09014">
        <ele>253.60000610352</ele>
        <time>2019-09-12T13:55:01Z</time>
      </trkpt>
      <trkpt lat="46.92352" lon="5.08988">
        <ele>253.60000610352</ele>
        <time>2019-09-12T13:55:07Z</time>
      </trkpt>
      <trkpt lat="46.92328" lon="5.0895">
        <ele>253.60000610352</ele>
        <time>2019-09-12T13:55:14Z</time>
      </trkpt>
      <trkpt lat="46.92317" lon="5.08932">
        <ele>253.60000610352</ele>
        <time>2019-09-12T13:55:17Z</time>
      </trkpt>
      <trkpt lat="46.92297" lon="5.08903">
        <ele>253.60000610352</ele>
        <time>2019-09-12T13:55:22Z</time>
      </trkpt>
      <trkpt lat="46.9226" lon="5.08864">
        <ele>253.60000610352</ele>
        <time>2019-09-12T13:55:30Z</time>
      </trkpt>
      <trkpt lat="46.92219" lon="5.08832">
        <ele>253.80000305176</ele>
        <time>2019-09-12T13:55:38Z</time>
      </trkpt>
      <trkpt lat="46.92182" lon="5.08811">
        <ele>254</ele>
        <time>2019-09-12T13:55:45Z</time>
      </trkpt>
      <trkpt lat="46.92135" lon="5.08793">
        <ele>254</ele>
        <time>2019-09-12T13:55:53Z</time>
      </trkpt>
      <trkpt lat="46.92088" lon="5.08787">
        <ele>253.60000610352</ele>
        <time>2019-09-12T13:56:01Z</time>
      </trkpt>
      <trkpt lat="46.92037" lon="5.08788">
        <ele>253.60000610352</ele>
        <time>2019-09-12T13:56:10Z</time>
      </trkpt>
      <trkpt lat="46.91982" lon="5.08797">
        <ele>253.80000305176</ele>
        <time>2019-09-12T13:56:20Z</time>
      </trkpt>
      <trkpt lat="46.91937" lon="5.08807">
        <ele>253.80000305176</ele>
        <time>2019-09-12T13:56:28Z</time>
      </trkpt>
      <trkpt lat="46.91886" lon="5.08818">
        <ele>253.80000305176</ele>
        <time>2019-09-12T13:56:37Z</time>
      </trkpt>
      <trkpt lat="46.91831" lon="5.08825">
        <ele>253.60000610352</ele>
        <time>2019-09-12T13:56:47Z</time>
      </trkpt>
      <trkpt lat="46.91788" lon="5.08824">
        <ele>253.60000610352</ele>
        <time>2019-09-12T13:56:55Z</time>
      </trkpt>
      <trkpt lat="46.91764" lon="5.08821">
        <ele>253.60000610352</ele>
        <time>2019-09-12T13:57:00Z</time>
      </trkpt>
      <trkpt lat="46.91728" lon="5.08816">
        <ele>254</ele>
        <time>2019-09-12T13:57:07Z</time>
      </trkpt>
      <trkpt lat="46.91687" lon="5.08811">
        <ele>254.19999694824</ele>
        <time>2019-09-12T13:57:15Z</time>
      </trkpt>
      <trkpt lat="46.91647" lon="5.08799">
        <ele>254.39999389648</ele>
        <time>2019-09-12T13:57:23Z</time>
      </trkpt>
      <trkpt lat="46.91634" lon="5.08791">
        <ele>254.60000610352</ele>
        <time>2019-09-12T13:57:26Z</time>
      </trkpt>
      <trkpt lat="46.91616" lon="5.08781">
        <ele>254.60000610352</ele>
        <time>2019-09-12T13:57:30Z</time>
      </trkpt>
      <trkpt lat="46.91578" lon="5.08764">
        <ele>254.80000305176</ele>
        <time>2019-09-12T13:57:38Z</time>
      </trkpt>
      <trkpt lat="46.91568" lon="5.08763">
        <ele>254.80000305176</ele>
        <time>2019-09-12T13:57:40Z</time>
      </trkpt>
      <trkpt lat="46.91548" lon="5.08766">
        <ele>254.80000305176</ele>
        <time>2019-09-12T13:57:44Z</time>
      </trkpt>
      <trkpt lat="46.91518" lon="5.08766">
        <ele>255</ele>
        <time>2019-09-12T13:57:50Z</time>
      </trkpt>
      <trkpt lat="46.91508" lon="5.08762">
        <ele>255</ele>
        <time>2019-09-12T13:57:52Z</time>
      </trkpt>
      <trkpt lat="46.91496" lon="5.0875">
        <ele>255</ele>
        <time>2019-09-12T13:57:55Z</time>
      </trkpt>
      <trkpt lat="46.91468" lon="5.08719">
        <ele>255.19999694824</ele>
        <time>2019-09-12T13:58:02Z</time>
      </trkpt>
      <trkpt lat="46.91432" lon="5.08675">
        <ele>255.19999694824</ele>
        <time>2019-09-12T13:58:11Z</time>
      </trkpt>
      <trkpt lat="46.91428" lon="5.08671">
        <ele>255.19999694824</ele>
        <time>2019-09-12T13:58:12Z</time>
      </trkpt>
      <trkpt lat="46.914" lon="5.08637">
        <ele>255.19999694824</ele>
        <time>2019-09-12T13:58:19Z</time>
      </trkpt>
      <trkpt lat="46.91368" lon="5.086">
        <ele>255.39999389648</ele>
        <time>2019-09-12T13:58:27Z</time>
      </trkpt>
      <trkpt lat="46.91336" lon="5.08568">
        <ele>255.39999389648</ele>
        <time>2019-09-12T13:58:35Z</time>
      </trkpt>
      <trkpt lat="46.91312" lon="5.08542">
        <ele>255.39999389648</ele>
        <time>2019-09-12T13:58:42Z</time>
      </trkpt>
      <trkpt lat="46.91279" lon="5.08511">
        <ele>255.39999389648</ele>
        <time>2019-09-12T13:58:50Z</time>
      </trkpt>
      <trkpt lat="46.91241" lon="5.08471">
        <ele>255.39999389648</ele>
        <time>2019-09-12T13:58:59Z</time>
      </trkpt>
      <trkpt lat="46.91199" lon="5.08428">
        <ele>255.39999389648</ele>
        <time>2019-09-12T13:59:09Z</time>
      </trkpt>
      <trkpt lat="46.91173" lon="5.08405">
        <ele>255.39999389648</ele>
        <time>2019-09-12T13:59:15Z</time>
      </trkpt>
      <trkpt lat="46.91168" lon="5.08403">
        <ele>255.39999389648</ele>
        <time>2019-09-12T13:59:16Z</time>
      </trkpt>
      <trkpt lat="46.91147" lon="5.08384">
        <ele>255.80000305176</ele>
        <time>2019-09-12T13:59:21Z</time>
      </trkpt>
      <trkpt lat="46.91142" lon="5.08381">
        <ele>255.80000305176</ele>
        <time>2019-09-12T13:59:22Z</time>
      </trkpt>
      <trkpt lat="46.91138" lon="5.08378">
        <ele>255.80000305176</ele>
        <time>2019-09-12T13:59:23Z</time>
      </trkpt>
      <trkpt lat="46.91109" lon="5.08362">
        <ele>255.80000305176</ele>
        <time>2019-09-12T13:59:29Z</time>
      </trkpt>
      <trkpt lat="46.911" lon="5.08356">
        <ele>255.80000305176</ele>
        <time>2019-09-12T13:59:31Z</time>
      </trkpt>
      <trkpt lat="46.91091" lon="5.08351">
        <ele>255.80000305176</ele>
        <time>2019-09-12T13:59:33Z</time>
      </trkpt>
      <trkpt lat="46.91082" lon="5.08346">
        <ele>255.80000305176</ele>
        <time>2019-09-12T13:59:35Z</time>
      </trkpt>
      <trkpt lat="46.91036" lon="5.08323">
        <ele>255.80000305176</ele>
        <time>2019-09-12T13:59:45Z</time>
      </trkpt>
      <trkpt lat="46.91002" lon="5.08311">
        <ele>255.80000305176</ele>
        <time>2019-09-12T13:59:52Z</time>
      </trkpt>
      <trkpt lat="46.90972" lon="5.08302">
        <ele>255.80000305176</ele>
        <time>2019-09-12T13:59:58Z</time>
      </trkpt>
      <trkpt lat="46.90923" lon="5.08288">
        <ele>255.60000610352</ele>
        <time>2019-09-12T14:00:08Z</time>
      </trkpt>
      <trkpt lat="46.90908" lon="5.08279">
        <ele>255.60000610352</ele>
        <time>2019-09-12T14:00:11Z</time>
      </trkpt>
      <trkpt lat="46.90899" lon="5.08271">
        <ele>255.60000610352</ele>
        <time>2019-09-12T14:00:13Z</time>
      </trkpt>
      <trkpt lat="46.90865" lon="5.08238">
        <ele>255.19999694824</ele>
        <time>2019-09-12T14:00:20Z</time>
      </trkpt>
      <trkpt lat="46.90861" lon="5.08234">
        <ele>255</ele>
        <time>2019-09-12T14:00:21Z</time>
      </trkpt>
      <trkpt lat="46.90852" lon="5.08226">
        <ele>254.60000610352</ele>
        <time>2019-09-12T14:00:23Z</time>
      </trkpt>
      <trkpt lat="46.90823" lon="5.08201">
        <ele>254.39999389648</ele>
        <time>2019-09-12T14:00:29Z</time>
      </trkpt>
      <trkpt lat="46.9077" lon="5.08169">
        <ele>254.39999389648</ele>
        <time>2019-09-12T14:00:39Z</time>
      </trkpt>
      <trkpt lat="46.90717" lon="5.08137">
        <ele>254.39999389648</ele>
        <time>2019-09-12T14:00:49Z</time>
      </trkpt>
      <trkpt lat="46.90712" lon="5.08134">
        <ele>254.39999389648</ele>
        <time>2019-09-12T14:00:50Z</time>
      </trkpt>
      <trkpt lat="46.90668" lon="5.08117">
        <ele>254.39999389648</ele>
        <time>2019-09-12T14:00:58Z</time>
      </trkpt>
      <trkpt lat="46.90622" lon="5.08108">
        <ele>254.60000610352</ele>
        <time>2019-09-12T14:01:06Z</time>
      </trkpt>
      <trkpt lat="46.90564" lon="5.08096">
        <ele>254.60000610352</ele>
        <time>2019-09-12T14:01:16Z</time>
      </trkpt>
      <trkpt lat="46.90524" lon="5.08085">
        <ele>255</ele>
        <time>2019-09-12T14:01:24Z</time>
      </trkpt>
      <trkpt lat="46.90508" lon="5.08074">
        <ele>255.19999694824</ele>
        <time>2019-09-12T14:01:29Z</time>
      </trkpt>
      <trkpt lat="46.90506" lon="5.08073">
        <ele>255.19999694824</ele>
        <time>2019-09-12T14:01:32Z</time>
      </trkpt>
      <trkpt lat="46.90505" lon="5.08072">
        <ele>255.60000610352</ele>
        <time>2019-09-12T14:03:03Z</time>
      </trkpt>
      <trkpt lat="46.90502" lon="5.0807">
        <ele>255.60000610352</ele>
        <time>2019-09-12T14:03:05Z</time>
      </trkpt>
      <trkpt lat="46.90497" lon="5.08065">
        <ele>255.60000610352</ele>
        <time>2019-09-12T14:03:07Z</time>
      </trkpt>
      <trkpt lat="46.90492" lon="5.08057">
        <ele>255.60000610352</ele>
        <time>2019-09-12T14:03:09Z</time>
      </trkpt>
      <trkpt lat="46.90483" lon="5.08043">
        <ele>255.60000610352</ele>
        <time>2019-09-12T14:03:12Z</time>
      </trkpt>
      <trkpt lat="46.90455" lon="5.08005">
        <ele>256</ele>
        <time>2019-09-12T14:03:20Z</time>
      </trkpt>
      <trkpt lat="46.90424" lon="5.07977">
        <ele>256</ele>
        <time>2019-09-12T14:03:27Z</time>
      </trkpt>
      <trkpt lat="46.90378" lon="5.07948">
        <ele>256.20001220703</ele>
        <time>2019-09-12T14:03:36Z</time>
      </trkpt>
      <trkpt lat="46.90335" lon="5.07932">
        <ele>256.20001220703</ele>
        <time>2019-09-12T14:03:44Z</time>
      </trkpt>
      <trkpt lat="46.9029" lon="5.07918">
        <ele>256.20001220703</ele>
        <time>2019-09-12T14:03:52Z</time>
      </trkpt>
      <trkpt lat="46.90239" lon="5.079">
        <ele>256.20001220703</ele>
        <time>2019-09-12T14:04:01Z</time>
      </trkpt>
      <trkpt lat="46.90209" lon="5.07879">
        <ele>256.20001220703</ele>
        <time>2019-09-12T14:04:07Z</time>
      </trkpt>
      <trkpt lat="46.90177" lon="5.07844">
        <ele>256.20001220703</ele>
        <time>2019-09-12T14:04:14Z</time>
      </trkpt>
      <trkpt lat="46.90131" lon="5.07793">
        <ele>256.20001220703</ele>
        <time>2019-09-12T14:04:24Z</time>
      </trkpt>
      <trkpt lat="46.90127" lon="5.07788">
        <ele>256.20001220703</ele>
        <time>2019-09-12T14:04:25Z</time>
      </trkpt>
      <trkpt lat="46.90079" lon="5.07743">
        <ele>256.20001220703</ele>
        <time>2019-09-12T14:04:35Z</time>
      </trkpt>
      <trkpt lat="46.90039" lon="5.07695">
        <ele>256.20001220703</ele>
        <time>2019-09-12T14:04:44Z</time>
      </trkpt>
      <trkpt lat="46.89998" lon="5.07636">
        <ele>256.20001220703</ele>
        <time>2019-09-12T14:04:54Z</time>
      </trkpt>
      <trkpt lat="46.89962" lon="5.07582">
        <ele>256.39999389648</ele>
        <time>2019-09-12T14:05:03Z</time>
      </trkpt>
      <trkpt lat="46.89927" lon="5.0754">
        <ele>256.39999389648</ele>
        <time>2019-09-12T14:05:11Z</time>
      </trkpt>
      <trkpt lat="46.89922" lon="5.07535">
        <ele>256.39999389648</ele>
        <time>2019-09-12T14:05:12Z</time>
      </trkpt>
      <trkpt lat="46.89913" lon="5.07516">
        <ele>256.39999389648</ele>
        <time>2019-09-12T14:05:15Z</time>
      </trkpt>
      <trkpt lat="46.89912" lon="5.07493">
        <ele>256.39999389648</ele>
        <time>2019-09-12T14:05:18Z</time>
      </trkpt>
      <trkpt lat="46.89913" lon="5.07485">
        <ele>256.39999389648</ele>
        <time>2019-09-12T14:05:19Z</time>
      </trkpt>
      <trkpt lat="46.89917" lon="5.07417">
        <ele>256.39999389648</ele>
        <time>2019-09-12T14:05:27Z</time>
      </trkpt>
      <trkpt lat="46.89922" lon="5.07358">
        <ele>256.39999389648</ele>
        <time>2019-09-12T14:05:34Z</time>
      </trkpt>
      <trkpt lat="46.89934" lon="5.07301">
        <ele>256.39999389648</ele>
        <time>2019-09-12T14:05:41Z</time>
      </trkpt>
      <trkpt lat="46.89954" lon="5.07249">
        <ele>256.60000610352</ele>
        <time>2019-09-12T14:05:48Z</time>
      </trkpt>
      <trkpt lat="46.89985" lon="5.07178">
        <ele>256.60000610352</ele>
        <time>2019-09-12T14:05:58Z</time>
      </trkpt>
      <trkpt lat="46.89993" lon="5.07154">
        <ele>256.60000610352</ele>
        <time>2019-09-12T14:06:01Z</time>
      </trkpt>
      <trkpt lat="46.89998" lon="5.07129">
        <ele>256.39999389648</ele>
        <time>2019-09-12T14:06:04Z</time>
      </trkpt>
      <trkpt lat="46.90001" lon="5.07104">
        <ele>256</ele>
        <time>2019-09-12T14:06:07Z</time>
      </trkpt>
      <trkpt lat="46.90001" lon="5.07081">
        <ele>255.39999389648</ele>
        <time>2019-09-12T14:06:10Z</time>
      </trkpt>
      <trkpt lat="46.89998" lon="5.07009">
        <ele>255</ele>
        <time>2019-09-12T14:06:19Z</time>
      </trkpt>
      <trkpt lat="46.89997" lon="5.06984">
        <ele>255</ele>
        <time>2019-09-12T14:06:22Z</time>
      </trkpt>
      <trkpt lat="46.89994" lon="5.06926">
        <ele>255</ele>
        <time>2019-09-12T14:06:29Z</time>
      </trkpt>
      <trkpt lat="46.89991" lon="5.06843">
        <ele>254.80000305176</ele>
        <time>2019-09-12T14:06:39Z</time>
      </trkpt>
      <trkpt lat="46.89988" lon="5.06761">
        <ele>254.80000305176</ele>
        <time>2019-09-12T14:06:49Z</time>
      </trkpt>
      <trkpt lat="46.89984" lon="5.06677">
        <ele>254.80000305176</ele>
        <time>2019-09-12T14:06:59Z</time>
      </trkpt>
      <trkpt lat="46.89983" lon="5.0666">
        <ele>254.80000305176</ele>
        <time>2019-09-12T14:07:01Z</time>
      </trkpt>
      <trkpt lat="46.8998" lon="5.06574">
        <ele>254.60000610352</ele>
        <time>2019-09-12T14:07:11Z</time>
      </trkpt>
      <trkpt lat="46.89978" lon="5.06505">
        <ele>254.39999389648</ele>
        <time>2019-09-12T14:07:19Z</time>
      </trkpt>
      <trkpt lat="46.89975" lon="5.0643">
        <ele>254.39999389648</ele>
        <time>2019-09-12T14:07:28Z</time>
      </trkpt>
      <trkpt lat="46.89973" lon="5.06355">
        <ele>254.60000610352</ele>
        <time>2019-09-12T14:07:37Z</time>
      </trkpt>
      <trkpt lat="46.89971" lon="5.0627">
        <ele>254.60000610352</ele>
        <time>2019-09-12T14:07:47Z</time>
      </trkpt>
      <trkpt lat="46.89968" lon="5.06194">
        <ele>254.60000610352</ele>
        <time>2019-09-12T14:07:56Z</time>
      </trkpt>
      <trkpt lat="46.89966" lon="5.06111">
        <ele>254.60000610352</ele>
        <time>2019-09-12T14:08:06Z</time>
      </trkpt>
      <trkpt lat="46.89966" lon="5.06102">
        <ele>254.60000610352</ele>
        <time>2019-09-12T14:08:07Z</time>
      </trkpt>
      <trkpt lat="46.89963" lon="5.06034">
        <ele>254.60000610352</ele>
        <time>2019-09-12T14:08:15Z</time>
      </trkpt>
      <trkpt lat="46.89962" lon="5.05958">
        <ele>254.39999389648</ele>
        <time>2019-09-12T14:08:24Z</time>
      </trkpt>
      <trkpt lat="46.89959" lon="5.05876">
        <ele>254.39999389648</ele>
        <time>2019-09-12T14:08:34Z</time>
      </trkpt>
      <trkpt lat="46.89957" lon="5.05803">
        <ele>254.39999389648</ele>
        <time>2019-09-12T14:08:43Z</time>
      </trkpt>
      <trkpt lat="46.89955" lon="5.05721">
        <ele>254.39999389648</ele>
        <time>2019-09-12T14:08:53Z</time>
      </trkpt>
      <trkpt lat="46.89951" lon="5.05647">
        <ele>254.39999389648</ele>
        <time>2019-09-12T14:09:02Z</time>
      </trkpt>
      <trkpt lat="46.8994" lon="5.05572">
        <ele>254.39999389648</ele>
        <time>2019-09-12T14:09:11Z</time>
      </trkpt>
      <trkpt lat="46.89925" lon="5.05495">
        <ele>254.39999389648</ele>
        <time>2019-09-12T14:09:21Z</time>
      </trkpt>
      <trkpt lat="46.8991" lon="5.05428">
        <ele>254.39999389648</ele>
        <time>2019-09-12T14:09:30Z</time>
      </trkpt>
      <trkpt lat="46.89902" lon="5.05393">
        <ele>254.19999694824</ele>
        <time>2019-09-12T14:09:35Z</time>
      </trkpt>
      <trkpt lat="46.89893" lon="5.05355">
        <ele>254.19999694824</ele>
        <time>2019-09-12T14:09:40Z</time>
      </trkpt>
      <trkpt lat="46.89878" lon="5.05287">
        <ele>254.19999694824</ele>
        <time>2019-09-12T14:09:49Z</time>
      </trkpt>
      <trkpt lat="46.89865" lon="5.05235">
        <ele>254.60000610352</ele>
        <time>2019-09-12T14:09:56Z</time>
      </trkpt>
      <trkpt lat="46.89848" lon="5.05157">
        <ele>254.60000610352</ele>
        <time>2019-09-12T14:10:06Z</time>
      </trkpt>
      <trkpt lat="46.89846" lon="5.05149">
        <ele>254.60000610352</ele>
        <time>2019-09-12T14:10:07Z</time>
      </trkpt>
      <trkpt lat="46.89836" lon="5.05094">
        <ele>254.39999389648</ele>
        <time>2019-09-12T14:10:14Z</time>
      </trkpt>
      <trkpt lat="46.89823" lon="5.05015">
        <ele>254.39999389648</ele>
        <time>2019-09-12T14:10:24Z</time>
      </trkpt>
      <trkpt lat="46.89812" lon="5.04936">
        <ele>254.19999694824</ele>
        <time>2019-09-12T14:10:34Z</time>
      </trkpt>
      <trkpt lat="46.89809" lon="5.0492">
        <ele>254</ele>
        <time>2019-09-12T14:10:36Z</time>
      </trkpt>
      <trkpt lat="46.89795" lon="5.04845">
        <ele>253.80000305176</ele>
        <time>2019-09-12T14:10:46Z</time>
      </trkpt>
      <trkpt lat="46.89785" lon="5.048">
        <ele>253.80000305176</ele>
        <time>2019-09-12T14:10:53Z</time>
      </trkpt>
      <trkpt lat="46.89772" lon="5.04743">
        <ele>253.80000305176</ele>
        <time>2019-09-12T14:11:01Z</time>
      </trkpt>
      <trkpt lat="46.8976" lon="5.04684">
        <ele>253.80000305176</ele>
        <time>2019-09-12T14:11:09Z</time>
      </trkpt>
      <trkpt lat="46.89746" lon="5.04619">
        <ele>254</ele>
        <time>2019-09-12T14:11:18Z</time>
      </trkpt>
      <trkpt lat="46.89731" lon="5.04552">
        <ele>254.19999694824</ele>
        <time>2019-09-12T14:11:28Z</time>
      </trkpt>
      <trkpt lat="46.89715" lon="5.04477">
        <ele>254.19999694824</ele>
        <time>2019-09-12T14:11:39Z</time>
      </trkpt>
      <trkpt lat="46.897" lon="5.04407">
        <ele>254.19999694824</ele>
        <time>2019-09-12T14:11:49Z</time>
      </trkpt>
      <trkpt lat="46.89685" lon="5.04336">
        <ele>254</ele>
        <time>2019-09-12T14:11:59Z</time>
      </trkpt>
      <trkpt lat="46.89673" lon="5.04286">
        <ele>254</ele>
        <time>2019-09-12T14:12:07Z</time>
      </trkpt>
      <trkpt lat="46.8966" lon="5.04222">
        <ele>254</ele>
        <time>2019-09-12T14:12:16Z</time>
      </trkpt>
      <trkpt lat="46.89657" lon="5.04208">
        <ele>254</ele>
        <time>2019-09-12T14:12:18Z</time>
      </trkpt>
      <trkpt lat="46.89651" lon="5.04179">
        <ele>254.19999694824</ele>
        <time>2019-09-12T14:12:22Z</time>
      </trkpt>
      <trkpt lat="46.89637" lon="5.04107">
        <ele>254.39999389648</ele>
        <time>2019-09-12T14:12:32Z</time>
      </trkpt>
      <trkpt lat="46.89626" lon="5.0405">
        <ele>254.60000610352</ele>
        <time>2019-09-12T14:12:40Z</time>
      </trkpt>
      <trkpt lat="46.89613" lon="5.03986">
        <ele>254.60000610352</ele>
        <time>2019-09-12T14:12:49Z</time>
      </trkpt>
      <trkpt lat="46.896" lon="5.03914">
        <ele>254.80000305176</ele>
        <time>2019-09-12T14:12:59Z</time>
      </trkpt>
      <trkpt lat="46.89592" lon="5.0386">
        <ele>255</ele>
        <time>2019-09-12T14:13:07Z</time>
      </trkpt>
      <trkpt lat="46.89585" lon="5.03816">
        <ele>255.60000610352</ele>
        <time>2019-09-12T14:13:14Z</time>
      </trkpt>
      <trkpt lat="46.89576" lon="5.03766">
        <ele>256.20001220703</ele>
        <time>2019-09-12T14:13:22Z</time>
      </trkpt>
      <trkpt lat="46.89568" lon="5.03715">
        <ele>256.20001220703</ele>
        <time>2019-09-12T14:13:30Z</time>
      </trkpt>
      <trkpt lat="46.89558" lon="5.03646">
        <ele>256.20001220703</ele>
        <time>2019-09-12T14:13:39Z</time>
      </trkpt>
      <trkpt lat="46.89547" lon="5.03574">
        <ele>256.39999389648</ele>
        <time>2019-09-12T14:13:48Z</time>
      </trkpt>
      <trkpt lat="46.89537" lon="5.03502">
        <ele>256.39999389648</ele>
        <time>2019-09-12T14:13:57Z</time>
      </trkpt>
      <trkpt lat="46.89528" lon="5.03437">
        <ele>256.39999389648</ele>
        <time>2019-09-12T14:14:05Z</time>
      </trkpt>
      <trkpt lat="46.8952" lon="5.03379">
        <ele>256.39999389648</ele>
        <time>2019-09-12T14:14:12Z</time>
      </trkpt>
      <trkpt lat="46.89516" lon="5.03319">
        <ele>256.39999389648</ele>
        <time>2019-09-12T14:14:19Z</time>
      </trkpt>
      <trkpt lat="46.89522" lon="5.03269">
        <ele>256.39999389648</ele>
        <time>2019-09-12T14:14:25Z</time>
      </trkpt>
      <trkpt lat="46.8953" lon="5.03218">
        <ele>256.39999389648</ele>
        <time>2019-09-12T14:14:32Z</time>
      </trkpt>
      <trkpt lat="46.89534" lon="5.03183">
        <ele>256.39999389648</ele>
        <time>2019-09-12T14:14:37Z</time>
      </trkpt>
      <trkpt lat="46.89535" lon="5.03169">
        <ele>256.39999389648</ele>
        <time>2019-09-12T14:14:39Z</time>
      </trkpt>
      <trkpt lat="46.89544" lon="5.03111">
        <ele>256.60000610352</ele>
        <time>2019-09-12T14:14:47Z</time>
      </trkpt>
      <trkpt lat="46.89547" lon="5.03096">
        <ele>256.60000610352</ele>
        <time>2019-09-12T14:14:49Z</time>
      </trkpt>
      <trkpt lat="46.89559" lon="5.03061">
        <ele>256.60000610352</ele>
        <time>2019-09-12T14:14:54Z</time>
      </trkpt>
      <trkpt lat="46.89582" lon="5.0301">
        <ele>256.60000610352</ele>
        <time>2019-09-12T14:15:02Z</time>
      </trkpt>
      <trkpt lat="46.89588" lon="5.02997">
        <ele>256.79998779297</ele>
        <time>2019-09-12T14:15:04Z</time>
      </trkpt>
      <trkpt lat="46.896" lon="5.02964">
        <ele>256.79998779297</ele>
        <time>2019-09-12T14:15:09Z</time>
      </trkpt>
      <trkpt lat="46.89606" lon="5.02939">
        <ele>256.79998779297</ele>
        <time>2019-09-12T14:15:13Z</time>
      </trkpt>
      <trkpt lat="46.89606" lon="5.02933">
        <ele>256.79998779297</ele>
        <time>2019-09-12T14:15:14Z</time>
      </trkpt>
      <trkpt lat="46.89599" lon="5.02916">
        <ele>256.79998779297</ele>
        <time>2019-09-12T14:15:17Z</time>
      </trkpt>
      <trkpt lat="46.89595" lon="5.02912">
        <ele>256.60000610352</ele>
        <time>2019-09-12T14:15:18Z</time>
      </trkpt>
      <trkpt lat="46.89583" lon="5.02897">
        <ele>256.60000610352</ele>
        <time>2019-09-12T14:15:21Z</time>
      </trkpt>
      <trkpt lat="46.89575" lon="5.02886">
        <ele>256.39999389648</ele>
        <time>2019-09-12T14:15:23Z</time>
      </trkpt>
      <trkpt lat="46.89548" lon="5.02836">
        <ele>256.60000610352</ele>
        <time>2019-09-12T14:15:31Z</time>
      </trkpt>
      <trkpt lat="46.89522" lon="5.02794">
        <ele>256.60000610352</ele>
        <time>2019-09-12T14:15:38Z</time>
      </trkpt>
      <trkpt lat="46.89517" lon="5.02789">
        <ele>256.60000610352</ele>
        <time>2019-09-12T14:15:39Z</time>
      </trkpt>
      <trkpt lat="46.89486" lon="5.02757">
        <ele>257</ele>
        <time>2019-09-12T14:15:46Z</time>
      </trkpt>
      <trkpt lat="46.89461" lon="5.0273">
        <ele>257.39999389648</ele>
        <time>2019-09-12T14:15:53Z</time>
      </trkpt>
      <trkpt lat="46.89456" lon="5.02721">
        <ele>257.60000610352</ele>
        <time>2019-09-12T14:15:55Z</time>
      </trkpt>
      <trkpt lat="46.89451" lon="5.02701">
        <ele>257.60000610352</ele>
        <time>2019-09-12T14:15:59Z</time>
      </trkpt>
      <trkpt lat="46.89452" lon="5.02671">
        <ele>258.39999389648</ele>
        <time>2019-09-12T14:16:05Z</time>
      </trkpt>
      <trkpt lat="46.89453" lon="5.02665">
        <ele>258.60000610352</ele>
        <time>2019-09-12T14:16:06Z</time>
      </trkpt>
      <trkpt lat="46.89454" lon="5.02644">
        <ele>259.39999389648</ele>
        <time>2019-09-12T14:16:10Z</time>
      </trkpt>
      <trkpt lat="46.89456" lon="5.02609">
        <ele>260.20001220703</ele>
        <time>2019-09-12T14:16:16Z</time>
      </trkpt>
      <trkpt lat="46.89456" lon="5.0259">
        <ele>260.39999389648</ele>
        <time>2019-09-12T14:16:19Z</time>
      </trkpt>
      <trkpt lat="46.89458" lon="5.02557">
        <ele>260.60000610352</ele>
        <time>2019-09-12T14:16:24Z</time>
      </trkpt>
      <trkpt lat="46.89459" lon="5.02498">
        <ele>260.60000610352</ele>
        <time>2019-09-12T14:16:32Z</time>
      </trkpt>
      <trkpt lat="46.89461" lon="5.02443">
        <ele>259.79998779297</ele>
        <time>2019-09-12T14:16:38Z</time>
      </trkpt>
      <trkpt lat="46.89461" lon="5.02426">
        <ele>259.39999389648</ele>
        <time>2019-09-12T14:16:40Z</time>
      </trkpt>
      <trkpt lat="46.89463" lon="5.02411">
        <ele>258.79998779297</ele>
        <time>2019-09-12T14:16:42Z</time>
      </trkpt>
      <trkpt lat="46.89464" lon="5.02405">
        <ele>258.60000610352</ele>
        <time>2019-09-12T14:16:43Z</time>
      </trkpt>
      <trkpt lat="46.8947" lon="5.02398">
        <ele>258.20001220703</ele>
        <time>2019-09-12T14:16:45Z</time>
      </trkpt>
      <trkpt lat="46.89474" lon="5.02398">
        <ele>257.79998779297</ele>
        <time>2019-09-12T14:16:46Z</time>
      </trkpt>
      <trkpt lat="46.89484" lon="5.02402">
        <ele>257</ele>
        <time>2019-09-12T14:16:49Z</time>
      </trkpt>
      <trkpt lat="46.8949" lon="5.02404">
        <ele>256.60000610352</ele>
        <time>2019-09-12T14:16:51Z</time>
      </trkpt>
      <trkpt lat="46.89495" lon="5.02406">
        <ele>256.20001220703</ele>
        <time>2019-09-12T14:16:53Z</time>
      </trkpt>
      <trkpt lat="46.89504" lon="5.02409">
        <ele>256.20001220703</ele>
        <time>2019-09-12T14:16:57Z</time>
      </trkpt>
      <trkpt lat="46.89513" lon="5.02409">
        <ele>256</ele>
        <time>2019-09-12T14:17:02Z</time>
      </trkpt>
      <trkpt lat="46.89528" lon="5.02415">
        <ele>256.60000610352</ele>
        <time>2019-09-12T14:17:08Z</time>
      </trkpt>
      <trkpt lat="46.89549" lon="5.02424">
        <ele>257</ele>
        <time>2019-09-12T14:17:15Z</time>
      </trkpt>
      <trkpt lat="46.89576" lon="5.02442">
        <ele>258</ele>
        <time>2019-09-12T14:17:25Z</time>
      </trkpt>
      <trkpt lat="46.89586" lon="5.02448">
        <ele>258.20001220703</ele>
        <time>2019-09-12T14:17:29Z</time>
      </trkpt>
      <trkpt lat="46.89595" lon="5.02454">
        <ele>258.39999389648</ele>
        <time>2019-09-12T14:17:33Z</time>
      </trkpt>
      <trkpt lat="46.89616" lon="5.0247">
        <ele>258</ele>
        <time>2019-09-12T14:17:41Z</time>
      </trkpt>
      <trkpt lat="46.89628" lon="5.02471">
        <ele>257.79998779297</ele>
        <time>2019-09-12T14:17:46Z</time>
      </trkpt>
      <trkpt lat="46.89642" lon="5.02461">
        <ele>257.60000610352</ele>
        <time>2019-09-12T14:17:52Z</time>
      </trkpt>
      <trkpt lat="46.89659" lon="5.0245">
        <ele>257.39999389648</ele>
        <time>2019-09-12T14:17:58Z</time>
      </trkpt>
      <trkpt lat="46.89674" lon="5.02455">
        <ele>257.20001220703</ele>
        <time>2019-09-12T14:18:03Z</time>
      </trkpt>
      <trkpt lat="46.897" lon="5.02473">
        <ele>257.39999389648</ele>
        <time>2019-09-12T14:18:11Z</time>
      </trkpt>
      <trkpt lat="46.89728" lon="5.02491">
        <ele>257.79998779297</ele>
        <time>2019-09-12T14:18:19Z</time>
      </trkpt>
      <trkpt lat="46.89753" lon="5.02508">
        <ele>257.60000610352</ele>
        <time>2019-09-12T14:18:26Z</time>
      </trkpt>
      <trkpt lat="46.89768" lon="5.02511">
        <ele>257.39999389648</ele>
        <time>2019-09-12T14:18:31Z</time>
      </trkpt>
      <trkpt lat="46.8979" lon="5.025">
        <ele>257.20001220703</ele>
        <time>2019-09-12T14:18:37Z</time>
      </trkpt>
      <trkpt lat="46.89823" lon="5.02478">
        <ele>257.20001220703</ele>
        <time>2019-09-12T14:18:46Z</time>
      </trkpt>
      <trkpt lat="46.89841" lon="5.02465">
        <ele>257.39999389648</ele>
        <time>2019-09-12T14:18:51Z</time>
      </trkpt>
      <trkpt lat="46.89855" lon="5.02456">
        <ele>257.39999389648</ele>
        <time>2019-09-12T14:18:55Z</time>
      </trkpt>
      <trkpt lat="46.89872" lon="5.02438">
        <ele>257.39999389648</ele>
        <time>2019-09-12T14:19:00Z</time>
      </trkpt>
      <trkpt lat="46.89875" lon="5.02434">
        <ele>257.39999389648</ele>
        <time>2019-09-12T14:19:01Z</time>
      </trkpt>
      <trkpt lat="46.89905" lon="5.0239">
        <ele>257.39999389648</ele>
        <time>2019-09-12T14:19:11Z</time>
      </trkpt>
      <trkpt lat="46.89922" lon="5.02364">
        <ele>257.20001220703</ele>
        <time>2019-09-12T14:19:18Z</time>
      </trkpt>
      <trkpt lat="46.89931" lon="5.02353">
        <ele>257</ele>
        <time>2019-09-12T14:19:23Z</time>
      </trkpt>
      <trkpt lat="46.89927" lon="5.02346">
        <ele>256.79998779297</ele>
        <time>2019-09-12T14:19:27Z</time>
      </trkpt>
      <trkpt lat="46.8992" lon="5.02337">
        <ele>256.79998779297</ele>
        <time>2019-09-12T14:19:30Z</time>
      </trkpt>
      <trkpt lat="46.89914" lon="5.02329">
        <ele>256.79998779297</ele>
        <time>2019-09-12T14:19:33Z</time>
      </trkpt>
      <trkpt lat="46.89909" lon="5.0232">
        <ele>256.79998779297</ele>
        <time>2019-09-12T14:19:37Z</time>
      </trkpt>
      <trkpt lat="46.8991" lon="5.02318">
        <ele>256.79998779297</ele>
        <time>2019-09-12T14:19:38Z</time>
      </trkpt>
      <trkpt lat="46.89911" lon="5.02315">
        <ele>257</ele>
        <time>2019-09-12T14:19:42Z</time>
      </trkpt>
      <trkpt lat="46.89908" lon="5.02314">
        <ele>257.79998779297</ele>
        <time>2019-09-12T14:20:04Z</time>
      </trkpt>
      <trkpt lat="46.89899" lon="5.02304">
        <ele>257.79998779297</ele>
        <time>2019-09-12T14:20:08Z</time>
      </trkpt>
      <trkpt lat="46.89889" lon="5.02287">
        <ele>257.79998779297</ele>
        <time>2019-09-12T14:20:14Z</time>
      </trkpt>
      <trkpt lat="46.8988" lon="5.02285">
        <ele>258</ele>
        <time>2019-09-12T14:20:19Z</time>
      </trkpt>
      <trkpt lat="46.89878" lon="5.02283">
        <ele>258.39999389648</ele>
        <time>2019-09-12T14:20:23Z</time>
      </trkpt>
      <trkpt lat="46.8988" lon="5.0228">
        <ele>258.60000610352</ele>
        <time>2019-09-12T14:23:19Z</time>
      </trkpt>
      <trkpt lat="46.89881" lon="5.0228">
        <ele>258.60000610352</ele>
        <time>2019-09-12T14:23:20Z</time>
      </trkpt>
      <trkpt lat="46.89887" lon="5.02286">
        <ele>258.60000610352</ele>
        <time>2019-09-12T14:23:24Z</time>
      </trkpt>
      <trkpt lat="46.89892" lon="5.02294">
        <ele>258.60000610352</ele>
        <time>2019-09-12T14:23:27Z</time>
      </trkpt>
      <trkpt lat="46.89903" lon="5.0231">
        <ele>258.60000610352</ele>
        <time>2019-09-12T14:23:32Z</time>
      </trkpt>
      <trkpt lat="46.89912" lon="5.02315">
        <ele>258.20001220703</ele>
        <time>2019-09-12T14:23:37Z</time>
      </trkpt>
      <trkpt lat="46.89914" lon="5.02314">
        <ele>257.79998779297</ele>
        <time>2019-09-12T14:23:40Z</time>
      </trkpt>
      <trkpt lat="46.89917" lon="5.02312">
        <ele>257.79998779297</ele>
        <time>2019-09-12T14:24:56Z</time>
      </trkpt>
      <trkpt lat="46.89918" lon="5.0231">
        <ele>257.79998779297</ele>
        <time>2019-09-12T14:24:57Z</time>
      </trkpt>
      <trkpt lat="46.89922" lon="5.02308">
        <ele>257.79998779297</ele>
        <time>2019-09-12T14:24:59Z</time>
      </trkpt>
      <trkpt lat="46.89927" lon="5.02308">
        <ele>257.79998779297</ele>
        <time>2019-09-12T14:25:01Z</time>
      </trkpt>
      <trkpt lat="46.89936" lon="5.02312">
        <ele>257.79998779297</ele>
        <time>2019-09-12T14:25:04Z</time>
      </trkpt>
      <trkpt lat="46.89944" lon="5.02318">
        <ele>257.79998779297</ele>
        <time>2019-09-12T14:25:07Z</time>
      </trkpt>
      <trkpt lat="46.89951" lon="5.0232">
        <ele>257.79998779297</ele>
        <time>2019-09-12T14:25:09Z</time>
      </trkpt>
      <trkpt lat="46.89954" lon="5.02318">
        <ele>257.79998779297</ele>
        <time>2019-09-12T14:25:10Z</time>
      </trkpt>
      <trkpt lat="46.8997" lon="5.023">
        <ele>257.60000610352</ele>
        <time>2019-09-12T14:25:15Z</time>
      </trkpt>
      <trkpt lat="46.90003" lon="5.0226">
        <ele>257.60000610352</ele>
        <time>2019-09-12T14:25:25Z</time>
      </trkpt>
      <trkpt lat="46.90031" lon="5.02224">
        <ele>257.79998779297</ele>
        <time>2019-09-12T14:25:34Z</time>
      </trkpt>
      <trkpt lat="46.90058" lon="5.02185">
        <ele>257.79998779297</ele>
        <time>2019-09-12T14:25:43Z</time>
      </trkpt>
      <trkpt lat="46.90075" lon="5.02159">
        <ele>258</ele>
        <time>2019-09-12T14:25:50Z</time>
      </trkpt>
      <trkpt lat="46.90088" lon="5.02138">
        <ele>258</ele>
        <time>2019-09-12T14:25:55Z</time>
      </trkpt>
      <trkpt lat="46.9011" lon="5.02104">
        <ele>257.60000610352</ele>
        <time>2019-09-12T14:26:03Z</time>
      </trkpt>
      <trkpt lat="46.9013" lon="5.02072">
        <ele>257.20001220703</ele>
        <time>2019-09-12T14:26:09Z</time>
      </trkpt>
      <trkpt lat="46.9015" lon="5.02042">
        <ele>256.39999389648</ele>
        <time>2019-09-12T14:26:15Z</time>
      </trkpt>
      <trkpt lat="46.90153" lon="5.02038">
        <ele>256.20001220703</ele>
        <time>2019-09-12T14:26:16Z</time>
      </trkpt>
      <trkpt lat="46.90166" lon="5.02019">
        <ele>255.39999389648</ele>
        <time>2019-09-12T14:26:21Z</time>
      </trkpt>
      <trkpt lat="46.90183" lon="5.01992">
        <ele>255.39999389648</ele>
        <time>2019-09-12T14:26:28Z</time>
      </trkpt>
      <trkpt lat="46.90203" lon="5.01952">
        <ele>255.19999694824</ele>
        <time>2019-09-12T14:26:36Z</time>
      </trkpt>
      <trkpt lat="46.90219" lon="5.01917">
        <ele>255.19999694824</ele>
        <time>2019-09-12T14:26:43Z</time>
      </trkpt>
      <trkpt lat="46.90227" lon="5.01894">
        <ele>255</ele>
        <time>2019-09-12T14:26:47Z</time>
      </trkpt>
      <trkpt lat="46.90235" lon="5.01876">
        <ele>255</ele>
        <time>2019-09-12T14:26:50Z</time>
      </trkpt>
      <trkpt lat="46.90248" lon="5.01838">
        <ele>255</ele>
        <time>2019-09-12T14:26:57Z</time>
      </trkpt>
      <trkpt lat="46.90259" lon="5.01812">
        <ele>255</ele>
        <time>2019-09-12T14:27:04Z</time>
      </trkpt>
      <trkpt lat="46.90262" lon="5.01803">
        <ele>255</ele>
        <time>2019-09-12T14:27:09Z</time>
      </trkpt>
      <trkpt lat="46.90262" lon="5.01799">
        <ele>255.19999694824</ele>
        <time>2019-09-12T14:27:12Z</time>
      </trkpt>
      <trkpt lat="46.90263" lon="5.01795">
        <ele>255.19999694824</ele>
        <time>2019-09-12T14:27:16Z</time>
      </trkpt>
      <trkpt lat="46.90264" lon="5.01795">
        <ele>255.19999694824</ele>
        <time>2019-09-12T14:27:18Z</time>
      </trkpt>
      <trkpt lat="46.90265" lon="5.01792">
        <ele>255.39999389648</ele>
        <time>2019-09-12T14:31:39Z</time>
      </trkpt>
      <trkpt lat="46.90267" lon="5.01787">
        <ele>255.39999389648</ele>
        <time>2019-09-12T14:31:41Z</time>
      </trkpt>
      <trkpt lat="46.90275" lon="5.01777">
        <ele>255.39999389648</ele>
        <time>2019-09-12T14:31:45Z</time>
      </trkpt>
      <trkpt lat="46.90285" lon="5.0176">
        <ele>255.39999389648</ele>
        <time>2019-09-12T14:31:50Z</time>
      </trkpt>
      <trkpt lat="46.90294" lon="5.01741">
        <ele>255.39999389648</ele>
        <time>2019-09-12T14:31:56Z</time>
      </trkpt>
      <trkpt lat="46.90303" lon="5.01719">
        <ele>255.19999694824</ele>
        <time>2019-09-12T14:32:04Z</time>
      </trkpt>
      <trkpt lat="46.9031" lon="5.01704">
        <ele>255.19999694824</ele>
        <time>2019-09-12T14:32:10Z</time>
      </trkpt>
      <trkpt lat="46.90313" lon="5.01697">
        <ele>255.19999694824</ele>
        <time>2019-09-12T14:32:13Z</time>
      </trkpt>
      <trkpt lat="46.90313" lon="5.0169">
        <ele>255.19999694824</ele>
        <time>2019-09-12T14:32:15Z</time>
      </trkpt>
      <trkpt lat="46.90311" lon="5.01672">
        <ele>255.39999389648</ele>
        <time>2019-09-12T14:32:21Z</time>
      </trkpt>
      <trkpt lat="46.90309" lon="5.01669">
        <ele>255.39999389648</ele>
        <time>2019-09-12T14:32:23Z</time>
      </trkpt>
      <trkpt lat="46.90305" lon="5.01666">
        <ele>255.60000610352</ele>
        <time>2019-09-12T14:32:26Z</time>
      </trkpt>
      <trkpt lat="46.90297" lon="5.01661">
        <ele>255.80000305176</ele>
        <time>2019-09-12T14:32:32Z</time>
      </trkpt>
      <trkpt lat="46.90287" lon="5.01656">
        <ele>255.80000305176</ele>
        <time>2019-09-12T14:32:38Z</time>
      </trkpt>
      <trkpt lat="46.90283" lon="5.0165">
        <ele>255.80000305176</ele>
        <time>2019-09-12T14:32:44Z</time>
      </trkpt>
      <trkpt lat="46.90282" lon="5.01643">
        <ele>256.20001220703</ele>
        <time>2019-09-12T14:33:04Z</time>
      </trkpt>
      <trkpt lat="46.90285" lon="5.01637">
        <ele>256.20001220703</ele>
        <time>2019-09-12T14:33:07Z</time>
      </trkpt>
      <trkpt lat="46.9029" lon="5.01624">
        <ele>256.20001220703</ele>
        <time>2019-09-12T14:33:12Z</time>
      </trkpt>
      <trkpt lat="46.90291" lon="5.01621">
        <ele>256.20001220703</ele>
        <time>2019-09-12T14:33:13Z</time>
      </trkpt>
      <trkpt lat="46.90297" lon="5.01606">
        <ele>256.20001220703</ele>
        <time>2019-09-12T14:33:19Z</time>
      </trkpt>
      <trkpt lat="46.903" lon="5.01597">
        <ele>256.20001220703</ele>
        <time>2019-09-12T14:33:24Z</time>
      </trkpt>
      <trkpt lat="46.903" lon="5.01594">
        <ele>256.20001220703</ele>
        <time>2019-09-12T14:33:25Z</time>
      </trkpt>
      <trkpt lat="46.90306" lon="5.01576">
        <ele>256.20001220703</ele>
        <time>2019-09-12T14:33:31Z</time>
      </trkpt>
      <trkpt lat="46.90311" lon="5.01564">
        <ele>256.20001220703</ele>
        <time>2019-09-12T14:33:36Z</time>
      </trkpt>
      <trkpt lat="46.90314" lon="5.01551">
        <ele>256.20001220703</ele>
        <time>2019-09-12T14:33:42Z</time>
      </trkpt>
      <trkpt lat="46.90312" lon="5.01546">
        <ele>256.20001220703</ele>
        <time>2019-09-12T14:33:47Z</time>
      </trkpt>
      <trkpt lat="46.90312" lon="5.01546">
        <ele>256.20001220703</ele>
        <time>2019-09-12T14:33:50Z</time>
      </trkpt>
      <trkpt lat="46.90316" lon="5.01549">
        <ele>256.20001220703</ele>
        <time>2019-09-12T14:33:59Z</time>
      </trkpt>
      <trkpt lat="46.90318" lon="5.01549">
        <ele>256.20001220703</ele>
        <time>2019-09-12T14:34:00Z</time>
      </trkpt>
      <trkpt lat="46.90327" lon="5.01546">
        <ele>256.20001220703</ele>
        <time>2019-09-12T14:34:05Z</time>
      </trkpt>
      <trkpt lat="46.90332" lon="5.01542">
        <ele>256.20001220703</ele>
        <time>2019-09-12T14:34:09Z</time>
      </trkpt>
      <trkpt lat="46.90332" lon="5.01541">
        <ele>256.20001220703</ele>
        <time>2019-09-12T14:34:10Z</time>
      </trkpt>
      <trkpt lat="46.90333" lon="5.01541">
        <ele>256.20001220703</ele>
        <time>2019-09-12T14:34:12Z</time>
      </trkpt>
      <trkpt lat="46.90331" lon="5.01544">
        <ele>237.19999694824</ele>
        <time>2019-09-13T07:01:12Z</time>
      </trkpt>
      <trkpt lat="46.9033" lon="5.01548">
        <ele>237.19999694824</ele>
        <time>2019-09-13T07:01:13Z</time>
      </trkpt>
      <trkpt lat="46.90328" lon="5.01551">
        <ele>237.39999389648</ele>
        <time>2019-09-13T07:01:14Z</time>
      </trkpt>
      <trkpt lat="46.90325" lon="5.01554">
        <ele>237.19999694824</ele>
        <time>2019-09-13T07:01:15Z</time>
      </trkpt>
      <trkpt lat="46.90323" lon="5.01556">
        <ele>237.39999389648</ele>
        <time>2019-09-13T07:01:16Z</time>
      </trkpt>
      <trkpt lat="46.90321" lon="5.01559">
        <ele>237.19999694824</ele>
        <time>2019-09-13T07:01:17Z</time>
      </trkpt>
      <trkpt lat="46.90316" lon="5.01567">
        <ele>237.19999694824</ele>
        <time>2019-09-13T07:01:19Z</time>
      </trkpt>
      <trkpt lat="46.90308" lon="5.01585">
        <ele>237.39999389648</ele>
        <time>2019-09-13T07:01:23Z</time>
      </trkpt>
      <trkpt lat="46.90294" lon="5.01612">
        <ele>237.39999389648</ele>
        <time>2019-09-13T07:01:30Z</time>
      </trkpt>
      <trkpt lat="46.90282" lon="5.01639">
        <ele>237.39999389648</ele>
        <time>2019-09-13T07:01:37Z</time>
      </trkpt>
      <trkpt lat="46.90268" lon="5.01669">
        <ele>237.39999389648</ele>
        <time>2019-09-13T07:01:44Z</time>
      </trkpt>
      <trkpt lat="46.90253" lon="5.01698">
        <ele>237.60000610352</ele>
        <time>2019-09-13T07:01:51Z</time>
      </trkpt>
      <trkpt lat="46.90249" lon="5.01723">
        <ele>237.60000610352</ele>
        <time>2019-09-13T07:01:56Z</time>
      </trkpt>
      <trkpt lat="46.90257" lon="5.01749">
        <ele>237.39999389648</ele>
        <time>2019-09-13T07:02:01Z</time>
      </trkpt>
      <trkpt lat="46.90267" lon="5.0177">
        <ele>237.60000610352</ele>
        <time>2019-09-13T07:02:08Z</time>
      </trkpt>
      <trkpt lat="46.9027" lon="5.01775">
        <ele>237.60000610352</ele>
        <time>2019-09-13T07:02:10Z</time>
      </trkpt>
      <trkpt lat="46.90272" lon="5.01777">
        <ele>237.39999389648</ele>
        <time>2019-09-13T07:02:12Z</time>
      </trkpt>
      <trkpt lat="46.9027" lon="5.01772">
        <ele>237.19999694824</ele>
        <time>2019-09-13T07:02:15Z</time>
      </trkpt>
      <trkpt lat="46.90268" lon="5.01772">
        <ele>237.19999694824</ele>
        <time>2019-09-13T07:02:16Z</time>
      </trkpt>
      <trkpt lat="46.90267" lon="5.01772">
        <ele>237.19999694824</ele>
        <time>2019-09-13T07:02:17Z</time>
      </trkpt>
      <trkpt lat="46.90263" lon="5.01773">
        <ele>237.19999694824</ele>
        <time>2019-09-13T07:02:20Z</time>
      </trkpt>
      <trkpt lat="46.9026" lon="5.01767">
        <ele>237.19999694824</ele>
        <time>2019-09-13T07:02:23Z</time>
      </trkpt>
      <trkpt lat="46.90258" lon="5.01764">
        <ele>237.19999694824</ele>
        <time>2019-09-13T07:02:24Z</time>
      </trkpt>
      <trkpt lat="46.9024" lon="5.01737">
        <ele>237.19999694824</ele>
        <time>2019-09-13T07:02:31Z</time>
      </trkpt>
      <trkpt lat="46.90216" lon="5.01707">
        <ele>237.39999389648</ele>
        <time>2019-09-13T07:02:39Z</time>
      </trkpt>
      <trkpt lat="46.90193" lon="5.01677">
        <ele>237.39999389648</ele>
        <time>2019-09-13T07:02:47Z</time>
      </trkpt>
      <trkpt lat="46.90178" lon="5.01659">
        <ele>237.60000610352</ele>
        <time>2019-09-13T07:02:54Z</time>
      </trkpt>
      <trkpt lat="46.90178" lon="5.01658">
        <ele>237.60000610352</ele>
        <time>2019-09-13T07:02:56Z</time>
      </trkpt>
      <trkpt lat="46.90181" lon="5.01661">
        <ele>237.19999694824</ele>
        <time>2019-09-13T07:04:17Z</time>
      </trkpt>
      <trkpt lat="46.90184" lon="5.01664">
        <ele>237.19999694824</ele>
        <time>2019-09-13T07:04:19Z</time>
      </trkpt>
      <trkpt lat="46.90188" lon="5.01668">
        <ele>237.19999694824</ele>
        <time>2019-09-13T07:04:21Z</time>
      </trkpt>
      <trkpt lat="46.90197" lon="5.01678">
        <ele>237.19999694824</ele>
        <time>2019-09-13T07:04:25Z</time>
      </trkpt>
      <trkpt lat="46.90213" lon="5.01701">
        <ele>237</ele>
        <time>2019-09-13T07:04:33Z</time>
      </trkpt>
      <trkpt lat="46.9022" lon="5.01711">
        <ele>237</ele>
        <time>2019-09-13T07:04:38Z</time>
      </trkpt>
      <trkpt lat="46.90221" lon="5.01712">
        <ele>237</ele>
        <time>2019-09-13T07:04:39Z</time>
      </trkpt>
      <trkpt lat="46.90222" lon="5.01714">
        <ele>237</ele>
        <time>2019-09-13T07:04:42Z</time>
      </trkpt>
      <trkpt lat="46.90224" lon="5.01712">
        <ele>237.19999694824</ele>
        <time>2019-09-13T07:04:56Z</time>
      </trkpt>
      <trkpt lat="46.90226" lon="5.01714">
        <ele>237.19999694824</ele>
        <time>2019-09-13T07:04:57Z</time>
      </trkpt>
      <trkpt lat="46.90235" lon="5.01727">
        <ele>237</ele>
        <time>2019-09-13T07:05:02Z</time>
      </trkpt>
      <trkpt lat="46.90255" lon="5.0176">
        <ele>237</ele>
        <time>2019-09-13T07:05:10Z</time>
      </trkpt>
      <trkpt lat="46.90269" lon="5.01787">
        <ele>236.80000305176</ele>
        <time>2019-09-13T07:05:16Z</time>
      </trkpt>
      <trkpt lat="46.90267" lon="5.018">
        <ele>236.80000305176</ele>
        <time>2019-09-13T07:05:20Z</time>
      </trkpt>
      <trkpt lat="46.90267" lon="5.01802">
        <ele>236.60000610352</ele>
        <time>2019-09-13T07:05:21Z</time>
      </trkpt>
      <trkpt lat="46.90266" lon="5.0181">
        <ele>236.60000610352</ele>
        <time>2019-09-13T07:05:24Z</time>
      </trkpt>
      <trkpt lat="46.90265" lon="5.01813">
        <ele>236.60000610352</ele>
        <time>2019-09-13T07:05:25Z</time>
      </trkpt>
      <trkpt lat="46.90264" lon="5.01815">
        <ele>236.60000610352</ele>
        <time>2019-09-13T07:05:28Z</time>
      </trkpt>
      <trkpt lat="46.90263" lon="5.01817">
        <ele>236</ele>
        <time>2019-09-13T07:05:48Z</time>
      </trkpt>
      <trkpt lat="46.9026" lon="5.01824">
        <ele>236</ele>
        <time>2019-09-13T07:05:51Z</time>
      </trkpt>
      <trkpt lat="46.90251" lon="5.01851">
        <ele>236</ele>
        <time>2019-09-13T07:05:57Z</time>
      </trkpt>
      <trkpt lat="46.90237" lon="5.01882">
        <ele>236</ele>
        <time>2019-09-13T07:06:04Z</time>
      </trkpt>
      <trkpt lat="46.90226" lon="5.01908">
        <ele>236</ele>
        <time>2019-09-13T07:06:10Z</time>
      </trkpt>
      <trkpt lat="46.90217" lon="5.01928">
        <ele>236</ele>
        <time>2019-09-13T07:06:14Z</time>
      </trkpt>
      <trkpt lat="46.90206" lon="5.01953">
        <ele>236</ele>
        <time>2019-09-13T07:06:19Z</time>
      </trkpt>
      <trkpt lat="46.90201" lon="5.01964">
        <ele>236</ele>
        <time>2019-09-13T07:06:21Z</time>
      </trkpt>
      <trkpt lat="46.90196" lon="5.01974">
        <ele>235.80000305176</ele>
        <time>2019-09-13T07:06:23Z</time>
      </trkpt>
      <trkpt lat="46.90188" lon="5.01992">
        <ele>235.80000305176</ele>
        <time>2019-09-13T07:06:27Z</time>
      </trkpt>
      <trkpt lat="46.90174" lon="5.02016">
        <ele>236</ele>
        <time>2019-09-13T07:06:33Z</time>
      </trkpt>
      <trkpt lat="46.90162" lon="5.02031">
        <ele>236</ele>
        <time>2019-09-13T07:06:36Z</time>
      </trkpt>
      <trkpt lat="46.90158" lon="5.02037">
        <ele>236.19999694824</ele>
        <time>2019-09-13T07:06:37Z</time>
      </trkpt>
      <trkpt lat="46.90133" lon="5.02077">
        <ele>236</ele>
        <time>2019-09-13T07:06:43Z</time>
      </trkpt>
      <trkpt lat="46.90116" lon="5.02105">
        <ele>236.19999694824</ele>
        <time>2019-09-13T07:06:49Z</time>
      </trkpt>
      <trkpt lat="46.90095" lon="5.02134">
        <ele>237.39999389648</ele>
        <time>2019-09-13T07:06:56Z</time>
      </trkpt>
      <trkpt lat="46.90092" lon="5.02139">
        <ele>237.80000305176</ele>
        <time>2019-09-13T07:06:57Z</time>
      </trkpt>
      <trkpt lat="46.90078" lon="5.02161">
        <ele>238.60000610352</ele>
        <time>2019-09-13T07:07:03Z</time>
      </trkpt>
      <trkpt lat="46.90083" lon="5.02172">
        <ele>238.39999389648</ele>
        <time>2019-09-13T07:07:06Z</time>
      </trkpt>
      <trkpt lat="46.90086" lon="5.02173">
        <ele>238.60000610352</ele>
        <time>2019-09-13T07:07:07Z</time>
      </trkpt>
      <trkpt lat="46.90098" lon="5.02172">
        <ele>239.19999694824</ele>
        <time>2019-09-13T07:07:10Z</time>
      </trkpt>
      <trkpt lat="46.90121" lon="5.02172">
        <ele>239.60000610352</ele>
        <time>2019-09-13T07:07:17Z</time>
      </trkpt>
      <trkpt lat="46.90127" lon="5.02175">
        <ele>239.80000305176</ele>
        <time>2019-09-13T07:07:19Z</time>
      </trkpt>
      <trkpt lat="46.90141" lon="5.02181">
        <ele>240.60000610352</ele>
        <time>2019-09-13T07:07:24Z</time>
      </trkpt>
      <trkpt lat="46.90149" lon="5.02186">
        <ele>241</ele>
        <time>2019-09-13T07:07:27Z</time>
      </trkpt>
      <trkpt lat="46.90159" lon="5.02193">
        <ele>241.39999389648</ele>
        <time>2019-09-13T07:07:31Z</time>
      </trkpt>
      <trkpt lat="46.90166" lon="5.02199">
        <ele>242</ele>
        <time>2019-09-13T07:07:34Z</time>
      </trkpt>
      <trkpt lat="46.90178" lon="5.02207">
        <ele>242.80000305176</ele>
        <time>2019-09-13T07:07:39Z</time>
      </trkpt>
      <trkpt lat="46.9018" lon="5.02209">
        <ele>243.19999694824</ele>
        <time>2019-09-13T07:07:40Z</time>
      </trkpt>
      <trkpt lat="46.9019" lon="5.02215">
        <ele>243.80000305176</ele>
        <time>2019-09-13T07:07:44Z</time>
      </trkpt>
      <trkpt lat="46.90195" lon="5.02215">
        <ele>244.19999694824</ele>
        <time>2019-09-13T07:07:46Z</time>
      </trkpt>
      <trkpt lat="46.90199" lon="5.02217">
        <ele>244.39999389648</ele>
        <time>2019-09-13T07:07:48Z</time>
      </trkpt>
      <trkpt lat="46.902" lon="5.02218">
        <ele>244.39999389648</ele>
        <time>2019-09-13T07:07:50Z</time>
      </trkpt>
      <trkpt lat="46.902" lon="5.02218">
        <ele>244.60000610352</ele>
        <time>2019-09-13T07:07:51Z</time>
      </trkpt>
      <trkpt lat="46.90201" lon="5.02222">
        <ele>245.39999389648</ele>
        <time>2019-09-13T07:08:28Z</time>
      </trkpt>
      <trkpt lat="46.90204" lon="5.02227">
        <ele>245.60000610352</ele>
        <time>2019-09-13T07:08:30Z</time>
      </trkpt>
      <trkpt lat="46.90212" lon="5.02233">
        <ele>245.60000610352</ele>
        <time>2019-09-13T07:08:33Z</time>
      </trkpt>
      <trkpt lat="46.90221" lon="5.0224">
        <ele>245.60000610352</ele>
        <time>2019-09-13T07:08:36Z</time>
      </trkpt>
      <trkpt lat="46.90244" lon="5.02258">
        <ele>246</ele>
        <time>2019-09-13T07:08:43Z</time>
      </trkpt>
      <trkpt lat="46.90272" lon="5.02279">
        <ele>246</ele>
        <time>2019-09-13T07:08:50Z</time>
      </trkpt>
      <trkpt lat="46.90312" lon="5.02311">
        <ele>245.39999389648</ele>
        <time>2019-09-13T07:08:58Z</time>
      </trkpt>
      <trkpt lat="46.90329" lon="5.02341">
        <ele>244.60000610352</ele>
        <time>2019-09-13T07:09:02Z</time>
      </trkpt>
      <trkpt lat="46.90332" lon="5.0235">
        <ele>244.39999389648</ele>
        <time>2019-09-13T07:09:03Z</time>
      </trkpt>
      <trkpt lat="46.90335" lon="5.0236">
        <ele>244.19999694824</ele>
        <time>2019-09-13T07:09:04Z</time>
      </trkpt>
      <trkpt lat="46.90343" lon="5.02389">
        <ele>243.19999694824</ele>
        <time>2019-09-13T07:09:07Z</time>
      </trkpt>
      <trkpt lat="46.90348" lon="5.02409">
        <ele>242.60000610352</ele>
        <time>2019-09-13T07:09:09Z</time>
      </trkpt>
      <trkpt lat="46.90353" lon="5.02428">
        <ele>242.19999694824</ele>
        <time>2019-09-13T07:09:11Z</time>
      </trkpt>
      <trkpt lat="46.90362" lon="5.02455">
        <ele>241.19999694824</ele>
        <time>2019-09-13T07:09:14Z</time>
      </trkpt>
      <trkpt lat="46.90366" lon="5.02462">
        <ele>241</ele>
        <time>2019-09-13T07:09:15Z</time>
      </trkpt>
      <trkpt lat="46.90376" lon="5.0246">
        <ele>240.39999389648</ele>
        <time>2019-09-13T07:09:17Z</time>
      </trkpt>
      <trkpt lat="46.90377" lon="5.02446">
        <ele>240</ele>
        <time>2019-09-13T07:09:19Z</time>
      </trkpt>
      <trkpt lat="46.90371" lon="5.02431">
        <ele>239.80000305176</ele>
        <time>2019-09-13T07:09:21Z</time>
      </trkpt>
      <trkpt lat="46.90362" lon="5.02408">
        <ele>239.39999389648</ele>
        <time>2019-09-13T07:09:24Z</time>
      </trkpt>
      <trkpt lat="46.90357" lon="5.02391">
        <ele>238.80000305176</ele>
        <time>2019-09-13T07:09:26Z</time>
      </trkpt>
      <trkpt lat="46.9035" lon="5.02358">
        <ele>237.80000305176</ele>
        <time>2019-09-13T07:09:30Z</time>
      </trkpt>
      <trkpt lat="46.90348" lon="5.0235">
        <ele>237.60000610352</ele>
        <time>2019-09-13T07:09:31Z</time>
      </trkpt>
      <trkpt lat="46.90346" lon="5.02342">
        <ele>237.39999389648</ele>
        <time>2019-09-13T07:09:32Z</time>
      </trkpt>
      <trkpt lat="46.90339" lon="5.02318">
        <ele>237.19999694824</ele>
        <time>2019-09-13T07:09:35Z</time>
      </trkpt>
      <trkpt lat="46.90335" lon="5.02311">
        <ele>237</ele>
        <time>2019-09-13T07:09:36Z</time>
      </trkpt>
      <trkpt lat="46.90333" lon="5.02304">
        <ele>237</ele>
        <time>2019-09-13T07:09:37Z</time>
      </trkpt>
      <trkpt lat="46.90329" lon="5.0228">
        <ele>237</ele>
        <time>2019-09-13T07:09:40Z</time>
      </trkpt>
      <trkpt lat="46.90333" lon="5.02255">
        <ele>236.60000610352</ele>
        <time>2019-09-13T07:09:43Z</time>
      </trkpt>
      <trkpt lat="46.90335" lon="5.02247">
        <ele>236.60000610352</ele>
        <time>2019-09-13T07:09:44Z</time>
      </trkpt>
      <trkpt lat="46.90337" lon="5.02239">
        <ele>236.39999389648</ele>
        <time>2019-09-13T07:09:45Z</time>
      </trkpt>
      <trkpt lat="46.9034" lon="5.02232">
        <ele>236.39999389648</ele>
        <time>2019-09-13T07:09:46Z</time>
      </trkpt>
      <trkpt lat="46.9035" lon="5.02204">
        <ele>236.39999389648</ele>
        <time>2019-09-13T07:09:50Z</time>
      </trkpt>
      <trkpt lat="46.90373" lon="5.02148">
        <ele>236.80000305176</ele>
        <time>2019-09-13T07:09:59Z</time>
      </trkpt>
      <trkpt lat="46.90395" lon="5.0209">
        <ele>237</ele>
        <time>2019-09-13T07:10:08Z</time>
      </trkpt>
      <trkpt lat="46.90416" lon="5.02031">
        <ele>237</ele>
        <time>2019-09-13T07:10:17Z</time>
      </trkpt>
      <trkpt lat="46.90431" lon="5.01993">
        <ele>237</ele>
        <time>2019-09-13T07:10:23Z</time>
      </trkpt>
      <trkpt lat="46.90433" lon="5.01986">
        <ele>236.80000305176</ele>
        <time>2019-09-13T07:10:24Z</time>
      </trkpt>
      <trkpt lat="46.90454" lon="5.01932">
        <ele>236.80000305176</ele>
        <time>2019-09-13T07:10:32Z</time>
      </trkpt>
      <trkpt lat="46.90479" lon="5.01866">
        <ele>236.60000610352</ele>
        <time>2019-09-13T07:10:42Z</time>
      </trkpt>
      <trkpt lat="46.90503" lon="5.01807">
        <ele>236.60000610352</ele>
        <time>2019-09-13T07:10:51Z</time>
      </trkpt>
      <trkpt lat="46.90528" lon="5.01751">
        <ele>236.60000610352</ele>
        <time>2019-09-13T07:11:00Z</time>
      </trkpt>
      <trkpt lat="46.90556" lon="5.01688">
        <ele>236.80000305176</ele>
        <time>2019-09-13T07:11:10Z</time>
      </trkpt>
      <trkpt lat="46.90583" lon="5.01633">
        <ele>236.80000305176</ele>
        <time>2019-09-13T07:11:19Z</time>
      </trkpt>
      <trkpt lat="46.90592" lon="5.01615">
        <ele>236.80000305176</ele>
        <time>2019-09-13T07:11:22Z</time>
      </trkpt>
      <trkpt lat="46.90602" lon="5.01599">
        <ele>236.80000305176</ele>
        <time>2019-09-13T07:11:25Z</time>
      </trkpt>
      <trkpt lat="46.90608" lon="5.01587">
        <ele>236.80000305176</ele>
        <time>2019-09-13T07:11:27Z</time>
      </trkpt>
      <trkpt lat="46.90622" lon="5.01557">
        <ele>236.60000610352</ele>
        <time>2019-09-13T07:11:32Z</time>
      </trkpt>
      <trkpt lat="46.90644" lon="5.01514">
        <ele>236.60000610352</ele>
        <time>2019-09-13T07:11:39Z</time>
      </trkpt>
      <trkpt lat="46.90679" lon="5.01448">
        <ele>236.60000610352</ele>
        <time>2019-09-13T07:11:50Z</time>
      </trkpt>
      <trkpt lat="46.90713" lon="5.0138">
        <ele>236.80000305176</ele>
        <time>2019-09-13T07:12:01Z</time>
      </trkpt>
      <trkpt lat="46.90716" lon="5.01374">
        <ele>236.80000305176</ele>
        <time>2019-09-13T07:12:02Z</time>
      </trkpt>
      <trkpt lat="46.90742" lon="5.01315">
        <ele>236.60000610352</ele>
        <time>2019-09-13T07:12:11Z</time>
      </trkpt>
      <trkpt lat="46.90758" lon="5.0126">
        <ele>236.60000610352</ele>
        <time>2019-09-13T07:12:19Z</time>
      </trkpt>
      <trkpt lat="46.90773" lon="5.01207">
        <ele>236.60000610352</ele>
        <time>2019-09-13T07:12:27Z</time>
      </trkpt>
      <trkpt lat="46.90782" lon="5.01157">
        <ele>236.60000610352</ele>
        <time>2019-09-13T07:12:34Z</time>
      </trkpt>
      <trkpt lat="46.90789" lon="5.01113">
        <ele>236.39999389648</ele>
        <time>2019-09-13T07:12:40Z</time>
      </trkpt>
      <trkpt lat="46.90793" lon="5.0109">
        <ele>236.39999389648</ele>
        <time>2019-09-13T07:12:43Z</time>
      </trkpt>
      <trkpt lat="46.90799" lon="5.01054">
        <ele>236.19999694824</ele>
        <time>2019-09-13T07:12:48Z</time>
      </trkpt>
      <trkpt lat="46.90801" lon="5.01003">
        <ele>236</ele>
        <time>2019-09-13T07:12:55Z</time>
      </trkpt>
      <trkpt lat="46.908" lon="5.00956">
        <ele>236</ele>
        <time>2019-09-13T07:13:01Z</time>
      </trkpt>
      <trkpt lat="46.90794" lon="5.00886">
        <ele>236</ele>
        <time>2019-09-13T07:13:10Z</time>
      </trkpt>
      <trkpt lat="46.90789" lon="5.00822">
        <ele>236.19999694824</ele>
        <time>2019-09-13T07:13:19Z</time>
      </trkpt>
      <trkpt lat="46.90786" lon="5.00782">
        <ele>236.60000610352</ele>
        <time>2019-09-13T07:13:26Z</time>
      </trkpt>
      <trkpt lat="46.90784" lon="5.00756">
        <ele>237.39999389648</ele>
        <time>2019-09-13T07:13:31Z</time>
      </trkpt>
      <trkpt lat="46.90783" lon="5.00731">
        <ele>238.39999389648</ele>
        <time>2019-09-13T07:13:36Z</time>
      </trkpt>
      <trkpt lat="46.90783" lon="5.00726">
        <ele>238.39999389648</ele>
        <time>2019-09-13T07:13:37Z</time>
      </trkpt>
      <trkpt lat="46.90782" lon="5.00704">
        <ele>239</ele>
        <time>2019-09-13T07:13:41Z</time>
      </trkpt>
      <trkpt lat="46.90778" lon="5.00692">
        <ele>239</ele>
        <time>2019-09-13T07:13:43Z</time>
      </trkpt>
      <trkpt lat="46.90774" lon="5.0068">
        <ele>239</ele>
        <time>2019-09-13T07:13:45Z</time>
      </trkpt>
      <trkpt lat="46.90762" lon="5.00654">
        <ele>239</ele>
        <time>2019-09-13T07:13:49Z</time>
      </trkpt>
      <trkpt lat="46.90738" lon="5.00589">
        <ele>237.19999694824</ele>
        <time>2019-09-13T07:13:58Z</time>
      </trkpt>
      <trkpt lat="46.90717" lon="5.0053">
        <ele>236.39999389648</ele>
        <time>2019-09-13T07:14:07Z</time>
      </trkpt>
      <trkpt lat="46.90713" lon="5.00517">
        <ele>236.19999694824</ele>
        <time>2019-09-13T07:14:09Z</time>
      </trkpt>
      <trkpt lat="46.90698" lon="5.00478">
        <ele>236</ele>
        <time>2019-09-13T07:14:15Z</time>
      </trkpt>
      <trkpt lat="46.90692" lon="5.00466">
        <ele>236.19999694824</ele>
        <time>2019-09-13T07:14:17Z</time>
      </trkpt>
      <trkpt lat="46.90678" lon="5.00444">
        <ele>236.19999694824</ele>
        <time>2019-09-13T07:14:21Z</time>
      </trkpt>
      <trkpt lat="46.90666" lon="5.0043">
        <ele>236.19999694824</ele>
        <time>2019-09-13T07:14:24Z</time>
      </trkpt>
      <trkpt lat="46.90656" lon="5.00412">
        <ele>236</ele>
        <time>2019-09-13T07:14:27Z</time>
      </trkpt>
      <trkpt lat="46.90641" lon="5.00384">
        <ele>236</ele>
        <time>2019-09-13T07:14:32Z</time>
      </trkpt>
      <trkpt lat="46.90638" lon="5.00377">
        <ele>236</ele>
        <time>2019-09-13T07:14:34Z</time>
      </trkpt>
      <trkpt lat="46.90632" lon="5.00368">
        <ele>236</ele>
        <time>2019-09-13T07:14:38Z</time>
      </trkpt>
      <trkpt lat="46.90629" lon="5.00365">
        <ele>236</ele>
        <time>2019-09-13T07:14:39Z</time>
      </trkpt>
      <trkpt lat="46.90621" lon="5.00354">
        <ele>236</ele>
        <time>2019-09-13T07:14:42Z</time>
      </trkpt>
      <trkpt lat="46.90618" lon="5.00349">
        <ele>236</ele>
        <time>2019-09-13T07:14:43Z</time>
      </trkpt>
      <trkpt lat="46.90602" lon="5.00323">
        <ele>236.19999694824</ele>
        <time>2019-09-13T07:14:48Z</time>
      </trkpt>
      <trkpt lat="46.90576" lon="5.0028">
        <ele>236.19999694824</ele>
        <time>2019-09-13T07:14:56Z</time>
      </trkpt>
      <trkpt lat="46.90553" lon="5.00239">
        <ele>236.19999694824</ele>
        <time>2019-09-13T07:15:03Z</time>
      </trkpt>
      <trkpt lat="46.90529" lon="5.002">
        <ele>236.19999694824</ele>
        <time>2019-09-13T07:15:10Z</time>
      </trkpt>
      <trkpt lat="46.90521" lon="5.00183">
        <ele>236.19999694824</ele>
        <time>2019-09-13T07:15:13Z</time>
      </trkpt>
      <trkpt lat="46.90516" lon="5.00176">
        <ele>236.19999694824</ele>
        <time>2019-09-13T07:15:15Z</time>
      </trkpt>
      <trkpt lat="46.90509" lon="5.00167">
        <ele>236.19999694824</ele>
        <time>2019-09-13T07:15:19Z</time>
      </trkpt>
      <trkpt lat="46.90499" lon="5.00149">
        <ele>236.19999694824</ele>
        <time>2019-09-13T07:15:23Z</time>
      </trkpt>
      <trkpt lat="46.90496" lon="5.00144">
        <ele>236.19999694824</ele>
        <time>2019-09-13T07:15:24Z</time>
      </trkpt>
      <trkpt lat="46.90469" lon="5.00096">
        <ele>236.19999694824</ele>
        <time>2019-09-13T07:15:32Z</time>
      </trkpt>
      <trkpt lat="46.90442" lon="5.00048">
        <ele>236.19999694824</ele>
        <time>2019-09-13T07:15:40Z</time>
      </trkpt>
      <trkpt lat="46.90412" lon="4.99994">
        <ele>236.19999694824</ele>
        <time>2019-09-13T07:15:49Z</time>
      </trkpt>
      <trkpt lat="46.90375" lon="4.99931">
        <ele>236.60000610352</ele>
        <time>2019-09-13T07:16:00Z</time>
      </trkpt>
      <trkpt lat="46.90357" lon="4.99895">
        <ele>236.60000610352</ele>
        <time>2019-09-13T07:16:06Z</time>
      </trkpt>
      <trkpt lat="46.90355" lon="4.99888">
        <ele>236.60000610352</ele>
        <time>2019-09-13T07:16:07Z</time>
      </trkpt>
      <trkpt lat="46.90353" lon="4.99867">
        <ele>236.60000610352</ele>
        <time>2019-09-13T07:16:10Z</time>
      </trkpt>
      <trkpt lat="46.90358" lon="4.99846">
        <ele>236.60000610352</ele>
        <time>2019-09-13T07:16:14Z</time>
      </trkpt>
      <trkpt lat="46.9036" lon="4.99843">
        <ele>236.60000610352</ele>
        <time>2019-09-13T07:16:15Z</time>
      </trkpt>
      <trkpt lat="46.90358" lon="4.99832">
        <ele>237</ele>
        <time>2019-09-13T07:16:18Z</time>
      </trkpt>
      <trkpt lat="46.90355" lon="4.99829">
        <ele>237.19999694824</ele>
        <time>2019-09-13T07:16:19Z</time>
      </trkpt>
      <trkpt lat="46.90345" lon="4.99813">
        <ele>237.60000610352</ele>
        <time>2019-09-13T07:16:23Z</time>
      </trkpt>
      <trkpt lat="46.90342" lon="4.99809">
        <ele>237.60000610352</ele>
        <time>2019-09-13T07:16:24Z</time>
      </trkpt>
      <trkpt lat="46.9034" lon="4.99793">
        <ele>237.60000610352</ele>
        <time>2019-09-13T07:16:27Z</time>
      </trkpt>
      <trkpt lat="46.9035" lon="4.99778">
        <ele>237.60000610352</ele>
        <time>2019-09-13T07:16:30Z</time>
      </trkpt>
      <trkpt lat="46.90369" lon="4.99755">
        <ele>237.39999389648</ele>
        <time>2019-09-13T07:16:35Z</time>
      </trkpt>
      <trkpt lat="46.9039" lon="4.99726">
        <ele>236.80000305176</ele>
        <time>2019-09-13T07:16:41Z</time>
      </trkpt>
      <trkpt lat="46.90415" lon="4.99687">
        <ele>237</ele>
        <time>2019-09-13T07:16:48Z</time>
      </trkpt>
      <trkpt lat="46.90449" lon="4.99623">
        <ele>237.39999389648</ele>
        <time>2019-09-13T07:16:58Z</time>
      </trkpt>
      <trkpt lat="46.90471" lon="4.9957">
        <ele>237.39999389648</ele>
        <time>2019-09-13T07:17:06Z</time>
      </trkpt>
      <trkpt lat="46.9049" lon="4.99513">
        <ele>237.19999694824</ele>
        <time>2019-09-13T07:17:14Z</time>
      </trkpt>
      <trkpt lat="46.90493" lon="4.99481">
        <ele>237</ele>
        <time>2019-09-13T07:17:18Z</time>
      </trkpt>
      <trkpt lat="46.90494" lon="4.99457">
        <ele>237</ele>
        <time>2019-09-13T07:17:21Z</time>
      </trkpt>
      <trkpt lat="46.90496" lon="4.99395">
        <ele>236.80000305176</ele>
        <time>2019-09-13T07:17:29Z</time>
      </trkpt>
      <trkpt lat="46.905" lon="4.99334">
        <ele>237.19999694824</ele>
        <time>2019-09-13T07:17:37Z</time>
      </trkpt>
      <trkpt lat="46.905" lon="4.99282">
        <ele>237.60000610352</ele>
        <time>2019-09-13T07:17:44Z</time>
      </trkpt>
      <trkpt lat="46.90496" lon="4.99222">
        <ele>237.60000610352</ele>
        <time>2019-09-13T07:17:52Z</time>
      </trkpt>
      <trkpt lat="46.90484" lon="4.9915">
        <ele>237.60000610352</ele>
        <time>2019-09-13T07:18:02Z</time>
      </trkpt>
      <trkpt lat="46.90475" lon="4.99103">
        <ele>237.60000610352</ele>
        <time>2019-09-13T07:18:09Z</time>
      </trkpt>
      <trkpt lat="46.90466" lon="4.99066">
        <ele>238</ele>
        <time>2019-09-13T07:18:15Z</time>
      </trkpt>
      <trkpt lat="46.90462" lon="4.99053">
        <ele>238</ele>
        <time>2019-09-13T07:18:17Z</time>
      </trkpt>
      <trkpt lat="46.90457" lon="4.99022">
        <ele>238.19999694824</ele>
        <time>2019-09-13T07:18:22Z</time>
      </trkpt>
      <trkpt lat="46.90448" lon="4.98961">
        <ele>238</ele>
        <time>2019-09-13T07:18:30Z</time>
      </trkpt>
      <trkpt lat="46.90437" lon="4.98901">
        <ele>237.80000305176</ele>
        <time>2019-09-13T07:18:38Z</time>
      </trkpt>
      <trkpt lat="46.90425" lon="4.98846">
        <ele>237.60000610352</ele>
        <time>2019-09-13T07:18:45Z</time>
      </trkpt>
      <trkpt lat="46.9041" lon="4.98798">
        <ele>237.39999389648</ele>
        <time>2019-09-13T07:18:51Z</time>
      </trkpt>
      <trkpt lat="46.9039" lon="4.98736">
        <ele>237.19999694824</ele>
        <time>2019-09-13T07:18:59Z</time>
      </trkpt>
      <trkpt lat="46.90381" lon="4.98685">
        <ele>237.39999389648</ele>
        <time>2019-09-13T07:19:06Z</time>
      </trkpt>
      <trkpt lat="46.90373" lon="4.98609">
        <ele>238</ele>
        <time>2019-09-13T07:19:16Z</time>
      </trkpt>
      <trkpt lat="46.90365" lon="4.98536">
        <ele>238</ele>
        <time>2019-09-13T07:19:25Z</time>
      </trkpt>
      <trkpt lat="46.90351" lon="4.98462">
        <ele>238</ele>
        <time>2019-09-13T07:19:34Z</time>
      </trkpt>
      <trkpt lat="46.90331" lon="4.98381">
        <ele>237.60000610352</ele>
        <time>2019-09-13T07:19:44Z</time>
      </trkpt>
      <trkpt lat="46.90316" lon="4.98298">
        <ele>237.39999389648</ele>
        <time>2019-09-13T07:19:54Z</time>
      </trkpt>
      <trkpt lat="46.90315" lon="4.9829">
        <ele>237.39999389648</ele>
        <time>2019-09-13T07:19:55Z</time>
      </trkpt>
      <trkpt lat="46.90309" lon="4.98259">
        <ele>237.60000610352</ele>
        <time>2019-09-13T07:19:59Z</time>
      </trkpt>
      <trkpt lat="46.90308" lon="4.98242">
        <ele>237.60000610352</ele>
        <time>2019-09-13T07:20:01Z</time>
      </trkpt>
      <trkpt lat="46.9031" lon="4.98176">
        <ele>237.80000305176</ele>
        <time>2019-09-13T07:20:09Z</time>
      </trkpt>
      <trkpt lat="46.90309" lon="4.98096">
        <ele>237.80000305176</ele>
        <time>2019-09-13T07:20:18Z</time>
      </trkpt>
      <trkpt lat="46.90308" lon="4.98088">
        <ele>237.80000305176</ele>
        <time>2019-09-13T07:20:19Z</time>
      </trkpt>
      <trkpt lat="46.90303" lon="4.98001">
        <ele>237.60000610352</ele>
        <time>2019-09-13T07:20:29Z</time>
      </trkpt>
      <trkpt lat="46.90293" lon="4.97916">
        <ele>237.60000610352</ele>
        <time>2019-09-13T07:20:39Z</time>
      </trkpt>
      <trkpt lat="46.90287" lon="4.97875">
        <ele>237.39999389648</ele>
        <time>2019-09-13T07:20:44Z</time>
      </trkpt>
      <trkpt lat="46.90284" lon="4.97859">
        <ele>237.39999389648</ele>
        <time>2019-09-13T07:20:46Z</time>
      </trkpt>
      <trkpt lat="46.90272" lon="4.97808">
        <ele>237.39999389648</ele>
        <time>2019-09-13T07:20:53Z</time>
      </trkpt>
      <trkpt lat="46.90262" lon="4.97764">
        <ele>237.39999389648</ele>
        <time>2019-09-13T07:20:59Z</time>
      </trkpt>
      <trkpt lat="46.90253" lon="4.97718">
        <ele>238.19999694824</ele>
        <time>2019-09-13T07:21:06Z</time>
      </trkpt>
      <trkpt lat="46.90253" lon="4.97712">
        <ele>238.19999694824</ele>
        <time>2019-09-13T07:21:07Z</time>
      </trkpt>
      <trkpt lat="46.90252" lon="4.97696">
        <ele>238.60000610352</ele>
        <time>2019-09-13T07:21:11Z</time>
      </trkpt>
      <trkpt lat="46.9024" lon="4.97668">
        <ele>239</ele>
        <time>2019-09-13T07:21:17Z</time>
      </trkpt>
      <trkpt lat="46.90228" lon="4.97631">
        <ele>239</ele>
        <time>2019-09-13T07:21:22Z</time>
      </trkpt>
      <trkpt lat="46.90214" lon="4.97573">
        <ele>238</ele>
        <time>2019-09-13T07:21:29Z</time>
      </trkpt>
      <trkpt lat="46.90209" lon="4.97548">
        <ele>237.60000610352</ele>
        <time>2019-09-13T07:21:32Z</time>
      </trkpt>
      <trkpt lat="46.90199" lon="4.97501">
        <ele>237.19999694824</ele>
        <time>2019-09-13T07:21:37Z</time>
      </trkpt>
      <trkpt lat="46.90187" lon="4.97444">
        <ele>237</ele>
        <time>2019-09-13T07:21:45Z</time>
      </trkpt>
      <trkpt lat="46.90173" lon="4.97381">
        <ele>237</ele>
        <time>2019-09-13T07:21:53Z</time>
      </trkpt>
      <trkpt lat="46.90164" lon="4.97337">
        <ele>237.19999694824</ele>
        <time>2019-09-13T07:21:59Z</time>
      </trkpt>
      <trkpt lat="46.9016" lon="4.97322">
        <ele>237.19999694824</ele>
        <time>2019-09-13T07:22:01Z</time>
      </trkpt>
      <trkpt lat="46.90155" lon="4.973">
        <ele>237.39999389648</ele>
        <time>2019-09-13T07:22:04Z</time>
      </trkpt>
      <trkpt lat="46.90138" lon="4.97251">
        <ele>237.60000610352</ele>
        <time>2019-09-13T07:22:11Z</time>
      </trkpt>
      <trkpt lat="46.90117" lon="4.97186">
        <ele>238.39999389648</ele>
        <time>2019-09-13T07:22:21Z</time>
      </trkpt>
      <trkpt lat="46.90111" lon="4.97167">
        <ele>238.60000610352</ele>
        <time>2019-09-13T07:22:24Z</time>
      </trkpt>
      <trkpt lat="46.90104" lon="4.9714">
        <ele>238.80000305176</ele>
        <time>2019-09-13T07:22:28Z</time>
      </trkpt>
      <trkpt lat="46.90093" lon="4.97099">
        <ele>239.19999694824</ele>
        <time>2019-09-13T07:22:34Z</time>
      </trkpt>
      <trkpt lat="46.90086" lon="4.97089">
        <ele>239.39999389648</ele>
        <time>2019-09-13T07:22:36Z</time>
      </trkpt>
      <trkpt lat="46.90071" lon="4.97087">
        <ele>239.60000610352</ele>
        <time>2019-09-13T07:22:39Z</time>
      </trkpt>
      <trkpt lat="46.90065" lon="4.97088">
        <ele>239.60000610352</ele>
        <time>2019-09-13T07:22:40Z</time>
      </trkpt>
      <trkpt lat="46.90028" lon="4.97098">
        <ele>239.60000610352</ele>
        <time>2019-09-13T07:22:46Z</time>
      </trkpt>
      <trkpt lat="46.8998" lon="4.97109">
        <ele>238</ele>
        <time>2019-09-13T07:22:53Z</time>
      </trkpt>
      <trkpt lat="46.89967" lon="4.97111">
        <ele>237.60000610352</ele>
        <time>2019-09-13T07:22:55Z</time>
      </trkpt>
      <trkpt lat="46.89928" lon="4.9712">
        <ele>237</ele>
        <time>2019-09-13T07:23:01Z</time>
      </trkpt>
      <trkpt lat="46.89877" lon="4.97131">
        <ele>236.80000305176</ele>
        <time>2019-09-13T07:23:09Z</time>
      </trkpt>
      <trkpt lat="46.89858" lon="4.97134">
        <ele>236.80000305176</ele>
        <time>2019-09-13T07:23:12Z</time>
      </trkpt>
      <trkpt lat="46.89815" lon="4.97144">
        <ele>236.80000305176</ele>
        <time>2019-09-13T07:23:19Z</time>
      </trkpt>
      <trkpt lat="46.89774" lon="4.97152">
        <ele>237.19999694824</ele>
        <time>2019-09-13T07:23:26Z</time>
      </trkpt>
      <trkpt lat="46.89758" lon="4.9714">
        <ele>237.39999389648</ele>
        <time>2019-09-13T07:23:29Z</time>
      </trkpt>
      <trkpt lat="46.8975" lon="4.97126">
        <ele>237.39999389648</ele>
        <time>2019-09-13T07:23:31Z</time>
      </trkpt>
      <trkpt lat="46.8973" lon="4.97093">
        <ele>237.39999389648</ele>
        <time>2019-09-13T07:23:36Z</time>
      </trkpt>
      <trkpt lat="46.897" lon="4.97048">
        <ele>237.39999389648</ele>
        <time>2019-09-13T07:23:43Z</time>
      </trkpt>
      <trkpt lat="46.89659" lon="4.96992">
        <ele>237.39999389648</ele>
        <time>2019-09-13T07:23:52Z</time>
      </trkpt>
      <trkpt lat="46.89655" lon="4.96986">
        <ele>237.39999389648</ele>
        <time>2019-09-13T07:23:53Z</time>
      </trkpt>
      <trkpt lat="46.89613" lon="4.96924">
        <ele>237.60000610352</ele>
        <time>2019-09-13T07:24:03Z</time>
      </trkpt>
      <trkpt lat="46.89596" lon="4.96891">
        <ele>237.80000305176</ele>
        <time>2019-09-13T07:24:08Z</time>
      </trkpt>
      <trkpt lat="46.89577" lon="4.9686">
        <ele>237.80000305176</ele>
        <time>2019-09-13T07:24:13Z</time>
      </trkpt>
      <trkpt lat="46.89555" lon="4.96815">
        <ele>237.80000305176</ele>
        <time>2019-09-13T07:24:19Z</time>
      </trkpt>
      <trkpt lat="46.89529" lon="4.96756">
        <ele>237.39999389648</ele>
        <time>2019-09-13T07:24:27Z</time>
      </trkpt>
      <trkpt lat="46.89496" lon="4.96694">
        <ele>237.60000610352</ele>
        <time>2019-09-13T07:24:36Z</time>
      </trkpt>
      <trkpt lat="46.89493" lon="4.96687">
        <ele>237.60000610352</ele>
        <time>2019-09-13T07:24:37Z</time>
      </trkpt>
      <trkpt lat="46.89463" lon="4.9662">
        <ele>237.60000610352</ele>
        <time>2019-09-13T07:24:46Z</time>
      </trkpt>
      <trkpt lat="46.89437" lon="4.96552">
        <ele>237.60000610352</ele>
        <time>2019-09-13T07:24:55Z</time>
      </trkpt>
      <trkpt lat="46.89411" lon="4.96491">
        <ele>237.60000610352</ele>
        <time>2019-09-13T07:25:03Z</time>
      </trkpt>
      <trkpt lat="46.8941" lon="4.96465">
        <ele>237.60000610352</ele>
        <time>2019-09-13T07:25:06Z</time>
      </trkpt>
      <trkpt lat="46.8941" lon="4.96457">
        <ele>237.60000610352</ele>
        <time>2019-09-13T07:25:07Z</time>
      </trkpt>
      <trkpt lat="46.89404" lon="4.96432">
        <ele>237.80000305176</ele>
        <time>2019-09-13T07:25:10Z</time>
      </trkpt>
      <trkpt lat="46.89391" lon="4.96371">
        <ele>237.60000610352</ele>
        <time>2019-09-13T07:25:17Z</time>
      </trkpt>
      <trkpt lat="46.89382" lon="4.96289">
        <ele>236.60000610352</ele>
        <time>2019-09-13T07:25:26Z</time>
      </trkpt>
      <trkpt lat="46.89378" lon="4.96244">
        <ele>236.19999694824</ele>
        <time>2019-09-13T07:25:31Z</time>
      </trkpt>
      <trkpt lat="46.89374" lon="4.96189">
        <ele>236</ele>
        <time>2019-09-13T07:25:37Z</time>
      </trkpt>
      <trkpt lat="46.89369" lon="4.96107">
        <ele>235.80000305176</ele>
        <time>2019-09-13T07:25:46Z</time>
      </trkpt>
      <trkpt lat="46.89366" lon="4.96052">
        <ele>236</ele>
        <time>2019-09-13T07:25:52Z</time>
      </trkpt>
      <trkpt lat="46.89363" lon="4.95981">
        <ele>235.80000305176</ele>
        <time>2019-09-13T07:26:00Z</time>
      </trkpt>
      <trkpt lat="46.89357" lon="4.95927">
        <ele>235.60000610352</ele>
        <time>2019-09-13T07:26:06Z</time>
      </trkpt>
      <trkpt lat="46.89348" lon="4.95847">
        <ele>235.60000610352</ele>
        <time>2019-09-13T07:26:15Z</time>
      </trkpt>
      <trkpt lat="46.89337" lon="4.95769">
        <ele>235.60000610352</ele>
        <time>2019-09-13T07:26:24Z</time>
      </trkpt>
      <trkpt lat="46.89334" lon="4.95752">
        <ele>235.60000610352</ele>
        <time>2019-09-13T07:26:26Z</time>
      </trkpt>
      <trkpt lat="46.89317" lon="4.95669">
        <ele>235.60000610352</ele>
        <time>2019-09-13T07:26:36Z</time>
      </trkpt>
      <trkpt lat="46.89308" lon="4.95609">
        <ele>235.60000610352</ele>
        <time>2019-09-13T07:26:43Z</time>
      </trkpt>
      <trkpt lat="46.89293" lon="4.95546">
        <ele>236.39999389648</ele>
        <time>2019-09-13T07:26:51Z</time>
      </trkpt>
      <trkpt lat="46.89291" lon="4.9554">
        <ele>236.39999389648</ele>
        <time>2019-09-13T07:26:52Z</time>
      </trkpt>
      <trkpt lat="46.89278" lon="4.95514">
        <ele>236.80000305176</ele>
        <time>2019-09-13T07:26:56Z</time>
      </trkpt>
      <trkpt lat="46.89256" lon="4.95466">
        <ele>236.80000305176</ele>
        <time>2019-09-13T07:27:03Z</time>
      </trkpt>
      <trkpt lat="46.89253" lon="4.9546">
        <ele>236.80000305176</ele>
        <time>2019-09-13T07:27:04Z</time>
      </trkpt>
      <trkpt lat="46.89242" lon="4.9544">
        <ele>236.80000305176</ele>
        <time>2019-09-13T07:27:08Z</time>
      </trkpt>
      <trkpt lat="46.8922" lon="4.95405">
        <ele>236.80000305176</ele>
        <time>2019-09-13T07:27:15Z</time>
      </trkpt>
      <trkpt lat="46.89217" lon="4.954">
        <ele>236.80000305176</ele>
        <time>2019-09-13T07:27:16Z</time>
      </trkpt>
      <trkpt lat="46.89208" lon="4.95383">
        <ele>237.19999694824</ele>
        <time>2019-09-13T07:27:19Z</time>
      </trkpt>
      <trkpt lat="46.89203" lon="4.95372">
        <ele>237.80000305176</ele>
        <time>2019-09-13T07:27:21Z</time>
      </trkpt>
      <trkpt lat="46.89201" lon="4.95366">
        <ele>238</ele>
        <time>2019-09-13T07:27:22Z</time>
      </trkpt>
      <trkpt lat="46.89196" lon="4.95356">
        <ele>238.19999694824</ele>
        <time>2019-09-13T07:27:24Z</time>
      </trkpt>
      <trkpt lat="46.89186" lon="4.95344">
        <ele>238.60000610352</ele>
        <time>2019-09-13T07:27:27Z</time>
      </trkpt>
      <trkpt lat="46.89182" lon="4.9534">
        <ele>239</ele>
        <time>2019-09-13T07:27:28Z</time>
      </trkpt>
      <trkpt lat="46.89165" lon="4.9533">
        <ele>240.19999694824</ele>
        <time>2019-09-13T07:27:32Z</time>
      </trkpt>
      <trkpt lat="46.8916" lon="4.95327">
        <ele>240.39999389648</ele>
        <time>2019-09-13T07:27:33Z</time>
      </trkpt>
      <trkpt lat="46.89136" lon="4.95309">
        <ele>240.80000305176</ele>
        <time>2019-09-13T07:27:39Z</time>
      </trkpt>
      <trkpt lat="46.89127" lon="4.95302">
        <ele>241</ele>
        <time>2019-09-13T07:27:41Z</time>
      </trkpt>
      <trkpt lat="46.89118" lon="4.95294">
        <ele>241</ele>
        <time>2019-09-13T07:27:43Z</time>
      </trkpt>
      <trkpt lat="46.89107" lon="4.95282">
        <ele>241.19999694824</ele>
        <time>2019-09-13T07:27:46Z</time>
      </trkpt>
      <trkpt lat="46.89099" lon="4.95271">
        <ele>241.19999694824</ele>
        <time>2019-09-13T07:27:48Z</time>
      </trkpt>
      <trkpt lat="46.8909" lon="4.95258">
        <ele>241.19999694824</ele>
        <time>2019-09-13T07:27:50Z</time>
      </trkpt>
      <trkpt lat="46.8908" lon="4.95251">
        <ele>241.19999694824</ele>
        <time>2019-09-13T07:27:52Z</time>
      </trkpt>
      <trkpt lat="46.89071" lon="4.95251">
        <ele>241</ele>
        <time>2019-09-13T07:27:54Z</time>
      </trkpt>
      <trkpt lat="46.89057" lon="4.9525">
        <ele>240.80000305176</ele>
        <time>2019-09-13T07:27:57Z</time>
      </trkpt>
      <trkpt lat="46.89044" lon="4.95247">
        <ele>240.60000610352</ele>
        <time>2019-09-13T07:28:00Z</time>
      </trkpt>
      <trkpt lat="46.8903" lon="4.95241">
        <ele>240.60000610352</ele>
        <time>2019-09-13T07:28:03Z</time>
      </trkpt>
      <trkpt lat="46.89017" lon="4.95233">
        <ele>241</ele>
        <time>2019-09-13T07:28:06Z</time>
      </trkpt>
      <trkpt lat="46.8901" lon="4.95228">
        <ele>241.60000610352</ele>
        <time>2019-09-13T07:28:08Z</time>
      </trkpt>
      <trkpt lat="46.88993" lon="4.95218">
        <ele>242</ele>
        <time>2019-09-13T07:28:13Z</time>
      </trkpt>
      <trkpt lat="46.88988" lon="4.95215">
        <ele>242.39999389648</ele>
        <time>2019-09-13T07:28:14Z</time>
      </trkpt>
      <trkpt lat="46.88978" lon="4.95209">
        <ele>243</ele>
        <time>2019-09-13T07:28:16Z</time>
      </trkpt>
      <trkpt lat="46.88957" lon="4.95195">
        <ele>244</ele>
        <time>2019-09-13T07:28:20Z</time>
      </trkpt>
      <trkpt lat="46.88941" lon="4.95187">
        <ele>244</ele>
        <time>2019-09-13T07:28:23Z</time>
      </trkpt>
      <trkpt lat="46.88926" lon="4.95176">
        <ele>244.19999694824</ele>
        <time>2019-09-13T07:28:26Z</time>
      </trkpt>
      <trkpt lat="46.8889" lon="4.95153">
        <ele>244</ele>
        <time>2019-09-13T07:28:33Z</time>
      </trkpt>
      <trkpt lat="46.88851" lon="4.95125">
        <ele>243.80000305176</ele>
        <time>2019-09-13T07:28:40Z</time>
      </trkpt>
      <trkpt lat="46.88826" lon="4.95116">
        <ele>243.60000610352</ele>
        <time>2019-09-13T07:28:44Z</time>
      </trkpt>
      <trkpt lat="46.88793" lon="4.95105">
        <ele>243</ele>
        <time>2019-09-13T07:28:49Z</time>
      </trkpt>
      <trkpt lat="46.8878" lon="4.95099">
        <ele>242.80000305176</ele>
        <time>2019-09-13T07:28:51Z</time>
      </trkpt>
      <trkpt lat="46.88751" lon="4.95088">
        <ele>241.80000305176</ele>
        <time>2019-09-13T07:28:55Z</time>
      </trkpt>
      <trkpt lat="46.88743" lon="4.95085">
        <ele>241.60000610352</ele>
        <time>2019-09-13T07:28:56Z</time>
      </trkpt>
      <trkpt lat="46.88736" lon="4.95082">
        <ele>241.60000610352</ele>
        <time>2019-09-13T07:28:57Z</time>
      </trkpt>
      <trkpt lat="46.88717" lon="4.95074">
        <ele>240.80000305176</ele>
        <time>2019-09-13T07:29:00Z</time>
      </trkpt>
      <trkpt lat="46.88705" lon="4.95069">
        <ele>239.80000305176</ele>
        <time>2019-09-13T07:29:02Z</time>
      </trkpt>
      <trkpt lat="46.887" lon="4.95067">
        <ele>239.39999389648</ele>
        <time>2019-09-13T07:29:03Z</time>
      </trkpt>
      <trkpt lat="46.88663" lon="4.95055">
        <ele>239.19999694824</ele>
        <time>2019-09-13T07:29:09Z</time>
      </trkpt>
      <trkpt lat="46.88626" lon="4.95045">
        <ele>239</ele>
        <time>2019-09-13T07:29:15Z</time>
      </trkpt>
      <trkpt lat="46.88586" lon="4.95036">
        <ele>238.39999389648</ele>
        <time>2019-09-13T07:29:21Z</time>
      </trkpt>
      <trkpt lat="46.88568" lon="4.95031">
        <ele>238</ele>
        <time>2019-09-13T07:29:24Z</time>
      </trkpt>
      <trkpt lat="46.88526" lon="4.95023">
        <ele>237.39999389648</ele>
        <time>2019-09-13T07:29:31Z</time>
      </trkpt>
      <trkpt lat="46.88521" lon="4.95022">
        <ele>237.39999389648</ele>
        <time>2019-09-13T07:29:32Z</time>
      </trkpt>
      <trkpt lat="46.88504" lon="4.95017">
        <ele>237.19999694824</ele>
        <time>2019-09-13T07:29:35Z</time>
      </trkpt>
      <trkpt lat="46.88486" lon="4.95013">
        <ele>237.19999694824</ele>
        <time>2019-09-13T07:29:38Z</time>
      </trkpt>
      <trkpt lat="46.8846" lon="4.95008">
        <ele>237.19999694824</ele>
        <time>2019-09-13T07:29:43Z</time>
      </trkpt>
      <trkpt lat="46.88439" lon="4.95004">
        <ele>237.19999694824</ele>
        <time>2019-09-13T07:29:47Z</time>
      </trkpt>
      <trkpt lat="46.88428" lon="4.95008">
        <ele>237.19999694824</ele>
        <time>2019-09-13T07:29:49Z</time>
      </trkpt>
      <trkpt lat="46.88384" lon="4.95017">
        <ele>237.60000610352</ele>
        <time>2019-09-13T07:29:56Z</time>
      </trkpt>
      <trkpt lat="46.88347" lon="4.95027">
        <ele>237.39999389648</ele>
        <time>2019-09-13T07:30:02Z</time>
      </trkpt>
      <trkpt lat="46.88299" lon="4.95044">
        <ele>237</ele>
        <time>2019-09-13T07:30:10Z</time>
      </trkpt>
      <trkpt lat="46.88245" lon="4.95066">
        <ele>236.80000305176</ele>
        <time>2019-09-13T07:30:19Z</time>
      </trkpt>
      <trkpt lat="46.88203" lon="4.95085">
        <ele>236.80000305176</ele>
        <time>2019-09-13T07:30:26Z</time>
      </trkpt>
      <trkpt lat="46.88158" lon="4.95111">
        <ele>236.80000305176</ele>
        <time>2019-09-13T07:30:34Z</time>
      </trkpt>
      <trkpt lat="46.88114" lon="4.95142">
        <ele>236.80000305176</ele>
        <time>2019-09-13T07:30:42Z</time>
      </trkpt>
      <trkpt lat="46.88063" lon="4.95175">
        <ele>236.80000305176</ele>
        <time>2019-09-13T07:30:51Z</time>
      </trkpt>
      <trkpt lat="46.88057" lon="4.95178">
        <ele>236.80000305176</ele>
        <time>2019-09-13T07:30:52Z</time>
      </trkpt>
      <trkpt lat="46.88024" lon="4.95202">
        <ele>236.80000305176</ele>
        <time>2019-09-13T07:30:58Z</time>
      </trkpt>
      <trkpt lat="46.87978" lon="4.95246">
        <ele>236.60000610352</ele>
        <time>2019-09-13T07:31:07Z</time>
      </trkpt>
      <trkpt lat="46.87969" lon="4.95256">
        <ele>236.80000305176</ele>
        <time>2019-09-13T07:31:09Z</time>
      </trkpt>
      <trkpt lat="46.87957" lon="4.95276">
        <ele>236.60000610352</ele>
        <time>2019-09-13T07:31:12Z</time>
      </trkpt>
      <trkpt lat="46.87923" lon="4.95331">
        <ele>236.60000610352</ele>
        <time>2019-09-13T07:31:20Z</time>
      </trkpt>
      <trkpt lat="46.87898" lon="4.95368">
        <ele>236.39999389648</ele>
        <time>2019-09-13T07:31:26Z</time>
      </trkpt>
      <trkpt lat="46.8787" lon="4.95408">
        <ele>236.39999389648</ele>
        <time>2019-09-13T07:31:33Z</time>
      </trkpt>
      <trkpt lat="46.8784" lon="4.95448">
        <ele>236.39999389648</ele>
        <time>2019-09-13T07:31:39Z</time>
      </trkpt>
      <trkpt lat="46.87834" lon="4.95454">
        <ele>236.39999389648</ele>
        <time>2019-09-13T07:31:40Z</time>
      </trkpt>
      <trkpt lat="46.87794" lon="4.95499">
        <ele>236.60000610352</ele>
        <time>2019-09-13T07:31:47Z</time>
      </trkpt>
      <trkpt lat="46.87762" lon="4.95548">
        <ele>236.60000610352</ele>
        <time>2019-09-13T07:31:54Z</time>
      </trkpt>
      <trkpt lat="46.87725" lon="4.95613">
        <ele>236.39999389648</ele>
        <time>2019-09-13T07:32:03Z</time>
      </trkpt>
      <trkpt lat="46.8769" lon="4.9568">
        <ele>236.39999389648</ele>
        <time>2019-09-13T07:32:12Z</time>
      </trkpt>
      <trkpt lat="46.87657" lon="4.95743">
        <ele>236.60000610352</ele>
        <time>2019-09-13T07:32:21Z</time>
      </trkpt>
      <trkpt lat="46.87649" lon="4.95757">
        <ele>236.60000610352</ele>
        <time>2019-09-13T07:32:23Z</time>
      </trkpt>
      <trkpt lat="46.87622" lon="4.95815">
        <ele>237</ele>
        <time>2019-09-13T07:32:31Z</time>
      </trkpt>
      <trkpt lat="46.87589" lon="4.95882">
        <ele>237.19999694824</ele>
        <time>2019-09-13T07:32:40Z</time>
      </trkpt>
      <trkpt lat="46.87575" lon="4.95911">
        <ele>237</ele>
        <time>2019-09-13T07:32:44Z</time>
      </trkpt>
      <trkpt lat="46.87563" lon="4.95932">
        <ele>236.80000305176</ele>
        <time>2019-09-13T07:32:47Z</time>
      </trkpt>
      <trkpt lat="46.87528" lon="4.95992">
        <ele>237</ele>
        <time>2019-09-13T07:32:56Z</time>
      </trkpt>
      <trkpt lat="46.87524" lon="4.95998">
        <ele>237</ele>
        <time>2019-09-13T07:32:57Z</time>
      </trkpt>
      <trkpt lat="46.87512" lon="4.96016">
        <ele>237.19999694824</ele>
        <time>2019-09-13T07:33:00Z</time>
      </trkpt>
      <trkpt lat="46.87489" lon="4.96054">
        <ele>237.39999389648</ele>
        <time>2019-09-13T07:33:06Z</time>
      </trkpt>
      <trkpt lat="46.87455" lon="4.96114">
        <ele>237.60000610352</ele>
        <time>2019-09-13T07:33:15Z</time>
      </trkpt>
      <trkpt lat="46.87426" lon="4.9617">
        <ele>237.80000305176</ele>
        <time>2019-09-13T07:33:23Z</time>
      </trkpt>
      <trkpt lat="46.87397" lon="4.96229">
        <ele>238</ele>
        <time>2019-09-13T07:33:31Z</time>
      </trkpt>
      <trkpt lat="46.87365" lon="4.96271">
        <ele>237.80000305176</ele>
        <time>2019-09-13T07:33:38Z</time>
      </trkpt>
      <trkpt lat="46.87318" lon="4.96313">
        <ele>237.19999694824</ele>
        <time>2019-09-13T07:33:47Z</time>
      </trkpt>
      <trkpt lat="46.87313" lon="4.96318">
        <ele>237.19999694824</ele>
        <time>2019-09-13T07:33:48Z</time>
      </trkpt>
      <trkpt lat="46.87276" lon="4.96345">
        <ele>237.19999694824</ele>
        <time>2019-09-13T07:33:55Z</time>
      </trkpt>
      <trkpt lat="46.87236" lon="4.9637">
        <ele>237.39999389648</ele>
        <time>2019-09-13T07:34:03Z</time>
      </trkpt>
      <trkpt lat="46.87196" lon="4.96376">
        <ele>237.80000305176</ele>
        <time>2019-09-13T07:34:10Z</time>
      </trkpt>
      <trkpt lat="46.87149" lon="4.96373">
        <ele>237.60000610352</ele>
        <time>2019-09-13T07:34:18Z</time>
      </trkpt>
      <trkpt lat="46.8711" lon="4.96355">
        <ele>237.39999389648</ele>
        <time>2019-09-13T07:34:25Z</time>
      </trkpt>
      <trkpt lat="46.87061" lon="4.96318">
        <ele>237.19999694824</ele>
        <time>2019-09-13T07:34:34Z</time>
      </trkpt>
      <trkpt lat="46.87015" lon="4.96268">
        <ele>237</ele>
        <time>2019-09-13T07:34:43Z</time>
      </trkpt>
      <trkpt lat="46.86999" lon="4.96253">
        <ele>236.80000305176</ele>
        <time>2019-09-13T07:34:46Z</time>
      </trkpt>
      <trkpt lat="46.86995" lon="4.96246">
        <ele>236.80000305176</ele>
        <time>2019-09-13T07:34:47Z</time>
      </trkpt>
      <trkpt lat="46.86995" lon="4.9622">
        <ele>236.80000305176</ele>
        <time>2019-09-13T07:34:50Z</time>
      </trkpt>
      <trkpt lat="46.87003" lon="4.96206">
        <ele>236.60000610352</ele>
        <time>2019-09-13T07:34:52Z</time>
      </trkpt>
      <trkpt lat="46.87014" lon="4.96183">
        <ele>236.60000610352</ele>
        <time>2019-09-13T07:34:55Z</time>
      </trkpt>
      <trkpt lat="46.87048" lon="4.96119">
        <ele>236.60000610352</ele>
        <time>2019-09-13T07:35:04Z</time>
      </trkpt>
      <trkpt lat="46.87058" lon="4.96097">
        <ele>236.60000610352</ele>
        <time>2019-09-13T07:35:07Z</time>
      </trkpt>
      <trkpt lat="46.8706" lon="4.96079">
        <ele>236.60000610352</ele>
        <time>2019-09-13T07:35:09Z</time>
      </trkpt>
      <trkpt lat="46.87052" lon="4.96065">
        <ele>236.39999389648</ele>
        <time>2019-09-13T07:35:11Z</time>
      </trkpt>
      <trkpt lat="46.87037" lon="4.96055">
        <ele>236.39999389648</ele>
        <time>2019-09-13T07:35:14Z</time>
      </trkpt>
      <trkpt lat="46.87032" lon="4.96052">
        <ele>236.39999389648</ele>
        <time>2019-09-13T07:35:15Z</time>
      </trkpt>
      <trkpt lat="46.87026" lon="4.96048">
        <ele>236.39999389648</ele>
        <time>2019-09-13T07:35:16Z</time>
      </trkpt>
      <trkpt lat="46.87013" lon="4.96031">
        <ele>236.39999389648</ele>
        <time>2019-09-13T07:35:19Z</time>
      </trkpt>
      <trkpt lat="46.86992" lon="4.96013">
        <ele>236.80000305176</ele>
        <time>2019-09-13T07:35:23Z</time>
      </trkpt>
      <trkpt lat="46.86986" lon="4.9601">
        <ele>236.80000305176</ele>
        <time>2019-09-13T07:35:24Z</time>
      </trkpt>
      <trkpt lat="46.86971" lon="4.96">
        <ele>236.80000305176</ele>
        <time>2019-09-13T07:35:27Z</time>
      </trkpt>
      <trkpt lat="46.86959" lon="4.95996">
        <ele>236.80000305176</ele>
        <time>2019-09-13T07:35:29Z</time>
      </trkpt>
      <trkpt lat="46.86932" lon="4.95984">
        <ele>236.60000610352</ele>
        <time>2019-09-13T07:35:34Z</time>
      </trkpt>
      <trkpt lat="46.86927" lon="4.95979">
        <ele>236.60000610352</ele>
        <time>2019-09-13T07:35:35Z</time>
      </trkpt>
      <trkpt lat="46.86915" lon="4.9596">
        <ele>236.39999389648</ele>
        <time>2019-09-13T07:35:38Z</time>
      </trkpt>
      <trkpt lat="46.86911" lon="4.95952">
        <ele>236.39999389648</ele>
        <time>2019-09-13T07:35:39Z</time>
      </trkpt>
      <trkpt lat="46.86908" lon="4.95945">
        <ele>236.39999389648</ele>
        <time>2019-09-13T07:35:40Z</time>
      </trkpt>
      <trkpt lat="46.86889" lon="4.95905">
        <ele>236.19999694824</ele>
        <time>2019-09-13T07:35:45Z</time>
      </trkpt>
      <trkpt lat="46.86859" lon="4.95833">
        <ele>236</ele>
        <time>2019-09-13T07:35:54Z</time>
      </trkpt>
      <trkpt lat="46.86852" lon="4.95817">
        <ele>235.80000305176</ele>
        <time>2019-09-13T07:35:56Z</time>
      </trkpt>
      <trkpt lat="46.86823" lon="4.95745">
        <ele>236</ele>
        <time>2019-09-13T07:36:05Z</time>
      </trkpt>
      <trkpt lat="46.868" lon="4.95703">
        <ele>236</ele>
        <time>2019-09-13T07:36:11Z</time>
      </trkpt>
      <trkpt lat="46.86772" lon="4.95655">
        <ele>236</ele>
        <time>2019-09-13T07:36:18Z</time>
      </trkpt>
      <trkpt lat="46.86736" lon="4.95592">
        <ele>235.80000305176</ele>
        <time>2019-09-13T07:36:27Z</time>
      </trkpt>
      <trkpt lat="46.86732" lon="4.95585">
        <ele>235.80000305176</ele>
        <time>2019-09-13T07:36:28Z</time>
      </trkpt>
      <trkpt lat="46.86703" lon="4.95538">
        <ele>236</ele>
        <time>2019-09-13T07:36:35Z</time>
      </trkpt>
      <trkpt lat="46.86669" lon="4.95488">
        <ele>236.19999694824</ele>
        <time>2019-09-13T07:36:43Z</time>
      </trkpt>
      <trkpt lat="46.86633" lon="4.95454">
        <ele>236.39999389648</ele>
        <time>2019-09-13T07:36:50Z</time>
      </trkpt>
      <trkpt lat="46.86581" lon="4.95425">
        <ele>236.80000305176</ele>
        <time>2019-09-13T07:36:59Z</time>
      </trkpt>
      <trkpt lat="46.86529" lon="4.954">
        <ele>237</ele>
        <time>2019-09-13T07:37:08Z</time>
      </trkpt>
      <trkpt lat="46.8648" lon="4.95393">
        <ele>237</ele>
        <time>2019-09-13T07:37:16Z</time>
      </trkpt>
      <trkpt lat="46.86425" lon="4.95393">
        <ele>237</ele>
        <time>2019-09-13T07:37:25Z</time>
      </trkpt>
      <trkpt lat="46.86413" lon="4.95395">
        <ele>237</ele>
        <time>2019-09-13T07:37:27Z</time>
      </trkpt>
      <trkpt lat="46.86397" lon="4.95399">
        <ele>237.19999694824</ele>
        <time>2019-09-13T07:37:30Z</time>
      </trkpt>
      <trkpt lat="46.86358" lon="4.95405">
        <ele>237.19999694824</ele>
        <time>2019-09-13T07:37:37Z</time>
      </trkpt>
      <trkpt lat="46.86312" lon="4.9541">
        <ele>237.19999694824</ele>
        <time>2019-09-13T07:37:45Z</time>
      </trkpt>
      <trkpt lat="46.86294" lon="4.95411">
        <ele>237.19999694824</ele>
        <time>2019-09-13T07:37:48Z</time>
      </trkpt>
      <trkpt lat="46.86277" lon="4.95416">
        <ele>237.19999694824</ele>
        <time>2019-09-13T07:37:51Z</time>
      </trkpt>
      <trkpt lat="46.86266" lon="4.95422">
        <ele>237.19999694824</ele>
        <time>2019-09-13T07:37:53Z</time>
      </trkpt>
      <trkpt lat="46.86227" lon="4.95446">
        <ele>237.19999694824</ele>
        <time>2019-09-13T07:38:00Z</time>
      </trkpt>
      <trkpt lat="46.8618" lon="4.95474">
        <ele>237.19999694824</ele>
        <time>2019-09-13T07:38:08Z</time>
      </trkpt>
      <trkpt lat="46.86138" lon="4.95506">
        <ele>236.80000305176</ele>
        <time>2019-09-13T07:38:16Z</time>
      </trkpt>
      <trkpt lat="46.86094" lon="4.95542">
        <ele>237</ele>
        <time>2019-09-13T07:38:25Z</time>
      </trkpt>
      <trkpt lat="46.86056" lon="4.95572">
        <ele>237.19999694824</ele>
        <time>2019-09-13T07:38:33Z</time>
      </trkpt>
      <trkpt lat="46.86009" lon="4.95605">
        <ele>237.19999694824</ele>
        <time>2019-09-13T07:38:42Z</time>
      </trkpt>
      <trkpt lat="46.85967" lon="4.95634">
        <ele>237.19999694824</ele>
        <time>2019-09-13T07:38:50Z</time>
      </trkpt>
      <trkpt lat="46.8592" lon="4.95672">
        <ele>237.19999694824</ele>
        <time>2019-09-13T07:38:59Z</time>
      </trkpt>
      <trkpt lat="46.85893" lon="4.95707">
        <ele>237.19999694824</ele>
        <time>2019-09-13T07:39:05Z</time>
      </trkpt>
      <trkpt lat="46.85866" lon="4.95746">
        <ele>237</ele>
        <time>2019-09-13T07:39:12Z</time>
      </trkpt>
      <trkpt lat="46.85834" lon="4.95794">
        <ele>237</ele>
        <time>2019-09-13T07:39:20Z</time>
      </trkpt>
      <trkpt lat="46.85806" lon="4.9585">
        <ele>237</ele>
        <time>2019-09-13T07:39:28Z</time>
      </trkpt>
      <trkpt lat="46.8578" lon="4.9591">
        <ele>236.80000305176</ele>
        <time>2019-09-13T07:39:36Z</time>
      </trkpt>
      <trkpt lat="46.85759" lon="4.9597">
        <ele>236.80000305176</ele>
        <time>2019-09-13T07:39:44Z</time>
      </trkpt>
      <trkpt lat="46.8574" lon="4.9603">
        <ele>237.19999694824</ele>
        <time>2019-09-13T07:39:52Z</time>
      </trkpt>
      <trkpt lat="46.85719" lon="4.96078">
        <ele>237.19999694824</ele>
        <time>2019-09-13T07:39:59Z</time>
      </trkpt>
      <trkpt lat="46.8569" lon="4.96118">
        <ele>237.19999694824</ele>
        <time>2019-09-13T07:40:06Z</time>
      </trkpt>
      <trkpt lat="46.8565" lon="4.96166">
        <ele>237</ele>
        <time>2019-09-13T07:40:15Z</time>
      </trkpt>
      <trkpt lat="46.85613" lon="4.96205">
        <ele>237</ele>
        <time>2019-09-13T07:40:23Z</time>
      </trkpt>
      <trkpt lat="46.85567" lon="4.96245">
        <ele>237</ele>
        <time>2019-09-13T07:40:33Z</time>
      </trkpt>
      <trkpt lat="46.8552" lon="4.96282">
        <ele>237.19999694824</ele>
        <time>2019-09-13T07:40:43Z</time>
      </trkpt>
      <trkpt lat="46.85476" lon="4.96304">
        <ele>237</ele>
        <time>2019-09-13T07:40:51Z</time>
      </trkpt>
      <trkpt lat="46.8543" lon="4.96315">
        <ele>236.60000610352</ele>
        <time>2019-09-13T07:40:59Z</time>
      </trkpt>
      <trkpt lat="46.85373" lon="4.96314">
        <ele>236.60000610352</ele>
        <time>2019-09-13T07:41:09Z</time>
      </trkpt>
      <trkpt lat="46.85334" lon="4.96298">
        <ele>236.39999389648</ele>
        <time>2019-09-13T07:41:16Z</time>
      </trkpt>
      <trkpt lat="46.85279" lon="4.96268">
        <ele>236.39999389648</ele>
        <time>2019-09-13T07:41:26Z</time>
      </trkpt>
      <trkpt lat="46.85274" lon="4.96265">
        <ele>236.39999389648</ele>
        <time>2019-09-13T07:41:27Z</time>
      </trkpt>
      <trkpt lat="46.85224" lon="4.96237">
        <ele>236</ele>
        <time>2019-09-13T07:41:36Z</time>
      </trkpt>
      <trkpt lat="46.85212" lon="4.96231">
        <ele>236</ele>
        <time>2019-09-13T07:41:38Z</time>
      </trkpt>
      <trkpt lat="46.85157" lon="4.96202">
        <ele>235.80000305176</ele>
        <time>2019-09-13T07:41:48Z</time>
      </trkpt>
      <trkpt lat="46.85151" lon="4.96199">
        <ele>235.80000305176</ele>
        <time>2019-09-13T07:41:49Z</time>
      </trkpt>
      <trkpt lat="46.85095" lon="4.96172">
        <ele>236</ele>
        <time>2019-09-13T07:41:59Z</time>
      </trkpt>
      <trkpt lat="46.85056" lon="4.96159">
        <ele>236.19999694824</ele>
        <time>2019-09-13T07:42:06Z</time>
      </trkpt>
      <trkpt lat="46.85013" lon="4.96152">
        <ele>236.19999694824</ele>
        <time>2019-09-13T07:42:14Z</time>
      </trkpt>
      <trkpt lat="46.84955" lon="4.96146">
        <ele>235.80000305176</ele>
        <time>2019-09-13T07:42:25Z</time>
      </trkpt>
      <trkpt lat="46.84908" lon="4.96146">
        <ele>236.39999389648</ele>
        <time>2019-09-13T07:42:34Z</time>
      </trkpt>
      <trkpt lat="46.84866" lon="4.96152">
        <ele>236.60000610352</ele>
        <time>2019-09-13T07:42:42Z</time>
      </trkpt>
      <trkpt lat="46.84831" lon="4.96169">
        <ele>236.80000305176</ele>
        <time>2019-09-13T07:42:49Z</time>
      </trkpt>
      <trkpt lat="46.84783" lon="4.96194">
        <ele>236.80000305176</ele>
        <time>2019-09-13T07:42:59Z</time>
      </trkpt>
      <trkpt lat="46.84739" lon="4.96214">
        <ele>236.60000610352</ele>
        <time>2019-09-13T07:43:08Z</time>
      </trkpt>
      <trkpt lat="46.847" lon="4.96231">
        <ele>236.60000610352</ele>
        <time>2019-09-13T07:43:16Z</time>
      </trkpt>
      <trkpt lat="46.8465" lon="4.9625">
        <ele>236.80000305176</ele>
        <time>2019-09-13T07:43:26Z</time>
      </trkpt>
      <trkpt lat="46.8461" lon="4.96264">
        <ele>236.80000305176</ele>
        <time>2019-09-13T07:43:34Z</time>
      </trkpt>
      <trkpt lat="46.84559" lon="4.96279">
        <ele>237.19999694824</ele>
        <time>2019-09-13T07:43:44Z</time>
      </trkpt>
      <trkpt lat="46.84514" lon="4.96291">
        <ele>237</ele>
        <time>2019-09-13T07:43:53Z</time>
      </trkpt>
      <trkpt lat="46.84483" lon="4.96289">
        <ele>236.80000305176</ele>
        <time>2019-09-13T07:43:59Z</time>
      </trkpt>
      <trkpt lat="46.84432" lon="4.96276">
        <ele>236.39999389648</ele>
        <time>2019-09-13T07:44:09Z</time>
      </trkpt>
      <trkpt lat="46.84389" lon="4.96265">
        <ele>236.39999389648</ele>
        <time>2019-09-13T07:44:17Z</time>
      </trkpt>
      <trkpt lat="46.84351" lon="4.96254">
        <ele>236.39999389648</ele>
        <time>2019-09-13T07:44:24Z</time>
      </trkpt>
      <trkpt lat="46.84299" lon="4.96237">
        <ele>236.19999694824</ele>
        <time>2019-09-13T07:44:33Z</time>
      </trkpt>
      <trkpt lat="46.84266" lon="4.96213">
        <ele>236</ele>
        <time>2019-09-13T07:44:39Z</time>
      </trkpt>
      <trkpt lat="46.84231" lon="4.96178">
        <ele>235.39999389648</ele>
        <time>2019-09-13T07:44:46Z</time>
      </trkpt>
      <trkpt lat="46.84181" lon="4.96132">
        <ele>235.39999389648</ele>
        <time>2019-09-13T07:44:56Z</time>
      </trkpt>
      <trkpt lat="46.84171" lon="4.96124">
        <ele>235.39999389648</ele>
        <time>2019-09-13T07:44:58Z</time>
      </trkpt>
      <trkpt lat="46.84128" lon="4.9608">
        <ele>235.39999389648</ele>
        <time>2019-09-13T07:45:07Z</time>
      </trkpt>
      <trkpt lat="46.84083" lon="4.9604">
        <ele>235.80000305176</ele>
        <time>2019-09-13T07:45:16Z</time>
      </trkpt>
      <trkpt lat="46.84032" lon="4.95998">
        <ele>236</ele>
        <time>2019-09-13T07:45:26Z</time>
      </trkpt>
      <trkpt lat="46.84027" lon="4.95993">
        <ele>236</ele>
        <time>2019-09-13T07:45:27Z</time>
      </trkpt>
      <trkpt lat="46.83987" lon="4.95958">
        <ele>236</ele>
        <time>2019-09-13T07:45:35Z</time>
      </trkpt>
      <trkpt lat="46.83944" lon="4.95912">
        <ele>236</ele>
        <time>2019-09-13T07:45:44Z</time>
      </trkpt>
      <trkpt lat="46.8391" lon="4.95869">
        <ele>236</ele>
        <time>2019-09-13T07:45:52Z</time>
      </trkpt>
      <trkpt lat="46.83863" lon="4.95816">
        <ele>236.19999694824</ele>
        <time>2019-09-13T07:46:02Z</time>
      </trkpt>
      <trkpt lat="46.83839" lon="4.9579">
        <ele>236</ele>
        <time>2019-09-13T07:46:07Z</time>
      </trkpt>
      <trkpt lat="46.83824" lon="4.95774">
        <ele>236</ele>
        <time>2019-09-13T07:46:10Z</time>
      </trkpt>
      <trkpt lat="46.83783" lon="4.95723">
        <ele>235.80000305176</ele>
        <time>2019-09-13T07:46:19Z</time>
      </trkpt>
      <trkpt lat="46.83758" lon="4.95682">
        <ele>235.80000305176</ele>
        <time>2019-09-13T07:46:26Z</time>
      </trkpt>
      <trkpt lat="46.83728" lon="4.95636">
        <ele>236.19999694824</ele>
        <time>2019-09-13T07:46:34Z</time>
      </trkpt>
      <trkpt lat="46.83694" lon="4.95592">
        <ele>236.19999694824</ele>
        <time>2019-09-13T07:46:42Z</time>
      </trkpt>
      <trkpt lat="46.83647" lon="4.95537">
        <ele>235.80000305176</ele>
        <time>2019-09-13T07:46:52Z</time>
      </trkpt>
      <trkpt lat="46.83605" lon="4.95489">
        <ele>235.80000305176</ele>
        <time>2019-09-13T07:47:01Z</time>
      </trkpt>
      <trkpt lat="46.83595" lon="4.95479">
        <ele>235.80000305176</ele>
        <time>2019-09-13T07:47:03Z</time>
      </trkpt>
      <trkpt lat="46.8355" lon="4.95435">
        <ele>236</ele>
        <time>2019-09-13T07:47:12Z</time>
      </trkpt>
      <trkpt lat="46.83545" lon="4.9543">
        <ele>236</ele>
        <time>2019-09-13T07:47:13Z</time>
      </trkpt>
      <trkpt lat="46.83505" lon="4.95391">
        <ele>236</ele>
        <time>2019-09-13T07:47:21Z</time>
      </trkpt>
      <trkpt lat="46.83456" lon="4.9534">
        <ele>236</ele>
        <time>2019-09-13T07:47:31Z</time>
      </trkpt>
      <trkpt lat="46.83414" lon="4.95291">
        <ele>236.19999694824</ele>
        <time>2019-09-13T07:47:40Z</time>
      </trkpt>
      <trkpt lat="46.83409" lon="4.95286">
        <ele>236.19999694824</ele>
        <time>2019-09-13T07:47:41Z</time>
      </trkpt>
      <trkpt lat="46.83364" lon="4.9523">
        <ele>236.39999389648</ele>
        <time>2019-09-13T07:47:51Z</time>
      </trkpt>
      <trkpt lat="46.83328" lon="4.95182">
        <ele>236.39999389648</ele>
        <time>2019-09-13T07:47:59Z</time>
      </trkpt>
      <trkpt lat="46.83286" lon="4.95132">
        <ele>236.39999389648</ele>
        <time>2019-09-13T07:48:08Z</time>
      </trkpt>
      <trkpt lat="46.83276" lon="4.95122">
        <ele>236.39999389648</ele>
        <time>2019-09-13T07:48:10Z</time>
      </trkpt>
      <trkpt lat="46.83233" lon="4.95075">
        <ele>236.39999389648</ele>
        <time>2019-09-13T07:48:19Z</time>
      </trkpt>
      <trkpt lat="46.83193" lon="4.9503">
        <ele>236.60000610352</ele>
        <time>2019-09-13T07:48:28Z</time>
      </trkpt>
      <trkpt lat="46.83165" lon="4.94994">
        <ele>236.60000610352</ele>
        <time>2019-09-13T07:48:35Z</time>
      </trkpt>
      <trkpt lat="46.83131" lon="4.94948">
        <ele>236.60000610352</ele>
        <time>2019-09-13T07:48:43Z</time>
      </trkpt>
      <trkpt lat="46.83108" lon="4.94914">
        <ele>236.19999694824</ele>
        <time>2019-09-13T07:48:49Z</time>
      </trkpt>
      <trkpt lat="46.831" lon="4.94902">
        <ele>236.19999694824</ele>
        <time>2019-09-13T07:48:51Z</time>
      </trkpt>
      <trkpt lat="46.83089" lon="4.94883">
        <ele>236</ele>
        <time>2019-09-13T07:48:54Z</time>
      </trkpt>
      <trkpt lat="46.83058" lon="4.94839">
        <ele>236</ele>
        <time>2019-09-13T07:49:02Z</time>
      </trkpt>
      <trkpt lat="46.83024" lon="4.94788">
        <ele>236.19999694824</ele>
        <time>2019-09-13T07:49:11Z</time>
      </trkpt>
      <trkpt lat="46.82983" lon="4.94726">
        <ele>236.39999389648</ele>
        <time>2019-09-13T07:49:22Z</time>
      </trkpt>
      <trkpt lat="46.82953" lon="4.94679">
        <ele>236.39999389648</ele>
        <time>2019-09-13T07:49:30Z</time>
      </trkpt>
      <trkpt lat="46.82926" lon="4.94625">
        <ele>236.39999389648</ele>
        <time>2019-09-13T07:49:38Z</time>
      </trkpt>
      <trkpt lat="46.82891" lon="4.94556">
        <ele>236.60000610352</ele>
        <time>2019-09-13T07:49:48Z</time>
      </trkpt>
      <trkpt lat="46.82887" lon="4.94549">
        <ele>236.60000610352</ele>
        <time>2019-09-13T07:49:49Z</time>
      </trkpt>
      <trkpt lat="46.82857" lon="4.94496">
        <ele>236.60000610352</ele>
        <time>2019-09-13T07:49:57Z</time>
      </trkpt>
      <trkpt lat="46.82821" lon="4.94437">
        <ele>236.39999389648</ele>
        <time>2019-09-13T07:50:06Z</time>
      </trkpt>
      <trkpt lat="46.82787" lon="4.94378">
        <ele>236.60000610352</ele>
        <time>2019-09-13T07:50:15Z</time>
      </trkpt>
      <trkpt lat="46.82746" lon="4.94316">
        <ele>236.60000610352</ele>
        <time>2019-09-13T07:50:25Z</time>
      </trkpt>
      <trkpt lat="46.82708" lon="4.9426">
        <ele>236.39999389648</ele>
        <time>2019-09-13T07:50:34Z</time>
      </trkpt>
      <trkpt lat="46.82699" lon="4.94249">
        <ele>236.39999389648</ele>
        <time>2019-09-13T07:50:36Z</time>
      </trkpt>
      <trkpt lat="46.82663" lon="4.94202">
        <ele>236.39999389648</ele>
        <time>2019-09-13T07:50:44Z</time>
      </trkpt>
      <trkpt lat="46.8262" lon="4.94144">
        <ele>236.60000610352</ele>
        <time>2019-09-13T07:50:54Z</time>
      </trkpt>
      <trkpt lat="46.82585" lon="4.94101">
        <ele>236.60000610352</ele>
        <time>2019-09-13T07:51:02Z</time>
      </trkpt>
      <trkpt lat="46.82557" lon="4.94069">
        <ele>236.80000305176</ele>
        <time>2019-09-13T07:51:08Z</time>
      </trkpt>
      <trkpt lat="46.82516" lon="4.94019">
        <ele>236.80000305176</ele>
        <time>2019-09-13T07:51:17Z</time>
      </trkpt>
      <trkpt lat="46.82514" lon="4.94001">
        <ele>237</ele>
        <time>2019-09-13T07:51:20Z</time>
      </trkpt>
      <trkpt lat="46.8252" lon="4.93991">
        <ele>237</ele>
        <time>2019-09-13T07:51:22Z</time>
      </trkpt>
      <trkpt lat="46.82528" lon="4.93979">
        <ele>237</ele>
        <time>2019-09-13T07:51:24Z</time>
      </trkpt>
      <trkpt lat="46.82567" lon="4.93918">
        <ele>236.80000305176</ele>
        <time>2019-09-13T07:51:34Z</time>
      </trkpt>
      <trkpt lat="46.82606" lon="4.93861">
        <ele>236.60000610352</ele>
        <time>2019-09-13T07:51:44Z</time>
      </trkpt>
      <trkpt lat="46.82628" lon="4.93826">
        <ele>236.80000305176</ele>
        <time>2019-09-13T07:51:51Z</time>
      </trkpt>
      <trkpt lat="46.82621" lon="4.93816">
        <ele>236.80000305176</ele>
        <time>2019-09-13T07:51:54Z</time>
      </trkpt>
      <trkpt lat="46.82617" lon="4.93814">
        <ele>236.80000305176</ele>
        <time>2019-09-13T07:51:55Z</time>
      </trkpt>
      <trkpt lat="46.82596" lon="4.938">
        <ele>237</ele>
        <time>2019-09-13T07:52:00Z</time>
      </trkpt>
      <trkpt lat="46.82556" lon="4.93777">
        <ele>237</ele>
        <time>2019-09-13T07:52:08Z</time>
      </trkpt>
      <trkpt lat="46.82527" lon="4.93758">
        <ele>236.80000305176</ele>
        <time>2019-09-13T07:52:14Z</time>
      </trkpt>
      <trkpt lat="46.82523" lon="4.93753">
        <ele>236.80000305176</ele>
        <time>2019-09-13T07:52:15Z</time>
      </trkpt>
      <trkpt lat="46.82513" lon="4.93734">
        <ele>236.80000305176</ele>
        <time>2019-09-13T07:52:18Z</time>
      </trkpt>
      <trkpt lat="46.82507" lon="4.9372">
        <ele>236.80000305176</ele>
        <time>2019-09-13T07:52:20Z</time>
      </trkpt>
      <trkpt lat="46.82485" lon="4.93666">
        <ele>236.80000305176</ele>
        <time>2019-09-13T07:52:28Z</time>
      </trkpt>
      <trkpt lat="46.82458" lon="4.93602">
        <ele>236.80000305176</ele>
        <time>2019-09-13T07:52:37Z</time>
      </trkpt>
      <trkpt lat="46.8243" lon="4.93538">
        <ele>236.60000610352</ele>
        <time>2019-09-13T07:52:46Z</time>
      </trkpt>
      <trkpt lat="46.824" lon="4.9347">
        <ele>236.39999389648</ele>
        <time>2019-09-13T07:52:55Z</time>
      </trkpt>
      <trkpt lat="46.82397" lon="4.93463">
        <ele>236.39999389648</ele>
        <time>2019-09-13T07:52:56Z</time>
      </trkpt>
      <trkpt lat="46.82375" lon="4.93412">
        <ele>235.80000305176</ele>
        <time>2019-09-13T07:53:03Z</time>
      </trkpt>
      <trkpt lat="46.82368" lon="4.93398">
        <ele>235.80000305176</ele>
        <time>2019-09-13T07:53:05Z</time>
      </trkpt>
      <trkpt lat="46.82359" lon="4.93386">
        <ele>235.80000305176</ele>
        <time>2019-09-13T07:53:07Z</time>
      </trkpt>
      <trkpt lat="46.82329" lon="4.9335">
        <ele>235.80000305176</ele>
        <time>2019-09-13T07:53:14Z</time>
      </trkpt>
      <trkpt lat="46.82316" lon="4.93327">
        <ele>236</ele>
        <time>2019-09-13T07:53:18Z</time>
      </trkpt>
      <trkpt lat="46.82312" lon="4.93326">
        <ele>236</ele>
        <time>2019-09-13T07:53:19Z</time>
      </trkpt>
      <trkpt lat="46.82304" lon="4.93335">
        <ele>235.80000305176</ele>
        <time>2019-09-13T07:53:22Z</time>
      </trkpt>
      <trkpt lat="46.82298" lon="4.93346">
        <ele>236.19999694824</ele>
        <time>2019-09-13T07:53:25Z</time>
      </trkpt>
      <trkpt lat="46.82292" lon="4.93353">
        <ele>236.39999389648</ele>
        <time>2019-09-13T07:53:27Z</time>
      </trkpt>
      <trkpt lat="46.82286" lon="4.93362">
        <ele>236.60000610352</ele>
        <time>2019-09-13T07:53:29Z</time>
      </trkpt>
      <trkpt lat="46.82275" lon="4.93377">
        <ele>236.60000610352</ele>
        <time>2019-09-13T07:53:32Z</time>
      </trkpt>
      <trkpt lat="46.82243" lon="4.93421">
        <ele>236.60000610352</ele>
        <time>2019-09-13T07:53:40Z</time>
      </trkpt>
      <trkpt lat="46.82207" lon="4.93471">
        <ele>236.60000610352</ele>
        <time>2019-09-13T07:53:49Z</time>
      </trkpt>
      <trkpt lat="46.82181" lon="4.93514">
        <ele>236.60000610352</ele>
        <time>2019-09-13T07:53:56Z</time>
      </trkpt>
      <trkpt lat="46.82151" lon="4.93564">
        <ele>236.60000610352</ele>
        <time>2019-09-13T07:54:04Z</time>
      </trkpt>
      <trkpt lat="46.82124" lon="4.93618">
        <ele>236.80000305176</ele>
        <time>2019-09-13T07:54:12Z</time>
      </trkpt>
      <trkpt lat="46.82093" lon="4.93683">
        <ele>236.80000305176</ele>
        <time>2019-09-13T07:54:22Z</time>
      </trkpt>
      <trkpt lat="46.82089" lon="4.93689">
        <ele>236.80000305176</ele>
        <time>2019-09-13T07:54:23Z</time>
      </trkpt>
      <trkpt lat="46.8208" lon="4.93706">
        <ele>236.80000305176</ele>
        <time>2019-09-13T07:54:26Z</time>
      </trkpt>
      <trkpt lat="46.82075" lon="4.93711">
        <ele>237</ele>
        <time>2019-09-13T07:54:28Z</time>
      </trkpt>
      <trkpt lat="46.82075" lon="4.93712">
        <ele>237</ele>
        <time>2019-09-13T07:54:29Z</time>
      </trkpt>
      <trkpt lat="46.82076" lon="4.93713">
        <ele>237.19999694824</ele>
        <time>2019-09-13T07:54:31Z</time>
      </trkpt>
      <trkpt lat="46.82078" lon="4.9371">
        <ele>237.19999694824</ele>
        <time>2019-09-13T07:54:33Z</time>
      </trkpt>
      <trkpt lat="46.82082" lon="4.93705">
        <ele>237.19999694824</ele>
        <time>2019-09-13T07:54:35Z</time>
      </trkpt>
      <trkpt lat="46.8209" lon="4.93691">
        <ele>237.19999694824</ele>
        <time>2019-09-13T07:54:38Z</time>
      </trkpt>
      <trkpt lat="46.82096" lon="4.93679">
        <ele>237.19999694824</ele>
        <time>2019-09-13T07:54:40Z</time>
      </trkpt>
      <trkpt lat="46.82122" lon="4.93625">
        <ele>236.80000305176</ele>
        <time>2019-09-13T07:54:48Z</time>
      </trkpt>
      <trkpt lat="46.82149" lon="4.93569">
        <ele>236.60000610352</ele>
        <time>2019-09-13T07:54:56Z</time>
      </trkpt>
      <trkpt lat="46.82183" lon="4.9351">
        <ele>236.39999389648</ele>
        <time>2019-09-13T07:55:05Z</time>
      </trkpt>
      <trkpt lat="46.82212" lon="4.93467">
        <ele>236.60000610352</ele>
        <time>2019-09-13T07:55:12Z</time>
      </trkpt>
      <trkpt lat="46.82241" lon="4.93426">
        <ele>236.19999694824</ele>
        <time>2019-09-13T07:55:19Z</time>
      </trkpt>
      <trkpt lat="46.82276" lon="4.9338">
        <ele>236.19999694824</ele>
        <time>2019-09-13T07:55:27Z</time>
      </trkpt>
      <trkpt lat="46.82309" lon="4.93334">
        <ele>236</ele>
        <time>2019-09-13T07:55:35Z</time>
      </trkpt>
      <trkpt lat="46.82331" lon="4.93285">
        <ele>236</ele>
        <time>2019-09-13T07:55:42Z</time>
      </trkpt>
      <trkpt lat="46.8235" lon="4.93243">
        <ele>235.80000305176</ele>
        <time>2019-09-13T07:55:48Z</time>
      </trkpt>
      <trkpt lat="46.82357" lon="4.9323">
        <ele>235.60000610352</ele>
        <time>2019-09-13T07:55:50Z</time>
      </trkpt>
      <trkpt lat="46.82373" lon="4.93205">
        <ele>235.39999389648</ele>
        <time>2019-09-13T07:55:54Z</time>
      </trkpt>
      <trkpt lat="46.82412" lon="4.93154">
        <ele>235.39999389648</ele>
        <time>2019-09-13T07:56:03Z</time>
      </trkpt>
      <trkpt lat="46.82455" lon="4.93101">
        <ele>235.39999389648</ele>
        <time>2019-09-13T07:56:13Z</time>
      </trkpt>
      <trkpt lat="46.82483" lon="4.93066">
        <ele>235.39999389648</ele>
        <time>2019-09-13T07:56:20Z</time>
      </trkpt>
      <trkpt lat="46.8249" lon="4.93057">
        <ele>235.39999389648</ele>
        <time>2019-09-13T07:56:22Z</time>
      </trkpt>
      <trkpt lat="46.82513" lon="4.93027">
        <ele>235.39999389648</ele>
        <time>2019-09-13T07:56:28Z</time>
      </trkpt>
      <trkpt lat="46.82541" lon="4.92992">
        <ele>235.39999389648</ele>
        <time>2019-09-13T07:56:35Z</time>
      </trkpt>
      <trkpt lat="46.82558" lon="4.92971">
        <ele>235.39999389648</ele>
        <time>2019-09-13T07:56:39Z</time>
      </trkpt>
      <trkpt lat="46.82583" lon="4.92939">
        <ele>235.19999694824</ele>
        <time>2019-09-13T07:56:45Z</time>
      </trkpt>
      <trkpt lat="46.82624" lon="4.92888">
        <ele>235.19999694824</ele>
        <time>2019-09-13T07:56:55Z</time>
      </trkpt>
      <trkpt lat="46.82628" lon="4.92883">
        <ele>235.39999389648</ele>
        <time>2019-09-13T07:56:56Z</time>
      </trkpt>
      <trkpt lat="46.82634" lon="4.92862">
        <ele>235.39999389648</ele>
        <time>2019-09-13T07:56:59Z</time>
      </trkpt>
      <trkpt lat="46.82626" lon="4.92842">
        <ele>235.39999389648</ele>
        <time>2019-09-13T07:57:02Z</time>
      </trkpt>
      <trkpt lat="46.8259" lon="4.92795">
        <ele>235.80000305176</ele>
        <time>2019-09-13T07:57:10Z</time>
      </trkpt>
      <trkpt lat="46.82552" lon="4.92739">
        <ele>235.60000610352</ele>
        <time>2019-09-13T07:57:19Z</time>
      </trkpt>
      <trkpt lat="46.82513" lon="4.92683">
        <ele>235.39999389648</ele>
        <time>2019-09-13T07:57:28Z</time>
      </trkpt>
      <trkpt lat="46.82474" lon="4.92627">
        <ele>235.19999694824</ele>
        <time>2019-09-13T07:57:37Z</time>
      </trkpt>
      <trkpt lat="46.82437" lon="4.92567">
        <ele>235</ele>
        <time>2019-09-13T07:57:46Z</time>
      </trkpt>
      <trkpt lat="46.82401" lon="4.92509">
        <ele>234.80000305176</ele>
        <time>2019-09-13T07:57:55Z</time>
      </trkpt>
      <trkpt lat="46.82389" lon="4.92489">
        <ele>234.80000305176</ele>
        <time>2019-09-13T07:57:58Z</time>
      </trkpt>
      <trkpt lat="46.82356" lon="4.92439">
        <ele>234.80000305176</ele>
        <time>2019-09-13T07:58:06Z</time>
      </trkpt>
      <trkpt lat="46.82323" lon="4.92389">
        <ele>234.80000305176</ele>
        <time>2019-09-13T07:58:14Z</time>
      </trkpt>
      <trkpt lat="46.82288" lon="4.92331">
        <ele>234.80000305176</ele>
        <time>2019-09-13T07:58:23Z</time>
      </trkpt>
      <trkpt lat="46.82274" lon="4.92295">
        <ele>234.80000305176</ele>
        <time>2019-09-13T07:58:28Z</time>
      </trkpt>
      <trkpt lat="46.82272" lon="4.92287">
        <ele>234.80000305176</ele>
        <time>2019-09-13T07:58:29Z</time>
      </trkpt>
      <trkpt lat="46.82258" lon="4.92228">
        <ele>234.80000305176</ele>
        <time>2019-09-13T07:58:37Z</time>
      </trkpt>
      <trkpt lat="46.82247" lon="4.92184">
        <ele>234.80000305176</ele>
        <time>2019-09-13T07:58:43Z</time>
      </trkpt>
      <trkpt lat="46.82234" lon="4.92113">
        <ele>235</ele>
        <time>2019-09-13T07:58:52Z</time>
      </trkpt>
      <trkpt lat="46.82228" lon="4.92064">
        <ele>235</ele>
        <time>2019-09-13T07:58:58Z</time>
      </trkpt>
      <trkpt lat="46.8222" lon="4.92006">
        <ele>235.19999694824</ele>
        <time>2019-09-13T07:59:05Z</time>
      </trkpt>
      <trkpt lat="46.82214" lon="4.91964">
        <ele>235.19999694824</ele>
        <time>2019-09-13T07:59:10Z</time>
      </trkpt>
      <trkpt lat="46.82212" lon="4.91947">
        <ele>235.19999694824</ele>
        <time>2019-09-13T07:59:12Z</time>
      </trkpt>
      <trkpt lat="46.8221" lon="4.9193">
        <ele>235.19999694824</ele>
        <time>2019-09-13T07:59:14Z</time>
      </trkpt>
      <trkpt lat="46.82207" lon="4.91888">
        <ele>235.39999389648</ele>
        <time>2019-09-13T07:59:19Z</time>
      </trkpt>
      <trkpt lat="46.822" lon="4.91803">
        <ele>235.39999389648</ele>
        <time>2019-09-13T07:59:29Z</time>
      </trkpt>
      <trkpt lat="46.82192" lon="4.91762">
        <ele>235.39999389648</ele>
        <time>2019-09-13T07:59:34Z</time>
      </trkpt>
      <trkpt lat="46.82172" lon="4.91713">
        <ele>235.39999389648</ele>
        <time>2019-09-13T07:59:41Z</time>
      </trkpt>
      <trkpt lat="46.82151" lon="4.91661">
        <ele>235.60000610352</ele>
        <time>2019-09-13T07:59:48Z</time>
      </trkpt>
      <trkpt lat="46.82133" lon="4.91597">
        <ele>235.39999389648</ele>
        <time>2019-09-13T07:59:56Z</time>
      </trkpt>
      <trkpt lat="46.82117" lon="4.91541">
        <ele>235.19999694824</ele>
        <time>2019-09-13T08:00:03Z</time>
      </trkpt>
      <trkpt lat="46.82091" lon="4.9148">
        <ele>235</ele>
        <time>2019-09-13T08:00:11Z</time>
      </trkpt>
      <trkpt lat="46.82078" lon="4.91451">
        <ele>234.80000305176</ele>
        <time>2019-09-13T08:00:15Z</time>
      </trkpt>
      <trkpt lat="46.82059" lon="4.91406">
        <ele>234.80000305176</ele>
        <time>2019-09-13T08:00:21Z</time>
      </trkpt>
      <trkpt lat="46.82043" lon="4.91352">
        <ele>234.80000305176</ele>
        <time>2019-09-13T08:00:28Z</time>
      </trkpt>
      <trkpt lat="46.82035" lon="4.9133">
        <ele>234.80000305176</ele>
        <time>2019-09-13T08:00:31Z</time>
      </trkpt>
      <trkpt lat="46.82025" lon="4.91301">
        <ele>235.19999694824</ele>
        <time>2019-09-13T08:00:35Z</time>
      </trkpt>
      <trkpt lat="46.81998" lon="4.91224">
        <ele>235.39999389648</ele>
        <time>2019-09-13T08:00:45Z</time>
      </trkpt>
      <trkpt lat="46.81974" lon="4.91162">
        <ele>235.39999389648</ele>
        <time>2019-09-13T08:00:53Z</time>
      </trkpt>
      <trkpt lat="46.81951" lon="4.91103">
        <ele>235.19999694824</ele>
        <time>2019-09-13T08:01:01Z</time>
      </trkpt>
      <trkpt lat="46.81951" lon="4.91088">
        <ele>235.19999694824</ele>
        <time>2019-09-13T08:01:04Z</time>
      </trkpt>
      <trkpt lat="46.8196" lon="4.91082">
        <ele>235.19999694824</ele>
        <time>2019-09-13T08:01:08Z</time>
      </trkpt>
      <trkpt lat="46.81958" lon="4.9107">
        <ele>235.39999389648</ele>
        <time>2019-09-13T08:01:11Z</time>
      </trkpt>
      <trkpt lat="46.81954" lon="4.91059">
        <ele>235.80000305176</ele>
        <time>2019-09-13T08:01:13Z</time>
      </trkpt>
      <trkpt lat="46.81945" lon="4.91033">
        <ele>236</ele>
        <time>2019-09-13T08:01:17Z</time>
      </trkpt>
      <trkpt lat="46.81917" lon="4.9097">
        <ele>235.60000610352</ele>
        <time>2019-09-13T08:01:26Z</time>
      </trkpt>
      <trkpt lat="46.81889" lon="4.90896">
        <ele>235</ele>
        <time>2019-09-13T08:01:36Z</time>
      </trkpt>
      <trkpt lat="46.81865" lon="4.90827">
        <ele>234.60000610352</ele>
        <time>2019-09-13T08:01:45Z</time>
      </trkpt>
      <trkpt lat="46.81862" lon="4.9082">
        <ele>234.80000305176</ele>
        <time>2019-09-13T08:01:46Z</time>
      </trkpt>
      <trkpt lat="46.8186" lon="4.908">
        <ele>234.60000610352</ele>
        <time>2019-09-13T08:01:49Z</time>
      </trkpt>
      <trkpt lat="46.8186" lon="4.90794">
        <ele>234.80000305176</ele>
        <time>2019-09-13T08:01:50Z</time>
      </trkpt>
      <trkpt lat="46.81854" lon="4.90775">
        <ele>234.60000610352</ele>
        <time>2019-09-13T08:01:53Z</time>
      </trkpt>
      <trkpt lat="46.81848" lon="4.90763">
        <ele>234.39999389648</ele>
        <time>2019-09-13T08:01:55Z</time>
      </trkpt>
      <trkpt lat="46.81827" lon="4.90724">
        <ele>234.39999389648</ele>
        <time>2019-09-13T08:02:01Z</time>
      </trkpt>
      <trkpt lat="46.81797" lon="4.90673">
        <ele>234.19999694824</ele>
        <time>2019-09-13T08:02:09Z</time>
      </trkpt>
      <trkpt lat="46.8177" lon="4.90617">
        <ele>234.19999694824</ele>
        <time>2019-09-13T08:02:17Z</time>
      </trkpt>
      <trkpt lat="46.81741" lon="4.90553">
        <ele>234.19999694824</ele>
        <time>2019-09-13T08:02:26Z</time>
      </trkpt>
      <trkpt lat="46.81711" lon="4.90478">
        <ele>234.39999389648</ele>
        <time>2019-09-13T08:02:36Z</time>
      </trkpt>
      <trkpt lat="46.81708" lon="4.90471">
        <ele>234.39999389648</ele>
        <time>2019-09-13T08:02:37Z</time>
      </trkpt>
      <trkpt lat="46.81683" lon="4.90394">
        <ele>234.60000610352</ele>
        <time>2019-09-13T08:02:47Z</time>
      </trkpt>
      <trkpt lat="46.81654" lon="4.9032">
        <ele>234.39999389648</ele>
        <time>2019-09-13T08:02:57Z</time>
      </trkpt>
      <trkpt lat="46.81652" lon="4.90313">
        <ele>234.39999389648</ele>
        <time>2019-09-13T08:02:58Z</time>
      </trkpt>
      <trkpt lat="46.81625" lon="4.90249">
        <ele>234.60000610352</ele>
        <time>2019-09-13T08:03:07Z</time>
      </trkpt>
      <trkpt lat="46.81594" lon="4.90179">
        <ele>234.60000610352</ele>
        <time>2019-09-13T08:03:17Z</time>
      </trkpt>
      <trkpt lat="46.81591" lon="4.90172">
        <ele>234.60000610352</ele>
        <time>2019-09-13T08:03:18Z</time>
      </trkpt>
      <trkpt lat="46.8157" lon="4.90124">
        <ele>234.60000610352</ele>
        <time>2019-09-13T08:03:25Z</time>
      </trkpt>
      <trkpt lat="46.81561" lon="4.90093">
        <ele>235</ele>
        <time>2019-09-13T08:03:30Z</time>
      </trkpt>
      <trkpt lat="46.8156" lon="4.90087">
        <ele>235</ele>
        <time>2019-09-13T08:03:31Z</time>
      </trkpt>
      <trkpt lat="46.81555" lon="4.90044">
        <ele>235.80000305176</ele>
        <time>2019-09-13T08:03:38Z</time>
      </trkpt>
      <trkpt lat="46.81555" lon="4.90037">
        <ele>235.80000305176</ele>
        <time>2019-09-13T08:03:39Z</time>
      </trkpt>
      <trkpt lat="46.8155" lon="4.89998">
        <ele>236.39999389648</ele>
        <time>2019-09-13T08:03:45Z</time>
      </trkpt>
      <trkpt lat="46.81547" lon="4.89939">
        <ele>236.60000610352</ele>
        <time>2019-09-13T08:03:53Z</time>
      </trkpt>
      <trkpt lat="46.81542" lon="4.89882">
        <ele>236.19999694824</ele>
        <time>2019-09-13T08:04:01Z</time>
      </trkpt>
      <trkpt lat="46.81533" lon="4.89875">
        <ele>236.19999694824</ele>
        <time>2019-09-13T08:04:04Z</time>
      </trkpt>
      <trkpt lat="46.8152" lon="4.89878">
        <ele>236.19999694824</ele>
        <time>2019-09-13T08:04:07Z</time>
      </trkpt>
      <trkpt lat="46.81511" lon="4.8988">
        <ele>236.19999694824</ele>
        <time>2019-09-13T08:04:09Z</time>
      </trkpt>
      <trkpt lat="46.81486" lon="4.89886">
        <ele>236.19999694824</ele>
        <time>2019-09-13T08:04:14Z</time>
      </trkpt>
      <trkpt lat="46.81476" lon="4.89889">
        <ele>236.39999389648</ele>
        <time>2019-09-13T08:04:16Z</time>
      </trkpt>
      <trkpt lat="46.81471" lon="4.8989">
        <ele>236.39999389648</ele>
        <time>2019-09-13T08:04:17Z</time>
      </trkpt>
      <trkpt lat="46.8145" lon="4.89894">
        <ele>236.39999389648</ele>
        <time>2019-09-13T08:04:21Z</time>
      </trkpt>
      <trkpt lat="46.81446" lon="4.89891">
        <ele>236.19999694824</ele>
        <time>2019-09-13T08:04:22Z</time>
      </trkpt>
      <trkpt lat="46.81442" lon="4.89873">
        <ele>236.19999694824</ele>
        <time>2019-09-13T08:04:25Z</time>
      </trkpt>
      <trkpt lat="46.81444" lon="4.89866">
        <ele>236.19999694824</ele>
        <time>2019-09-13T08:04:26Z</time>
      </trkpt>
      <trkpt lat="46.81445" lon="4.89852">
        <ele>236.19999694824</ele>
        <time>2019-09-13T08:04:28Z</time>
      </trkpt>
      <trkpt lat="46.81447" lon="4.89838">
        <ele>236</ele>
        <time>2019-09-13T08:04:30Z</time>
      </trkpt>
      <trkpt lat="46.81452" lon="4.89788">
        <ele>235.60000610352</ele>
        <time>2019-09-13T08:04:37Z</time>
      </trkpt>
      <trkpt lat="46.81459" lon="4.89746">
        <ele>235.39999389648</ele>
        <time>2019-09-13T08:04:43Z</time>
      </trkpt>
      <trkpt lat="46.81465" lon="4.89696">
        <ele>235.19999694824</ele>
        <time>2019-09-13T08:04:50Z</time>
      </trkpt>
      <trkpt lat="46.81473" lon="4.89643">
        <ele>235</ele>
        <time>2019-09-13T08:04:56Z</time>
      </trkpt>
      <trkpt lat="46.81483" lon="4.89587">
        <ele>234.80000305176</ele>
        <time>2019-09-13T08:05:02Z</time>
      </trkpt>
      <trkpt lat="46.81493" lon="4.89512">
        <ele>234.60000610352</ele>
        <time>2019-09-13T08:05:11Z</time>
      </trkpt>
      <trkpt lat="46.81498" lon="4.89445">
        <ele>234.80000305176</ele>
        <time>2019-09-13T08:05:19Z</time>
      </trkpt>
      <trkpt lat="46.81496" lon="4.89378">
        <ele>235</ele>
        <time>2019-09-13T08:05:27Z</time>
      </trkpt>
      <trkpt lat="46.81501" lon="4.89312">
        <ele>235.19999694824</ele>
        <time>2019-09-13T08:05:35Z</time>
      </trkpt>
      <trkpt lat="46.81509" lon="4.89265">
        <ele>235.19999694824</ele>
        <time>2019-09-13T08:05:41Z</time>
      </trkpt>
      <trkpt lat="46.81523" lon="4.89216">
        <ele>235.39999389648</ele>
        <time>2019-09-13T08:05:48Z</time>
      </trkpt>
      <trkpt lat="46.81537" lon="4.89167">
        <ele>235.60000610352</ele>
        <time>2019-09-13T08:05:55Z</time>
      </trkpt>
      <trkpt lat="46.81537" lon="4.8916">
        <ele>235.60000610352</ele>
        <time>2019-09-13T08:05:56Z</time>
      </trkpt>
      <trkpt lat="46.81534" lon="4.89137">
        <ele>235.80000305176</ele>
        <time>2019-09-13T08:05:59Z</time>
      </trkpt>
      <trkpt lat="46.81532" lon="4.8913">
        <ele>235.80000305176</ele>
        <time>2019-09-13T08:06:00Z</time>
      </trkpt>
      <trkpt lat="46.81515" lon="4.8908">
        <ele>236</ele>
        <time>2019-09-13T08:06:07Z</time>
      </trkpt>
      <trkpt lat="46.81511" lon="4.89071">
        <ele>236.19999694824</ele>
        <time>2019-09-13T08:06:10Z</time>
      </trkpt>
      <trkpt lat="46.81512" lon="4.89077">
        <ele>236.19999694824</ele>
        <time>2019-09-13T08:06:13Z</time>
      </trkpt>
      <trkpt lat="46.81514" lon="4.89083">
        <ele>236.19999694824</ele>
        <time>2019-09-13T08:06:15Z</time>
      </trkpt>
      <trkpt lat="46.81518" lon="4.89093">
        <ele>236.19999694824</ele>
        <time>2019-09-13T08:06:18Z</time>
      </trkpt>
      <trkpt lat="46.81518" lon="4.89099">
        <ele>236.19999694824</ele>
        <time>2019-09-13T08:06:20Z</time>
      </trkpt>
      <trkpt lat="46.81518" lon="4.89101">
        <ele>236.19999694824</ele>
        <time>2019-09-13T08:06:22Z</time>
      </trkpt>
      <trkpt lat="46.81516" lon="4.891">
        <ele>236.19999694824</ele>
        <time>2019-09-13T08:06:24Z</time>
      </trkpt>
      <trkpt lat="46.81514" lon="4.89095">
        <ele>236.19999694824</ele>
        <time>2019-09-13T08:06:27Z</time>
      </trkpt>
      <trkpt lat="46.81504" lon="4.8908">
        <ele>236.19999694824</ele>
        <time>2019-09-13T08:06:32Z</time>
      </trkpt>
      <trkpt lat="46.81502" lon="4.89075">
        <ele>236</ele>
        <time>2019-09-13T08:06:33Z</time>
      </trkpt>
      <trkpt lat="46.81492" lon="4.8905">
        <ele>236</ele>
        <time>2019-09-13T08:06:37Z</time>
      </trkpt>
      <trkpt lat="46.81476" lon="4.89009">
        <ele>236</ele>
        <time>2019-09-13T08:06:43Z</time>
      </trkpt>
      <trkpt lat="46.81472" lon="4.89003">
        <ele>235.80000305176</ele>
        <time>2019-09-13T08:06:44Z</time>
      </trkpt>
      <trkpt lat="46.8146" lon="4.88986">
        <ele>235.80000305176</ele>
        <time>2019-09-13T08:06:47Z</time>
      </trkpt>
      <trkpt lat="46.81446" lon="4.88969">
        <ele>235.60000610352</ele>
        <time>2019-09-13T08:06:50Z</time>
      </trkpt>
      <trkpt lat="46.81421" lon="4.88939">
        <ele>235.60000610352</ele>
        <time>2019-09-13T08:06:56Z</time>
      </trkpt>
      <trkpt lat="46.81417" lon="4.88935">
        <ele>235.39999389648</ele>
        <time>2019-09-13T08:06:57Z</time>
      </trkpt>
      <trkpt lat="46.81408" lon="4.88918">
        <ele>235.19999694824</ele>
        <time>2019-09-13T08:07:01Z</time>
      </trkpt>
      <trkpt lat="46.814" lon="4.88907">
        <ele>235</ele>
        <time>2019-09-13T08:07:04Z</time>
      </trkpt>
      <trkpt lat="46.81402" lon="4.88889">
        <ele>235</ele>
        <time>2019-09-13T08:07:07Z</time>
      </trkpt>
      <trkpt lat="46.81392" lon="4.88866">
        <ele>235</ele>
        <time>2019-09-13T08:07:11Z</time>
      </trkpt>
      <trkpt lat="46.81363" lon="4.88821">
        <ele>234.80000305176</ele>
        <time>2019-09-13T08:07:19Z</time>
      </trkpt>
      <trkpt lat="46.8135" lon="4.88805">
        <ele>234.60000610352</ele>
        <time>2019-09-13T08:07:22Z</time>
      </trkpt>
      <trkpt lat="46.81336" lon="4.8879">
        <ele>234.60000610352</ele>
        <time>2019-09-13T08:07:25Z</time>
      </trkpt>
      <trkpt lat="46.81332" lon="4.88784">
        <ele>234.60000610352</ele>
        <time>2019-09-13T08:07:26Z</time>
      </trkpt>
      <trkpt lat="46.81324" lon="4.88762">
        <ele>234.39999389648</ele>
        <time>2019-09-13T08:07:29Z</time>
      </trkpt>
      <trkpt lat="46.8132" lon="4.88747">
        <ele>234.19999694824</ele>
        <time>2019-09-13T08:07:31Z</time>
      </trkpt>
      <trkpt lat="46.81317" lon="4.88726">
        <ele>234.19999694824</ele>
        <time>2019-09-13T08:07:34Z</time>
      </trkpt>
      <trkpt lat="46.81316" lon="4.8872">
        <ele>234.19999694824</ele>
        <time>2019-09-13T08:07:35Z</time>
      </trkpt>
      <trkpt lat="46.81315" lon="4.8869">
        <ele>234.19999694824</ele>
        <time>2019-09-13T08:07:39Z</time>
      </trkpt>
      <trkpt lat="46.81313" lon="4.88676">
        <ele>234.19999694824</ele>
        <time>2019-09-13T08:07:41Z</time>
      </trkpt>
      <trkpt lat="46.81304" lon="4.88647">
        <ele>234.19999694824</ele>
        <time>2019-09-13T08:07:45Z</time>
      </trkpt>
      <trkpt lat="46.81285" lon="4.88611">
        <ele>234.19999694824</ele>
        <time>2019-09-13T08:07:51Z</time>
      </trkpt>
      <trkpt lat="46.81283" lon="4.88584">
        <ele>234.19999694824</ele>
        <time>2019-09-13T08:07:55Z</time>
      </trkpt>
      <trkpt lat="46.81284" lon="4.88551">
        <ele>234.19999694824</ele>
        <time>2019-09-13T08:08:01Z</time>
      </trkpt>
      <trkpt lat="46.81283" lon="4.8852">
        <ele>234.19999694824</ele>
        <time>2019-09-13T08:08:07Z</time>
      </trkpt>
      <trkpt lat="46.81286" lon="4.88503">
        <ele>234.39999389648</ele>
        <time>2019-09-13T08:08:11Z</time>
      </trkpt>
      <trkpt lat="46.81286" lon="4.88494">
        <ele>234.60000610352</ele>
        <time>2019-09-13T08:08:16Z</time>
      </trkpt>
      <trkpt lat="46.81289" lon="4.88492">
        <ele>234.60000610352</ele>
        <time>2019-09-13T08:08:18Z</time>
      </trkpt>
      <trkpt lat="46.81296" lon="4.88485">
        <ele>234.80000305176</ele>
        <time>2019-09-13T08:08:21Z</time>
      </trkpt>
      <trkpt lat="46.81319" lon="4.8846">
        <ele>234.80000305176</ele>
        <time>2019-09-13T08:08:28Z</time>
      </trkpt>
      <trkpt lat="46.81347" lon="4.88425">
        <ele>235</ele>
        <time>2019-09-13T08:08:36Z</time>
      </trkpt>
      <trkpt lat="46.8138" lon="4.88385">
        <ele>235</ele>
        <time>2019-09-13T08:08:45Z</time>
      </trkpt>
      <trkpt lat="46.81408" lon="4.8837">
        <ele>235</ele>
        <time>2019-09-13T08:08:51Z</time>
      </trkpt>
      <trkpt lat="46.81445" lon="4.88362">
        <ele>235.19999694824</ele>
        <time>2019-09-13T08:08:59Z</time>
      </trkpt>
      <trkpt lat="46.81458" lon="4.88359">
        <ele>235.60000610352</ele>
        <time>2019-09-13T08:09:02Z</time>
      </trkpt>
      <trkpt lat="46.81463" lon="4.88357">
        <ele>235.80000305176</ele>
        <time>2019-09-13T08:09:03Z</time>
      </trkpt>
      <trkpt lat="46.81469" lon="4.88349">
        <ele>236</ele>
        <time>2019-09-13T08:09:05Z</time>
      </trkpt>
      <trkpt lat="46.81465" lon="4.88329">
        <ele>236.39999389648</ele>
        <time>2019-09-13T08:09:08Z</time>
      </trkpt>
      <trkpt lat="46.8145" lon="4.8827">
        <ele>236.39999389648</ele>
        <time>2019-09-13T08:09:16Z</time>
      </trkpt>
      <trkpt lat="46.81438" lon="4.88214">
        <ele>236</ele>
        <time>2019-09-13T08:09:23Z</time>
      </trkpt>
      <trkpt lat="46.81442" lon="4.8819">
        <ele>236</ele>
        <time>2019-09-13T08:09:26Z</time>
      </trkpt>
      <trkpt lat="46.81458" lon="4.8814">
        <ele>236</ele>
        <time>2019-09-13T08:09:33Z</time>
      </trkpt>
      <trkpt lat="46.8146" lon="4.88135">
        <ele>236</ele>
        <time>2019-09-13T08:09:34Z</time>
      </trkpt>
      <trkpt lat="46.81471" lon="4.88122">
        <ele>236</ele>
        <time>2019-09-13T08:09:37Z</time>
      </trkpt>
      <trkpt lat="46.81476" lon="4.88118">
        <ele>236</ele>
        <time>2019-09-13T08:09:38Z</time>
      </trkpt>
      <trkpt lat="46.8148" lon="4.88115">
        <ele>236</ele>
        <time>2019-09-13T08:09:39Z</time>
      </trkpt>
      <trkpt lat="46.81501" lon="4.88107">
        <ele>236</ele>
        <time>2019-09-13T08:09:43Z</time>
      </trkpt>
      <trkpt lat="46.81542" lon="4.88088">
        <ele>235.80000305176</ele>
        <time>2019-09-13T08:09:51Z</time>
      </trkpt>
      <trkpt lat="46.81589" lon="4.88063">
        <ele>235.80000305176</ele>
        <time>2019-09-13T08:10:01Z</time>
      </trkpt>
      <trkpt lat="46.81593" lon="4.88046">
        <ele>235.80000305176</ele>
        <time>2019-09-13T08:10:04Z</time>
      </trkpt>
      <trkpt lat="46.81587" lon="4.8803">
        <ele>235.80000305176</ele>
        <time>2019-09-13T08:10:07Z</time>
      </trkpt>
      <trkpt lat="46.81584" lon="4.88021">
        <ele>236</ele>
        <time>2019-09-13T08:10:09Z</time>
      </trkpt>
      <trkpt lat="46.81574" lon="4.87997">
        <ele>236.60000610352</ele>
        <time>2019-09-13T08:10:15Z</time>
      </trkpt>
      <trkpt lat="46.81573" lon="4.87993">
        <ele>236.80000305176</ele>
        <time>2019-09-13T08:10:16Z</time>
      </trkpt>
      <trkpt lat="46.81568" lon="4.8798">
        <ele>237.60000610352</ele>
        <time>2019-09-13T08:10:19Z</time>
      </trkpt>
      <trkpt lat="46.81568" lon="4.87966">
        <ele>238</ele>
        <time>2019-09-13T08:10:22Z</time>
      </trkpt>
      <trkpt lat="46.81569" lon="4.87963">
        <ele>238.19999694824</ele>
        <time>2019-09-13T08:10:23Z</time>
      </trkpt>
      <trkpt lat="46.81581" lon="4.87956">
        <ele>238.60000610352</ele>
        <time>2019-09-13T08:10:27Z</time>
      </trkpt>
      <trkpt lat="46.81587" lon="4.87953">
        <ele>238.80000305176</ele>
        <time>2019-09-13T08:10:29Z</time>
      </trkpt>
      <trkpt lat="46.81602" lon="4.87943">
        <ele>239.80000305176</ele>
        <time>2019-09-13T08:10:34Z</time>
      </trkpt>
      <trkpt lat="46.81613" lon="4.87936">
        <ele>240.19999694824</ele>
        <time>2019-09-13T08:10:38Z</time>
      </trkpt>
      <trkpt lat="46.81613" lon="4.87926">
        <ele>240.39999389648</ele>
        <time>2019-09-13T08:10:41Z</time>
      </trkpt>
      <trkpt lat="46.8161" lon="4.87915">
        <ele>240.60000610352</ele>
        <time>2019-09-13T08:10:44Z</time>
      </trkpt>
      <trkpt lat="46.81607" lon="4.87906">
        <ele>240.80000305176</ele>
        <time>2019-09-13T08:10:46Z</time>
      </trkpt>
      <trkpt lat="46.81606" lon="4.87901">
        <ele>241</ele>
        <time>2019-09-13T08:10:47Z</time>
      </trkpt>
      <trkpt lat="46.81594" lon="4.87865">
        <ele>242</ele>
        <time>2019-09-13T08:10:55Z</time>
      </trkpt>
      <trkpt lat="46.81593" lon="4.87861">
        <ele>242.19999694824</ele>
        <time>2019-09-13T08:10:56Z</time>
      </trkpt>
      <trkpt lat="46.81587" lon="4.87839">
        <ele>243</ele>
        <time>2019-09-13T08:11:01Z</time>
      </trkpt>
      <trkpt lat="46.81584" lon="4.8783">
        <ele>243.19999694824</ele>
        <time>2019-09-13T08:11:03Z</time>
      </trkpt>
      <trkpt lat="46.81579" lon="4.87809">
        <ele>244</ele>
        <time>2019-09-13T08:11:08Z</time>
      </trkpt>
      <trkpt lat="46.81578" lon="4.87805">
        <ele>244.19999694824</ele>
        <time>2019-09-13T08:11:09Z</time>
      </trkpt>
      <trkpt lat="46.81569" lon="4.87775">
        <ele>245.19999694824</ele>
        <time>2019-09-13T08:11:16Z</time>
      </trkpt>
      <trkpt lat="46.81565" lon="4.87763">
        <ele>245.80000305176</ele>
        <time>2019-09-13T08:11:19Z</time>
      </trkpt>
      <trkpt lat="46.81563" lon="4.87755">
        <ele>246.19999694824</ele>
        <time>2019-09-13T08:11:21Z</time>
      </trkpt>
      <trkpt lat="46.81554" lon="4.87729">
        <ele>247.19999694824</ele>
        <time>2019-09-13T08:11:27Z</time>
      </trkpt>
      <trkpt lat="46.81551" lon="4.8772">
        <ele>247.39999389648</ele>
        <time>2019-09-13T08:11:29Z</time>
      </trkpt>
      <trkpt lat="46.81538" lon="4.87679">
        <ele>248.19999694824</ele>
        <time>2019-09-13T08:11:38Z</time>
      </trkpt>
      <trkpt lat="46.81535" lon="4.8767">
        <ele>248.39999389648</ele>
        <time>2019-09-13T08:11:40Z</time>
      </trkpt>
      <trkpt lat="46.81519" lon="4.87621">
        <ele>249.19999694824</ele>
        <time>2019-09-13T08:11:50Z</time>
      </trkpt>
      <trkpt lat="46.81502" lon="4.8758">
        <ele>249.39999389648</ele>
        <time>2019-09-13T08:11:58Z</time>
      </trkpt>
      <trkpt lat="46.81481" lon="4.87536">
        <ele>249.39999389648</ele>
        <time>2019-09-13T08:12:06Z</time>
      </trkpt>
      <trkpt lat="46.81456" lon="4.87485">
        <ele>249.19999694824</ele>
        <time>2019-09-13T08:12:15Z</time>
      </trkpt>
      <trkpt lat="46.81432" lon="4.87437">
        <ele>248.80000305176</ele>
        <time>2019-09-13T08:12:23Z</time>
      </trkpt>
      <trkpt lat="46.81413" lon="4.87398">
        <ele>248.80000305176</ele>
        <time>2019-09-13T08:12:29Z</time>
      </trkpt>
      <trkpt lat="46.81383" lon="4.87336">
        <ele>248.39999389648</ele>
        <time>2019-09-13T08:12:38Z</time>
      </trkpt>
      <trkpt lat="46.81359" lon="4.87287">
        <ele>248.19999694824</ele>
        <time>2019-09-13T08:12:45Z</time>
      </trkpt>
      <trkpt lat="46.81329" lon="4.87224">
        <ele>247.60000610352</ele>
        <time>2019-09-13T08:12:54Z</time>
      </trkpt>
      <trkpt lat="46.81311" lon="4.87187">
        <ele>247.39999389648</ele>
        <time>2019-09-13T08:12:59Z</time>
      </trkpt>
      <trkpt lat="46.81302" lon="4.87166">
        <ele>247.19999694824</ele>
        <time>2019-09-13T08:13:02Z</time>
      </trkpt>
      <trkpt lat="46.81273" lon="4.87109">
        <ele>246.80000305176</ele>
        <time>2019-09-13T08:13:10Z</time>
      </trkpt>
      <trkpt lat="46.81248" lon="4.87058">
        <ele>246.39999389648</ele>
        <time>2019-09-13T08:13:17Z</time>
      </trkpt>
      <trkpt lat="46.81245" lon="4.8705">
        <ele>246.39999389648</ele>
        <time>2019-09-13T08:13:18Z</time>
      </trkpt>
      <trkpt lat="46.81216" lon="4.86992">
        <ele>246</ele>
        <time>2019-09-13T08:13:26Z</time>
      </trkpt>
      <trkpt lat="46.81184" lon="4.86927">
        <ele>245.60000610352</ele>
        <time>2019-09-13T08:13:35Z</time>
      </trkpt>
      <trkpt lat="46.81158" lon="4.86877">
        <ele>245.39999389648</ele>
        <time>2019-09-13T08:13:42Z</time>
      </trkpt>
      <trkpt lat="46.81151" lon="4.86863">
        <ele>245.19999694824</ele>
        <time>2019-09-13T08:13:44Z</time>
      </trkpt>
      <trkpt lat="46.81119" lon="4.86797">
        <ele>245.19999694824</ele>
        <time>2019-09-13T08:13:53Z</time>
      </trkpt>
      <trkpt lat="46.81095" lon="4.86747">
        <ele>244.80000305176</ele>
        <time>2019-09-13T08:14:00Z</time>
      </trkpt>
      <trkpt lat="46.81063" lon="4.86682">
        <ele>244.60000610352</ele>
        <time>2019-09-13T08:14:09Z</time>
      </trkpt>
      <trkpt lat="46.81053" lon="4.86661">
        <ele>244.39999389648</ele>
        <time>2019-09-13T08:14:12Z</time>
      </trkpt>
      <trkpt lat="46.81028" lon="4.86622">
        <ele>244</ele>
        <time>2019-09-13T08:14:18Z</time>
      </trkpt>
      <trkpt lat="46.81005" lon="4.86592">
        <ele>243.60000610352</ele>
        <time>2019-09-13T08:14:23Z</time>
      </trkpt>
      <trkpt lat="46.80996" lon="4.86579">
        <ele>243.60000610352</ele>
        <time>2019-09-13T08:14:25Z</time>
      </trkpt>
      <trkpt lat="46.80991" lon="4.86573">
        <ele>243.39999389648</ele>
        <time>2019-09-13T08:14:26Z</time>
      </trkpt>
      <trkpt lat="46.80978" lon="4.86555">
        <ele>243.19999694824</ele>
        <time>2019-09-13T08:14:29Z</time>
      </trkpt>
      <trkpt lat="46.80962" lon="4.86542">
        <ele>243.19999694824</ele>
        <time>2019-09-13T08:14:32Z</time>
      </trkpt>
      <trkpt lat="46.80927" lon="4.8651">
        <ele>243</ele>
        <time>2019-09-13T08:14:39Z</time>
      </trkpt>
      <trkpt lat="46.80875" lon="4.86469">
        <ele>243.19999694824</ele>
        <time>2019-09-13T08:14:49Z</time>
      </trkpt>
      <trkpt lat="46.80821" lon="4.86432">
        <ele>243.39999389648</ele>
        <time>2019-09-13T08:14:59Z</time>
      </trkpt>
      <trkpt lat="46.80792" lon="4.86412">
        <ele>243.39999389648</ele>
        <time>2019-09-13T08:15:05Z</time>
      </trkpt>
      <trkpt lat="46.80787" lon="4.86408">
        <ele>243.39999389648</ele>
        <time>2019-09-13T08:15:06Z</time>
      </trkpt>
      <trkpt lat="46.80777" lon="4.864">
        <ele>243.19999694824</ele>
        <time>2019-09-13T08:15:08Z</time>
      </trkpt>
      <trkpt lat="46.80758" lon="4.86386">
        <ele>243.19999694824</ele>
        <time>2019-09-13T08:15:12Z</time>
      </trkpt>
      <trkpt lat="46.80744" lon="4.86375">
        <ele>242.80000305176</ele>
        <time>2019-09-13T08:15:16Z</time>
      </trkpt>
      <trkpt lat="46.8074" lon="4.86372">
        <ele>242.80000305176</ele>
        <time>2019-09-13T08:15:17Z</time>
      </trkpt>
      <trkpt lat="46.80732" lon="4.86357">
        <ele>242.80000305176</ele>
        <time>2019-09-13T08:15:20Z</time>
      </trkpt>
      <trkpt lat="46.80734" lon="4.86341">
        <ele>242.80000305176</ele>
        <time>2019-09-13T08:15:23Z</time>
      </trkpt>
      <trkpt lat="46.8074" lon="4.8633">
        <ele>242.39999389648</ele>
        <time>2019-09-13T08:15:25Z</time>
      </trkpt>
      <trkpt lat="46.8075" lon="4.86312">
        <ele>242.80000305176</ele>
        <time>2019-09-13T08:15:28Z</time>
      </trkpt>
      <trkpt lat="46.80769" lon="4.86273">
        <ele>242.80000305176</ele>
        <time>2019-09-13T08:15:34Z</time>
      </trkpt>
      <trkpt lat="46.80776" lon="4.86262">
        <ele>242.80000305176</ele>
        <time>2019-09-13T08:15:36Z</time>
      </trkpt>
      <trkpt lat="46.80785" lon="4.86248">
        <ele>242.80000305176</ele>
        <time>2019-09-13T08:15:39Z</time>
      </trkpt>
      <trkpt lat="46.80797" lon="4.86229">
        <ele>243</ele>
        <time>2019-09-13T08:15:43Z</time>
      </trkpt>
      <trkpt lat="46.80799" lon="4.86229">
        <ele>243</ele>
        <time>2019-09-13T08:15:44Z</time>
      </trkpt>
      <trkpt lat="46.808" lon="4.86234">
        <ele>243.39999389648</ele>
        <time>2019-09-13T08:15:46Z</time>
      </trkpt>
      <trkpt lat="46.80795" lon="4.86246">
        <ele>244</ele>
        <time>2019-09-13T08:15:51Z</time>
      </trkpt>
      <trkpt lat="46.80794" lon="4.8625">
        <ele>244</ele>
        <time>2019-09-13T08:15:52Z</time>
      </trkpt>
      <trkpt lat="46.80789" lon="4.86267">
        <ele>244.80000305176</ele>
        <time>2019-09-13T08:15:57Z</time>
      </trkpt>
      <trkpt lat="46.80787" lon="4.86272">
        <ele>245.39999389648</ele>
        <time>2019-09-13T08:15:59Z</time>
      </trkpt>
      <trkpt lat="46.80785" lon="4.86278">
        <ele>246</ele>
        <time>2019-09-13T08:16:01Z</time>
      </trkpt>
      <trkpt lat="46.80781" lon="4.86286">
        <ele>246.80000305176</ele>
        <time>2019-09-13T08:16:04Z</time>
      </trkpt>
      <trkpt lat="46.80778" lon="4.86286">
        <ele>247</ele>
        <time>2019-09-13T08:16:05Z</time>
      </trkpt>
      <trkpt lat="46.80769" lon="4.8628">
        <ele>248</ele>
        <time>2019-09-13T08:16:08Z</time>
      </trkpt>
      <trkpt lat="46.80766" lon="4.86277">
        <ele>248.39999389648</ele>
        <time>2019-09-13T08:16:09Z</time>
      </trkpt>
      <trkpt lat="46.80732" lon="4.86249">
        <ele>249.19999694824</ele>
        <time>2019-09-13T08:16:17Z</time>
      </trkpt>
      <trkpt lat="46.80695" lon="4.86227">
        <ele>248.80000305176</ele>
        <time>2019-09-13T08:16:24Z</time>
      </trkpt>
      <trkpt lat="46.80668" lon="4.86207">
        <ele>248</ele>
        <time>2019-09-13T08:16:29Z</time>
      </trkpt>
      <trkpt lat="46.80654" lon="4.8619">
        <ele>247.19999694824</ele>
        <time>2019-09-13T08:16:33Z</time>
      </trkpt>
      <trkpt lat="46.80651" lon="4.86185">
        <ele>247</ele>
        <time>2019-09-13T08:16:34Z</time>
      </trkpt>
      <trkpt lat="46.80648" lon="4.86164">
        <ele>246.60000610352</ele>
        <time>2019-09-13T08:16:37Z</time>
      </trkpt>
      <trkpt lat="46.80639" lon="4.86145">
        <ele>246.39999389648</ele>
        <time>2019-09-13T08:16:40Z</time>
      </trkpt>
      <trkpt lat="46.80623" lon="4.86138">
        <ele>246.19999694824</ele>
        <time>2019-09-13T08:16:43Z</time>
      </trkpt>
      <trkpt lat="46.80607" lon="4.8615">
        <ele>246.19999694824</ele>
        <time>2019-09-13T08:16:46Z</time>
      </trkpt>
      <trkpt lat="46.80602" lon="4.86157">
        <ele>246</ele>
        <time>2019-09-13T08:16:47Z</time>
      </trkpt>
      <trkpt lat="46.80597" lon="4.86163">
        <ele>246</ele>
        <time>2019-09-13T08:16:48Z</time>
      </trkpt>
      <trkpt lat="46.80592" lon="4.86165">
        <ele>245.80000305176</ele>
        <time>2019-09-13T08:16:49Z</time>
      </trkpt>
      <trkpt lat="46.80576" lon="4.86163">
        <ele>245.39999389648</ele>
        <time>2019-09-13T08:16:52Z</time>
      </trkpt>
      <trkpt lat="46.80569" lon="4.86162">
        <ele>245</ele>
        <time>2019-09-13T08:16:53Z</time>
      </trkpt>
      <trkpt lat="46.80546" lon="4.86159">
        <ele>244</ele>
        <time>2019-09-13T08:16:56Z</time>
      </trkpt>
      <trkpt lat="46.80537" lon="4.86157">
        <ele>243.80000305176</ele>
        <time>2019-09-13T08:16:57Z</time>
      </trkpt>
      <trkpt lat="46.80529" lon="4.86154">
        <ele>243.60000610352</ele>
        <time>2019-09-13T08:16:58Z</time>
      </trkpt>
      <trkpt lat="46.80504" lon="4.86145">
        <ele>243</ele>
        <time>2019-09-13T08:17:01Z</time>
      </trkpt>
      <trkpt lat="46.80482" lon="4.86137">
        <ele>241.39999389648</ele>
        <time>2019-09-13T08:17:04Z</time>
      </trkpt>
      <trkpt lat="46.80469" lon="4.86133">
        <ele>239.80000305176</ele>
        <time>2019-09-13T08:17:06Z</time>
      </trkpt>
      <trkpt lat="46.80446" lon="4.86124">
        <ele>239.19999694824</ele>
        <time>2019-09-13T08:17:10Z</time>
      </trkpt>
      <trkpt lat="46.80432" lon="4.86122">
        <ele>239.19999694824</ele>
        <time>2019-09-13T08:17:14Z</time>
      </trkpt>
      <trkpt lat="46.80419" lon="4.86129">
        <ele>239.19999694824</ele>
        <time>2019-09-13T08:17:18Z</time>
      </trkpt>
      <trkpt lat="46.80415" lon="4.86128">
        <ele>239.39999389648</ele>
        <time>2019-09-13T08:17:19Z</time>
      </trkpt>
      <trkpt lat="46.80385" lon="4.86125">
        <ele>239.39999389648</ele>
        <time>2019-09-13T08:17:25Z</time>
      </trkpt>
      <trkpt lat="46.8037" lon="4.86123">
        <ele>239.39999389648</ele>
        <time>2019-09-13T08:17:28Z</time>
      </trkpt>
      <trkpt lat="46.80361" lon="4.86121">
        <ele>239.39999389648</ele>
        <time>2019-09-13T08:17:30Z</time>
      </trkpt>
      <trkpt lat="46.80345" lon="4.86118">
        <ele>239.19999694824</ele>
        <time>2019-09-13T08:17:35Z</time>
      </trkpt>
      <trkpt lat="46.80342" lon="4.86117">
        <ele>239.19999694824</ele>
        <time>2019-09-13T08:17:38Z</time>
      </trkpt>
      <trkpt lat="46.80342" lon="4.86117">
        <ele>239.19999694824</ele>
        <time>2019-09-13T08:17:52Z</time>
      </trkpt>
      <trkpt lat="46.80332" lon="4.86119">
        <ele>239.19999694824</ele>
        <time>2019-09-13T08:17:56Z</time>
      </trkpt>
      <trkpt lat="46.80325" lon="4.86118">
        <ele>239.19999694824</ele>
        <time>2019-09-13T08:18:00Z</time>
      </trkpt>
      <trkpt lat="46.80324" lon="4.86119">
        <ele>239.19999694824</ele>
        <time>2019-09-13T08:18:03Z</time>
      </trkpt>
      <trkpt lat="46.80324" lon="4.86121">
        <ele>239</ele>
        <time>2019-09-13T08:18:08Z</time>
      </trkpt>
      <trkpt lat="46.80323" lon="4.86123">
        <ele>239</ele>
        <time>2019-09-13T08:18:09Z</time>
      </trkpt>
      <trkpt lat="46.80324" lon="4.86126">
        <ele>239</ele>
        <time>2019-09-13T08:18:13Z</time>
      </trkpt>
      <trkpt lat="46.80324" lon="4.8613">
        <ele>239</ele>
        <time>2019-09-13T08:18:19Z</time>
      </trkpt>
      <trkpt lat="46.80325" lon="4.86133">
        <ele>239</ele>
        <time>2019-09-13T08:18:20Z</time>
      </trkpt>
      <trkpt lat="46.8033" lon="4.8614">
        <ele>239</ele>
        <time>2019-09-13T08:18:22Z</time>
      </trkpt>
      <trkpt lat="46.80332" lon="4.86156">
        <ele>238.80000305176</ele>
        <time>2019-09-13T08:18:25Z</time>
      </trkpt>
      <trkpt lat="46.80319" lon="4.86181">
        <ele>238.60000610352</ele>
        <time>2019-09-13T08:18:29Z</time>
      </trkpt>
      <trkpt lat="46.80299" lon="4.86223">
        <ele>238</ele>
        <time>2019-09-13T08:18:35Z</time>
      </trkpt>
      <trkpt lat="46.8029" lon="4.86256">
        <ele>237.80000305176</ele>
        <time>2019-09-13T08:18:39Z</time>
      </trkpt>
      <trkpt lat="46.80284" lon="4.8628">
        <ele>237.39999389648</ele>
        <time>2019-09-13T08:18:42Z</time>
      </trkpt>
      <trkpt lat="46.80281" lon="4.86288">
        <ele>237.39999389648</ele>
        <time>2019-09-13T08:18:43Z</time>
      </trkpt>
      <trkpt lat="46.80267" lon="4.86301">
        <ele>237.19999694824</ele>
        <time>2019-09-13T08:18:46Z</time>
      </trkpt>
      <trkpt lat="46.80257" lon="4.86323">
        <ele>237.19999694824</ele>
        <time>2019-09-13T08:18:49Z</time>
      </trkpt>
      <trkpt lat="46.80254" lon="4.86331">
        <ele>237.19999694824</ele>
        <time>2019-09-13T08:18:50Z</time>
      </trkpt>
      <trkpt lat="46.80236" lon="4.86385">
        <ele>237.19999694824</ele>
        <time>2019-09-13T08:18:57Z</time>
      </trkpt>
      <trkpt lat="46.80215" lon="4.86421">
        <ele>237</ele>
        <time>2019-09-13T08:19:03Z</time>
      </trkpt>
      <trkpt lat="46.80186" lon="4.8647">
        <ele>237</ele>
        <time>2019-09-13T08:19:11Z</time>
      </trkpt>
      <trkpt lat="46.80153" lon="4.86519">
        <ele>237</ele>
        <time>2019-09-13T08:19:19Z</time>
      </trkpt>
      <trkpt lat="46.8012" lon="4.86567">
        <ele>237</ele>
        <time>2019-09-13T08:19:27Z</time>
      </trkpt>
      <trkpt lat="46.80099" lon="4.86604">
        <ele>237</ele>
        <time>2019-09-13T08:19:33Z</time>
      </trkpt>
      <trkpt lat="46.80096" lon="4.86611">
        <ele>237</ele>
        <time>2019-09-13T08:19:34Z</time>
      </trkpt>
      <trkpt lat="46.80092" lon="4.86617">
        <ele>237</ele>
        <time>2019-09-13T08:19:35Z</time>
      </trkpt>
      <trkpt lat="46.80075" lon="4.86642">
        <ele>237.19999694824</ele>
        <time>2019-09-13T08:19:39Z</time>
      </trkpt>
      <trkpt lat="46.80051" lon="4.86679">
        <ele>237.19999694824</ele>
        <time>2019-09-13T08:19:45Z</time>
      </trkpt>
      <trkpt lat="46.80012" lon="4.86726">
        <ele>237.19999694824</ele>
        <time>2019-09-13T08:19:53Z</time>
      </trkpt>
      <trkpt lat="46.79967" lon="4.86771">
        <ele>237.19999694824</ele>
        <time>2019-09-13T08:20:02Z</time>
      </trkpt>
      <trkpt lat="46.79919" lon="4.86806">
        <ele>237.19999694824</ele>
        <time>2019-09-13T08:20:11Z</time>
      </trkpt>
      <trkpt lat="46.79868" lon="4.8683">
        <ele>236.80000305176</ele>
        <time>2019-09-13T08:20:20Z</time>
      </trkpt>
      <trkpt lat="46.79822" lon="4.86842">
        <ele>237</ele>
        <time>2019-09-13T08:20:28Z</time>
      </trkpt>
      <trkpt lat="46.79776" lon="4.86845">
        <ele>237</ele>
        <time>2019-09-13T08:20:36Z</time>
      </trkpt>
      <trkpt lat="46.79728" lon="4.86846">
        <ele>237</ele>
        <time>2019-09-13T08:20:44Z</time>
      </trkpt>
      <trkpt lat="46.7968" lon="4.86841">
        <ele>237</ele>
        <time>2019-09-13T08:20:52Z</time>
      </trkpt>
      <trkpt lat="46.79662" lon="4.86839">
        <ele>237</ele>
        <time>2019-09-13T08:20:55Z</time>
      </trkpt>
      <trkpt lat="46.79637" lon="4.86838">
        <ele>236.80000305176</ele>
        <time>2019-09-13T08:20:59Z</time>
      </trkpt>
      <trkpt lat="46.79581" lon="4.86836">
        <ele>236.80000305176</ele>
        <time>2019-09-13T08:21:08Z</time>
      </trkpt>
      <trkpt lat="46.79575" lon="4.86835">
        <ele>236.80000305176</ele>
        <time>2019-09-13T08:21:09Z</time>
      </trkpt>
      <trkpt lat="46.7952" lon="4.86832">
        <ele>236.80000305176</ele>
        <time>2019-09-13T08:21:18Z</time>
      </trkpt>
      <trkpt lat="46.79471" lon="4.86826">
        <ele>236.80000305176</ele>
        <time>2019-09-13T08:21:26Z</time>
      </trkpt>
      <trkpt lat="46.7943" lon="4.86806">
        <ele>236.80000305176</ele>
        <time>2019-09-13T08:21:33Z</time>
      </trkpt>
      <trkpt lat="46.79392" lon="4.86782">
        <ele>236.80000305176</ele>
        <time>2019-09-13T08:21:40Z</time>
      </trkpt>
      <trkpt lat="46.7935" lon="4.86763">
        <ele>236.80000305176</ele>
        <time>2019-09-13T08:21:47Z</time>
      </trkpt>
      <trkpt lat="46.79312" lon="4.86756">
        <ele>236.80000305176</ele>
        <time>2019-09-13T08:21:53Z</time>
      </trkpt>
      <trkpt lat="46.79277" lon="4.86756">
        <ele>236.80000305176</ele>
        <time>2019-09-13T08:21:59Z</time>
      </trkpt>
      <trkpt lat="46.79243" lon="4.86754">
        <ele>236.80000305176</ele>
        <time>2019-09-13T08:22:05Z</time>
      </trkpt>
      <trkpt lat="46.792" lon="4.86751">
        <ele>237</ele>
        <time>2019-09-13T08:22:12Z</time>
      </trkpt>
      <trkpt lat="46.79144" lon="4.86748">
        <ele>237</ele>
        <time>2019-09-13T08:22:21Z</time>
      </trkpt>
      <trkpt lat="46.79091" lon="4.86745">
        <ele>237</ele>
        <time>2019-09-13T08:22:30Z</time>
      </trkpt>
      <trkpt lat="46.7905" lon="4.86736">
        <ele>237</ele>
        <time>2019-09-13T08:22:37Z</time>
      </trkpt>
      <trkpt lat="46.79028" lon="4.86722">
        <ele>237</ele>
        <time>2019-09-13T08:22:41Z</time>
      </trkpt>
      <trkpt lat="46.79024" lon="4.86717">
        <ele>237</ele>
        <time>2019-09-13T08:22:42Z</time>
      </trkpt>
      <trkpt lat="46.79011" lon="4.86698">
        <ele>236.80000305176</ele>
        <time>2019-09-13T08:22:46Z</time>
      </trkpt>
      <trkpt lat="46.79004" lon="4.8669">
        <ele>236.80000305176</ele>
        <time>2019-09-13T08:22:48Z</time>
      </trkpt>
      <trkpt lat="46.78986" lon="4.86673">
        <ele>237</ele>
        <time>2019-09-13T08:22:52Z</time>
      </trkpt>
      <trkpt lat="46.78959" lon="4.86645">
        <ele>237</ele>
        <time>2019-09-13T08:22:58Z</time>
      </trkpt>
      <trkpt lat="46.78921" lon="4.86608">
        <ele>237.19999694824</ele>
        <time>2019-09-13T08:23:06Z</time>
      </trkpt>
      <trkpt lat="46.78881" lon="4.86563">
        <ele>237</ele>
        <time>2019-09-13T08:23:15Z</time>
      </trkpt>
      <trkpt lat="46.78874" lon="4.86553">
        <ele>237</ele>
        <time>2019-09-13T08:23:17Z</time>
      </trkpt>
      <trkpt lat="46.7887" lon="4.86542">
        <ele>237</ele>
        <time>2019-09-13T08:23:19Z</time>
      </trkpt>
      <trkpt lat="46.78868" lon="4.86526">
        <ele>237.19999694824</ele>
        <time>2019-09-13T08:23:22Z</time>
      </trkpt>
      <trkpt lat="46.78867" lon="4.86517">
        <ele>237.19999694824</ele>
        <time>2019-09-13T08:23:24Z</time>
      </trkpt>
      <trkpt lat="46.78859" lon="4.865">
        <ele>237.39999389648</ele>
        <time>2019-09-13T08:23:29Z</time>
      </trkpt>
      <trkpt lat="46.78849" lon="4.86487">
        <ele>237.60000610352</ele>
        <time>2019-09-13T08:23:34Z</time>
      </trkpt>
      <trkpt lat="46.78848" lon="4.86486">
        <ele>237.60000610352</ele>
        <time>2019-09-13T08:23:36Z</time>
      </trkpt>
      <trkpt lat="46.78848" lon="4.86486">
        <ele>237.60000610352</ele>
        <time>2019-09-13T08:23:37Z</time>
      </trkpt>
      <trkpt lat="46.78846" lon="4.86483">
        <ele>237.60000610352</ele>
        <time>2019-09-13T08:23:42Z</time>
      </trkpt>
      <trkpt lat="46.78834" lon="4.86478">
        <ele>237.60000610352</ele>
        <time>2019-09-13T08:23:46Z</time>
      </trkpt>
      <trkpt lat="46.78818" lon="4.86481">
        <ele>237.60000610352</ele>
        <time>2019-09-13T08:23:50Z</time>
      </trkpt>
      <trkpt lat="46.78814" lon="4.86483">
        <ele>237.39999389648</ele>
        <time>2019-09-13T08:23:51Z</time>
      </trkpt>
      <trkpt lat="46.78804" lon="4.86494">
        <ele>237.39999389648</ele>
        <time>2019-09-13T08:23:55Z</time>
      </trkpt>
      <trkpt lat="46.78802" lon="4.86499">
        <ele>237.39999389648</ele>
        <time>2019-09-13T08:23:57Z</time>
      </trkpt>
      <trkpt lat="46.78793" lon="4.86515">
        <ele>237.60000610352</ele>
        <time>2019-09-13T08:24:02Z</time>
      </trkpt>
      <trkpt lat="46.78791" lon="4.86535">
        <ele>237.80000305176</ele>
        <time>2019-09-13T08:24:06Z</time>
      </trkpt>
      <trkpt lat="46.7879" lon="4.86537">
        <ele>237.80000305176</ele>
        <time>2019-09-13T08:24:08Z</time>
      </trkpt>
      <trkpt lat="46.7879" lon="4.86538">
        <ele>238</ele>
        <time>2019-09-13T08:25:09Z</time>
      </trkpt>
      <trkpt lat="46.78781" lon="4.86549">
        <ele>238</ele>
        <time>2019-09-13T08:25:13Z</time>
      </trkpt>
      <trkpt lat="46.78773" lon="4.86556">
        <ele>237.80000305176</ele>
        <time>2019-09-13T08:25:15Z</time>
      </trkpt>
      <trkpt lat="46.7876" lon="4.86569">
        <ele>237.80000305176</ele>
        <time>2019-09-13T08:25:18Z</time>
      </trkpt>
      <trkpt lat="46.78751" lon="4.86579">
        <ele>237.60000610352</ele>
        <time>2019-09-13T08:25:20Z</time>
      </trkpt>
      <trkpt lat="46.7873" lon="4.86601">
        <ele>236.60000610352</ele>
        <time>2019-09-13T08:25:25Z</time>
      </trkpt>
      <trkpt lat="46.78713" lon="4.86619">
        <ele>236.19999694824</ele>
        <time>2019-09-13T08:25:29Z</time>
      </trkpt>
      <trkpt lat="46.787" lon="4.86632">
        <ele>236</ele>
        <time>2019-09-13T08:25:32Z</time>
      </trkpt>
      <trkpt lat="46.78666" lon="4.86669">
        <ele>235.60000610352</ele>
        <time>2019-09-13T08:25:40Z</time>
      </trkpt>
      <trkpt lat="46.78634" lon="4.867">
        <ele>235.80000305176</ele>
        <time>2019-09-13T08:25:48Z</time>
      </trkpt>
      <trkpt lat="46.7862" lon="4.86724">
        <ele>236.60000610352</ele>
        <time>2019-09-13T08:25:53Z</time>
      </trkpt>
      <trkpt lat="46.78613" lon="4.86732">
        <ele>236.80000305176</ele>
        <time>2019-09-13T08:25:55Z</time>
      </trkpt>
      <trkpt lat="46.78598" lon="4.86747">
        <ele>237.19999694824</ele>
        <time>2019-09-13T08:25:59Z</time>
      </trkpt>
      <trkpt lat="46.7859" lon="4.86754">
        <ele>237.19999694824</ele>
        <time>2019-09-13T08:26:01Z</time>
      </trkpt>
      <trkpt lat="46.7858" lon="4.86765">
        <ele>237.39999389648</ele>
        <time>2019-09-13T08:26:04Z</time>
      </trkpt>
      <trkpt lat="46.7856" lon="4.86786">
        <ele>238.19999694824</ele>
        <time>2019-09-13T08:26:10Z</time>
      </trkpt>
      <trkpt lat="46.78551" lon="4.86793">
        <ele>238.19999694824</ele>
        <time>2019-09-13T08:26:12Z</time>
      </trkpt>
      <trkpt lat="46.78542" lon="4.86804">
        <ele>238.19999694824</ele>
        <time>2019-09-13T08:26:14Z</time>
      </trkpt>
      <trkpt lat="46.78528" lon="4.86817">
        <ele>238.19999694824</ele>
        <time>2019-09-13T08:26:17Z</time>
      </trkpt>
      <trkpt lat="46.78514" lon="4.86811">
        <ele>237.80000305176</ele>
        <time>2019-09-13T08:26:20Z</time>
      </trkpt>
      <trkpt lat="46.78503" lon="4.86785">
        <ele>236.60000610352</ele>
        <time>2019-09-13T08:26:24Z</time>
      </trkpt>
      <trkpt lat="46.785" lon="4.86779">
        <ele>236.19999694824</ele>
        <time>2019-09-13T08:26:25Z</time>
      </trkpt>
      <trkpt lat="46.78497" lon="4.86772">
        <ele>235.80000305176</ele>
        <time>2019-09-13T08:26:26Z</time>
      </trkpt>
      <trkpt lat="46.78491" lon="4.86758">
        <ele>235.19999694824</ele>
        <time>2019-09-13T08:26:28Z</time>
      </trkpt>
      <trkpt lat="46.78486" lon="4.86744">
        <ele>235</ele>
        <time>2019-09-13T08:26:30Z</time>
      </trkpt>
      <trkpt lat="46.78463" lon="4.86687">
        <ele>234.80000305176</ele>
        <time>2019-09-13T08:26:38Z</time>
      </trkpt>
      <trkpt lat="46.78435" lon="4.86614">
        <ele>234.80000305176</ele>
        <time>2019-09-13T08:26:48Z</time>
      </trkpt>
      <trkpt lat="46.78412" lon="4.86568">
        <ele>235</ele>
        <time>2019-09-13T08:26:55Z</time>
      </trkpt>
      <trkpt lat="46.78405" lon="4.86557">
        <ele>235.19999694824</ele>
        <time>2019-09-13T08:26:57Z</time>
      </trkpt>
      <trkpt lat="46.78396" lon="4.86548">
        <ele>235.19999694824</ele>
        <time>2019-09-13T08:26:59Z</time>
      </trkpt>
      <trkpt lat="46.78381" lon="4.86524">
        <ele>235.19999694824</ele>
        <time>2019-09-13T08:27:03Z</time>
      </trkpt>
      <trkpt lat="46.78353" lon="4.8648">
        <ele>235.19999694824</ele>
        <time>2019-09-13T08:27:10Z</time>
      </trkpt>
      <trkpt lat="46.78331" lon="4.86448">
        <ele>235.19999694824</ele>
        <time>2019-09-13T08:27:16Z</time>
      </trkpt>
      <trkpt lat="46.78303" lon="4.86411">
        <ele>235.60000610352</ele>
        <time>2019-09-13T08:27:23Z</time>
      </trkpt>
      <trkpt lat="46.78272" lon="4.86368">
        <ele>236.60000610352</ele>
        <time>2019-09-13T08:27:31Z</time>
      </trkpt>
      <trkpt lat="46.78268" lon="4.86363">
        <ele>236.60000610352</ele>
        <time>2019-09-13T08:27:32Z</time>
      </trkpt>
      <trkpt lat="46.78261" lon="4.86347">
        <ele>236.80000305176</ele>
        <time>2019-09-13T08:27:35Z</time>
      </trkpt>
      <trkpt lat="46.78245" lon="4.86313">
        <ele>237.19999694824</ele>
        <time>2019-09-13T08:27:41Z</time>
      </trkpt>
      <trkpt lat="46.78243" lon="4.86308">
        <ele>237.19999694824</ele>
        <time>2019-09-13T08:27:42Z</time>
      </trkpt>
      <trkpt lat="46.78223" lon="4.86258">
        <ele>237.39999389648</ele>
        <time>2019-09-13T08:27:50Z</time>
      </trkpt>
      <trkpt lat="46.78207" lon="4.8622">
        <ele>237.39999389648</ele>
        <time>2019-09-13T08:27:57Z</time>
      </trkpt>
      <trkpt lat="46.78193" lon="4.8618">
        <ele>237.39999389648</ele>
        <time>2019-09-13T08:28:04Z</time>
      </trkpt>
      <trkpt lat="46.78191" lon="4.86174">
        <ele>237.19999694824</ele>
        <time>2019-09-13T08:28:05Z</time>
      </trkpt>
      <trkpt lat="46.78175" lon="4.86129">
        <ele>237.19999694824</ele>
        <time>2019-09-13T08:28:12Z</time>
      </trkpt>
      <trkpt lat="46.78154" lon="4.86049">
        <ele>237.19999694824</ele>
        <time>2019-09-13T08:28:23Z</time>
      </trkpt>
      <trkpt lat="46.78134" lon="4.85976">
        <ele>237.19999694824</ele>
        <time>2019-09-13T08:28:33Z</time>
      </trkpt>
      <trkpt lat="46.78121" lon="4.85925">
        <ele>237.19999694824</ele>
        <time>2019-09-13T08:28:41Z</time>
      </trkpt>
      <trkpt lat="46.78113" lon="4.85894">
        <ele>237.60000610352</ele>
        <time>2019-09-13T08:28:47Z</time>
      </trkpt>
      <trkpt lat="46.78109" lon="4.85885">
        <ele>237.80000305176</ele>
        <time>2019-09-13T08:28:49Z</time>
      </trkpt>
      <trkpt lat="46.78103" lon="4.85863">
        <ele>238.60000610352</ele>
        <time>2019-09-13T08:28:54Z</time>
      </trkpt>
      <trkpt lat="46.78102" lon="4.85858">
        <ele>238.80000305176</ele>
        <time>2019-09-13T08:28:55Z</time>
      </trkpt>
      <trkpt lat="46.78099" lon="4.85847">
        <ele>240</ele>
        <time>2019-09-13T08:28:58Z</time>
      </trkpt>
      <trkpt lat="46.78097" lon="4.85845">
        <ele>240.19999694824</ele>
        <time>2019-09-13T08:28:59Z</time>
      </trkpt>
      <trkpt lat="46.78094" lon="4.85843">
        <ele>240.39999389648</ele>
        <time>2019-09-13T08:29:00Z</time>
      </trkpt>
      <trkpt lat="46.78091" lon="4.85836">
        <ele>241</ele>
        <time>2019-09-13T08:29:03Z</time>
      </trkpt>
      <trkpt lat="46.7809" lon="4.85834">
        <ele>241.19999694824</ele>
        <time>2019-09-13T08:29:04Z</time>
      </trkpt>
      <trkpt lat="46.7809" lon="4.85827">
        <ele>241.60000610352</ele>
        <time>2019-09-13T08:29:07Z</time>
      </trkpt>
      <trkpt lat="46.7809" lon="4.85821">
        <ele>241.80000305176</ele>
        <time>2019-09-13T08:29:09Z</time>
      </trkpt>
      <trkpt lat="46.78083" lon="4.85802">
        <ele>241.80000305176</ele>
        <time>2019-09-13T08:29:14Z</time>
      </trkpt>
      <trkpt lat="46.7807" lon="4.85772">
        <ele>241</ele>
        <time>2019-09-13T08:29:21Z</time>
      </trkpt>
      <trkpt lat="46.78061" lon="4.85763">
        <ele>240.60000610352</ele>
        <time>2019-09-13T08:29:24Z</time>
      </trkpt>
      <trkpt lat="46.78059" lon="4.85758">
        <ele>240.39999389648</ele>
        <time>2019-09-13T08:29:25Z</time>
      </trkpt>
      <trkpt lat="46.78054" lon="4.85746">
        <ele>240</ele>
        <time>2019-09-13T08:29:27Z</time>
      </trkpt>
      <trkpt lat="46.78046" lon="4.85723">
        <ele>238.80000305176</ele>
        <time>2019-09-13T08:29:31Z</time>
      </trkpt>
      <trkpt lat="46.78041" lon="4.85713">
        <ele>238.19999694824</ele>
        <time>2019-09-13T08:29:33Z</time>
      </trkpt>
      <trkpt lat="46.78036" lon="4.85697">
        <ele>238</ele>
        <time>2019-09-13T08:29:36Z</time>
      </trkpt>
      <trkpt lat="46.78035" lon="4.85693">
        <ele>238</ele>
        <time>2019-09-13T08:29:37Z</time>
      </trkpt>
      <trkpt lat="46.78035" lon="4.85689">
        <ele>237.80000305176</ele>
        <time>2019-09-13T08:29:38Z</time>
      </trkpt>
      <trkpt lat="46.78037" lon="4.85684">
        <ele>237.60000610352</ele>
        <time>2019-09-13T08:29:40Z</time>
      </trkpt>
      <trkpt lat="46.78039" lon="4.85673">
        <ele>237.19999694824</ele>
        <time>2019-09-13T08:29:44Z</time>
      </trkpt>
      <trkpt lat="46.78034" lon="4.8566">
        <ele>237.19999694824</ele>
        <time>2019-09-13T08:29:47Z</time>
      </trkpt>
      <trkpt lat="46.7803" lon="4.8565">
        <ele>237</ele>
        <time>2019-09-13T08:29:49Z</time>
      </trkpt>
      <trkpt lat="46.78021" lon="4.85628">
        <ele>237</ele>
        <time>2019-09-13T08:29:53Z</time>
      </trkpt>
      <trkpt lat="46.78017" lon="4.85617">
        <ele>237</ele>
        <time>2019-09-13T08:29:56Z</time>
      </trkpt>
      <trkpt lat="46.78017" lon="4.85619">
        <ele>237</ele>
        <time>2019-09-13T08:29:58Z</time>
      </trkpt>
      <trkpt lat="46.78018" lon="4.85621">
        <ele>237</ele>
        <time>2019-09-13T08:29:59Z</time>
      </trkpt>
      <trkpt lat="46.78023" lon="4.85632">
        <ele>236.80000305176</ele>
        <time>2019-09-13T08:30:02Z</time>
      </trkpt>
      <trkpt lat="46.78028" lon="4.85643">
        <ele>236.80000305176</ele>
        <time>2019-09-13T08:30:04Z</time>
      </trkpt>
      <trkpt lat="46.78036" lon="4.85664">
        <ele>236.80000305176</ele>
        <time>2019-09-13T08:30:08Z</time>
      </trkpt>
      <trkpt lat="46.78043" lon="4.85675">
        <ele>236.80000305176</ele>
        <time>2019-09-13T08:30:12Z</time>
      </trkpt>
      <trkpt lat="46.78045" lon="4.8567">
        <ele>236.80000305176</ele>
        <time>2019-09-13T08:30:16Z</time>
      </trkpt>
      <trkpt lat="46.78044" lon="4.85669">
        <ele>237</ele>
        <time>2019-09-13T08:30:17Z</time>
      </trkpt>
      <trkpt lat="46.78038" lon="4.85656">
        <ele>237.19999694824</ele>
        <time>2019-09-13T08:30:22Z</time>
      </trkpt>
      <trkpt lat="46.78023" lon="4.85623">
        <ele>237</ele>
        <time>2019-09-13T08:30:29Z</time>
      </trkpt>
      <trkpt lat="46.78011" lon="4.85598">
        <ele>236.80000305176</ele>
        <time>2019-09-13T08:30:34Z</time>
      </trkpt>
      <trkpt lat="46.78007" lon="4.85587">
        <ele>236.80000305176</ele>
        <time>2019-09-13T08:30:36Z</time>
      </trkpt>
      <trkpt lat="46.77991" lon="4.85545">
        <ele>236.80000305176</ele>
        <time>2019-09-13T08:30:43Z</time>
      </trkpt>
      <trkpt lat="46.77983" lon="4.85507">
        <ele>236.80000305176</ele>
        <time>2019-09-13T08:30:49Z</time>
      </trkpt>
      <trkpt lat="46.77973" lon="4.85484">
        <ele>236.80000305176</ele>
        <time>2019-09-13T08:30:53Z</time>
      </trkpt>
      <trkpt lat="46.7797" lon="4.85479">
        <ele>236.80000305176</ele>
        <time>2019-09-13T08:30:54Z</time>
      </trkpt>
      <trkpt lat="46.77959" lon="4.85454">
        <ele>236.80000305176</ele>
        <time>2019-09-13T08:30:58Z</time>
      </trkpt>
      <trkpt lat="46.77956" lon="4.85441">
        <ele>236.80000305176</ele>
        <time>2019-09-13T08:31:00Z</time>
      </trkpt>
      <trkpt lat="46.77939" lon="4.85393">
        <ele>236.80000305176</ele>
        <time>2019-09-13T08:31:07Z</time>
      </trkpt>
      <trkpt lat="46.77919" lon="4.85341">
        <ele>236.80000305176</ele>
        <time>2019-09-13T08:31:15Z</time>
      </trkpt>
      <trkpt lat="46.77899" lon="4.85289">
        <ele>236.80000305176</ele>
        <time>2019-09-13T08:31:23Z</time>
      </trkpt>
      <trkpt lat="46.77874" lon="4.85223">
        <ele>237</ele>
        <time>2019-09-13T08:31:33Z</time>
      </trkpt>
      <trkpt lat="46.77857" lon="4.85182">
        <ele>237.60000610352</ele>
        <time>2019-09-13T08:31:40Z</time>
      </trkpt>
      <trkpt lat="46.77854" lon="4.85178">
        <ele>237.80000305176</ele>
        <time>2019-09-13T08:31:41Z</time>
      </trkpt>
      <trkpt lat="46.77845" lon="4.85176">
        <ele>238.19999694824</ele>
        <time>2019-09-13T08:31:44Z</time>
      </trkpt>
      <trkpt lat="46.77845" lon="4.8518">
        <ele>239</ele>
        <time>2019-09-13T08:31:48Z</time>
      </trkpt>
      <trkpt lat="46.77838" lon="4.85185">
        <ele>239.39999389648</ele>
        <time>2019-09-13T08:31:54Z</time>
      </trkpt>
      <trkpt lat="46.77829" lon="4.85172">
        <ele>239.39999389648</ele>
        <time>2019-09-13T08:31:58Z</time>
      </trkpt>
      <trkpt lat="46.77813" lon="4.85142">
        <ele>239.39999389648</ele>
        <time>2019-09-13T08:32:03Z</time>
      </trkpt>
      <trkpt lat="46.77801" lon="4.85124">
        <ele>239</ele>
        <time>2019-09-13T08:32:06Z</time>
      </trkpt>
      <trkpt lat="46.77796" lon="4.85111">
        <ele>238.60000610352</ele>
        <time>2019-09-13T08:32:08Z</time>
      </trkpt>
      <trkpt lat="46.77792" lon="4.85091">
        <ele>238.19999694824</ele>
        <time>2019-09-13T08:32:12Z</time>
      </trkpt>
      <trkpt lat="46.7778" lon="4.8506">
        <ele>238.19999694824</ele>
        <time>2019-09-13T08:32:17Z</time>
      </trkpt>
      <trkpt lat="46.77757" lon="4.85007">
        <ele>237.80000305176</ele>
        <time>2019-09-13T08:32:24Z</time>
      </trkpt>
      <trkpt lat="46.77746" lon="4.84984">
        <ele>237.60000610352</ele>
        <time>2019-09-13T08:32:27Z</time>
      </trkpt>
      <trkpt lat="46.77724" lon="4.84943">
        <ele>237</ele>
        <time>2019-09-13T08:32:33Z</time>
      </trkpt>
      <trkpt lat="46.77691" lon="4.84883">
        <ele>236.60000610352</ele>
        <time>2019-09-13T08:32:42Z</time>
      </trkpt>
      <trkpt lat="46.77687" lon="4.84876">
        <ele>236.60000610352</ele>
        <time>2019-09-13T08:32:43Z</time>
      </trkpt>
      <trkpt lat="46.77662" lon="4.84831">
        <ele>236.60000610352</ele>
        <time>2019-09-13T08:32:50Z</time>
      </trkpt>
      <trkpt lat="46.7763" lon="4.84773">
        <ele>236.80000305176</ele>
        <time>2019-09-13T08:32:59Z</time>
      </trkpt>
      <trkpt lat="46.77599" lon="4.84722">
        <ele>236.80000305176</ele>
        <time>2019-09-13T08:33:07Z</time>
      </trkpt>
      <trkpt lat="46.77591" lon="4.84711">
        <ele>236.80000305176</ele>
        <time>2019-09-13T08:33:09Z</time>
      </trkpt>
      <trkpt lat="46.77583" lon="4.84698">
        <ele>236.60000610352</ele>
        <time>2019-09-13T08:33:11Z</time>
      </trkpt>
      <trkpt lat="46.77575" lon="4.84687">
        <ele>236.60000610352</ele>
        <time>2019-09-13T08:33:13Z</time>
      </trkpt>
      <trkpt lat="46.77541" lon="4.84641">
        <ele>236.60000610352</ele>
        <time>2019-09-13T08:33:21Z</time>
      </trkpt>
      <trkpt lat="46.77509" lon="4.84607">
        <ele>236.60000610352</ele>
        <time>2019-09-13T08:33:28Z</time>
      </trkpt>
      <trkpt lat="46.7748" lon="4.84581">
        <ele>236.60000610352</ele>
        <time>2019-09-13T08:33:34Z</time>
      </trkpt>
      <trkpt lat="46.77475" lon="4.84577">
        <ele>236.60000610352</ele>
        <time>2019-09-13T08:33:35Z</time>
      </trkpt>
      <trkpt lat="46.77433" lon="4.84548">
        <ele>236.80000305176</ele>
        <time>2019-09-13T08:33:43Z</time>
      </trkpt>
      <trkpt lat="46.77409" lon="4.84535">
        <ele>236.80000305176</ele>
        <time>2019-09-13T08:33:47Z</time>
      </trkpt>
      <trkpt lat="46.77396" lon="4.84533">
        <ele>236.60000610352</ele>
        <time>2019-09-13T08:33:49Z</time>
      </trkpt>
      <trkpt lat="46.77383" lon="4.84521">
        <ele>236.39999389648</ele>
        <time>2019-09-13T08:33:52Z</time>
      </trkpt>
      <trkpt lat="46.77381" lon="4.84514">
        <ele>236.19999694824</ele>
        <time>2019-09-13T08:33:53Z</time>
      </trkpt>
      <trkpt lat="46.7737" lon="4.84498">
        <ele>236</ele>
        <time>2019-09-13T08:33:56Z</time>
      </trkpt>
      <trkpt lat="46.77361" lon="4.84492">
        <ele>236</ele>
        <time>2019-09-13T08:33:58Z</time>
      </trkpt>
      <trkpt lat="46.77346" lon="4.84484">
        <ele>236</ele>
        <time>2019-09-13T08:34:01Z</time>
      </trkpt>
      <trkpt lat="46.77304" lon="4.84462">
        <ele>236.19999694824</ele>
        <time>2019-09-13T08:34:09Z</time>
      </trkpt>
      <trkpt lat="46.77265" lon="4.84443">
        <ele>236.19999694824</ele>
        <time>2019-09-13T08:34:16Z</time>
      </trkpt>
      <trkpt lat="46.77223" lon="4.84425">
        <ele>236.19999694824</ele>
        <time>2019-09-13T08:34:24Z</time>
      </trkpt>
      <trkpt lat="46.77184" lon="4.84413">
        <ele>236.39999389648</ele>
        <time>2019-09-13T08:34:31Z</time>
      </trkpt>
      <trkpt lat="46.77136" lon="4.84398">
        <ele>236.19999694824</ele>
        <time>2019-09-13T08:34:39Z</time>
      </trkpt>
      <trkpt lat="46.77112" lon="4.84391">
        <ele>236.19999694824</ele>
        <time>2019-09-13T08:34:44Z</time>
      </trkpt>
      <trkpt lat="46.77106" lon="4.84385">
        <ele>236.19999694824</ele>
        <time>2019-09-13T08:34:48Z</time>
      </trkpt>
      <trkpt lat="46.77106" lon="4.84385">
        <ele>236.19999694824</ele>
        <time>2019-09-13T08:34:49Z</time>
      </trkpt>
      <trkpt lat="46.77106" lon="4.84381">
        <ele>236.39999389648</ele>
        <time>2019-09-13T08:34:53Z</time>
      </trkpt>
      <trkpt lat="46.77106" lon="4.84374">
        <ele>236.39999389648</ele>
        <time>2019-09-13T08:34:55Z</time>
      </trkpt>
      <trkpt lat="46.77096" lon="4.84369">
        <ele>236.39999389648</ele>
        <time>2019-09-13T08:34:58Z</time>
      </trkpt>
      <trkpt lat="46.77069" lon="4.84362">
        <ele>236.39999389648</ele>
        <time>2019-09-13T08:35:03Z</time>
      </trkpt>
      <trkpt lat="46.77018" lon="4.84352">
        <ele>236.39999389648</ele>
        <time>2019-09-13T08:35:11Z</time>
      </trkpt>
      <trkpt lat="46.7696" lon="4.84345">
        <ele>236.39999389648</ele>
        <time>2019-09-13T08:35:20Z</time>
      </trkpt>
      <trkpt lat="46.76935" lon="4.84344">
        <ele>236.39999389648</ele>
        <time>2019-09-13T08:35:24Z</time>
      </trkpt>
      <trkpt lat="46.76923" lon="4.84348">
        <ele>236.39999389648</ele>
        <time>2019-09-13T08:35:26Z</time>
      </trkpt>
      <trkpt lat="46.76911" lon="4.84356">
        <ele>236.39999389648</ele>
        <time>2019-09-13T08:35:28Z</time>
      </trkpt>
      <trkpt lat="46.76905" lon="4.84358">
        <ele>236.39999389648</ele>
        <time>2019-09-13T08:35:29Z</time>
      </trkpt>
      <trkpt lat="46.769" lon="4.84358">
        <ele>236.39999389648</ele>
        <time>2019-09-13T08:35:30Z</time>
      </trkpt>
      <trkpt lat="46.76848" lon="4.84361">
        <ele>236.39999389648</ele>
        <time>2019-09-13T08:35:39Z</time>
      </trkpt>
      <trkpt lat="46.76817" lon="4.8437">
        <ele>236.60000610352</ele>
        <time>2019-09-13T08:35:45Z</time>
      </trkpt>
      <trkpt lat="46.76776" lon="4.84379">
        <ele>236.19999694824</ele>
        <time>2019-09-13T08:35:52Z</time>
      </trkpt>
      <trkpt lat="46.76746" lon="4.84389">
        <ele>235.60000610352</ele>
        <time>2019-09-13T08:35:58Z</time>
      </trkpt>
      <trkpt lat="46.76706" lon="4.84402">
        <ele>235.39999389648</ele>
        <time>2019-09-13T08:36:06Z</time>
      </trkpt>
      <trkpt lat="46.76662" lon="4.84423">
        <ele>235.39999389648</ele>
        <time>2019-09-13T08:36:14Z</time>
      </trkpt>
      <trkpt lat="46.7662" lon="4.84452">
        <ele>235.19999694824</ele>
        <time>2019-09-13T08:36:22Z</time>
      </trkpt>
      <trkpt lat="46.76583" lon="4.84483">
        <ele>235.19999694824</ele>
        <time>2019-09-13T08:36:29Z</time>
      </trkpt>
      <trkpt lat="46.76554" lon="4.84513">
        <ele>235.39999389648</ele>
        <time>2019-09-13T08:36:35Z</time>
      </trkpt>
      <trkpt lat="46.76513" lon="4.8455">
        <ele>235.39999389648</ele>
        <time>2019-09-13T08:36:43Z</time>
      </trkpt>
      <trkpt lat="46.76482" lon="4.8458">
        <ele>235.19999694824</ele>
        <time>2019-09-13T08:36:50Z</time>
      </trkpt>
      <trkpt lat="46.76469" lon="4.84593">
        <ele>235.19999694824</ele>
        <time>2019-09-13T08:36:53Z</time>
      </trkpt>
      <trkpt lat="46.7645" lon="4.84614">
        <ele>235.39999389648</ele>
        <time>2019-09-13T08:36:58Z</time>
      </trkpt>
      <trkpt lat="46.7642" lon="4.84645">
        <ele>235.19999694824</ele>
        <time>2019-09-13T08:37:05Z</time>
      </trkpt>
      <trkpt lat="46.76392" lon="4.84678">
        <ele>235.19999694824</ele>
        <time>2019-09-13T08:37:12Z</time>
      </trkpt>
      <trkpt lat="46.76371" lon="4.8471">
        <ele>235.19999694824</ele>
        <time>2019-09-13T08:37:19Z</time>
      </trkpt>
      <trkpt lat="46.76359" lon="4.84729">
        <ele>235.19999694824</ele>
        <time>2019-09-13T08:37:24Z</time>
      </trkpt>
      <trkpt lat="46.76356" lon="4.84733">
        <ele>235.19999694824</ele>
        <time>2019-09-13T08:37:25Z</time>
      </trkpt>
      <trkpt lat="46.76333" lon="4.8477">
        <ele>235.39999389648</ele>
        <time>2019-09-13T08:37:33Z</time>
      </trkpt>
      <trkpt lat="46.76306" lon="4.84811">
        <ele>235.39999389648</ele>
        <time>2019-09-13T08:37:41Z</time>
      </trkpt>
      <trkpt lat="46.76285" lon="4.84842">
        <ele>235.39999389648</ele>
        <time>2019-09-13T08:37:47Z</time>
      </trkpt>
      <trkpt lat="46.76262" lon="4.84874">
        <ele>235.60000610352</ele>
        <time>2019-09-13T08:37:53Z</time>
      </trkpt>
      <trkpt lat="46.76236" lon="4.84923">
        <ele>235.80000305176</ele>
        <time>2019-09-13T08:38:01Z</time>
      </trkpt>
      <trkpt lat="46.76228" lon="4.84942">
        <ele>235.80000305176</ele>
        <time>2019-09-13T08:38:04Z</time>
      </trkpt>
      <trkpt lat="46.76216" lon="4.84969">
        <ele>236</ele>
        <time>2019-09-13T08:38:08Z</time>
      </trkpt>
      <trkpt lat="46.76198" lon="4.85016">
        <ele>236</ele>
        <time>2019-09-13T08:38:15Z</time>
      </trkpt>
      <trkpt lat="46.76179" lon="4.8507">
        <ele>235.80000305176</ele>
        <time>2019-09-13T08:38:23Z</time>
      </trkpt>
      <trkpt lat="46.76162" lon="4.85115">
        <ele>235.80000305176</ele>
        <time>2019-09-13T08:38:30Z</time>
      </trkpt>
      <trkpt lat="46.76155" lon="4.85135">
        <ele>235.80000305176</ele>
        <time>2019-09-13T08:38:33Z</time>
      </trkpt>
      <trkpt lat="46.76146" lon="4.85162">
        <ele>235.80000305176</ele>
        <time>2019-09-13T08:38:37Z</time>
      </trkpt>
      <trkpt lat="46.76141" lon="4.85175">
        <ele>235.80000305176</ele>
        <time>2019-09-13T08:38:39Z</time>
      </trkpt>
      <trkpt lat="46.76134" lon="4.85196">
        <ele>235.60000610352</ele>
        <time>2019-09-13T08:38:42Z</time>
      </trkpt>
      <trkpt lat="46.76131" lon="4.85202">
        <ele>235.60000610352</ele>
        <time>2019-09-13T08:38:43Z</time>
      </trkpt>
      <trkpt lat="46.76109" lon="4.85262">
        <ele>235.60000610352</ele>
        <time>2019-09-13T08:38:52Z</time>
      </trkpt>
      <trkpt lat="46.7609" lon="4.85314">
        <ele>235.80000305176</ele>
        <time>2019-09-13T08:39:00Z</time>
      </trkpt>
      <trkpt lat="46.76088" lon="4.85321">
        <ele>235.80000305176</ele>
        <time>2019-09-13T08:39:01Z</time>
      </trkpt>
      <trkpt lat="46.76073" lon="4.85365">
        <ele>236</ele>
        <time>2019-09-13T08:39:08Z</time>
      </trkpt>
      <trkpt lat="46.76061" lon="4.85403">
        <ele>236.60000610352</ele>
        <time>2019-09-13T08:39:15Z</time>
      </trkpt>
      <trkpt lat="46.76049" lon="4.8543">
        <ele>236.80000305176</ele>
        <time>2019-09-13T08:39:20Z</time>
      </trkpt>
      <trkpt lat="46.76044" lon="4.85441">
        <ele>236.80000305176</ele>
        <time>2019-09-13T08:39:22Z</time>
      </trkpt>
      <trkpt lat="46.76037" lon="4.85457">
        <ele>236.80000305176</ele>
        <time>2019-09-13T08:39:25Z</time>
      </trkpt>
      <trkpt lat="46.76029" lon="4.85468">
        <ele>236.80000305176</ele>
        <time>2019-09-13T08:39:28Z</time>
      </trkpt>
      <trkpt lat="46.7602" lon="4.85466">
        <ele>236.80000305176</ele>
        <time>2019-09-13T08:39:31Z</time>
      </trkpt>
      <trkpt lat="46.76008" lon="4.8546">
        <ele>236.60000610352</ele>
        <time>2019-09-13T08:39:34Z</time>
      </trkpt>
      <trkpt lat="46.76004" lon="4.85458">
        <ele>236.60000610352</ele>
        <time>2019-09-13T08:39:35Z</time>
      </trkpt>
      <trkpt lat="46.7597" lon="4.85439">
        <ele>236.19999694824</ele>
        <time>2019-09-13T08:39:42Z</time>
      </trkpt>
      <trkpt lat="46.75935" lon="4.85423">
        <ele>236</ele>
        <time>2019-09-13T08:39:49Z</time>
      </trkpt>
      <trkpt lat="46.7592" lon="4.85419">
        <ele>235.80000305176</ele>
        <time>2019-09-13T08:39:52Z</time>
      </trkpt>
      <trkpt lat="46.75913" lon="4.85413">
        <ele>235.80000305176</ele>
        <time>2019-09-13T08:39:54Z</time>
      </trkpt>
      <trkpt lat="46.75909" lon="4.85395">
        <ele>235.80000305176</ele>
        <time>2019-09-13T08:39:57Z</time>
      </trkpt>
      <trkpt lat="46.75912" lon="4.85382">
        <ele>235.80000305176</ele>
        <time>2019-09-13T08:39:59Z</time>
      </trkpt>
      <trkpt lat="46.75918" lon="4.85363">
        <ele>235.80000305176</ele>
        <time>2019-09-13T08:40:02Z</time>
      </trkpt>
      <trkpt lat="46.75938" lon="4.85298">
        <ele>236</ele>
        <time>2019-09-13T08:40:11Z</time>
      </trkpt>
      <trkpt lat="46.75954" lon="4.85249">
        <ele>236</ele>
        <time>2019-09-13T08:40:18Z</time>
      </trkpt>
      <trkpt lat="46.75955" lon="4.85242">
        <ele>236</ele>
        <time>2019-09-13T08:40:19Z</time>
      </trkpt>
      <trkpt lat="46.7595" lon="4.85223">
        <ele>236</ele>
        <time>2019-09-13T08:40:22Z</time>
      </trkpt>
      <trkpt lat="46.75944" lon="4.8521">
        <ele>235.80000305176</ele>
        <time>2019-09-13T08:40:24Z</time>
      </trkpt>
      <trkpt lat="46.75933" lon="4.85185">
        <ele>235.80000305176</ele>
        <time>2019-09-13T08:40:28Z</time>
      </trkpt>
      <trkpt lat="46.75915" lon="4.85148">
        <ele>235.80000305176</ele>
        <time>2019-09-13T08:40:34Z</time>
      </trkpt>
      <trkpt lat="46.75913" lon="4.85141">
        <ele>235.80000305176</ele>
        <time>2019-09-13T08:40:35Z</time>
      </trkpt>
      <trkpt lat="46.759" lon="4.85108">
        <ele>236</ele>
        <time>2019-09-13T08:40:40Z</time>
      </trkpt>
      <trkpt lat="46.75896" lon="4.85095">
        <ele>235.80000305176</ele>
        <time>2019-09-13T08:40:42Z</time>
      </trkpt>
      <trkpt lat="46.75872" lon="4.85034">
        <ele>236.19999694824</ele>
        <time>2019-09-13T08:40:51Z</time>
      </trkpt>
      <trkpt lat="46.75862" lon="4.85007">
        <ele>236.19999694824</ele>
        <time>2019-09-13T08:40:55Z</time>
      </trkpt>
      <trkpt lat="46.75859" lon="4.84992">
        <ele>236.19999694824</ele>
        <time>2019-09-13T08:40:57Z</time>
      </trkpt>
      <trkpt lat="46.75862" lon="4.84961">
        <ele>236.19999694824</ele>
        <time>2019-09-13T08:41:01Z</time>
      </trkpt>
      <trkpt lat="46.75874" lon="4.84898">
        <ele>236.19999694824</ele>
        <time>2019-09-13T08:41:09Z</time>
      </trkpt>
      <trkpt lat="46.75884" lon="4.84841">
        <ele>236.39999389648</ele>
        <time>2019-09-13T08:41:16Z</time>
      </trkpt>
      <trkpt lat="46.75893" lon="4.84787">
        <ele>236.19999694824</ele>
        <time>2019-09-13T08:41:23Z</time>
      </trkpt>
      <trkpt lat="46.75892" lon="4.8478">
        <ele>236.19999694824</ele>
        <time>2019-09-13T08:41:24Z</time>
      </trkpt>
      <trkpt lat="46.75881" lon="4.84768">
        <ele>236.19999694824</ele>
        <time>2019-09-13T08:41:27Z</time>
      </trkpt>
      <trkpt lat="46.75861" lon="4.84765">
        <ele>236.19999694824</ele>
        <time>2019-09-13T08:41:31Z</time>
      </trkpt>
      <trkpt lat="46.75856" lon="4.84765">
        <ele>236</ele>
        <time>2019-09-13T08:41:32Z</time>
      </trkpt>
      <trkpt lat="46.75822" lon="4.84767">
        <ele>236.19999694824</ele>
        <time>2019-09-13T08:41:38Z</time>
      </trkpt>
      <trkpt lat="46.75786" lon="4.84768">
        <ele>236.39999389648</ele>
        <time>2019-09-13T08:41:44Z</time>
      </trkpt>
      <trkpt lat="46.7578" lon="4.84766">
        <ele>236.39999389648</ele>
        <time>2019-09-13T08:41:45Z</time>
      </trkpt>
      <trkpt lat="46.75754" lon="4.84748">
        <ele>236.60000610352</ele>
        <time>2019-09-13T08:41:51Z</time>
      </trkpt>
      <trkpt lat="46.7575" lon="4.84744">
        <ele>236.60000610352</ele>
        <time>2019-09-13T08:41:52Z</time>
      </trkpt>
      <trkpt lat="46.7574" lon="4.84726">
        <ele>237</ele>
        <time>2019-09-13T08:41:56Z</time>
      </trkpt>
      <trkpt lat="46.75739" lon="4.84721">
        <ele>237.19999694824</ele>
        <time>2019-09-13T08:41:57Z</time>
      </trkpt>
      <trkpt lat="46.75729" lon="4.84691">
        <ele>237.80000305176</ele>
        <time>2019-09-13T08:42:03Z</time>
      </trkpt>
      <trkpt lat="46.75726" lon="4.84684">
        <ele>237.80000305176</ele>
        <time>2019-09-13T08:42:06Z</time>
      </trkpt>
      <trkpt lat="46.75725" lon="4.84684">
        <ele>237.80000305176</ele>
        <time>2019-09-13T08:42:07Z</time>
      </trkpt>
      <trkpt lat="46.75724" lon="4.84684">
        <ele>237.60000610352</ele>
        <time>2019-09-13T08:42:10Z</time>
      </trkpt>
      <trkpt lat="46.75722" lon="4.84687">
        <ele>237</ele>
        <time>2019-09-13T08:42:48Z</time>
      </trkpt>
      <trkpt lat="46.75714" lon="4.84697">
        <ele>237</ele>
        <time>2019-09-13T08:42:52Z</time>
      </trkpt>
      <trkpt lat="46.75698" lon="4.84729">
        <ele>237.19999694824</ele>
        <time>2019-09-13T08:43:00Z</time>
      </trkpt>
      <trkpt lat="46.75683" lon="4.84754">
        <ele>237.39999389648</ele>
        <time>2019-09-13T08:43:06Z</time>
      </trkpt>
      <trkpt lat="46.75667" lon="4.84792">
        <ele>238</ele>
        <time>2019-09-13T08:43:14Z</time>
      </trkpt>
      <trkpt lat="46.75657" lon="4.84815">
        <ele>238.60000610352</ele>
        <time>2019-09-13T08:43:19Z</time>
      </trkpt>
      <trkpt lat="46.75651" lon="4.84823">
        <ele>238.80000305176</ele>
        <time>2019-09-13T08:43:21Z</time>
      </trkpt>
      <trkpt lat="46.75632" lon="4.8485">
        <ele>239.19999694824</ele>
        <time>2019-09-13T08:43:28Z</time>
      </trkpt>
      <trkpt lat="46.75627" lon="4.84858">
        <ele>239.60000610352</ele>
        <time>2019-09-13T08:43:30Z</time>
      </trkpt>
      <trkpt lat="46.75609" lon="4.84881">
        <ele>240.39999389648</ele>
        <time>2019-09-13T08:43:36Z</time>
      </trkpt>
      <trkpt lat="46.75594" lon="4.849">
        <ele>240.80000305176</ele>
        <time>2019-09-13T08:43:41Z</time>
      </trkpt>
      <trkpt lat="46.7558" lon="4.8492">
        <ele>241.19999694824</ele>
        <time>2019-09-13T08:43:46Z</time>
      </trkpt>
      <trkpt lat="46.75559" lon="4.84947">
        <ele>242</ele>
        <time>2019-09-13T08:43:53Z</time>
      </trkpt>
      <trkpt lat="46.75553" lon="4.84955">
        <ele>242</ele>
        <time>2019-09-13T08:43:55Z</time>
      </trkpt>
      <trkpt lat="46.75523" lon="4.84992">
        <ele>243</ele>
        <time>2019-09-13T08:44:05Z</time>
      </trkpt>
      <trkpt lat="46.75506" lon="4.85014">
        <ele>243.60000610352</ele>
        <time>2019-09-13T08:44:11Z</time>
      </trkpt>
      <trkpt lat="46.75503" lon="4.85019">
        <ele>243.60000610352</ele>
        <time>2019-09-13T08:44:12Z</time>
      </trkpt>
      <trkpt lat="46.75483" lon="4.85052">
        <ele>244</ele>
        <time>2019-09-13T08:44:19Z</time>
      </trkpt>
      <trkpt lat="46.7548" lon="4.85057">
        <ele>244</ele>
        <time>2019-09-13T08:44:20Z</time>
      </trkpt>
      <trkpt lat="46.75452" lon="4.85096">
        <ele>244.39999389648</ele>
        <time>2019-09-13T08:44:28Z</time>
      </trkpt>
      <trkpt lat="46.75414" lon="4.85147">
        <ele>244.60000610352</ele>
        <time>2019-09-13T08:44:39Z</time>
      </trkpt>
      <trkpt lat="46.75393" lon="4.85174">
        <ele>244.80000305176</ele>
        <time>2019-09-13T08:44:46Z</time>
      </trkpt>
      <trkpt lat="46.7539" lon="4.85178">
        <ele>245</ele>
        <time>2019-09-13T08:44:51Z</time>
      </trkpt>
      <trkpt lat="46.75388" lon="4.8518">
        <ele>245.19999694824</ele>
        <time>2019-09-13T08:44:54Z</time>
      </trkpt>
      <trkpt lat="46.75386" lon="4.85186">
        <ele>245.19999694824</ele>
        <time>2019-09-13T08:44:56Z</time>
      </trkpt>
      <trkpt lat="46.75385" lon="4.85191">
        <ele>245.19999694824</ele>
        <time>2019-09-13T08:44:57Z</time>
      </trkpt>
      <trkpt lat="46.75383" lon="4.85214">
        <ele>245.39999389648</ele>
        <time>2019-09-13T08:45:01Z</time>
      </trkpt>
      <trkpt lat="46.75377" lon="4.8527">
        <ele>246</ele>
        <time>2019-09-13T08:45:10Z</time>
      </trkpt>
      <trkpt lat="46.7537" lon="4.85315">
        <ele>246.19999694824</ele>
        <time>2019-09-13T08:45:17Z</time>
      </trkpt>
      <trkpt lat="46.75369" lon="4.85321">
        <ele>246.39999389648</ele>
        <time>2019-09-13T08:45:18Z</time>
      </trkpt>
      <trkpt lat="46.75358" lon="4.85364">
        <ele>247</ele>
        <time>2019-09-13T08:45:25Z</time>
      </trkpt>
      <trkpt lat="46.75349" lon="4.85395">
        <ele>247.39999389648</ele>
        <time>2019-09-13T08:45:30Z</time>
      </trkpt>
      <trkpt lat="46.75345" lon="4.85406">
        <ele>247.60000610352</ele>
        <time>2019-09-13T08:45:32Z</time>
      </trkpt>
      <trkpt lat="46.7534" lon="4.85418">
        <ele>247.80000305176</ele>
        <time>2019-09-13T08:45:34Z</time>
      </trkpt>
      <trkpt lat="46.75332" lon="4.85443">
        <ele>248</ele>
        <time>2019-09-13T08:45:38Z</time>
      </trkpt>
      <trkpt lat="46.75315" lon="4.85489">
        <ele>248.39999389648</ele>
        <time>2019-09-13T08:45:45Z</time>
      </trkpt>
      <trkpt lat="46.75313" lon="4.85495">
        <ele>248.39999389648</ele>
        <time>2019-09-13T08:45:46Z</time>
      </trkpt>
      <trkpt lat="46.75301" lon="4.85507">
        <ele>248.39999389648</ele>
        <time>2019-09-13T08:45:49Z</time>
      </trkpt>
      <trkpt lat="46.75286" lon="4.85509">
        <ele>248.60000610352</ele>
        <time>2019-09-13T08:45:52Z</time>
      </trkpt>
      <trkpt lat="46.75281" lon="4.85509">
        <ele>248.60000610352</ele>
        <time>2019-09-13T08:45:53Z</time>
      </trkpt>
      <trkpt lat="46.75244" lon="4.8551">
        <ele>248.60000610352</ele>
        <time>2019-09-13T08:46:00Z</time>
      </trkpt>
      <trkpt lat="46.75196" lon="4.85512">
        <ele>248.39999389648</ele>
        <time>2019-09-13T08:46:09Z</time>
      </trkpt>
      <trkpt lat="46.75155" lon="4.85516">
        <ele>248.39999389648</ele>
        <time>2019-09-13T08:46:18Z</time>
      </trkpt>
      <trkpt lat="46.75151" lon="4.85519">
        <ele>248.39999389648</ele>
        <time>2019-09-13T08:46:19Z</time>
      </trkpt>
      <trkpt lat="46.75144" lon="4.85527">
        <ele>248.39999389648</ele>
        <time>2019-09-13T08:46:21Z</time>
      </trkpt>
      <trkpt lat="46.75126" lon="4.85537">
        <ele>248.39999389648</ele>
        <time>2019-09-13T08:46:25Z</time>
      </trkpt>
      <trkpt lat="46.75121" lon="4.85539">
        <ele>248.39999389648</ele>
        <time>2019-09-13T08:46:26Z</time>
      </trkpt>
      <trkpt lat="46.75094" lon="4.8555">
        <ele>248.39999389648</ele>
        <time>2019-09-13T08:46:32Z</time>
      </trkpt>
      <trkpt lat="46.75063" lon="4.85562">
        <ele>248.39999389648</ele>
        <time>2019-09-13T08:46:39Z</time>
      </trkpt>
      <trkpt lat="46.75035" lon="4.85575">
        <ele>248.80000305176</ele>
        <time>2019-09-13T08:46:46Z</time>
      </trkpt>
      <trkpt lat="46.74994" lon="4.85586">
        <ele>249.39999389648</ele>
        <time>2019-09-13T08:46:54Z</time>
      </trkpt>
      <trkpt lat="46.74977" lon="4.85589">
        <ele>249.39999389648</ele>
        <time>2019-09-13T08:46:57Z</time>
      </trkpt>
      <trkpt lat="46.74944" lon="4.85595">
        <ele>249.39999389648</ele>
        <time>2019-09-13T08:47:03Z</time>
      </trkpt>
      <trkpt lat="46.74895" lon="4.85603">
        <ele>249</ele>
        <time>2019-09-13T08:47:12Z</time>
      </trkpt>
      <trkpt lat="46.74854" lon="4.85613">
        <ele>248.80000305176</ele>
        <time>2019-09-13T08:47:19Z</time>
      </trkpt>
      <trkpt lat="46.74849" lon="4.85616">
        <ele>248.80000305176</ele>
        <time>2019-09-13T08:47:20Z</time>
      </trkpt>
      <trkpt lat="46.74812" lon="4.85637">
        <ele>248.19999694824</ele>
        <time>2019-09-13T08:47:27Z</time>
      </trkpt>
      <trkpt lat="46.7477" lon="4.85651">
        <ele>248</ele>
        <time>2019-09-13T08:47:35Z</time>
      </trkpt>
      <trkpt lat="46.74731" lon="4.85662">
        <ele>248</ele>
        <time>2019-09-13T08:47:42Z</time>
      </trkpt>
      <trkpt lat="46.74686" lon="4.85668">
        <ele>248.19999694824</ele>
        <time>2019-09-13T08:47:50Z</time>
      </trkpt>
      <trkpt lat="46.74633" lon="4.85664">
        <ele>248.19999694824</ele>
        <time>2019-09-13T08:47:59Z</time>
      </trkpt>
      <trkpt lat="46.74574" lon="4.85656">
        <ele>248.19999694824</ele>
        <time>2019-09-13T08:48:09Z</time>
      </trkpt>
      <trkpt lat="46.74515" lon="4.85649">
        <ele>248</ele>
        <time>2019-09-13T08:48:19Z</time>
      </trkpt>
      <trkpt lat="46.74503" lon="4.85648">
        <ele>248</ele>
        <time>2019-09-13T08:48:21Z</time>
      </trkpt>
      <trkpt lat="46.74454" lon="4.85647">
        <ele>248</ele>
        <time>2019-09-13T08:48:29Z</time>
      </trkpt>
      <trkpt lat="46.74404" lon="4.85657">
        <ele>247.80000305176</ele>
        <time>2019-09-13T08:48:37Z</time>
      </trkpt>
      <trkpt lat="46.7435" lon="4.8567">
        <ele>247.39999389648</ele>
        <time>2019-09-13T08:48:46Z</time>
      </trkpt>
      <trkpt lat="46.74338" lon="4.85673">
        <ele>247.39999389648</ele>
        <time>2019-09-13T08:48:48Z</time>
      </trkpt>
      <trkpt lat="46.74282" lon="4.85684">
        <ele>246.80000305176</ele>
        <time>2019-09-13T08:48:57Z</time>
      </trkpt>
      <trkpt lat="46.74276" lon="4.85685">
        <ele>246.80000305176</ele>
        <time>2019-09-13T08:48:58Z</time>
      </trkpt>
      <trkpt lat="46.74253" lon="4.85688">
        <ele>246.39999389648</ele>
        <time>2019-09-13T08:49:02Z</time>
      </trkpt>
      <trkpt lat="46.74227" lon="4.85692">
        <ele>246</ele>
        <time>2019-09-13T08:49:06Z</time>
      </trkpt>
      <trkpt lat="46.74188" lon="4.85708">
        <ele>245.80000305176</ele>
        <time>2019-09-13T08:49:12Z</time>
      </trkpt>
      <trkpt lat="46.74139" lon="4.85734">
        <ele>245.60000610352</ele>
        <time>2019-09-13T08:49:20Z</time>
      </trkpt>
      <trkpt lat="46.74126" lon="4.85741">
        <ele>245.39999389648</ele>
        <time>2019-09-13T08:49:22Z</time>
      </trkpt>
      <trkpt lat="46.74083" lon="4.85764">
        <ele>245</ele>
        <time>2019-09-13T08:49:29Z</time>
      </trkpt>
      <trkpt lat="46.74035" lon="4.8579">
        <ele>244.60000610352</ele>
        <time>2019-09-13T08:49:37Z</time>
      </trkpt>
      <trkpt lat="46.74023" lon="4.85797">
        <ele>244.60000610352</ele>
        <time>2019-09-13T08:49:39Z</time>
      </trkpt>
      <trkpt lat="46.73988" lon="4.85816">
        <ele>244.39999389648</ele>
        <time>2019-09-13T08:49:45Z</time>
      </trkpt>
      <trkpt lat="46.73937" lon="4.85843">
        <ele>244.19999694824</ele>
        <time>2019-09-13T08:49:54Z</time>
      </trkpt>
      <trkpt lat="46.7392" lon="4.85852">
        <ele>244.19999694824</ele>
        <time>2019-09-13T08:49:57Z</time>
      </trkpt>
      <trkpt lat="46.73865" lon="4.85883">
        <ele>244.19999694824</ele>
        <time>2019-09-13T08:50:07Z</time>
      </trkpt>
      <trkpt lat="46.73825" lon="4.85912">
        <ele>244</ele>
        <time>2019-09-13T08:50:14Z</time>
      </trkpt>
      <trkpt lat="46.73807" lon="4.85926">
        <ele>243.39999389648</ele>
        <time>2019-09-13T08:50:17Z</time>
      </trkpt>
      <trkpt lat="46.73783" lon="4.85945">
        <ele>242.39999389648</ele>
        <time>2019-09-13T08:50:21Z</time>
      </trkpt>
      <trkpt lat="46.73771" lon="4.85954">
        <ele>241.80000305176</ele>
        <time>2019-09-13T08:50:23Z</time>
      </trkpt>
      <trkpt lat="46.73754" lon="4.85968">
        <ele>241.19999694824</ele>
        <time>2019-09-13T08:50:26Z</time>
      </trkpt>
      <trkpt lat="46.73734" lon="4.85988">
        <ele>240.39999389648</ele>
        <time>2019-09-13T08:50:30Z</time>
      </trkpt>
      <trkpt lat="46.73725" lon="4.85997">
        <ele>240.19999694824</ele>
        <time>2019-09-13T08:50:32Z</time>
      </trkpt>
      <trkpt lat="46.73713" lon="4.86012">
        <ele>240.19999694824</ele>
        <time>2019-09-13T08:50:35Z</time>
      </trkpt>
      <trkpt lat="46.73692" lon="4.86039">
        <ele>240</ele>
        <time>2019-09-13T08:50:41Z</time>
      </trkpt>
      <trkpt lat="46.73669" lon="4.86068">
        <ele>240.39999389648</ele>
        <time>2019-09-13T08:50:48Z</time>
      </trkpt>
      <trkpt lat="46.73653" lon="4.8609">
        <ele>240.39999389648</ele>
        <time>2019-09-13T08:50:53Z</time>
      </trkpt>
      <trkpt lat="46.73647" lon="4.86099">
        <ele>240.39999389648</ele>
        <time>2019-09-13T08:50:55Z</time>
      </trkpt>
      <trkpt lat="46.7364" lon="4.86108">
        <ele>240.39999389648</ele>
        <time>2019-09-13T08:50:57Z</time>
      </trkpt>
      <trkpt lat="46.73617" lon="4.86139">
        <ele>240.60000610352</ele>
        <time>2019-09-13T08:51:03Z</time>
      </trkpt>
      <trkpt lat="46.73589" lon="4.86173">
        <ele>241</ele>
        <time>2019-09-13T08:51:10Z</time>
      </trkpt>
      <trkpt lat="46.73546" lon="4.86222">
        <ele>241</ele>
        <time>2019-09-13T08:51:20Z</time>
      </trkpt>
      <trkpt lat="46.7353" lon="4.86239">
        <ele>240.60000610352</ele>
        <time>2019-09-13T08:51:25Z</time>
      </trkpt>
      <trkpt lat="46.7351" lon="4.86261">
        <ele>240</ele>
        <time>2019-09-13T08:51:31Z</time>
      </trkpt>
      <trkpt lat="46.73481" lon="4.86293">
        <ele>239.80000305176</ele>
        <time>2019-09-13T08:51:38Z</time>
      </trkpt>
      <trkpt lat="46.73468" lon="4.86304">
        <ele>239.60000610352</ele>
        <time>2019-09-13T08:51:41Z</time>
      </trkpt>
      <trkpt lat="46.73457" lon="4.8631">
        <ele>239.39999389648</ele>
        <time>2019-09-13T08:51:43Z</time>
      </trkpt>
      <trkpt lat="46.73452" lon="4.86312">
        <ele>239.19999694824</ele>
        <time>2019-09-13T08:51:44Z</time>
      </trkpt>
      <trkpt lat="46.73419" lon="4.86321">
        <ele>239</ele>
        <time>2019-09-13T08:51:50Z</time>
      </trkpt>
      <trkpt lat="46.73413" lon="4.8632">
        <ele>239</ele>
        <time>2019-09-13T08:51:51Z</time>
      </trkpt>
      <trkpt lat="46.73397" lon="4.86316">
        <ele>239</ele>
        <time>2019-09-13T08:51:54Z</time>
      </trkpt>
      <trkpt lat="46.73386" lon="4.86312">
        <ele>238.80000305176</ele>
        <time>2019-09-13T08:51:56Z</time>
      </trkpt>
      <trkpt lat="46.73343" lon="4.86295">
        <ele>238.80000305176</ele>
        <time>2019-09-13T08:52:04Z</time>
      </trkpt>
      <trkpt lat="46.73305" lon="4.86291">
        <ele>239</ele>
        <time>2019-09-13T08:52:11Z</time>
      </trkpt>
      <trkpt lat="46.73267" lon="4.86294">
        <ele>239.19999694824</ele>
        <time>2019-09-13T08:52:18Z</time>
      </trkpt>
      <trkpt lat="46.73237" lon="4.86301">
        <ele>239.39999389648</ele>
        <time>2019-09-13T08:52:24Z</time>
      </trkpt>
      <trkpt lat="46.73212" lon="4.86305">
        <ele>239.60000610352</ele>
        <time>2019-09-13T08:52:29Z</time>
      </trkpt>
      <trkpt lat="46.73197" lon="4.86304">
        <ele>239.80000305176</ele>
        <time>2019-09-13T08:52:32Z</time>
      </trkpt>
      <trkpt lat="46.73157" lon="4.86297">
        <ele>240.39999389648</ele>
        <time>2019-09-13T08:52:41Z</time>
      </trkpt>
      <trkpt lat="46.73145" lon="4.86296">
        <ele>240.60000610352</ele>
        <time>2019-09-13T08:52:44Z</time>
      </trkpt>
      <trkpt lat="46.73141" lon="4.86297">
        <ele>240.80000305176</ele>
        <time>2019-09-13T08:52:45Z</time>
      </trkpt>
      <trkpt lat="46.73132" lon="4.86299">
        <ele>240.80000305176</ele>
        <time>2019-09-13T08:52:47Z</time>
      </trkpt>
      <trkpt lat="46.73093" lon="4.86307">
        <ele>241.19999694824</ele>
        <time>2019-09-13T08:52:55Z</time>
      </trkpt>
      <trkpt lat="46.73043" lon="4.86316">
        <ele>241.19999694824</ele>
        <time>2019-09-13T08:53:04Z</time>
      </trkpt>
      <trkpt lat="46.72987" lon="4.86325">
        <ele>241</ele>
        <time>2019-09-13T08:53:14Z</time>
      </trkpt>
      <trkpt lat="46.72938" lon="4.86334">
        <ele>240.19999694824</ele>
        <time>2019-09-13T08:53:22Z</time>
      </trkpt>
      <trkpt lat="46.72879" lon="4.86345">
        <ele>239.80000305176</ele>
        <time>2019-09-13T08:53:32Z</time>
      </trkpt>
      <trkpt lat="46.72851" lon="4.86349">
        <ele>239.60000610352</ele>
        <time>2019-09-13T08:53:37Z</time>
      </trkpt>
      <trkpt lat="46.7284" lon="4.86348">
        <ele>239.60000610352</ele>
        <time>2019-09-13T08:53:39Z</time>
      </trkpt>
      <trkpt lat="46.72834" lon="4.86345">
        <ele>239.60000610352</ele>
        <time>2019-09-13T08:53:40Z</time>
      </trkpt>
      <trkpt lat="46.72822" lon="4.86329">
        <ele>239.60000610352</ele>
        <time>2019-09-13T08:53:43Z</time>
      </trkpt>
      <trkpt lat="46.72818" lon="4.86323">
        <ele>239.60000610352</ele>
        <time>2019-09-13T08:53:44Z</time>
      </trkpt>
      <trkpt lat="46.72781" lon="4.86261">
        <ele>239.80000305176</ele>
        <time>2019-09-13T08:53:54Z</time>
      </trkpt>
      <trkpt lat="46.72755" lon="4.86225">
        <ele>240.19999694824</ele>
        <time>2019-09-13T08:54:01Z</time>
      </trkpt>
      <trkpt lat="46.72752" lon="4.86221">
        <ele>240.19999694824</ele>
        <time>2019-09-13T08:54:02Z</time>
      </trkpt>
      <trkpt lat="46.72739" lon="4.86217">
        <ele>240.60000610352</ele>
        <time>2019-09-13T08:54:05Z</time>
      </trkpt>
      <trkpt lat="46.7273" lon="4.86221">
        <ele>240.80000305176</ele>
        <time>2019-09-13T08:54:07Z</time>
      </trkpt>
      <trkpt lat="46.72713" lon="4.86232">
        <ele>241.39999389648</ele>
        <time>2019-09-13T08:54:11Z</time>
      </trkpt>
      <trkpt lat="46.727" lon="4.86244">
        <ele>241.80000305176</ele>
        <time>2019-09-13T08:54:14Z</time>
      </trkpt>
      <trkpt lat="46.72684" lon="4.8626">
        <ele>242.60000610352</ele>
        <time>2019-09-13T08:54:18Z</time>
      </trkpt>
      <trkpt lat="46.72676" lon="4.86268">
        <ele>243</ele>
        <time>2019-09-13T08:54:20Z</time>
      </trkpt>
      <trkpt lat="46.72657" lon="4.86284">
        <ele>243.60000610352</ele>
        <time>2019-09-13T08:54:25Z</time>
      </trkpt>
      <trkpt lat="46.7264" lon="4.86287">
        <ele>244.19999694824</ele>
        <time>2019-09-13T08:54:29Z</time>
      </trkpt>
      <trkpt lat="46.72636" lon="4.86286">
        <ele>244.39999389648</ele>
        <time>2019-09-13T08:54:30Z</time>
      </trkpt>
      <trkpt lat="46.72624" lon="4.86279">
        <ele>244.80000305176</ele>
        <time>2019-09-13T08:54:33Z</time>
      </trkpt>
      <trkpt lat="46.72616" lon="4.86273">
        <ele>245.19999694824</ele>
        <time>2019-09-13T08:54:35Z</time>
      </trkpt>
      <trkpt lat="46.72598" lon="4.86259">
        <ele>246.39999389648</ele>
        <time>2019-09-13T08:54:40Z</time>
      </trkpt>
      <trkpt lat="46.72588" lon="4.86251">
        <ele>246.80000305176</ele>
        <time>2019-09-13T08:54:43Z</time>
      </trkpt>
      <trkpt lat="46.72584" lon="4.86248">
        <ele>246.80000305176</ele>
        <time>2019-09-13T08:54:44Z</time>
      </trkpt>
      <trkpt lat="46.72575" lon="4.86238">
        <ele>247.39999389648</ele>
        <time>2019-09-13T08:54:47Z</time>
      </trkpt>
      <trkpt lat="46.72567" lon="4.86224">
        <ele>248</ele>
        <time>2019-09-13T08:54:50Z</time>
      </trkpt>
      <trkpt lat="46.72561" lon="4.86211">
        <ele>248.39999389648</ele>
        <time>2019-09-13T08:54:53Z</time>
      </trkpt>
      <trkpt lat="46.72554" lon="4.86195">
        <ele>249.19999694824</ele>
        <time>2019-09-13T08:54:57Z</time>
      </trkpt>
      <trkpt lat="46.72552" lon="4.86192">
        <ele>249.39999389648</ele>
        <time>2019-09-13T08:54:58Z</time>
      </trkpt>
      <trkpt lat="46.72549" lon="4.86191">
        <ele>249.60000610352</ele>
        <time>2019-09-13T08:54:59Z</time>
      </trkpt>
      <trkpt lat="46.72545" lon="4.86191">
        <ele>249.60000610352</ele>
        <time>2019-09-13T08:55:00Z</time>
      </trkpt>
      <trkpt lat="46.72536" lon="4.86201">
        <ele>250</ele>
        <time>2019-09-13T08:55:03Z</time>
      </trkpt>
      <trkpt lat="46.72532" lon="4.86206">
        <ele>250.19999694824</ele>
        <time>2019-09-13T08:55:04Z</time>
      </trkpt>
      <trkpt lat="46.72512" lon="4.86238">
        <ele>250.19999694824</ele>
        <time>2019-09-13T08:55:10Z</time>
      </trkpt>
      <trkpt lat="46.72495" lon="4.86263">
        <ele>250.19999694824</ele>
        <time>2019-09-13T08:55:14Z</time>
      </trkpt>
      <trkpt lat="46.72452" lon="4.86307">
        <ele>248.80000305176</ele>
        <time>2019-09-13T08:55:22Z</time>
      </trkpt>
      <trkpt lat="46.72446" lon="4.86312">
        <ele>248.60000610352</ele>
        <time>2019-09-13T08:55:23Z</time>
      </trkpt>
      <trkpt lat="46.72409" lon="4.86348">
        <ele>247.80000305176</ele>
        <time>2019-09-13T08:55:30Z</time>
      </trkpt>
      <trkpt lat="46.72373" lon="4.86386">
        <ele>248</ele>
        <time>2019-09-13T08:55:38Z</time>
      </trkpt>
      <trkpt lat="46.72338" lon="4.86419">
        <ele>249.39999389648</ele>
        <time>2019-09-13T08:55:46Z</time>
      </trkpt>
      <trkpt lat="46.72326" lon="4.8643">
        <ele>249.80000305176</ele>
        <time>2019-09-13T08:55:49Z</time>
      </trkpt>
      <trkpt lat="46.72309" lon="4.86445">
        <ele>251</ele>
        <time>2019-09-13T08:55:53Z</time>
      </trkpt>
      <trkpt lat="46.72293" lon="4.8646">
        <ele>251.60000610352</ele>
        <time>2019-09-13T08:55:57Z</time>
      </trkpt>
      <trkpt lat="46.72276" lon="4.86476">
        <ele>252</ele>
        <time>2019-09-13T08:56:01Z</time>
      </trkpt>
      <trkpt lat="46.72262" lon="4.86489">
        <ele>252</ele>
        <time>2019-09-13T08:56:04Z</time>
      </trkpt>
      <trkpt lat="46.72215" lon="4.86531">
        <ele>252</ele>
        <time>2019-09-13T08:56:14Z</time>
      </trkpt>
      <trkpt lat="46.72207" lon="4.86539">
        <ele>251.80000305176</ele>
        <time>2019-09-13T08:56:16Z</time>
      </trkpt>
      <trkpt lat="46.72186" lon="4.86559">
        <ele>251.80000305176</ele>
        <time>2019-09-13T08:56:22Z</time>
      </trkpt>
      <trkpt lat="46.72182" lon="4.86563">
        <ele>251.80000305176</ele>
        <time>2019-09-13T08:56:23Z</time>
      </trkpt>
      <trkpt lat="46.72162" lon="4.86584">
        <ele>251.60000610352</ele>
        <time>2019-09-13T08:56:28Z</time>
      </trkpt>
      <trkpt lat="46.72133" lon="4.86618">
        <ele>251.60000610352</ele>
        <time>2019-09-13T08:56:35Z</time>
      </trkpt>
      <trkpt lat="46.72129" lon="4.86623">
        <ele>251.60000610352</ele>
        <time>2019-09-13T08:56:36Z</time>
      </trkpt>
      <trkpt lat="46.72103" lon="4.86647">
        <ele>251.39999389648</ele>
        <time>2019-09-13T08:56:41Z</time>
      </trkpt>
      <trkpt lat="46.72068" lon="4.86681">
        <ele>251</ele>
        <time>2019-09-13T08:56:48Z</time>
      </trkpt>
      <trkpt lat="46.72063" lon="4.86685">
        <ele>251</ele>
        <time>2019-09-13T08:56:49Z</time>
      </trkpt>
      <trkpt lat="46.72053" lon="4.86693">
        <ele>250.80000305176</ele>
        <time>2019-09-13T08:56:51Z</time>
      </trkpt>
      <trkpt lat="46.72038" lon="4.86705">
        <ele>250.60000610352</ele>
        <time>2019-09-13T08:56:54Z</time>
      </trkpt>
      <trkpt lat="46.71995" lon="4.86741">
        <ele>250.19999694824</ele>
        <time>2019-09-13T08:57:02Z</time>
      </trkpt>
      <trkpt lat="46.71979" lon="4.86754">
        <ele>249.60000610352</ele>
        <time>2019-09-13T08:57:05Z</time>
      </trkpt>
      <trkpt lat="46.71949" lon="4.86779">
        <ele>249.39999389648</ele>
        <time>2019-09-13T08:57:11Z</time>
      </trkpt>
      <trkpt lat="46.71914" lon="4.86815">
        <ele>249.60000610352</ele>
        <time>2019-09-13T08:57:19Z</time>
      </trkpt>
      <trkpt lat="46.71889" lon="4.86841">
        <ele>250.80000305176</ele>
        <time>2019-09-13T08:57:25Z</time>
      </trkpt>
      <trkpt lat="46.71885" lon="4.86845">
        <ele>251</ele>
        <time>2019-09-13T08:57:26Z</time>
      </trkpt>
      <trkpt lat="46.71859" lon="4.86869">
        <ele>251.39999389648</ele>
        <time>2019-09-13T08:57:32Z</time>
      </trkpt>
      <trkpt lat="46.71855" lon="4.86873">
        <ele>251.39999389648</ele>
        <time>2019-09-13T08:57:33Z</time>
      </trkpt>
      <trkpt lat="46.71817" lon="4.86911">
        <ele>251.80000305176</ele>
        <time>2019-09-13T08:57:42Z</time>
      </trkpt>
      <trkpt lat="46.71814" lon="4.86913">
        <ele>251.80000305176</ele>
        <time>2019-09-13T08:57:43Z</time>
      </trkpt>
      <trkpt lat="46.71811" lon="4.86913">
        <ele>251.80000305176</ele>
        <time>2019-09-13T08:57:44Z</time>
      </trkpt>
      <trkpt lat="46.71809" lon="4.86912">
        <ele>251.80000305176</ele>
        <time>2019-09-13T08:57:45Z</time>
      </trkpt>
      <trkpt lat="46.71805" lon="4.86908">
        <ele>252</ele>
        <time>2019-09-13T08:57:48Z</time>
      </trkpt>
      <trkpt lat="46.71804" lon="4.86908">
        <ele>252</ele>
        <time>2019-09-13T08:57:49Z</time>
      </trkpt>
      <trkpt lat="46.71804" lon="4.86919">
        <ele>252</ele>
        <time>2019-09-13T08:57:53Z</time>
      </trkpt>
      <trkpt lat="46.71795" lon="4.86933">
        <ele>252</ele>
        <time>2019-09-13T08:57:57Z</time>
      </trkpt>
      <trkpt lat="46.71768" lon="4.86962">
        <ele>252</ele>
        <time>2019-09-13T08:58:05Z</time>
      </trkpt>
      <trkpt lat="46.71742" lon="4.86986">
        <ele>252</ele>
        <time>2019-09-13T08:58:13Z</time>
      </trkpt>
      <trkpt lat="46.71716" lon="4.87013">
        <ele>251.19999694824</ele>
        <time>2019-09-13T08:58:21Z</time>
      </trkpt>
      <trkpt lat="46.71713" lon="4.87016">
        <ele>251.19999694824</ele>
        <time>2019-09-13T08:58:22Z</time>
      </trkpt>
      <trkpt lat="46.71701" lon="4.87023">
        <ele>250.60000610352</ele>
        <time>2019-09-13T08:58:25Z</time>
      </trkpt>
      <trkpt lat="46.71697" lon="4.87027">
        <ele>250.39999389648</ele>
        <time>2019-09-13T08:58:26Z</time>
      </trkpt>
      <trkpt lat="46.71693" lon="4.87031">
        <ele>250.39999389648</ele>
        <time>2019-09-13T08:58:27Z</time>
      </trkpt>
      <trkpt lat="46.71668" lon="4.87058">
        <ele>250</ele>
        <time>2019-09-13T08:58:34Z</time>
      </trkpt>
      <trkpt lat="46.71664" lon="4.87061">
        <ele>249.80000305176</ele>
        <time>2019-09-13T08:58:35Z</time>
      </trkpt>
      <trkpt lat="46.71652" lon="4.87076">
        <ele>249.39999389648</ele>
        <time>2019-09-13T08:58:39Z</time>
      </trkpt>
      <trkpt lat="46.71646" lon="4.87084">
        <ele>249.19999694824</ele>
        <time>2019-09-13T08:58:41Z</time>
      </trkpt>
      <trkpt lat="46.71635" lon="4.87095">
        <ele>248.80000305176</ele>
        <time>2019-09-13T08:58:44Z</time>
      </trkpt>
      <trkpt lat="46.71614" lon="4.87114">
        <ele>248</ele>
        <time>2019-09-13T08:58:49Z</time>
      </trkpt>
      <trkpt lat="46.7158" lon="4.87143">
        <ele>247.60000610352</ele>
        <time>2019-09-13T08:58:56Z</time>
      </trkpt>
      <trkpt lat="46.71576" lon="4.87148">
        <ele>247.60000610352</ele>
        <time>2019-09-13T08:58:57Z</time>
      </trkpt>
      <trkpt lat="46.71543" lon="4.87182">
        <ele>247.39999389648</ele>
        <time>2019-09-13T08:59:04Z</time>
      </trkpt>
      <trkpt lat="46.71514" lon="4.87218">
        <ele>247.39999389648</ele>
        <time>2019-09-13T08:59:11Z</time>
      </trkpt>
      <trkpt lat="46.71484" lon="4.87251">
        <ele>247.80000305176</ele>
        <time>2019-09-13T08:59:18Z</time>
      </trkpt>
      <trkpt lat="46.71466" lon="4.87273">
        <ele>248.39999389648</ele>
        <time>2019-09-13T08:59:23Z</time>
      </trkpt>
      <trkpt lat="46.71452" lon="4.87278">
        <ele>248.60000610352</ele>
        <time>2019-09-13T08:59:27Z</time>
      </trkpt>
      <trkpt lat="46.71448" lon="4.8728">
        <ele>248.60000610352</ele>
        <time>2019-09-13T08:59:28Z</time>
      </trkpt>
      <trkpt lat="46.71426" lon="4.87297">
        <ele>248.60000610352</ele>
        <time>2019-09-13T08:59:33Z</time>
      </trkpt>
      <trkpt lat="46.71394" lon="4.87325">
        <ele>248.39999389648</ele>
        <time>2019-09-13T08:59:40Z</time>
      </trkpt>
      <trkpt lat="46.71354" lon="4.87358">
        <ele>248</ele>
        <time>2019-09-13T08:59:49Z</time>
      </trkpt>
      <trkpt lat="46.71336" lon="4.8737">
        <ele>248.19999694824</ele>
        <time>2019-09-13T08:59:55Z</time>
      </trkpt>
      <trkpt lat="46.71324" lon="4.87379">
        <ele>248.60000610352</ele>
        <time>2019-09-13T08:59:59Z</time>
      </trkpt>
      <trkpt lat="46.71321" lon="4.87383">
        <ele>248.80000305176</ele>
        <time>2019-09-13T09:00:00Z</time>
      </trkpt>
      <trkpt lat="46.71295" lon="4.87416">
        <ele>249.19999694824</ele>
        <time>2019-09-13T09:00:08Z</time>
      </trkpt>
      <trkpt lat="46.71272" lon="4.87442">
        <ele>249.60000610352</ele>
        <time>2019-09-13T09:00:14Z</time>
      </trkpt>
      <trkpt lat="46.71241" lon="4.87473">
        <ele>249.80000305176</ele>
        <time>2019-09-13T09:00:22Z</time>
      </trkpt>
      <trkpt lat="46.71216" lon="4.87499">
        <ele>249.80000305176</ele>
        <time>2019-09-13T09:00:29Z</time>
      </trkpt>
      <trkpt lat="46.71202" lon="4.8752">
        <ele>249.80000305176</ele>
        <time>2019-09-13T09:00:35Z</time>
      </trkpt>
      <trkpt lat="46.71198" lon="4.87527">
        <ele>249.80000305176</ele>
        <time>2019-09-13T09:00:39Z</time>
      </trkpt>
      <trkpt lat="46.71198" lon="4.87527">
        <ele>250</ele>
        <time>2019-09-13T09:00:40Z</time>
      </trkpt>
      <trkpt lat="46.71192" lon="4.8753">
        <ele>250.19999694824</ele>
        <time>2019-09-13T09:03:50Z</time>
      </trkpt>
      <trkpt lat="46.71187" lon="4.87533">
        <ele>250.19999694824</ele>
        <time>2019-09-13T09:03:52Z</time>
      </trkpt>
      <trkpt lat="46.71171" lon="4.87547">
        <ele>250.19999694824</ele>
        <time>2019-09-13T09:03:58Z</time>
      </trkpt>
      <trkpt lat="46.71141" lon="4.87575">
        <ele>250.19999694824</ele>
        <time>2019-09-13T09:04:06Z</time>
      </trkpt>
      <trkpt lat="46.71118" lon="4.87595">
        <ele>249.80000305176</ele>
        <time>2019-09-13T09:04:12Z</time>
      </trkpt>
      <trkpt lat="46.711" lon="4.87611">
        <ele>249.39999389648</ele>
        <time>2019-09-13T09:04:17Z</time>
      </trkpt>
      <trkpt lat="46.71067" lon="4.8764">
        <ele>249.19999694824</ele>
        <time>2019-09-13T09:04:25Z</time>
      </trkpt>
      <trkpt lat="46.71057" lon="4.87648">
        <ele>249</ele>
        <time>2019-09-13T09:04:27Z</time>
      </trkpt>
      <trkpt lat="46.71032" lon="4.87672">
        <ele>248.80000305176</ele>
        <time>2019-09-13T09:04:33Z</time>
      </trkpt>
      <trkpt lat="46.70998" lon="4.87708">
        <ele>248.19999694824</ele>
        <time>2019-09-13T09:04:40Z</time>
      </trkpt>
      <trkpt lat="46.70987" lon="4.87718">
        <ele>248</ele>
        <time>2019-09-13T09:04:42Z</time>
      </trkpt>
      <trkpt lat="46.70965" lon="4.87739">
        <ele>247.39999389648</ele>
        <time>2019-09-13T09:04:46Z</time>
      </trkpt>
      <trkpt lat="46.70953" lon="4.87751">
        <ele>247.19999694824</ele>
        <time>2019-09-13T09:04:48Z</time>
      </trkpt>
      <trkpt lat="46.70948" lon="4.87756">
        <ele>247</ele>
        <time>2019-09-13T09:04:49Z</time>
      </trkpt>
      <trkpt lat="46.70926" lon="4.87775">
        <ele>246.19999694824</ele>
        <time>2019-09-13T09:04:53Z</time>
      </trkpt>
      <trkpt lat="46.70916" lon="4.87786">
        <ele>245.80000305176</ele>
        <time>2019-09-13T09:04:55Z</time>
      </trkpt>
      <trkpt lat="46.70896" lon="4.87805">
        <ele>245.19999694824</ele>
        <time>2019-09-13T09:04:59Z</time>
      </trkpt>
      <trkpt lat="46.70871" lon="4.87829">
        <ele>244.60000610352</ele>
        <time>2019-09-13T09:05:04Z</time>
      </trkpt>
      <trkpt lat="46.70852" lon="4.87848">
        <ele>244.19999694824</ele>
        <time>2019-09-13T09:05:08Z</time>
      </trkpt>
      <trkpt lat="46.70829" lon="4.87871">
        <ele>243.60000610352</ele>
        <time>2019-09-13T09:05:13Z</time>
      </trkpt>
      <trkpt lat="46.70818" lon="4.87881">
        <ele>243.39999389648</ele>
        <time>2019-09-13T09:05:15Z</time>
      </trkpt>
      <trkpt lat="46.70778" lon="4.87919">
        <ele>243.19999694824</ele>
        <time>2019-09-13T09:05:23Z</time>
      </trkpt>
      <trkpt lat="46.70745" lon="4.87953">
        <ele>242.60000610352</ele>
        <time>2019-09-13T09:05:30Z</time>
      </trkpt>
      <trkpt lat="46.7074" lon="4.87958">
        <ele>242.39999389648</ele>
        <time>2019-09-13T09:05:31Z</time>
      </trkpt>
      <trkpt lat="46.70707" lon="4.8799">
        <ele>242.19999694824</ele>
        <time>2019-09-13T09:05:38Z</time>
      </trkpt>
      <trkpt lat="46.70671" lon="4.88022">
        <ele>241.80000305176</ele>
        <time>2019-09-13T09:05:45Z</time>
      </trkpt>
      <trkpt lat="46.70639" lon="4.8805">
        <ele>241.39999389648</ele>
        <time>2019-09-13T09:05:51Z</time>
      </trkpt>
      <trkpt lat="46.70634" lon="4.88055">
        <ele>241.39999389648</ele>
        <time>2019-09-13T09:05:52Z</time>
      </trkpt>
      <trkpt lat="46.70598" lon="4.8809">
        <ele>241.19999694824</ele>
        <time>2019-09-13T09:05:59Z</time>
      </trkpt>
      <trkpt lat="46.70563" lon="4.88123">
        <ele>240.80000305176</ele>
        <time>2019-09-13T09:06:06Z</time>
      </trkpt>
      <trkpt lat="46.7054" lon="4.88145">
        <ele>240.39999389648</ele>
        <time>2019-09-13T09:06:11Z</time>
      </trkpt>
      <trkpt lat="46.70532" lon="4.88153">
        <ele>240.39999389648</ele>
        <time>2019-09-13T09:06:13Z</time>
      </trkpt>
      <trkpt lat="46.70498" lon="4.88183">
        <ele>240.19999694824</ele>
        <time>2019-09-13T09:06:20Z</time>
      </trkpt>
      <trkpt lat="46.70469" lon="4.88211">
        <ele>240</ele>
        <time>2019-09-13T09:06:26Z</time>
      </trkpt>
      <trkpt lat="46.70439" lon="4.8824">
        <ele>239.80000305176</ele>
        <time>2019-09-13T09:06:32Z</time>
      </trkpt>
      <trkpt lat="46.70407" lon="4.88269">
        <ele>239.60000610352</ele>
        <time>2019-09-13T09:06:38Z</time>
      </trkpt>
      <trkpt lat="46.70397" lon="4.88279">
        <ele>239.39999389648</ele>
        <time>2019-09-13T09:06:40Z</time>
      </trkpt>
      <trkpt lat="46.70371" lon="4.88314">
        <ele>239.39999389648</ele>
        <time>2019-09-13T09:06:46Z</time>
      </trkpt>
      <trkpt lat="46.70345" lon="4.88349">
        <ele>239</ele>
        <time>2019-09-13T09:06:52Z</time>
      </trkpt>
      <trkpt lat="46.70341" lon="4.88356">
        <ele>239</ele>
        <time>2019-09-13T09:06:53Z</time>
      </trkpt>
      <trkpt lat="46.70332" lon="4.88379">
        <ele>239</ele>
        <time>2019-09-13T09:06:56Z</time>
      </trkpt>
      <trkpt lat="46.70313" lon="4.88443">
        <ele>239</ele>
        <time>2019-09-13T09:07:04Z</time>
      </trkpt>
      <trkpt lat="46.70295" lon="4.88506">
        <ele>238.80000305176</ele>
        <time>2019-09-13T09:07:12Z</time>
      </trkpt>
      <trkpt lat="46.70278" lon="4.88576">
        <ele>238.80000305176</ele>
        <time>2019-09-13T09:07:21Z</time>
      </trkpt>
      <trkpt lat="46.70272" lon="4.88599">
        <ele>238.60000610352</ele>
        <time>2019-09-13T09:07:24Z</time>
      </trkpt>
      <trkpt lat="46.70265" lon="4.88621">
        <ele>238.60000610352</ele>
        <time>2019-09-13T09:07:27Z</time>
      </trkpt>
      <trkpt lat="46.7026" lon="4.88635">
        <ele>238.60000610352</ele>
        <time>2019-09-13T09:07:29Z</time>
      </trkpt>
      <trkpt lat="46.70247" lon="4.88671">
        <ele>238.39999389648</ele>
        <time>2019-09-13T09:07:34Z</time>
      </trkpt>
      <trkpt lat="46.70227" lon="4.88723">
        <ele>238.39999389648</ele>
        <time>2019-09-13T09:07:41Z</time>
      </trkpt>
      <trkpt lat="46.70204" lon="4.88789">
        <ele>238.39999389648</ele>
        <time>2019-09-13T09:07:50Z</time>
      </trkpt>
      <trkpt lat="46.70191" lon="4.88835">
        <ele>238.60000610352</ele>
        <time>2019-09-13T09:07:56Z</time>
      </trkpt>
      <trkpt lat="46.70169" lon="4.88912">
        <ele>238.60000610352</ele>
        <time>2019-09-13T09:08:06Z</time>
      </trkpt>
      <trkpt lat="46.70147" lon="4.88985">
        <ele>238.39999389648</ele>
        <time>2019-09-13T09:08:15Z</time>
      </trkpt>
      <trkpt lat="46.70143" lon="4.89002">
        <ele>238.19999694824</ele>
        <time>2019-09-13T09:08:17Z</time>
      </trkpt>
      <trkpt lat="46.70125" lon="4.89063">
        <ele>238.19999694824</ele>
        <time>2019-09-13T09:08:25Z</time>
      </trkpt>
      <trkpt lat="46.70102" lon="4.89139">
        <ele>238.19999694824</ele>
        <time>2019-09-13T09:08:35Z</time>
      </trkpt>
      <trkpt lat="46.701" lon="4.89146">
        <ele>238.19999694824</ele>
        <time>2019-09-13T09:08:36Z</time>
      </trkpt>
      <trkpt lat="46.70078" lon="4.89222">
        <ele>238.19999694824</ele>
        <time>2019-09-13T09:08:46Z</time>
      </trkpt>
      <trkpt lat="46.70054" lon="4.89299">
        <ele>238</ele>
        <time>2019-09-13T09:08:56Z</time>
      </trkpt>
      <trkpt lat="46.70047" lon="4.89322">
        <ele>237.80000305176</ele>
        <time>2019-09-13T09:08:59Z</time>
      </trkpt>
      <trkpt lat="46.70029" lon="4.8938">
        <ele>237.80000305176</ele>
        <time>2019-09-13T09:09:07Z</time>
      </trkpt>
      <trkpt lat="46.70015" lon="4.89429">
        <ele>237.80000305176</ele>
        <time>2019-09-13T09:09:14Z</time>
      </trkpt>
      <trkpt lat="46.69993" lon="4.89501">
        <ele>237.80000305176</ele>
        <time>2019-09-13T09:09:23Z</time>
      </trkpt>
      <trkpt lat="46.69973" lon="4.89563">
        <ele>238.19999694824</ele>
        <time>2019-09-13T09:09:31Z</time>
      </trkpt>
      <trkpt lat="46.69969" lon="4.89569">
        <ele>238.19999694824</ele>
        <time>2019-09-13T09:09:32Z</time>
      </trkpt>
      <trkpt lat="46.6995" lon="4.89591">
        <ele>238.19999694824</ele>
        <time>2019-09-13T09:09:36Z</time>
      </trkpt>
      <trkpt lat="46.6993" lon="4.896">
        <ele>238</ele>
        <time>2019-09-13T09:09:40Z</time>
      </trkpt>
      <trkpt lat="46.69925" lon="4.89601">
        <ele>237.80000305176</ele>
        <time>2019-09-13T09:09:41Z</time>
      </trkpt>
      <trkpt lat="46.69884" lon="4.89611">
        <ele>237.80000305176</ele>
        <time>2019-09-13T09:09:48Z</time>
      </trkpt>
      <trkpt lat="46.69827" lon="4.89621">
        <ele>237.80000305176</ele>
        <time>2019-09-13T09:09:57Z</time>
      </trkpt>
      <trkpt lat="46.69776" lon="4.8963">
        <ele>237.80000305176</ele>
        <time>2019-09-13T09:10:05Z</time>
      </trkpt>
      <trkpt lat="46.69733" lon="4.89639">
        <ele>237.60000610352</ele>
        <time>2019-09-13T09:10:12Z</time>
      </trkpt>
      <trkpt lat="46.69722" lon="4.89643">
        <ele>237.80000305176</ele>
        <time>2019-09-13T09:10:14Z</time>
      </trkpt>
      <trkpt lat="46.69707" lon="4.89656">
        <ele>237.80000305176</ele>
        <time>2019-09-13T09:10:17Z</time>
      </trkpt>
      <trkpt lat="46.69674" lon="4.8969">
        <ele>237.80000305176</ele>
        <time>2019-09-13T09:10:24Z</time>
      </trkpt>
      <trkpt lat="46.69649" lon="4.89737">
        <ele>237.60000610352</ele>
        <time>2019-09-13T09:10:31Z</time>
      </trkpt>
      <trkpt lat="46.69623" lon="4.89785">
        <ele>237.60000610352</ele>
        <time>2019-09-13T09:10:38Z</time>
      </trkpt>
      <trkpt lat="46.69599" lon="4.89828">
        <ele>237.60000610352</ele>
        <time>2019-09-13T09:10:44Z</time>
      </trkpt>
      <trkpt lat="46.69568" lon="4.89883">
        <ele>237.60000610352</ele>
        <time>2019-09-13T09:10:52Z</time>
      </trkpt>
      <trkpt lat="46.69532" lon="4.89943">
        <ele>237.60000610352</ele>
        <time>2019-09-13T09:11:01Z</time>
      </trkpt>
      <trkpt lat="46.69501" lon="4.89995">
        <ele>237.60000610352</ele>
        <time>2019-09-13T09:11:09Z</time>
      </trkpt>
      <trkpt lat="46.6947" lon="4.90048">
        <ele>237.80000305176</ele>
        <time>2019-09-13T09:11:17Z</time>
      </trkpt>
      <trkpt lat="46.69464" lon="4.90064">
        <ele>238</ele>
        <time>2019-09-13T09:11:19Z</time>
      </trkpt>
      <trkpt lat="46.6946" lon="4.90089">
        <ele>238</ele>
        <time>2019-09-13T09:11:22Z</time>
      </trkpt>
      <trkpt lat="46.69459" lon="4.90097">
        <ele>238</ele>
        <time>2019-09-13T09:11:23Z</time>
      </trkpt>
      <trkpt lat="46.69458" lon="4.90114">
        <ele>238</ele>
        <time>2019-09-13T09:11:25Z</time>
      </trkpt>
      <trkpt lat="46.6946" lon="4.90131">
        <ele>238</ele>
        <time>2019-09-13T09:11:27Z</time>
      </trkpt>
      <trkpt lat="46.69468" lon="4.90209">
        <ele>238</ele>
        <time>2019-09-13T09:11:36Z</time>
      </trkpt>
      <trkpt lat="46.69469" lon="4.90217">
        <ele>238.19999694824</ele>
        <time>2019-09-13T09:11:37Z</time>
      </trkpt>
      <trkpt lat="46.69477" lon="4.90301">
        <ele>238.39999389648</ele>
        <time>2019-09-13T09:11:47Z</time>
      </trkpt>
      <trkpt lat="46.69478" lon="4.90309">
        <ele>238.39999389648</ele>
        <time>2019-09-13T09:11:48Z</time>
      </trkpt>
      <trkpt lat="46.69493" lon="4.90364">
        <ele>238.39999389648</ele>
        <time>2019-09-13T09:11:55Z</time>
      </trkpt>
      <trkpt lat="46.69522" lon="4.90438">
        <ele>238.39999389648</ele>
        <time>2019-09-13T09:12:05Z</time>
      </trkpt>
      <trkpt lat="46.69558" lon="4.90504">
        <ele>238.39999389648</ele>
        <time>2019-09-13T09:12:15Z</time>
      </trkpt>
      <trkpt lat="46.69596" lon="4.90569">
        <ele>238.39999389648</ele>
        <time>2019-09-13T09:12:25Z</time>
      </trkpt>
      <trkpt lat="46.69599" lon="4.90576">
        <ele>238.39999389648</ele>
        <time>2019-09-13T09:12:26Z</time>
      </trkpt>
      <trkpt lat="46.69623" lon="4.90623">
        <ele>238.60000610352</ele>
        <time>2019-09-13T09:12:33Z</time>
      </trkpt>
      <trkpt lat="46.69639" lon="4.90676">
        <ele>238.39999389648</ele>
        <time>2019-09-13T09:12:40Z</time>
      </trkpt>
      <trkpt lat="46.69661" lon="4.90751">
        <ele>238.19999694824</ele>
        <time>2019-09-13T09:12:49Z</time>
      </trkpt>
      <trkpt lat="46.69674" lon="4.90799">
        <ele>238.19999694824</ele>
        <time>2019-09-13T09:12:55Z</time>
      </trkpt>
      <trkpt lat="46.69695" lon="4.90878">
        <ele>238.60000610352</ele>
        <time>2019-09-13T09:13:05Z</time>
      </trkpt>
      <trkpt lat="46.69719" lon="4.90951">
        <ele>239</ele>
        <time>2019-09-13T09:13:15Z</time>
      </trkpt>
      <trkpt lat="46.69745" lon="4.91024">
        <ele>239.60000610352</ele>
        <time>2019-09-13T09:13:25Z</time>
      </trkpt>
      <trkpt lat="46.69766" lon="4.91068">
        <ele>239.80000305176</ele>
        <time>2019-09-13T09:13:32Z</time>
      </trkpt>
      <trkpt lat="46.69778" lon="4.91082">
        <ele>240</ele>
        <time>2019-09-13T09:13:35Z</time>
      </trkpt>
      <trkpt lat="46.69796" lon="4.911">
        <ele>240</ele>
        <time>2019-09-13T09:13:39Z</time>
      </trkpt>
      <trkpt lat="46.69841" lon="4.91143">
        <ele>240</ele>
        <time>2019-09-13T09:13:49Z</time>
      </trkpt>
      <trkpt lat="46.69846" lon="4.91148">
        <ele>240</ele>
        <time>2019-09-13T09:13:50Z</time>
      </trkpt>
      <trkpt lat="46.69891" lon="4.91191">
        <ele>240</ele>
        <time>2019-09-13T09:14:00Z</time>
      </trkpt>
      <trkpt lat="46.69899" lon="4.912">
        <ele>240</ele>
        <time>2019-09-13T09:14:02Z</time>
      </trkpt>
      <trkpt lat="46.69945" lon="4.91244">
        <ele>239.80000305176</ele>
        <time>2019-09-13T09:14:12Z</time>
      </trkpt>
      <trkpt lat="46.69987" lon="4.91284">
        <ele>239.60000610352</ele>
        <time>2019-09-13T09:14:21Z</time>
      </trkpt>
      <trkpt lat="46.70005" lon="4.91303">
        <ele>239.39999389648</ele>
        <time>2019-09-13T09:14:25Z</time>
      </trkpt>
      <trkpt lat="46.70009" lon="4.91318">
        <ele>239.39999389648</ele>
        <time>2019-09-13T09:14:27Z</time>
      </trkpt>
      <trkpt lat="46.7001" lon="4.9137">
        <ele>239.19999694824</ele>
        <time>2019-09-13T09:14:33Z</time>
      </trkpt>
      <trkpt lat="46.7001" lon="4.91387">
        <ele>239.19999694824</ele>
        <time>2019-09-13T09:14:35Z</time>
      </trkpt>
      <trkpt lat="46.70007" lon="4.91438">
        <ele>239.19999694824</ele>
        <time>2019-09-13T09:14:41Z</time>
      </trkpt>
      <trkpt lat="46.69999" lon="4.91498">
        <ele>239.19999694824</ele>
        <time>2019-09-13T09:14:48Z</time>
      </trkpt>
      <trkpt lat="46.69983" lon="4.91573">
        <ele>239.19999694824</ele>
        <time>2019-09-13T09:14:57Z</time>
      </trkpt>
      <trkpt lat="46.69974" lon="4.91641">
        <ele>239</ele>
        <time>2019-09-13T09:15:05Z</time>
      </trkpt>
      <trkpt lat="46.69976" lon="4.9171">
        <ele>238.80000305176</ele>
        <time>2019-09-13T09:15:13Z</time>
      </trkpt>
      <trkpt lat="46.69985" lon="4.91786">
        <ele>238.80000305176</ele>
        <time>2019-09-13T09:15:22Z</time>
      </trkpt>
      <trkpt lat="46.69993" lon="4.91871">
        <ele>238.60000610352</ele>
        <time>2019-09-13T09:15:32Z</time>
      </trkpt>
      <trkpt lat="46.69993" lon="4.91879">
        <ele>238.60000610352</ele>
        <time>2019-09-13T09:15:33Z</time>
      </trkpt>
      <trkpt lat="46.69989" lon="4.91921">
        <ele>238.19999694824</ele>
        <time>2019-09-13T09:15:38Z</time>
      </trkpt>
      <trkpt lat="46.69984" lon="4.91952">
        <ele>238.19999694824</ele>
        <time>2019-09-13T09:15:42Z</time>
      </trkpt>
      <trkpt lat="46.6998" lon="4.91967">
        <ele>238.19999694824</ele>
        <time>2019-09-13T09:15:44Z</time>
      </trkpt>
      <trkpt lat="46.69965" lon="4.92019">
        <ele>238.19999694824</ele>
        <time>2019-09-13T09:15:51Z</time>
      </trkpt>
      <trkpt lat="46.6994" lon="4.92094">
        <ele>238.39999389648</ele>
        <time>2019-09-13T09:16:01Z</time>
      </trkpt>
      <trkpt lat="46.69919" lon="4.92172">
        <ele>238.80000305176</ele>
        <time>2019-09-13T09:16:11Z</time>
      </trkpt>
      <trkpt lat="46.69903" lon="4.92245">
        <ele>238.80000305176</ele>
        <time>2019-09-13T09:16:20Z</time>
      </trkpt>
      <trkpt lat="46.69886" lon="4.92325">
        <ele>239</ele>
        <time>2019-09-13T09:16:30Z</time>
      </trkpt>
      <trkpt lat="46.69885" lon="4.92333">
        <ele>239</ele>
        <time>2019-09-13T09:16:31Z</time>
      </trkpt>
      <trkpt lat="46.69878" lon="4.9239">
        <ele>239.19999694824</ele>
        <time>2019-09-13T09:16:38Z</time>
      </trkpt>
      <trkpt lat="46.6987" lon="4.92463">
        <ele>239.19999694824</ele>
        <time>2019-09-13T09:16:47Z</time>
      </trkpt>
      <trkpt lat="46.69861" lon="4.92519">
        <ele>239.19999694824</ele>
        <time>2019-09-13T09:16:54Z</time>
      </trkpt>
      <trkpt lat="46.69859" lon="4.92536">
        <ele>239</ele>
        <time>2019-09-13T09:16:56Z</time>
      </trkpt>
      <trkpt lat="46.69853" lon="4.92568">
        <ele>239</ele>
        <time>2019-09-13T09:17:00Z</time>
      </trkpt>
      <trkpt lat="46.69845" lon="4.92616">
        <ele>238.80000305176</ele>
        <time>2019-09-13T09:17:06Z</time>
      </trkpt>
      <trkpt lat="46.69845" lon="4.92633">
        <ele>238.80000305176</ele>
        <time>2019-09-13T09:17:08Z</time>
      </trkpt>
      <trkpt lat="46.69845" lon="4.92667">
        <ele>238.60000610352</ele>
        <time>2019-09-13T09:17:12Z</time>
      </trkpt>
      <trkpt lat="46.69847" lon="4.92698">
        <ele>238.39999389648</ele>
        <time>2019-09-13T09:17:16Z</time>
      </trkpt>
      <trkpt lat="46.69848" lon="4.92712">
        <ele>238.39999389648</ele>
        <time>2019-09-13T09:17:18Z</time>
      </trkpt>
      <trkpt lat="46.69846" lon="4.92725">
        <ele>238.60000610352</ele>
        <time>2019-09-13T09:17:20Z</time>
      </trkpt>
      <trkpt lat="46.69835" lon="4.92739">
        <ele>238.60000610352</ele>
        <time>2019-09-13T09:17:23Z</time>
      </trkpt>
      <trkpt lat="46.6983" lon="4.92744">
        <ele>238.60000610352</ele>
        <time>2019-09-13T09:17:24Z</time>
      </trkpt>
      <trkpt lat="46.69804" lon="4.92762">
        <ele>238.60000610352</ele>
        <time>2019-09-13T09:17:29Z</time>
      </trkpt>
      <trkpt lat="46.69751" lon="4.92795">
        <ele>238.60000610352</ele>
        <time>2019-09-13T09:17:39Z</time>
      </trkpt>
      <trkpt lat="46.69707" lon="4.92813">
        <ele>238.80000305176</ele>
        <time>2019-09-13T09:17:47Z</time>
      </trkpt>
      <trkpt lat="46.69673" lon="4.92819">
        <ele>239</ele>
        <time>2019-09-13T09:17:53Z</time>
      </trkpt>
      <trkpt lat="46.69657" lon="4.92822">
        <ele>239</ele>
        <time>2019-09-13T09:17:56Z</time>
      </trkpt>
      <trkpt lat="46.69646" lon="4.92827">
        <ele>239.19999694824</ele>
        <time>2019-09-13T09:17:58Z</time>
      </trkpt>
      <trkpt lat="46.69633" lon="4.9284">
        <ele>239.39999389648</ele>
        <time>2019-09-13T09:18:01Z</time>
      </trkpt>
      <trkpt lat="46.69625" lon="4.9285">
        <ele>239.39999389648</ele>
        <time>2019-09-13T09:18:03Z</time>
      </trkpt>
      <trkpt lat="46.6959" lon="4.92886">
        <ele>240</ele>
        <time>2019-09-13T09:18:11Z</time>
      </trkpt>
      <trkpt lat="46.69563" lon="4.92914">
        <ele>240.19999694824</ele>
        <time>2019-09-13T09:18:18Z</time>
      </trkpt>
      <trkpt lat="46.69541" lon="4.92936">
        <ele>240.19999694824</ele>
        <time>2019-09-13T09:18:26Z</time>
      </trkpt>
      <trkpt lat="46.6953" lon="4.92948">
        <ele>240.19999694824</ele>
        <time>2019-09-13T09:18:32Z</time>
      </trkpt>
      <trkpt lat="46.69516" lon="4.92961">
        <ele>240.19999694824</ele>
        <time>2019-09-13T09:18:37Z</time>
      </trkpt>
      <trkpt lat="46.69508" lon="4.9297">
        <ele>240.19999694824</ele>
        <time>2019-09-13T09:18:39Z</time>
      </trkpt>
      <trkpt lat="46.69496" lon="4.92986">
        <ele>240.19999694824</ele>
        <time>2019-09-13T09:18:42Z</time>
      </trkpt>
      <trkpt lat="46.69463" lon="4.93026">
        <ele>240</ele>
        <time>2019-09-13T09:18:49Z</time>
      </trkpt>
      <trkpt lat="46.69435" lon="4.93062">
        <ele>239.80000305176</ele>
        <time>2019-09-13T09:18:55Z</time>
      </trkpt>
      <trkpt lat="46.69407" lon="4.93097">
        <ele>239.60000610352</ele>
        <time>2019-09-13T09:19:01Z</time>
      </trkpt>
      <trkpt lat="46.69363" lon="4.93149">
        <ele>239.19999694824</ele>
        <time>2019-09-13T09:19:10Z</time>
      </trkpt>
      <trkpt lat="46.69358" lon="4.93155">
        <ele>239.19999694824</ele>
        <time>2019-09-13T09:19:11Z</time>
      </trkpt>
      <trkpt lat="46.69315" lon="4.93205">
        <ele>239.19999694824</ele>
        <time>2019-09-13T09:19:20Z</time>
      </trkpt>
      <trkpt lat="46.69269" lon="4.93247">
        <ele>239.19999694824</ele>
        <time>2019-09-13T09:19:29Z</time>
      </trkpt>
      <trkpt lat="46.69223" lon="4.93284">
        <ele>239.60000610352</ele>
        <time>2019-09-13T09:19:38Z</time>
      </trkpt>
      <trkpt lat="46.69175" lon="4.93322">
        <ele>239.80000305176</ele>
        <time>2019-09-13T09:19:47Z</time>
      </trkpt>
      <trkpt lat="46.6917" lon="4.93326">
        <ele>239.80000305176</ele>
        <time>2019-09-13T09:19:48Z</time>
      </trkpt>
      <trkpt lat="46.69132" lon="4.93356">
        <ele>239.80000305176</ele>
        <time>2019-09-13T09:19:55Z</time>
      </trkpt>
      <trkpt lat="46.69121" lon="4.93362">
        <ele>239.80000305176</ele>
        <time>2019-09-13T09:19:57Z</time>
      </trkpt>
      <trkpt lat="46.6907" lon="4.93391">
        <ele>239.80000305176</ele>
        <time>2019-09-13T09:20:06Z</time>
      </trkpt>
      <trkpt lat="46.69033" lon="4.93411">
        <ele>240.19999694824</ele>
        <time>2019-09-13T09:20:13Z</time>
      </trkpt>
      <trkpt lat="46.69016" lon="4.93419">
        <ele>240.39999389648</ele>
        <time>2019-09-13T09:20:16Z</time>
      </trkpt>
      <trkpt lat="46.68988" lon="4.9343">
        <ele>240.80000305176</ele>
        <time>2019-09-13T09:20:21Z</time>
      </trkpt>
      <trkpt lat="46.68943" lon="4.93448">
        <ele>241.19999694824</ele>
        <time>2019-09-13T09:20:29Z</time>
      </trkpt>
      <trkpt lat="46.68901" lon="4.93461">
        <ele>241.19999694824</ele>
        <time>2019-09-13T09:20:36Z</time>
      </trkpt>
      <trkpt lat="46.68844" lon="4.93477">
        <ele>240.80000305176</ele>
        <time>2019-09-13T09:20:45Z</time>
      </trkpt>
      <trkpt lat="46.68838" lon="4.9348">
        <ele>240.80000305176</ele>
        <time>2019-09-13T09:20:46Z</time>
      </trkpt>
      <trkpt lat="46.68793" lon="4.93493">
        <ele>240.19999694824</ele>
        <time>2019-09-13T09:20:53Z</time>
      </trkpt>
      <trkpt lat="46.68736" lon="4.93522">
        <ele>240</ele>
        <time>2019-09-13T09:21:02Z</time>
      </trkpt>
      <trkpt lat="46.68687" lon="4.93556">
        <ele>239.60000610352</ele>
        <time>2019-09-13T09:21:10Z</time>
      </trkpt>
      <trkpt lat="46.68674" lon="4.93564">
        <ele>239.39999389648</ele>
        <time>2019-09-13T09:21:12Z</time>
      </trkpt>
      <trkpt lat="46.68623" lon="4.93591">
        <ele>239</ele>
        <time>2019-09-13T09:21:20Z</time>
      </trkpt>
      <trkpt lat="46.68609" lon="4.93596">
        <ele>238.80000305176</ele>
        <time>2019-09-13T09:21:22Z</time>
      </trkpt>
      <trkpt lat="46.68589" lon="4.93604">
        <ele>238.60000610352</ele>
        <time>2019-09-13T09:21:25Z</time>
      </trkpt>
      <trkpt lat="46.68544" lon="4.9362">
        <ele>238.39999389648</ele>
        <time>2019-09-13T09:21:32Z</time>
      </trkpt>
      <trkpt lat="46.68492" lon="4.93638">
        <ele>238.39999389648</ele>
        <time>2019-09-13T09:21:41Z</time>
      </trkpt>
      <trkpt lat="46.68454" lon="4.93653">
        <ele>239</ele>
        <time>2019-09-13T09:21:48Z</time>
      </trkpt>
      <trkpt lat="46.68443" lon="4.93657">
        <ele>239.19999694824</ele>
        <time>2019-09-13T09:21:50Z</time>
      </trkpt>
      <trkpt lat="46.68422" lon="4.93667">
        <ele>239.39999389648</ele>
        <time>2019-09-13T09:21:54Z</time>
      </trkpt>
      <trkpt lat="46.68405" lon="4.93673">
        <ele>239.60000610352</ele>
        <time>2019-09-13T09:21:57Z</time>
      </trkpt>
      <trkpt lat="46.68377" lon="4.93686">
        <ele>240.39999389648</ele>
        <time>2019-09-13T09:22:02Z</time>
      </trkpt>
      <trkpt lat="46.68344" lon="4.93707">
        <ele>240.60000610352</ele>
        <time>2019-09-13T09:22:08Z</time>
      </trkpt>
      <trkpt lat="46.68334" lon="4.93715">
        <ele>240.60000610352</ele>
        <time>2019-09-13T09:22:10Z</time>
      </trkpt>
      <trkpt lat="46.68292" lon="4.93751">
        <ele>240.80000305176</ele>
        <time>2019-09-13T09:22:18Z</time>
      </trkpt>
      <trkpt lat="46.68255" lon="4.93784">
        <ele>241</ele>
        <time>2019-09-13T09:22:25Z</time>
      </trkpt>
      <trkpt lat="46.68205" lon="4.93824">
        <ele>241</ele>
        <time>2019-09-13T09:22:34Z</time>
      </trkpt>
      <trkpt lat="46.68161" lon="4.93858">
        <ele>240.80000305176</ele>
        <time>2019-09-13T09:22:42Z</time>
      </trkpt>
      <trkpt lat="46.68118" lon="4.93891">
        <ele>240.80000305176</ele>
        <time>2019-09-13T09:22:50Z</time>
      </trkpt>
      <trkpt lat="46.68067" lon="4.93922">
        <ele>240.60000610352</ele>
        <time>2019-09-13T09:22:59Z</time>
      </trkpt>
      <trkpt lat="46.68024" lon="4.93932">
        <ele>240.39999389648</ele>
        <time>2019-09-13T09:23:06Z</time>
      </trkpt>
      <trkpt lat="46.67975" lon="4.93939">
        <ele>240</ele>
        <time>2019-09-13T09:23:14Z</time>
      </trkpt>
      <trkpt lat="46.67926" lon="4.93938">
        <ele>240</ele>
        <time>2019-09-13T09:23:22Z</time>
      </trkpt>
      <trkpt lat="46.67877" lon="4.93937">
        <ele>240</ele>
        <time>2019-09-13T09:23:30Z</time>
      </trkpt>
      <trkpt lat="46.67822" lon="4.93944">
        <ele>240</ele>
        <time>2019-09-13T09:23:39Z</time>
      </trkpt>
      <trkpt lat="46.67816" lon="4.93945">
        <ele>239.80000305176</ele>
        <time>2019-09-13T09:23:40Z</time>
      </trkpt>
      <trkpt lat="46.67774" lon="4.93955">
        <ele>239.80000305176</ele>
        <time>2019-09-13T09:23:47Z</time>
      </trkpt>
      <trkpt lat="46.67714" lon="4.93969">
        <ele>240</ele>
        <time>2019-09-13T09:23:57Z</time>
      </trkpt>
      <trkpt lat="46.67672" lon="4.93979">
        <ele>240.19999694824</ele>
        <time>2019-09-13T09:24:04Z</time>
      </trkpt>
      <trkpt lat="46.67616" lon="4.93991">
        <ele>240.60000610352</ele>
        <time>2019-09-13T09:24:13Z</time>
      </trkpt>
      <trkpt lat="46.6756" lon="4.93996">
        <ele>240</ele>
        <time>2019-09-13T09:24:22Z</time>
      </trkpt>
      <trkpt lat="46.67554" lon="4.93997">
        <ele>240</ele>
        <time>2019-09-13T09:24:23Z</time>
      </trkpt>
      <trkpt lat="46.67512" lon="4.94001">
        <ele>240</ele>
        <time>2019-09-13T09:24:30Z</time>
      </trkpt>
      <trkpt lat="46.67465" lon="4.94012">
        <ele>240</ele>
        <time>2019-09-13T09:24:38Z</time>
      </trkpt>
      <trkpt lat="46.67434" lon="4.94026">
        <ele>239.80000305176</ele>
        <time>2019-09-13T09:24:44Z</time>
      </trkpt>
      <trkpt lat="46.67387" lon="4.94044">
        <ele>239.60000610352</ele>
        <time>2019-09-13T09:24:52Z</time>
      </trkpt>
      <trkpt lat="46.67334" lon="4.9406">
        <ele>239.39999389648</ele>
        <time>2019-09-13T09:25:01Z</time>
      </trkpt>
      <trkpt lat="46.67284" lon="4.94077">
        <ele>239.39999389648</ele>
        <time>2019-09-13T09:25:10Z</time>
      </trkpt>
      <trkpt lat="46.67235" lon="4.94093">
        <ele>239.60000610352</ele>
        <time>2019-09-13T09:25:19Z</time>
      </trkpt>
      <trkpt lat="46.67189" lon="4.94112">
        <ele>240</ele>
        <time>2019-09-13T09:25:28Z</time>
      </trkpt>
      <trkpt lat="46.67149" lon="4.94127">
        <ele>240.19999694824</ele>
        <time>2019-09-13T09:25:35Z</time>
      </trkpt>
      <trkpt lat="46.67099" lon="4.94144">
        <ele>240</ele>
        <time>2019-09-13T09:25:43Z</time>
      </trkpt>
      <trkpt lat="46.67061" lon="4.94154">
        <ele>239</ele>
        <time>2019-09-13T09:25:49Z</time>
      </trkpt>
      <trkpt lat="46.67049" lon="4.94157">
        <ele>238.60000610352</ele>
        <time>2019-09-13T09:25:51Z</time>
      </trkpt>
      <trkpt lat="46.67017" lon="4.94164">
        <ele>238.19999694824</ele>
        <time>2019-09-13T09:25:56Z</time>
      </trkpt>
      <trkpt lat="46.66966" lon="4.94172">
        <ele>238.19999694824</ele>
        <time>2019-09-13T09:26:04Z</time>
      </trkpt>
      <trkpt lat="46.6691" lon="4.94182">
        <ele>238</ele>
        <time>2019-09-13T09:26:13Z</time>
      </trkpt>
      <trkpt lat="46.66867" lon="4.94188">
        <ele>238.19999694824</ele>
        <time>2019-09-13T09:26:20Z</time>
      </trkpt>
      <trkpt lat="46.66838" lon="4.94194">
        <ele>238.19999694824</ele>
        <time>2019-09-13T09:26:25Z</time>
      </trkpt>
      <trkpt lat="46.66826" lon="4.94198">
        <ele>238.39999389648</ele>
        <time>2019-09-13T09:26:27Z</time>
      </trkpt>
      <trkpt lat="46.66779" lon="4.94215">
        <ele>238.80000305176</ele>
        <time>2019-09-13T09:26:35Z</time>
      </trkpt>
      <trkpt lat="46.66739" lon="4.9423">
        <ele>239</ele>
        <time>2019-09-13T09:26:42Z</time>
      </trkpt>
      <trkpt lat="46.66693" lon="4.94244">
        <ele>239.60000610352</ele>
        <time>2019-09-13T09:26:50Z</time>
      </trkpt>
      <trkpt lat="46.66681" lon="4.94247">
        <ele>239.80000305176</ele>
        <time>2019-09-13T09:26:52Z</time>
      </trkpt>
      <trkpt lat="46.66638" lon="4.94253">
        <ele>239.80000305176</ele>
        <time>2019-09-13T09:26:59Z</time>
      </trkpt>
      <trkpt lat="46.66586" lon="4.94258">
        <ele>239.80000305176</ele>
        <time>2019-09-13T09:27:08Z</time>
      </trkpt>
      <trkpt lat="46.66539" lon="4.94259">
        <ele>239.60000610352</ele>
        <time>2019-09-13T09:27:16Z</time>
      </trkpt>
      <trkpt lat="46.66485" lon="4.94261">
        <ele>239.39999389648</ele>
        <time>2019-09-13T09:27:25Z</time>
      </trkpt>
      <trkpt lat="46.66473" lon="4.9426">
        <ele>239.39999389648</ele>
        <time>2019-09-13T09:27:27Z</time>
      </trkpt>
      <trkpt lat="46.66419" lon="4.94261">
        <ele>239.39999389648</ele>
        <time>2019-09-13T09:27:36Z</time>
      </trkpt>
      <trkpt lat="46.66377" lon="4.94259">
        <ele>239.19999694824</ele>
        <time>2019-09-13T09:27:43Z</time>
      </trkpt>
      <trkpt lat="46.66343" lon="4.94257">
        <ele>239.19999694824</ele>
        <time>2019-09-13T09:27:49Z</time>
      </trkpt>
      <trkpt lat="46.66327" lon="4.94255">
        <ele>239</ele>
        <time>2019-09-13T09:27:52Z</time>
      </trkpt>
      <trkpt lat="46.66311" lon="4.94257">
        <ele>239</ele>
        <time>2019-09-13T09:27:55Z</time>
      </trkpt>
      <trkpt lat="46.66288" lon="4.94257">
        <ele>238.80000305176</ele>
        <time>2019-09-13T09:27:59Z</time>
      </trkpt>
      <trkpt lat="46.66271" lon="4.94257">
        <ele>238.60000610352</ele>
        <time>2019-09-13T09:28:02Z</time>
      </trkpt>
      <trkpt lat="46.66255" lon="4.94255">
        <ele>238.39999389648</ele>
        <time>2019-09-13T09:28:05Z</time>
      </trkpt>
      <trkpt lat="46.66247" lon="4.94248">
        <ele>238.19999694824</ele>
        <time>2019-09-13T09:28:07Z</time>
      </trkpt>
      <trkpt lat="46.66241" lon="4.94236">
        <ele>238.19999694824</ele>
        <time>2019-09-13T09:28:09Z</time>
      </trkpt>
      <trkpt lat="46.66232" lon="4.94214">
        <ele>238.19999694824</ele>
        <time>2019-09-13T09:28:12Z</time>
      </trkpt>
      <trkpt lat="46.66217" lon="4.94189">
        <ele>238.19999694824</ele>
        <time>2019-09-13T09:28:16Z</time>
      </trkpt>
      <trkpt lat="46.66208" lon="4.94179">
        <ele>238.19999694824</ele>
        <time>2019-09-13T09:28:18Z</time>
      </trkpt>
      <trkpt lat="46.66186" lon="4.94159">
        <ele>238.19999694824</ele>
        <time>2019-09-13T09:28:23Z</time>
      </trkpt>
      <trkpt lat="46.66182" lon="4.94154">
        <ele>238.19999694824</ele>
        <time>2019-09-13T09:28:24Z</time>
      </trkpt>
      <trkpt lat="46.66178" lon="4.94149">
        <ele>238.19999694824</ele>
        <time>2019-09-13T09:28:25Z</time>
      </trkpt>
      <trkpt lat="46.6617" lon="4.94149">
        <ele>238.19999694824</ele>
        <time>2019-09-13T09:28:27Z</time>
      </trkpt>
      <trkpt lat="46.66163" lon="4.94163">
        <ele>238.39999389648</ele>
        <time>2019-09-13T09:28:30Z</time>
      </trkpt>
      <trkpt lat="46.66161" lon="4.94169">
        <ele>238.39999389648</ele>
        <time>2019-09-13T09:28:31Z</time>
      </trkpt>
      <trkpt lat="46.66159" lon="4.94174">
        <ele>238.39999389648</ele>
        <time>2019-09-13T09:28:32Z</time>
      </trkpt>
      <trkpt lat="46.66151" lon="4.94181">
        <ele>238.39999389648</ele>
        <time>2019-09-13T09:28:34Z</time>
      </trkpt>
      <trkpt lat="46.66136" lon="4.94185">
        <ele>238.39999389648</ele>
        <time>2019-09-13T09:28:37Z</time>
      </trkpt>
      <trkpt lat="46.66126" lon="4.94186">
        <ele>238.39999389648</ele>
        <time>2019-09-13T09:28:39Z</time>
      </trkpt>
      <trkpt lat="46.66094" lon="4.94188">
        <ele>238.80000305176</ele>
        <time>2019-09-13T09:28:45Z</time>
      </trkpt>
      <trkpt lat="46.66083" lon="4.94188">
        <ele>239.19999694824</ele>
        <time>2019-09-13T09:28:47Z</time>
      </trkpt>
      <trkpt lat="46.66072" lon="4.94189">
        <ele>239.39999389648</ele>
        <time>2019-09-13T09:28:49Z</time>
      </trkpt>
      <trkpt lat="46.66061" lon="4.9419">
        <ele>239.80000305176</ele>
        <time>2019-09-13T09:28:51Z</time>
      </trkpt>
      <trkpt lat="46.66051" lon="4.94191">
        <ele>240.19999694824</ele>
        <time>2019-09-13T09:28:53Z</time>
      </trkpt>
      <trkpt lat="46.6602" lon="4.9419">
        <ele>240.80000305176</ele>
        <time>2019-09-13T09:28:59Z</time>
      </trkpt>
      <trkpt lat="46.66009" lon="4.9419">
        <ele>241.19999694824</ele>
        <time>2019-09-13T09:29:01Z</time>
      </trkpt>
      <trkpt lat="46.65964" lon="4.94187">
        <ele>241.60000610352</ele>
        <time>2019-09-13T09:29:09Z</time>
      </trkpt>
      <trkpt lat="46.65925" lon="4.94182">
        <ele>241.80000305176</ele>
        <time>2019-09-13T09:29:16Z</time>
      </trkpt>
      <trkpt lat="46.65876" lon="4.94173">
        <ele>242.39999389648</ele>
        <time>2019-09-13T09:29:25Z</time>
      </trkpt>
      <trkpt lat="46.65819" lon="4.9417">
        <ele>242.39999389648</ele>
        <time>2019-09-13T09:29:35Z</time>
      </trkpt>
      <trkpt lat="46.65773" lon="4.9417">
        <ele>242.39999389648</ele>
        <time>2019-09-13T09:29:43Z</time>
      </trkpt>
      <trkpt lat="46.6572" lon="4.9417">
        <ele>242.19999694824</ele>
        <time>2019-09-13T09:29:52Z</time>
      </trkpt>
      <trkpt lat="46.65689" lon="4.9417">
        <ele>242.19999694824</ele>
        <time>2019-09-13T09:29:58Z</time>
      </trkpt>
      <trkpt lat="46.65651" lon="4.94169">
        <ele>242.39999389648</ele>
        <time>2019-09-13T09:30:05Z</time>
      </trkpt>
      <trkpt lat="46.65618" lon="4.9417">
        <ele>242.60000610352</ele>
        <time>2019-09-13T09:30:11Z</time>
      </trkpt>
      <trkpt lat="46.65578" lon="4.94169">
        <ele>242.80000305176</ele>
        <time>2019-09-13T09:30:18Z</time>
      </trkpt>
      <trkpt lat="46.65531" lon="4.94161">
        <ele>242.60000610352</ele>
        <time>2019-09-13T09:30:26Z</time>
      </trkpt>
      <trkpt lat="46.65508" lon="4.94157">
        <ele>242.80000305176</ele>
        <time>2019-09-13T09:30:30Z</time>
      </trkpt>
      <trkpt lat="46.65484" lon="4.94157">
        <ele>242.80000305176</ele>
        <time>2019-09-13T09:30:34Z</time>
      </trkpt>
      <trkpt lat="46.65436" lon="4.9416">
        <ele>242.60000610352</ele>
        <time>2019-09-13T09:30:42Z</time>
      </trkpt>
      <trkpt lat="46.65397" lon="4.94165">
        <ele>242.60000610352</ele>
        <time>2019-09-13T09:30:49Z</time>
      </trkpt>
      <trkpt lat="46.65363" lon="4.94175">
        <ele>242.19999694824</ele>
        <time>2019-09-13T09:30:56Z</time>
      </trkpt>
      <trkpt lat="46.65352" lon="4.94176">
        <ele>242</ele>
        <time>2019-09-13T09:31:01Z</time>
      </trkpt>
      <trkpt lat="46.65352" lon="4.94176">
        <ele>242</ele>
        <time>2019-09-13T09:31:02Z</time>
      </trkpt>
      <trkpt lat="46.65348" lon="4.94175">
        <ele>241.80000305176</ele>
        <time>2019-09-13T09:31:06Z</time>
      </trkpt>
      <trkpt lat="46.65341" lon="4.94174">
        <ele>241.80000305176</ele>
        <time>2019-09-13T09:31:09Z</time>
      </trkpt>
      <trkpt lat="46.65319" lon="4.94171">
        <ele>241.80000305176</ele>
        <time>2019-09-13T09:31:14Z</time>
      </trkpt>
      <trkpt lat="46.65284" lon="4.94165">
        <ele>241.80000305176</ele>
        <time>2019-09-13T09:31:21Z</time>
      </trkpt>
      <trkpt lat="46.65243" lon="4.94159">
        <ele>242.80000305176</ele>
        <time>2019-09-13T09:31:29Z</time>
      </trkpt>
      <trkpt lat="46.65233" lon="4.94157">
        <ele>243.19999694824</ele>
        <time>2019-09-13T09:31:31Z</time>
      </trkpt>
      <trkpt lat="46.65201" lon="4.94152">
        <ele>243.60000610352</ele>
        <time>2019-09-13T09:31:37Z</time>
      </trkpt>
      <trkpt lat="46.65168" lon="4.94147">
        <ele>244</ele>
        <time>2019-09-13T09:31:43Z</time>
      </trkpt>
      <trkpt lat="46.65162" lon="4.94145">
        <ele>244.19999694824</ele>
        <time>2019-09-13T09:31:44Z</time>
      </trkpt>
      <trkpt lat="46.65115" lon="4.94131">
        <ele>244.39999389648</ele>
        <time>2019-09-13T09:31:52Z</time>
      </trkpt>
      <trkpt lat="46.65067" lon="4.94114">
        <ele>243.80000305176</ele>
        <time>2019-09-13T09:32:00Z</time>
      </trkpt>
      <trkpt lat="46.65025" lon="4.94095">
        <ele>243</ele>
        <time>2019-09-13T09:32:07Z</time>
      </trkpt>
      <trkpt lat="46.65019" lon="4.94092">
        <ele>242.80000305176</ele>
        <time>2019-09-13T09:32:08Z</time>
      </trkpt>
      <trkpt lat="46.64985" lon="4.94066">
        <ele>241.80000305176</ele>
        <time>2019-09-13T09:32:14Z</time>
      </trkpt>
      <trkpt lat="46.64979" lon="4.94061">
        <ele>241.60000610352</ele>
        <time>2019-09-13T09:32:15Z</time>
      </trkpt>
      <trkpt lat="46.64939" lon="4.94023">
        <ele>241</ele>
        <time>2019-09-13T09:32:23Z</time>
      </trkpt>
      <trkpt lat="46.64894" lon="4.93988">
        <ele>241</ele>
        <time>2019-09-13T09:32:32Z</time>
      </trkpt>
      <trkpt lat="46.64848" lon="4.93959">
        <ele>241.39999389648</ele>
        <time>2019-09-13T09:32:41Z</time>
      </trkpt>
      <trkpt lat="46.64795" lon="4.93926">
        <ele>242</ele>
        <time>2019-09-13T09:32:51Z</time>
      </trkpt>
      <trkpt lat="46.6479" lon="4.93922">
        <ele>242</ele>
        <time>2019-09-13T09:32:52Z</time>
      </trkpt>
      <trkpt lat="46.64763" lon="4.93893">
        <ele>242.60000610352</ele>
        <time>2019-09-13T09:32:58Z</time>
      </trkpt>
      <trkpt lat="46.6475" lon="4.93877">
        <ele>242.80000305176</ele>
        <time>2019-09-13T09:33:01Z</time>
      </trkpt>
      <trkpt lat="46.64723" lon="4.93848">
        <ele>243</ele>
        <time>2019-09-13T09:33:07Z</time>
      </trkpt>
      <trkpt lat="46.64681" lon="4.93808">
        <ele>243.80000305176</ele>
        <time>2019-09-13T09:33:16Z</time>
      </trkpt>
      <trkpt lat="46.64671" lon="4.938">
        <ele>244</ele>
        <time>2019-09-13T09:33:18Z</time>
      </trkpt>
      <trkpt lat="46.64661" lon="4.93792">
        <ele>244</ele>
        <time>2019-09-13T09:33:20Z</time>
      </trkpt>
      <trkpt lat="46.64651" lon="4.93788">
        <ele>244.19999694824</ele>
        <time>2019-09-13T09:33:22Z</time>
      </trkpt>
      <trkpt lat="46.64633" lon="4.93789">
        <ele>244.19999694824</ele>
        <time>2019-09-13T09:33:25Z</time>
      </trkpt>
      <trkpt lat="46.64621" lon="4.93791">
        <ele>244.19999694824</ele>
        <time>2019-09-13T09:33:27Z</time>
      </trkpt>
      <trkpt lat="46.64579" lon="4.93799">
        <ele>244</ele>
        <time>2019-09-13T09:33:34Z</time>
      </trkpt>
      <trkpt lat="46.64545" lon="4.93808">
        <ele>242.80000305176</ele>
        <time>2019-09-13T09:33:39Z</time>
      </trkpt>
      <trkpt lat="46.64531" lon="4.93812">
        <ele>242.60000610352</ele>
        <time>2019-09-13T09:33:41Z</time>
      </trkpt>
      <trkpt lat="46.64509" lon="4.9382">
        <ele>241.60000610352</ele>
        <time>2019-09-13T09:33:44Z</time>
      </trkpt>
      <trkpt lat="46.64501" lon="4.93821">
        <ele>241.19999694824</ele>
        <time>2019-09-13T09:33:45Z</time>
      </trkpt>
      <trkpt lat="46.64493" lon="4.93821">
        <ele>241</ele>
        <time>2019-09-13T09:33:46Z</time>
      </trkpt>
      <trkpt lat="46.64479" lon="4.93813">
        <ele>240.39999389648</ele>
        <time>2019-09-13T09:33:48Z</time>
      </trkpt>
      <trkpt lat="46.64473" lon="4.93807">
        <ele>240.19999694824</ele>
        <time>2019-09-13T09:33:49Z</time>
      </trkpt>
      <trkpt lat="46.64461" lon="4.93783">
        <ele>239.39999389648</ele>
        <time>2019-09-13T09:33:52Z</time>
      </trkpt>
      <trkpt lat="46.64458" lon="4.93776">
        <ele>239.19999694824</ele>
        <time>2019-09-13T09:33:53Z</time>
      </trkpt>
      <trkpt lat="46.64431" lon="4.93718">
        <ele>238.60000610352</ele>
        <time>2019-09-13T09:34:01Z</time>
      </trkpt>
      <trkpt lat="46.64398" lon="4.93654">
        <ele>238.60000610352</ele>
        <time>2019-09-13T09:34:10Z</time>
      </trkpt>
      <trkpt lat="46.64367" lon="4.93617">
        <ele>238.80000305176</ele>
        <time>2019-09-13T09:34:17Z</time>
      </trkpt>
      <trkpt lat="46.64357" lon="4.93609">
        <ele>238.80000305176</ele>
        <time>2019-09-13T09:34:19Z</time>
      </trkpt>
      <trkpt lat="46.64342" lon="4.93603">
        <ele>238.80000305176</ele>
        <time>2019-09-13T09:34:22Z</time>
      </trkpt>
      <trkpt lat="46.64331" lon="4.93602">
        <ele>238.80000305176</ele>
        <time>2019-09-13T09:34:24Z</time>
      </trkpt>
      <trkpt lat="46.64303" lon="4.936">
        <ele>239</ele>
        <time>2019-09-13T09:34:29Z</time>
      </trkpt>
      <trkpt lat="46.6428" lon="4.93598">
        <ele>239.60000610352</ele>
        <time>2019-09-13T09:34:33Z</time>
      </trkpt>
      <trkpt lat="46.64275" lon="4.93595">
        <ele>239.60000610352</ele>
        <time>2019-09-13T09:34:34Z</time>
      </trkpt>
      <trkpt lat="46.64265" lon="4.93576">
        <ele>239.80000305176</ele>
        <time>2019-09-13T09:34:37Z</time>
      </trkpt>
      <trkpt lat="46.64261" lon="4.93553">
        <ele>240</ele>
        <time>2019-09-13T09:34:40Z</time>
      </trkpt>
      <trkpt lat="46.64259" lon="4.93538">
        <ele>240.19999694824</ele>
        <time>2019-09-13T09:34:42Z</time>
      </trkpt>
      <trkpt lat="46.64255" lon="4.9351">
        <ele>240.39999389648</ele>
        <time>2019-09-13T09:34:46Z</time>
      </trkpt>
      <trkpt lat="46.64251" lon="4.93488">
        <ele>241</ele>
        <time>2019-09-13T09:34:49Z</time>
      </trkpt>
      <trkpt lat="46.64249" lon="4.93481">
        <ele>241</ele>
        <time>2019-09-13T09:34:50Z</time>
      </trkpt>
      <trkpt lat="46.64233" lon="4.93463">
        <ele>241.19999694824</ele>
        <time>2019-09-13T09:34:54Z</time>
      </trkpt>
      <trkpt lat="46.64219" lon="4.9346">
        <ele>241.39999389648</ele>
        <time>2019-09-13T09:34:57Z</time>
      </trkpt>
      <trkpt lat="46.64206" lon="4.93458">
        <ele>241.39999389648</ele>
        <time>2019-09-13T09:35:00Z</time>
      </trkpt>
      <trkpt lat="46.64192" lon="4.93456">
        <ele>241.60000610352</ele>
        <time>2019-09-13T09:35:03Z</time>
      </trkpt>
      <trkpt lat="46.64164" lon="4.93453">
        <ele>242.60000610352</ele>
        <time>2019-09-13T09:35:09Z</time>
      </trkpt>
      <trkpt lat="46.64159" lon="4.93452">
        <ele>242.80000305176</ele>
        <time>2019-09-13T09:35:10Z</time>
      </trkpt>
      <trkpt lat="46.64139" lon="4.93446">
        <ele>243</ele>
        <time>2019-09-13T09:35:14Z</time>
      </trkpt>
      <trkpt lat="46.6413" lon="4.93441">
        <ele>243</ele>
        <time>2019-09-13T09:35:16Z</time>
      </trkpt>
      <trkpt lat="46.64099" lon="4.93412">
        <ele>243.39999389648</ele>
        <time>2019-09-13T09:35:23Z</time>
      </trkpt>
      <trkpt lat="46.64072" lon="4.93388">
        <ele>243.80000305176</ele>
        <time>2019-09-13T09:35:29Z</time>
      </trkpt>
      <trkpt lat="46.64062" lon="4.93381">
        <ele>244</ele>
        <time>2019-09-13T09:35:31Z</time>
      </trkpt>
      <trkpt lat="46.64022" lon="4.93353">
        <ele>244.39999389648</ele>
        <time>2019-09-13T09:35:39Z</time>
      </trkpt>
      <trkpt lat="46.63969" lon="4.93318">
        <ele>244.60000610352</ele>
        <time>2019-09-13T09:35:49Z</time>
      </trkpt>
      <trkpt lat="46.63918" lon="4.93288">
        <ele>244.80000305176</ele>
        <time>2019-09-13T09:35:58Z</time>
      </trkpt>
      <trkpt lat="46.63873" lon="4.93263">
        <ele>245</ele>
        <time>2019-09-13T09:36:06Z</time>
      </trkpt>
      <trkpt lat="46.63856" lon="4.93253">
        <ele>245</ele>
        <time>2019-09-13T09:36:09Z</time>
      </trkpt>
      <trkpt lat="46.63839" lon="4.93242">
        <ele>245</ele>
        <time>2019-09-13T09:36:12Z</time>
      </trkpt>
      <trkpt lat="46.63794" lon="4.93213">
        <ele>245</ele>
        <time>2019-09-13T09:36:20Z</time>
      </trkpt>
      <trkpt lat="46.63745" lon="4.93181">
        <ele>244.80000305176</ele>
        <time>2019-09-13T09:36:29Z</time>
      </trkpt>
      <trkpt lat="46.6374" lon="4.93177">
        <ele>244.80000305176</ele>
        <time>2019-09-13T09:36:30Z</time>
      </trkpt>
      <trkpt lat="46.63696" lon="4.93152">
        <ele>245</ele>
        <time>2019-09-13T09:36:38Z</time>
      </trkpt>
      <trkpt lat="46.63652" lon="4.93126">
        <ele>245.19999694824</ele>
        <time>2019-09-13T09:36:46Z</time>
      </trkpt>
      <trkpt lat="46.63604" lon="4.93099">
        <ele>245.39999389648</ele>
        <time>2019-09-13T09:36:55Z</time>
      </trkpt>
      <trkpt lat="46.63565" lon="4.93071">
        <ele>245.19999694824</ele>
        <time>2019-09-13T09:37:03Z</time>
      </trkpt>
      <trkpt lat="46.63534" lon="4.93043">
        <ele>245</ele>
        <time>2019-09-13T09:37:09Z</time>
      </trkpt>
      <trkpt lat="46.63494" lon="4.93004">
        <ele>244.60000610352</ele>
        <time>2019-09-13T09:37:17Z</time>
      </trkpt>
      <trkpt lat="46.63458" lon="4.92972">
        <ele>244.60000610352</ele>
        <time>2019-09-13T09:37:24Z</time>
      </trkpt>
      <trkpt lat="46.63415" lon="4.92939">
        <ele>244.39999389648</ele>
        <time>2019-09-13T09:37:32Z</time>
      </trkpt>
      <trkpt lat="46.63366" lon="4.929">
        <ele>244.60000610352</ele>
        <time>2019-09-13T09:37:41Z</time>
      </trkpt>
      <trkpt lat="46.63324" lon="4.92879">
        <ele>244.60000610352</ele>
        <time>2019-09-13T09:37:48Z</time>
      </trkpt>
      <trkpt lat="46.63275" lon="4.92866">
        <ele>244.39999389648</ele>
        <time>2019-09-13T09:37:56Z</time>
      </trkpt>
      <trkpt lat="46.63257" lon="4.92862">
        <ele>244.39999389648</ele>
        <time>2019-09-13T09:37:59Z</time>
      </trkpt>
      <trkpt lat="46.63238" lon="4.92856">
        <ele>244.39999389648</ele>
        <time>2019-09-13T09:38:02Z</time>
      </trkpt>
      <trkpt lat="46.63185" lon="4.92841">
        <ele>244.39999389648</ele>
        <time>2019-09-13T09:38:10Z</time>
      </trkpt>
      <trkpt lat="46.63164" lon="4.92838">
        <ele>244.39999389648</ele>
        <time>2019-09-13T09:38:13Z</time>
      </trkpt>
      <trkpt lat="46.63122" lon="4.92832">
        <ele>243.19999694824</ele>
        <time>2019-09-13T09:38:19Z</time>
      </trkpt>
      <trkpt lat="46.63086" lon="4.92819">
        <ele>242.60000610352</ele>
        <time>2019-09-13T09:38:25Z</time>
      </trkpt>
      <trkpt lat="46.6308" lon="4.92815">
        <ele>242.39999389648</ele>
        <time>2019-09-13T09:38:26Z</time>
      </trkpt>
      <trkpt lat="46.63056" lon="4.92796">
        <ele>242.39999389648</ele>
        <time>2019-09-13T09:38:31Z</time>
      </trkpt>
      <trkpt lat="46.63025" lon="4.9278">
        <ele>243</ele>
        <time>2019-09-13T09:38:37Z</time>
      </trkpt>
      <trkpt lat="46.62985" lon="4.92769">
        <ele>244.19999694824</ele>
        <time>2019-09-13T09:38:45Z</time>
      </trkpt>
      <trkpt lat="46.62975" lon="4.92767">
        <ele>244.39999389648</ele>
        <time>2019-09-13T09:38:47Z</time>
      </trkpt>
      <trkpt lat="46.62954" lon="4.92762">
        <ele>244.60000610352</ele>
        <time>2019-09-13T09:38:51Z</time>
      </trkpt>
      <trkpt lat="46.62915" lon="4.92753">
        <ele>244.80000305176</ele>
        <time>2019-09-13T09:38:58Z</time>
      </trkpt>
      <trkpt lat="46.62864" lon="4.9274">
        <ele>244.80000305176</ele>
        <time>2019-09-13T09:39:07Z</time>
      </trkpt>
      <trkpt lat="46.6281" lon="4.92727">
        <ele>244</ele>
        <time>2019-09-13T09:39:16Z</time>
      </trkpt>
      <trkpt lat="46.62767" lon="4.92716">
        <ele>243.39999389648</ele>
        <time>2019-09-13T09:39:23Z</time>
      </trkpt>
      <trkpt lat="46.62762" lon="4.92715">
        <ele>243.19999694824</ele>
        <time>2019-09-13T09:39:24Z</time>
      </trkpt>
      <trkpt lat="46.62738" lon="4.92708">
        <ele>243</ele>
        <time>2019-09-13T09:39:28Z</time>
      </trkpt>
      <trkpt lat="46.62712" lon="4.927">
        <ele>242.80000305176</ele>
        <time>2019-09-13T09:39:33Z</time>
      </trkpt>
      <trkpt lat="46.627" lon="4.92697">
        <ele>242.80000305176</ele>
        <time>2019-09-13T09:39:35Z</time>
      </trkpt>
      <trkpt lat="46.62684" lon="4.92693">
        <ele>242.80000305176</ele>
        <time>2019-09-13T09:39:38Z</time>
      </trkpt>
      <trkpt lat="46.62679" lon="4.92692">
        <ele>242.80000305176</ele>
        <time>2019-09-13T09:39:39Z</time>
      </trkpt>
      <trkpt lat="46.62648" lon="4.9268">
        <ele>243.19999694824</ele>
        <time>2019-09-13T09:39:45Z</time>
      </trkpt>
      <trkpt lat="46.62613" lon="4.92666">
        <ele>243.39999389648</ele>
        <time>2019-09-13T09:39:51Z</time>
      </trkpt>
      <trkpt lat="46.62571" lon="4.92652">
        <ele>243.39999389648</ele>
        <time>2019-09-13T09:39:58Z</time>
      </trkpt>
      <trkpt lat="46.62566" lon="4.9265">
        <ele>243.39999389648</ele>
        <time>2019-09-13T09:39:59Z</time>
      </trkpt>
      <trkpt lat="46.62512" lon="4.92629">
        <ele>243.19999694824</ele>
        <time>2019-09-13T09:40:08Z</time>
      </trkpt>
      <trkpt lat="46.62479" lon="4.92618">
        <ele>243</ele>
        <time>2019-09-13T09:40:14Z</time>
      </trkpt>
      <trkpt lat="46.62443" lon="4.92604">
        <ele>242.80000305176</ele>
        <time>2019-09-13T09:40:21Z</time>
      </trkpt>
      <trkpt lat="46.62407" lon="4.9259">
        <ele>243.39999389648</ele>
        <time>2019-09-13T09:40:28Z</time>
      </trkpt>
      <trkpt lat="46.62386" lon="4.92582">
        <ele>243.39999389648</ele>
        <time>2019-09-13T09:40:32Z</time>
      </trkpt>
      <trkpt lat="46.62374" lon="4.92579">
        <ele>243.39999389648</ele>
        <time>2019-09-13T09:40:34Z</time>
      </trkpt>
      <trkpt lat="46.62317" lon="4.92564">
        <ele>243.60000610352</ele>
        <time>2019-09-13T09:40:43Z</time>
      </trkpt>
      <trkpt lat="46.62311" lon="4.92562">
        <ele>243.60000610352</ele>
        <time>2019-09-13T09:40:44Z</time>
      </trkpt>
      <trkpt lat="46.62281" lon="4.92554">
        <ele>243.60000610352</ele>
        <time>2019-09-13T09:40:49Z</time>
      </trkpt>
      <trkpt lat="46.62269" lon="4.92551">
        <ele>243.60000610352</ele>
        <time>2019-09-13T09:40:51Z</time>
      </trkpt>
      <trkpt lat="46.62221" lon="4.92538">
        <ele>243.60000610352</ele>
        <time>2019-09-13T09:40:59Z</time>
      </trkpt>
      <trkpt lat="46.62167" lon="4.92523">
        <ele>243.60000610352</ele>
        <time>2019-09-13T09:41:08Z</time>
      </trkpt>
      <trkpt lat="46.62126" lon="4.92511">
        <ele>243.60000610352</ele>
        <time>2019-09-13T09:41:15Z</time>
      </trkpt>
      <trkpt lat="46.62071" lon="4.92495">
        <ele>243.39999389648</ele>
        <time>2019-09-13T09:41:24Z</time>
      </trkpt>
      <trkpt lat="46.62065" lon="4.92494">
        <ele>243.39999389648</ele>
        <time>2019-09-13T09:41:25Z</time>
      </trkpt>
      <trkpt lat="46.62013" lon="4.92481">
        <ele>243</ele>
        <time>2019-09-13T09:41:33Z</time>
      </trkpt>
      <trkpt lat="46.62" lon="4.92477">
        <ele>242.80000305176</ele>
        <time>2019-09-13T09:41:35Z</time>
      </trkpt>
      <trkpt lat="46.61967" lon="4.92467">
        <ele>242</ele>
        <time>2019-09-13T09:41:40Z</time>
      </trkpt>
      <trkpt lat="46.61929" lon="4.92456">
        <ele>241.80000305176</ele>
        <time>2019-09-13T09:41:46Z</time>
      </trkpt>
      <trkpt lat="46.6191" lon="4.92452">
        <ele>241.60000610352</ele>
        <time>2019-09-13T09:41:49Z</time>
      </trkpt>
      <trkpt lat="46.61891" lon="4.92453">
        <ele>241.39999389648</ele>
        <time>2019-09-13T09:41:52Z</time>
      </trkpt>
      <trkpt lat="46.61879" lon="4.92456">
        <ele>241.39999389648</ele>
        <time>2019-09-13T09:41:54Z</time>
      </trkpt>
      <trkpt lat="46.61838" lon="4.9246">
        <ele>241.60000610352</ele>
        <time>2019-09-13T09:42:01Z</time>
      </trkpt>
      <trkpt lat="46.61796" lon="4.92449">
        <ele>241.60000610352</ele>
        <time>2019-09-13T09:42:08Z</time>
      </trkpt>
      <trkpt lat="46.61761" lon="4.92425">
        <ele>241.80000305176</ele>
        <time>2019-09-13T09:42:14Z</time>
      </trkpt>
      <trkpt lat="46.61724" lon="4.92393">
        <ele>241.39999389648</ele>
        <time>2019-09-13T09:42:21Z</time>
      </trkpt>
      <trkpt lat="46.61688" lon="4.92383">
        <ele>241.39999389648</ele>
        <time>2019-09-13T09:42:27Z</time>
      </trkpt>
      <trkpt lat="46.61644" lon="4.92374">
        <ele>241.39999389648</ele>
        <time>2019-09-13T09:42:34Z</time>
      </trkpt>
      <trkpt lat="46.61607" lon="4.92367">
        <ele>241.60000610352</ele>
        <time>2019-09-13T09:42:40Z</time>
      </trkpt>
      <trkpt lat="46.61574" lon="4.92359">
        <ele>241.60000610352</ele>
        <time>2019-09-13T09:42:46Z</time>
      </trkpt>
      <trkpt lat="46.61541" lon="4.9235">
        <ele>242.19999694824</ele>
        <time>2019-09-13T09:42:52Z</time>
      </trkpt>
      <trkpt lat="46.61506" lon="4.9234">
        <ele>242.60000610352</ele>
        <time>2019-09-13T09:42:59Z</time>
      </trkpt>
      <trkpt lat="46.61472" lon="4.92339">
        <ele>242.80000305176</ele>
        <time>2019-09-13T09:43:05Z</time>
      </trkpt>
      <trkpt lat="46.61422" lon="4.9234">
        <ele>242.60000610352</ele>
        <time>2019-09-13T09:43:13Z</time>
      </trkpt>
      <trkpt lat="46.61364" lon="4.92342">
        <ele>242</ele>
        <time>2019-09-13T09:43:22Z</time>
      </trkpt>
      <trkpt lat="46.61358" lon="4.92342">
        <ele>242</ele>
        <time>2019-09-13T09:43:23Z</time>
      </trkpt>
      <trkpt lat="46.61308" lon="4.92343">
        <ele>241.80000305176</ele>
        <time>2019-09-13T09:43:31Z</time>
      </trkpt>
      <trkpt lat="46.61253" lon="4.92344">
        <ele>241.80000305176</ele>
        <time>2019-09-13T09:43:40Z</time>
      </trkpt>
      <trkpt lat="46.61204" lon="4.92345">
        <ele>241.60000610352</ele>
        <time>2019-09-13T09:43:48Z</time>
      </trkpt>
      <trkpt lat="46.61149" lon="4.92346">
        <ele>241.39999389648</ele>
        <time>2019-09-13T09:43:57Z</time>
      </trkpt>
      <trkpt lat="46.61094" lon="4.92347">
        <ele>241.80000305176</ele>
        <time>2019-09-13T09:44:06Z</time>
      </trkpt>
      <trkpt lat="46.61082" lon="4.92347">
        <ele>241.80000305176</ele>
        <time>2019-09-13T09:44:08Z</time>
      </trkpt>
      <trkpt lat="46.61034" lon="4.92348">
        <ele>242.19999694824</ele>
        <time>2019-09-13T09:44:16Z</time>
      </trkpt>
      <trkpt lat="46.60989" lon="4.92355">
        <ele>242.19999694824</ele>
        <time>2019-09-13T09:44:24Z</time>
      </trkpt>
      <trkpt lat="46.60953" lon="4.9236">
        <ele>242.19999694824</ele>
        <time>2019-09-13T09:44:30Z</time>
      </trkpt>
      <trkpt lat="46.60936" lon="4.92359">
        <ele>242.19999694824</ele>
        <time>2019-09-13T09:44:33Z</time>
      </trkpt>
      <trkpt lat="46.6093" lon="4.92356">
        <ele>242.19999694824</ele>
        <time>2019-09-13T09:44:34Z</time>
      </trkpt>
      <trkpt lat="46.60924" lon="4.92345">
        <ele>242.39999389648</ele>
        <time>2019-09-13T09:44:36Z</time>
      </trkpt>
      <trkpt lat="46.60921" lon="4.92332">
        <ele>242.39999389648</ele>
        <time>2019-09-13T09:44:38Z</time>
      </trkpt>
      <trkpt lat="46.60921" lon="4.92326">
        <ele>242.39999389648</ele>
        <time>2019-09-13T09:44:39Z</time>
      </trkpt>
      <trkpt lat="46.6092" lon="4.92319">
        <ele>242.39999389648</ele>
        <time>2019-09-13T09:44:40Z</time>
      </trkpt>
      <trkpt lat="46.60922" lon="4.92283">
        <ele>243.19999694824</ele>
        <time>2019-09-13T09:44:46Z</time>
      </trkpt>
      <trkpt lat="46.60922" lon="4.92277">
        <ele>243.39999389648</ele>
        <time>2019-09-13T09:44:47Z</time>
      </trkpt>
      <trkpt lat="46.60923" lon="4.9225">
        <ele>244.39999389648</ele>
        <time>2019-09-13T09:44:52Z</time>
      </trkpt>
      <trkpt lat="46.60923" lon="4.92234">
        <ele>245.19999694824</ele>
        <time>2019-09-13T09:44:55Z</time>
      </trkpt>
      <trkpt lat="46.60924" lon="4.92229">
        <ele>245.39999389648</ele>
        <time>2019-09-13T09:44:56Z</time>
      </trkpt>
      <trkpt lat="46.60926" lon="4.92201">
        <ele>246.60000610352</ele>
        <time>2019-09-13T09:45:02Z</time>
      </trkpt>
      <trkpt lat="46.60929" lon="4.92174">
        <ele>247.80000305176</ele>
        <time>2019-09-13T09:45:08Z</time>
      </trkpt>
      <trkpt lat="46.60928" lon="4.92166">
        <ele>248.19999694824</ele>
        <time>2019-09-13T09:45:10Z</time>
      </trkpt>
      <trkpt lat="46.60924" lon="4.92151">
        <ele>248.80000305176</ele>
        <time>2019-09-13T09:45:14Z</time>
      </trkpt>
      <trkpt lat="46.60922" lon="4.92147">
        <ele>249</ele>
        <time>2019-09-13T09:45:15Z</time>
      </trkpt>
      <trkpt lat="46.60903" lon="4.92128">
        <ele>249.19999694824</ele>
        <time>2019-09-13T09:45:20Z</time>
      </trkpt>
      <trkpt lat="46.60876" lon="4.92105">
        <ele>249</ele>
        <time>2019-09-13T09:45:25Z</time>
      </trkpt>
      <trkpt lat="46.60851" lon="4.92083">
        <ele>247.60000610352</ele>
        <time>2019-09-13T09:45:29Z</time>
      </trkpt>
      <trkpt lat="46.60831" lon="4.92066">
        <ele>246.39999389648</ele>
        <time>2019-09-13T09:45:32Z</time>
      </trkpt>
      <trkpt lat="46.60825" lon="4.92061">
        <ele>246.19999694824</ele>
        <time>2019-09-13T09:45:33Z</time>
      </trkpt>
      <trkpt lat="46.608" lon="4.92037">
        <ele>245.19999694824</ele>
        <time>2019-09-13T09:45:37Z</time>
      </trkpt>
      <trkpt lat="46.60782" lon="4.92022">
        <ele>244.19999694824</ele>
        <time>2019-09-13T09:45:40Z</time>
      </trkpt>
      <trkpt lat="46.60776" lon="4.92018">
        <ele>244</ele>
        <time>2019-09-13T09:45:41Z</time>
      </trkpt>
      <trkpt lat="46.60744" lon="4.92008">
        <ele>243</ele>
        <time>2019-09-13T09:45:46Z</time>
      </trkpt>
      <trkpt lat="46.60708" lon="4.92">
        <ele>242.80000305176</ele>
        <time>2019-09-13T09:45:52Z</time>
      </trkpt>
      <trkpt lat="46.60673" lon="4.91979">
        <ele>243.19999694824</ele>
        <time>2019-09-13T09:45:59Z</time>
      </trkpt>
      <trkpt lat="46.60632" lon="4.91957">
        <ele>243.19999694824</ele>
        <time>2019-09-13T09:46:06Z</time>
      </trkpt>
      <trkpt lat="46.6058" lon="4.91928">
        <ele>243.19999694824</ele>
        <time>2019-09-13T09:46:15Z</time>
      </trkpt>
      <trkpt lat="46.6054" lon="4.91902">
        <ele>243.19999694824</ele>
        <time>2019-09-13T09:46:22Z</time>
      </trkpt>
      <trkpt lat="46.60504" lon="4.91871">
        <ele>243.19999694824</ele>
        <time>2019-09-13T09:46:29Z</time>
      </trkpt>
      <trkpt lat="46.60465" lon="4.91834">
        <ele>243.19999694824</ele>
        <time>2019-09-13T09:46:37Z</time>
      </trkpt>
      <trkpt lat="46.60423" lon="4.91791">
        <ele>243.39999389648</ele>
        <time>2019-09-13T09:46:46Z</time>
      </trkpt>
      <trkpt lat="46.60419" lon="4.91788">
        <ele>243.39999389648</ele>
        <time>2019-09-13T09:46:47Z</time>
      </trkpt>
      <trkpt lat="46.60405" lon="4.91783">
        <ele>243.39999389648</ele>
        <time>2019-09-13T09:46:50Z</time>
      </trkpt>
      <trkpt lat="46.60394" lon="4.91792">
        <ele>243.60000610352</ele>
        <time>2019-09-13T09:46:53Z</time>
      </trkpt>
      <trkpt lat="46.60388" lon="4.91805">
        <ele>243.60000610352</ele>
        <time>2019-09-13T09:46:55Z</time>
      </trkpt>
      <trkpt lat="46.60378" lon="4.91825">
        <ele>243.80000305176</ele>
        <time>2019-09-13T09:46:58Z</time>
      </trkpt>
      <trkpt lat="46.60357" lon="4.91871">
        <ele>244.39999389648</ele>
        <time>2019-09-13T09:47:05Z</time>
      </trkpt>
      <trkpt lat="46.60354" lon="4.91878">
        <ele>244.60000610352</ele>
        <time>2019-09-13T09:47:06Z</time>
      </trkpt>
      <trkpt lat="46.60329" lon="4.91933">
        <ele>245.19999694824</ele>
        <time>2019-09-13T09:47:15Z</time>
      </trkpt>
      <trkpt lat="46.60312" lon="4.91972">
        <ele>245.39999389648</ele>
        <time>2019-09-13T09:47:22Z</time>
      </trkpt>
      <trkpt lat="46.60302" lon="4.91992">
        <ele>245.60000610352</ele>
        <time>2019-09-13T09:47:26Z</time>
      </trkpt>
      <trkpt lat="46.60275" lon="4.9203">
        <ele>246.60000610352</ele>
        <time>2019-09-13T09:47:35Z</time>
      </trkpt>
      <trkpt lat="46.6026" lon="4.92048">
        <ele>247.80000305176</ele>
        <time>2019-09-13T09:47:40Z</time>
      </trkpt>
      <trkpt lat="46.60254" lon="4.92055">
        <ele>248.39999389648</ele>
        <time>2019-09-13T09:47:42Z</time>
      </trkpt>
      <trkpt lat="46.60247" lon="4.92062">
        <ele>248.60000610352</ele>
        <time>2019-09-13T09:47:44Z</time>
      </trkpt>
      <trkpt lat="46.60244" lon="4.92066">
        <ele>248.80000305176</ele>
        <time>2019-09-13T09:47:45Z</time>
      </trkpt>
      <trkpt lat="46.60224" lon="4.92086">
        <ele>249</ele>
        <time>2019-09-13T09:47:50Z</time>
      </trkpt>
      <trkpt lat="46.60197" lon="4.92108">
        <ele>248.80000305176</ele>
        <time>2019-09-13T09:47:55Z</time>
      </trkpt>
      <trkpt lat="46.60192" lon="4.92112">
        <ele>248.80000305176</ele>
        <time>2019-09-13T09:47:56Z</time>
      </trkpt>
      <trkpt lat="46.60184" lon="4.92122">
        <ele>248.39999389648</ele>
        <time>2019-09-13T09:47:58Z</time>
      </trkpt>
      <trkpt lat="46.60181" lon="4.92128">
        <ele>247.60000610352</ele>
        <time>2019-09-13T09:48:00Z</time>
      </trkpt>
      <trkpt lat="46.60179" lon="4.92128">
        <ele>247.39999389648</ele>
        <time>2019-09-13T09:48:01Z</time>
      </trkpt>
      <trkpt lat="46.60175" lon="4.92128">
        <ele>246.60000610352</ele>
        <time>2019-09-13T09:48:03Z</time>
      </trkpt>
      <trkpt lat="46.60166" lon="4.92126">
        <ele>245.80000305176</ele>
        <time>2019-09-13T09:48:06Z</time>
      </trkpt>
      <trkpt lat="46.60158" lon="4.92123">
        <ele>245.60000610352</ele>
        <time>2019-09-13T09:48:08Z</time>
      </trkpt>
      <trkpt lat="46.60141" lon="4.92117">
        <ele>245.60000610352</ele>
        <time>2019-09-13T09:48:12Z</time>
      </trkpt>
      <trkpt lat="46.60112" lon="4.92109">
        <ele>246</ele>
        <time>2019-09-13T09:48:18Z</time>
      </trkpt>
      <trkpt lat="46.60108" lon="4.9211">
        <ele>246.19999694824</ele>
        <time>2019-09-13T09:48:19Z</time>
      </trkpt>
      <trkpt lat="46.60099" lon="4.9212">
        <ele>246.39999389648</ele>
        <time>2019-09-13T09:48:22Z</time>
      </trkpt>
      <trkpt lat="46.60096" lon="4.92131">
        <ele>246.39999389648</ele>
        <time>2019-09-13T09:48:24Z</time>
      </trkpt>
      <trkpt lat="46.60093" lon="4.92142">
        <ele>246.39999389648</ele>
        <time>2019-09-13T09:48:26Z</time>
      </trkpt>
      <trkpt lat="46.60089" lon="4.92147">
        <ele>246.39999389648</ele>
        <time>2019-09-13T09:48:27Z</time>
      </trkpt>
      <trkpt lat="46.60075" lon="4.9215">
        <ele>246.19999694824</ele>
        <time>2019-09-13T09:48:30Z</time>
      </trkpt>
      <trkpt lat="46.60044" lon="4.92145">
        <ele>244.80000305176</ele>
        <time>2019-09-13T09:48:36Z</time>
      </trkpt>
      <trkpt lat="46.60029" lon="4.92142">
        <ele>244.80000305176</ele>
        <time>2019-09-13T09:48:39Z</time>
      </trkpt>
      <trkpt lat="46.60007" lon="4.92138">
        <ele>244.60000610352</ele>
        <time>2019-09-13T09:48:43Z</time>
      </trkpt>
      <trkpt lat="46.59972" lon="4.92132">
        <ele>244.60000610352</ele>
        <time>2019-09-13T09:48:50Z</time>
      </trkpt>
      <trkpt lat="46.59928" lon="4.92122">
        <ele>244</ele>
        <time>2019-09-13T09:48:58Z</time>
      </trkpt>
      <trkpt lat="46.59918" lon="4.92119">
        <ele>244</ele>
        <time>2019-09-13T09:49:00Z</time>
      </trkpt>
      <trkpt lat="46.59896" lon="4.92115">
        <ele>243.80000305176</ele>
        <time>2019-09-13T09:49:04Z</time>
      </trkpt>
      <trkpt lat="46.59885" lon="4.92113">
        <ele>243.60000610352</ele>
        <time>2019-09-13T09:49:06Z</time>
      </trkpt>
      <trkpt lat="46.59853" lon="4.92105">
        <ele>243.19999694824</ele>
        <time>2019-09-13T09:49:12Z</time>
      </trkpt>
      <trkpt lat="46.59832" lon="4.92095">
        <ele>243.19999694824</ele>
        <time>2019-09-13T09:49:16Z</time>
      </trkpt>
      <trkpt lat="46.59822" lon="4.92087">
        <ele>243</ele>
        <time>2019-09-13T09:49:18Z</time>
      </trkpt>
      <trkpt lat="46.59789" lon="4.92053">
        <ele>242.80000305176</ele>
        <time>2019-09-13T09:49:25Z</time>
      </trkpt>
      <trkpt lat="46.5978" lon="4.92041">
        <ele>242.60000610352</ele>
        <time>2019-09-13T09:49:27Z</time>
      </trkpt>
      <trkpt lat="46.5977" lon="4.9202">
        <ele>242.60000610352</ele>
        <time>2019-09-13T09:49:30Z</time>
      </trkpt>
      <trkpt lat="46.59768" lon="4.92012">
        <ele>242.60000610352</ele>
        <time>2019-09-13T09:49:31Z</time>
      </trkpt>
      <trkpt lat="46.59746" lon="4.9196">
        <ele>242.60000610352</ele>
        <time>2019-09-13T09:49:38Z</time>
      </trkpt>
      <trkpt lat="46.59731" lon="4.91914">
        <ele>242.60000610352</ele>
        <time>2019-09-13T09:49:44Z</time>
      </trkpt>
      <trkpt lat="46.59721" lon="4.91868">
        <ele>242.80000305176</ele>
        <time>2019-09-13T09:49:50Z</time>
      </trkpt>
      <trkpt lat="46.59719" lon="4.9186">
        <ele>242.80000305176</ele>
        <time>2019-09-13T09:49:51Z</time>
      </trkpt>
      <trkpt lat="46.59709" lon="4.91833">
        <ele>242.80000305176</ele>
        <time>2019-09-13T09:49:55Z</time>
      </trkpt>
      <trkpt lat="46.59704" lon="4.9182">
        <ele>242.80000305176</ele>
        <time>2019-09-13T09:49:57Z</time>
      </trkpt>
      <trkpt lat="46.59694" lon="4.91802">
        <ele>242.60000610352</ele>
        <time>2019-09-13T09:50:00Z</time>
      </trkpt>
      <trkpt lat="46.59691" lon="4.91796">
        <ele>242.60000610352</ele>
        <time>2019-09-13T09:50:01Z</time>
      </trkpt>
      <trkpt lat="46.59671" lon="4.9177">
        <ele>242.60000610352</ele>
        <time>2019-09-13T09:50:06Z</time>
      </trkpt>
      <trkpt lat="46.59637" lon="4.91727">
        <ele>242.60000610352</ele>
        <time>2019-09-13T09:50:14Z</time>
      </trkpt>
      <trkpt lat="46.59609" lon="4.91685">
        <ele>242.39999389648</ele>
        <time>2019-09-13T09:50:21Z</time>
      </trkpt>
      <trkpt lat="46.59576" lon="4.9163">
        <ele>242.19999694824</ele>
        <time>2019-09-13T09:50:30Z</time>
      </trkpt>
      <trkpt lat="46.5955" lon="4.91589">
        <ele>242.19999694824</ele>
        <time>2019-09-13T09:50:38Z</time>
      </trkpt>
      <trkpt lat="46.59528" lon="4.91562">
        <ele>242.39999389648</ele>
        <time>2019-09-13T09:50:45Z</time>
      </trkpt>
      <trkpt lat="46.59517" lon="4.9154">
        <ele>242.80000305176</ele>
        <time>2019-09-13T09:50:50Z</time>
      </trkpt>
      <trkpt lat="46.59512" lon="4.9151">
        <ele>242.80000305176</ele>
        <time>2019-09-13T09:50:56Z</time>
      </trkpt>
      <trkpt lat="46.59516" lon="4.91477">
        <ele>243.39999389648</ele>
        <time>2019-09-13T09:51:02Z</time>
      </trkpt>
      <trkpt lat="46.59519" lon="4.91462">
        <ele>244</ele>
        <time>2019-09-13T09:51:05Z</time>
      </trkpt>
      <trkpt lat="46.59522" lon="4.91449">
        <ele>244.39999389648</ele>
        <time>2019-09-13T09:51:08Z</time>
      </trkpt>
      <trkpt lat="46.59525" lon="4.91436">
        <ele>245</ele>
        <time>2019-09-13T09:51:11Z</time>
      </trkpt>
      <trkpt lat="46.59529" lon="4.9142">
        <ele>245.80000305176</ele>
        <time>2019-09-13T09:51:15Z</time>
      </trkpt>
      <trkpt lat="46.5953" lon="4.91413">
        <ele>246.19999694824</ele>
        <time>2019-09-13T09:51:17Z</time>
      </trkpt>
      <trkpt lat="46.59534" lon="4.91403">
        <ele>246.80000305176</ele>
        <time>2019-09-13T09:51:20Z</time>
      </trkpt>
      <trkpt lat="46.59537" lon="4.91391">
        <ele>247.39999389648</ele>
        <time>2019-09-13T09:51:23Z</time>
      </trkpt>
      <trkpt lat="46.59541" lon="4.91379">
        <ele>248</ele>
        <time>2019-09-13T09:51:26Z</time>
      </trkpt>
      <trkpt lat="46.59546" lon="4.91364">
        <ele>248.39999389648</ele>
        <time>2019-09-13T09:51:30Z</time>
      </trkpt>
      <trkpt lat="46.59551" lon="4.91349">
        <ele>249</ele>
        <time>2019-09-13T09:51:34Z</time>
      </trkpt>
      <trkpt lat="46.59555" lon="4.91337">
        <ele>249.60000610352</ele>
        <time>2019-09-13T09:51:37Z</time>
      </trkpt>
      <trkpt lat="46.59564" lon="4.91315">
        <ele>250.60000610352</ele>
        <time>2019-09-13T09:51:43Z</time>
      </trkpt>
      <trkpt lat="46.59565" lon="4.91311">
        <ele>250.80000305176</ele>
        <time>2019-09-13T09:51:44Z</time>
      </trkpt>
      <trkpt lat="46.59573" lon="4.91293">
        <ele>251.39999389648</ele>
        <time>2019-09-13T09:51:49Z</time>
      </trkpt>
      <trkpt lat="46.59581" lon="4.91281">
        <ele>251.80000305176</ele>
        <time>2019-09-13T09:51:53Z</time>
      </trkpt>
      <trkpt lat="46.59588" lon="4.91273">
        <ele>252.39999389648</ele>
        <time>2019-09-13T09:51:57Z</time>
      </trkpt>
      <trkpt lat="46.59591" lon="4.91269">
        <ele>253</ele>
        <time>2019-09-13T09:51:59Z</time>
      </trkpt>
      <trkpt lat="46.59602" lon="4.91257">
        <ele>254</ele>
        <time>2019-09-13T09:52:05Z</time>
      </trkpt>
      <trkpt lat="46.59616" lon="4.91246">
        <ele>255.19999694824</ele>
        <time>2019-09-13T09:52:12Z</time>
      </trkpt>
      <trkpt lat="46.59621" lon="4.91244">
        <ele>255.39999389648</ele>
        <time>2019-09-13T09:52:14Z</time>
      </trkpt>
      <trkpt lat="46.59634" lon="4.91236">
        <ele>256.20001220703</ele>
        <time>2019-09-13T09:52:20Z</time>
      </trkpt>
      <trkpt lat="46.59646" lon="4.91229">
        <ele>257.39999389648</ele>
        <time>2019-09-13T09:52:26Z</time>
      </trkpt>
      <trkpt lat="46.59652" lon="4.91226">
        <ele>258</ele>
        <time>2019-09-13T09:52:29Z</time>
      </trkpt>
      <trkpt lat="46.59658" lon="4.91223">
        <ele>258.39999389648</ele>
        <time>2019-09-13T09:52:32Z</time>
      </trkpt>
      <trkpt lat="46.59672" lon="4.91218">
        <ele>259.20001220703</ele>
        <time>2019-09-13T09:52:37Z</time>
      </trkpt>
      <trkpt lat="46.59677" lon="4.91216">
        <ele>259.79998779297</ele>
        <time>2019-09-13T09:52:39Z</time>
      </trkpt>
      <trkpt lat="46.59689" lon="4.91212">
        <ele>260.39999389648</ele>
        <time>2019-09-13T09:52:44Z</time>
      </trkpt>
      <trkpt lat="46.59698" lon="4.91212">
        <ele>260.79998779297</ele>
        <time>2019-09-13T09:52:47Z</time>
      </trkpt>
      <trkpt lat="46.59709" lon="4.91213">
        <ele>261</ele>
        <time>2019-09-13T09:52:51Z</time>
      </trkpt>
      <trkpt lat="46.59724" lon="4.91216">
        <ele>261.60000610352</ele>
        <time>2019-09-13T09:52:56Z</time>
      </trkpt>
      <trkpt lat="46.59732" lon="4.91215">
        <ele>261.79998779297</ele>
        <time>2019-09-13T09:52:59Z</time>
      </trkpt>
      <trkpt lat="46.59738" lon="4.91203">
        <ele>262.20001220703</ele>
        <time>2019-09-13T09:53:03Z</time>
      </trkpt>
      <trkpt lat="46.59741" lon="4.91193">
        <ele>262.79998779297</ele>
        <time>2019-09-13T09:53:06Z</time>
      </trkpt>
      <trkpt lat="46.59742" lon="4.91178">
        <ele>263.39999389648</ele>
        <time>2019-09-13T09:53:10Z</time>
      </trkpt>
      <trkpt lat="46.59743" lon="4.9117">
        <ele>263.79998779297</ele>
        <time>2019-09-13T09:53:12Z</time>
      </trkpt>
      <trkpt lat="46.59748" lon="4.91148">
        <ele>264</ele>
        <time>2019-09-13T09:53:16Z</time>
      </trkpt>
      <trkpt lat="46.59763" lon="4.91104">
        <ele>263.79998779297</ele>
        <time>2019-09-13T09:53:23Z</time>
      </trkpt>
      <trkpt lat="46.59775" lon="4.91066">
        <ele>262.79998779297</ele>
        <time>2019-09-13T09:53:30Z</time>
      </trkpt>
      <trkpt lat="46.59779" lon="4.91055">
        <ele>262.79998779297</ele>
        <time>2019-09-13T09:53:32Z</time>
      </trkpt>
      <trkpt lat="46.59786" lon="4.91027">
        <ele>262.60000610352</ele>
        <time>2019-09-13T09:53:37Z</time>
      </trkpt>
      <trkpt lat="46.59793" lon="4.9098">
        <ele>262.79998779297</ele>
        <time>2019-09-13T09:53:45Z</time>
      </trkpt>
      <trkpt lat="46.59796" lon="4.90918">
        <ele>263</ele>
        <time>2019-09-13T09:53:55Z</time>
      </trkpt>
      <trkpt lat="46.59798" lon="4.9087">
        <ele>263.20001220703</ele>
        <time>2019-09-13T09:54:03Z</time>
      </trkpt>
      <trkpt lat="46.59802" lon="4.90823">
        <ele>263.60000610352</ele>
        <time>2019-09-13T09:54:12Z</time>
      </trkpt>
      <trkpt lat="46.59804" lon="4.90805">
        <ele>264</ele>
        <time>2019-09-13T09:54:16Z</time>
      </trkpt>
      <trkpt lat="46.59807" lon="4.90781">
        <ele>264.79998779297</ele>
        <time>2019-09-13T09:54:21Z</time>
      </trkpt>
      <trkpt lat="46.59808" lon="4.90772">
        <ele>265</ele>
        <time>2019-09-13T09:54:23Z</time>
      </trkpt>
      <trkpt lat="46.59812" lon="4.90743">
        <ele>266</ele>
        <time>2019-09-13T09:54:30Z</time>
      </trkpt>
      <trkpt lat="46.59815" lon="4.90715">
        <ele>267</ele>
        <time>2019-09-13T09:54:37Z</time>
      </trkpt>
      <trkpt lat="46.59816" lon="4.90711">
        <ele>267.20001220703</ele>
        <time>2019-09-13T09:54:38Z</time>
      </trkpt>
      <trkpt lat="46.59819" lon="4.90688">
        <ele>268</ele>
        <time>2019-09-13T09:54:44Z</time>
      </trkpt>
      <trkpt lat="46.5982" lon="4.9068">
        <ele>268.39999389648</ele>
        <time>2019-09-13T09:54:46Z</time>
      </trkpt>
      <trkpt lat="46.59823" lon="4.90668">
        <ele>269</ele>
        <time>2019-09-13T09:54:50Z</time>
      </trkpt>
      <trkpt lat="46.59828" lon="4.90668">
        <ele>269.39999389648</ele>
        <time>2019-09-13T09:54:53Z</time>
      </trkpt>
      <trkpt lat="46.59828" lon="4.90668">
        <ele>269.60000610352</ele>
        <time>2019-09-13T09:54:54Z</time>
      </trkpt>
      <trkpt lat="46.59828" lon="4.90668">
        <ele>269.60000610352</ele>
        <time>2019-09-13T09:54:55Z</time>
      </trkpt>
      <trkpt lat="46.5983" lon="4.90666">
        <ele>270</ele>
        <time>2019-09-13T09:54:58Z</time>
      </trkpt>
      <trkpt lat="46.59829" lon="4.90663">
        <ele>270.20001220703</ele>
        <time>2019-09-13T09:55:00Z</time>
      </trkpt>
      <trkpt lat="46.59824" lon="4.90663">
        <ele>270.20001220703</ele>
        <time>2019-09-13T09:55:02Z</time>
      </trkpt>
      <trkpt lat="46.59815" lon="4.90666">
        <ele>270.39999389648</ele>
        <time>2019-09-13T09:55:05Z</time>
      </trkpt>
      <trkpt lat="46.59792" lon="4.90677">
        <ele>270.39999389648</ele>
        <time>2019-09-13T09:55:11Z</time>
      </trkpt>
      <trkpt lat="46.59787" lon="4.90678">
        <ele>270.39999389648</ele>
        <time>2019-09-13T09:55:12Z</time>
      </trkpt>
      <trkpt lat="46.59779" lon="4.90683">
        <ele>270.39999389648</ele>
        <time>2019-09-13T09:55:14Z</time>
      </trkpt>
      <trkpt lat="46.59765" lon="4.90687">
        <ele>270.60000610352</ele>
        <time>2019-09-13T09:55:17Z</time>
      </trkpt>
      <trkpt lat="46.59724" lon="4.90698">
        <ele>271</ele>
        <time>2019-09-13T09:55:26Z</time>
      </trkpt>
      <trkpt lat="46.59705" lon="4.907">
        <ele>271.20001220703</ele>
        <time>2019-09-13T09:55:30Z</time>
      </trkpt>
      <trkpt lat="46.5969" lon="4.90701">
        <ele>271.20001220703</ele>
        <time>2019-09-13T09:55:33Z</time>
      </trkpt>
      <trkpt lat="46.59661" lon="4.90703">
        <ele>271.39999389648</ele>
        <time>2019-09-13T09:55:39Z</time>
      </trkpt>
      <trkpt lat="46.59632" lon="4.90709">
        <ele>271.79998779297</ele>
        <time>2019-09-13T09:55:45Z</time>
      </trkpt>
      <trkpt lat="46.59622" lon="4.90712">
        <ele>272</ele>
        <time>2019-09-13T09:55:47Z</time>
      </trkpt>
      <trkpt lat="46.59587" lon="4.90721">
        <ele>272.20001220703</ele>
        <time>2019-09-13T09:55:54Z</time>
      </trkpt>
      <trkpt lat="46.59581" lon="4.90723">
        <ele>272.20001220703</ele>
        <time>2019-09-13T09:55:55Z</time>
      </trkpt>
      <trkpt lat="46.59564" lon="4.90729">
        <ele>272.20001220703</ele>
        <time>2019-09-13T09:55:58Z</time>
      </trkpt>
      <trkpt lat="46.59553" lon="4.90736">
        <ele>272.20001220703</ele>
        <time>2019-09-13T09:56:00Z</time>
      </trkpt>
      <trkpt lat="46.59533" lon="4.90749">
        <ele>272.20001220703</ele>
        <time>2019-09-13T09:56:03Z</time>
      </trkpt>
      <trkpt lat="46.59491" lon="4.90774">
        <ele>270.60000610352</ele>
        <time>2019-09-13T09:56:09Z</time>
      </trkpt>
      <trkpt lat="46.59484" lon="4.90777">
        <ele>270.20001220703</ele>
        <time>2019-09-13T09:56:10Z</time>
      </trkpt>
      <trkpt lat="46.59456" lon="4.90789">
        <ele>269.39999389648</ele>
        <time>2019-09-13T09:56:14Z</time>
      </trkpt>
      <trkpt lat="46.59443" lon="4.90792">
        <ele>269.20001220703</ele>
        <time>2019-09-13T09:56:16Z</time>
      </trkpt>
      <trkpt lat="46.59406" lon="4.90796">
        <ele>268.39999389648</ele>
        <time>2019-09-13T09:56:22Z</time>
      </trkpt>
      <trkpt lat="46.59361" lon="4.90796">
        <ele>268</ele>
        <time>2019-09-13T09:56:30Z</time>
      </trkpt>
      <trkpt lat="46.59318" lon="4.90793">
        <ele>268.39999389648</ele>
        <time>2019-09-13T09:56:38Z</time>
      </trkpt>
      <trkpt lat="46.59306" lon="4.90794">
        <ele>268.39999389648</ele>
        <time>2019-09-13T09:56:40Z</time>
      </trkpt>
      <trkpt lat="46.59289" lon="4.90798">
        <ele>268.39999389648</ele>
        <time>2019-09-13T09:56:43Z</time>
      </trkpt>
      <trkpt lat="46.59266" lon="4.90801">
        <ele>268.20001220703</ele>
        <time>2019-09-13T09:56:47Z</time>
      </trkpt>
      <trkpt lat="46.5926" lon="4.90803">
        <ele>268.20001220703</ele>
        <time>2019-09-13T09:56:48Z</time>
      </trkpt>
      <trkpt lat="46.59225" lon="4.90816">
        <ele>267.39999389648</ele>
        <time>2019-09-13T09:56:53Z</time>
      </trkpt>
      <trkpt lat="46.59217" lon="4.90819">
        <ele>267.39999389648</ele>
        <time>2019-09-13T09:56:54Z</time>
      </trkpt>
      <trkpt lat="46.59177" lon="4.90832">
        <ele>266.20001220703</ele>
        <time>2019-09-13T09:56:59Z</time>
      </trkpt>
      <trkpt lat="46.5916" lon="4.90838">
        <ele>265.79998779297</ele>
        <time>2019-09-13T09:57:01Z</time>
      </trkpt>
      <trkpt lat="46.59143" lon="4.90844">
        <ele>265</ele>
        <time>2019-09-13T09:57:03Z</time>
      </trkpt>
      <trkpt lat="46.59118" lon="4.90854">
        <ele>264</ele>
        <time>2019-09-13T09:57:06Z</time>
      </trkpt>
      <trkpt lat="46.59085" lon="4.90864">
        <ele>262.79998779297</ele>
        <time>2019-09-13T09:57:10Z</time>
      </trkpt>
      <trkpt lat="46.59077" lon="4.90865">
        <ele>262.60000610352</ele>
        <time>2019-09-13T09:57:11Z</time>
      </trkpt>
      <trkpt lat="46.59028" lon="4.90867">
        <ele>261.60000610352</ele>
        <time>2019-09-13T09:57:17Z</time>
      </trkpt>
      <trkpt lat="46.58995" lon="4.90862">
        <ele>260.60000610352</ele>
        <time>2019-09-13T09:57:21Z</time>
      </trkpt>
      <trkpt lat="46.58979" lon="4.90857">
        <ele>260</ele>
        <time>2019-09-13T09:57:23Z</time>
      </trkpt>
      <trkpt lat="46.58972" lon="4.90853">
        <ele>259.79998779297</ele>
        <time>2019-09-13T09:57:24Z</time>
      </trkpt>
      <trkpt lat="46.58965" lon="4.90849">
        <ele>259.39999389648</ele>
        <time>2019-09-13T09:57:25Z</time>
      </trkpt>
      <trkpt lat="46.58939" lon="4.90831">
        <ele>258.79998779297</ele>
        <time>2019-09-13T09:57:29Z</time>
      </trkpt>
      <trkpt lat="46.58933" lon="4.90827">
        <ele>258.39999389648</ele>
        <time>2019-09-13T09:57:30Z</time>
      </trkpt>
      <trkpt lat="46.58902" lon="4.90814">
        <ele>258</ele>
        <time>2019-09-13T09:57:35Z</time>
      </trkpt>
      <trkpt lat="46.58897" lon="4.90812">
        <ele>258</ele>
        <time>2019-09-13T09:57:36Z</time>
      </trkpt>
      <trkpt lat="46.58878" lon="4.90814">
        <ele>258</ele>
        <time>2019-09-13T09:57:39Z</time>
      </trkpt>
      <trkpt lat="46.58872" lon="4.90816">
        <ele>258</ele>
        <time>2019-09-13T09:57:40Z</time>
      </trkpt>
      <trkpt lat="46.58838" lon="4.90826">
        <ele>257.79998779297</ele>
        <time>2019-09-13T09:57:45Z</time>
      </trkpt>
      <trkpt lat="46.58818" lon="4.90826">
        <ele>257.60000610352</ele>
        <time>2019-09-13T09:57:48Z</time>
      </trkpt>
      <trkpt lat="46.58811" lon="4.90824">
        <ele>257.39999389648</ele>
        <time>2019-09-13T09:57:49Z</time>
      </trkpt>
      <trkpt lat="46.58804" lon="4.90821">
        <ele>257.20001220703</ele>
        <time>2019-09-13T09:57:50Z</time>
      </trkpt>
      <trkpt lat="46.58772" lon="4.90808">
        <ele>256.39999389648</ele>
        <time>2019-09-13T09:57:55Z</time>
      </trkpt>
      <trkpt lat="46.5876" lon="4.90803">
        <ele>256</ele>
        <time>2019-09-13T09:57:57Z</time>
      </trkpt>
      <trkpt lat="46.58737" lon="4.90794">
        <ele>255.39999389648</ele>
        <time>2019-09-13T09:58:01Z</time>
      </trkpt>
      <trkpt lat="46.58721" lon="4.90788">
        <ele>255.19999694824</ele>
        <time>2019-09-13T09:58:04Z</time>
      </trkpt>
      <trkpt lat="46.58693" lon="4.90775">
        <ele>255.19999694824</ele>
        <time>2019-09-13T09:58:10Z</time>
      </trkpt>
      <trkpt lat="46.58655" lon="4.90758">
        <ele>254.80000305176</ele>
        <time>2019-09-13T09:58:17Z</time>
      </trkpt>
      <trkpt lat="46.5864" lon="4.90752">
        <ele>254.80000305176</ele>
        <time>2019-09-13T09:58:20Z</time>
      </trkpt>
      <trkpt lat="46.5863" lon="4.90748">
        <ele>254.80000305176</ele>
        <time>2019-09-13T09:58:22Z</time>
      </trkpt>
      <trkpt lat="46.58606" lon="4.90738">
        <ele>254.80000305176</ele>
        <time>2019-09-13T09:58:27Z</time>
      </trkpt>
      <trkpt lat="46.58603" lon="4.9074">
        <ele>254.60000610352</ele>
        <time>2019-09-13T09:58:28Z</time>
      </trkpt>
      <trkpt lat="46.58599" lon="4.9075">
        <ele>254.19999694824</ele>
        <time>2019-09-13T09:58:30Z</time>
      </trkpt>
      <trkpt lat="46.58596" lon="4.90762">
        <ele>254</ele>
        <time>2019-09-13T09:58:32Z</time>
      </trkpt>
      <trkpt lat="46.58588" lon="4.9078">
        <ele>253.60000610352</ele>
        <time>2019-09-13T09:58:35Z</time>
      </trkpt>
      <trkpt lat="46.58581" lon="4.90795">
        <ele>253.39999389648</ele>
        <time>2019-09-13T09:58:37Z</time>
      </trkpt>
      <trkpt lat="46.58579" lon="4.90803">
        <ele>253.19999694824</ele>
        <time>2019-09-13T09:58:38Z</time>
      </trkpt>
      <trkpt lat="46.58573" lon="4.90827">
        <ele>252.19999694824</ele>
        <time>2019-09-13T09:58:41Z</time>
      </trkpt>
      <trkpt lat="46.58571" lon="4.90836">
        <ele>252</ele>
        <time>2019-09-13T09:58:42Z</time>
      </trkpt>
      <trkpt lat="46.58568" lon="4.90862">
        <ele>251</ele>
        <time>2019-09-13T09:58:45Z</time>
      </trkpt>
      <trkpt lat="46.58567" lon="4.90871">
        <ele>250.80000305176</ele>
        <time>2019-09-13T09:58:46Z</time>
      </trkpt>
      <trkpt lat="46.58568" lon="4.909">
        <ele>250.19999694824</ele>
        <time>2019-09-13T09:58:49Z</time>
      </trkpt>
      <trkpt lat="46.58569" lon="4.9091">
        <ele>249.80000305176</ele>
        <time>2019-09-13T09:58:50Z</time>
      </trkpt>
      <trkpt lat="46.58574" lon="4.90976">
        <ele>248.60000610352</ele>
        <time>2019-09-13T09:58:56Z</time>
      </trkpt>
      <trkpt lat="46.58574" lon="4.91">
        <ele>247.39999389648</ele>
        <time>2019-09-13T09:58:58Z</time>
      </trkpt>
      <trkpt lat="46.58574" lon="4.91024">
        <ele>246.19999694824</ele>
        <time>2019-09-13T09:59:00Z</time>
      </trkpt>
      <trkpt lat="46.58573" lon="4.91046">
        <ele>245</ele>
        <time>2019-09-13T09:59:02Z</time>
      </trkpt>
      <trkpt lat="46.5857" lon="4.91088">
        <ele>243.80000305176</ele>
        <time>2019-09-13T09:59:06Z</time>
      </trkpt>
      <trkpt lat="46.58567" lon="4.91115">
        <ele>243.60000610352</ele>
        <time>2019-09-13T09:59:09Z</time>
      </trkpt>
      <trkpt lat="46.58559" lon="4.91179">
        <ele>242.80000305176</ele>
        <time>2019-09-13T09:59:16Z</time>
      </trkpt>
      <trkpt lat="46.58551" lon="4.91239">
        <ele>242.19999694824</ele>
        <time>2019-09-13T09:59:23Z</time>
      </trkpt>
      <trkpt lat="46.58548" lon="4.91264">
        <ele>242</ele>
        <time>2019-09-13T09:59:26Z</time>
      </trkpt>
      <trkpt lat="46.58542" lon="4.91314">
        <ele>241.60000610352</ele>
        <time>2019-09-13T09:59:32Z</time>
      </trkpt>
      <trkpt lat="46.58534" lon="4.91377">
        <ele>241</ele>
        <time>2019-09-13T09:59:40Z</time>
      </trkpt>
      <trkpt lat="46.58531" lon="4.91401">
        <ele>241</ele>
        <time>2019-09-13T09:59:43Z</time>
      </trkpt>
      <trkpt lat="46.58526" lon="4.91447">
        <ele>240.60000610352</ele>
        <time>2019-09-13T09:59:49Z</time>
      </trkpt>
      <trkpt lat="46.58524" lon="4.91461">
        <ele>240.60000610352</ele>
        <time>2019-09-13T09:59:51Z</time>
      </trkpt>
      <trkpt lat="46.58517" lon="4.91471">
        <ele>240.60000610352</ele>
        <time>2019-09-13T09:59:53Z</time>
      </trkpt>
      <trkpt lat="46.58503" lon="4.9147">
        <ele>240.19999694824</ele>
        <time>2019-09-13T09:59:56Z</time>
      </trkpt>
      <trkpt lat="46.58498" lon="4.91467">
        <ele>240.19999694824</ele>
        <time>2019-09-13T09:59:57Z</time>
      </trkpt>
      <trkpt lat="46.58472" lon="4.9145">
        <ele>239.80000305176</ele>
        <time>2019-09-13T10:00:02Z</time>
      </trkpt>
      <trkpt lat="46.58462" lon="4.91444">
        <ele>239.60000610352</ele>
        <time>2019-09-13T10:00:04Z</time>
      </trkpt>
      <trkpt lat="46.5842" lon="4.91416">
        <ele>239.39999389648</ele>
        <time>2019-09-13T10:00:12Z</time>
      </trkpt>
      <trkpt lat="46.58379" lon="4.91385">
        <ele>239.19999694824</ele>
        <time>2019-09-13T10:00:20Z</time>
      </trkpt>
      <trkpt lat="46.58326" lon="4.91348">
        <ele>239.39999389648</ele>
        <time>2019-09-13T10:00:30Z</time>
      </trkpt>
      <trkpt lat="46.5829" lon="4.91324">
        <ele>239.60000610352</ele>
        <time>2019-09-13T10:00:37Z</time>
      </trkpt>
      <trkpt lat="46.5828" lon="4.91316">
        <ele>239.60000610352</ele>
        <time>2019-09-13T10:00:39Z</time>
      </trkpt>
      <trkpt lat="46.58263" lon="4.91307">
        <ele>239.60000610352</ele>
        <time>2019-09-13T10:00:42Z</time>
      </trkpt>
      <trkpt lat="46.58208" lon="4.91277">
        <ele>239.39999389648</ele>
        <time>2019-09-13T10:00:52Z</time>
      </trkpt>
      <trkpt lat="46.58202" lon="4.91274">
        <ele>239.39999389648</ele>
        <time>2019-09-13T10:00:53Z</time>
      </trkpt>
      <trkpt lat="46.58169" lon="4.91255">
        <ele>239.39999389648</ele>
        <time>2019-09-13T10:00:59Z</time>
      </trkpt>
      <trkpt lat="46.58119" lon="4.9123">
        <ele>239.39999389648</ele>
        <time>2019-09-13T10:01:08Z</time>
      </trkpt>
      <trkpt lat="46.58069" lon="4.91212">
        <ele>239.80000305176</ele>
        <time>2019-09-13T10:01:17Z</time>
      </trkpt>
      <trkpt lat="46.58017" lon="4.912">
        <ele>240.19999694824</ele>
        <time>2019-09-13T10:01:26Z</time>
      </trkpt>
      <trkpt lat="46.57964" lon="4.91196">
        <ele>240.19999694824</ele>
        <time>2019-09-13T10:01:35Z</time>
      </trkpt>
      <trkpt lat="46.57924" lon="4.912">
        <ele>240.19999694824</ele>
        <time>2019-09-13T10:01:42Z</time>
      </trkpt>
      <trkpt lat="46.57891" lon="4.91201">
        <ele>240.19999694824</ele>
        <time>2019-09-13T10:01:48Z</time>
      </trkpt>
      <trkpt lat="46.5785" lon="4.91196">
        <ele>240.19999694824</ele>
        <time>2019-09-13T10:01:56Z</time>
      </trkpt>
      <trkpt lat="46.57825" lon="4.91191">
        <ele>240</ele>
        <time>2019-09-13T10:02:01Z</time>
      </trkpt>
      <trkpt lat="46.5782" lon="4.91191">
        <ele>240</ele>
        <time>2019-09-13T10:02:02Z</time>
      </trkpt>
      <trkpt lat="46.5778" lon="4.9119">
        <ele>240</ele>
        <time>2019-09-13T10:02:09Z</time>
      </trkpt>
      <trkpt lat="46.57745" lon="4.91188">
        <ele>239.80000305176</ele>
        <time>2019-09-13T10:02:15Z</time>
      </trkpt>
      <trkpt lat="46.57687" lon="4.91185">
        <ele>239.80000305176</ele>
        <time>2019-09-13T10:02:25Z</time>
      </trkpt>
      <trkpt lat="46.57652" lon="4.91183">
        <ele>240</ele>
        <time>2019-09-13T10:02:31Z</time>
      </trkpt>
      <trkpt lat="46.57617" lon="4.91183">
        <ele>240</ele>
        <time>2019-09-13T10:02:37Z</time>
      </trkpt>
      <trkpt lat="46.57606" lon="4.91185">
        <ele>240</ele>
        <time>2019-09-13T10:02:39Z</time>
      </trkpt>
      <trkpt lat="46.57555" lon="4.91198">
        <ele>240.19999694824</ele>
        <time>2019-09-13T10:02:48Z</time>
      </trkpt>
      <trkpt lat="46.57508" lon="4.91208">
        <ele>240</ele>
        <time>2019-09-13T10:02:56Z</time>
      </trkpt>
      <trkpt lat="46.5746" lon="4.91217">
        <ele>240.19999694824</ele>
        <time>2019-09-13T10:03:04Z</time>
      </trkpt>
      <trkpt lat="46.57408" lon="4.91227">
        <ele>240.19999694824</ele>
        <time>2019-09-13T10:03:13Z</time>
      </trkpt>
      <trkpt lat="46.57368" lon="4.91233">
        <ele>240.19999694824</ele>
        <time>2019-09-13T10:03:20Z</time>
      </trkpt>
      <trkpt lat="46.57318" lon="4.91239">
        <ele>240.19999694824</ele>
        <time>2019-09-13T10:03:29Z</time>
      </trkpt>
      <trkpt lat="46.57277" lon="4.91243">
        <ele>240</ele>
        <time>2019-09-13T10:03:36Z</time>
      </trkpt>
      <trkpt lat="46.5723" lon="4.91236">
        <ele>239.80000305176</ele>
        <time>2019-09-13T10:03:44Z</time>
      </trkpt>
      <trkpt lat="46.57178" lon="4.91233">
        <ele>239.80000305176</ele>
        <time>2019-09-13T10:03:53Z</time>
      </trkpt>
      <trkpt lat="46.57131" lon="4.91224">
        <ele>239.80000305176</ele>
        <time>2019-09-13T10:04:01Z</time>
      </trkpt>
      <trkpt lat="46.57083" lon="4.91213">
        <ele>239.80000305176</ele>
        <time>2019-09-13T10:04:10Z</time>
      </trkpt>
      <trkpt lat="46.57056" lon="4.91206">
        <ele>239.60000610352</ele>
        <time>2019-09-13T10:04:16Z</time>
      </trkpt>
      <trkpt lat="46.57025" lon="4.91195">
        <ele>239.80000305176</ele>
        <time>2019-09-13T10:04:23Z</time>
      </trkpt>
      <trkpt lat="46.5698" lon="4.91182">
        <ele>239.80000305176</ele>
        <time>2019-09-13T10:04:31Z</time>
      </trkpt>
      <trkpt lat="46.56969" lon="4.91179">
        <ele>239.80000305176</ele>
        <time>2019-09-13T10:04:33Z</time>
      </trkpt>
      <trkpt lat="46.56946" lon="4.9117">
        <ele>239.80000305176</ele>
        <time>2019-09-13T10:04:37Z</time>
      </trkpt>
      <trkpt lat="46.56904" lon="4.91156">
        <ele>240</ele>
        <time>2019-09-13T10:04:44Z</time>
      </trkpt>
      <trkpt lat="46.56864" lon="4.91145">
        <ele>240</ele>
        <time>2019-09-13T10:04:51Z</time>
      </trkpt>
      <trkpt lat="46.56813" lon="4.9113">
        <ele>240</ele>
        <time>2019-09-13T10:05:00Z</time>
      </trkpt>
      <trkpt lat="46.56774" lon="4.9112">
        <ele>240</ele>
        <time>2019-09-13T10:05:07Z</time>
      </trkpt>
      <trkpt lat="46.56738" lon="4.91116">
        <ele>240</ele>
        <time>2019-09-13T10:05:14Z</time>
      </trkpt>
      <trkpt lat="46.56709" lon="4.91112">
        <ele>240.60000610352</ele>
        <time>2019-09-13T10:05:20Z</time>
      </trkpt>
      <trkpt lat="46.56679" lon="4.91114">
        <ele>240.80000305176</ele>
        <time>2019-09-13T10:05:27Z</time>
      </trkpt>
      <trkpt lat="46.56666" lon="4.91113">
        <ele>240.80000305176</ele>
        <time>2019-09-13T10:05:31Z</time>
      </trkpt>
      <trkpt lat="46.5665" lon="4.91122">
        <ele>240.80000305176</ele>
        <time>2019-09-13T10:05:37Z</time>
      </trkpt>
      <trkpt lat="46.56636" lon="4.91119">
        <ele>240.80000305176</ele>
        <time>2019-09-13T10:05:42Z</time>
      </trkpt>
      <trkpt lat="46.56622" lon="4.91121">
        <ele>241</ele>
        <time>2019-09-13T10:05:47Z</time>
      </trkpt>
      <trkpt lat="46.56607" lon="4.91121">
        <ele>241</ele>
        <time>2019-09-13T10:05:53Z</time>
      </trkpt>
      <trkpt lat="46.56591" lon="4.91117">
        <ele>241</ele>
        <time>2019-09-13T10:05:58Z</time>
      </trkpt>
      <trkpt lat="46.56572" lon="4.91122">
        <ele>241.19999694824</ele>
        <time>2019-09-13T10:06:03Z</time>
      </trkpt>
      <trkpt lat="46.56547" lon="4.91135">
        <ele>241.39999389648</ele>
        <time>2019-09-13T10:06:09Z</time>
      </trkpt>
      <trkpt lat="46.56509" lon="4.91157">
        <ele>241.39999389648</ele>
        <time>2019-09-13T10:06:17Z</time>
      </trkpt>
      <trkpt lat="46.56476" lon="4.91174">
        <ele>241.60000610352</ele>
        <time>2019-09-13T10:06:24Z</time>
      </trkpt>
      <trkpt lat="46.5644" lon="4.91189">
        <ele>241.80000305176</ele>
        <time>2019-09-13T10:06:32Z</time>
      </trkpt>
      <trkpt lat="46.56438" lon="4.9119">
        <ele>242</ele>
        <time>2019-09-13T10:06:33Z</time>
      </trkpt>
      <trkpt lat="46.5643" lon="4.91195">
        <ele>242.39999389648</ele>
        <time>2019-09-13T10:06:36Z</time>
      </trkpt>
      <trkpt lat="46.56423" lon="4.91198">
        <ele>243</ele>
        <time>2019-09-13T10:06:39Z</time>
      </trkpt>
      <trkpt lat="46.56416" lon="4.91202">
        <ele>243.39999389648</ele>
        <time>2019-09-13T10:06:42Z</time>
      </trkpt>
      <trkpt lat="46.56407" lon="4.91207">
        <ele>244.19999694824</ele>
        <time>2019-09-13T10:06:45Z</time>
      </trkpt>
      <trkpt lat="46.564" lon="4.9121">
        <ele>244.60000610352</ele>
        <time>2019-09-13T10:06:47Z</time>
      </trkpt>
      <trkpt lat="46.56387" lon="4.91218">
        <ele>245.19999694824</ele>
        <time>2019-09-13T10:06:50Z</time>
      </trkpt>
      <trkpt lat="46.56377" lon="4.91225">
        <ele>245.19999694824</ele>
        <time>2019-09-13T10:06:52Z</time>
      </trkpt>
      <trkpt lat="46.56345" lon="4.91241">
        <ele>245.39999389648</ele>
        <time>2019-09-13T10:06:57Z</time>
      </trkpt>
      <trkpt lat="46.56308" lon="4.91264">
        <ele>244.19999694824</ele>
        <time>2019-09-13T10:07:03Z</time>
      </trkpt>
      <trkpt lat="46.56303" lon="4.91268">
        <ele>243.80000305176</ele>
        <time>2019-09-13T10:07:04Z</time>
      </trkpt>
      <trkpt lat="46.56288" lon="4.9128">
        <ele>243</ele>
        <time>2019-09-13T10:07:07Z</time>
      </trkpt>
      <trkpt lat="46.56279" lon="4.91287">
        <ele>242.19999694824</ele>
        <time>2019-09-13T10:07:09Z</time>
      </trkpt>
      <trkpt lat="46.56271" lon="4.91294">
        <ele>242</ele>
        <time>2019-09-13T10:07:11Z</time>
      </trkpt>
      <trkpt lat="46.56248" lon="4.91313">
        <ele>242</ele>
        <time>2019-09-13T10:07:16Z</time>
      </trkpt>
      <trkpt lat="46.56236" lon="4.91324">
        <ele>242</ele>
        <time>2019-09-13T10:07:19Z</time>
      </trkpt>
      <trkpt lat="46.56222" lon="4.91335">
        <ele>242</ele>
        <time>2019-09-13T10:07:22Z</time>
      </trkpt>
      <trkpt lat="46.5619" lon="4.91362">
        <ele>242</ele>
        <time>2019-09-13T10:07:29Z</time>
      </trkpt>
      <trkpt lat="46.56147" lon="4.91399">
        <ele>242.19999694824</ele>
        <time>2019-09-13T10:07:38Z</time>
      </trkpt>
      <trkpt lat="46.56115" lon="4.91433">
        <ele>242.19999694824</ele>
        <time>2019-09-13T10:07:45Z</time>
      </trkpt>
      <trkpt lat="46.56081" lon="4.91468">
        <ele>242.39999389648</ele>
        <time>2019-09-13T10:07:52Z</time>
      </trkpt>
      <trkpt lat="46.56046" lon="4.91504">
        <ele>242.39999389648</ele>
        <time>2019-09-13T10:07:59Z</time>
      </trkpt>
      <trkpt lat="46.56023" lon="4.91528">
        <ele>242.19999694824</ele>
        <time>2019-09-13T10:08:04Z</time>
      </trkpt>
      <trkpt lat="46.56018" lon="4.91533">
        <ele>242.19999694824</ele>
        <time>2019-09-13T10:08:05Z</time>
      </trkpt>
      <trkpt lat="46.55982" lon="4.9156">
        <ele>242.19999694824</ele>
        <time>2019-09-13T10:08:12Z</time>
      </trkpt>
      <trkpt lat="46.55937" lon="4.9159">
        <ele>242</ele>
        <time>2019-09-13T10:08:20Z</time>
      </trkpt>
      <trkpt lat="46.55893" lon="4.91618">
        <ele>241.80000305176</ele>
        <time>2019-09-13T10:08:28Z</time>
      </trkpt>
      <trkpt lat="46.55845" lon="4.91646">
        <ele>241.80000305176</ele>
        <time>2019-09-13T10:08:37Z</time>
      </trkpt>
      <trkpt lat="46.55823" lon="4.91659">
        <ele>242</ele>
        <time>2019-09-13T10:08:41Z</time>
      </trkpt>
      <trkpt lat="46.55807" lon="4.91672">
        <ele>242</ele>
        <time>2019-09-13T10:08:44Z</time>
      </trkpt>
      <trkpt lat="46.5577" lon="4.91695">
        <ele>242</ele>
        <time>2019-09-13T10:08:51Z</time>
      </trkpt>
      <trkpt lat="46.55754" lon="4.91705">
        <ele>242</ele>
        <time>2019-09-13T10:08:54Z</time>
      </trkpt>
      <trkpt lat="46.55744" lon="4.9171">
        <ele>242</ele>
        <time>2019-09-13T10:08:56Z</time>
      </trkpt>
      <trkpt lat="46.55734" lon="4.91717">
        <ele>242</ele>
        <time>2019-09-13T10:08:58Z</time>
      </trkpt>
      <trkpt lat="46.55713" lon="4.91726">
        <ele>242.19999694824</ele>
        <time>2019-09-13T10:09:02Z</time>
      </trkpt>
      <trkpt lat="46.55702" lon="4.91732">
        <ele>242.19999694824</ele>
        <time>2019-09-13T10:09:04Z</time>
      </trkpt>
      <trkpt lat="46.55679" lon="4.9174">
        <ele>242.19999694824</ele>
        <time>2019-09-13T10:09:08Z</time>
      </trkpt>
      <trkpt lat="46.55636" lon="4.9175">
        <ele>242</ele>
        <time>2019-09-13T10:09:15Z</time>
      </trkpt>
      <trkpt lat="46.55602" lon="4.91758">
        <ele>241.80000305176</ele>
        <time>2019-09-13T10:09:21Z</time>
      </trkpt>
      <trkpt lat="46.55566" lon="4.9177">
        <ele>241.80000305176</ele>
        <time>2019-09-13T10:09:28Z</time>
      </trkpt>
      <trkpt lat="46.55535" lon="4.91781">
        <ele>242.39999389648</ele>
        <time>2019-09-13T10:09:34Z</time>
      </trkpt>
      <trkpt lat="46.55515" lon="4.91791">
        <ele>242.39999389648</ele>
        <time>2019-09-13T10:09:38Z</time>
      </trkpt>
      <trkpt lat="46.55505" lon="4.91795">
        <ele>242.39999389648</ele>
        <time>2019-09-13T10:09:40Z</time>
      </trkpt>
      <trkpt lat="46.55464" lon="4.91819">
        <ele>242.19999694824</ele>
        <time>2019-09-13T10:09:48Z</time>
      </trkpt>
      <trkpt lat="46.55414" lon="4.91847">
        <ele>242</ele>
        <time>2019-09-13T10:09:57Z</time>
      </trkpt>
      <trkpt lat="46.55403" lon="4.91853">
        <ele>241.80000305176</ele>
        <time>2019-09-13T10:09:59Z</time>
      </trkpt>
      <trkpt lat="46.55386" lon="4.91863">
        <ele>241.80000305176</ele>
        <time>2019-09-13T10:10:02Z</time>
      </trkpt>
      <trkpt lat="46.55352" lon="4.91879">
        <ele>241.19999694824</ele>
        <time>2019-09-13T10:10:08Z</time>
      </trkpt>
      <trkpt lat="46.55346" lon="4.91882">
        <ele>241.19999694824</ele>
        <time>2019-09-13T10:10:09Z</time>
      </trkpt>
      <trkpt lat="46.55314" lon="4.91899">
        <ele>240.80000305176</ele>
        <time>2019-09-13T10:10:15Z</time>
      </trkpt>
      <trkpt lat="46.5528" lon="4.91916">
        <ele>240.80000305176</ele>
        <time>2019-09-13T10:10:21Z</time>
      </trkpt>
      <trkpt lat="46.55247" lon="4.91934">
        <ele>240.60000610352</ele>
        <time>2019-09-13T10:10:27Z</time>
      </trkpt>
      <trkpt lat="46.5522" lon="4.91948">
        <ele>240.80000305176</ele>
        <time>2019-09-13T10:10:32Z</time>
      </trkpt>
      <trkpt lat="46.55178" lon="4.9197">
        <ele>240.60000610352</ele>
        <time>2019-09-13T10:10:40Z</time>
      </trkpt>
      <trkpt lat="46.5514" lon="4.91987">
        <ele>240.60000610352</ele>
        <time>2019-09-13T10:10:47Z</time>
      </trkpt>
      <trkpt lat="46.55091" lon="4.92007">
        <ele>241</ele>
        <time>2019-09-13T10:10:56Z</time>
      </trkpt>
      <trkpt lat="46.55045" lon="4.92022">
        <ele>241.39999389648</ele>
        <time>2019-09-13T10:11:04Z</time>
      </trkpt>
      <trkpt lat="46.54991" lon="4.92041">
        <ele>241.39999389648</ele>
        <time>2019-09-13T10:11:13Z</time>
      </trkpt>
      <trkpt lat="46.54951" lon="4.92058">
        <ele>241.19999694824</ele>
        <time>2019-09-13T10:11:20Z</time>
      </trkpt>
      <trkpt lat="46.54906" lon="4.9208">
        <ele>241</ele>
        <time>2019-09-13T10:11:28Z</time>
      </trkpt>
      <trkpt lat="46.54865" lon="4.92104">
        <ele>241.19999694824</ele>
        <time>2019-09-13T10:11:35Z</time>
      </trkpt>
      <trkpt lat="46.54827" lon="4.92134">
        <ele>241</ele>
        <time>2019-09-13T10:11:42Z</time>
      </trkpt>
      <trkpt lat="46.54789" lon="4.92178">
        <ele>240.80000305176</ele>
        <time>2019-09-13T10:11:50Z</time>
      </trkpt>
      <trkpt lat="46.54754" lon="4.92211">
        <ele>240.80000305176</ele>
        <time>2019-09-13T10:11:57Z</time>
      </trkpt>
      <trkpt lat="46.54718" lon="4.92243">
        <ele>241</ele>
        <time>2019-09-13T10:12:04Z</time>
      </trkpt>
      <trkpt lat="46.54684" lon="4.92268">
        <ele>241</ele>
        <time>2019-09-13T10:12:10Z</time>
      </trkpt>
      <trkpt lat="46.54639" lon="4.92295">
        <ele>241</ele>
        <time>2019-09-13T10:12:18Z</time>
      </trkpt>
      <trkpt lat="46.54588" lon="4.92324">
        <ele>241</ele>
        <time>2019-09-13T10:12:27Z</time>
      </trkpt>
      <trkpt lat="46.54583" lon="4.92328">
        <ele>241</ele>
        <time>2019-09-13T10:12:28Z</time>
      </trkpt>
      <trkpt lat="46.54535" lon="4.92361">
        <ele>241</ele>
        <time>2019-09-13T10:12:37Z</time>
      </trkpt>
      <trkpt lat="46.54495" lon="4.92394">
        <ele>241</ele>
        <time>2019-09-13T10:12:45Z</time>
      </trkpt>
      <trkpt lat="46.54456" lon="4.92425">
        <ele>241</ele>
        <time>2019-09-13T10:12:53Z</time>
      </trkpt>
      <trkpt lat="46.54421" lon="4.92448">
        <ele>241</ele>
        <time>2019-09-13T10:13:00Z</time>
      </trkpt>
      <trkpt lat="46.54382" lon="4.92465">
        <ele>241.60000610352</ele>
        <time>2019-09-13T10:13:07Z</time>
      </trkpt>
      <trkpt lat="46.5436" lon="4.92471">
        <ele>242</ele>
        <time>2019-09-13T10:13:11Z</time>
      </trkpt>
      <trkpt lat="46.54349" lon="4.92477">
        <ele>242.19999694824</ele>
        <time>2019-09-13T10:13:13Z</time>
      </trkpt>
      <trkpt lat="46.54302" lon="4.92505">
        <ele>242.19999694824</ele>
        <time>2019-09-13T10:13:22Z</time>
      </trkpt>
      <trkpt lat="46.54291" lon="4.92512">
        <ele>242.19999694824</ele>
        <time>2019-09-13T10:13:24Z</time>
      </trkpt>
      <trkpt lat="46.54265" lon="4.92531">
        <ele>242.19999694824</ele>
        <time>2019-09-13T10:13:29Z</time>
      </trkpt>
      <trkpt lat="46.54231" lon="4.92548">
        <ele>241.80000305176</ele>
        <time>2019-09-13T10:13:35Z</time>
      </trkpt>
      <trkpt lat="46.54179" lon="4.92573">
        <ele>242</ele>
        <time>2019-09-13T10:13:44Z</time>
      </trkpt>
      <trkpt lat="46.54173" lon="4.92576">
        <ele>242</ele>
        <time>2019-09-13T10:13:45Z</time>
      </trkpt>
      <trkpt lat="46.54122" lon="4.92602">
        <ele>242</ele>
        <time>2019-09-13T10:13:54Z</time>
      </trkpt>
      <trkpt lat="46.5407" lon="4.92626">
        <ele>241.80000305176</ele>
        <time>2019-09-13T10:14:03Z</time>
      </trkpt>
      <trkpt lat="46.54064" lon="4.92629">
        <ele>241.80000305176</ele>
        <time>2019-09-13T10:14:04Z</time>
      </trkpt>
      <trkpt lat="46.54018" lon="4.92645">
        <ele>241.39999389648</ele>
        <time>2019-09-13T10:14:12Z</time>
      </trkpt>
      <trkpt lat="46.53989" lon="4.92656">
        <ele>241.39999389648</ele>
        <time>2019-09-13T10:14:18Z</time>
      </trkpt>
      <trkpt lat="46.5396" lon="4.9267">
        <ele>241.39999389648</ele>
        <time>2019-09-13T10:14:24Z</time>
      </trkpt>
      <trkpt lat="46.53922" lon="4.92685">
        <ele>241.39999389648</ele>
        <time>2019-09-13T10:14:31Z</time>
      </trkpt>
      <trkpt lat="46.53883" lon="4.92703">
        <ele>241.39999389648</ele>
        <time>2019-09-13T10:14:38Z</time>
      </trkpt>
      <trkpt lat="46.53834" lon="4.92733">
        <ele>241.60000610352</ele>
        <time>2019-09-13T10:14:47Z</time>
      </trkpt>
      <trkpt lat="46.5379" lon="4.92759">
        <ele>241.39999389648</ele>
        <time>2019-09-13T10:14:55Z</time>
      </trkpt>
      <trkpt lat="46.53739" lon="4.92789">
        <ele>241.39999389648</ele>
        <time>2019-09-13T10:15:04Z</time>
      </trkpt>
      <trkpt lat="46.53733" lon="4.92791">
        <ele>241.39999389648</ele>
        <time>2019-09-13T10:15:05Z</time>
      </trkpt>
      <trkpt lat="46.53682" lon="4.92819">
        <ele>241.39999389648</ele>
        <time>2019-09-13T10:15:14Z</time>
      </trkpt>
      <trkpt lat="46.5364" lon="4.92844">
        <ele>241.19999694824</ele>
        <time>2019-09-13T10:15:22Z</time>
      </trkpt>
      <trkpt lat="46.53592" lon="4.9287">
        <ele>241.80000305176</ele>
        <time>2019-09-13T10:15:31Z</time>
      </trkpt>
      <trkpt lat="46.53568" lon="4.92882">
        <ele>242</ele>
        <time>2019-09-13T10:15:36Z</time>
      </trkpt>
      <trkpt lat="46.53558" lon="4.92887">
        <ele>242.19999694824</ele>
        <time>2019-09-13T10:15:38Z</time>
      </trkpt>
      <trkpt lat="46.53536" lon="4.92901">
        <ele>243</ele>
        <time>2019-09-13T10:15:44Z</time>
      </trkpt>
      <trkpt lat="46.53528" lon="4.92907">
        <ele>243.19999694824</ele>
        <time>2019-09-13T10:15:46Z</time>
      </trkpt>
      <trkpt lat="46.5351" lon="4.92918">
        <ele>243.60000610352</ele>
        <time>2019-09-13T10:15:51Z</time>
      </trkpt>
      <trkpt lat="46.53493" lon="4.92931">
        <ele>243.80000305176</ele>
        <time>2019-09-13T10:15:56Z</time>
      </trkpt>
      <trkpt lat="46.53481" lon="4.9294">
        <ele>243.60000610352</ele>
        <time>2019-09-13T10:15:59Z</time>
      </trkpt>
      <trkpt lat="46.53467" lon="4.92946">
        <ele>243.39999389648</ele>
        <time>2019-09-13T10:16:02Z</time>
      </trkpt>
      <trkpt lat="46.53436" lon="4.9297">
        <ele>243.19999694824</ele>
        <time>2019-09-13T10:16:08Z</time>
      </trkpt>
      <trkpt lat="46.53403" lon="4.92996">
        <ele>242.19999694824</ele>
        <time>2019-09-13T10:16:15Z</time>
      </trkpt>
      <trkpt lat="46.53398" lon="4.92999">
        <ele>242.19999694824</ele>
        <time>2019-09-13T10:16:16Z</time>
      </trkpt>
      <trkpt lat="46.53369" lon="4.93019">
        <ele>241.60000610352</ele>
        <time>2019-09-13T10:16:22Z</time>
      </trkpt>
      <trkpt lat="46.53354" lon="4.9303">
        <ele>241.60000610352</ele>
        <time>2019-09-13T10:16:25Z</time>
      </trkpt>
      <trkpt lat="46.53339" lon="4.93041">
        <ele>241.39999389648</ele>
        <time>2019-09-13T10:16:28Z</time>
      </trkpt>
      <trkpt lat="46.53309" lon="4.93065">
        <ele>241.39999389648</ele>
        <time>2019-09-13T10:16:35Z</time>
      </trkpt>
      <trkpt lat="46.53278" lon="4.93094">
        <ele>241.60000610352</ele>
        <time>2019-09-13T10:16:42Z</time>
      </trkpt>
      <trkpt lat="46.53249" lon="4.93114">
        <ele>241.60000610352</ele>
        <time>2019-09-13T10:16:48Z</time>
      </trkpt>
      <trkpt lat="46.53209" lon="4.93147">
        <ele>241.80000305176</ele>
        <time>2019-09-13T10:16:56Z</time>
      </trkpt>
      <trkpt lat="46.53168" lon="4.93178">
        <ele>241.80000305176</ele>
        <time>2019-09-13T10:17:04Z</time>
      </trkpt>
      <trkpt lat="46.53123" lon="4.93207">
        <ele>242</ele>
        <time>2019-09-13T10:17:13Z</time>
      </trkpt>
      <trkpt lat="46.53087" lon="4.93235">
        <ele>242.39999389648</ele>
        <time>2019-09-13T10:17:21Z</time>
      </trkpt>
      <trkpt lat="46.53053" lon="4.93267">
        <ele>242.80000305176</ele>
        <time>2019-09-13T10:17:29Z</time>
      </trkpt>
      <trkpt lat="46.53023" lon="4.93297">
        <ele>243</ele>
        <time>2019-09-13T10:17:36Z</time>
      </trkpt>
      <trkpt lat="46.52993" lon="4.93327">
        <ele>242.80000305176</ele>
        <time>2019-09-13T10:17:43Z</time>
      </trkpt>
      <trkpt lat="46.52963" lon="4.93356">
        <ele>242.80000305176</ele>
        <time>2019-09-13T10:17:50Z</time>
      </trkpt>
      <trkpt lat="46.52959" lon="4.9336">
        <ele>242.60000610352</ele>
        <time>2019-09-13T10:17:51Z</time>
      </trkpt>
      <trkpt lat="46.52933" lon="4.93387">
        <ele>242.39999389648</ele>
        <time>2019-09-13T10:17:57Z</time>
      </trkpt>
      <trkpt lat="46.5289" lon="4.9342">
        <ele>242</ele>
        <time>2019-09-13T10:18:05Z</time>
      </trkpt>
      <trkpt lat="46.52856" lon="4.93445">
        <ele>241.80000305176</ele>
        <time>2019-09-13T10:18:12Z</time>
      </trkpt>
      <trkpt lat="46.5282" lon="4.93474">
        <ele>241.60000610352</ele>
        <time>2019-09-13T10:18:19Z</time>
      </trkpt>
      <trkpt lat="46.52788" lon="4.93499">
        <ele>241.60000610352</ele>
        <time>2019-09-13T10:18:25Z</time>
      </trkpt>
      <trkpt lat="46.52755" lon="4.93523">
        <ele>241.60000610352</ele>
        <time>2019-09-13T10:18:31Z</time>
      </trkpt>
      <trkpt lat="46.52726" lon="4.93537">
        <ele>241.19999694824</ele>
        <time>2019-09-13T10:18:36Z</time>
      </trkpt>
      <trkpt lat="46.52714" lon="4.93542">
        <ele>241.19999694824</ele>
        <time>2019-09-13T10:18:38Z</time>
      </trkpt>
      <trkpt lat="46.52666" lon="4.93562">
        <ele>240.80000305176</ele>
        <time>2019-09-13T10:18:46Z</time>
      </trkpt>
      <trkpt lat="46.52626" lon="4.93581">
        <ele>240.60000610352</ele>
        <time>2019-09-13T10:18:53Z</time>
      </trkpt>
      <trkpt lat="46.52584" lon="4.93596">
        <ele>240.60000610352</ele>
        <time>2019-09-13T10:19:00Z</time>
      </trkpt>
      <trkpt lat="46.52544" lon="4.93601">
        <ele>240.60000610352</ele>
        <time>2019-09-13T10:19:07Z</time>
      </trkpt>
      <trkpt lat="46.52527" lon="4.93603">
        <ele>240.60000610352</ele>
        <time>2019-09-13T10:19:10Z</time>
      </trkpt>
      <trkpt lat="46.52505" lon="4.9361">
        <ele>241</ele>
        <time>2019-09-13T10:19:14Z</time>
      </trkpt>
      <trkpt lat="46.52459" lon="4.93628">
        <ele>241.60000610352</ele>
        <time>2019-09-13T10:19:22Z</time>
      </trkpt>
      <trkpt lat="46.52416" lon="4.93633">
        <ele>241.60000610352</ele>
        <time>2019-09-13T10:19:29Z</time>
      </trkpt>
      <trkpt lat="46.52377" lon="4.93641">
        <ele>241.60000610352</ele>
        <time>2019-09-13T10:19:36Z</time>
      </trkpt>
      <trkpt lat="46.52359" lon="4.93648">
        <ele>241.80000305176</ele>
        <time>2019-09-13T10:19:39Z</time>
      </trkpt>
      <trkpt lat="46.52348" lon="4.93655">
        <ele>241.80000305176</ele>
        <time>2019-09-13T10:19:41Z</time>
      </trkpt>
      <trkpt lat="46.52308" lon="4.93675">
        <ele>241.80000305176</ele>
        <time>2019-09-13T10:19:48Z</time>
      </trkpt>
      <trkpt lat="46.52268" lon="4.93684">
        <ele>241.60000610352</ele>
        <time>2019-09-13T10:19:55Z</time>
      </trkpt>
      <trkpt lat="46.52223" lon="4.93689">
        <ele>241.39999389648</ele>
        <time>2019-09-13T10:20:03Z</time>
      </trkpt>
      <trkpt lat="46.52178" lon="4.9369">
        <ele>241.39999389648</ele>
        <time>2019-09-13T10:20:11Z</time>
      </trkpt>
      <trkpt lat="46.52136" lon="4.93693">
        <ele>241.80000305176</ele>
        <time>2019-09-13T10:20:19Z</time>
      </trkpt>
      <trkpt lat="46.5209" lon="4.937">
        <ele>242</ele>
        <time>2019-09-13T10:20:28Z</time>
      </trkpt>
      <trkpt lat="46.52048" lon="4.93706">
        <ele>242.19999694824</ele>
        <time>2019-09-13T10:20:36Z</time>
      </trkpt>
      <trkpt lat="46.52023" lon="4.93707">
        <ele>242.19999694824</ele>
        <time>2019-09-13T10:20:41Z</time>
      </trkpt>
      <trkpt lat="46.52" lon="4.93702">
        <ele>242.19999694824</ele>
        <time>2019-09-13T10:20:46Z</time>
      </trkpt>
      <trkpt lat="46.51973" lon="4.93692">
        <ele>242.19999694824</ele>
        <time>2019-09-13T10:20:51Z</time>
      </trkpt>
      <trkpt lat="46.51935" lon="4.93682">
        <ele>242</ele>
        <time>2019-09-13T10:20:57Z</time>
      </trkpt>
      <trkpt lat="46.51897" lon="4.93671">
        <ele>242</ele>
        <time>2019-09-13T10:21:04Z</time>
      </trkpt>
      <trkpt lat="46.51868" lon="4.93665">
        <ele>242.19999694824</ele>
        <time>2019-09-13T10:21:10Z</time>
      </trkpt>
      <trkpt lat="46.51838" lon="4.93656">
        <ele>242.19999694824</ele>
        <time>2019-09-13T10:21:16Z</time>
      </trkpt>
      <trkpt lat="46.51803" lon="4.93643">
        <ele>241.80000305176</ele>
        <time>2019-09-13T10:21:23Z</time>
      </trkpt>
      <trkpt lat="46.51769" lon="4.93625">
        <ele>241.80000305176</ele>
        <time>2019-09-13T10:21:29Z</time>
      </trkpt>
      <trkpt lat="46.51724" lon="4.936">
        <ele>242</ele>
        <time>2019-09-13T10:21:37Z</time>
      </trkpt>
      <trkpt lat="46.51685" lon="4.93574">
        <ele>242</ele>
        <time>2019-09-13T10:21:44Z</time>
      </trkpt>
      <trkpt lat="46.5165" lon="4.9355">
        <ele>242.19999694824</ele>
        <time>2019-09-13T10:21:51Z</time>
      </trkpt>
      <trkpt lat="46.51645" lon="4.93547">
        <ele>242.39999389648</ele>
        <time>2019-09-13T10:21:52Z</time>
      </trkpt>
      <trkpt lat="46.51621" lon="4.93527">
        <ele>242.39999389648</ele>
        <time>2019-09-13T10:21:57Z</time>
      </trkpt>
      <trkpt lat="46.51577" lon="4.93488">
        <ele>242.39999389648</ele>
        <time>2019-09-13T10:22:05Z</time>
      </trkpt>
      <trkpt lat="46.51543" lon="4.93452">
        <ele>242.39999389648</ele>
        <time>2019-09-13T10:22:12Z</time>
      </trkpt>
      <trkpt lat="46.51523" lon="4.93429">
        <ele>242.39999389648</ele>
        <time>2019-09-13T10:22:17Z</time>
      </trkpt>
      <trkpt lat="46.51496" lon="4.93398">
        <ele>242.19999694824</ele>
        <time>2019-09-13T10:22:23Z</time>
      </trkpt>
      <trkpt lat="46.51464" lon="4.93363">
        <ele>242.19999694824</ele>
        <time>2019-09-13T10:22:29Z</time>
      </trkpt>
      <trkpt lat="46.51417" lon="4.93312">
        <ele>242</ele>
        <time>2019-09-13T10:22:38Z</time>
      </trkpt>
      <trkpt lat="46.51373" lon="4.93267">
        <ele>241.80000305176</ele>
        <time>2019-09-13T10:22:47Z</time>
      </trkpt>
      <trkpt lat="46.5136" lon="4.93254">
        <ele>241.80000305176</ele>
        <time>2019-09-13T10:22:50Z</time>
      </trkpt>
      <trkpt lat="46.51347" lon="4.93241">
        <ele>242</ele>
        <time>2019-09-13T10:22:53Z</time>
      </trkpt>
      <trkpt lat="46.51317" lon="4.93213">
        <ele>242.19999694824</ele>
        <time>2019-09-13T10:22:59Z</time>
      </trkpt>
      <trkpt lat="46.51283" lon="4.93182">
        <ele>242.19999694824</ele>
        <time>2019-09-13T10:23:06Z</time>
      </trkpt>
      <trkpt lat="46.51253" lon="4.93155">
        <ele>242.19999694824</ele>
        <time>2019-09-13T10:23:12Z</time>
      </trkpt>
      <trkpt lat="46.51204" lon="4.93105">
        <ele>242.19999694824</ele>
        <time>2019-09-13T10:23:22Z</time>
      </trkpt>
      <trkpt lat="46.51157" lon="4.93069">
        <ele>242</ele>
        <time>2019-09-13T10:23:31Z</time>
      </trkpt>
      <trkpt lat="46.51111" lon="4.9303">
        <ele>242</ele>
        <time>2019-09-13T10:23:40Z</time>
      </trkpt>
      <trkpt lat="46.5108" lon="4.93008">
        <ele>242.19999694824</ele>
        <time>2019-09-13T10:23:46Z</time>
      </trkpt>
      <trkpt lat="46.51031" lon="4.92978">
        <ele>242.19999694824</ele>
        <time>2019-09-13T10:23:55Z</time>
      </trkpt>
      <trkpt lat="46.50986" lon="4.92954">
        <ele>242.19999694824</ele>
        <time>2019-09-13T10:24:03Z</time>
      </trkpt>
      <trkpt lat="46.50943" lon="4.92932">
        <ele>242.19999694824</ele>
        <time>2019-09-13T10:24:11Z</time>
      </trkpt>
      <trkpt lat="46.50932" lon="4.92928">
        <ele>242.19999694824</ele>
        <time>2019-09-13T10:24:13Z</time>
      </trkpt>
      <trkpt lat="46.50918" lon="4.92923">
        <ele>242.19999694824</ele>
        <time>2019-09-13T10:24:16Z</time>
      </trkpt>
      <trkpt lat="46.50886" lon="4.9291">
        <ele>242.19999694824</ele>
        <time>2019-09-13T10:24:22Z</time>
      </trkpt>
      <trkpt lat="46.50839" lon="4.92897">
        <ele>242</ele>
        <time>2019-09-13T10:24:30Z</time>
      </trkpt>
      <trkpt lat="46.50792" lon="4.92886">
        <ele>242</ele>
        <time>2019-09-13T10:24:38Z</time>
      </trkpt>
      <trkpt lat="46.50776" lon="4.9288">
        <ele>242</ele>
        <time>2019-09-13T10:24:41Z</time>
      </trkpt>
      <trkpt lat="46.50765" lon="4.92878">
        <ele>242</ele>
        <time>2019-09-13T10:24:43Z</time>
      </trkpt>
      <trkpt lat="46.50723" lon="4.92869">
        <ele>242.39999389648</ele>
        <time>2019-09-13T10:24:50Z</time>
      </trkpt>
      <trkpt lat="46.50676" lon="4.92854">
        <ele>242.39999389648</ele>
        <time>2019-09-13T10:24:58Z</time>
      </trkpt>
      <trkpt lat="46.50646" lon="4.92843">
        <ele>242.39999389648</ele>
        <time>2019-09-13T10:25:03Z</time>
      </trkpt>
      <trkpt lat="46.50634" lon="4.92839">
        <ele>242.39999389648</ele>
        <time>2019-09-13T10:25:05Z</time>
      </trkpt>
      <trkpt lat="46.50623" lon="4.92835">
        <ele>242.39999389648</ele>
        <time>2019-09-13T10:25:07Z</time>
      </trkpt>
      <trkpt lat="46.50593" lon="4.92824">
        <ele>242.19999694824</ele>
        <time>2019-09-13T10:25:12Z</time>
      </trkpt>
      <trkpt lat="46.50548" lon="4.92805">
        <ele>242.39999389648</ele>
        <time>2019-09-13T10:25:20Z</time>
      </trkpt>
      <trkpt lat="46.50528" lon="4.928">
        <ele>242.39999389648</ele>
        <time>2019-09-13T10:25:24Z</time>
      </trkpt>
      <trkpt lat="46.50524" lon="4.92799">
        <ele>242.39999389648</ele>
        <time>2019-09-13T10:25:25Z</time>
      </trkpt>
      <trkpt lat="46.5052" lon="4.92798">
        <ele>242.39999389648</ele>
        <time>2019-09-13T10:25:26Z</time>
      </trkpt>
      <trkpt lat="46.50506" lon="4.92792">
        <ele>242.80000305176</ele>
        <time>2019-09-13T10:25:29Z</time>
      </trkpt>
      <trkpt lat="46.50502" lon="4.9279">
        <ele>243</ele>
        <time>2019-09-13T10:25:30Z</time>
      </trkpt>
      <trkpt lat="46.50493" lon="4.92785">
        <ele>243.19999694824</ele>
        <time>2019-09-13T10:25:32Z</time>
      </trkpt>
      <trkpt lat="46.50482" lon="4.92773">
        <ele>243.39999389648</ele>
        <time>2019-09-13T10:25:35Z</time>
      </trkpt>
      <trkpt lat="46.50478" lon="4.92769">
        <ele>243.39999389648</ele>
        <time>2019-09-13T10:25:36Z</time>
      </trkpt>
      <trkpt lat="46.50475" lon="4.92764">
        <ele>243.60000610352</ele>
        <time>2019-09-13T10:25:37Z</time>
      </trkpt>
      <trkpt lat="46.50463" lon="4.92754">
        <ele>243.80000305176</ele>
        <time>2019-09-13T10:25:40Z</time>
      </trkpt>
      <trkpt lat="46.50458" lon="4.92751">
        <ele>244</ele>
        <time>2019-09-13T10:25:41Z</time>
      </trkpt>
      <trkpt lat="46.50454" lon="4.92748">
        <ele>244.19999694824</ele>
        <time>2019-09-13T10:25:42Z</time>
      </trkpt>
      <trkpt lat="46.5042" lon="4.92725">
        <ele>244.19999694824</ele>
        <time>2019-09-13T10:25:49Z</time>
      </trkpt>
      <trkpt lat="46.50399" lon="4.92716">
        <ele>244</ele>
        <time>2019-09-13T10:25:53Z</time>
      </trkpt>
      <trkpt lat="46.50393" lon="4.92713">
        <ele>244</ele>
        <time>2019-09-13T10:25:54Z</time>
      </trkpt>
      <trkpt lat="46.50377" lon="4.927">
        <ele>243.80000305176</ele>
        <time>2019-09-13T10:25:57Z</time>
      </trkpt>
      <trkpt lat="46.50366" lon="4.92694">
        <ele>244</ele>
        <time>2019-09-13T10:25:59Z</time>
      </trkpt>
      <trkpt lat="46.50325" lon="4.92675">
        <ele>243.60000610352</ele>
        <time>2019-09-13T10:26:06Z</time>
      </trkpt>
      <trkpt lat="46.50313" lon="4.92669">
        <ele>243.39999389648</ele>
        <time>2019-09-13T10:26:08Z</time>
      </trkpt>
      <trkpt lat="46.50273" lon="4.92643">
        <ele>243.19999694824</ele>
        <time>2019-09-13T10:26:15Z</time>
      </trkpt>
      <trkpt lat="46.50267" lon="4.9264">
        <ele>243</ele>
        <time>2019-09-13T10:26:16Z</time>
      </trkpt>
      <trkpt lat="46.50219" lon="4.92618">
        <ele>242.39999389648</ele>
        <time>2019-09-13T10:26:24Z</time>
      </trkpt>
      <trkpt lat="46.50189" lon="4.92611">
        <ele>242.39999389648</ele>
        <time>2019-09-13T10:26:29Z</time>
      </trkpt>
      <trkpt lat="46.50178" lon="4.9261">
        <ele>242.19999694824</ele>
        <time>2019-09-13T10:26:31Z</time>
      </trkpt>
      <trkpt lat="46.50167" lon="4.92609">
        <ele>242</ele>
        <time>2019-09-13T10:26:33Z</time>
      </trkpt>
      <trkpt lat="46.50146" lon="4.92606">
        <ele>242</ele>
        <time>2019-09-13T10:26:37Z</time>
      </trkpt>
      <trkpt lat="46.50114" lon="4.9261">
        <ele>241.80000305176</ele>
        <time>2019-09-13T10:26:43Z</time>
      </trkpt>
      <trkpt lat="46.50075" lon="4.92608">
        <ele>241.39999389648</ele>
        <time>2019-09-13T10:26:50Z</time>
      </trkpt>
      <trkpt lat="46.50035" lon="4.92599">
        <ele>241.39999389648</ele>
        <time>2019-09-13T10:26:57Z</time>
      </trkpt>
      <trkpt lat="46.49986" lon="4.92578">
        <ele>241.60000610352</ele>
        <time>2019-09-13T10:27:06Z</time>
      </trkpt>
      <trkpt lat="46.49943" lon="4.92553">
        <ele>241.60000610352</ele>
        <time>2019-09-13T10:27:14Z</time>
      </trkpt>
      <trkpt lat="46.49904" lon="4.9253">
        <ele>241.80000305176</ele>
        <time>2019-09-13T10:27:21Z</time>
      </trkpt>
      <trkpt lat="46.49859" lon="4.92503">
        <ele>241.80000305176</ele>
        <time>2019-09-13T10:27:29Z</time>
      </trkpt>
      <trkpt lat="46.49808" lon="4.92476">
        <ele>242.19999694824</ele>
        <time>2019-09-13T10:27:38Z</time>
      </trkpt>
      <trkpt lat="46.49802" lon="4.92473">
        <ele>242.19999694824</ele>
        <time>2019-09-13T10:27:39Z</time>
      </trkpt>
      <trkpt lat="46.49758" lon="4.92447">
        <ele>242.19999694824</ele>
        <time>2019-09-13T10:27:47Z</time>
      </trkpt>
      <trkpt lat="46.49709" lon="4.9241">
        <ele>242.19999694824</ele>
        <time>2019-09-13T10:27:56Z</time>
      </trkpt>
      <trkpt lat="46.49674" lon="4.92378">
        <ele>242</ele>
        <time>2019-09-13T10:28:03Z</time>
      </trkpt>
      <trkpt lat="46.49642" lon="4.92342">
        <ele>242</ele>
        <time>2019-09-13T10:28:10Z</time>
      </trkpt>
      <trkpt lat="46.49611" lon="4.92304">
        <ele>242</ele>
        <time>2019-09-13T10:28:17Z</time>
      </trkpt>
      <trkpt lat="46.49572" lon="4.92246">
        <ele>242</ele>
        <time>2019-09-13T10:28:26Z</time>
      </trkpt>
      <trkpt lat="46.49537" lon="4.92184">
        <ele>242.19999694824</ele>
        <time>2019-09-13T10:28:35Z</time>
      </trkpt>
      <trkpt lat="46.49534" lon="4.92178">
        <ele>242.19999694824</ele>
        <time>2019-09-13T10:28:36Z</time>
      </trkpt>
      <trkpt lat="46.49508" lon="4.92132">
        <ele>242.19999694824</ele>
        <time>2019-09-13T10:28:43Z</time>
      </trkpt>
      <trkpt lat="46.49472" lon="4.92072">
        <ele>242.19999694824</ele>
        <time>2019-09-13T10:28:52Z</time>
      </trkpt>
      <trkpt lat="46.4944" lon="4.9202">
        <ele>242.39999389648</ele>
        <time>2019-09-13T10:29:00Z</time>
      </trkpt>
      <trkpt lat="46.49408" lon="4.91966">
        <ele>242.19999694824</ele>
        <time>2019-09-13T10:29:08Z</time>
      </trkpt>
      <trkpt lat="46.49374" lon="4.91915">
        <ele>242</ele>
        <time>2019-09-13T10:29:16Z</time>
      </trkpt>
      <trkpt lat="46.49339" lon="4.91873">
        <ele>241.80000305176</ele>
        <time>2019-09-13T10:29:24Z</time>
      </trkpt>
      <trkpt lat="46.49331" lon="4.91863">
        <ele>241.80000305176</ele>
        <time>2019-09-13T10:29:26Z</time>
      </trkpt>
      <trkpt lat="46.4932" lon="4.91846">
        <ele>241.80000305176</ele>
        <time>2019-09-13T10:29:29Z</time>
      </trkpt>
      <trkpt lat="46.4929" lon="4.91809">
        <ele>241.80000305176</ele>
        <time>2019-09-13T10:29:36Z</time>
      </trkpt>
      <trkpt lat="46.49254" lon="4.91761">
        <ele>242</ele>
        <time>2019-09-13T10:29:44Z</time>
      </trkpt>
      <trkpt lat="46.4922" lon="4.91711">
        <ele>241.60000610352</ele>
        <time>2019-09-13T10:29:52Z</time>
      </trkpt>
      <trkpt lat="46.49213" lon="4.91698">
        <ele>241.39999389648</ele>
        <time>2019-09-13T10:29:54Z</time>
      </trkpt>
      <trkpt lat="46.4919" lon="4.91657">
        <ele>241.19999694824</ele>
        <time>2019-09-13T10:30:00Z</time>
      </trkpt>
      <trkpt lat="46.49169" lon="4.91615">
        <ele>241.19999694824</ele>
        <time>2019-09-13T10:30:06Z</time>
      </trkpt>
      <trkpt lat="46.49163" lon="4.916">
        <ele>241.19999694824</ele>
        <time>2019-09-13T10:30:08Z</time>
      </trkpt>
      <trkpt lat="46.49138" lon="4.91541">
        <ele>241.19999694824</ele>
        <time>2019-09-13T10:30:16Z</time>
      </trkpt>
      <trkpt lat="46.49114" lon="4.91499">
        <ele>241.19999694824</ele>
        <time>2019-09-13T10:30:23Z</time>
      </trkpt>
      <trkpt lat="46.49094" lon="4.91453">
        <ele>241.39999389648</ele>
        <time>2019-09-13T10:30:29Z</time>
      </trkpt>
      <trkpt lat="46.49091" lon="4.91446">
        <ele>241.39999389648</ele>
        <time>2019-09-13T10:30:30Z</time>
      </trkpt>
      <trkpt lat="46.49078" lon="4.91428">
        <ele>241.39999389648</ele>
        <time>2019-09-13T10:30:33Z</time>
      </trkpt>
      <trkpt lat="46.49065" lon="4.91412">
        <ele>241.60000610352</ele>
        <time>2019-09-13T10:30:36Z</time>
      </trkpt>
      <trkpt lat="46.49046" lon="4.91391">
        <ele>241.60000610352</ele>
        <time>2019-09-13T10:30:40Z</time>
      </trkpt>
      <trkpt lat="46.49036" lon="4.91382">
        <ele>241.60000610352</ele>
        <time>2019-09-13T10:30:42Z</time>
      </trkpt>
      <trkpt lat="46.49015" lon="4.91364">
        <ele>241.80000305176</ele>
        <time>2019-09-13T10:30:46Z</time>
      </trkpt>
      <trkpt lat="46.48978" lon="4.91334">
        <ele>241.80000305176</ele>
        <time>2019-09-13T10:30:53Z</time>
      </trkpt>
      <trkpt lat="46.48946" lon="4.91313">
        <ele>241.80000305176</ele>
        <time>2019-09-13T10:30:59Z</time>
      </trkpt>
      <trkpt lat="46.48913" lon="4.91299">
        <ele>241.80000305176</ele>
        <time>2019-09-13T10:31:05Z</time>
      </trkpt>
      <trkpt lat="46.48878" lon="4.91285">
        <ele>242</ele>
        <time>2019-09-13T10:31:12Z</time>
      </trkpt>
      <trkpt lat="46.48847" lon="4.91271">
        <ele>242</ele>
        <time>2019-09-13T10:31:18Z</time>
      </trkpt>
      <trkpt lat="46.48836" lon="4.91266">
        <ele>242.19999694824</ele>
        <time>2019-09-13T10:31:20Z</time>
      </trkpt>
      <trkpt lat="46.48813" lon="4.91257">
        <ele>242.19999694824</ele>
        <time>2019-09-13T10:31:24Z</time>
      </trkpt>
      <trkpt lat="46.4878" lon="4.91245">
        <ele>242</ele>
        <time>2019-09-13T10:31:30Z</time>
      </trkpt>
      <trkpt lat="46.48775" lon="4.91245">
        <ele>242</ele>
        <time>2019-09-13T10:31:31Z</time>
      </trkpt>
      <trkpt lat="46.48757" lon="4.91251">
        <ele>242</ele>
        <time>2019-09-13T10:31:35Z</time>
      </trkpt>
      <trkpt lat="46.48749" lon="4.91251">
        <ele>242</ele>
        <time>2019-09-13T10:31:37Z</time>
      </trkpt>
      <trkpt lat="46.48736" lon="4.91248">
        <ele>242</ele>
        <time>2019-09-13T10:31:40Z</time>
      </trkpt>
      <trkpt lat="46.48731" lon="4.91247">
        <ele>242</ele>
        <time>2019-09-13T10:31:41Z</time>
      </trkpt>
      <trkpt lat="46.48708" lon="4.91242">
        <ele>241.80000305176</ele>
        <time>2019-09-13T10:31:45Z</time>
      </trkpt>
      <trkpt lat="46.48674" lon="4.91234">
        <ele>241.80000305176</ele>
        <time>2019-09-13T10:31:51Z</time>
      </trkpt>
      <trkpt lat="46.48668" lon="4.91233">
        <ele>241.80000305176</ele>
        <time>2019-09-13T10:31:52Z</time>
      </trkpt>
      <trkpt lat="46.48651" lon="4.91231">
        <ele>241.80000305176</ele>
        <time>2019-09-13T10:31:55Z</time>
      </trkpt>
      <trkpt lat="46.48613" lon="4.91228">
        <ele>241.80000305176</ele>
        <time>2019-09-13T10:32:02Z</time>
      </trkpt>
      <trkpt lat="46.48578" lon="4.91227">
        <ele>241.80000305176</ele>
        <time>2019-09-13T10:32:08Z</time>
      </trkpt>
      <trkpt lat="46.48533" lon="4.91237">
        <ele>241.80000305176</ele>
        <time>2019-09-13T10:32:16Z</time>
      </trkpt>
      <trkpt lat="46.48481" lon="4.91251">
        <ele>242</ele>
        <time>2019-09-13T10:32:25Z</time>
      </trkpt>
      <trkpt lat="46.48436" lon="4.91255">
        <ele>242</ele>
        <time>2019-09-13T10:32:33Z</time>
      </trkpt>
      <trkpt lat="46.48396" lon="4.91256">
        <ele>241.80000305176</ele>
        <time>2019-09-13T10:32:40Z</time>
      </trkpt>
      <trkpt lat="46.48341" lon="4.91256">
        <ele>242</ele>
        <time>2019-09-13T10:32:49Z</time>
      </trkpt>
      <trkpt lat="46.483" lon="4.91258">
        <ele>242.19999694824</ele>
        <time>2019-09-13T10:32:56Z</time>
      </trkpt>
      <trkpt lat="46.48272" lon="4.91262">
        <ele>242.39999389648</ele>
        <time>2019-09-13T10:33:01Z</time>
      </trkpt>
      <trkpt lat="46.48234" lon="4.91266">
        <ele>242.19999694824</ele>
        <time>2019-09-13T10:33:08Z</time>
      </trkpt>
      <trkpt lat="46.48217" lon="4.91264">
        <ele>242.19999694824</ele>
        <time>2019-09-13T10:33:11Z</time>
      </trkpt>
      <trkpt lat="46.48198" lon="4.91261">
        <ele>242.19999694824</ele>
        <time>2019-09-13T10:33:14Z</time>
      </trkpt>
      <trkpt lat="46.48173" lon="4.91258">
        <ele>242.19999694824</ele>
        <time>2019-09-13T10:33:19Z</time>
      </trkpt>
      <trkpt lat="46.48168" lon="4.91258">
        <ele>242.19999694824</ele>
        <time>2019-09-13T10:33:20Z</time>
      </trkpt>
      <trkpt lat="46.4814" lon="4.91258">
        <ele>242.19999694824</ele>
        <time>2019-09-13T10:33:25Z</time>
      </trkpt>
      <trkpt lat="46.48134" lon="4.91259">
        <ele>242.39999389648</ele>
        <time>2019-09-13T10:33:26Z</time>
      </trkpt>
      <trkpt lat="46.48092" lon="4.91264">
        <ele>242.39999389648</ele>
        <time>2019-09-13T10:33:32Z</time>
      </trkpt>
      <trkpt lat="46.48085" lon="4.91265">
        <ele>242.39999389648</ele>
        <time>2019-09-13T10:33:33Z</time>
      </trkpt>
      <trkpt lat="46.48058" lon="4.91264">
        <ele>242.19999694824</ele>
        <time>2019-09-13T10:33:37Z</time>
      </trkpt>
      <trkpt lat="46.48007" lon="4.91268">
        <ele>241.80000305176</ele>
        <time>2019-09-13T10:33:45Z</time>
      </trkpt>
      <trkpt lat="46.47964" lon="4.91274">
        <ele>241.80000305176</ele>
        <time>2019-09-13T10:33:52Z</time>
      </trkpt>
      <trkpt lat="46.47921" lon="4.91279">
        <ele>241.60000610352</ele>
        <time>2019-09-13T10:33:59Z</time>
      </trkpt>
      <trkpt lat="46.47876" lon="4.91282">
        <ele>241.80000305176</ele>
        <time>2019-09-13T10:34:06Z</time>
      </trkpt>
      <trkpt lat="46.47826" lon="4.91286">
        <ele>242.19999694824</ele>
        <time>2019-09-13T10:34:14Z</time>
      </trkpt>
      <trkpt lat="46.47783" lon="4.91297">
        <ele>242.19999694824</ele>
        <time>2019-09-13T10:34:21Z</time>
      </trkpt>
      <trkpt lat="46.4775" lon="4.91312">
        <ele>242.19999694824</ele>
        <time>2019-09-13T10:34:27Z</time>
      </trkpt>
      <trkpt lat="46.47708" lon="4.91323">
        <ele>241.80000305176</ele>
        <time>2019-09-13T10:34:34Z</time>
      </trkpt>
      <trkpt lat="46.47667" lon="4.91328">
        <ele>241.60000610352</ele>
        <time>2019-09-13T10:34:41Z</time>
      </trkpt>
      <trkpt lat="46.47644" lon="4.91332">
        <ele>241.60000610352</ele>
        <time>2019-09-13T10:34:46Z</time>
      </trkpt>
      <trkpt lat="46.47616" lon="4.91344">
        <ele>242.19999694824</ele>
        <time>2019-09-13T10:34:52Z</time>
      </trkpt>
      <trkpt lat="46.47578" lon="4.91364">
        <ele>242.60000610352</ele>
        <time>2019-09-13T10:34:59Z</time>
      </trkpt>
      <trkpt lat="46.47566" lon="4.91369">
        <ele>242.39999389648</ele>
        <time>2019-09-13T10:35:01Z</time>
      </trkpt>
      <trkpt lat="46.47542" lon="4.91375">
        <ele>242.19999694824</ele>
        <time>2019-09-13T10:35:05Z</time>
      </trkpt>
      <trkpt lat="46.475" lon="4.91384">
        <ele>242.19999694824</ele>
        <time>2019-09-13T10:35:12Z</time>
      </trkpt>
      <trkpt lat="46.47452" lon="4.91395">
        <ele>242.19999694824</ele>
        <time>2019-09-13T10:35:20Z</time>
      </trkpt>
      <trkpt lat="46.47404" lon="4.91404">
        <ele>242.19999694824</ele>
        <time>2019-09-13T10:35:28Z</time>
      </trkpt>
      <trkpt lat="46.47357" lon="4.91409">
        <ele>242.19999694824</ele>
        <time>2019-09-13T10:35:36Z</time>
      </trkpt>
      <trkpt lat="46.47314" lon="4.91412">
        <ele>242</ele>
        <time>2019-09-13T10:35:43Z</time>
      </trkpt>
      <trkpt lat="46.47273" lon="4.91413">
        <ele>242.19999694824</ele>
        <time>2019-09-13T10:35:50Z</time>
      </trkpt>
      <trkpt lat="46.47239" lon="4.91413">
        <ele>242.19999694824</ele>
        <time>2019-09-13T10:35:56Z</time>
      </trkpt>
      <trkpt lat="46.47193" lon="4.91411">
        <ele>242.19999694824</ele>
        <time>2019-09-13T10:36:04Z</time>
      </trkpt>
      <trkpt lat="46.47176" lon="4.91411">
        <ele>242.19999694824</ele>
        <time>2019-09-13T10:36:07Z</time>
      </trkpt>
      <trkpt lat="46.47158" lon="4.91409">
        <ele>242.19999694824</ele>
        <time>2019-09-13T10:36:10Z</time>
      </trkpt>
      <trkpt lat="46.47122" lon="4.91408">
        <ele>242.19999694824</ele>
        <time>2019-09-13T10:36:16Z</time>
      </trkpt>
      <trkpt lat="46.47071" lon="4.91405">
        <ele>242</ele>
        <time>2019-09-13T10:36:25Z</time>
      </trkpt>
      <trkpt lat="46.4703" lon="4.91408">
        <ele>241.80000305176</ele>
        <time>2019-09-13T10:36:32Z</time>
      </trkpt>
      <trkpt lat="46.46977" lon="4.91412">
        <ele>241.80000305176</ele>
        <time>2019-09-13T10:36:41Z</time>
      </trkpt>
      <trkpt lat="46.4694" lon="4.91412">
        <ele>241.80000305176</ele>
        <time>2019-09-13T10:36:48Z</time>
      </trkpt>
      <trkpt lat="46.46885" lon="4.91413">
        <ele>242</ele>
        <time>2019-09-13T10:36:57Z</time>
      </trkpt>
      <trkpt lat="46.46839" lon="4.91419">
        <ele>242.19999694824</ele>
        <time>2019-09-13T10:37:05Z</time>
      </trkpt>
      <trkpt lat="46.46804" lon="4.91416">
        <ele>242.19999694824</ele>
        <time>2019-09-13T10:37:11Z</time>
      </trkpt>
      <trkpt lat="46.46794" lon="4.91414">
        <ele>242.19999694824</ele>
        <time>2019-09-13T10:37:13Z</time>
      </trkpt>
      <trkpt lat="46.46768" lon="4.91406">
        <ele>242.19999694824</ele>
        <time>2019-09-13T10:37:18Z</time>
      </trkpt>
      <trkpt lat="46.46739" lon="4.91389">
        <ele>242.19999694824</ele>
        <time>2019-09-13T10:37:24Z</time>
      </trkpt>
      <trkpt lat="46.46719" lon="4.91373">
        <ele>242</ele>
        <time>2019-09-13T10:37:28Z</time>
      </trkpt>
      <trkpt lat="46.46709" lon="4.9137">
        <ele>242</ele>
        <time>2019-09-13T10:37:30Z</time>
      </trkpt>
      <trkpt lat="46.46698" lon="4.91369">
        <ele>242</ele>
        <time>2019-09-13T10:37:32Z</time>
      </trkpt>
      <trkpt lat="46.46674" lon="4.91371">
        <ele>242</ele>
        <time>2019-09-13T10:37:36Z</time>
      </trkpt>
      <trkpt lat="46.46644" lon="4.91371">
        <ele>241.80000305176</ele>
        <time>2019-09-13T10:37:41Z</time>
      </trkpt>
      <trkpt lat="46.46638" lon="4.91368">
        <ele>241.80000305176</ele>
        <time>2019-09-13T10:37:42Z</time>
      </trkpt>
      <trkpt lat="46.466" lon="4.91348">
        <ele>241.80000305176</ele>
        <time>2019-09-13T10:37:49Z</time>
      </trkpt>
      <trkpt lat="46.4656" lon="4.91331">
        <ele>242</ele>
        <time>2019-09-13T10:37:56Z</time>
      </trkpt>
      <trkpt lat="46.46521" lon="4.91324">
        <ele>241.80000305176</ele>
        <time>2019-09-13T10:38:03Z</time>
      </trkpt>
      <trkpt lat="46.4649" lon="4.91314">
        <ele>241.80000305176</ele>
        <time>2019-09-13T10:38:09Z</time>
      </trkpt>
      <trkpt lat="46.46485" lon="4.91314">
        <ele>241.60000610352</ele>
        <time>2019-09-13T10:38:10Z</time>
      </trkpt>
      <trkpt lat="46.46452" lon="4.91305">
        <ele>241.60000610352</ele>
        <time>2019-09-13T10:38:16Z</time>
      </trkpt>
      <trkpt lat="46.46418" lon="4.91301">
        <ele>241.80000305176</ele>
        <time>2019-09-13T10:38:22Z</time>
      </trkpt>
      <trkpt lat="46.4639" lon="4.91299">
        <ele>241.80000305176</ele>
        <time>2019-09-13T10:38:27Z</time>
      </trkpt>
      <trkpt lat="46.46343" lon="4.91291">
        <ele>241.80000305176</ele>
        <time>2019-09-13T10:38:35Z</time>
      </trkpt>
      <trkpt lat="46.46297" lon="4.91278">
        <ele>241.80000305176</ele>
        <time>2019-09-13T10:38:43Z</time>
      </trkpt>
      <trkpt lat="46.46257" lon="4.91263">
        <ele>241.80000305176</ele>
        <time>2019-09-13T10:38:50Z</time>
      </trkpt>
      <trkpt lat="46.46206" lon="4.91237">
        <ele>241.80000305176</ele>
        <time>2019-09-13T10:38:59Z</time>
      </trkpt>
      <trkpt lat="46.46172" lon="4.9122">
        <ele>242</ele>
        <time>2019-09-13T10:39:05Z</time>
      </trkpt>
      <trkpt lat="46.46151" lon="4.91208">
        <ele>241.80000305176</ele>
        <time>2019-09-13T10:39:09Z</time>
      </trkpt>
      <trkpt lat="46.46134" lon="4.91197">
        <ele>242</ele>
        <time>2019-09-13T10:39:12Z</time>
      </trkpt>
      <trkpt lat="46.46103" lon="4.91175">
        <ele>242</ele>
        <time>2019-09-13T10:39:18Z</time>
      </trkpt>
      <trkpt lat="46.46072" lon="4.91154">
        <ele>242.19999694824</ele>
        <time>2019-09-13T10:39:24Z</time>
      </trkpt>
      <trkpt lat="46.46046" lon="4.91135">
        <ele>242.19999694824</ele>
        <time>2019-09-13T10:39:30Z</time>
      </trkpt>
      <trkpt lat="46.46021" lon="4.91117">
        <ele>242</ele>
        <time>2019-09-13T10:39:36Z</time>
      </trkpt>
      <trkpt lat="46.45985" lon="4.9108">
        <ele>242</ele>
        <time>2019-09-13T10:39:44Z</time>
      </trkpt>
      <trkpt lat="46.4596" lon="4.91053">
        <ele>242</ele>
        <time>2019-09-13T10:39:50Z</time>
      </trkpt>
      <trkpt lat="46.45941" lon="4.91033">
        <ele>242</ele>
        <time>2019-09-13T10:39:54Z</time>
      </trkpt>
      <trkpt lat="46.45935" lon="4.91026">
        <ele>242</ele>
        <time>2019-09-13T10:39:55Z</time>
      </trkpt>
      <trkpt lat="46.45906" lon="4.90993">
        <ele>242.19999694824</ele>
        <time>2019-09-13T10:40:01Z</time>
      </trkpt>
      <trkpt lat="46.45887" lon="4.90966">
        <ele>242.19999694824</ele>
        <time>2019-09-13T10:40:06Z</time>
      </trkpt>
      <trkpt lat="46.45883" lon="4.90959">
        <ele>242.19999694824</ele>
        <time>2019-09-13T10:40:07Z</time>
      </trkpt>
      <trkpt lat="46.45858" lon="4.90916">
        <ele>242.19999694824</ele>
        <time>2019-09-13T10:40:13Z</time>
      </trkpt>
      <trkpt lat="46.45836" lon="4.90886">
        <ele>242.19999694824</ele>
        <time>2019-09-13T10:40:18Z</time>
      </trkpt>
      <trkpt lat="46.45798" lon="4.90842">
        <ele>242.19999694824</ele>
        <time>2019-09-13T10:40:26Z</time>
      </trkpt>
      <trkpt lat="46.45761" lon="4.90799">
        <ele>242.39999389648</ele>
        <time>2019-09-13T10:40:34Z</time>
      </trkpt>
      <trkpt lat="46.45735" lon="4.90763">
        <ele>242.60000610352</ele>
        <time>2019-09-13T10:40:40Z</time>
      </trkpt>
      <trkpt lat="46.45697" lon="4.90704">
        <ele>242.60000610352</ele>
        <time>2019-09-13T10:40:49Z</time>
      </trkpt>
      <trkpt lat="46.45685" lon="4.90684">
        <ele>242.60000610352</ele>
        <time>2019-09-13T10:40:52Z</time>
      </trkpt>
      <trkpt lat="46.45656" lon="4.90627">
        <ele>242.60000610352</ele>
        <time>2019-09-13T10:41:00Z</time>
      </trkpt>
      <trkpt lat="46.45623" lon="4.90564">
        <ele>242.39999389648</ele>
        <time>2019-09-13T10:41:09Z</time>
      </trkpt>
      <trkpt lat="46.45593" lon="4.90503">
        <ele>242.60000610352</ele>
        <time>2019-09-13T10:41:18Z</time>
      </trkpt>
      <trkpt lat="46.45568" lon="4.90455">
        <ele>242.60000610352</ele>
        <time>2019-09-13T10:41:25Z</time>
      </trkpt>
      <trkpt lat="46.45539" lon="4.90399">
        <ele>242.60000610352</ele>
        <time>2019-09-13T10:41:33Z</time>
      </trkpt>
      <trkpt lat="46.45518" lon="4.90361">
        <ele>242.39999389648</ele>
        <time>2019-09-13T10:41:39Z</time>
      </trkpt>
      <trkpt lat="46.45486" lon="4.90308">
        <ele>242.39999389648</ele>
        <time>2019-09-13T10:41:47Z</time>
      </trkpt>
      <trkpt lat="46.45453" lon="4.90262">
        <ele>242.39999389648</ele>
        <time>2019-09-13T10:41:55Z</time>
      </trkpt>
      <trkpt lat="46.45423" lon="4.90221">
        <ele>242.39999389648</ele>
        <time>2019-09-13T10:42:02Z</time>
      </trkpt>
      <trkpt lat="46.4539" lon="4.90176">
        <ele>242.39999389648</ele>
        <time>2019-09-13T10:42:09Z</time>
      </trkpt>
      <trkpt lat="46.4535" lon="4.90117">
        <ele>242.39999389648</ele>
        <time>2019-09-13T10:42:18Z</time>
      </trkpt>
      <trkpt lat="46.45318" lon="4.90075">
        <ele>242.39999389648</ele>
        <time>2019-09-13T10:42:25Z</time>
      </trkpt>
      <trkpt lat="46.45294" lon="4.90041">
        <ele>242.39999389648</ele>
        <time>2019-09-13T10:42:31Z</time>
      </trkpt>
      <trkpt lat="46.45275" lon="4.90014">
        <ele>242.39999389648</ele>
        <time>2019-09-13T10:42:36Z</time>
      </trkpt>
      <trkpt lat="46.45248" lon="4.89977">
        <ele>242.39999389648</ele>
        <time>2019-09-13T10:42:43Z</time>
      </trkpt>
      <trkpt lat="46.45223" lon="4.89936">
        <ele>242.39999389648</ele>
        <time>2019-09-13T10:42:49Z</time>
      </trkpt>
      <trkpt lat="46.45188" lon="4.89876">
        <ele>242.39999389648</ele>
        <time>2019-09-13T10:42:57Z</time>
      </trkpt>
      <trkpt lat="46.45167" lon="4.8984">
        <ele>242.19999694824</ele>
        <time>2019-09-13T10:43:02Z</time>
      </trkpt>
      <trkpt lat="46.45158" lon="4.89826">
        <ele>242.19999694824</ele>
        <time>2019-09-13T10:43:04Z</time>
      </trkpt>
      <trkpt lat="46.45119" lon="4.89767">
        <ele>242</ele>
        <time>2019-09-13T10:43:13Z</time>
      </trkpt>
      <trkpt lat="46.45074" lon="4.89714">
        <ele>242.39999389648</ele>
        <time>2019-09-13T10:43:23Z</time>
      </trkpt>
      <trkpt lat="46.45049" lon="4.89687">
        <ele>242.60000610352</ele>
        <time>2019-09-13T10:43:29Z</time>
      </trkpt>
      <trkpt lat="46.45017" lon="4.89654">
        <ele>242.80000305176</ele>
        <time>2019-09-13T10:43:36Z</time>
      </trkpt>
      <trkpt lat="46.44979" lon="4.89614">
        <ele>242.80000305176</ele>
        <time>2019-09-13T10:43:44Z</time>
      </trkpt>
      <trkpt lat="46.44944" lon="4.89584">
        <ele>242.80000305176</ele>
        <time>2019-09-13T10:43:51Z</time>
      </trkpt>
      <trkpt lat="46.44901" lon="4.89547">
        <ele>242.60000610352</ele>
        <time>2019-09-13T10:44:00Z</time>
      </trkpt>
      <trkpt lat="46.4486" lon="4.89512">
        <ele>242.19999694824</ele>
        <time>2019-09-13T10:44:09Z</time>
      </trkpt>
      <trkpt lat="46.44841" lon="4.89497">
        <ele>242.19999694824</ele>
        <time>2019-09-13T10:44:13Z</time>
      </trkpt>
      <trkpt lat="46.44831" lon="4.89496">
        <ele>242.19999694824</ele>
        <time>2019-09-13T10:44:15Z</time>
      </trkpt>
      <trkpt lat="46.44804" lon="4.89499">
        <ele>242.19999694824</ele>
        <time>2019-09-13T10:44:21Z</time>
      </trkpt>
      <trkpt lat="46.44784" lon="4.89491">
        <ele>242.39999389648</ele>
        <time>2019-09-13T10:44:27Z</time>
      </trkpt>
      <trkpt lat="46.44771" lon="4.89469">
        <ele>242.19999694824</ele>
        <time>2019-09-13T10:44:32Z</time>
      </trkpt>
      <trkpt lat="46.44752" lon="4.89431">
        <ele>242.19999694824</ele>
        <time>2019-09-13T10:44:39Z</time>
      </trkpt>
      <trkpt lat="46.44745" lon="4.89413">
        <ele>242.19999694824</ele>
        <time>2019-09-13T10:44:42Z</time>
      </trkpt>
      <trkpt lat="46.44735" lon="4.89399">
        <ele>242.39999389648</ele>
        <time>2019-09-13T10:44:45Z</time>
      </trkpt>
      <trkpt lat="46.44706" lon="4.89371">
        <ele>242.80000305176</ele>
        <time>2019-09-13T10:44:52Z</time>
      </trkpt>
      <trkpt lat="46.44692" lon="4.89361">
        <ele>242.80000305176</ele>
        <time>2019-09-13T10:44:55Z</time>
      </trkpt>
      <trkpt lat="46.44675" lon="4.89344">
        <ele>243</ele>
        <time>2019-09-13T10:44:59Z</time>
      </trkpt>
      <trkpt lat="46.4465" lon="4.8932">
        <ele>243</ele>
        <time>2019-09-13T10:45:05Z</time>
      </trkpt>
      <trkpt lat="46.44645" lon="4.89316">
        <ele>242.80000305176</ele>
        <time>2019-09-13T10:45:06Z</time>
      </trkpt>
      <trkpt lat="46.44627" lon="4.89302">
        <ele>242.80000305176</ele>
        <time>2019-09-13T10:45:10Z</time>
      </trkpt>
      <trkpt lat="46.44618" lon="4.89296">
        <ele>243</ele>
        <time>2019-09-13T10:45:12Z</time>
      </trkpt>
      <trkpt lat="46.44609" lon="4.89289">
        <ele>243</ele>
        <time>2019-09-13T10:45:14Z</time>
      </trkpt>
      <trkpt lat="46.44602" lon="4.89282">
        <ele>243.19999694824</ele>
        <time>2019-09-13T10:45:16Z</time>
      </trkpt>
      <trkpt lat="46.44603" lon="4.89263">
        <ele>243.19999694824</ele>
        <time>2019-09-13T10:45:20Z</time>
      </trkpt>
      <trkpt lat="46.44604" lon="4.89258">
        <ele>243.19999694824</ele>
        <time>2019-09-13T10:45:21Z</time>
      </trkpt>
      <trkpt lat="46.44612" lon="4.89233">
        <ele>243.60000610352</ele>
        <time>2019-09-13T10:45:25Z</time>
      </trkpt>
      <trkpt lat="46.44632" lon="4.89169">
        <ele>243.60000610352</ele>
        <time>2019-09-13T10:45:34Z</time>
      </trkpt>
      <trkpt lat="46.44634" lon="4.89161">
        <ele>243.60000610352</ele>
        <time>2019-09-13T10:45:35Z</time>
      </trkpt>
      <trkpt lat="46.44646" lon="4.89116">
        <ele>243.39999389648</ele>
        <time>2019-09-13T10:45:41Z</time>
      </trkpt>
      <trkpt lat="46.44666" lon="4.89051">
        <ele>243.19999694824</ele>
        <time>2019-09-13T10:45:50Z</time>
      </trkpt>
      <trkpt lat="46.44683" lon="4.88994">
        <ele>242.80000305176</ele>
        <time>2019-09-13T10:45:58Z</time>
      </trkpt>
      <trkpt lat="46.44703" lon="4.88923">
        <ele>242.80000305176</ele>
        <time>2019-09-13T10:46:08Z</time>
      </trkpt>
      <trkpt lat="46.44704" lon="4.88915">
        <ele>242.60000610352</ele>
        <time>2019-09-13T10:46:09Z</time>
      </trkpt>
      <trkpt lat="46.44721" lon="4.8886">
        <ele>242.60000610352</ele>
        <time>2019-09-13T10:46:17Z</time>
      </trkpt>
      <trkpt lat="46.44739" lon="4.88796">
        <ele>242.80000305176</ele>
        <time>2019-09-13T10:46:26Z</time>
      </trkpt>
      <trkpt lat="46.44754" lon="4.88733">
        <ele>242.80000305176</ele>
        <time>2019-09-13T10:46:35Z</time>
      </trkpt>
      <trkpt lat="46.44766" lon="4.88677">
        <ele>242.80000305176</ele>
        <time>2019-09-13T10:46:43Z</time>
      </trkpt>
      <trkpt lat="46.44763" lon="4.88665">
        <ele>242.80000305176</ele>
        <time>2019-09-13T10:46:45Z</time>
      </trkpt>
      <trkpt lat="46.44751" lon="4.88657">
        <ele>242.80000305176</ele>
        <time>2019-09-13T10:46:48Z</time>
      </trkpt>
      <trkpt lat="46.44738" lon="4.88651">
        <ele>243</ele>
        <time>2019-09-13T10:46:51Z</time>
      </trkpt>
      <trkpt lat="46.44709" lon="4.88636">
        <ele>242.80000305176</ele>
        <time>2019-09-13T10:46:57Z</time>
      </trkpt>
      <trkpt lat="46.44685" lon="4.88622">
        <ele>243</ele>
        <time>2019-09-13T10:47:02Z</time>
      </trkpt>
      <trkpt lat="46.44681" lon="4.88619">
        <ele>243</ele>
        <time>2019-09-13T10:47:03Z</time>
      </trkpt>
      <trkpt lat="46.44655" lon="4.88605">
        <ele>243</ele>
        <time>2019-09-13T10:47:09Z</time>
      </trkpt>
      <trkpt lat="46.44648" lon="4.88599">
        <ele>243.19999694824</ele>
        <time>2019-09-13T10:47:11Z</time>
      </trkpt>
      <trkpt lat="46.44647" lon="4.88594">
        <ele>243.39999389648</ele>
        <time>2019-09-13T10:47:12Z</time>
      </trkpt>
      <trkpt lat="46.44648" lon="4.88577">
        <ele>244</ele>
        <time>2019-09-13T10:47:15Z</time>
      </trkpt>
      <trkpt lat="46.44647" lon="4.88567">
        <ele>244.19999694824</ele>
        <time>2019-09-13T10:47:17Z</time>
      </trkpt>
      <trkpt lat="46.44638" lon="4.88565">
        <ele>244.39999389648</ele>
        <time>2019-09-13T10:47:20Z</time>
      </trkpt>
      <trkpt lat="46.44624" lon="4.8856">
        <ele>244.60000610352</ele>
        <time>2019-09-13T10:47:24Z</time>
      </trkpt>
      <trkpt lat="46.4462" lon="4.88559">
        <ele>244.60000610352</ele>
        <time>2019-09-13T10:47:25Z</time>
      </trkpt>
      <trkpt lat="46.44602" lon="4.8856">
        <ele>244.60000610352</ele>
        <time>2019-09-13T10:47:29Z</time>
      </trkpt>
      <trkpt lat="46.44589" lon="4.88568">
        <ele>244.19999694824</ele>
        <time>2019-09-13T10:47:32Z</time>
      </trkpt>
      <trkpt lat="46.44578" lon="4.8859">
        <ele>243.60000610352</ele>
        <time>2019-09-13T10:47:36Z</time>
      </trkpt>
      <trkpt lat="46.44574" lon="4.88619">
        <ele>243.80000305176</ele>
        <time>2019-09-13T10:47:40Z</time>
      </trkpt>
      <trkpt lat="46.44573" lon="4.88626">
        <ele>243.80000305176</ele>
        <time>2019-09-13T10:47:41Z</time>
      </trkpt>
      <trkpt lat="46.44572" lon="4.88633">
        <ele>243.60000610352</ele>
        <time>2019-09-13T10:47:42Z</time>
      </trkpt>
      <trkpt lat="46.44568" lon="4.88646">
        <ele>243.60000610352</ele>
        <time>2019-09-13T10:47:44Z</time>
      </trkpt>
      <trkpt lat="46.44566" lon="4.88652">
        <ele>243.39999389648</ele>
        <time>2019-09-13T10:47:45Z</time>
      </trkpt>
      <trkpt lat="46.44555" lon="4.88663">
        <ele>243</ele>
        <time>2019-09-13T10:47:48Z</time>
      </trkpt>
      <trkpt lat="46.44541" lon="4.88655">
        <ele>242.80000305176</ele>
        <time>2019-09-13T10:47:51Z</time>
      </trkpt>
      <trkpt lat="46.44533" lon="4.88649">
        <ele>242.60000610352</ele>
        <time>2019-09-13T10:47:53Z</time>
      </trkpt>
      <trkpt lat="46.4451" lon="4.88632">
        <ele>242.19999694824</ele>
        <time>2019-09-13T10:47:58Z</time>
      </trkpt>
      <trkpt lat="46.44497" lon="4.8862">
        <ele>242</ele>
        <time>2019-09-13T10:48:01Z</time>
      </trkpt>
      <trkpt lat="46.44492" lon="4.88616">
        <ele>242</ele>
        <time>2019-09-13T10:48:02Z</time>
      </trkpt>
      <trkpt lat="46.44485" lon="4.88604">
        <ele>242</ele>
        <time>2019-09-13T10:48:04Z</time>
      </trkpt>
      <trkpt lat="46.44461" lon="4.88563">
        <ele>242</ele>
        <time>2019-09-13T10:48:11Z</time>
      </trkpt>
      <trkpt lat="46.44458" lon="4.88557">
        <ele>242</ele>
        <time>2019-09-13T10:48:12Z</time>
      </trkpt>
      <trkpt lat="46.44455" lon="4.88544">
        <ele>242</ele>
        <time>2019-09-13T10:48:14Z</time>
      </trkpt>
      <trkpt lat="46.44456" lon="4.8853">
        <ele>242</ele>
        <time>2019-09-13T10:48:16Z</time>
      </trkpt>
      <trkpt lat="46.44456" lon="4.88522">
        <ele>242.19999694824</ele>
        <time>2019-09-13T10:48:17Z</time>
      </trkpt>
      <trkpt lat="46.44455" lon="4.88515">
        <ele>242.19999694824</ele>
        <time>2019-09-13T10:48:18Z</time>
      </trkpt>
      <trkpt lat="46.44449" lon="4.88495">
        <ele>242.19999694824</ele>
        <time>2019-09-13T10:48:21Z</time>
      </trkpt>
      <trkpt lat="46.44446" lon="4.88488">
        <ele>242.39999389648</ele>
        <time>2019-09-13T10:48:22Z</time>
      </trkpt>
      <trkpt lat="46.44425" lon="4.88437">
        <ele>242.80000305176</ele>
        <time>2019-09-13T10:48:30Z</time>
      </trkpt>
      <trkpt lat="46.44422" lon="4.88431">
        <ele>242.80000305176</ele>
        <time>2019-09-13T10:48:31Z</time>
      </trkpt>
      <trkpt lat="46.4441" lon="4.8842">
        <ele>243</ele>
        <time>2019-09-13T10:48:34Z</time>
      </trkpt>
      <trkpt lat="46.44395" lon="4.88418">
        <ele>243</ele>
        <time>2019-09-13T10:48:37Z</time>
      </trkpt>
      <trkpt lat="46.4439" lon="4.8842">
        <ele>243.19999694824</ele>
        <time>2019-09-13T10:48:38Z</time>
      </trkpt>
      <trkpt lat="46.44381" lon="4.88426">
        <ele>243.39999389648</ele>
        <time>2019-09-13T10:48:40Z</time>
      </trkpt>
      <trkpt lat="46.44362" lon="4.88436">
        <ele>243.60000610352</ele>
        <time>2019-09-13T10:48:44Z</time>
      </trkpt>
      <trkpt lat="46.44354" lon="4.88441">
        <ele>243.60000610352</ele>
        <time>2019-09-13T10:48:46Z</time>
      </trkpt>
      <trkpt lat="46.44338" lon="4.88447">
        <ele>243.80000305176</ele>
        <time>2019-09-13T10:48:50Z</time>
      </trkpt>
      <trkpt lat="46.44332" lon="4.88453">
        <ele>244</ele>
        <time>2019-09-13T10:48:52Z</time>
      </trkpt>
      <trkpt lat="46.44327" lon="4.88464">
        <ele>244.19999694824</ele>
        <time>2019-09-13T10:48:54Z</time>
      </trkpt>
      <trkpt lat="46.44323" lon="4.88477">
        <ele>244.39999389648</ele>
        <time>2019-09-13T10:48:56Z</time>
      </trkpt>
      <trkpt lat="46.44316" lon="4.88502">
        <ele>244.39999389648</ele>
        <time>2019-09-13T10:49:00Z</time>
      </trkpt>
      <trkpt lat="46.44306" lon="4.88513">
        <ele>244.60000610352</ele>
        <time>2019-09-13T10:49:03Z</time>
      </trkpt>
      <trkpt lat="46.44289" lon="4.88505">
        <ele>244.80000305176</ele>
        <time>2019-09-13T10:49:07Z</time>
      </trkpt>
      <trkpt lat="46.44281" lon="4.88495">
        <ele>244.80000305176</ele>
        <time>2019-09-13T10:49:09Z</time>
      </trkpt>
      <trkpt lat="46.44277" lon="4.88491">
        <ele>244.80000305176</ele>
        <time>2019-09-13T10:49:10Z</time>
      </trkpt>
      <trkpt lat="46.44268" lon="4.88484">
        <ele>244.80000305176</ele>
        <time>2019-09-13T10:49:12Z</time>
      </trkpt>
      <trkpt lat="46.44249" lon="4.88473">
        <ele>244.80000305176</ele>
        <time>2019-09-13T10:49:16Z</time>
      </trkpt>
      <trkpt lat="46.44234" lon="4.88466">
        <ele>245</ele>
        <time>2019-09-13T10:49:19Z</time>
      </trkpt>
      <trkpt lat="46.4422" lon="4.88458">
        <ele>245</ele>
        <time>2019-09-13T10:49:22Z</time>
      </trkpt>
      <trkpt lat="46.44205" lon="4.88451">
        <ele>245</ele>
        <time>2019-09-13T10:49:25Z</time>
      </trkpt>
      <trkpt lat="46.4417" lon="4.88434">
        <ele>245</ele>
        <time>2019-09-13T10:49:32Z</time>
      </trkpt>
      <trkpt lat="46.44135" lon="4.88418">
        <ele>245</ele>
        <time>2019-09-13T10:49:39Z</time>
      </trkpt>
      <trkpt lat="46.44125" lon="4.88412">
        <ele>245</ele>
        <time>2019-09-13T10:49:41Z</time>
      </trkpt>
      <trkpt lat="46.44083" lon="4.88391">
        <ele>245</ele>
        <time>2019-09-13T10:49:49Z</time>
      </trkpt>
      <trkpt lat="46.44037" lon="4.88367">
        <ele>244.80000305176</ele>
        <time>2019-09-13T10:49:58Z</time>
      </trkpt>
      <trkpt lat="46.44003" lon="4.8835">
        <ele>244.80000305176</ele>
        <time>2019-09-13T10:50:04Z</time>
      </trkpt>
      <trkpt lat="46.43959" lon="4.88329">
        <ele>244.60000610352</ele>
        <time>2019-09-13T10:50:12Z</time>
      </trkpt>
      <trkpt lat="46.43923" lon="4.88314">
        <ele>245</ele>
        <time>2019-09-13T10:50:19Z</time>
      </trkpt>
      <trkpt lat="46.43904" lon="4.88319">
        <ele>245</ele>
        <time>2019-09-13T10:50:23Z</time>
      </trkpt>
      <trkpt lat="46.43896" lon="4.88339">
        <ele>245</ele>
        <time>2019-09-13T10:50:26Z</time>
      </trkpt>
      <trkpt lat="46.43896" lon="4.88347">
        <ele>245</ele>
        <time>2019-09-13T10:50:27Z</time>
      </trkpt>
      <trkpt lat="46.43894" lon="4.88372">
        <ele>244.60000610352</ele>
        <time>2019-09-13T10:50:30Z</time>
      </trkpt>
      <trkpt lat="46.43891" lon="4.88396">
        <ele>244.39999389648</ele>
        <time>2019-09-13T10:50:33Z</time>
      </trkpt>
      <trkpt lat="46.43881" lon="4.88463">
        <ele>244.19999694824</ele>
        <time>2019-09-13T10:50:41Z</time>
      </trkpt>
      <trkpt lat="46.4388" lon="4.88471">
        <ele>244.19999694824</ele>
        <time>2019-09-13T10:50:42Z</time>
      </trkpt>
      <trkpt lat="46.43869" lon="4.88488">
        <ele>244</ele>
        <time>2019-09-13T10:50:45Z</time>
      </trkpt>
      <trkpt lat="46.43854" lon="4.88487">
        <ele>243.80000305176</ele>
        <time>2019-09-13T10:50:48Z</time>
      </trkpt>
      <trkpt lat="46.43843" lon="4.88483">
        <ele>243.80000305176</ele>
        <time>2019-09-13T10:50:50Z</time>
      </trkpt>
      <trkpt lat="46.43814" lon="4.88473">
        <ele>243.80000305176</ele>
        <time>2019-09-13T10:50:55Z</time>
      </trkpt>
      <trkpt lat="46.43773" lon="4.88457">
        <ele>244</ele>
        <time>2019-09-13T10:51:02Z</time>
      </trkpt>
      <trkpt lat="46.43728" lon="4.8844">
        <ele>244.19999694824</ele>
        <time>2019-09-13T10:51:10Z</time>
      </trkpt>
      <trkpt lat="46.43684" lon="4.88424">
        <ele>244.19999694824</ele>
        <time>2019-09-13T10:51:18Z</time>
      </trkpt>
      <trkpt lat="46.43631" lon="4.88406">
        <ele>244</ele>
        <time>2019-09-13T10:51:27Z</time>
      </trkpt>
      <trkpt lat="46.43613" lon="4.88401">
        <ele>243.80000305176</ele>
        <time>2019-09-13T10:51:30Z</time>
      </trkpt>
      <trkpt lat="46.43602" lon="4.88403">
        <ele>243.80000305176</ele>
        <time>2019-09-13T10:51:32Z</time>
      </trkpt>
      <trkpt lat="46.43589" lon="4.8842">
        <ele>243.80000305176</ele>
        <time>2019-09-13T10:51:35Z</time>
      </trkpt>
      <trkpt lat="46.43583" lon="4.88435">
        <ele>243.80000305176</ele>
        <time>2019-09-13T10:51:37Z</time>
      </trkpt>
      <trkpt lat="46.43569" lon="4.88472">
        <ele>243.80000305176</ele>
        <time>2019-09-13T10:51:42Z</time>
      </trkpt>
      <trkpt lat="46.43547" lon="4.88529">
        <ele>243.80000305176</ele>
        <time>2019-09-13T10:51:50Z</time>
      </trkpt>
      <trkpt lat="46.43527" lon="4.88577">
        <ele>243.80000305176</ele>
        <time>2019-09-13T10:51:57Z</time>
      </trkpt>
      <trkpt lat="46.43521" lon="4.88591">
        <ele>243.80000305176</ele>
        <time>2019-09-13T10:51:59Z</time>
      </trkpt>
      <trkpt lat="46.43513" lon="4.88612">
        <ele>243.80000305176</ele>
        <time>2019-09-13T10:52:02Z</time>
      </trkpt>
      <trkpt lat="46.43496" lon="4.88655">
        <ele>244</ele>
        <time>2019-09-13T10:52:08Z</time>
      </trkpt>
      <trkpt lat="46.43487" lon="4.88676">
        <ele>244</ele>
        <time>2019-09-13T10:52:11Z</time>
      </trkpt>
      <trkpt lat="46.4347" lon="4.88725">
        <ele>244</ele>
        <time>2019-09-13T10:52:18Z</time>
      </trkpt>
      <trkpt lat="46.43466" lon="4.88738">
        <ele>244</ele>
        <time>2019-09-13T10:52:20Z</time>
      </trkpt>
      <trkpt lat="46.43459" lon="4.88755">
        <ele>244</ele>
        <time>2019-09-13T10:52:23Z</time>
      </trkpt>
      <trkpt lat="46.43446" lon="4.88753">
        <ele>243.80000305176</ele>
        <time>2019-09-13T10:52:26Z</time>
      </trkpt>
      <trkpt lat="46.43442" lon="4.88752">
        <ele>243.80000305176</ele>
        <time>2019-09-13T10:52:27Z</time>
      </trkpt>
      <trkpt lat="46.43429" lon="4.88756">
        <ele>243.80000305176</ele>
        <time>2019-09-13T10:52:30Z</time>
      </trkpt>
      <trkpt lat="46.43415" lon="4.88757">
        <ele>243.60000610352</ele>
        <time>2019-09-13T10:52:33Z</time>
      </trkpt>
      <trkpt lat="46.4341" lon="4.88757">
        <ele>243.60000610352</ele>
        <time>2019-09-13T10:52:34Z</time>
      </trkpt>
      <trkpt lat="46.43405" lon="4.88756">
        <ele>243.39999389648</ele>
        <time>2019-09-13T10:52:35Z</time>
      </trkpt>
      <trkpt lat="46.43366" lon="4.88748">
        <ele>243</ele>
        <time>2019-09-13T10:52:43Z</time>
      </trkpt>
      <trkpt lat="46.43336" lon="4.88742">
        <ele>243</ele>
        <time>2019-09-13T10:52:49Z</time>
      </trkpt>
      <trkpt lat="46.43298" lon="4.88736">
        <ele>243.39999389648</ele>
        <time>2019-09-13T10:52:56Z</time>
      </trkpt>
      <trkpt lat="46.43281" lon="4.88731">
        <ele>243.39999389648</ele>
        <time>2019-09-13T10:52:59Z</time>
      </trkpt>
      <trkpt lat="46.43264" lon="4.8873">
        <ele>243.39999389648</ele>
        <time>2019-09-13T10:53:02Z</time>
      </trkpt>
      <trkpt lat="46.43231" lon="4.88725">
        <ele>243.39999389648</ele>
        <time>2019-09-13T10:53:08Z</time>
      </trkpt>
      <trkpt lat="46.43193" lon="4.88726">
        <ele>243.60000610352</ele>
        <time>2019-09-13T10:53:15Z</time>
      </trkpt>
      <trkpt lat="46.4314" lon="4.88733">
        <ele>244.19999694824</ele>
        <time>2019-09-13T10:53:24Z</time>
      </trkpt>
      <trkpt lat="46.431" lon="4.88747">
        <ele>244.19999694824</ele>
        <time>2019-09-13T10:53:31Z</time>
      </trkpt>
      <trkpt lat="46.43066" lon="4.88761">
        <ele>244.19999694824</ele>
        <time>2019-09-13T10:53:37Z</time>
      </trkpt>
      <trkpt lat="46.43061" lon="4.88764">
        <ele>244.19999694824</ele>
        <time>2019-09-13T10:53:38Z</time>
      </trkpt>
      <trkpt lat="46.43008" lon="4.88796">
        <ele>244.19999694824</ele>
        <time>2019-09-13T10:53:48Z</time>
      </trkpt>
      <trkpt lat="46.42978" lon="4.88816">
        <ele>244</ele>
        <time>2019-09-13T10:53:54Z</time>
      </trkpt>
      <trkpt lat="46.42962" lon="4.88818">
        <ele>244</ele>
        <time>2019-09-13T10:53:57Z</time>
      </trkpt>
      <trkpt lat="46.42951" lon="4.88818">
        <ele>244</ele>
        <time>2019-09-13T10:53:59Z</time>
      </trkpt>
      <trkpt lat="46.42918" lon="4.88829">
        <ele>244</ele>
        <time>2019-09-13T10:54:05Z</time>
      </trkpt>
      <trkpt lat="46.42866" lon="4.88846">
        <ele>243.60000610352</ele>
        <time>2019-09-13T10:54:14Z</time>
      </trkpt>
      <trkpt lat="46.42825" lon="4.88849">
        <ele>243.39999389648</ele>
        <time>2019-09-13T10:54:21Z</time>
      </trkpt>
      <trkpt lat="46.42789" lon="4.88845">
        <ele>243.19999694824</ele>
        <time>2019-09-13T10:54:27Z</time>
      </trkpt>
      <trkpt lat="46.42748" lon="4.88843">
        <ele>243</ele>
        <time>2019-09-13T10:54:34Z</time>
      </trkpt>
      <trkpt lat="46.42709" lon="4.88841">
        <ele>243</ele>
        <time>2019-09-13T10:54:41Z</time>
      </trkpt>
      <trkpt lat="46.42674" lon="4.8884">
        <ele>243.19999694824</ele>
        <time>2019-09-13T10:54:47Z</time>
      </trkpt>
      <trkpt lat="46.42627" lon="4.88838">
        <ele>243.19999694824</ele>
        <time>2019-09-13T10:54:55Z</time>
      </trkpt>
      <trkpt lat="46.4258" lon="4.88835">
        <ele>243.19999694824</ele>
        <time>2019-09-13T10:55:03Z</time>
      </trkpt>
      <trkpt lat="46.42532" lon="4.88834">
        <ele>243</ele>
        <time>2019-09-13T10:55:11Z</time>
      </trkpt>
      <trkpt lat="46.42484" lon="4.88828">
        <ele>243.19999694824</ele>
        <time>2019-09-13T10:55:19Z</time>
      </trkpt>
      <trkpt lat="46.42431" lon="4.88818">
        <ele>243.39999389648</ele>
        <time>2019-09-13T10:55:28Z</time>
      </trkpt>
      <trkpt lat="46.42399" lon="4.88812">
        <ele>243.39999389648</ele>
        <time>2019-09-13T10:55:34Z</time>
      </trkpt>
      <trkpt lat="46.4239" lon="4.88812">
        <ele>243.39999389648</ele>
        <time>2019-09-13T10:55:37Z</time>
      </trkpt>
      <trkpt lat="46.42391" lon="4.88812">
        <ele>243.39999389648</ele>
        <time>2019-09-13T10:55:39Z</time>
      </trkpt>
      <trkpt lat="46.42389" lon="4.88812">
        <ele>243.19999694824</ele>
        <time>2019-09-13T10:56:28Z</time>
      </trkpt>
      <trkpt lat="46.42387" lon="4.88811">
        <ele>243.19999694824</ele>
        <time>2019-09-13T10:56:29Z</time>
      </trkpt>
      <trkpt lat="46.4237" lon="4.88808">
        <ele>243.19999694824</ele>
        <time>2019-09-13T10:56:34Z</time>
      </trkpt>
      <trkpt lat="46.4234" lon="4.888">
        <ele>243</ele>
        <time>2019-09-13T10:56:40Z</time>
      </trkpt>
      <trkpt lat="46.42291" lon="4.88791">
        <ele>243.19999694824</ele>
        <time>2019-09-13T10:56:49Z</time>
      </trkpt>
      <trkpt lat="46.42245" lon="4.88784">
        <ele>243.19999694824</ele>
        <time>2019-09-13T10:56:57Z</time>
      </trkpt>
      <trkpt lat="46.42191" lon="4.88774">
        <ele>243.39999389648</ele>
        <time>2019-09-13T10:57:06Z</time>
      </trkpt>
      <trkpt lat="46.42137" lon="4.88762">
        <ele>243.39999389648</ele>
        <time>2019-09-13T10:57:15Z</time>
      </trkpt>
      <trkpt lat="46.42125" lon="4.88761">
        <ele>243.39999389648</ele>
        <time>2019-09-13T10:57:17Z</time>
      </trkpt>
      <trkpt lat="46.42084" lon="4.88749">
        <ele>243.39999389648</ele>
        <time>2019-09-13T10:57:24Z</time>
      </trkpt>
      <trkpt lat="46.42029" lon="4.88738">
        <ele>243.39999389648</ele>
        <time>2019-09-13T10:57:33Z</time>
      </trkpt>
      <trkpt lat="46.41976" lon="4.88728">
        <ele>243.60000610352</ele>
        <time>2019-09-13T10:57:42Z</time>
      </trkpt>
      <trkpt lat="46.41969" lon="4.88727">
        <ele>243.60000610352</ele>
        <time>2019-09-13T10:57:43Z</time>
      </trkpt>
      <trkpt lat="46.41935" lon="4.88721">
        <ele>243.60000610352</ele>
        <time>2019-09-13T10:57:49Z</time>
      </trkpt>
      <trkpt lat="46.41888" lon="4.88713">
        <ele>243.80000305176</ele>
        <time>2019-09-13T10:57:57Z</time>
      </trkpt>
      <trkpt lat="46.41848" lon="4.88711">
        <ele>244</ele>
        <time>2019-09-13T10:58:04Z</time>
      </trkpt>
      <trkpt lat="46.41801" lon="4.88703">
        <ele>243.80000305176</ele>
        <time>2019-09-13T10:58:12Z</time>
      </trkpt>
      <trkpt lat="46.41779" lon="4.88694">
        <ele>243.80000305176</ele>
        <time>2019-09-13T10:58:16Z</time>
      </trkpt>
      <trkpt lat="46.4177" lon="4.88686">
        <ele>243.80000305176</ele>
        <time>2019-09-13T10:58:18Z</time>
      </trkpt>
      <trkpt lat="46.4176" lon="4.88678">
        <ele>243.80000305176</ele>
        <time>2019-09-13T10:58:20Z</time>
      </trkpt>
      <trkpt lat="46.4175" lon="4.88673">
        <ele>243.80000305176</ele>
        <time>2019-09-13T10:58:22Z</time>
      </trkpt>
      <trkpt lat="46.41744" lon="4.88673">
        <ele>243.80000305176</ele>
        <time>2019-09-13T10:58:23Z</time>
      </trkpt>
      <trkpt lat="46.41703" lon="4.88671">
        <ele>243.80000305176</ele>
        <time>2019-09-13T10:58:30Z</time>
      </trkpt>
      <trkpt lat="46.41656" lon="4.8866">
        <ele>243.80000305176</ele>
        <time>2019-09-13T10:58:38Z</time>
      </trkpt>
      <trkpt lat="46.41606" lon="4.88643">
        <ele>243.39999389648</ele>
        <time>2019-09-13T10:58:47Z</time>
      </trkpt>
      <trkpt lat="46.41572" lon="4.8863">
        <ele>243.39999389648</ele>
        <time>2019-09-13T10:58:53Z</time>
      </trkpt>
      <trkpt lat="46.4152" lon="4.88614">
        <ele>243.60000610352</ele>
        <time>2019-09-13T10:59:02Z</time>
      </trkpt>
      <trkpt lat="46.41479" lon="4.88602">
        <ele>243.80000305176</ele>
        <time>2019-09-13T10:59:09Z</time>
      </trkpt>
      <trkpt lat="46.41431" lon="4.88589">
        <ele>243.80000305176</ele>
        <time>2019-09-13T10:59:17Z</time>
      </trkpt>
      <trkpt lat="46.41377" lon="4.88583">
        <ele>243.80000305176</ele>
        <time>2019-09-13T10:59:26Z</time>
      </trkpt>
      <trkpt lat="46.41334" lon="4.88579">
        <ele>243.80000305176</ele>
        <time>2019-09-13T10:59:33Z</time>
      </trkpt>
      <trkpt lat="46.41279" lon="4.88574">
        <ele>243.80000305176</ele>
        <time>2019-09-13T10:59:42Z</time>
      </trkpt>
      <trkpt lat="46.41273" lon="4.88573">
        <ele>243.80000305176</ele>
        <time>2019-09-13T10:59:43Z</time>
      </trkpt>
      <trkpt lat="46.41232" lon="4.88569">
        <ele>243.60000610352</ele>
        <time>2019-09-13T10:59:50Z</time>
      </trkpt>
      <trkpt lat="46.41185" lon="4.88566">
        <ele>243.39999389648</ele>
        <time>2019-09-13T10:59:58Z</time>
      </trkpt>
      <trkpt lat="46.41145" lon="4.88571">
        <ele>243.39999389648</ele>
        <time>2019-09-13T11:00:05Z</time>
      </trkpt>
      <trkpt lat="46.41086" lon="4.88579">
        <ele>243.39999389648</ele>
        <time>2019-09-13T11:00:15Z</time>
      </trkpt>
      <trkpt lat="46.41038" lon="4.88585">
        <ele>243.19999694824</ele>
        <time>2019-09-13T11:00:23Z</time>
      </trkpt>
      <trkpt lat="46.41016" lon="4.88573">
        <ele>243.19999694824</ele>
        <time>2019-09-13T11:00:27Z</time>
      </trkpt>
      <trkpt lat="46.41011" lon="4.88568">
        <ele>243.19999694824</ele>
        <time>2019-09-13T11:00:28Z</time>
      </trkpt>
      <trkpt lat="46.41006" lon="4.88564">
        <ele>243.19999694824</ele>
        <time>2019-09-13T11:00:29Z</time>
      </trkpt>
      <trkpt lat="46.40992" lon="4.8856">
        <ele>243.19999694824</ele>
        <time>2019-09-13T11:00:32Z</time>
      </trkpt>
      <trkpt lat="46.40978" lon="4.88571">
        <ele>243.19999694824</ele>
        <time>2019-09-13T11:00:36Z</time>
      </trkpt>
      <trkpt lat="46.40954" lon="4.88597">
        <ele>243.80000305176</ele>
        <time>2019-09-13T11:00:42Z</time>
      </trkpt>
      <trkpt lat="46.40918" lon="4.88639">
        <ele>243.80000305176</ele>
        <time>2019-09-13T11:00:50Z</time>
      </trkpt>
      <trkpt lat="46.40913" lon="4.88644">
        <ele>243.80000305176</ele>
        <time>2019-09-13T11:00:51Z</time>
      </trkpt>
      <trkpt lat="46.40896" lon="4.88654">
        <ele>243.80000305176</ele>
        <time>2019-09-13T11:00:54Z</time>
      </trkpt>
      <trkpt lat="46.40884" lon="4.88659">
        <ele>243.80000305176</ele>
        <time>2019-09-13T11:00:56Z</time>
      </trkpt>
      <trkpt lat="46.40831" lon="4.88677">
        <ele>243.19999694824</ele>
        <time>2019-09-13T11:01:05Z</time>
      </trkpt>
      <trkpt lat="46.40825" lon="4.88678">
        <ele>243.19999694824</ele>
        <time>2019-09-13T11:01:06Z</time>
      </trkpt>
      <trkpt lat="46.40777" lon="4.88686">
        <ele>243.19999694824</ele>
        <time>2019-09-13T11:01:14Z</time>
      </trkpt>
      <trkpt lat="46.40729" lon="4.88698">
        <ele>243</ele>
        <time>2019-09-13T11:01:22Z</time>
      </trkpt>
      <trkpt lat="46.40684" lon="4.88713">
        <ele>243</ele>
        <time>2019-09-13T11:01:30Z</time>
      </trkpt>
      <trkpt lat="46.40652" lon="4.88726">
        <ele>243</ele>
        <time>2019-09-13T11:01:36Z</time>
      </trkpt>
      <trkpt lat="46.40613" lon="4.88734">
        <ele>243.19999694824</ele>
        <time>2019-09-13T11:01:43Z</time>
      </trkpt>
      <trkpt lat="46.40572" lon="4.88732">
        <ele>243.19999694824</ele>
        <time>2019-09-13T11:01:50Z</time>
      </trkpt>
      <trkpt lat="46.40527" lon="4.88722">
        <ele>243.39999389648</ele>
        <time>2019-09-13T11:01:58Z</time>
      </trkpt>
      <trkpt lat="46.40485" lon="4.88712">
        <ele>243.39999389648</ele>
        <time>2019-09-13T11:02:05Z</time>
      </trkpt>
      <trkpt lat="46.40445" lon="4.88691">
        <ele>243.39999389648</ele>
        <time>2019-09-13T11:02:12Z</time>
      </trkpt>
      <trkpt lat="46.40408" lon="4.88662">
        <ele>243.39999389648</ele>
        <time>2019-09-13T11:02:19Z</time>
      </trkpt>
      <trkpt lat="46.40367" lon="4.88625">
        <ele>243</ele>
        <time>2019-09-13T11:02:27Z</time>
      </trkpt>
      <trkpt lat="46.4032" lon="4.88588">
        <ele>243.19999694824</ele>
        <time>2019-09-13T11:02:36Z</time>
      </trkpt>
      <trkpt lat="46.40274" lon="4.88554">
        <ele>243.39999389648</ele>
        <time>2019-09-13T11:02:45Z</time>
      </trkpt>
      <trkpt lat="46.4023" lon="4.88523">
        <ele>243.60000610352</ele>
        <time>2019-09-13T11:02:53Z</time>
      </trkpt>
      <trkpt lat="46.4019" lon="4.88487">
        <ele>243.60000610352</ele>
        <time>2019-09-13T11:03:01Z</time>
      </trkpt>
      <trkpt lat="46.40156" lon="4.88451">
        <ele>243.80000305176</ele>
        <time>2019-09-13T11:03:08Z</time>
      </trkpt>
      <trkpt lat="46.40119" lon="4.88424">
        <ele>243.80000305176</ele>
        <time>2019-09-13T11:03:15Z</time>
      </trkpt>
      <trkpt lat="46.40077" lon="4.88397">
        <ele>243.80000305176</ele>
        <time>2019-09-13T11:03:23Z</time>
      </trkpt>
      <trkpt lat="46.4004" lon="4.88371">
        <ele>244</ele>
        <time>2019-09-13T11:03:30Z</time>
      </trkpt>
      <trkpt lat="46.39996" lon="4.88329">
        <ele>244</ele>
        <time>2019-09-13T11:03:39Z</time>
      </trkpt>
      <trkpt lat="46.39946" lon="4.88281">
        <ele>244</ele>
        <time>2019-09-13T11:03:49Z</time>
      </trkpt>
      <trkpt lat="46.39912" lon="4.88249">
        <ele>244</ele>
        <time>2019-09-13T11:03:56Z</time>
      </trkpt>
      <trkpt lat="46.39877" lon="4.88217">
        <ele>244.39999389648</ele>
        <time>2019-09-13T11:04:03Z</time>
      </trkpt>
      <trkpt lat="46.39838" lon="4.88183">
        <ele>244.39999389648</ele>
        <time>2019-09-13T11:04:11Z</time>
      </trkpt>
      <trkpt lat="46.39823" lon="4.88171">
        <ele>244.39999389648</ele>
        <time>2019-09-13T11:04:14Z</time>
      </trkpt>
      <trkpt lat="46.39807" lon="4.88161">
        <ele>244.19999694824</ele>
        <time>2019-09-13T11:04:17Z</time>
      </trkpt>
      <trkpt lat="46.39779" lon="4.88142">
        <ele>244.19999694824</ele>
        <time>2019-09-13T11:04:23Z</time>
      </trkpt>
      <trkpt lat="46.39744" lon="4.8812">
        <ele>244.19999694824</ele>
        <time>2019-09-13T11:04:30Z</time>
      </trkpt>
      <trkpt lat="46.39691" lon="4.88088">
        <ele>244.39999389648</ele>
        <time>2019-09-13T11:04:40Z</time>
      </trkpt>
      <trkpt lat="46.39686" lon="4.88085">
        <ele>244.39999389648</ele>
        <time>2019-09-13T11:04:41Z</time>
      </trkpt>
      <trkpt lat="46.39638" lon="4.88055">
        <ele>244.60000610352</ele>
        <time>2019-09-13T11:04:50Z</time>
      </trkpt>
      <trkpt lat="46.39588" lon="4.88027">
        <ele>244.60000610352</ele>
        <time>2019-09-13T11:04:59Z</time>
      </trkpt>
      <trkpt lat="46.39539" lon="4.88004">
        <ele>244.60000610352</ele>
        <time>2019-09-13T11:05:08Z</time>
      </trkpt>
      <trkpt lat="46.39499" lon="4.87984">
        <ele>244.60000610352</ele>
        <time>2019-09-13T11:05:15Z</time>
      </trkpt>
      <trkpt lat="46.39448" lon="4.87954">
        <ele>244.39999389648</ele>
        <time>2019-09-13T11:05:24Z</time>
      </trkpt>
      <trkpt lat="46.39437" lon="4.87947">
        <ele>244.39999389648</ele>
        <time>2019-09-13T11:05:26Z</time>
      </trkpt>
      <trkpt lat="46.39392" lon="4.87917">
        <ele>244.19999694824</ele>
        <time>2019-09-13T11:05:34Z</time>
      </trkpt>
      <trkpt lat="46.39357" lon="4.87887">
        <ele>244</ele>
        <time>2019-09-13T11:05:41Z</time>
      </trkpt>
      <trkpt lat="46.39348" lon="4.87879">
        <ele>244</ele>
        <time>2019-09-13T11:05:43Z</time>
      </trkpt>
      <trkpt lat="46.39336" lon="4.87867">
        <ele>244</ele>
        <time>2019-09-13T11:05:46Z</time>
      </trkpt>
      <trkpt lat="46.39308" lon="4.87841">
        <ele>244</ele>
        <time>2019-09-13T11:05:52Z</time>
      </trkpt>
      <trkpt lat="46.39272" lon="4.87802">
        <ele>244</ele>
        <time>2019-09-13T11:06:00Z</time>
      </trkpt>
      <trkpt lat="46.3923" lon="4.87769">
        <ele>244</ele>
        <time>2019-09-13T11:06:08Z</time>
      </trkpt>
      <trkpt lat="46.39208" lon="4.87753">
        <ele>243.80000305176</ele>
        <time>2019-09-13T11:06:12Z</time>
      </trkpt>
      <trkpt lat="46.39199" lon="4.87741">
        <ele>243.80000305176</ele>
        <time>2019-09-13T11:06:14Z</time>
      </trkpt>
      <trkpt lat="46.39169" lon="4.87699">
        <ele>243.60000610352</ele>
        <time>2019-09-13T11:06:21Z</time>
      </trkpt>
      <trkpt lat="46.39156" lon="4.87681">
        <ele>243.60000610352</ele>
        <time>2019-09-13T11:06:24Z</time>
      </trkpt>
      <trkpt lat="46.39141" lon="4.87667">
        <ele>243.60000610352</ele>
        <time>2019-09-13T11:06:27Z</time>
      </trkpt>
      <trkpt lat="46.39101" lon="4.87628">
        <ele>243.80000305176</ele>
        <time>2019-09-13T11:06:35Z</time>
      </trkpt>
      <trkpt lat="46.39059" lon="4.87583">
        <ele>244</ele>
        <time>2019-09-13T11:06:44Z</time>
      </trkpt>
      <trkpt lat="46.39021" lon="4.87548">
        <ele>244.19999694824</ele>
        <time>2019-09-13T11:06:52Z</time>
      </trkpt>
      <trkpt lat="46.38989" lon="4.87521">
        <ele>244.39999389648</ele>
        <time>2019-09-13T11:06:59Z</time>
      </trkpt>
      <trkpt lat="46.38943" lon="4.87486">
        <ele>244.60000610352</ele>
        <time>2019-09-13T11:07:08Z</time>
      </trkpt>
      <trkpt lat="46.389" lon="4.87447">
        <ele>244.80000305176</ele>
        <time>2019-09-13T11:07:17Z</time>
      </trkpt>
      <trkpt lat="46.38866" lon="4.87415">
        <ele>245.19999694824</ele>
        <time>2019-09-13T11:07:25Z</time>
      </trkpt>
      <trkpt lat="46.38852" lon="4.87405">
        <ele>245.39999389648</ele>
        <time>2019-09-13T11:07:28Z</time>
      </trkpt>
      <trkpt lat="46.38832" lon="4.87393">
        <ele>245.39999389648</ele>
        <time>2019-09-13T11:07:32Z</time>
      </trkpt>
      <trkpt lat="46.38817" lon="4.87384">
        <ele>245.60000610352</ele>
        <time>2019-09-13T11:07:35Z</time>
      </trkpt>
      <trkpt lat="46.38801" lon="4.87374">
        <ele>245.80000305176</ele>
        <time>2019-09-13T11:07:38Z</time>
      </trkpt>
      <trkpt lat="46.38761" lon="4.8734">
        <ele>245.60000610352</ele>
        <time>2019-09-13T11:07:46Z</time>
      </trkpt>
      <trkpt lat="46.38721" lon="4.87323">
        <ele>245.19999694824</ele>
        <time>2019-09-13T11:07:53Z</time>
      </trkpt>
      <trkpt lat="46.38669" lon="4.87297">
        <ele>245.19999694824</ele>
        <time>2019-09-13T11:08:02Z</time>
      </trkpt>
      <trkpt lat="46.38626" lon="4.87278">
        <ele>244.80000305176</ele>
        <time>2019-09-13T11:08:09Z</time>
      </trkpt>
      <trkpt lat="46.38615" lon="4.87274">
        <ele>244.39999389648</ele>
        <time>2019-09-13T11:08:11Z</time>
      </trkpt>
      <trkpt lat="46.38594" lon="4.87263">
        <ele>244</ele>
        <time>2019-09-13T11:08:15Z</time>
      </trkpt>
      <trkpt lat="46.3859" lon="4.8726">
        <ele>244</ele>
        <time>2019-09-13T11:08:16Z</time>
      </trkpt>
      <trkpt lat="46.38567" lon="4.8724">
        <ele>244</ele>
        <time>2019-09-13T11:08:21Z</time>
      </trkpt>
      <trkpt lat="46.38533" lon="4.87215">
        <ele>244.19999694824</ele>
        <time>2019-09-13T11:08:28Z</time>
      </trkpt>
      <trkpt lat="46.38522" lon="4.8721">
        <ele>244.39999389648</ele>
        <time>2019-09-13T11:08:30Z</time>
      </trkpt>
      <trkpt lat="46.38488" lon="4.87194">
        <ele>244.39999389648</ele>
        <time>2019-09-13T11:08:36Z</time>
      </trkpt>
      <trkpt lat="46.38441" lon="4.87165">
        <ele>244.19999694824</ele>
        <time>2019-09-13T11:08:44Z</time>
      </trkpt>
      <trkpt lat="46.38403" lon="4.8714">
        <ele>244</ele>
        <time>2019-09-13T11:08:51Z</time>
      </trkpt>
      <trkpt lat="46.3836" lon="4.8711">
        <ele>244.19999694824</ele>
        <time>2019-09-13T11:08:59Z</time>
      </trkpt>
      <trkpt lat="46.3833" lon="4.87086">
        <ele>244.39999389648</ele>
        <time>2019-09-13T11:09:05Z</time>
      </trkpt>
      <trkpt lat="46.38326" lon="4.8708">
        <ele>244.39999389648</ele>
        <time>2019-09-13T11:09:06Z</time>
      </trkpt>
      <trkpt lat="46.38295" lon="4.87054">
        <ele>244.80000305176</ele>
        <time>2019-09-13T11:09:12Z</time>
      </trkpt>
      <trkpt lat="46.38248" lon="4.87013">
        <ele>244.80000305176</ele>
        <time>2019-09-13T11:09:21Z</time>
      </trkpt>
      <trkpt lat="46.38211" lon="4.86973">
        <ele>244.80000305176</ele>
        <time>2019-09-13T11:09:29Z</time>
      </trkpt>
      <trkpt lat="46.38175" lon="4.86929">
        <ele>244.80000305176</ele>
        <time>2019-09-13T11:09:37Z</time>
      </trkpt>
      <trkpt lat="46.38132" lon="4.86881">
        <ele>245.19999694824</ele>
        <time>2019-09-13T11:09:46Z</time>
      </trkpt>
      <trkpt lat="46.38094" lon="4.86841">
        <ele>245.19999694824</ele>
        <time>2019-09-13T11:09:54Z</time>
      </trkpt>
      <trkpt lat="46.38063" lon="4.86812">
        <ele>245</ele>
        <time>2019-09-13T11:10:00Z</time>
      </trkpt>
      <trkpt lat="46.3802" lon="4.86774">
        <ele>245</ele>
        <time>2019-09-13T11:10:08Z</time>
      </trkpt>
      <trkpt lat="46.3798" lon="4.86739">
        <ele>244.39999389648</ele>
        <time>2019-09-13T11:10:16Z</time>
      </trkpt>
      <trkpt lat="46.37945" lon="4.86704">
        <ele>244.19999694824</ele>
        <time>2019-09-13T11:10:23Z</time>
      </trkpt>
      <trkpt lat="46.37907" lon="4.86664">
        <ele>244.19999694824</ele>
        <time>2019-09-13T11:10:31Z</time>
      </trkpt>
      <trkpt lat="46.37864" lon="4.86627">
        <ele>244.19999694824</ele>
        <time>2019-09-13T11:10:39Z</time>
      </trkpt>
      <trkpt lat="46.37818" lon="4.86592">
        <ele>244.39999389648</ele>
        <time>2019-09-13T11:10:48Z</time>
      </trkpt>
      <trkpt lat="46.37785" lon="4.86559">
        <ele>244.60000610352</ele>
        <time>2019-09-13T11:10:55Z</time>
      </trkpt>
      <trkpt lat="46.37753" lon="4.86536">
        <ele>244.80000305176</ele>
        <time>2019-09-13T11:11:01Z</time>
      </trkpt>
      <trkpt lat="46.37711" lon="4.86506">
        <ele>244.80000305176</ele>
        <time>2019-09-13T11:11:09Z</time>
      </trkpt>
      <trkpt lat="46.37665" lon="4.86469">
        <ele>244.60000610352</ele>
        <time>2019-09-13T11:11:18Z</time>
      </trkpt>
      <trkpt lat="46.37644" lon="4.86453">
        <ele>244.60000610352</ele>
        <time>2019-09-13T11:11:22Z</time>
      </trkpt>
      <trkpt lat="46.37634" lon="4.86442">
        <ele>244.60000610352</ele>
        <time>2019-09-13T11:11:24Z</time>
      </trkpt>
      <trkpt lat="46.37611" lon="4.86413">
        <ele>244.80000305176</ele>
        <time>2019-09-13T11:11:29Z</time>
      </trkpt>
      <trkpt lat="46.37596" lon="4.864">
        <ele>244.80000305176</ele>
        <time>2019-09-13T11:11:32Z</time>
      </trkpt>
      <trkpt lat="46.37556" lon="4.86362">
        <ele>245.19999694824</ele>
        <time>2019-09-13T11:11:40Z</time>
      </trkpt>
      <trkpt lat="46.37536" lon="4.86344">
        <ele>245.19999694824</ele>
        <time>2019-09-13T11:11:44Z</time>
      </trkpt>
      <trkpt lat="46.37524" lon="4.86337">
        <ele>245.19999694824</ele>
        <time>2019-09-13T11:11:46Z</time>
      </trkpt>
      <trkpt lat="46.37493" lon="4.8631">
        <ele>245.19999694824</ele>
        <time>2019-09-13T11:11:52Z</time>
      </trkpt>
      <trkpt lat="46.37472" lon="4.8629">
        <ele>245.39999389648</ele>
        <time>2019-09-13T11:11:57Z</time>
      </trkpt>
      <trkpt lat="46.37448" lon="4.8627">
        <ele>245.60000610352</ele>
        <time>2019-09-13T11:12:03Z</time>
      </trkpt>
      <trkpt lat="46.37419" lon="4.86247">
        <ele>246</ele>
        <time>2019-09-13T11:12:09Z</time>
      </trkpt>
      <trkpt lat="46.37377" lon="4.86207">
        <ele>246.39999389648</ele>
        <time>2019-09-13T11:12:18Z</time>
      </trkpt>
      <trkpt lat="46.37339" lon="4.86168">
        <ele>246.19999694824</ele>
        <time>2019-09-13T11:12:26Z</time>
      </trkpt>
      <trkpt lat="46.37301" lon="4.86126">
        <ele>246</ele>
        <time>2019-09-13T11:12:34Z</time>
      </trkpt>
      <trkpt lat="46.37259" lon="4.8609">
        <ele>245.80000305176</ele>
        <time>2019-09-13T11:12:42Z</time>
      </trkpt>
      <trkpt lat="46.37233" lon="4.86068">
        <ele>245.60000610352</ele>
        <time>2019-09-13T11:12:48Z</time>
      </trkpt>
      <trkpt lat="46.37202" lon="4.8604">
        <ele>245.80000305176</ele>
        <time>2019-09-13T11:12:55Z</time>
      </trkpt>
      <trkpt lat="46.37169" lon="4.86007">
        <ele>246.39999389648</ele>
        <time>2019-09-13T11:13:02Z</time>
      </trkpt>
      <trkpt lat="46.37134" lon="4.85975">
        <ele>246.39999389648</ele>
        <time>2019-09-13T11:13:09Z</time>
      </trkpt>
      <trkpt lat="46.37104" lon="4.85947">
        <ele>246.39999389648</ele>
        <time>2019-09-13T11:13:15Z</time>
      </trkpt>
      <trkpt lat="46.37068" lon="4.85916">
        <ele>246.19999694824</ele>
        <time>2019-09-13T11:13:22Z</time>
      </trkpt>
      <trkpt lat="46.37033" lon="4.85889">
        <ele>246</ele>
        <time>2019-09-13T11:13:29Z</time>
      </trkpt>
      <trkpt lat="46.37008" lon="4.85869">
        <ele>245.80000305176</ele>
        <time>2019-09-13T11:13:34Z</time>
      </trkpt>
      <trkpt lat="46.36975" lon="4.85845">
        <ele>245.80000305176</ele>
        <time>2019-09-13T11:13:40Z</time>
      </trkpt>
      <trkpt lat="46.36951" lon="4.85825">
        <ele>246</ele>
        <time>2019-09-13T11:13:45Z</time>
      </trkpt>
      <trkpt lat="46.36912" lon="4.85794">
        <ele>246.19999694824</ele>
        <time>2019-09-13T11:13:53Z</time>
      </trkpt>
      <trkpt lat="46.36864" lon="4.85762">
        <ele>246.39999389648</ele>
        <time>2019-09-13T11:14:02Z</time>
      </trkpt>
      <trkpt lat="46.36827" lon="4.85733">
        <ele>246.19999694824</ele>
        <time>2019-09-13T11:14:09Z</time>
      </trkpt>
      <trkpt lat="46.36789" lon="4.85709">
        <ele>245.80000305176</ele>
        <time>2019-09-13T11:14:16Z</time>
      </trkpt>
      <trkpt lat="46.36741" lon="4.85676">
        <ele>246.19999694824</ele>
        <time>2019-09-13T11:14:25Z</time>
      </trkpt>
      <trkpt lat="46.36701" lon="4.85647">
        <ele>246.39999389648</ele>
        <time>2019-09-13T11:14:33Z</time>
      </trkpt>
      <trkpt lat="46.36662" lon="4.85618">
        <ele>246.19999694824</ele>
        <time>2019-09-13T11:14:40Z</time>
      </trkpt>
      <trkpt lat="46.36613" lon="4.85582">
        <ele>246</ele>
        <time>2019-09-13T11:14:49Z</time>
      </trkpt>
      <trkpt lat="46.36607" lon="4.85578">
        <ele>246</ele>
        <time>2019-09-13T11:14:50Z</time>
      </trkpt>
      <trkpt lat="46.36578" lon="4.85552">
        <ele>246</ele>
        <time>2019-09-13T11:14:56Z</time>
      </trkpt>
      <trkpt lat="46.36538" lon="4.85518">
        <ele>246.19999694824</ele>
        <time>2019-09-13T11:15:04Z</time>
      </trkpt>
      <trkpt lat="46.36502" lon="4.85487">
        <ele>246.60000610352</ele>
        <time>2019-09-13T11:15:12Z</time>
      </trkpt>
      <trkpt lat="46.36476" lon="4.85466">
        <ele>246.80000305176</ele>
        <time>2019-09-13T11:15:18Z</time>
      </trkpt>
      <trkpt lat="46.36458" lon="4.85454">
        <ele>247.19999694824</ele>
        <time>2019-09-13T11:15:22Z</time>
      </trkpt>
      <trkpt lat="46.36443" lon="4.85443">
        <ele>247.80000305176</ele>
        <time>2019-09-13T11:15:25Z</time>
      </trkpt>
      <trkpt lat="46.36413" lon="4.85423">
        <ele>248</ele>
        <time>2019-09-13T11:15:32Z</time>
      </trkpt>
      <trkpt lat="46.36383" lon="4.85403">
        <ele>248</ele>
        <time>2019-09-13T11:15:38Z</time>
      </trkpt>
      <trkpt lat="46.36331" lon="4.85375">
        <ele>248</ele>
        <time>2019-09-13T11:15:47Z</time>
      </trkpt>
      <trkpt lat="46.36287" lon="4.85358">
        <ele>247</ele>
        <time>2019-09-13T11:15:54Z</time>
      </trkpt>
      <trkpt lat="46.36244" lon="4.85341">
        <ele>246.60000610352</ele>
        <time>2019-09-13T11:16:01Z</time>
      </trkpt>
      <trkpt lat="46.3621" lon="4.85329">
        <ele>246.60000610352</ele>
        <time>2019-09-13T11:16:07Z</time>
      </trkpt>
      <trkpt lat="46.36175" lon="4.85318">
        <ele>246.60000610352</ele>
        <time>2019-09-13T11:16:13Z</time>
      </trkpt>
      <trkpt lat="46.3612" lon="4.85298">
        <ele>246.19999694824</ele>
        <time>2019-09-13T11:16:21Z</time>
      </trkpt>
      <trkpt lat="46.36113" lon="4.85296">
        <ele>246.19999694824</ele>
        <time>2019-09-13T11:16:22Z</time>
      </trkpt>
      <trkpt lat="46.36075" lon="4.85284">
        <ele>245.39999389648</ele>
        <time>2019-09-13T11:16:28Z</time>
      </trkpt>
      <trkpt lat="46.36056" lon="4.85284">
        <ele>245.19999694824</ele>
        <time>2019-09-13T11:16:31Z</time>
      </trkpt>
      <trkpt lat="46.36049" lon="4.85283">
        <ele>245.19999694824</ele>
        <time>2019-09-13T11:16:32Z</time>
      </trkpt>
      <trkpt lat="46.36012" lon="4.85268">
        <ele>245</ele>
        <time>2019-09-13T11:16:38Z</time>
      </trkpt>
      <trkpt lat="46.35961" lon="4.85238">
        <ele>244.80000305176</ele>
        <time>2019-09-13T11:16:47Z</time>
      </trkpt>
      <trkpt lat="46.35955" lon="4.85234">
        <ele>244.80000305176</ele>
        <time>2019-09-13T11:16:48Z</time>
      </trkpt>
      <trkpt lat="46.35929" lon="4.8521">
        <ele>244.80000305176</ele>
        <time>2019-09-13T11:16:53Z</time>
      </trkpt>
      <trkpt lat="46.35886" lon="4.8518">
        <ele>245.19999694824</ele>
        <time>2019-09-13T11:17:01Z</time>
      </trkpt>
      <trkpt lat="46.35836" lon="4.85147">
        <ele>245.39999389648</ele>
        <time>2019-09-13T11:17:10Z</time>
      </trkpt>
      <trkpt lat="46.35831" lon="4.85144">
        <ele>245.39999389648</ele>
        <time>2019-09-13T11:17:11Z</time>
      </trkpt>
      <trkpt lat="46.35788" lon="4.85117">
        <ele>245.39999389648</ele>
        <time>2019-09-13T11:17:19Z</time>
      </trkpt>
      <trkpt lat="46.35754" lon="4.851">
        <ele>245.60000610352</ele>
        <time>2019-09-13T11:17:25Z</time>
      </trkpt>
      <trkpt lat="46.35749" lon="4.85097">
        <ele>245.60000610352</ele>
        <time>2019-09-13T11:17:26Z</time>
      </trkpt>
      <trkpt lat="46.35698" lon="4.85066">
        <ele>245.39999389648</ele>
        <time>2019-09-13T11:17:35Z</time>
      </trkpt>
      <trkpt lat="46.35681" lon="4.85056">
        <ele>245.39999389648</ele>
        <time>2019-09-13T11:17:38Z</time>
      </trkpt>
      <trkpt lat="46.35639" lon="4.85036">
        <ele>245.39999389648</ele>
        <time>2019-09-13T11:17:45Z</time>
      </trkpt>
      <trkpt lat="46.35594" lon="4.85017">
        <ele>245.39999389648</ele>
        <time>2019-09-13T11:17:53Z</time>
      </trkpt>
      <trkpt lat="46.35571" lon="4.85009">
        <ele>245.39999389648</ele>
        <time>2019-09-13T11:17:58Z</time>
      </trkpt>
      <trkpt lat="46.3554" lon="4.85004">
        <ele>245.39999389648</ele>
        <time>2019-09-13T11:18:04Z</time>
      </trkpt>
      <trkpt lat="46.35496" lon="4.84999">
        <ele>245.19999694824</ele>
        <time>2019-09-13T11:18:11Z</time>
      </trkpt>
      <trkpt lat="46.35456" lon="4.84994">
        <ele>245.19999694824</ele>
        <time>2019-09-13T11:18:17Z</time>
      </trkpt>
      <trkpt lat="46.35405" lon="4.84984">
        <ele>244.80000305176</ele>
        <time>2019-09-13T11:18:25Z</time>
      </trkpt>
      <trkpt lat="46.35393" lon="4.84983">
        <ele>244.80000305176</ele>
        <time>2019-09-13T11:18:27Z</time>
      </trkpt>
      <trkpt lat="46.35375" lon="4.84983">
        <ele>244.60000610352</ele>
        <time>2019-09-13T11:18:30Z</time>
      </trkpt>
      <trkpt lat="46.35344" lon="4.84983">
        <ele>244.60000610352</ele>
        <time>2019-09-13T11:18:35Z</time>
      </trkpt>
      <trkpt lat="46.3531" lon="4.84987">
        <ele>244.60000610352</ele>
        <time>2019-09-13T11:18:41Z</time>
      </trkpt>
      <trkpt lat="46.35304" lon="4.84988">
        <ele>244.60000610352</ele>
        <time>2019-09-13T11:18:42Z</time>
      </trkpt>
      <trkpt lat="46.35274" lon="4.84983">
        <ele>244.60000610352</ele>
        <time>2019-09-13T11:18:47Z</time>
      </trkpt>
      <trkpt lat="46.35245" lon="4.84983">
        <ele>244.80000305176</ele>
        <time>2019-09-13T11:18:52Z</time>
      </trkpt>
      <trkpt lat="46.35239" lon="4.84985">
        <ele>244.80000305176</ele>
        <time>2019-09-13T11:18:53Z</time>
      </trkpt>
      <trkpt lat="46.35202" lon="4.84994">
        <ele>244.80000305176</ele>
        <time>2019-09-13T11:18:59Z</time>
      </trkpt>
      <trkpt lat="46.35173" lon="4.85001">
        <ele>244.39999389648</ele>
        <time>2019-09-13T11:19:04Z</time>
      </trkpt>
      <trkpt lat="46.35131" lon="4.8501">
        <ele>244</ele>
        <time>2019-09-13T11:19:11Z</time>
      </trkpt>
      <trkpt lat="46.35106" lon="4.85016">
        <ele>244</ele>
        <time>2019-09-13T11:19:16Z</time>
      </trkpt>
      <trkpt lat="46.35062" lon="4.85025">
        <ele>244.60000610352</ele>
        <time>2019-09-13T11:19:24Z</time>
      </trkpt>
      <trkpt lat="46.35035" lon="4.85032">
        <ele>244.80000305176</ele>
        <time>2019-09-13T11:19:29Z</time>
      </trkpt>
      <trkpt lat="46.35007" lon="4.85039">
        <ele>245.19999694824</ele>
        <time>2019-09-13T11:19:34Z</time>
      </trkpt>
      <trkpt lat="46.34984" lon="4.85044">
        <ele>245.39999389648</ele>
        <time>2019-09-13T11:19:38Z</time>
      </trkpt>
      <trkpt lat="46.34978" lon="4.85045">
        <ele>245.39999389648</ele>
        <time>2019-09-13T11:19:39Z</time>
      </trkpt>
      <trkpt lat="46.34932" lon="4.85051">
        <ele>246.39999389648</ele>
        <time>2019-09-13T11:19:47Z</time>
      </trkpt>
      <trkpt lat="46.34926" lon="4.85051">
        <ele>246.60000610352</ele>
        <time>2019-09-13T11:19:48Z</time>
      </trkpt>
      <trkpt lat="46.34884" lon="4.85054">
        <ele>246.60000610352</ele>
        <time>2019-09-13T11:19:55Z</time>
      </trkpt>
      <trkpt lat="46.34843" lon="4.85059">
        <ele>246.60000610352</ele>
        <time>2019-09-13T11:20:01Z</time>
      </trkpt>
      <trkpt lat="46.34803" lon="4.85067">
        <ele>245.80000305176</ele>
        <time>2019-09-13T11:20:07Z</time>
      </trkpt>
      <trkpt lat="46.34784" lon="4.85072">
        <ele>245.19999694824</ele>
        <time>2019-09-13T11:20:10Z</time>
      </trkpt>
      <trkpt lat="46.3475" lon="4.85081">
        <ele>244.39999389648</ele>
        <time>2019-09-13T11:20:15Z</time>
      </trkpt>
      <trkpt lat="46.34737" lon="4.85085">
        <ele>244.19999694824</ele>
        <time>2019-09-13T11:20:17Z</time>
      </trkpt>
      <trkpt lat="46.34706" lon="4.85093">
        <ele>244</ele>
        <time>2019-09-13T11:20:22Z</time>
      </trkpt>
      <trkpt lat="46.34689" lon="4.85097">
        <ele>244</ele>
        <time>2019-09-13T11:20:25Z</time>
      </trkpt>
      <trkpt lat="46.34665" lon="4.85099">
        <ele>244</ele>
        <time>2019-09-13T11:20:29Z</time>
      </trkpt>
      <trkpt lat="46.34624" lon="4.85097">
        <ele>244.19999694824</ele>
        <time>2019-09-13T11:20:36Z</time>
      </trkpt>
      <trkpt lat="46.34585" lon="4.85098">
        <ele>244.39999389648</ele>
        <time>2019-09-13T11:20:42Z</time>
      </trkpt>
      <trkpt lat="46.34533" lon="4.85101">
        <ele>244.60000610352</ele>
        <time>2019-09-13T11:20:50Z</time>
      </trkpt>
      <trkpt lat="46.3449" lon="4.85102">
        <ele>244.60000610352</ele>
        <time>2019-09-13T11:20:57Z</time>
      </trkpt>
      <trkpt lat="46.34448" lon="4.85104">
        <ele>244.60000610352</ele>
        <time>2019-09-13T11:21:04Z</time>
      </trkpt>
      <trkpt lat="46.34407" lon="4.85107">
        <ele>244.80000305176</ele>
        <time>2019-09-13T11:21:11Z</time>
      </trkpt>
      <trkpt lat="46.3436" lon="4.85113">
        <ele>245</ele>
        <time>2019-09-13T11:21:19Z</time>
      </trkpt>
      <trkpt lat="46.34312" lon="4.85118">
        <ele>245</ele>
        <time>2019-09-13T11:21:27Z</time>
      </trkpt>
      <trkpt lat="46.34259" lon="4.85117">
        <ele>245</ele>
        <time>2019-09-13T11:21:36Z</time>
      </trkpt>
      <trkpt lat="46.34218" lon="4.85113">
        <ele>245</ele>
        <time>2019-09-13T11:21:43Z</time>
      </trkpt>
      <trkpt lat="46.34164" lon="4.85106">
        <ele>245</ele>
        <time>2019-09-13T11:21:52Z</time>
      </trkpt>
      <trkpt lat="46.34158" lon="4.85104">
        <ele>245</ele>
        <time>2019-09-13T11:21:53Z</time>
      </trkpt>
      <trkpt lat="46.34104" lon="4.85094">
        <ele>244.80000305176</ele>
        <time>2019-09-13T11:22:02Z</time>
      </trkpt>
      <trkpt lat="46.34061" lon="4.85085">
        <ele>244.80000305176</ele>
        <time>2019-09-13T11:22:09Z</time>
      </trkpt>
      <trkpt lat="46.34007" lon="4.85074">
        <ele>244.39999389648</ele>
        <time>2019-09-13T11:22:18Z</time>
      </trkpt>
      <trkpt lat="46.33966" lon="4.85069">
        <ele>244.80000305176</ele>
        <time>2019-09-13T11:22:25Z</time>
      </trkpt>
      <trkpt lat="46.33961" lon="4.8507">
        <ele>244.80000305176</ele>
        <time>2019-09-13T11:22:26Z</time>
      </trkpt>
      <trkpt lat="46.33931" lon="4.85078">
        <ele>245.39999389648</ele>
        <time>2019-09-13T11:22:32Z</time>
      </trkpt>
      <trkpt lat="46.33926" lon="4.85079">
        <ele>245.60000610352</ele>
        <time>2019-09-13T11:22:33Z</time>
      </trkpt>
      <trkpt lat="46.33893" lon="4.85082">
        <ele>246</ele>
        <time>2019-09-13T11:22:39Z</time>
      </trkpt>
      <trkpt lat="46.33877" lon="4.85083">
        <ele>246</ele>
        <time>2019-09-13T11:22:42Z</time>
      </trkpt>
      <trkpt lat="46.33871" lon="4.85083">
        <ele>246.19999694824</ele>
        <time>2019-09-13T11:22:43Z</time>
      </trkpt>
      <trkpt lat="46.33833" lon="4.85079">
        <ele>246</ele>
        <time>2019-09-13T11:22:49Z</time>
      </trkpt>
      <trkpt lat="46.33789" lon="4.85073">
        <ele>245.19999694824</ele>
        <time>2019-09-13T11:22:56Z</time>
      </trkpt>
      <trkpt lat="46.33736" lon="4.85063">
        <ele>244.60000610352</ele>
        <time>2019-09-13T11:23:05Z</time>
      </trkpt>
      <trkpt lat="46.33694" lon="4.85061">
        <ele>244.60000610352</ele>
        <time>2019-09-13T11:23:12Z</time>
      </trkpt>
      <trkpt lat="46.33657" lon="4.85064">
        <ele>244.60000610352</ele>
        <time>2019-09-13T11:23:18Z</time>
      </trkpt>
      <trkpt lat="46.33651" lon="4.85063">
        <ele>244.60000610352</ele>
        <time>2019-09-13T11:23:19Z</time>
      </trkpt>
      <trkpt lat="46.3361" lon="4.85054">
        <ele>244.80000305176</ele>
        <time>2019-09-13T11:23:26Z</time>
      </trkpt>
      <trkpt lat="46.33564" lon="4.85051">
        <ele>244.80000305176</ele>
        <time>2019-09-13T11:23:34Z</time>
      </trkpt>
      <trkpt lat="46.33516" lon="4.85055">
        <ele>244.80000305176</ele>
        <time>2019-09-13T11:23:42Z</time>
      </trkpt>
      <trkpt lat="46.33469" lon="4.85062">
        <ele>244.80000305176</ele>
        <time>2019-09-13T11:23:50Z</time>
      </trkpt>
      <trkpt lat="46.33427" lon="4.85067">
        <ele>244.80000305176</ele>
        <time>2019-09-13T11:23:57Z</time>
      </trkpt>
      <trkpt lat="46.33374" lon="4.85073">
        <ele>245</ele>
        <time>2019-09-13T11:24:06Z</time>
      </trkpt>
      <trkpt lat="46.33336" lon="4.85077">
        <ele>244.80000305176</ele>
        <time>2019-09-13T11:24:13Z</time>
      </trkpt>
      <trkpt lat="46.33326" lon="4.8508">
        <ele>244.80000305176</ele>
        <time>2019-09-13T11:24:15Z</time>
      </trkpt>
      <trkpt lat="46.3331" lon="4.85082">
        <ele>244.80000305176</ele>
        <time>2019-09-13T11:24:18Z</time>
      </trkpt>
      <trkpt lat="46.33283" lon="4.85084">
        <ele>244.80000305176</ele>
        <time>2019-09-13T11:24:23Z</time>
      </trkpt>
      <trkpt lat="46.33277" lon="4.85085">
        <ele>244.80000305176</ele>
        <time>2019-09-13T11:24:24Z</time>
      </trkpt>
      <trkpt lat="46.33242" lon="4.85087">
        <ele>244.60000610352</ele>
        <time>2019-09-13T11:24:30Z</time>
      </trkpt>
      <trkpt lat="46.33206" lon="4.85087">
        <ele>244.60000610352</ele>
        <time>2019-09-13T11:24:36Z</time>
      </trkpt>
      <trkpt lat="46.33173" lon="4.85086">
        <ele>244.39999389648</ele>
        <time>2019-09-13T11:24:42Z</time>
      </trkpt>
      <trkpt lat="46.33167" lon="4.85085">
        <ele>244.39999389648</ele>
        <time>2019-09-13T11:24:43Z</time>
      </trkpt>
      <trkpt lat="46.33154" lon="4.85084">
        <ele>244.19999694824</ele>
        <time>2019-09-13T11:24:45Z</time>
      </trkpt>
      <trkpt lat="46.33142" lon="4.85083">
        <ele>244.19999694824</ele>
        <time>2019-09-13T11:24:47Z</time>
      </trkpt>
      <trkpt lat="46.33106" lon="4.85081">
        <ele>243.80000305176</ele>
        <time>2019-09-13T11:24:53Z</time>
      </trkpt>
      <trkpt lat="46.33062" lon="4.85076">
        <ele>243.80000305176</ele>
        <time>2019-09-13T11:25:00Z</time>
      </trkpt>
      <trkpt lat="46.33024" lon="4.8507">
        <ele>243.80000305176</ele>
        <time>2019-09-13T11:25:06Z</time>
      </trkpt>
      <trkpt lat="46.32988" lon="4.85062">
        <ele>243.80000305176</ele>
        <time>2019-09-13T11:25:12Z</time>
      </trkpt>
      <trkpt lat="46.32946" lon="4.85051">
        <ele>243.80000305176</ele>
        <time>2019-09-13T11:25:19Z</time>
      </trkpt>
      <trkpt lat="46.32912" lon="4.85042">
        <ele>244</ele>
        <time>2019-09-13T11:25:25Z</time>
      </trkpt>
      <trkpt lat="46.32882" lon="4.85031">
        <ele>243.80000305176</ele>
        <time>2019-09-13T11:25:31Z</time>
      </trkpt>
      <trkpt lat="46.32857" lon="4.85019">
        <ele>244</ele>
        <time>2019-09-13T11:25:36Z</time>
      </trkpt>
      <trkpt lat="46.32853" lon="4.85016">
        <ele>244</ele>
        <time>2019-09-13T11:25:37Z</time>
      </trkpt>
      <trkpt lat="46.32841" lon="4.84992">
        <ele>244</ele>
        <time>2019-09-13T11:25:41Z</time>
      </trkpt>
      <trkpt lat="46.32837" lon="4.84985">
        <ele>244</ele>
        <time>2019-09-13T11:25:42Z</time>
      </trkpt>
      <trkpt lat="46.32818" lon="4.84945">
        <ele>244.19999694824</ele>
        <time>2019-09-13T11:25:48Z</time>
      </trkpt>
      <trkpt lat="46.32808" lon="4.84926">
        <ele>244.19999694824</ele>
        <time>2019-09-13T11:25:51Z</time>
      </trkpt>
      <trkpt lat="46.32798" lon="4.84907">
        <ele>244.19999694824</ele>
        <time>2019-09-13T11:25:54Z</time>
      </trkpt>
      <trkpt lat="46.32767" lon="4.84865">
        <ele>243.80000305176</ele>
        <time>2019-09-13T11:26:01Z</time>
      </trkpt>
      <trkpt lat="46.32752" lon="4.84849">
        <ele>243.80000305176</ele>
        <time>2019-09-13T11:26:04Z</time>
      </trkpt>
      <trkpt lat="46.32741" lon="4.8484">
        <ele>243.80000305176</ele>
        <time>2019-09-13T11:26:06Z</time>
      </trkpt>
      <trkpt lat="46.32708" lon="4.84807">
        <ele>243.80000305176</ele>
        <time>2019-09-13T11:26:12Z</time>
      </trkpt>
      <trkpt lat="46.32686" lon="4.84773">
        <ele>243.60000610352</ele>
        <time>2019-09-13T11:26:17Z</time>
      </trkpt>
      <trkpt lat="46.3266" lon="4.84731">
        <ele>243.39999389648</ele>
        <time>2019-09-13T11:26:23Z</time>
      </trkpt>
      <trkpt lat="46.32632" lon="4.84688">
        <ele>243.39999389648</ele>
        <time>2019-09-13T11:26:30Z</time>
      </trkpt>
      <trkpt lat="46.32624" lon="4.84674">
        <ele>243.39999389648</ele>
        <time>2019-09-13T11:26:32Z</time>
      </trkpt>
      <trkpt lat="46.32616" lon="4.8465">
        <ele>243.39999389648</ele>
        <time>2019-09-13T11:26:35Z</time>
      </trkpt>
      <trkpt lat="46.32605" lon="4.84608">
        <ele>244.19999694824</ele>
        <time>2019-09-13T11:26:40Z</time>
      </trkpt>
      <trkpt lat="46.3259" lon="4.84542">
        <ele>244.60000610352</ele>
        <time>2019-09-13T11:26:48Z</time>
      </trkpt>
      <trkpt lat="46.32581" lon="4.84517">
        <ele>245</ele>
        <time>2019-09-13T11:26:52Z</time>
      </trkpt>
      <trkpt lat="46.32569" lon="4.84499">
        <ele>245</ele>
        <time>2019-09-13T11:26:56Z</time>
      </trkpt>
      <trkpt lat="46.32554" lon="4.84497">
        <ele>245.19999694824</ele>
        <time>2019-09-13T11:26:59Z</time>
      </trkpt>
      <trkpt lat="46.32549" lon="4.84497">
        <ele>245.19999694824</ele>
        <time>2019-09-13T11:27:00Z</time>
      </trkpt>
      <trkpt lat="46.32518" lon="4.84493">
        <ele>245.39999389648</ele>
        <time>2019-09-13T11:27:06Z</time>
      </trkpt>
      <trkpt lat="46.32473" lon="4.8449">
        <ele>245.60000610352</ele>
        <time>2019-09-13T11:27:14Z</time>
      </trkpt>
      <trkpt lat="46.32433" lon="4.84488">
        <ele>245.39999389648</ele>
        <time>2019-09-13T11:27:21Z</time>
      </trkpt>
      <trkpt lat="46.32393" lon="4.84486">
        <ele>245.19999694824</ele>
        <time>2019-09-13T11:27:28Z</time>
      </trkpt>
      <trkpt lat="46.3235" lon="4.84481">
        <ele>245</ele>
        <time>2019-09-13T11:27:35Z</time>
      </trkpt>
      <trkpt lat="46.32322" lon="4.84479">
        <ele>245</ele>
        <time>2019-09-13T11:27:40Z</time>
      </trkpt>
      <trkpt lat="46.32291" lon="4.84477">
        <ele>245</ele>
        <time>2019-09-13T11:27:45Z</time>
      </trkpt>
      <trkpt lat="46.32248" lon="4.84475">
        <ele>245</ele>
        <time>2019-09-13T11:27:52Z</time>
      </trkpt>
      <trkpt lat="46.32205" lon="4.84479">
        <ele>245.19999694824</ele>
        <time>2019-09-13T11:27:59Z</time>
      </trkpt>
      <trkpt lat="46.32171" lon="4.84486">
        <ele>245.19999694824</ele>
        <time>2019-09-13T11:28:05Z</time>
      </trkpt>
      <trkpt lat="46.32143" lon="4.84494">
        <ele>245.39999389648</ele>
        <time>2019-09-13T11:28:11Z</time>
      </trkpt>
      <trkpt lat="46.32117" lon="4.84488">
        <ele>245.60000610352</ele>
        <time>2019-09-13T11:28:17Z</time>
      </trkpt>
      <trkpt lat="46.3209" lon="4.84469">
        <ele>245.60000610352</ele>
        <time>2019-09-13T11:28:23Z</time>
      </trkpt>
      <trkpt lat="46.32052" lon="4.84439">
        <ele>245.60000610352</ele>
        <time>2019-09-13T11:28:31Z</time>
      </trkpt>
      <trkpt lat="46.32037" lon="4.84428">
        <ele>245.80000305176</ele>
        <time>2019-09-13T11:28:34Z</time>
      </trkpt>
      <trkpt lat="46.32013" lon="4.8441">
        <ele>245.80000305176</ele>
        <time>2019-09-13T11:28:39Z</time>
      </trkpt>
      <trkpt lat="46.31978" lon="4.84383">
        <ele>245.80000305176</ele>
        <time>2019-09-13T11:28:46Z</time>
      </trkpt>
      <trkpt lat="46.31973" lon="4.84379">
        <ele>246</ele>
        <time>2019-09-13T11:28:47Z</time>
      </trkpt>
      <trkpt lat="46.31953" lon="4.84363">
        <ele>246</ele>
        <time>2019-09-13T11:28:51Z</time>
      </trkpt>
      <trkpt lat="46.31902" lon="4.84328">
        <ele>246.19999694824</ele>
        <time>2019-09-13T11:29:00Z</time>
      </trkpt>
      <trkpt lat="46.31855" lon="4.84298">
        <ele>246.39999389648</ele>
        <time>2019-09-13T11:29:08Z</time>
      </trkpt>
      <trkpt lat="46.3185" lon="4.84294">
        <ele>246.39999389648</ele>
        <time>2019-09-13T11:29:09Z</time>
      </trkpt>
      <trkpt lat="46.31804" lon="4.84263">
        <ele>246.19999694824</ele>
        <time>2019-09-13T11:29:17Z</time>
      </trkpt>
      <trkpt lat="46.31771" lon="4.84246">
        <ele>245.80000305176</ele>
        <time>2019-09-13T11:29:23Z</time>
      </trkpt>
      <trkpt lat="46.31733" lon="4.84229">
        <ele>245.39999389648</ele>
        <time>2019-09-13T11:29:30Z</time>
      </trkpt>
      <trkpt lat="46.31728" lon="4.84228">
        <ele>245.39999389648</ele>
        <time>2019-09-13T11:29:31Z</time>
      </trkpt>
      <trkpt lat="46.31718" lon="4.84227">
        <ele>244.80000305176</ele>
        <time>2019-09-13T11:29:34Z</time>
      </trkpt>
      <trkpt lat="46.31713" lon="4.84226">
        <ele>244.39999389648</ele>
        <time>2019-09-13T11:29:36Z</time>
      </trkpt>
      <trkpt lat="46.31706" lon="4.84219">
        <ele>244.19999694824</ele>
        <time>2019-09-13T11:29:39Z</time>
      </trkpt>
      <trkpt lat="46.31701" lon="4.8421">
        <ele>244</ele>
        <time>2019-09-13T11:29:42Z</time>
      </trkpt>
      <trkpt lat="46.317" lon="4.84209">
        <ele>243.80000305176</ele>
        <time>2019-09-13T11:29:43Z</time>
      </trkpt>
      <trkpt lat="46.31687" lon="4.84203">
        <ele>243.60000610352</ele>
        <time>2019-09-13T11:29:47Z</time>
      </trkpt>
      <trkpt lat="46.31682" lon="4.84199">
        <ele>243.60000610352</ele>
        <time>2019-09-13T11:29:48Z</time>
      </trkpt>
      <trkpt lat="46.31657" lon="4.84182">
        <ele>243.39999389648</ele>
        <time>2019-09-13T11:29:53Z</time>
      </trkpt>
      <trkpt lat="46.31606" lon="4.84152">
        <ele>243.60000610352</ele>
        <time>2019-09-13T11:30:02Z</time>
      </trkpt>
      <trkpt lat="46.31556" lon="4.84123">
        <ele>243.80000305176</ele>
        <time>2019-09-13T11:30:11Z</time>
      </trkpt>
      <trkpt lat="46.31519" lon="4.841">
        <ele>243.80000305176</ele>
        <time>2019-09-13T11:30:18Z</time>
      </trkpt>
      <trkpt lat="46.31514" lon="4.84096">
        <ele>243.80000305176</ele>
        <time>2019-09-13T11:30:19Z</time>
      </trkpt>
      <trkpt lat="46.315" lon="4.84086">
        <ele>243.80000305176</ele>
        <time>2019-09-13T11:30:22Z</time>
      </trkpt>
      <trkpt lat="46.31495" lon="4.84084">
        <ele>243.80000305176</ele>
        <time>2019-09-13T11:30:23Z</time>
      </trkpt>
      <trkpt lat="46.31478" lon="4.84075">
        <ele>243.80000305176</ele>
        <time>2019-09-13T11:30:26Z</time>
      </trkpt>
      <trkpt lat="46.31457" lon="4.84061">
        <ele>243.80000305176</ele>
        <time>2019-09-13T11:30:30Z</time>
      </trkpt>
      <trkpt lat="46.3142" lon="4.84033">
        <ele>243.80000305176</ele>
        <time>2019-09-13T11:30:37Z</time>
      </trkpt>
      <trkpt lat="46.31385" lon="4.84005">
        <ele>244.19999694824</ele>
        <time>2019-09-13T11:30:44Z</time>
      </trkpt>
      <trkpt lat="46.31374" lon="4.84002">
        <ele>244.60000610352</ele>
        <time>2019-09-13T11:30:46Z</time>
      </trkpt>
      <trkpt lat="46.31358" lon="4.83995">
        <ele>245.60000610352</ele>
        <time>2019-09-13T11:30:49Z</time>
      </trkpt>
      <trkpt lat="46.31352" lon="4.83994">
        <ele>245.80000305176</ele>
        <time>2019-09-13T11:30:50Z</time>
      </trkpt>
      <trkpt lat="46.31341" lon="4.83995">
        <ele>246</ele>
        <time>2019-09-13T11:30:52Z</time>
      </trkpt>
      <trkpt lat="46.31323" lon="4.83992">
        <ele>246.39999389648</ele>
        <time>2019-09-13T11:30:55Z</time>
      </trkpt>
      <trkpt lat="46.31317" lon="4.8399">
        <ele>246.39999389648</ele>
        <time>2019-09-13T11:30:56Z</time>
      </trkpt>
      <trkpt lat="46.31278" lon="4.8397">
        <ele>246.60000610352</ele>
        <time>2019-09-13T11:31:03Z</time>
      </trkpt>
      <trkpt lat="46.31229" lon="4.83935">
        <ele>246.39999389648</ele>
        <time>2019-09-13T11:31:12Z</time>
      </trkpt>
      <trkpt lat="46.31185" lon="4.83903">
        <ele>246.39999389648</ele>
        <time>2019-09-13T11:31:20Z</time>
      </trkpt>
      <trkpt lat="46.31148" lon="4.83872">
        <ele>246.19999694824</ele>
        <time>2019-09-13T11:31:27Z</time>
      </trkpt>
      <trkpt lat="46.31134" lon="4.8386">
        <ele>246.19999694824</ele>
        <time>2019-09-13T11:31:30Z</time>
      </trkpt>
      <trkpt lat="46.31124" lon="4.83856">
        <ele>246.19999694824</ele>
        <time>2019-09-13T11:31:32Z</time>
      </trkpt>
      <trkpt lat="46.31094" lon="4.83844">
        <ele>246.39999389648</ele>
        <time>2019-09-13T11:31:38Z</time>
      </trkpt>
      <trkpt lat="46.31045" lon="4.83824">
        <ele>246.19999694824</ele>
        <time>2019-09-13T11:31:47Z</time>
      </trkpt>
      <trkpt lat="46.31001" lon="4.83807">
        <ele>246.19999694824</ele>
        <time>2019-09-13T11:31:55Z</time>
      </trkpt>
      <trkpt lat="46.30984" lon="4.83801">
        <ele>246.19999694824</ele>
        <time>2019-09-13T11:31:58Z</time>
      </trkpt>
      <trkpt lat="46.30973" lon="4.83802">
        <ele>246.19999694824</ele>
        <time>2019-09-13T11:32:00Z</time>
      </trkpt>
      <trkpt lat="46.30961" lon="4.83804">
        <ele>246.19999694824</ele>
        <time>2019-09-13T11:32:02Z</time>
      </trkpt>
      <trkpt lat="46.30948" lon="4.838">
        <ele>246.19999694824</ele>
        <time>2019-09-13T11:32:04Z</time>
      </trkpt>
      <trkpt lat="46.30919" lon="4.83787">
        <ele>246.39999389648</ele>
        <time>2019-09-13T11:32:09Z</time>
      </trkpt>
      <trkpt lat="46.30913" lon="4.83782">
        <ele>246.39999389648</ele>
        <time>2019-09-13T11:32:10Z</time>
      </trkpt>
      <trkpt lat="46.30895" lon="4.83767">
        <ele>246.39999389648</ele>
        <time>2019-09-13T11:32:14Z</time>
      </trkpt>
      <trkpt lat="46.3089" lon="4.83765">
        <ele>246.39999389648</ele>
        <time>2019-09-13T11:32:15Z</time>
      </trkpt>
      <trkpt lat="46.30876" lon="4.83761">
        <ele>246.39999389648</ele>
        <time>2019-09-13T11:32:19Z</time>
      </trkpt>
      <trkpt lat="46.3085" lon="4.8375">
        <ele>246.39999389648</ele>
        <time>2019-09-13T11:32:25Z</time>
      </trkpt>
      <trkpt lat="46.30829" lon="4.8374">
        <ele>246.39999389648</ele>
        <time>2019-09-13T11:32:30Z</time>
      </trkpt>
      <trkpt lat="46.30793" lon="4.83724">
        <ele>246.60000610352</ele>
        <time>2019-09-13T11:32:37Z</time>
      </trkpt>
      <trkpt lat="46.30751" lon="4.83708">
        <ele>246.80000305176</ele>
        <time>2019-09-13T11:32:44Z</time>
      </trkpt>
      <trkpt lat="46.30725" lon="4.83698">
        <ele>247</ele>
        <time>2019-09-13T11:32:49Z</time>
      </trkpt>
      <trkpt lat="46.30723" lon="4.83699">
        <ele>247</ele>
        <time>2019-09-13T11:32:50Z</time>
      </trkpt>
      <trkpt lat="46.30723" lon="4.837">
        <ele>247</ele>
        <time>2019-09-13T11:32:52Z</time>
      </trkpt>
      <trkpt lat="46.30724" lon="4.837">
        <ele>247.19999694824</ele>
        <time>2019-09-13T11:32:55Z</time>
      </trkpt>
      <trkpt lat="46.30725" lon="4.83703">
        <ele>247.19999694824</ele>
        <time>2019-09-13T11:32:57Z</time>
      </trkpt>
      <trkpt lat="46.30719" lon="4.83702">
        <ele>247.19999694824</ele>
        <time>2019-09-13T11:33:00Z</time>
      </trkpt>
      <trkpt lat="46.30697" lon="4.83694">
        <ele>246.80000305176</ele>
        <time>2019-09-13T11:33:05Z</time>
      </trkpt>
      <trkpt lat="46.30663" lon="4.8368">
        <ele>246.39999389648</ele>
        <time>2019-09-13T11:33:11Z</time>
      </trkpt>
      <trkpt lat="46.3062" lon="4.83665">
        <ele>245.19999694824</ele>
        <time>2019-09-13T11:33:18Z</time>
      </trkpt>
      <trkpt lat="46.30614" lon="4.83663">
        <ele>244.80000305176</ele>
        <time>2019-09-13T11:33:19Z</time>
      </trkpt>
      <trkpt lat="46.306" lon="4.83652">
        <ele>244.60000610352</ele>
        <time>2019-09-13T11:33:22Z</time>
      </trkpt>
      <trkpt lat="46.30569" lon="4.83627">
        <ele>244.39999389648</ele>
        <time>2019-09-13T11:33:29Z</time>
      </trkpt>
      <trkpt lat="46.30536" lon="4.83599">
        <ele>244.19999694824</ele>
        <time>2019-09-13T11:33:36Z</time>
      </trkpt>
      <trkpt lat="46.30512" lon="4.83578">
        <ele>243.60000610352</ele>
        <time>2019-09-13T11:33:41Z</time>
      </trkpt>
      <trkpt lat="46.30501" lon="4.83573">
        <ele>243.39999389648</ele>
        <time>2019-09-13T11:33:43Z</time>
      </trkpt>
      <trkpt lat="46.3048" lon="4.83554">
        <ele>243.19999694824</ele>
        <time>2019-09-13T11:33:47Z</time>
      </trkpt>
      <trkpt lat="46.30442" lon="4.83518">
        <ele>243.19999694824</ele>
        <time>2019-09-13T11:33:54Z</time>
      </trkpt>
      <trkpt lat="46.30405" lon="4.83485">
        <ele>243</ele>
        <time>2019-09-13T11:34:01Z</time>
      </trkpt>
      <trkpt lat="46.30389" lon="4.83471">
        <ele>243.19999694824</ele>
        <time>2019-09-13T11:34:06Z</time>
      </trkpt>
      <trkpt lat="46.30371" lon="4.83458">
        <ele>244.60000610352</ele>
        <time>2019-09-13T11:34:11Z</time>
      </trkpt>
      <trkpt lat="46.30367" lon="4.83454">
        <ele>245</ele>
        <time>2019-09-13T11:34:12Z</time>
      </trkpt>
      <trkpt lat="46.30359" lon="4.83448">
        <ele>245.80000305176</ele>
        <time>2019-09-13T11:34:14Z</time>
      </trkpt>
      <trkpt lat="46.30355" lon="4.83445">
        <ele>245.80000305176</ele>
        <time>2019-09-13T11:34:15Z</time>
      </trkpt>
      <trkpt lat="46.30344" lon="4.83432">
        <ele>246</ele>
        <time>2019-09-13T11:34:18Z</time>
      </trkpt>
      <trkpt lat="46.30335" lon="4.83417">
        <ele>246</ele>
        <time>2019-09-13T11:34:21Z</time>
      </trkpt>
      <trkpt lat="46.30325" lon="4.83404">
        <ele>246</ele>
        <time>2019-09-13T11:34:24Z</time>
      </trkpt>
      <trkpt lat="46.30301" lon="4.83381">
        <ele>246</ele>
        <time>2019-09-13T11:34:30Z</time>
      </trkpt>
      <trkpt lat="46.30269" lon="4.83353">
        <ele>246</ele>
        <time>2019-09-13T11:34:37Z</time>
      </trkpt>
      <trkpt lat="46.30238" lon="4.83327">
        <ele>246</ele>
        <time>2019-09-13T11:34:44Z</time>
      </trkpt>
      <trkpt lat="46.30234" lon="4.83324">
        <ele>246</ele>
        <time>2019-09-13T11:34:45Z</time>
      </trkpt>
      <trkpt lat="46.30202" lon="4.83299">
        <ele>246</ele>
        <time>2019-09-13T11:34:52Z</time>
      </trkpt>
      <trkpt lat="46.30197" lon="4.83295">
        <ele>246</ele>
        <time>2019-09-13T11:34:53Z</time>
      </trkpt>
      <trkpt lat="46.30183" lon="4.83292">
        <ele>246</ele>
        <time>2019-09-13T11:34:56Z</time>
      </trkpt>
      <trkpt lat="46.30163" lon="4.83286">
        <ele>246</ele>
        <time>2019-09-13T11:35:00Z</time>
      </trkpt>
      <trkpt lat="46.30158" lon="4.83286">
        <ele>245.80000305176</ele>
        <time>2019-09-13T11:35:01Z</time>
      </trkpt>
      <trkpt lat="46.30152" lon="4.83284">
        <ele>245.80000305176</ele>
        <time>2019-09-13T11:35:02Z</time>
      </trkpt>
      <trkpt lat="46.30138" lon="4.83273">
        <ele>245.80000305176</ele>
        <time>2019-09-13T11:35:05Z</time>
      </trkpt>
      <trkpt lat="46.30103" lon="4.8324">
        <ele>245.60000610352</ele>
        <time>2019-09-13T11:35:13Z</time>
      </trkpt>
      <trkpt lat="46.30061" lon="4.83207">
        <ele>245.60000610352</ele>
        <time>2019-09-13T11:35:22Z</time>
      </trkpt>
      <trkpt lat="46.30021" lon="4.83184">
        <ele>245.60000610352</ele>
        <time>2019-09-13T11:35:30Z</time>
      </trkpt>
      <trkpt lat="46.30011" lon="4.8318">
        <ele>245.60000610352</ele>
        <time>2019-09-13T11:35:32Z</time>
      </trkpt>
      <trkpt lat="46.29985" lon="4.83165">
        <ele>245.39999389648</ele>
        <time>2019-09-13T11:35:37Z</time>
      </trkpt>
      <trkpt lat="46.29949" lon="4.83146">
        <ele>245.39999389648</ele>
        <time>2019-09-13T11:35:44Z</time>
      </trkpt>
      <trkpt lat="46.29934" lon="4.83136">
        <ele>245.39999389648</ele>
        <time>2019-09-13T11:35:47Z</time>
      </trkpt>
      <trkpt lat="46.29925" lon="4.83128">
        <ele>245.39999389648</ele>
        <time>2019-09-13T11:35:49Z</time>
      </trkpt>
      <trkpt lat="46.29912" lon="4.83116">
        <ele>245.39999389648</ele>
        <time>2019-09-13T11:35:52Z</time>
      </trkpt>
      <trkpt lat="46.29903" lon="4.8311">
        <ele>245.39999389648</ele>
        <time>2019-09-13T11:35:54Z</time>
      </trkpt>
      <trkpt lat="46.29897" lon="4.83106">
        <ele>245.39999389648</ele>
        <time>2019-09-13T11:35:57Z</time>
      </trkpt>
      <trkpt lat="46.29897" lon="4.83106">
        <ele>245.60000610352</ele>
        <time>2019-09-13T11:35:59Z</time>
      </trkpt>
      <trkpt lat="46.29895" lon="4.83106">
        <ele>247.19999694824</ele>
        <time>2019-09-13T11:46:38Z</time>
      </trkpt>
      <trkpt lat="46.29893" lon="4.83104">
        <ele>247.19999694824</ele>
        <time>2019-09-13T11:46:39Z</time>
      </trkpt>
      <trkpt lat="46.29879" lon="4.83097">
        <ele>247.19999694824</ele>
        <time>2019-09-13T11:46:44Z</time>
      </trkpt>
      <trkpt lat="46.29859" lon="4.83086">
        <ele>247</ele>
        <time>2019-09-13T11:46:50Z</time>
      </trkpt>
      <trkpt lat="46.29837" lon="4.83073">
        <ele>247</ele>
        <time>2019-09-13T11:46:56Z</time>
      </trkpt>
      <trkpt lat="46.29817" lon="4.83064">
        <ele>247</ele>
        <time>2019-09-13T11:47:01Z</time>
      </trkpt>
      <trkpt lat="46.29811" lon="4.8307">
        <ele>247</ele>
        <time>2019-09-13T11:47:04Z</time>
      </trkpt>
      <trkpt lat="46.29808" lon="4.83072">
        <ele>247</ele>
        <time>2019-09-13T11:47:05Z</time>
      </trkpt>
      <trkpt lat="46.29799" lon="4.83072">
        <ele>247</ele>
        <time>2019-09-13T11:47:07Z</time>
      </trkpt>
      <trkpt lat="46.29789" lon="4.83069">
        <ele>247</ele>
        <time>2019-09-13T11:47:09Z</time>
      </trkpt>
      <trkpt lat="46.29783" lon="4.83067">
        <ele>247</ele>
        <time>2019-09-13T11:47:10Z</time>
      </trkpt>
      <trkpt lat="46.29778" lon="4.83067">
        <ele>247</ele>
        <time>2019-09-13T11:47:11Z</time>
      </trkpt>
      <trkpt lat="46.29758" lon="4.83067">
        <ele>246.19999694824</ele>
        <time>2019-09-13T11:47:15Z</time>
      </trkpt>
      <trkpt lat="46.29753" lon="4.83063">
        <ele>245.80000305176</ele>
        <time>2019-09-13T11:47:16Z</time>
      </trkpt>
      <trkpt lat="46.29735" lon="4.8305">
        <ele>245.60000610352</ele>
        <time>2019-09-13T11:47:20Z</time>
      </trkpt>
      <trkpt lat="46.2973" lon="4.83048">
        <ele>245.60000610352</ele>
        <time>2019-09-13T11:47:21Z</time>
      </trkpt>
      <trkpt lat="46.297" lon="4.83034">
        <ele>245.60000610352</ele>
        <time>2019-09-13T11:47:28Z</time>
      </trkpt>
      <trkpt lat="46.29693" lon="4.83014">
        <ele>246.19999694824</ele>
        <time>2019-09-13T11:47:32Z</time>
      </trkpt>
      <trkpt lat="46.29691" lon="4.8301">
        <ele>246.39999389648</ele>
        <time>2019-09-13T11:47:33Z</time>
      </trkpt>
      <trkpt lat="46.29683" lon="4.83005">
        <ele>246.60000610352</ele>
        <time>2019-09-13T11:47:35Z</time>
      </trkpt>
      <trkpt lat="46.29658" lon="4.82994">
        <ele>247</ele>
        <time>2019-09-13T11:47:41Z</time>
      </trkpt>
      <trkpt lat="46.29629" lon="4.82981">
        <ele>247.19999694824</ele>
        <time>2019-09-13T11:47:47Z</time>
      </trkpt>
      <trkpt lat="46.296" lon="4.8297">
        <ele>247.19999694824</ele>
        <time>2019-09-13T11:47:53Z</time>
      </trkpt>
      <trkpt lat="46.29574" lon="4.82961">
        <ele>247.19999694824</ele>
        <time>2019-09-13T11:47:58Z</time>
      </trkpt>
      <trkpt lat="46.29545" lon="4.82948">
        <ele>247.19999694824</ele>
        <time>2019-09-13T11:48:04Z</time>
      </trkpt>
      <trkpt lat="46.29534" lon="4.82944">
        <ele>247.19999694824</ele>
        <time>2019-09-13T11:48:06Z</time>
      </trkpt>
      <trkpt lat="46.29503" lon="4.82937">
        <ele>247.19999694824</ele>
        <time>2019-09-13T11:48:12Z</time>
      </trkpt>
      <trkpt lat="46.29473" lon="4.82935">
        <ele>247.19999694824</ele>
        <time>2019-09-13T11:48:17Z</time>
      </trkpt>
      <trkpt lat="46.29437" lon="4.82934">
        <ele>247</ele>
        <time>2019-09-13T11:48:23Z</time>
      </trkpt>
      <trkpt lat="46.29425" lon="4.82921">
        <ele>247</ele>
        <time>2019-09-13T11:48:26Z</time>
      </trkpt>
      <trkpt lat="46.29419" lon="4.82901">
        <ele>247</ele>
        <time>2019-09-13T11:48:30Z</time>
      </trkpt>
      <trkpt lat="46.29411" lon="4.82897">
        <ele>247.19999694824</ele>
        <time>2019-09-13T11:48:34Z</time>
      </trkpt>
      <trkpt lat="46.29395" lon="4.82889">
        <ele>247</ele>
        <time>2019-09-13T11:48:39Z</time>
      </trkpt>
      <trkpt lat="46.29372" lon="4.82882">
        <ele>247</ele>
        <time>2019-09-13T11:48:44Z</time>
      </trkpt>
      <trkpt lat="46.29371" lon="4.82869">
        <ele>247</ele>
        <time>2019-09-13T11:48:47Z</time>
      </trkpt>
      <trkpt lat="46.29381" lon="4.82848">
        <ele>247</ele>
        <time>2019-09-13T11:48:51Z</time>
      </trkpt>
      <trkpt lat="46.29405" lon="4.82788">
        <ele>247.19999694824</ele>
        <time>2019-09-13T11:49:00Z</time>
      </trkpt>
      <trkpt lat="46.29425" lon="4.82741">
        <ele>247.19999694824</ele>
        <time>2019-09-13T11:49:07Z</time>
      </trkpt>
      <trkpt lat="46.29434" lon="4.82721">
        <ele>246.80000305176</ele>
        <time>2019-09-13T11:49:10Z</time>
      </trkpt>
      <trkpt lat="46.29441" lon="4.82711">
        <ele>246.80000305176</ele>
        <time>2019-09-13T11:49:12Z</time>
      </trkpt>
      <trkpt lat="46.29444" lon="4.82704">
        <ele>246.80000305176</ele>
        <time>2019-09-13T11:49:13Z</time>
      </trkpt>
      <trkpt lat="46.29454" lon="4.82676">
        <ele>246.80000305176</ele>
        <time>2019-09-13T11:49:18Z</time>
      </trkpt>
      <trkpt lat="46.29455" lon="4.82672">
        <ele>246.80000305176</ele>
        <time>2019-09-13T11:49:21Z</time>
      </trkpt>
      <trkpt lat="46.29458" lon="4.82664">
        <ele>246.80000305176</ele>
        <time>2019-09-13T11:49:24Z</time>
      </trkpt>
      <trkpt lat="46.29463" lon="4.82656">
        <ele>246.80000305176</ele>
        <time>2019-09-13T11:49:26Z</time>
      </trkpt>
      <trkpt lat="46.2947" lon="4.8265">
        <ele>246.80000305176</ele>
        <time>2019-09-13T11:49:28Z</time>
      </trkpt>
      <trkpt lat="46.29474" lon="4.82647">
        <ele>246.80000305176</ele>
        <time>2019-09-13T11:49:29Z</time>
      </trkpt>
      <trkpt lat="46.29483" lon="4.82632">
        <ele>246.80000305176</ele>
        <time>2019-09-13T11:49:32Z</time>
      </trkpt>
      <trkpt lat="46.29504" lon="4.82586">
        <ele>247</ele>
        <time>2019-09-13T11:49:40Z</time>
      </trkpt>
      <trkpt lat="46.29515" lon="4.82562">
        <ele>247.19999694824</ele>
        <time>2019-09-13T11:49:44Z</time>
      </trkpt>
      <trkpt lat="46.29526" lon="4.82538">
        <ele>247.19999694824</ele>
        <time>2019-09-13T11:49:48Z</time>
      </trkpt>
      <trkpt lat="46.29552" lon="4.82484">
        <ele>247.39999389648</ele>
        <time>2019-09-13T11:49:57Z</time>
      </trkpt>
      <trkpt lat="46.29561" lon="4.82466">
        <ele>247.39999389648</ele>
        <time>2019-09-13T11:50:00Z</time>
      </trkpt>
      <trkpt lat="46.29566" lon="4.82453">
        <ele>247.60000610352</ele>
        <time>2019-09-13T11:50:02Z</time>
      </trkpt>
      <trkpt lat="46.29569" lon="4.82448">
        <ele>247.60000610352</ele>
        <time>2019-09-13T11:50:03Z</time>
      </trkpt>
      <trkpt lat="46.29589" lon="4.82406">
        <ele>247.60000610352</ele>
        <time>2019-09-13T11:50:10Z</time>
      </trkpt>
      <trkpt lat="46.29605" lon="4.82369">
        <ele>247.80000305176</ele>
        <time>2019-09-13T11:50:16Z</time>
      </trkpt>
      <trkpt lat="46.29608" lon="4.82363">
        <ele>248</ele>
        <time>2019-09-13T11:50:17Z</time>
      </trkpt>
      <trkpt lat="46.29633" lon="4.82311">
        <ele>248</ele>
        <time>2019-09-13T11:50:26Z</time>
      </trkpt>
      <trkpt lat="46.29641" lon="4.82287">
        <ele>248.19999694824</ele>
        <time>2019-09-13T11:50:31Z</time>
      </trkpt>
      <trkpt lat="46.29639" lon="4.82283">
        <ele>248.19999694824</ele>
        <time>2019-09-13T11:50:34Z</time>
      </trkpt>
      <trkpt lat="46.29639" lon="4.82283">
        <ele>248.19999694824</ele>
        <time>2019-09-13T11:50:35Z</time>
      </trkpt>
      <trkpt lat="46.2964" lon="4.82283">
        <ele>248.60000610352</ele>
        <time>2019-09-13T11:51:11Z</time>
      </trkpt>
      <trkpt lat="46.29641" lon="4.82284">
        <ele>248.60000610352</ele>
        <time>2019-09-13T11:51:14Z</time>
      </trkpt>
      <trkpt lat="46.2965" lon="4.82289">
        <ele>248.60000610352</ele>
        <time>2019-09-13T11:51:19Z</time>
      </trkpt>
      <trkpt lat="46.29661" lon="4.82303">
        <ele>248.60000610352</ele>
        <time>2019-09-13T11:51:23Z</time>
      </trkpt>
      <trkpt lat="46.29663" lon="4.82309">
        <ele>248.60000610352</ele>
        <time>2019-09-13T11:51:24Z</time>
      </trkpt>
      <trkpt lat="46.29682" lon="4.82342">
        <ele>248.60000610352</ele>
        <time>2019-09-13T11:51:30Z</time>
      </trkpt>
      <trkpt lat="46.29707" lon="4.82385">
        <ele>248.19999694824</ele>
        <time>2019-09-13T11:51:38Z</time>
      </trkpt>
      <trkpt lat="46.29723" lon="4.82408">
        <ele>248</ele>
        <time>2019-09-13T11:51:44Z</time>
      </trkpt>
      <trkpt lat="46.29726" lon="4.82407">
        <ele>248</ele>
        <time>2019-09-13T11:51:47Z</time>
      </trkpt>
      <trkpt lat="46.29726" lon="4.82407">
        <ele>248</ele>
        <time>2019-09-13T11:51:48Z</time>
      </trkpt>
      <trkpt lat="46.29728" lon="4.82404">
        <ele>248</ele>
        <time>2019-09-13T11:52:07Z</time>
      </trkpt>
      <trkpt lat="46.2973" lon="4.82402">
        <ele>248</ele>
        <time>2019-09-13T11:52:08Z</time>
      </trkpt>
      <trkpt lat="46.29737" lon="4.8239">
        <ele>248</ele>
        <time>2019-09-13T11:52:12Z</time>
      </trkpt>
      <trkpt lat="46.29731" lon="4.82376">
        <ele>248</ele>
        <time>2019-09-13T11:52:16Z</time>
      </trkpt>
      <trkpt lat="46.29716" lon="4.82347">
        <ele>248.19999694824</ele>
        <time>2019-09-13T11:52:22Z</time>
      </trkpt>
      <trkpt lat="46.29705" lon="4.82325">
        <ele>248.19999694824</ele>
        <time>2019-09-13T11:52:27Z</time>
      </trkpt>
      <trkpt lat="46.29703" lon="4.82328">
        <ele>248.19999694824</ele>
        <time>2019-09-13T11:52:29Z</time>
      </trkpt>
      <trkpt lat="46.29711" lon="4.82341">
        <ele>248.19999694824</ele>
        <time>2019-09-13T11:52:33Z</time>
      </trkpt>
      <trkpt lat="46.29713" lon="4.82345">
        <ele>248.19999694824</ele>
        <time>2019-09-13T11:52:34Z</time>
      </trkpt>
      <trkpt lat="46.29726" lon="4.82367">
        <ele>248.19999694824</ele>
        <time>2019-09-13T11:52:39Z</time>
      </trkpt>
      <trkpt lat="46.29739" lon="4.82387">
        <ele>248.19999694824</ele>
        <time>2019-09-13T11:52:44Z</time>
      </trkpt>
      <trkpt lat="46.29742" lon="4.82386">
        <ele>248.19999694824</ele>
        <time>2019-09-13T11:52:45Z</time>
      </trkpt>
      <trkpt lat="46.29752" lon="4.82368">
        <ele>248.19999694824</ele>
        <time>2019-09-13T11:52:49Z</time>
      </trkpt>
      <trkpt lat="46.29757" lon="4.82355">
        <ele>248.19999694824</ele>
        <time>2019-09-13T11:52:51Z</time>
      </trkpt>
      <trkpt lat="46.2977" lon="4.82324">
        <ele>248.19999694824</ele>
        <time>2019-09-13T11:52:56Z</time>
      </trkpt>
      <trkpt lat="46.29787" lon="4.82283">
        <ele>248.19999694824</ele>
        <time>2019-09-13T11:53:04Z</time>
      </trkpt>
      <trkpt lat="46.29804" lon="4.82245">
        <ele>248.19999694824</ele>
        <time>2019-09-13T11:53:12Z</time>
      </trkpt>
      <trkpt lat="46.29806" lon="4.82235">
        <ele>248.39999389648</ele>
        <time>2019-09-13T11:53:14Z</time>
      </trkpt>
      <trkpt lat="46.29803" lon="4.82226">
        <ele>248.60000610352</ele>
        <time>2019-09-13T11:53:16Z</time>
      </trkpt>
      <trkpt lat="46.29798" lon="4.82219">
        <ele>249</ele>
        <time>2019-09-13T11:53:18Z</time>
      </trkpt>
      <trkpt lat="46.29793" lon="4.8221">
        <ele>249.39999389648</ele>
        <time>2019-09-13T11:53:20Z</time>
      </trkpt>
      <trkpt lat="46.2979" lon="4.82205">
        <ele>250</ele>
        <time>2019-09-13T11:53:21Z</time>
      </trkpt>
      <trkpt lat="46.2978" lon="4.82184">
        <ele>250</ele>
        <time>2019-09-13T11:53:26Z</time>
      </trkpt>
      <trkpt lat="46.29775" lon="4.82175">
        <ele>250.19999694824</ele>
        <time>2019-09-13T11:53:30Z</time>
      </trkpt>
      <trkpt lat="46.29764" lon="4.82175">
        <ele>250.19999694824</ele>
        <time>2019-09-13T11:53:34Z</time>
      </trkpt>
      <trkpt lat="46.29762" lon="4.82174">
        <ele>250.19999694824</ele>
        <time>2019-09-13T11:53:35Z</time>
      </trkpt>
      <trkpt lat="46.29761" lon="4.82174">
        <ele>250.19999694824</ele>
        <time>2019-09-13T11:53:37Z</time>
      </trkpt>
      <trkpt lat="46.29762" lon="4.82172">
        <ele>250.80000305176</ele>
        <time>2019-09-13T12:03:09Z</time>
      </trkpt>
      <trkpt lat="46.2976" lon="4.8217">
        <ele>250.80000305176</ele>
        <time>2019-09-13T12:03:11Z</time>
      </trkpt>
      <trkpt lat="46.29757" lon="4.82167">
        <ele>250.80000305176</ele>
        <time>2019-09-13T12:03:13Z</time>
      </trkpt>
      <trkpt lat="46.29745" lon="4.82156">
        <ele>250.60000610352</ele>
        <time>2019-09-13T12:03:18Z</time>
      </trkpt>
      <trkpt lat="46.29723" lon="4.82139">
        <ele>250.60000610352</ele>
        <time>2019-09-13T12:03:24Z</time>
      </trkpt>
      <trkpt lat="46.29696" lon="4.8211">
        <ele>250.39999389648</ele>
        <time>2019-09-13T12:03:32Z</time>
      </trkpt>
      <trkpt lat="46.29684" lon="4.82092">
        <ele>250.19999694824</ele>
        <time>2019-09-13T12:03:36Z</time>
      </trkpt>
      <trkpt lat="46.29675" lon="4.8208">
        <ele>250.19999694824</ele>
        <time>2019-09-13T12:03:39Z</time>
      </trkpt>
      <trkpt lat="46.29656" lon="4.82055">
        <ele>250.19999694824</ele>
        <time>2019-09-13T12:03:46Z</time>
      </trkpt>
      <trkpt lat="46.29646" lon="4.8204">
        <ele>250</ele>
        <time>2019-09-13T12:03:51Z</time>
      </trkpt>
      <trkpt lat="46.29639" lon="4.82029">
        <ele>250.19999694824</ele>
        <time>2019-09-13T12:03:57Z</time>
      </trkpt>
      <trkpt lat="46.29638" lon="4.82028">
        <ele>250.19999694824</ele>
        <time>2019-09-13T12:03:59Z</time>
      </trkpt>
      <trkpt lat="46.29639" lon="4.82025">
        <ele>250.19999694824</ele>
        <time>2019-09-13T12:04:03Z</time>
      </trkpt>
      <trkpt lat="46.29639" lon="4.82022">
        <ele>250.19999694824</ele>
        <time>2019-09-13T12:04:04Z</time>
      </trkpt>
      <trkpt lat="46.29635" lon="4.82011">
        <ele>250.19999694824</ele>
        <time>2019-09-13T12:04:07Z</time>
      </trkpt>
      <trkpt lat="46.29622" lon="4.81977">
        <ele>250.19999694824</ele>
        <time>2019-09-13T12:04:13Z</time>
      </trkpt>
      <trkpt lat="46.29604" lon="4.81933">
        <ele>250.19999694824</ele>
        <time>2019-09-13T12:04:20Z</time>
      </trkpt>
      <trkpt lat="46.29598" lon="4.81921">
        <ele>250.19999694824</ele>
        <time>2019-09-13T12:04:22Z</time>
      </trkpt>
      <trkpt lat="46.29585" lon="4.81909">
        <ele>250</ele>
        <time>2019-09-13T12:04:25Z</time>
      </trkpt>
      <trkpt lat="46.29571" lon="4.81912">
        <ele>250</ele>
        <time>2019-09-13T12:04:28Z</time>
      </trkpt>
      <trkpt lat="46.29566" lon="4.81913">
        <ele>250</ele>
        <time>2019-09-13T12:04:29Z</time>
      </trkpt>
      <trkpt lat="46.29552" lon="4.81912">
        <ele>249.80000305176</ele>
        <time>2019-09-13T12:04:32Z</time>
      </trkpt>
      <trkpt lat="46.29531" lon="4.81911">
        <ele>249.80000305176</ele>
        <time>2019-09-13T12:04:36Z</time>
      </trkpt>
      <trkpt lat="46.29521" lon="4.81916">
        <ele>249.80000305176</ele>
        <time>2019-09-13T12:04:38Z</time>
      </trkpt>
      <trkpt lat="46.29517" lon="4.81919">
        <ele>249.60000610352</ele>
        <time>2019-09-13T12:04:39Z</time>
      </trkpt>
      <trkpt lat="46.29505" lon="4.81929">
        <ele>249.60000610352</ele>
        <time>2019-09-13T12:04:43Z</time>
      </trkpt>
      <trkpt lat="46.29503" lon="4.81931">
        <ele>249.60000610352</ele>
        <time>2019-09-13T12:04:44Z</time>
      </trkpt>
      <trkpt lat="46.29497" lon="4.81929">
        <ele>249.39999389648</ele>
        <time>2019-09-13T12:04:46Z</time>
      </trkpt>
      <trkpt lat="46.2949" lon="4.81925">
        <ele>249.39999389648</ele>
        <time>2019-09-13T12:04:48Z</time>
      </trkpt>
      <trkpt lat="46.29478" lon="4.81916">
        <ele>249</ele>
        <time>2019-09-13T12:04:52Z</time>
      </trkpt>
      <trkpt lat="46.29464" lon="4.81899">
        <ele>248.80000305176</ele>
        <time>2019-09-13T12:04:58Z</time>
      </trkpt>
      <trkpt lat="46.29449" lon="4.81883">
        <ele>248.60000610352</ele>
        <time>2019-09-13T12:05:02Z</time>
      </trkpt>
      <trkpt lat="46.29445" lon="4.81879">
        <ele>248.60000610352</ele>
        <time>2019-09-13T12:05:03Z</time>
      </trkpt>
      <trkpt lat="46.29421" lon="4.81844">
        <ele>248.60000610352</ele>
        <time>2019-09-13T12:05:10Z</time>
      </trkpt>
      <trkpt lat="46.29411" lon="4.81823">
        <ele>248.60000610352</ele>
        <time>2019-09-13T12:05:15Z</time>
      </trkpt>
      <trkpt lat="46.29406" lon="4.81807">
        <ele>248.60000610352</ele>
        <time>2019-09-13T12:05:17Z</time>
      </trkpt>
      <trkpt lat="46.29401" lon="4.81792">
        <ele>248.60000610352</ele>
        <time>2019-09-13T12:05:19Z</time>
      </trkpt>
      <trkpt lat="46.29398" lon="4.81785">
        <ele>248.60000610352</ele>
        <time>2019-09-13T12:05:20Z</time>
      </trkpt>
      <trkpt lat="46.29379" lon="4.81751">
        <ele>248.80000305176</ele>
        <time>2019-09-13T12:05:25Z</time>
      </trkpt>
      <trkpt lat="46.29348" lon="4.81701">
        <ele>248.80000305176</ele>
        <time>2019-09-13T12:05:33Z</time>
      </trkpt>
      <trkpt lat="46.29322" lon="4.81657">
        <ele>248.80000305176</ele>
        <time>2019-09-13T12:05:40Z</time>
      </trkpt>
      <trkpt lat="46.29294" lon="4.81607">
        <ele>248.80000305176</ele>
        <time>2019-09-13T12:05:48Z</time>
      </trkpt>
      <trkpt lat="46.29284" lon="4.81588">
        <ele>248.80000305176</ele>
        <time>2019-09-13T12:05:51Z</time>
      </trkpt>
      <trkpt lat="46.29275" lon="4.81569">
        <ele>248.80000305176</ele>
        <time>2019-09-13T12:05:54Z</time>
      </trkpt>
      <trkpt lat="46.29244" lon="4.8152">
        <ele>249.19999694824</ele>
        <time>2019-09-13T12:06:02Z</time>
      </trkpt>
      <trkpt lat="46.29211" lon="4.81481">
        <ele>249.19999694824</ele>
        <time>2019-09-13T12:06:09Z</time>
      </trkpt>
      <trkpt lat="46.29169" lon="4.81436">
        <ele>249</ele>
        <time>2019-09-13T12:06:18Z</time>
      </trkpt>
      <trkpt lat="46.29123" lon="4.81384">
        <ele>248.80000305176</ele>
        <time>2019-09-13T12:06:28Z</time>
      </trkpt>
      <trkpt lat="46.29085" lon="4.81345">
        <ele>248.60000610352</ele>
        <time>2019-09-13T12:06:36Z</time>
      </trkpt>
      <trkpt lat="46.29053" lon="4.81311">
        <ele>248.60000610352</ele>
        <time>2019-09-13T12:06:43Z</time>
      </trkpt>
      <trkpt lat="46.29043" lon="4.81292">
        <ele>248.80000305176</ele>
        <time>2019-09-13T12:06:46Z</time>
      </trkpt>
      <trkpt lat="46.29038" lon="4.81277">
        <ele>248.80000305176</ele>
        <time>2019-09-13T12:06:48Z</time>
      </trkpt>
      <trkpt lat="46.29036" lon="4.81271">
        <ele>248.80000305176</ele>
        <time>2019-09-13T12:06:49Z</time>
      </trkpt>
      <trkpt lat="46.29028" lon="4.8126">
        <ele>248.80000305176</ele>
        <time>2019-09-13T12:06:51Z</time>
      </trkpt>
      <trkpt lat="46.29012" lon="4.81256">
        <ele>249</ele>
        <time>2019-09-13T12:06:54Z</time>
      </trkpt>
      <trkpt lat="46.29007" lon="4.81256">
        <ele>249</ele>
        <time>2019-09-13T12:06:55Z</time>
      </trkpt>
      <trkpt lat="46.28991" lon="4.81246">
        <ele>249.19999694824</ele>
        <time>2019-09-13T12:06:58Z</time>
      </trkpt>
      <trkpt lat="46.28986" lon="4.81241">
        <ele>249.19999694824</ele>
        <time>2019-09-13T12:06:59Z</time>
      </trkpt>
      <trkpt lat="46.28948" lon="4.812">
        <ele>249</ele>
        <time>2019-09-13T12:07:07Z</time>
      </trkpt>
      <trkpt lat="46.28905" lon="4.81154">
        <ele>249</ele>
        <time>2019-09-13T12:07:16Z</time>
      </trkpt>
      <trkpt lat="46.28858" lon="4.81106">
        <ele>249.19999694824</ele>
        <time>2019-09-13T12:07:26Z</time>
      </trkpt>
      <trkpt lat="46.28848" lon="4.81096">
        <ele>249.19999694824</ele>
        <time>2019-09-13T12:07:28Z</time>
      </trkpt>
      <trkpt lat="46.28807" lon="4.81047">
        <ele>249</ele>
        <time>2019-09-13T12:07:37Z</time>
      </trkpt>
      <trkpt lat="46.28762" lon="4.80999">
        <ele>249</ele>
        <time>2019-09-13T12:07:46Z</time>
      </trkpt>
      <trkpt lat="46.2874" lon="4.80977">
        <ele>249</ele>
        <time>2019-09-13T12:07:51Z</time>
      </trkpt>
      <trkpt lat="46.28734" lon="4.80969">
        <ele>249</ele>
        <time>2019-09-13T12:07:55Z</time>
      </trkpt>
      <trkpt lat="46.28727" lon="4.80959">
        <ele>249</ele>
        <time>2019-09-13T12:07:58Z</time>
      </trkpt>
      <trkpt lat="46.28726" lon="4.80954">
        <ele>249</ele>
        <time>2019-09-13T12:07:59Z</time>
      </trkpt>
      <trkpt lat="46.28722" lon="4.80941">
        <ele>249</ele>
        <time>2019-09-13T12:08:01Z</time>
      </trkpt>
      <trkpt lat="46.28713" lon="4.80933">
        <ele>249</ele>
        <time>2019-09-13T12:08:03Z</time>
      </trkpt>
      <trkpt lat="46.28702" lon="4.80931">
        <ele>249</ele>
        <time>2019-09-13T12:08:05Z</time>
      </trkpt>
      <trkpt lat="46.28697" lon="4.8093">
        <ele>249.19999694824</ele>
        <time>2019-09-13T12:08:06Z</time>
      </trkpt>
      <trkpt lat="46.28691" lon="4.80928">
        <ele>249.19999694824</ele>
        <time>2019-09-13T12:08:07Z</time>
      </trkpt>
      <trkpt lat="46.28682" lon="4.8092">
        <ele>249.19999694824</ele>
        <time>2019-09-13T12:08:09Z</time>
      </trkpt>
      <trkpt lat="46.28677" lon="4.80914">
        <ele>249.19999694824</ele>
        <time>2019-09-13T12:08:10Z</time>
      </trkpt>
      <trkpt lat="46.28672" lon="4.80909">
        <ele>249.19999694824</ele>
        <time>2019-09-13T12:08:11Z</time>
      </trkpt>
      <trkpt lat="46.28638" lon="4.80874">
        <ele>249.19999694824</ele>
        <time>2019-09-13T12:08:18Z</time>
      </trkpt>
      <trkpt lat="46.28608" lon="4.80844">
        <ele>249.19999694824</ele>
        <time>2019-09-13T12:08:24Z</time>
      </trkpt>
      <trkpt lat="46.28564" lon="4.80797">
        <ele>249.19999694824</ele>
        <time>2019-09-13T12:08:33Z</time>
      </trkpt>
      <trkpt lat="46.28559" lon="4.80792">
        <ele>249.39999389648</ele>
        <time>2019-09-13T12:08:34Z</time>
      </trkpt>
      <trkpt lat="46.2853" lon="4.8076">
        <ele>249.39999389648</ele>
        <time>2019-09-13T12:08:40Z</time>
      </trkpt>
      <trkpt lat="46.285" lon="4.80729">
        <ele>249.80000305176</ele>
        <time>2019-09-13T12:08:46Z</time>
      </trkpt>
      <trkpt lat="46.28495" lon="4.80724">
        <ele>249.80000305176</ele>
        <time>2019-09-13T12:08:47Z</time>
      </trkpt>
      <trkpt lat="46.28485" lon="4.80713">
        <ele>249.80000305176</ele>
        <time>2019-09-13T12:08:49Z</time>
      </trkpt>
      <trkpt lat="46.28455" lon="4.80682">
        <ele>250</ele>
        <time>2019-09-13T12:08:55Z</time>
      </trkpt>
      <trkpt lat="46.28408" lon="4.80632">
        <ele>250</ele>
        <time>2019-09-13T12:09:05Z</time>
      </trkpt>
      <trkpt lat="46.2836" lon="4.80581">
        <ele>250</ele>
        <time>2019-09-13T12:09:15Z</time>
      </trkpt>
      <trkpt lat="46.2835" lon="4.80571">
        <ele>250</ele>
        <time>2019-09-13T12:09:17Z</time>
      </trkpt>
      <trkpt lat="46.28306" lon="4.80528">
        <ele>250.60000610352</ele>
        <time>2019-09-13T12:09:26Z</time>
      </trkpt>
      <trkpt lat="46.28263" lon="4.80499">
        <ele>250.60000610352</ele>
        <time>2019-09-13T12:09:34Z</time>
      </trkpt>
      <trkpt lat="46.28222" lon="4.80473">
        <ele>250.39999389648</ele>
        <time>2019-09-13T12:09:42Z</time>
      </trkpt>
      <trkpt lat="46.2821" lon="4.80463">
        <ele>250.19999694824</ele>
        <time>2019-09-13T12:09:46Z</time>
      </trkpt>
      <trkpt lat="46.28207" lon="4.8046">
        <ele>250.19999694824</ele>
        <time>2019-09-13T12:09:48Z</time>
      </trkpt>
      <trkpt lat="46.28206" lon="4.80461">
        <ele>250.19999694824</ele>
        <time>2019-09-13T12:09:50Z</time>
      </trkpt>
      <trkpt lat="46.28205" lon="4.80464">
        <ele>250.19999694824</ele>
        <time>2019-09-13T12:09:52Z</time>
      </trkpt>
      <trkpt lat="46.28202" lon="4.8047">
        <ele>250.19999694824</ele>
        <time>2019-09-13T12:09:54Z</time>
      </trkpt>
      <trkpt lat="46.28202" lon="4.80488">
        <ele>250.19999694824</ele>
        <time>2019-09-13T12:09:57Z</time>
      </trkpt>
      <trkpt lat="46.28201" lon="4.80495">
        <ele>250.19999694824</ele>
        <time>2019-09-13T12:09:58Z</time>
      </trkpt>
      <trkpt lat="46.28191" lon="4.80533">
        <ele>250</ele>
        <time>2019-09-13T12:10:03Z</time>
      </trkpt>
      <trkpt lat="46.28174" lon="4.80596">
        <ele>249</ele>
        <time>2019-09-13T12:10:11Z</time>
      </trkpt>
      <trkpt lat="46.28161" lon="4.80644">
        <ele>248.80000305176</ele>
        <time>2019-09-13T12:10:17Z</time>
      </trkpt>
      <trkpt lat="46.28155" lon="4.80668">
        <ele>248.60000610352</ele>
        <time>2019-09-13T12:10:20Z</time>
      </trkpt>
      <trkpt lat="46.28142" lon="4.80714">
        <ele>248</ele>
        <time>2019-09-13T12:10:26Z</time>
      </trkpt>
      <trkpt lat="46.2814" lon="4.80721">
        <ele>247.80000305176</ele>
        <time>2019-09-13T12:10:27Z</time>
      </trkpt>
      <trkpt lat="46.28127" lon="4.80736">
        <ele>247.80000305176</ele>
        <time>2019-09-13T12:10:30Z</time>
      </trkpt>
      <trkpt lat="46.28113" lon="4.80741">
        <ele>247.80000305176</ele>
        <time>2019-09-13T12:10:33Z</time>
      </trkpt>
      <trkpt lat="46.28105" lon="4.80736">
        <ele>247.80000305176</ele>
        <time>2019-09-13T12:10:35Z</time>
      </trkpt>
      <trkpt lat="46.28101" lon="4.80733">
        <ele>247.80000305176</ele>
        <time>2019-09-13T12:10:36Z</time>
      </trkpt>
      <trkpt lat="46.28096" lon="4.80732">
        <ele>247.80000305176</ele>
        <time>2019-09-13T12:10:37Z</time>
      </trkpt>
      <trkpt lat="46.28084" lon="4.8074">
        <ele>248</ele>
        <time>2019-09-13T12:10:40Z</time>
      </trkpt>
      <trkpt lat="46.28071" lon="4.80767">
        <ele>248.39999389648</ele>
        <time>2019-09-13T12:10:45Z</time>
      </trkpt>
      <trkpt lat="46.28072" lon="4.8079">
        <ele>248.60000610352</ele>
        <time>2019-09-13T12:10:49Z</time>
      </trkpt>
      <trkpt lat="46.28072" lon="4.80796">
        <ele>248.39999389648</ele>
        <time>2019-09-13T12:10:50Z</time>
      </trkpt>
      <trkpt lat="46.28062" lon="4.80844">
        <ele>248.39999389648</ele>
        <time>2019-09-13T12:10:57Z</time>
      </trkpt>
      <trkpt lat="46.28046" lon="4.80883">
        <ele>248.19999694824</ele>
        <time>2019-09-13T12:11:03Z</time>
      </trkpt>
      <trkpt lat="46.28012" lon="4.80951">
        <ele>248.19999694824</ele>
        <time>2019-09-13T12:11:14Z</time>
      </trkpt>
      <trkpt lat="46.28009" lon="4.80957">
        <ele>248.19999694824</ele>
        <time>2019-09-13T12:11:15Z</time>
      </trkpt>
      <trkpt lat="46.27976" lon="4.81021">
        <ele>248.19999694824</ele>
        <time>2019-09-13T12:11:25Z</time>
      </trkpt>
      <trkpt lat="46.27969" lon="4.81033">
        <ele>248.19999694824</ele>
        <time>2019-09-13T12:11:27Z</time>
      </trkpt>
      <trkpt lat="46.27948" lon="4.8107">
        <ele>248.19999694824</ele>
        <time>2019-09-13T12:11:33Z</time>
      </trkpt>
      <trkpt lat="46.27944" lon="4.81074">
        <ele>248.19999694824</ele>
        <time>2019-09-13T12:11:34Z</time>
      </trkpt>
      <trkpt lat="46.27928" lon="4.81076">
        <ele>248.19999694824</ele>
        <time>2019-09-13T12:11:37Z</time>
      </trkpt>
      <trkpt lat="46.27914" lon="4.81065">
        <ele>248.19999694824</ele>
        <time>2019-09-13T12:11:40Z</time>
      </trkpt>
      <trkpt lat="46.27891" lon="4.8104">
        <ele>248.19999694824</ele>
        <time>2019-09-13T12:11:45Z</time>
      </trkpt>
      <trkpt lat="46.27875" lon="4.81029">
        <ele>248.19999694824</ele>
        <time>2019-09-13T12:11:48Z</time>
      </trkpt>
      <trkpt lat="46.27864" lon="4.81022">
        <ele>248.19999694824</ele>
        <time>2019-09-13T12:11:50Z</time>
      </trkpt>
      <trkpt lat="46.2783" lon="4.81011">
        <ele>248.39999389648</ele>
        <time>2019-09-13T12:11:56Z</time>
      </trkpt>
      <trkpt lat="46.27789" lon="4.81011">
        <ele>248.60000610352</ele>
        <time>2019-09-13T12:12:03Z</time>
      </trkpt>
      <trkpt lat="46.27748" lon="4.81019">
        <ele>248.60000610352</ele>
        <time>2019-09-13T12:12:10Z</time>
      </trkpt>
      <trkpt lat="46.277" lon="4.81026">
        <ele>248.60000610352</ele>
        <time>2019-09-13T12:12:18Z</time>
      </trkpt>
      <trkpt lat="46.27656" lon="4.81027">
        <ele>247.80000305176</ele>
        <time>2019-09-13T12:12:25Z</time>
      </trkpt>
      <trkpt lat="46.27622" lon="4.81016">
        <ele>247.60000610352</ele>
        <time>2019-09-13T12:12:31Z</time>
      </trkpt>
      <trkpt lat="46.27588" lon="4.80994">
        <ele>246.80000305176</ele>
        <time>2019-09-13T12:12:37Z</time>
      </trkpt>
      <trkpt lat="46.27583" lon="4.80988">
        <ele>246.80000305176</ele>
        <time>2019-09-13T12:12:38Z</time>
      </trkpt>
      <trkpt lat="46.27572" lon="4.80968">
        <ele>246.80000305176</ele>
        <time>2019-09-13T12:12:41Z</time>
      </trkpt>
      <trkpt lat="46.27562" lon="4.80936">
        <ele>246.80000305176</ele>
        <time>2019-09-13T12:12:45Z</time>
      </trkpt>
      <trkpt lat="46.2756" lon="4.80928">
        <ele>246.80000305176</ele>
        <time>2019-09-13T12:12:46Z</time>
      </trkpt>
      <trkpt lat="46.27546" lon="4.80862">
        <ele>247.19999694824</ele>
        <time>2019-09-13T12:12:54Z</time>
      </trkpt>
      <trkpt lat="46.27534" lon="4.80796">
        <ele>247.39999389648</ele>
        <time>2019-09-13T12:13:02Z</time>
      </trkpt>
      <trkpt lat="46.27538" lon="4.80756">
        <ele>247.80000305176</ele>
        <time>2019-09-13T12:13:07Z</time>
      </trkpt>
      <trkpt lat="46.2754" lon="4.8075">
        <ele>247.80000305176</ele>
        <time>2019-09-13T12:13:08Z</time>
      </trkpt>
      <trkpt lat="46.27542" lon="4.80739">
        <ele>247.80000305176</ele>
        <time>2019-09-13T12:13:10Z</time>
      </trkpt>
      <trkpt lat="46.27537" lon="4.80739">
        <ele>247.80000305176</ele>
        <time>2019-09-13T12:13:12Z</time>
      </trkpt>
      <trkpt lat="46.2753" lon="4.8076">
        <ele>247.80000305176</ele>
        <time>2019-09-13T12:13:16Z</time>
      </trkpt>
      <trkpt lat="46.27526" lon="4.80777">
        <ele>248</ele>
        <time>2019-09-13T12:13:20Z</time>
      </trkpt>
      <trkpt lat="46.27518" lon="4.80778">
        <ele>248</ele>
        <time>2019-09-13T12:13:24Z</time>
      </trkpt>
      <trkpt lat="46.27511" lon="4.80774">
        <ele>248</ele>
        <time>2019-09-13T12:13:26Z</time>
      </trkpt>
      <trkpt lat="46.27502" lon="4.8077">
        <ele>247.80000305176</ele>
        <time>2019-09-13T12:13:28Z</time>
      </trkpt>
      <trkpt lat="46.27469" lon="4.80757">
        <ele>247.39999389648</ele>
        <time>2019-09-13T12:13:35Z</time>
      </trkpt>
      <trkpt lat="46.27439" lon="4.80755">
        <ele>247.19999694824</ele>
        <time>2019-09-13T12:13:41Z</time>
      </trkpt>
      <trkpt lat="46.27401" lon="4.8076">
        <ele>247</ele>
        <time>2019-09-13T12:13:48Z</time>
      </trkpt>
      <trkpt lat="46.27396" lon="4.8076">
        <ele>247.19999694824</ele>
        <time>2019-09-13T12:13:49Z</time>
      </trkpt>
      <trkpt lat="46.27377" lon="4.80754">
        <ele>247</ele>
        <time>2019-09-13T12:13:53Z</time>
      </trkpt>
      <trkpt lat="46.27337" lon="4.80736">
        <ele>247</ele>
        <time>2019-09-13T12:14:01Z</time>
      </trkpt>
      <trkpt lat="46.27297" lon="4.80717">
        <ele>246.80000305176</ele>
        <time>2019-09-13T12:14:09Z</time>
      </trkpt>
      <trkpt lat="46.27262" lon="4.80702">
        <ele>246.80000305176</ele>
        <time>2019-09-13T12:14:16Z</time>
      </trkpt>
      <trkpt lat="46.27218" lon="4.80682">
        <ele>247</ele>
        <time>2019-09-13T12:14:25Z</time>
      </trkpt>
      <trkpt lat="46.27179" lon="4.80665">
        <ele>247</ele>
        <time>2019-09-13T12:14:33Z</time>
      </trkpt>
      <trkpt lat="46.27146" lon="4.80649">
        <ele>247.19999694824</ele>
        <time>2019-09-13T12:14:40Z</time>
      </trkpt>
      <trkpt lat="46.27115" lon="4.80638">
        <ele>247.39999389648</ele>
        <time>2019-09-13T12:14:47Z</time>
      </trkpt>
      <trkpt lat="46.27088" lon="4.80629">
        <ele>247.80000305176</ele>
        <time>2019-09-13T12:14:54Z</time>
      </trkpt>
      <trkpt lat="46.27073" lon="4.80623">
        <ele>248</ele>
        <time>2019-09-13T12:14:59Z</time>
      </trkpt>
      <trkpt lat="46.27064" lon="4.80617">
        <ele>248</ele>
        <time>2019-09-13T12:15:03Z</time>
      </trkpt>
      <trkpt lat="46.27064" lon="4.80617">
        <ele>248</ele>
        <time>2019-09-13T12:15:04Z</time>
      </trkpt>
      <trkpt lat="46.27064" lon="4.80617">
        <ele>248</ele>
        <time>2019-09-13T12:15:05Z</time>
      </trkpt>
      <trkpt lat="46.27065" lon="4.80622">
        <ele>248.19999694824</ele>
        <time>2019-09-13T12:17:26Z</time>
      </trkpt>
      <trkpt lat="46.27065" lon="4.80627">
        <ele>248.19999694824</ele>
        <time>2019-09-13T12:17:28Z</time>
      </trkpt>
      <trkpt lat="46.27063" lon="4.80635">
        <ele>248.19999694824</ele>
        <time>2019-09-13T12:17:30Z</time>
      </trkpt>
      <trkpt lat="46.27059" lon="4.80649">
        <ele>248.19999694824</ele>
        <time>2019-09-13T12:17:33Z</time>
      </trkpt>
      <trkpt lat="46.27049" lon="4.80674">
        <ele>248.39999389648</ele>
        <time>2019-09-13T12:17:38Z</time>
      </trkpt>
      <trkpt lat="46.27044" lon="4.80684">
        <ele>248.39999389648</ele>
        <time>2019-09-13T12:17:40Z</time>
      </trkpt>
      <trkpt lat="46.27041" lon="4.80689">
        <ele>248.39999389648</ele>
        <time>2019-09-13T12:17:41Z</time>
      </trkpt>
      <trkpt lat="46.27017" lon="4.80726">
        <ele>248.60000610352</ele>
        <time>2019-09-13T12:17:48Z</time>
      </trkpt>
      <trkpt lat="46.26991" lon="4.80767">
        <ele>247.80000305176</ele>
        <time>2019-09-13T12:17:55Z</time>
      </trkpt>
      <trkpt lat="46.26974" lon="4.80783">
        <ele>247.39999389648</ele>
        <time>2019-09-13T12:17:59Z</time>
      </trkpt>
      <trkpt lat="46.26969" lon="4.80786">
        <ele>247.19999694824</ele>
        <time>2019-09-13T12:18:00Z</time>
      </trkpt>
      <trkpt lat="46.26933" lon="4.80812">
        <ele>246.80000305176</ele>
        <time>2019-09-13T12:18:08Z</time>
      </trkpt>
      <trkpt lat="46.26901" lon="4.80835">
        <ele>246.80000305176</ele>
        <time>2019-09-13T12:18:15Z</time>
      </trkpt>
      <trkpt lat="46.26871" lon="4.80856">
        <ele>246.80000305176</ele>
        <time>2019-09-13T12:18:22Z</time>
      </trkpt>
      <trkpt lat="46.26839" lon="4.80877">
        <ele>246.80000305176</ele>
        <time>2019-09-13T12:18:29Z</time>
      </trkpt>
      <trkpt lat="46.26802" lon="4.80902">
        <ele>247</ele>
        <time>2019-09-13T12:18:37Z</time>
      </trkpt>
      <trkpt lat="46.26771" lon="4.80924">
        <ele>247</ele>
        <time>2019-09-13T12:18:44Z</time>
      </trkpt>
      <trkpt lat="46.26742" lon="4.80944">
        <ele>247</ele>
        <time>2019-09-13T12:18:50Z</time>
      </trkpt>
      <trkpt lat="46.26714" lon="4.80965">
        <ele>247</ele>
        <time>2019-09-13T12:18:56Z</time>
      </trkpt>
      <trkpt lat="46.26689" lon="4.80986">
        <ele>247.19999694824</ele>
        <time>2019-09-13T12:19:01Z</time>
      </trkpt>
      <trkpt lat="46.26675" lon="4.81002">
        <ele>247.19999694824</ele>
        <time>2019-09-13T12:19:04Z</time>
      </trkpt>
      <trkpt lat="46.26663" lon="4.81021">
        <ele>247.19999694824</ele>
        <time>2019-09-13T12:19:07Z</time>
      </trkpt>
      <trkpt lat="46.26639" lon="4.81068">
        <ele>247.19999694824</ele>
        <time>2019-09-13T12:19:14Z</time>
      </trkpt>
      <trkpt lat="46.26611" lon="4.81124">
        <ele>247.19999694824</ele>
        <time>2019-09-13T12:19:23Z</time>
      </trkpt>
      <trkpt lat="46.26594" lon="4.8117">
        <ele>247</ele>
        <time>2019-09-13T12:19:30Z</time>
      </trkpt>
      <trkpt lat="46.26572" lon="4.8123">
        <ele>247</ele>
        <time>2019-09-13T12:19:39Z</time>
      </trkpt>
      <trkpt lat="46.26562" lon="4.81261">
        <ele>247</ele>
        <time>2019-09-13T12:19:44Z</time>
      </trkpt>
      <trkpt lat="46.26549" lon="4.81301">
        <ele>247</ele>
        <time>2019-09-13T12:19:50Z</time>
      </trkpt>
      <trkpt lat="46.26541" lon="4.81325">
        <ele>247</ele>
        <time>2019-09-13T12:19:54Z</time>
      </trkpt>
      <trkpt lat="46.26535" lon="4.81333">
        <ele>247</ele>
        <time>2019-09-13T12:19:56Z</time>
      </trkpt>
      <trkpt lat="46.26523" lon="4.8133">
        <ele>247</ele>
        <time>2019-09-13T12:19:59Z</time>
      </trkpt>
      <trkpt lat="46.26516" lon="4.81322">
        <ele>247.19999694824</ele>
        <time>2019-09-13T12:20:01Z</time>
      </trkpt>
      <trkpt lat="46.26513" lon="4.81317">
        <ele>247.19999694824</ele>
        <time>2019-09-13T12:20:02Z</time>
      </trkpt>
      <trkpt lat="46.26504" lon="4.81303">
        <ele>247.19999694824</ele>
        <time>2019-09-13T12:20:05Z</time>
      </trkpt>
      <trkpt lat="46.26482" lon="4.81271">
        <ele>247.39999389648</ele>
        <time>2019-09-13T12:20:11Z</time>
      </trkpt>
      <trkpt lat="46.26454" lon="4.81231">
        <ele>247.39999389648</ele>
        <time>2019-09-13T12:20:18Z</time>
      </trkpt>
      <trkpt lat="46.26416" lon="4.81184">
        <ele>247.60000610352</ele>
        <time>2019-09-13T12:20:27Z</time>
      </trkpt>
      <trkpt lat="46.26412" lon="4.81178">
        <ele>247.80000305176</ele>
        <time>2019-09-13T12:20:28Z</time>
      </trkpt>
      <trkpt lat="46.26379" lon="4.81145">
        <ele>248</ele>
        <time>2019-09-13T12:20:35Z</time>
      </trkpt>
      <trkpt lat="46.26351" lon="4.81116">
        <ele>248</ele>
        <time>2019-09-13T12:20:41Z</time>
      </trkpt>
      <trkpt lat="46.26331" lon="4.81088">
        <ele>248</ele>
        <time>2019-09-13T12:20:46Z</time>
      </trkpt>
      <trkpt lat="46.26327" lon="4.81083">
        <ele>248</ele>
        <time>2019-09-13T12:20:47Z</time>
      </trkpt>
      <trkpt lat="46.26317" lon="4.81074">
        <ele>247.80000305176</ele>
        <time>2019-09-13T12:20:51Z</time>
      </trkpt>
      <trkpt lat="46.26316" lon="4.81074">
        <ele>247.80000305176</ele>
        <time>2019-09-13T12:20:53Z</time>
      </trkpt>
      <trkpt lat="46.26315" lon="4.8107">
        <ele>247.80000305176</ele>
        <time>2019-09-13T12:21:53Z</time>
      </trkpt>
      <trkpt lat="46.26313" lon="4.81068">
        <ele>247.80000305176</ele>
        <time>2019-09-13T12:21:54Z</time>
      </trkpt>
      <trkpt lat="46.26298" lon="4.81051">
        <ele>247.80000305176</ele>
        <time>2019-09-13T12:21:59Z</time>
      </trkpt>
      <trkpt lat="46.26274" lon="4.81027">
        <ele>248</ele>
        <time>2019-09-13T12:22:05Z</time>
      </trkpt>
      <trkpt lat="46.26266" lon="4.81019">
        <ele>248</ele>
        <time>2019-09-13T12:22:07Z</time>
      </trkpt>
      <trkpt lat="46.26248" lon="4.81003">
        <ele>248</ele>
        <time>2019-09-13T12:22:11Z</time>
      </trkpt>
      <trkpt lat="46.26229" lon="4.80988">
        <ele>248</ele>
        <time>2019-09-13T12:22:16Z</time>
      </trkpt>
      <trkpt lat="46.26202" lon="4.80969">
        <ele>248</ele>
        <time>2019-09-13T12:22:22Z</time>
      </trkpt>
      <trkpt lat="46.26174" lon="4.8095">
        <ele>248.19999694824</ele>
        <time>2019-09-13T12:22:28Z</time>
      </trkpt>
      <trkpt lat="46.26162" lon="4.80948">
        <ele>247.80000305176</ele>
        <time>2019-09-13T12:22:33Z</time>
      </trkpt>
      <trkpt lat="46.26158" lon="4.80946">
        <ele>247.80000305176</ele>
        <time>2019-09-13T12:22:36Z</time>
      </trkpt>
      <trkpt lat="46.26153" lon="4.80943">
        <ele>247.39999389648</ele>
        <time>2019-09-13T12:22:38Z</time>
      </trkpt>
      <trkpt lat="46.26146" lon="4.8094">
        <ele>247.39999389648</ele>
        <time>2019-09-13T12:22:40Z</time>
      </trkpt>
      <trkpt lat="46.2613" lon="4.80935">
        <ele>247.39999389648</ele>
        <time>2019-09-13T12:22:43Z</time>
      </trkpt>
      <trkpt lat="46.2611" lon="4.80927">
        <ele>247.39999389648</ele>
        <time>2019-09-13T12:22:47Z</time>
      </trkpt>
      <trkpt lat="46.261" lon="4.80923">
        <ele>247.39999389648</ele>
        <time>2019-09-13T12:22:49Z</time>
      </trkpt>
      <trkpt lat="46.26066" lon="4.8091">
        <ele>247.19999694824</ele>
        <time>2019-09-13T12:22:56Z</time>
      </trkpt>
      <trkpt lat="46.26038" lon="4.80896">
        <ele>247</ele>
        <time>2019-09-13T12:23:03Z</time>
      </trkpt>
      <trkpt lat="46.26011" lon="4.80886">
        <ele>247</ele>
        <time>2019-09-13T12:23:09Z</time>
      </trkpt>
      <trkpt lat="46.25975" lon="4.80873">
        <ele>247.19999694824</ele>
        <time>2019-09-13T12:23:17Z</time>
      </trkpt>
      <trkpt lat="46.25961" lon="4.80868">
        <ele>247.19999694824</ele>
        <time>2019-09-13T12:23:20Z</time>
      </trkpt>
      <trkpt lat="46.25948" lon="4.80865">
        <ele>247.19999694824</ele>
        <time>2019-09-13T12:23:23Z</time>
      </trkpt>
      <trkpt lat="46.25944" lon="4.80862">
        <ele>247.19999694824</ele>
        <time>2019-09-13T12:23:24Z</time>
      </trkpt>
      <trkpt lat="46.25926" lon="4.80853">
        <ele>247.19999694824</ele>
        <time>2019-09-13T12:23:28Z</time>
      </trkpt>
      <trkpt lat="46.2592" lon="4.80852">
        <ele>247.19999694824</ele>
        <time>2019-09-13T12:23:29Z</time>
      </trkpt>
      <trkpt lat="46.25904" lon="4.80851">
        <ele>247.19999694824</ele>
        <time>2019-09-13T12:23:32Z</time>
      </trkpt>
      <trkpt lat="46.25888" lon="4.80851">
        <ele>247.19999694824</ele>
        <time>2019-09-13T12:23:35Z</time>
      </trkpt>
      <trkpt lat="46.25851" lon="4.80854">
        <ele>247.19999694824</ele>
        <time>2019-09-13T12:23:42Z</time>
      </trkpt>
      <trkpt lat="46.25809" lon="4.8085">
        <ele>247.19999694824</ele>
        <time>2019-09-13T12:23:50Z</time>
      </trkpt>
      <trkpt lat="46.25803" lon="4.80851">
        <ele>247.39999389648</ele>
        <time>2019-09-13T12:23:51Z</time>
      </trkpt>
      <trkpt lat="46.25782" lon="4.80857">
        <ele>247.39999389648</ele>
        <time>2019-09-13T12:23:55Z</time>
      </trkpt>
      <trkpt lat="46.25777" lon="4.80859">
        <ele>247.19999694824</ele>
        <time>2019-09-13T12:23:56Z</time>
      </trkpt>
      <trkpt lat="46.25721" lon="4.80877">
        <ele>247.39999389648</ele>
        <time>2019-09-13T12:24:06Z</time>
      </trkpt>
      <trkpt lat="46.2571" lon="4.80879">
        <ele>247.39999389648</ele>
        <time>2019-09-13T12:24:08Z</time>
      </trkpt>
      <trkpt lat="46.25664" lon="4.80888">
        <ele>247.39999389648</ele>
        <time>2019-09-13T12:24:16Z</time>
      </trkpt>
      <trkpt lat="46.25611" lon="4.80892">
        <ele>247.39999389648</ele>
        <time>2019-09-13T12:24:25Z</time>
      </trkpt>
      <trkpt lat="46.25552" lon="4.80895">
        <ele>247.39999389648</ele>
        <time>2019-09-13T12:24:35Z</time>
      </trkpt>
      <trkpt lat="46.25546" lon="4.80896">
        <ele>247.39999389648</ele>
        <time>2019-09-13T12:24:36Z</time>
      </trkpt>
      <trkpt lat="46.25495" lon="4.80905">
        <ele>247.60000610352</ele>
        <time>2019-09-13T12:24:45Z</time>
      </trkpt>
      <trkpt lat="46.25439" lon="4.80913">
        <ele>247.80000305176</ele>
        <time>2019-09-13T12:24:55Z</time>
      </trkpt>
      <trkpt lat="46.25389" lon="4.80918">
        <ele>247.80000305176</ele>
        <time>2019-09-13T12:25:04Z</time>
      </trkpt>
      <trkpt lat="46.25334" lon="4.8092">
        <ele>247.80000305176</ele>
        <time>2019-09-13T12:25:14Z</time>
      </trkpt>
      <trkpt lat="46.25328" lon="4.80921">
        <ele>247.80000305176</ele>
        <time>2019-09-13T12:25:15Z</time>
      </trkpt>
      <trkpt lat="46.25284" lon="4.80924">
        <ele>247.60000610352</ele>
        <time>2019-09-13T12:25:23Z</time>
      </trkpt>
      <trkpt lat="46.2528" lon="4.80925">
        <ele>247.60000610352</ele>
        <time>2019-09-13T12:25:24Z</time>
      </trkpt>
      <trkpt lat="46.25265" lon="4.80925">
        <ele>247.60000610352</ele>
        <time>2019-09-13T12:25:27Z</time>
      </trkpt>
      <trkpt lat="46.25233" lon="4.80924">
        <ele>247.60000610352</ele>
        <time>2019-09-13T12:25:33Z</time>
      </trkpt>
      <trkpt lat="46.25222" lon="4.80923">
        <ele>247.60000610352</ele>
        <time>2019-09-13T12:25:35Z</time>
      </trkpt>
      <trkpt lat="46.25181" lon="4.80922">
        <ele>247.60000610352</ele>
        <time>2019-09-13T12:25:42Z</time>
      </trkpt>
      <trkpt lat="46.25129" lon="4.80919">
        <ele>247.60000610352</ele>
        <time>2019-09-13T12:25:51Z</time>
      </trkpt>
      <trkpt lat="46.25118" lon="4.80919">
        <ele>247.60000610352</ele>
        <time>2019-09-13T12:25:53Z</time>
      </trkpt>
      <trkpt lat="46.25096" lon="4.80919">
        <ele>247.39999389648</ele>
        <time>2019-09-13T12:25:57Z</time>
      </trkpt>
      <trkpt lat="46.25058" lon="4.80915">
        <ele>247.60000610352</ele>
        <time>2019-09-13T12:26:04Z</time>
      </trkpt>
      <trkpt lat="46.25048" lon="4.80914">
        <ele>247.39999389648</ele>
        <time>2019-09-13T12:26:06Z</time>
      </trkpt>
      <trkpt lat="46.25026" lon="4.80914">
        <ele>247.60000610352</ele>
        <time>2019-09-13T12:26:10Z</time>
      </trkpt>
      <trkpt lat="46.24984" lon="4.8091">
        <ele>247.80000305176</ele>
        <time>2019-09-13T12:26:18Z</time>
      </trkpt>
      <trkpt lat="46.24973" lon="4.80907">
        <ele>247.80000305176</ele>
        <time>2019-09-13T12:26:20Z</time>
      </trkpt>
      <trkpt lat="46.24931" lon="4.809">
        <ele>247.80000305176</ele>
        <time>2019-09-13T12:26:28Z</time>
      </trkpt>
      <trkpt lat="46.24904" lon="4.80895">
        <ele>247.60000610352</ele>
        <time>2019-09-13T12:26:34Z</time>
      </trkpt>
      <trkpt lat="46.2488" lon="4.80893">
        <ele>247.60000610352</ele>
        <time>2019-09-13T12:26:40Z</time>
      </trkpt>
      <trkpt lat="46.24857" lon="4.80889">
        <ele>247.80000305176</ele>
        <time>2019-09-13T12:26:45Z</time>
      </trkpt>
      <trkpt lat="46.24852" lon="4.80888">
        <ele>247.80000305176</ele>
        <time>2019-09-13T12:26:46Z</time>
      </trkpt>
      <trkpt lat="46.24821" lon="4.80888">
        <ele>247.80000305176</ele>
        <time>2019-09-13T12:26:52Z</time>
      </trkpt>
      <trkpt lat="46.24771" lon="4.80886">
        <ele>247.60000610352</ele>
        <time>2019-09-13T12:27:01Z</time>
      </trkpt>
      <trkpt lat="46.24732" lon="4.80888">
        <ele>247.60000610352</ele>
        <time>2019-09-13T12:27:08Z</time>
      </trkpt>
      <trkpt lat="46.24715" lon="4.80886">
        <ele>247.60000610352</ele>
        <time>2019-09-13T12:27:11Z</time>
      </trkpt>
      <trkpt lat="46.24698" lon="4.80881">
        <ele>247.60000610352</ele>
        <time>2019-09-13T12:27:14Z</time>
      </trkpt>
      <trkpt lat="46.24665" lon="4.80874">
        <ele>247.80000305176</ele>
        <time>2019-09-13T12:27:20Z</time>
      </trkpt>
      <trkpt lat="46.24622" lon="4.80867">
        <ele>247.80000305176</ele>
        <time>2019-09-13T12:27:27Z</time>
      </trkpt>
      <trkpt lat="46.24563" lon="4.80854">
        <ele>247.60000610352</ele>
        <time>2019-09-13T12:27:37Z</time>
      </trkpt>
      <trkpt lat="46.2452" lon="4.80842">
        <ele>247.39999389648</ele>
        <time>2019-09-13T12:27:45Z</time>
      </trkpt>
      <trkpt lat="46.24476" lon="4.8083">
        <ele>248</ele>
        <time>2019-09-13T12:27:54Z</time>
      </trkpt>
      <trkpt lat="46.24436" lon="4.80817">
        <ele>248</ele>
        <time>2019-09-13T12:28:02Z</time>
      </trkpt>
      <trkpt lat="46.24403" lon="4.80805">
        <ele>248</ele>
        <time>2019-09-13T12:28:09Z</time>
      </trkpt>
      <trkpt lat="46.24369" lon="4.80792">
        <ele>248</ele>
        <time>2019-09-13T12:28:16Z</time>
      </trkpt>
      <trkpt lat="46.24353" lon="4.8078">
        <ele>247.80000305176</ele>
        <time>2019-09-13T12:28:20Z</time>
      </trkpt>
      <trkpt lat="46.24344" lon="4.80776">
        <ele>247.60000610352</ele>
        <time>2019-09-13T12:28:22Z</time>
      </trkpt>
      <trkpt lat="46.24309" lon="4.80755">
        <ele>247.60000610352</ele>
        <time>2019-09-13T12:28:30Z</time>
      </trkpt>
      <trkpt lat="46.24282" lon="4.80743">
        <ele>247.80000305176</ele>
        <time>2019-09-13T12:28:37Z</time>
      </trkpt>
      <trkpt lat="46.24252" lon="4.80731">
        <ele>247.80000305176</ele>
        <time>2019-09-13T12:28:45Z</time>
      </trkpt>
      <trkpt lat="46.24243" lon="4.80737">
        <ele>247.80000305176</ele>
        <time>2019-09-13T12:28:48Z</time>
      </trkpt>
      <trkpt lat="46.2424" lon="4.80752">
        <ele>247.80000305176</ele>
        <time>2019-09-13T12:28:51Z</time>
      </trkpt>
      <trkpt lat="46.24237" lon="4.80766">
        <ele>247.80000305176</ele>
        <time>2019-09-13T12:28:54Z</time>
      </trkpt>
      <trkpt lat="46.24229" lon="4.80802">
        <ele>248.19999694824</ele>
        <time>2019-09-13T12:29:02Z</time>
      </trkpt>
      <trkpt lat="46.24221" lon="4.80823">
        <ele>248.19999694824</ele>
        <time>2019-09-13T12:29:07Z</time>
      </trkpt>
      <trkpt lat="46.24214" lon="4.80824">
        <ele>248.19999694824</ele>
        <time>2019-09-13T12:29:11Z</time>
      </trkpt>
      <trkpt lat="46.24214" lon="4.80823">
        <ele>248.19999694824</ele>
        <time>2019-09-13T12:29:13Z</time>
      </trkpt>
      <trkpt lat="46.2421" lon="4.80823">
        <ele>248.60000610352</ele>
        <time>2019-09-13T12:31:40Z</time>
      </trkpt>
      <trkpt lat="46.24207" lon="4.80822">
        <ele>248.60000610352</ele>
        <time>2019-09-13T12:31:42Z</time>
      </trkpt>
      <trkpt lat="46.24206" lon="4.8082">
        <ele>248.60000610352</ele>
        <time>2019-09-13T12:31:43Z</time>
      </trkpt>
      <trkpt lat="46.24204" lon="4.80815">
        <ele>248.60000610352</ele>
        <time>2019-09-13T12:31:45Z</time>
      </trkpt>
      <trkpt lat="46.24204" lon="4.80807">
        <ele>248.60000610352</ele>
        <time>2019-09-13T12:31:47Z</time>
      </trkpt>
      <trkpt lat="46.24205" lon="4.80789">
        <ele>248.60000610352</ele>
        <time>2019-09-13T12:31:51Z</time>
      </trkpt>
      <trkpt lat="46.24206" lon="4.80785">
        <ele>248.60000610352</ele>
        <time>2019-09-13T12:31:52Z</time>
      </trkpt>
      <trkpt lat="46.24212" lon="4.80754">
        <ele>248.80000305176</ele>
        <time>2019-09-13T12:32:00Z</time>
      </trkpt>
      <trkpt lat="46.24217" lon="4.80734">
        <ele>249.39999389648</ele>
        <time>2019-09-13T12:32:06Z</time>
      </trkpt>
      <trkpt lat="46.24219" lon="4.80729">
        <ele>249.39999389648</ele>
        <time>2019-09-13T12:32:08Z</time>
      </trkpt>
      <trkpt lat="46.24222" lon="4.8073">
        <ele>249.60000610352</ele>
        <time>2019-09-13T12:32:10Z</time>
      </trkpt>
      <trkpt lat="46.2422" lon="4.80744">
        <ele>250.19999694824</ele>
        <time>2019-09-13T12:32:14Z</time>
      </trkpt>
      <trkpt lat="46.24219" lon="4.80747">
        <ele>250.19999694824</ele>
        <time>2019-09-13T12:32:15Z</time>
      </trkpt>
      <trkpt lat="46.24216" lon="4.80763">
        <ele>250.80000305176</ele>
        <time>2019-09-13T12:32:19Z</time>
      </trkpt>
      <trkpt lat="46.24215" lon="4.8077">
        <ele>250.80000305176</ele>
        <time>2019-09-13T12:32:21Z</time>
      </trkpt>
      <trkpt lat="46.24209" lon="4.80805">
        <ele>251.80000305176</ele>
        <time>2019-09-13T12:32:30Z</time>
      </trkpt>
      <trkpt lat="46.24208" lon="4.80815">
        <ele>252.19999694824</ele>
        <time>2019-09-13T12:32:33Z</time>
      </trkpt>
      <trkpt lat="46.24205" lon="4.80833">
        <ele>252.80000305176</ele>
        <time>2019-09-13T12:32:38Z</time>
      </trkpt>
      <trkpt lat="46.24203" lon="4.80844">
        <ele>253.19999694824</ele>
        <time>2019-09-13T12:32:41Z</time>
      </trkpt>
      <trkpt lat="46.242" lon="4.80859">
        <ele>253.80000305176</ele>
        <time>2019-09-13T12:32:45Z</time>
      </trkpt>
      <trkpt lat="46.24197" lon="4.80881">
        <ele>254.60000610352</ele>
        <time>2019-09-13T12:32:51Z</time>
      </trkpt>
      <trkpt lat="46.24196" lon="4.80889">
        <ele>255</ele>
        <time>2019-09-13T12:32:53Z</time>
      </trkpt>
      <trkpt lat="46.24194" lon="4.80904">
        <ele>255.80000305176</ele>
        <time>2019-09-13T12:32:57Z</time>
      </trkpt>
      <trkpt lat="46.2419" lon="4.80926">
        <ele>256</ele>
        <time>2019-09-13T12:33:02Z</time>
      </trkpt>
      <trkpt lat="46.24187" lon="4.80948">
        <ele>256.20001220703</ele>
        <time>2019-09-13T12:33:07Z</time>
      </trkpt>
      <trkpt lat="46.24183" lon="4.80984">
        <ele>256.79998779297</ele>
        <time>2019-09-13T12:33:15Z</time>
      </trkpt>
      <trkpt lat="46.24178" lon="4.81011">
        <ele>257</ele>
        <time>2019-09-13T12:33:21Z</time>
      </trkpt>
      <trkpt lat="46.24178" lon="4.81016">
        <ele>257</ele>
        <time>2019-09-13T12:33:22Z</time>
      </trkpt>
      <trkpt lat="46.24174" lon="4.81042">
        <ele>257.20001220703</ele>
        <time>2019-09-13T12:33:28Z</time>
      </trkpt>
      <trkpt lat="46.24168" lon="4.81082">
        <ele>256.60000610352</ele>
        <time>2019-09-13T12:33:36Z</time>
      </trkpt>
      <trkpt lat="46.24161" lon="4.81119">
        <ele>256.20001220703</ele>
        <time>2019-09-13T12:33:42Z</time>
      </trkpt>
      <trkpt lat="46.24159" lon="4.81134">
        <ele>256</ele>
        <time>2019-09-13T12:33:44Z</time>
      </trkpt>
      <trkpt lat="46.24151" lon="4.81183">
        <ele>255.19999694824</ele>
        <time>2019-09-13T12:33:50Z</time>
      </trkpt>
      <trkpt lat="46.24146" lon="4.81214">
        <ele>254.19999694824</ele>
        <time>2019-09-13T12:33:54Z</time>
      </trkpt>
      <trkpt lat="46.24145" lon="4.81218">
        <ele>253.80000305176</ele>
        <time>2019-09-13T12:33:55Z</time>
      </trkpt>
      <trkpt lat="46.24144" lon="4.8122">
        <ele>253.39999389648</ele>
        <time>2019-09-13T12:33:56Z</time>
      </trkpt>
      <trkpt lat="46.24142" lon="4.81218">
        <ele>253</ele>
        <time>2019-09-13T12:33:58Z</time>
      </trkpt>
      <trkpt lat="46.24141" lon="4.81208">
        <ele>252.19999694824</ele>
        <time>2019-09-13T12:34:01Z</time>
      </trkpt>
      <trkpt lat="46.24141" lon="4.81204">
        <ele>251.80000305176</ele>
        <time>2019-09-13T12:34:02Z</time>
      </trkpt>
      <trkpt lat="46.24141" lon="4.81178">
        <ele>251</ele>
        <time>2019-09-13T12:34:07Z</time>
      </trkpt>
      <trkpt lat="46.24141" lon="4.81172">
        <ele>250.60000610352</ele>
        <time>2019-09-13T12:34:08Z</time>
      </trkpt>
      <trkpt lat="46.24139" lon="4.81154">
        <ele>250.19999694824</ele>
        <time>2019-09-13T12:34:11Z</time>
      </trkpt>
      <trkpt lat="46.24138" lon="4.81148">
        <ele>249.80000305176</ele>
        <time>2019-09-13T12:34:12Z</time>
      </trkpt>
      <trkpt lat="46.24135" lon="4.81144">
        <ele>249.60000610352</ele>
        <time>2019-09-13T12:34:13Z</time>
      </trkpt>
      <trkpt lat="46.24127" lon="4.81139">
        <ele>249</ele>
        <time>2019-09-13T12:34:15Z</time>
      </trkpt>
      <trkpt lat="46.24123" lon="4.81138">
        <ele>248.60000610352</ele>
        <time>2019-09-13T12:34:16Z</time>
      </trkpt>
      <trkpt lat="46.24116" lon="4.81135">
        <ele>248.39999389648</ele>
        <time>2019-09-13T12:34:18Z</time>
      </trkpt>
      <trkpt lat="46.2411" lon="4.81129">
        <ele>247.80000305176</ele>
        <time>2019-09-13T12:34:20Z</time>
      </trkpt>
      <trkpt lat="46.24108" lon="4.81128">
        <ele>247.60000610352</ele>
        <time>2019-09-13T12:34:21Z</time>
      </trkpt>
      <trkpt lat="46.24106" lon="4.81128">
        <ele>247.39999389648</ele>
        <time>2019-09-13T12:34:22Z</time>
      </trkpt>
      <trkpt lat="46.24106" lon="4.81128">
        <ele>247.39999389648</ele>
        <time>2019-09-13T12:34:23Z</time>
      </trkpt>
      <trkpt lat="46.24106" lon="4.81128">
        <ele>247.39999389648</ele>
        <time>2019-09-13T12:34:24Z</time>
      </trkpt>
      <trkpt lat="46.24105" lon="4.81127">
        <ele>247</ele>
        <time>2019-09-13T12:35:00Z</time>
      </trkpt>
      <trkpt lat="46.24101" lon="4.81121">
        <ele>247</ele>
        <time>2019-09-13T12:35:03Z</time>
      </trkpt>
      <trkpt lat="46.24088" lon="4.81097">
        <ele>247</ele>
        <time>2019-09-13T12:35:09Z</time>
      </trkpt>
      <trkpt lat="46.2408" lon="4.81085">
        <ele>247</ele>
        <time>2019-09-13T12:35:12Z</time>
      </trkpt>
      <trkpt lat="46.24072" lon="4.81079">
        <ele>247</ele>
        <time>2019-09-13T12:35:14Z</time>
      </trkpt>
      <trkpt lat="46.24049" lon="4.81075">
        <ele>247.19999694824</ele>
        <time>2019-09-13T12:35:19Z</time>
      </trkpt>
      <trkpt lat="46.24028" lon="4.81086">
        <ele>247.19999694824</ele>
        <time>2019-09-13T12:35:24Z</time>
      </trkpt>
      <trkpt lat="46.24017" lon="4.81096">
        <ele>247.19999694824</ele>
        <time>2019-09-13T12:35:27Z</time>
      </trkpt>
      <trkpt lat="46.24006" lon="4.81104">
        <ele>247.19999694824</ele>
        <time>2019-09-13T12:35:30Z</time>
      </trkpt>
      <trkpt lat="46.23984" lon="4.81106">
        <ele>247.19999694824</ele>
        <time>2019-09-13T12:35:35Z</time>
      </trkpt>
      <trkpt lat="46.23979" lon="4.81106">
        <ele>247.19999694824</ele>
        <time>2019-09-13T12:35:37Z</time>
      </trkpt>
      <trkpt lat="46.23978" lon="4.81106">
        <ele>247.19999694824</ele>
        <time>2019-09-13T12:35:38Z</time>
      </trkpt>
      <trkpt lat="46.23978" lon="4.81106">
        <ele>247.19999694824</ele>
        <time>2019-09-13T12:35:40Z</time>
      </trkpt>
      <trkpt lat="46.23975" lon="4.81105">
        <ele>247</ele>
        <time>2019-09-13T12:36:16Z</time>
      </trkpt>
      <trkpt lat="46.23968" lon="4.81102">
        <ele>247</ele>
        <time>2019-09-13T12:36:19Z</time>
      </trkpt>
      <trkpt lat="46.23943" lon="4.81096">
        <ele>247.19999694824</ele>
        <time>2019-09-13T12:36:25Z</time>
      </trkpt>
      <trkpt lat="46.2391" lon="4.81088">
        <ele>247.19999694824</ele>
        <time>2019-09-13T12:36:32Z</time>
      </trkpt>
      <trkpt lat="46.23866" lon="4.81076">
        <ele>247.60000610352</ele>
        <time>2019-09-13T12:36:41Z</time>
      </trkpt>
      <trkpt lat="46.23826" lon="4.81064">
        <ele>247.60000610352</ele>
        <time>2019-09-13T12:36:49Z</time>
      </trkpt>
      <trkpt lat="46.23787" lon="4.81047">
        <ele>247.39999389648</ele>
        <time>2019-09-13T12:36:57Z</time>
      </trkpt>
      <trkpt lat="46.23749" lon="4.81029">
        <ele>247.39999389648</ele>
        <time>2019-09-13T12:37:05Z</time>
      </trkpt>
      <trkpt lat="46.23715" lon="4.81013">
        <ele>247.39999389648</ele>
        <time>2019-09-13T12:37:12Z</time>
      </trkpt>
      <trkpt lat="46.23681" lon="4.80993">
        <ele>247.39999389648</ele>
        <time>2019-09-13T12:37:19Z</time>
      </trkpt>
      <trkpt lat="46.23648" lon="4.8097">
        <ele>247.39999389648</ele>
        <time>2019-09-13T12:37:26Z</time>
      </trkpt>
      <trkpt lat="46.23624" lon="4.80949">
        <ele>247.39999389648</ele>
        <time>2019-09-13T12:37:32Z</time>
      </trkpt>
      <trkpt lat="46.23592" lon="4.80924">
        <ele>247.39999389648</ele>
        <time>2019-09-13T12:37:39Z</time>
      </trkpt>
      <trkpt lat="46.23561" lon="4.80899">
        <ele>247.39999389648</ele>
        <time>2019-09-13T12:37:46Z</time>
      </trkpt>
      <trkpt lat="46.2355" lon="4.8089">
        <ele>247.39999389648</ele>
        <time>2019-09-13T12:37:51Z</time>
      </trkpt>
      <trkpt lat="46.23548" lon="4.80889">
        <ele>247.39999389648</ele>
        <time>2019-09-13T12:37:53Z</time>
      </trkpt>
      <trkpt lat="46.23545" lon="4.8089">
        <ele>247.19999694824</ele>
        <time>2019-09-13T12:37:56Z</time>
      </trkpt>
      <trkpt lat="46.23545" lon="4.8089">
        <ele>247.19999694824</ele>
        <time>2019-09-13T12:37:57Z</time>
      </trkpt>
      <trkpt lat="46.23544" lon="4.8089">
        <ele>247.19999694824</ele>
        <time>2019-09-13T12:38:00Z</time>
      </trkpt>
      <trkpt lat="46.23541" lon="4.80888">
        <ele>247.19999694824</ele>
        <time>2019-09-13T12:38:03Z</time>
      </trkpt>
      <trkpt lat="46.2354" lon="4.80887">
        <ele>247.19999694824</ele>
        <time>2019-09-13T12:38:04Z</time>
      </trkpt>
      <trkpt lat="46.23539" lon="4.80883">
        <ele>247.19999694824</ele>
        <time>2019-09-13T12:38:08Z</time>
      </trkpt>
      <trkpt lat="46.23537" lon="4.80882">
        <ele>247</ele>
        <time>2019-09-13T12:38:13Z</time>
      </trkpt>
      <trkpt lat="46.23533" lon="4.80877">
        <ele>247</ele>
        <time>2019-09-13T12:38:16Z</time>
      </trkpt>
      <trkpt lat="46.23515" lon="4.80863">
        <ele>247.19999694824</ele>
        <time>2019-09-13T12:38:21Z</time>
      </trkpt>
      <trkpt lat="46.23484" lon="4.80834">
        <ele>247.39999389648</ele>
        <time>2019-09-13T12:38:29Z</time>
      </trkpt>
      <trkpt lat="46.2348" lon="4.8083">
        <ele>247.39999389648</ele>
        <time>2019-09-13T12:38:30Z</time>
      </trkpt>
      <trkpt lat="46.23469" lon="4.80818">
        <ele>247.39999389648</ele>
        <time>2019-09-13T12:38:34Z</time>
      </trkpt>
      <trkpt lat="46.23467" lon="4.80818">
        <ele>247.39999389648</ele>
        <time>2019-09-13T12:38:35Z</time>
      </trkpt>
      <trkpt lat="46.23459" lon="4.80818">
        <ele>247.39999389648</ele>
        <time>2019-09-13T12:38:38Z</time>
      </trkpt>
      <trkpt lat="46.23452" lon="4.80804">
        <ele>247.39999389648</ele>
        <time>2019-09-13T12:38:42Z</time>
      </trkpt>
      <trkpt lat="46.23445" lon="4.80794">
        <ele>247.39999389648</ele>
        <time>2019-09-13T12:38:45Z</time>
      </trkpt>
      <trkpt lat="46.23442" lon="4.80792">
        <ele>247.39999389648</ele>
        <time>2019-09-13T12:38:46Z</time>
      </trkpt>
      <trkpt lat="46.23418" lon="4.80767">
        <ele>247.39999389648</ele>
        <time>2019-09-13T12:38:53Z</time>
      </trkpt>
      <trkpt lat="46.23399" lon="4.80747">
        <ele>247.39999389648</ele>
        <time>2019-09-13T12:38:58Z</time>
      </trkpt>
      <trkpt lat="46.23372" lon="4.80718">
        <ele>247.60000610352</ele>
        <time>2019-09-13T12:39:05Z</time>
      </trkpt>
      <trkpt lat="46.23339" lon="4.80682">
        <ele>247.60000610352</ele>
        <time>2019-09-13T12:39:13Z</time>
      </trkpt>
      <trkpt lat="46.23314" lon="4.80653">
        <ele>247.60000610352</ele>
        <time>2019-09-13T12:39:19Z</time>
      </trkpt>
      <trkpt lat="46.2329" lon="4.80625">
        <ele>247.60000610352</ele>
        <time>2019-09-13T12:39:25Z</time>
      </trkpt>
      <trkpt lat="46.23267" lon="4.80599">
        <ele>247.60000610352</ele>
        <time>2019-09-13T12:39:31Z</time>
      </trkpt>
      <trkpt lat="46.23244" lon="4.80571">
        <ele>247.39999389648</ele>
        <time>2019-09-13T12:39:37Z</time>
      </trkpt>
      <trkpt lat="46.23214" lon="4.80535">
        <ele>247.19999694824</ele>
        <time>2019-09-13T12:39:45Z</time>
      </trkpt>
      <trkpt lat="46.23185" lon="4.80498">
        <ele>247.39999389648</ele>
        <time>2019-09-13T12:39:52Z</time>
      </trkpt>
      <trkpt lat="46.23157" lon="4.80463">
        <ele>247.60000610352</ele>
        <time>2019-09-13T12:39:59Z</time>
      </trkpt>
      <trkpt lat="46.23142" lon="4.80446">
        <ele>247.60000610352</ele>
        <time>2019-09-13T12:40:03Z</time>
      </trkpt>
      <trkpt lat="46.23132" lon="4.80436">
        <ele>247.60000610352</ele>
        <time>2019-09-13T12:40:05Z</time>
      </trkpt>
      <trkpt lat="46.23102" lon="4.80404">
        <ele>247.60000610352</ele>
        <time>2019-09-13T12:40:12Z</time>
      </trkpt>
      <trkpt lat="46.23067" lon="4.80368">
        <ele>247.60000610352</ele>
        <time>2019-09-13T12:40:20Z</time>
      </trkpt>
      <trkpt lat="46.23041" lon="4.80343">
        <ele>247.39999389648</ele>
        <time>2019-09-13T12:40:26Z</time>
      </trkpt>
      <trkpt lat="46.22998" lon="4.80303">
        <ele>247.60000610352</ele>
        <time>2019-09-13T12:40:36Z</time>
      </trkpt>
      <trkpt lat="46.22971" lon="4.80282">
        <ele>247.80000305176</ele>
        <time>2019-09-13T12:40:42Z</time>
      </trkpt>
      <trkpt lat="46.2294" lon="4.80259">
        <ele>248</ele>
        <time>2019-09-13T12:40:49Z</time>
      </trkpt>
      <trkpt lat="46.2293" lon="4.80252">
        <ele>248</ele>
        <time>2019-09-13T12:40:51Z</time>
      </trkpt>
      <trkpt lat="46.22914" lon="4.80242">
        <ele>248</ele>
        <time>2019-09-13T12:40:54Z</time>
      </trkpt>
      <trkpt lat="46.22909" lon="4.80238">
        <ele>248</ele>
        <time>2019-09-13T12:40:55Z</time>
      </trkpt>
      <trkpt lat="46.22886" lon="4.80218">
        <ele>248</ele>
        <time>2019-09-13T12:41:00Z</time>
      </trkpt>
      <trkpt lat="46.22856" lon="4.80192">
        <ele>248</ele>
        <time>2019-09-13T12:41:07Z</time>
      </trkpt>
      <trkpt lat="46.22829" lon="4.80173">
        <ele>248</ele>
        <time>2019-09-13T12:41:13Z</time>
      </trkpt>
      <trkpt lat="46.22795" lon="4.80154">
        <ele>248</ele>
        <time>2019-09-13T12:41:20Z</time>
      </trkpt>
      <trkpt lat="46.22752" lon="4.80128">
        <ele>247.80000305176</ele>
        <time>2019-09-13T12:41:29Z</time>
      </trkpt>
      <trkpt lat="46.2271" lon="4.80102">
        <ele>247.80000305176</ele>
        <time>2019-09-13T12:41:38Z</time>
      </trkpt>
      <trkpt lat="46.22676" lon="4.80085">
        <ele>247.80000305176</ele>
        <time>2019-09-13T12:41:45Z</time>
      </trkpt>
      <trkpt lat="46.22637" lon="4.80067">
        <ele>248</ele>
        <time>2019-09-13T12:41:53Z</time>
      </trkpt>
      <trkpt lat="46.22581" lon="4.80043">
        <ele>248.39999389648</ele>
        <time>2019-09-13T12:42:04Z</time>
      </trkpt>
      <trkpt lat="46.2253" lon="4.80022">
        <ele>248.19999694824</ele>
        <time>2019-09-13T12:42:13Z</time>
      </trkpt>
      <trkpt lat="46.22475" lon="4.8">
        <ele>248.39999389648</ele>
        <time>2019-09-13T12:42:23Z</time>
      </trkpt>
      <trkpt lat="46.22433" lon="4.79982">
        <ele>248.39999389648</ele>
        <time>2019-09-13T12:42:31Z</time>
      </trkpt>
      <trkpt lat="46.2239" lon="4.79964">
        <ele>248.39999389648</ele>
        <time>2019-09-13T12:42:39Z</time>
      </trkpt>
      <trkpt lat="46.22346" lon="4.79941">
        <ele>248.39999389648</ele>
        <time>2019-09-13T12:42:47Z</time>
      </trkpt>
      <trkpt lat="46.22296" lon="4.79915">
        <ele>248.19999694824</ele>
        <time>2019-09-13T12:42:56Z</time>
      </trkpt>
      <trkpt lat="46.22257" lon="4.799">
        <ele>248</ele>
        <time>2019-09-13T12:43:03Z</time>
      </trkpt>
      <trkpt lat="46.22213" lon="4.79878">
        <ele>248</ele>
        <time>2019-09-13T12:43:11Z</time>
      </trkpt>
      <trkpt lat="46.22165" lon="4.79851">
        <ele>248</ele>
        <time>2019-09-13T12:43:20Z</time>
      </trkpt>
      <trkpt lat="46.22127" lon="4.79829">
        <ele>247.80000305176</ele>
        <time>2019-09-13T12:43:27Z</time>
      </trkpt>
      <trkpt lat="46.22083" lon="4.79801">
        <ele>248</ele>
        <time>2019-09-13T12:43:35Z</time>
      </trkpt>
      <trkpt lat="46.22041" lon="4.79773">
        <ele>248.19999694824</ele>
        <time>2019-09-13T12:43:43Z</time>
      </trkpt>
      <trkpt lat="46.22005" lon="4.79748">
        <ele>248.39999389648</ele>
        <time>2019-09-13T12:43:50Z</time>
      </trkpt>
      <trkpt lat="46.21969" lon="4.79726">
        <ele>248.39999389648</ele>
        <time>2019-09-13T12:43:57Z</time>
      </trkpt>
      <trkpt lat="46.21937" lon="4.79705">
        <ele>248.39999389648</ele>
        <time>2019-09-13T12:44:03Z</time>
      </trkpt>
      <trkpt lat="46.21894" lon="4.79678">
        <ele>248.19999694824</ele>
        <time>2019-09-13T12:44:11Z</time>
      </trkpt>
      <trkpt lat="46.21879" lon="4.79668">
        <ele>248.39999389648</ele>
        <time>2019-09-13T12:44:14Z</time>
      </trkpt>
      <trkpt lat="46.21863" lon="4.7966">
        <ele>248.39999389648</ele>
        <time>2019-09-13T12:44:17Z</time>
      </trkpt>
      <trkpt lat="46.21825" lon="4.7964">
        <ele>248.39999389648</ele>
        <time>2019-09-13T12:44:24Z</time>
      </trkpt>
      <trkpt lat="46.21776" lon="4.79616">
        <ele>248.39999389648</ele>
        <time>2019-09-13T12:44:33Z</time>
      </trkpt>
      <trkpt lat="46.21738" lon="4.79599">
        <ele>248.39999389648</ele>
        <time>2019-09-13T12:44:40Z</time>
      </trkpt>
      <trkpt lat="46.21689" lon="4.79583">
        <ele>248.39999389648</ele>
        <time>2019-09-13T12:44:49Z</time>
      </trkpt>
      <trkpt lat="46.21638" lon="4.79567">
        <ele>248.60000610352</ele>
        <time>2019-09-13T12:44:58Z</time>
      </trkpt>
      <trkpt lat="46.2159" lon="4.79552">
        <ele>248.80000305176</ele>
        <time>2019-09-13T12:45:06Z</time>
      </trkpt>
      <trkpt lat="46.21538" lon="4.79535">
        <ele>248.60000610352</ele>
        <time>2019-09-13T12:45:15Z</time>
      </trkpt>
      <trkpt lat="46.21532" lon="4.79533">
        <ele>248.60000610352</ele>
        <time>2019-09-13T12:45:16Z</time>
      </trkpt>
      <trkpt lat="46.2148" lon="4.79517">
        <ele>248.39999389648</ele>
        <time>2019-09-13T12:45:25Z</time>
      </trkpt>
      <trkpt lat="46.21436" lon="4.79503">
        <ele>248.19999694824</ele>
        <time>2019-09-13T12:45:33Z</time>
      </trkpt>
      <trkpt lat="46.21386" lon="4.79489">
        <ele>248.39999389648</ele>
        <time>2019-09-13T12:45:42Z</time>
      </trkpt>
      <trkpt lat="46.21328" lon="4.79481">
        <ele>248.60000610352</ele>
        <time>2019-09-13T12:45:52Z</time>
      </trkpt>
      <trkpt lat="46.21269" lon="4.79475">
        <ele>248.60000610352</ele>
        <time>2019-09-13T12:46:02Z</time>
      </trkpt>
      <trkpt lat="46.21211" lon="4.79469">
        <ele>248.39999389648</ele>
        <time>2019-09-13T12:46:12Z</time>
      </trkpt>
      <trkpt lat="46.21165" lon="4.79464">
        <ele>248.19999694824</ele>
        <time>2019-09-13T12:46:20Z</time>
      </trkpt>
      <trkpt lat="46.21119" lon="4.79459">
        <ele>248.19999694824</ele>
        <time>2019-09-13T12:46:28Z</time>
      </trkpt>
      <trkpt lat="46.21095" lon="4.79458">
        <ele>248.19999694824</ele>
        <time>2019-09-13T12:46:32Z</time>
      </trkpt>
      <trkpt lat="46.21065" lon="4.79458">
        <ele>248.19999694824</ele>
        <time>2019-09-13T12:46:37Z</time>
      </trkpt>
      <trkpt lat="46.21017" lon="4.79458">
        <ele>248</ele>
        <time>2019-09-13T12:46:45Z</time>
      </trkpt>
      <trkpt lat="46.20962" lon="4.7946">
        <ele>248</ele>
        <time>2019-09-13T12:46:54Z</time>
      </trkpt>
      <trkpt lat="46.20956" lon="4.79461">
        <ele>248</ele>
        <time>2019-09-13T12:46:55Z</time>
      </trkpt>
      <trkpt lat="46.20902" lon="4.79466">
        <ele>248.19999694824</ele>
        <time>2019-09-13T12:47:04Z</time>
      </trkpt>
      <trkpt lat="46.20896" lon="4.79467">
        <ele>248.19999694824</ele>
        <time>2019-09-13T12:47:05Z</time>
      </trkpt>
      <trkpt lat="46.20842" lon="4.79475">
        <ele>248.19999694824</ele>
        <time>2019-09-13T12:47:14Z</time>
      </trkpt>
      <trkpt lat="46.20799" lon="4.79486">
        <ele>248.19999694824</ele>
        <time>2019-09-13T12:47:22Z</time>
      </trkpt>
      <trkpt lat="46.20749" lon="4.79494">
        <ele>248.19999694824</ele>
        <time>2019-09-13T12:47:31Z</time>
      </trkpt>
      <trkpt lat="46.20727" lon="4.79494">
        <ele>248.19999694824</ele>
        <time>2019-09-13T12:47:35Z</time>
      </trkpt>
      <trkpt lat="46.20721" lon="4.79493">
        <ele>248.19999694824</ele>
        <time>2019-09-13T12:47:36Z</time>
      </trkpt>
      <trkpt lat="46.20706" lon="4.79482">
        <ele>248</ele>
        <time>2019-09-13T12:47:39Z</time>
      </trkpt>
      <trkpt lat="46.20701" lon="4.79478">
        <ele>248</ele>
        <time>2019-09-13T12:47:40Z</time>
      </trkpt>
      <trkpt lat="46.20693" lon="4.7947">
        <ele>248</ele>
        <time>2019-09-13T12:47:42Z</time>
      </trkpt>
      <trkpt lat="46.20684" lon="4.79468">
        <ele>248</ele>
        <time>2019-09-13T12:47:44Z</time>
      </trkpt>
      <trkpt lat="46.2067" lon="4.79472">
        <ele>247.80000305176</ele>
        <time>2019-09-13T12:47:47Z</time>
      </trkpt>
      <trkpt lat="46.20651" lon="4.79479">
        <ele>247.80000305176</ele>
        <time>2019-09-13T12:47:51Z</time>
      </trkpt>
      <trkpt lat="46.20641" lon="4.79484">
        <ele>247.80000305176</ele>
        <time>2019-09-13T12:47:53Z</time>
      </trkpt>
      <trkpt lat="46.20629" lon="4.79497">
        <ele>248</ele>
        <time>2019-09-13T12:47:56Z</time>
      </trkpt>
      <trkpt lat="46.2061" lon="4.79522">
        <ele>248</ele>
        <time>2019-09-13T12:48:01Z</time>
      </trkpt>
      <trkpt lat="46.20605" lon="4.79526">
        <ele>248</ele>
        <time>2019-09-13T12:48:02Z</time>
      </trkpt>
      <trkpt lat="46.20595" lon="4.79532">
        <ele>248</ele>
        <time>2019-09-13T12:48:04Z</time>
      </trkpt>
      <trkpt lat="46.20574" lon="4.79542">
        <ele>248.19999694824</ele>
        <time>2019-09-13T12:48:08Z</time>
      </trkpt>
      <trkpt lat="46.20532" lon="4.79561">
        <ele>248.19999694824</ele>
        <time>2019-09-13T12:48:16Z</time>
      </trkpt>
      <trkpt lat="46.20504" lon="4.79568">
        <ele>248.19999694824</ele>
        <time>2019-09-13T12:48:21Z</time>
      </trkpt>
      <trkpt lat="46.2047" lon="4.79575">
        <ele>248</ele>
        <time>2019-09-13T12:48:27Z</time>
      </trkpt>
      <trkpt lat="46.20431" lon="4.79585">
        <ele>248</ele>
        <time>2019-09-13T12:48:34Z</time>
      </trkpt>
      <trkpt lat="46.20412" lon="4.79591">
        <ele>247.80000305176</ele>
        <time>2019-09-13T12:48:38Z</time>
      </trkpt>
      <trkpt lat="46.20402" lon="4.79592">
        <ele>247.80000305176</ele>
        <time>2019-09-13T12:48:40Z</time>
      </trkpt>
      <trkpt lat="46.20366" lon="4.79594">
        <ele>248</ele>
        <time>2019-09-13T12:48:47Z</time>
      </trkpt>
      <trkpt lat="46.20355" lon="4.79593">
        <ele>248</ele>
        <time>2019-09-13T12:48:49Z</time>
      </trkpt>
      <trkpt lat="46.20334" lon="4.79587">
        <ele>248</ele>
        <time>2019-09-13T12:48:53Z</time>
      </trkpt>
      <trkpt lat="46.20313" lon="4.79584">
        <ele>248.19999694824</ele>
        <time>2019-09-13T12:48:57Z</time>
      </trkpt>
      <trkpt lat="46.20308" lon="4.79585">
        <ele>248.19999694824</ele>
        <time>2019-09-13T12:48:58Z</time>
      </trkpt>
      <trkpt lat="46.20281" lon="4.79579">
        <ele>248.19999694824</ele>
        <time>2019-09-13T12:49:03Z</time>
      </trkpt>
      <trkpt lat="46.20265" lon="4.79576">
        <ele>248.19999694824</ele>
        <time>2019-09-13T12:49:06Z</time>
      </trkpt>
      <trkpt lat="46.20245" lon="4.79566">
        <ele>248.39999389648</ele>
        <time>2019-09-13T12:49:10Z</time>
      </trkpt>
      <trkpt lat="46.20225" lon="4.79556">
        <ele>248.39999389648</ele>
        <time>2019-09-13T12:49:14Z</time>
      </trkpt>
      <trkpt lat="46.20217" lon="4.79548">
        <ele>248.39999389648</ele>
        <time>2019-09-13T12:49:16Z</time>
      </trkpt>
      <trkpt lat="46.20201" lon="4.79529">
        <ele>248.39999389648</ele>
        <time>2019-09-13T12:49:20Z</time>
      </trkpt>
      <trkpt lat="46.20197" lon="4.79526">
        <ele>248.39999389648</ele>
        <time>2019-09-13T12:49:21Z</time>
      </trkpt>
      <trkpt lat="46.20172" lon="4.79503">
        <ele>248.60000610352</ele>
        <time>2019-09-13T12:49:27Z</time>
      </trkpt>
      <trkpt lat="46.20147" lon="4.79483">
        <ele>248.60000610352</ele>
        <time>2019-09-13T12:49:33Z</time>
      </trkpt>
      <trkpt lat="46.20115" lon="4.79452">
        <ele>248.19999694824</ele>
        <time>2019-09-13T12:49:40Z</time>
      </trkpt>
      <trkpt lat="46.20072" lon="4.79403">
        <ele>248.19999694824</ele>
        <time>2019-09-13T12:49:49Z</time>
      </trkpt>
      <trkpt lat="46.20034" lon="4.79358">
        <ele>248.39999389648</ele>
        <time>2019-09-13T12:49:57Z</time>
      </trkpt>
      <trkpt lat="46.1999" lon="4.79307">
        <ele>248.60000610352</ele>
        <time>2019-09-13T12:50:06Z</time>
      </trkpt>
      <trkpt lat="46.19957" lon="4.79266">
        <ele>248.60000610352</ele>
        <time>2019-09-13T12:50:13Z</time>
      </trkpt>
      <trkpt lat="46.19914" lon="4.79213">
        <ele>248.60000610352</ele>
        <time>2019-09-13T12:50:22Z</time>
      </trkpt>
      <trkpt lat="46.19904" lon="4.79202">
        <ele>248.60000610352</ele>
        <time>2019-09-13T12:50:24Z</time>
      </trkpt>
      <trkpt lat="46.19865" lon="4.79156">
        <ele>248.60000610352</ele>
        <time>2019-09-13T12:50:32Z</time>
      </trkpt>
      <trkpt lat="46.19822" lon="4.79104">
        <ele>248.80000305176</ele>
        <time>2019-09-13T12:50:41Z</time>
      </trkpt>
      <trkpt lat="46.1978" lon="4.79053">
        <ele>248.80000305176</ele>
        <time>2019-09-13T12:50:50Z</time>
      </trkpt>
      <trkpt lat="46.19761" lon="4.79031">
        <ele>248.80000305176</ele>
        <time>2019-09-13T12:50:54Z</time>
      </trkpt>
      <trkpt lat="46.19719" lon="4.7898">
        <ele>248.80000305176</ele>
        <time>2019-09-13T12:51:03Z</time>
      </trkpt>
      <trkpt lat="46.1971" lon="4.78969">
        <ele>248.80000305176</ele>
        <time>2019-09-13T12:51:05Z</time>
      </trkpt>
      <trkpt lat="46.19701" lon="4.78956">
        <ele>248.80000305176</ele>
        <time>2019-09-13T12:51:07Z</time>
      </trkpt>
      <trkpt lat="46.19692" lon="4.78945">
        <ele>248.80000305176</ele>
        <time>2019-09-13T12:51:09Z</time>
      </trkpt>
      <trkpt lat="46.19649" lon="4.78894">
        <ele>248.60000610352</ele>
        <time>2019-09-13T12:51:18Z</time>
      </trkpt>
      <trkpt lat="46.19644" lon="4.78888">
        <ele>248.60000610352</ele>
        <time>2019-09-13T12:51:19Z</time>
      </trkpt>
      <trkpt lat="46.19602" lon="4.78837">
        <ele>248.39999389648</ele>
        <time>2019-09-13T12:51:28Z</time>
      </trkpt>
      <trkpt lat="46.19597" lon="4.78832">
        <ele>248.39999389648</ele>
        <time>2019-09-13T12:51:29Z</time>
      </trkpt>
      <trkpt lat="46.1956" lon="4.78787">
        <ele>248.60000610352</ele>
        <time>2019-09-13T12:51:37Z</time>
      </trkpt>
      <trkpt lat="46.19551" lon="4.78776">
        <ele>248.39999389648</ele>
        <time>2019-09-13T12:51:39Z</time>
      </trkpt>
      <trkpt lat="46.19508" lon="4.78724">
        <ele>248.39999389648</ele>
        <time>2019-09-13T12:51:48Z</time>
      </trkpt>
      <trkpt lat="46.19467" lon="4.78675">
        <ele>248.39999389648</ele>
        <time>2019-09-13T12:51:57Z</time>
      </trkpt>
      <trkpt lat="46.19421" lon="4.78622">
        <ele>248.39999389648</ele>
        <time>2019-09-13T12:52:07Z</time>
      </trkpt>
      <trkpt lat="46.19416" lon="4.78617">
        <ele>248.39999389648</ele>
        <time>2019-09-13T12:52:08Z</time>
      </trkpt>
      <trkpt lat="46.19406" lon="4.78608">
        <ele>248.39999389648</ele>
        <time>2019-09-13T12:52:10Z</time>
      </trkpt>
      <trkpt lat="46.19396" lon="4.78598">
        <ele>248.39999389648</ele>
        <time>2019-09-13T12:52:12Z</time>
      </trkpt>
      <trkpt lat="46.1936" lon="4.78561">
        <ele>248.80000305176</ele>
        <time>2019-09-13T12:52:20Z</time>
      </trkpt>
      <trkpt lat="46.19322" lon="4.78524">
        <ele>249</ele>
        <time>2019-09-13T12:52:28Z</time>
      </trkpt>
      <trkpt lat="46.19289" lon="4.7849">
        <ele>249</ele>
        <time>2019-09-13T12:52:35Z</time>
      </trkpt>
      <trkpt lat="46.19248" lon="4.78451">
        <ele>249</ele>
        <time>2019-09-13T12:52:43Z</time>
      </trkpt>
      <trkpt lat="46.19207" lon="4.78411">
        <ele>248.80000305176</ele>
        <time>2019-09-13T12:52:51Z</time>
      </trkpt>
      <trkpt lat="46.19162" lon="4.78367">
        <ele>248.80000305176</ele>
        <time>2019-09-13T12:53:00Z</time>
      </trkpt>
      <trkpt lat="46.19152" lon="4.78357">
        <ele>248.80000305176</ele>
        <time>2019-09-13T12:53:02Z</time>
      </trkpt>
      <trkpt lat="46.19107" lon="4.78312">
        <ele>248.80000305176</ele>
        <time>2019-09-13T12:53:11Z</time>
      </trkpt>
      <trkpt lat="46.19101" lon="4.78307">
        <ele>248.80000305176</ele>
        <time>2019-09-13T12:53:12Z</time>
      </trkpt>
      <trkpt lat="46.19056" lon="4.78262">
        <ele>249</ele>
        <time>2019-09-13T12:53:21Z</time>
      </trkpt>
      <trkpt lat="46.19041" lon="4.78247">
        <ele>249</ele>
        <time>2019-09-13T12:53:24Z</time>
      </trkpt>
      <trkpt lat="46.18996" lon="4.78201">
        <ele>248.80000305176</ele>
        <time>2019-09-13T12:53:33Z</time>
      </trkpt>
      <trkpt lat="46.18962" lon="4.78173">
        <ele>248.80000305176</ele>
        <time>2019-09-13T12:53:40Z</time>
      </trkpt>
      <trkpt lat="46.18919" lon="4.78153">
        <ele>248.60000610352</ele>
        <time>2019-09-13T12:53:48Z</time>
      </trkpt>
      <trkpt lat="46.18879" lon="4.78141">
        <ele>248.80000305176</ele>
        <time>2019-09-13T12:53:55Z</time>
      </trkpt>
      <trkpt lat="46.1884" lon="4.78127">
        <ele>248.80000305176</ele>
        <time>2019-09-13T12:54:02Z</time>
      </trkpt>
      <trkpt lat="46.18823" lon="4.78114">
        <ele>248.80000305176</ele>
        <time>2019-09-13T12:54:06Z</time>
      </trkpt>
      <trkpt lat="46.1881" lon="4.78117">
        <ele>248.80000305176</ele>
        <time>2019-09-13T12:54:09Z</time>
      </trkpt>
      <trkpt lat="46.18806" lon="4.78119">
        <ele>248.80000305176</ele>
        <time>2019-09-13T12:54:10Z</time>
      </trkpt>
      <trkpt lat="46.18802" lon="4.78122">
        <ele>248.60000610352</ele>
        <time>2019-09-13T12:54:11Z</time>
      </trkpt>
      <trkpt lat="46.18787" lon="4.78132">
        <ele>248.60000610352</ele>
        <time>2019-09-13T12:54:14Z</time>
      </trkpt>
      <trkpt lat="46.18754" lon="4.78147">
        <ele>248.60000610352</ele>
        <time>2019-09-13T12:54:20Z</time>
      </trkpt>
      <trkpt lat="46.18738" lon="4.78152">
        <ele>248.60000610352</ele>
        <time>2019-09-13T12:54:23Z</time>
      </trkpt>
      <trkpt lat="46.18726" lon="4.78153">
        <ele>248.60000610352</ele>
        <time>2019-09-13T12:54:25Z</time>
      </trkpt>
      <trkpt lat="46.18688" lon="4.78157">
        <ele>249</ele>
        <time>2019-09-13T12:54:32Z</time>
      </trkpt>
      <trkpt lat="46.18655" lon="4.78161">
        <ele>249</ele>
        <time>2019-09-13T12:54:38Z</time>
      </trkpt>
      <trkpt lat="46.18639" lon="4.78164">
        <ele>249</ele>
        <time>2019-09-13T12:54:41Z</time>
      </trkpt>
      <trkpt lat="46.18622" lon="4.78168">
        <ele>249.19999694824</ele>
        <time>2019-09-13T12:54:44Z</time>
      </trkpt>
      <trkpt lat="46.18617" lon="4.78169">
        <ele>249.19999694824</ele>
        <time>2019-09-13T12:54:45Z</time>
      </trkpt>
      <trkpt lat="46.18598" lon="4.78173">
        <ele>249</ele>
        <time>2019-09-13T12:54:48Z</time>
      </trkpt>
      <trkpt lat="46.18557" lon="4.78177">
        <ele>248.80000305176</ele>
        <time>2019-09-13T12:54:55Z</time>
      </trkpt>
      <trkpt lat="46.18528" lon="4.78181">
        <ele>248.80000305176</ele>
        <time>2019-09-13T12:55:00Z</time>
      </trkpt>
      <trkpt lat="46.18522" lon="4.78182">
        <ele>248.80000305176</ele>
        <time>2019-09-13T12:55:01Z</time>
      </trkpt>
      <trkpt lat="46.18494" lon="4.78188">
        <ele>248.80000305176</ele>
        <time>2019-09-13T12:55:06Z</time>
      </trkpt>
      <trkpt lat="46.18461" lon="4.78192">
        <ele>248.80000305176</ele>
        <time>2019-09-13T12:55:12Z</time>
      </trkpt>
      <trkpt lat="46.18419" lon="4.78192">
        <ele>248.80000305176</ele>
        <time>2019-09-13T12:55:19Z</time>
      </trkpt>
      <trkpt lat="46.18371" lon="4.78196">
        <ele>249</ele>
        <time>2019-09-13T12:55:27Z</time>
      </trkpt>
      <trkpt lat="46.1833" lon="4.78197">
        <ele>249</ele>
        <time>2019-09-13T12:55:34Z</time>
      </trkpt>
      <trkpt lat="46.18271" lon="4.78199">
        <ele>249.19999694824</ele>
        <time>2019-09-13T12:55:44Z</time>
      </trkpt>
      <trkpt lat="46.18265" lon="4.78199">
        <ele>249.19999694824</ele>
        <time>2019-09-13T12:55:45Z</time>
      </trkpt>
      <trkpt lat="46.1823" lon="4.78202">
        <ele>249.19999694824</ele>
        <time>2019-09-13T12:55:51Z</time>
      </trkpt>
      <trkpt lat="46.18225" lon="4.78203">
        <ele>249.19999694824</ele>
        <time>2019-09-13T12:55:52Z</time>
      </trkpt>
      <trkpt lat="46.18184" lon="4.78204">
        <ele>249.39999389648</ele>
        <time>2019-09-13T12:55:59Z</time>
      </trkpt>
      <trkpt lat="46.18143" lon="4.78206">
        <ele>249.39999389648</ele>
        <time>2019-09-13T12:56:06Z</time>
      </trkpt>
      <trkpt lat="46.18109" lon="4.78207">
        <ele>249.39999389648</ele>
        <time>2019-09-13T12:56:12Z</time>
      </trkpt>
      <trkpt lat="46.1806" lon="4.78209">
        <ele>249.19999694824</ele>
        <time>2019-09-13T12:56:20Z</time>
      </trkpt>
      <trkpt lat="46.18017" lon="4.7821">
        <ele>249.19999694824</ele>
        <time>2019-09-13T12:56:27Z</time>
      </trkpt>
      <trkpt lat="46.17976" lon="4.78212">
        <ele>249.19999694824</ele>
        <time>2019-09-13T12:56:34Z</time>
      </trkpt>
      <trkpt lat="46.1793" lon="4.78216">
        <ele>249.19999694824</ele>
        <time>2019-09-13T12:56:42Z</time>
      </trkpt>
      <trkpt lat="46.17888" lon="4.78222">
        <ele>249</ele>
        <time>2019-09-13T12:56:49Z</time>
      </trkpt>
      <trkpt lat="46.17838" lon="4.78225">
        <ele>249.19999694824</ele>
        <time>2019-09-13T12:56:57Z</time>
      </trkpt>
      <trkpt lat="46.17784" lon="4.78227">
        <ele>249</ele>
        <time>2019-09-13T12:57:06Z</time>
      </trkpt>
      <trkpt lat="46.17778" lon="4.78227">
        <ele>249</ele>
        <time>2019-09-13T12:57:07Z</time>
      </trkpt>
      <trkpt lat="46.17739" lon="4.7823">
        <ele>249.19999694824</ele>
        <time>2019-09-13T12:57:14Z</time>
      </trkpt>
      <trkpt lat="46.17701" lon="4.78234">
        <ele>249.39999389648</ele>
        <time>2019-09-13T12:57:21Z</time>
      </trkpt>
      <trkpt lat="46.17684" lon="4.78237">
        <ele>249.39999389648</ele>
        <time>2019-09-13T12:57:24Z</time>
      </trkpt>
      <trkpt lat="46.17673" lon="4.7824">
        <ele>249.39999389648</ele>
        <time>2019-09-13T12:57:26Z</time>
      </trkpt>
      <trkpt lat="46.17641" lon="4.78244">
        <ele>249.39999389648</ele>
        <time>2019-09-13T12:57:32Z</time>
      </trkpt>
      <trkpt lat="46.17604" lon="4.78249">
        <ele>249.39999389648</ele>
        <time>2019-09-13T12:57:38Z</time>
      </trkpt>
      <trkpt lat="46.17593" lon="4.7825">
        <ele>249.39999389648</ele>
        <time>2019-09-13T12:57:40Z</time>
      </trkpt>
      <trkpt lat="46.17577" lon="4.78256">
        <ele>249.39999389648</ele>
        <time>2019-09-13T12:57:43Z</time>
      </trkpt>
      <trkpt lat="46.17572" lon="4.78257">
        <ele>249.39999389648</ele>
        <time>2019-09-13T12:57:44Z</time>
      </trkpt>
      <trkpt lat="46.17551" lon="4.7826">
        <ele>249.39999389648</ele>
        <time>2019-09-13T12:57:48Z</time>
      </trkpt>
      <trkpt lat="46.17519" lon="4.7827">
        <ele>249.39999389648</ele>
        <time>2019-09-13T12:57:54Z</time>
      </trkpt>
      <trkpt lat="46.17483" lon="4.78278">
        <ele>249.39999389648</ele>
        <time>2019-09-13T12:58:00Z</time>
      </trkpt>
      <trkpt lat="46.1744" lon="4.78285">
        <ele>249.60000610352</ele>
        <time>2019-09-13T12:58:07Z</time>
      </trkpt>
      <trkpt lat="46.1741" lon="4.7829">
        <ele>249.60000610352</ele>
        <time>2019-09-13T12:58:13Z</time>
      </trkpt>
      <trkpt lat="46.17394" lon="4.78294">
        <ele>249.80000305176</ele>
        <time>2019-09-13T12:58:16Z</time>
      </trkpt>
      <trkpt lat="46.17382" lon="4.78299">
        <ele>249.80000305176</ele>
        <time>2019-09-13T12:58:18Z</time>
      </trkpt>
      <trkpt lat="46.17364" lon="4.78305">
        <ele>249.80000305176</ele>
        <time>2019-09-13T12:58:21Z</time>
      </trkpt>
      <trkpt lat="46.17342" lon="4.78315">
        <ele>249.60000610352</ele>
        <time>2019-09-13T12:58:25Z</time>
      </trkpt>
      <trkpt lat="46.1729" lon="4.7834">
        <ele>249.60000610352</ele>
        <time>2019-09-13T12:58:34Z</time>
      </trkpt>
      <trkpt lat="46.17252" lon="4.78363">
        <ele>249.80000305176</ele>
        <time>2019-09-13T12:58:41Z</time>
      </trkpt>
      <trkpt lat="46.17218" lon="4.78379">
        <ele>250</ele>
        <time>2019-09-13T12:58:47Z</time>
      </trkpt>
      <trkpt lat="46.17198" lon="4.78389">
        <ele>250</ele>
        <time>2019-09-13T12:58:51Z</time>
      </trkpt>
      <trkpt lat="46.17193" lon="4.78391">
        <ele>250.19999694824</ele>
        <time>2019-09-13T12:58:52Z</time>
      </trkpt>
      <trkpt lat="46.17166" lon="4.78406">
        <ele>250.19999694824</ele>
        <time>2019-09-13T12:58:58Z</time>
      </trkpt>
      <trkpt lat="46.17152" lon="4.78417">
        <ele>250</ele>
        <time>2019-09-13T12:59:01Z</time>
      </trkpt>
      <trkpt lat="46.17141" lon="4.78424">
        <ele>250</ele>
        <time>2019-09-13T12:59:03Z</time>
      </trkpt>
      <trkpt lat="46.17102" lon="4.78446">
        <ele>250</ele>
        <time>2019-09-13T12:59:09Z</time>
      </trkpt>
      <trkpt lat="46.1705" lon="4.78478">
        <ele>250</ele>
        <time>2019-09-13T12:59:18Z</time>
      </trkpt>
      <trkpt lat="46.17015" lon="4.78495">
        <ele>250</ele>
        <time>2019-09-13T12:59:24Z</time>
      </trkpt>
      <trkpt lat="46.16979" lon="4.78511">
        <ele>249.80000305176</ele>
        <time>2019-09-13T12:59:30Z</time>
      </trkpt>
      <trkpt lat="46.16974" lon="4.78515">
        <ele>249.80000305176</ele>
        <time>2019-09-13T12:59:31Z</time>
      </trkpt>
      <trkpt lat="46.16922" lon="4.78557">
        <ele>249.80000305176</ele>
        <time>2019-09-13T12:59:41Z</time>
      </trkpt>
      <trkpt lat="46.16885" lon="4.78583">
        <ele>250</ele>
        <time>2019-09-13T12:59:48Z</time>
      </trkpt>
      <trkpt lat="46.16875" lon="4.7859">
        <ele>250</ele>
        <time>2019-09-13T12:59:50Z</time>
      </trkpt>
      <trkpt lat="46.16852" lon="4.786">
        <ele>250</ele>
        <time>2019-09-13T12:59:54Z</time>
      </trkpt>
      <trkpt lat="46.16834" lon="4.78608">
        <ele>250</ele>
        <time>2019-09-13T12:59:57Z</time>
      </trkpt>
      <trkpt lat="46.16818" lon="4.78619">
        <ele>250</ele>
        <time>2019-09-13T13:00:00Z</time>
      </trkpt>
      <trkpt lat="46.16787" lon="4.78656">
        <ele>250</ele>
        <time>2019-09-13T13:00:07Z</time>
      </trkpt>
      <trkpt lat="46.16754" lon="4.78692">
        <ele>250.19999694824</ele>
        <time>2019-09-13T13:00:14Z</time>
      </trkpt>
      <trkpt lat="46.16719" lon="4.78726">
        <ele>249.80000305176</ele>
        <time>2019-09-13T13:00:21Z</time>
      </trkpt>
      <trkpt lat="46.16698" lon="4.78767">
        <ele>249.80000305176</ele>
        <time>2019-09-13T13:00:27Z</time>
      </trkpt>
      <trkpt lat="46.16673" lon="4.78815">
        <ele>249.80000305176</ele>
        <time>2019-09-13T13:00:34Z</time>
      </trkpt>
      <trkpt lat="46.16646" lon="4.78871">
        <ele>249.60000610352</ele>
        <time>2019-09-13T13:00:42Z</time>
      </trkpt>
      <trkpt lat="46.16623" lon="4.78915">
        <ele>249.60000610352</ele>
        <time>2019-09-13T13:00:49Z</time>
      </trkpt>
      <trkpt lat="46.16603" lon="4.78954">
        <ele>249.39999389648</ele>
        <time>2019-09-13T13:00:55Z</time>
      </trkpt>
      <trkpt lat="46.16571" lon="4.79012">
        <ele>249.80000305176</ele>
        <time>2019-09-13T13:01:04Z</time>
      </trkpt>
      <trkpt lat="46.16545" lon="4.79054">
        <ele>249.80000305176</ele>
        <time>2019-09-13T13:01:11Z</time>
      </trkpt>
      <trkpt lat="46.16531" lon="4.79091">
        <ele>250</ele>
        <time>2019-09-13T13:01:16Z</time>
      </trkpt>
      <trkpt lat="46.16513" lon="4.79147">
        <ele>250</ele>
        <time>2019-09-13T13:01:24Z</time>
      </trkpt>
      <trkpt lat="46.1651" lon="4.79173">
        <ele>250.19999694824</ele>
        <time>2019-09-13T13:01:29Z</time>
      </trkpt>
      <trkpt lat="46.16513" lon="4.79198">
        <ele>251.19999694824</ele>
        <time>2019-09-13T13:01:34Z</time>
      </trkpt>
      <trkpt lat="46.16509" lon="4.79225">
        <ele>252</ele>
        <time>2019-09-13T13:01:40Z</time>
      </trkpt>
      <trkpt lat="46.16493" lon="4.7925">
        <ele>252</ele>
        <time>2019-09-13T13:01:46Z</time>
      </trkpt>
      <trkpt lat="46.16487" lon="4.79268">
        <ele>250.60000610352</ele>
        <time>2019-09-13T13:01:51Z</time>
      </trkpt>
      <trkpt lat="46.16482" lon="4.79282">
        <ele>250</ele>
        <time>2019-09-13T13:01:54Z</time>
      </trkpt>
      <trkpt lat="46.1648" lon="4.79286">
        <ele>249.80000305176</ele>
        <time>2019-09-13T13:01:55Z</time>
      </trkpt>
      <trkpt lat="46.16475" lon="4.79296">
        <ele>249.80000305176</ele>
        <time>2019-09-13T13:01:57Z</time>
      </trkpt>
      <trkpt lat="46.16455" lon="4.79333">
        <ele>249.39999389648</ele>
        <time>2019-09-13T13:02:05Z</time>
      </trkpt>
      <trkpt lat="46.16431" lon="4.79379">
        <ele>249.39999389648</ele>
        <time>2019-09-13T13:02:14Z</time>
      </trkpt>
      <trkpt lat="46.16423" lon="4.79397">
        <ele>249.39999389648</ele>
        <time>2019-09-13T13:02:17Z</time>
      </trkpt>
      <trkpt lat="46.1642" lon="4.79403">
        <ele>249.39999389648</ele>
        <time>2019-09-13T13:02:18Z</time>
      </trkpt>
      <trkpt lat="46.16411" lon="4.79419">
        <ele>249.39999389648</ele>
        <time>2019-09-13T13:02:21Z</time>
      </trkpt>
      <trkpt lat="46.16408" lon="4.79424">
        <ele>249.60000610352</ele>
        <time>2019-09-13T13:02:22Z</time>
      </trkpt>
      <trkpt lat="46.16397" lon="4.79448">
        <ele>249.39999389648</ele>
        <time>2019-09-13T13:02:26Z</time>
      </trkpt>
      <trkpt lat="46.1637" lon="4.79495">
        <ele>249.39999389648</ele>
        <time>2019-09-13T13:02:34Z</time>
      </trkpt>
      <trkpt lat="46.16348" lon="4.79541">
        <ele>249.39999389648</ele>
        <time>2019-09-13T13:02:41Z</time>
      </trkpt>
      <trkpt lat="46.16346" lon="4.79549">
        <ele>249.60000610352</ele>
        <time>2019-09-13T13:02:42Z</time>
      </trkpt>
      <trkpt lat="46.16341" lon="4.79579">
        <ele>249.60000610352</ele>
        <time>2019-09-13T13:02:46Z</time>
      </trkpt>
      <trkpt lat="46.16339" lon="4.79586">
        <ele>249.60000610352</ele>
        <time>2019-09-13T13:02:47Z</time>
      </trkpt>
      <trkpt lat="46.16324" lon="4.79628">
        <ele>249.60000610352</ele>
        <time>2019-09-13T13:02:53Z</time>
      </trkpt>
      <trkpt lat="46.16303" lon="4.79677">
        <ele>249.80000305176</ele>
        <time>2019-09-13T13:03:00Z</time>
      </trkpt>
      <trkpt lat="46.16283" lon="4.79714">
        <ele>250</ele>
        <time>2019-09-13T13:03:06Z</time>
      </trkpt>
      <trkpt lat="46.16267" lon="4.79745">
        <ele>250</ele>
        <time>2019-09-13T13:03:11Z</time>
      </trkpt>
      <trkpt lat="46.16247" lon="4.79785">
        <ele>250</ele>
        <time>2019-09-13T13:03:17Z</time>
      </trkpt>
      <trkpt lat="46.16219" lon="4.79837">
        <ele>249.80000305176</ele>
        <time>2019-09-13T13:03:25Z</time>
      </trkpt>
      <trkpt lat="46.16201" lon="4.79872">
        <ele>249.80000305176</ele>
        <time>2019-09-13T13:03:31Z</time>
      </trkpt>
      <trkpt lat="46.16178" lon="4.7991">
        <ele>249.80000305176</ele>
        <time>2019-09-13T13:03:37Z</time>
      </trkpt>
      <trkpt lat="46.16156" lon="4.79949">
        <ele>249.60000610352</ele>
        <time>2019-09-13T13:03:43Z</time>
      </trkpt>
      <trkpt lat="46.16128" lon="4.79998">
        <ele>249.60000610352</ele>
        <time>2019-09-13T13:03:50Z</time>
      </trkpt>
      <trkpt lat="46.16103" lon="4.80044">
        <ele>249.60000610352</ele>
        <time>2019-09-13T13:03:57Z</time>
      </trkpt>
      <trkpt lat="46.16084" lon="4.80078">
        <ele>249.80000305176</ele>
        <time>2019-09-13T13:04:03Z</time>
      </trkpt>
      <trkpt lat="46.16069" lon="4.80104">
        <ele>249.80000305176</ele>
        <time>2019-09-13T13:04:09Z</time>
      </trkpt>
      <trkpt lat="46.16064" lon="4.8011">
        <ele>249.60000610352</ele>
        <time>2019-09-13T13:04:11Z</time>
      </trkpt>
      <trkpt lat="46.16058" lon="4.80113">
        <ele>249.60000610352</ele>
        <time>2019-09-13T13:04:13Z</time>
      </trkpt>
      <trkpt lat="46.16043" lon="4.80128">
        <ele>249.60000610352</ele>
        <time>2019-09-13T13:04:18Z</time>
      </trkpt>
      <trkpt lat="46.16033" lon="4.80149">
        <ele>249.60000610352</ele>
        <time>2019-09-13T13:04:23Z</time>
      </trkpt>
      <trkpt lat="46.16019" lon="4.80176">
        <ele>249.60000610352</ele>
        <time>2019-09-13T13:04:29Z</time>
      </trkpt>
      <trkpt lat="46.15998" lon="4.80205">
        <ele>249.60000610352</ele>
        <time>2019-09-13T13:04:35Z</time>
      </trkpt>
      <trkpt lat="46.15973" lon="4.80239">
        <ele>249.60000610352</ele>
        <time>2019-09-13T13:04:42Z</time>
      </trkpt>
      <trkpt lat="46.15953" lon="4.80269">
        <ele>249.60000610352</ele>
        <time>2019-09-13T13:04:48Z</time>
      </trkpt>
      <trkpt lat="46.15936" lon="4.80291">
        <ele>249.80000305176</ele>
        <time>2019-09-13T13:04:53Z</time>
      </trkpt>
      <trkpt lat="46.15933" lon="4.80296">
        <ele>249.80000305176</ele>
        <time>2019-09-13T13:04:54Z</time>
      </trkpt>
      <trkpt lat="46.15914" lon="4.80318">
        <ele>249.80000305176</ele>
        <time>2019-09-13T13:04:59Z</time>
      </trkpt>
      <trkpt lat="46.15907" lon="4.80326">
        <ele>249.80000305176</ele>
        <time>2019-09-13T13:05:01Z</time>
      </trkpt>
      <trkpt lat="46.15887" lon="4.80352">
        <ele>249.80000305176</ele>
        <time>2019-09-13T13:05:07Z</time>
      </trkpt>
      <trkpt lat="46.15863" lon="4.80381">
        <ele>249.80000305176</ele>
        <time>2019-09-13T13:05:14Z</time>
      </trkpt>
      <trkpt lat="46.15832" lon="4.8041">
        <ele>249.80000305176</ele>
        <time>2019-09-13T13:05:21Z</time>
      </trkpt>
      <trkpt lat="46.15799" lon="4.8043">
        <ele>250</ele>
        <time>2019-09-13T13:05:27Z</time>
      </trkpt>
      <trkpt lat="46.15765" lon="4.80443">
        <ele>250</ele>
        <time>2019-09-13T13:05:33Z</time>
      </trkpt>
      <trkpt lat="46.15725" lon="4.80452">
        <ele>250</ele>
        <time>2019-09-13T13:05:40Z</time>
      </trkpt>
      <trkpt lat="46.1569" lon="4.80463">
        <ele>250</ele>
        <time>2019-09-13T13:05:47Z</time>
      </trkpt>
      <trkpt lat="46.1566" lon="4.80472">
        <ele>249.80000305176</ele>
        <time>2019-09-13T13:05:53Z</time>
      </trkpt>
      <trkpt lat="46.1565" lon="4.80475">
        <ele>250.19999694824</ele>
        <time>2019-09-13T13:05:55Z</time>
      </trkpt>
      <trkpt lat="46.1563" lon="4.80481">
        <ele>249.80000305176</ele>
        <time>2019-09-13T13:05:59Z</time>
      </trkpt>
      <trkpt lat="46.15625" lon="4.80483">
        <ele>249.80000305176</ele>
        <time>2019-09-13T13:06:00Z</time>
      </trkpt>
      <trkpt lat="46.15604" lon="4.80491">
        <ele>250</ele>
        <time>2019-09-13T13:06:04Z</time>
      </trkpt>
      <trkpt lat="46.15564" lon="4.80508">
        <ele>250</ele>
        <time>2019-09-13T13:06:12Z</time>
      </trkpt>
      <trkpt lat="46.15558" lon="4.80509">
        <ele>250</ele>
        <time>2019-09-13T13:06:13Z</time>
      </trkpt>
      <trkpt lat="46.15539" lon="4.80511">
        <ele>250</ele>
        <time>2019-09-13T13:06:16Z</time>
      </trkpt>
      <trkpt lat="46.15533" lon="4.80513">
        <ele>250</ele>
        <time>2019-09-13T13:06:17Z</time>
      </trkpt>
      <trkpt lat="46.15506" lon="4.80518">
        <ele>249.80000305176</ele>
        <time>2019-09-13T13:06:22Z</time>
      </trkpt>
      <trkpt lat="46.15466" lon="4.80525">
        <ele>249.80000305176</ele>
        <time>2019-09-13T13:06:29Z</time>
      </trkpt>
      <trkpt lat="46.15427" lon="4.8052">
        <ele>249.80000305176</ele>
        <time>2019-09-13T13:06:35Z</time>
      </trkpt>
      <trkpt lat="46.15398" lon="4.80514">
        <ele>250</ele>
        <time>2019-09-13T13:06:40Z</time>
      </trkpt>
      <trkpt lat="46.15364" lon="4.80505">
        <ele>250</ele>
        <time>2019-09-13T13:06:46Z</time>
      </trkpt>
      <trkpt lat="46.15324" lon="4.80492">
        <ele>250</ele>
        <time>2019-09-13T13:06:53Z</time>
      </trkpt>
      <trkpt lat="46.1529" lon="4.80482">
        <ele>250</ele>
        <time>2019-09-13T13:06:59Z</time>
      </trkpt>
      <trkpt lat="46.15261" lon="4.80472">
        <ele>249.80000305176</ele>
        <time>2019-09-13T13:07:04Z</time>
      </trkpt>
      <trkpt lat="46.15243" lon="4.80467">
        <ele>249.80000305176</ele>
        <time>2019-09-13T13:07:07Z</time>
      </trkpt>
      <trkpt lat="46.15231" lon="4.80467">
        <ele>249.60000610352</ele>
        <time>2019-09-13T13:07:09Z</time>
      </trkpt>
      <trkpt lat="46.15226" lon="4.80465">
        <ele>249.60000610352</ele>
        <time>2019-09-13T13:07:10Z</time>
      </trkpt>
      <trkpt lat="46.1521" lon="4.8046">
        <ele>249.60000610352</ele>
        <time>2019-09-13T13:07:13Z</time>
      </trkpt>
      <trkpt lat="46.152" lon="4.80457">
        <ele>249.60000610352</ele>
        <time>2019-09-13T13:07:15Z</time>
      </trkpt>
      <trkpt lat="46.15165" lon="4.80447">
        <ele>249.60000610352</ele>
        <time>2019-09-13T13:07:21Z</time>
      </trkpt>
      <trkpt lat="46.15114" lon="4.8043">
        <ele>249.39999389648</ele>
        <time>2019-09-13T13:07:30Z</time>
      </trkpt>
      <trkpt lat="46.15094" lon="4.80423">
        <ele>249.39999389648</ele>
        <time>2019-09-13T13:07:34Z</time>
      </trkpt>
      <trkpt lat="46.15085" lon="4.8042">
        <ele>249.39999389648</ele>
        <time>2019-09-13T13:07:36Z</time>
      </trkpt>
      <trkpt lat="46.1508" lon="4.80418">
        <ele>249.39999389648</ele>
        <time>2019-09-13T13:07:37Z</time>
      </trkpt>
      <trkpt lat="46.15059" lon="4.80411">
        <ele>249.60000610352</ele>
        <time>2019-09-13T13:07:41Z</time>
      </trkpt>
      <trkpt lat="46.1502" lon="4.804">
        <ele>249.60000610352</ele>
        <time>2019-09-13T13:07:48Z</time>
      </trkpt>
      <trkpt lat="46.14982" lon="4.80386">
        <ele>249.60000610352</ele>
        <time>2019-09-13T13:07:55Z</time>
      </trkpt>
      <trkpt lat="46.14943" lon="4.80373">
        <ele>249.39999389648</ele>
        <time>2019-09-13T13:08:02Z</time>
      </trkpt>
      <trkpt lat="46.14887" lon="4.80352">
        <ele>249.39999389648</ele>
        <time>2019-09-13T13:08:12Z</time>
      </trkpt>
      <trkpt lat="46.1484" lon="4.80334">
        <ele>249.39999389648</ele>
        <time>2019-09-13T13:08:20Z</time>
      </trkpt>
      <trkpt lat="46.14834" lon="4.80331">
        <ele>249.39999389648</ele>
        <time>2019-09-13T13:08:21Z</time>
      </trkpt>
      <trkpt lat="46.14818" lon="4.80323">
        <ele>249.39999389648</ele>
        <time>2019-09-13T13:08:24Z</time>
      </trkpt>
      <trkpt lat="46.14807" lon="4.80316">
        <ele>249.39999389648</ele>
        <time>2019-09-13T13:08:26Z</time>
      </trkpt>
      <trkpt lat="46.14778" lon="4.80305">
        <ele>249.60000610352</ele>
        <time>2019-09-13T13:08:31Z</time>
      </trkpt>
      <trkpt lat="46.14766" lon="4.80302">
        <ele>249.60000610352</ele>
        <time>2019-09-13T13:08:33Z</time>
      </trkpt>
      <trkpt lat="46.14748" lon="4.80295">
        <ele>249.60000610352</ele>
        <time>2019-09-13T13:08:36Z</time>
      </trkpt>
      <trkpt lat="46.14707" lon="4.80277">
        <ele>249.60000610352</ele>
        <time>2019-09-13T13:08:43Z</time>
      </trkpt>
      <trkpt lat="46.14677" lon="4.80263">
        <ele>249.39999389648</ele>
        <time>2019-09-13T13:08:49Z</time>
      </trkpt>
      <trkpt lat="46.14647" lon="4.80248">
        <ele>249.39999389648</ele>
        <time>2019-09-13T13:08:55Z</time>
      </trkpt>
      <trkpt lat="46.1463" lon="4.80242">
        <ele>249.39999389648</ele>
        <time>2019-09-13T13:08:58Z</time>
      </trkpt>
      <trkpt lat="46.14619" lon="4.80243">
        <ele>249.60000610352</ele>
        <time>2019-09-13T13:09:00Z</time>
      </trkpt>
      <trkpt lat="46.14601" lon="4.80249">
        <ele>249.60000610352</ele>
        <time>2019-09-13T13:09:03Z</time>
      </trkpt>
      <trkpt lat="46.1459" lon="4.80248">
        <ele>249.60000610352</ele>
        <time>2019-09-13T13:09:05Z</time>
      </trkpt>
      <trkpt lat="46.14573" lon="4.80244">
        <ele>249.60000610352</ele>
        <time>2019-09-13T13:09:08Z</time>
      </trkpt>
      <trkpt lat="46.14556" lon="4.80241">
        <ele>249.60000610352</ele>
        <time>2019-09-13T13:09:11Z</time>
      </trkpt>
      <trkpt lat="46.14551" lon="4.8024">
        <ele>249.60000610352</ele>
        <time>2019-09-13T13:09:12Z</time>
      </trkpt>
      <trkpt lat="46.14528" lon="4.80233">
        <ele>249.60000610352</ele>
        <time>2019-09-13T13:09:16Z</time>
      </trkpt>
      <trkpt lat="46.1448" lon="4.80223">
        <ele>249.60000610352</ele>
        <time>2019-09-13T13:09:24Z</time>
      </trkpt>
      <trkpt lat="46.14439" lon="4.80213">
        <ele>249.60000610352</ele>
        <time>2019-09-13T13:09:31Z</time>
      </trkpt>
      <trkpt lat="46.14405" lon="4.80202">
        <ele>249.60000610352</ele>
        <time>2019-09-13T13:09:37Z</time>
      </trkpt>
      <trkpt lat="46.14366" lon="4.80189">
        <ele>249.80000305176</ele>
        <time>2019-09-13T13:09:44Z</time>
      </trkpt>
      <trkpt lat="46.14346" lon="4.80179">
        <ele>250</ele>
        <time>2019-09-13T13:09:48Z</time>
      </trkpt>
      <trkpt lat="46.14335" lon="4.80173">
        <ele>250</ele>
        <time>2019-09-13T13:09:50Z</time>
      </trkpt>
      <trkpt lat="46.14295" lon="4.80152">
        <ele>249.80000305176</ele>
        <time>2019-09-13T13:09:57Z</time>
      </trkpt>
      <trkpt lat="46.14245" lon="4.80123">
        <ele>249.80000305176</ele>
        <time>2019-09-13T13:10:06Z</time>
      </trkpt>
      <trkpt lat="46.14213" lon="4.80102">
        <ele>249.80000305176</ele>
        <time>2019-09-13T13:10:12Z</time>
      </trkpt>
      <trkpt lat="46.14175" lon="4.80077">
        <ele>249.80000305176</ele>
        <time>2019-09-13T13:10:19Z</time>
      </trkpt>
      <trkpt lat="46.1417" lon="4.80073">
        <ele>249.80000305176</ele>
        <time>2019-09-13T13:10:20Z</time>
      </trkpt>
      <trkpt lat="46.14134" lon="4.80043">
        <ele>249.60000610352</ele>
        <time>2019-09-13T13:10:27Z</time>
      </trkpt>
      <trkpt lat="46.14124" lon="4.80035">
        <ele>249.80000305176</ele>
        <time>2019-09-13T13:10:29Z</time>
      </trkpt>
      <trkpt lat="46.14105" lon="4.80018">
        <ele>249.80000305176</ele>
        <time>2019-09-13T13:10:33Z</time>
      </trkpt>
      <trkpt lat="46.14076" lon="4.79987">
        <ele>249.80000305176</ele>
        <time>2019-09-13T13:10:40Z</time>
      </trkpt>
      <trkpt lat="46.14051" lon="4.79958">
        <ele>249.60000610352</ele>
        <time>2019-09-13T13:10:46Z</time>
      </trkpt>
      <trkpt lat="46.1402" lon="4.79927">
        <ele>249.60000610352</ele>
        <time>2019-09-13T13:10:53Z</time>
      </trkpt>
      <trkpt lat="46.13988" lon="4.79891">
        <ele>249.60000610352</ele>
        <time>2019-09-13T13:11:00Z</time>
      </trkpt>
      <trkpt lat="46.13947" lon="4.79846">
        <ele>249.80000305176</ele>
        <time>2019-09-13T13:11:09Z</time>
      </trkpt>
      <trkpt lat="46.13918" lon="4.79815">
        <ele>250</ele>
        <time>2019-09-13T13:11:15Z</time>
      </trkpt>
      <trkpt lat="46.13874" lon="4.7977">
        <ele>249.80000305176</ele>
        <time>2019-09-13T13:11:24Z</time>
      </trkpt>
      <trkpt lat="46.13848" lon="4.79738">
        <ele>249.80000305176</ele>
        <time>2019-09-13T13:11:30Z</time>
      </trkpt>
      <trkpt lat="46.13826" lon="4.7971">
        <ele>249.80000305176</ele>
        <time>2019-09-13T13:11:36Z</time>
      </trkpt>
      <trkpt lat="46.138" lon="4.79682">
        <ele>249.80000305176</ele>
        <time>2019-09-13T13:11:42Z</time>
      </trkpt>
      <trkpt lat="46.13797" lon="4.79677">
        <ele>249.80000305176</ele>
        <time>2019-09-13T13:11:43Z</time>
      </trkpt>
      <trkpt lat="46.13776" lon="4.79655">
        <ele>249.80000305176</ele>
        <time>2019-09-13T13:11:48Z</time>
      </trkpt>
      <trkpt lat="46.13733" lon="4.79609">
        <ele>250</ele>
        <time>2019-09-13T13:11:57Z</time>
      </trkpt>
      <trkpt lat="46.1369" lon="4.79566">
        <ele>250.19999694824</ele>
        <time>2019-09-13T13:12:06Z</time>
      </trkpt>
      <trkpt lat="46.13647" lon="4.79522">
        <ele>250.19999694824</ele>
        <time>2019-09-13T13:12:15Z</time>
      </trkpt>
      <trkpt lat="46.13613" lon="4.79488">
        <ele>250.19999694824</ele>
        <time>2019-09-13T13:12:23Z</time>
      </trkpt>
      <trkpt lat="46.13591" lon="4.79466">
        <ele>249.80000305176</ele>
        <time>2019-09-13T13:12:29Z</time>
      </trkpt>
      <trkpt lat="46.13563" lon="4.79438">
        <ele>249.80000305176</ele>
        <time>2019-09-13T13:12:36Z</time>
      </trkpt>
      <trkpt lat="46.13543" lon="4.79418">
        <ele>250</ele>
        <time>2019-09-13T13:12:41Z</time>
      </trkpt>
      <trkpt lat="46.13514" lon="4.79393">
        <ele>250</ele>
        <time>2019-09-13T13:12:47Z</time>
      </trkpt>
      <trkpt lat="46.13478" lon="4.79359">
        <ele>250</ele>
        <time>2019-09-13T13:12:55Z</time>
      </trkpt>
      <trkpt lat="46.13444" lon="4.79326">
        <ele>250</ele>
        <time>2019-09-13T13:13:03Z</time>
      </trkpt>
      <trkpt lat="46.13415" lon="4.79299">
        <ele>249.80000305176</ele>
        <time>2019-09-13T13:13:10Z</time>
      </trkpt>
      <trkpt lat="46.13383" lon="4.7927">
        <ele>249.80000305176</ele>
        <time>2019-09-13T13:13:17Z</time>
      </trkpt>
      <trkpt lat="46.13379" lon="4.79266">
        <ele>249.80000305176</ele>
        <time>2019-09-13T13:13:18Z</time>
      </trkpt>
      <trkpt lat="46.1335" lon="4.79243">
        <ele>249.80000305176</ele>
        <time>2019-09-13T13:13:25Z</time>
      </trkpt>
      <trkpt lat="46.13319" lon="4.79214">
        <ele>250</ele>
        <time>2019-09-13T13:13:32Z</time>
      </trkpt>
      <trkpt lat="46.13285" lon="4.79183">
        <ele>250.19999694824</ele>
        <time>2019-09-13T13:13:40Z</time>
      </trkpt>
      <trkpt lat="46.13266" lon="4.79164">
        <ele>250.19999694824</ele>
        <time>2019-09-13T13:13:46Z</time>
      </trkpt>
      <trkpt lat="46.13242" lon="4.79135">
        <ele>250</ele>
        <time>2019-09-13T13:13:53Z</time>
      </trkpt>
      <trkpt lat="46.13222" lon="4.79114">
        <ele>250</ele>
        <time>2019-09-13T13:13:59Z</time>
      </trkpt>
      <trkpt lat="46.13199" lon="4.79084">
        <ele>250.19999694824</ele>
        <time>2019-09-13T13:14:05Z</time>
      </trkpt>
      <trkpt lat="46.13174" lon="4.79052">
        <ele>250.19999694824</ele>
        <time>2019-09-13T13:14:12Z</time>
      </trkpt>
      <trkpt lat="46.1314" lon="4.7901">
        <ele>250</ele>
        <time>2019-09-13T13:14:20Z</time>
      </trkpt>
      <trkpt lat="46.13095" lon="4.78956">
        <ele>250</ele>
        <time>2019-09-13T13:14:30Z</time>
      </trkpt>
      <trkpt lat="46.1307" lon="4.78922">
        <ele>250</ele>
        <time>2019-09-13T13:14:36Z</time>
      </trkpt>
      <trkpt lat="46.13041" lon="4.789">
        <ele>250</ele>
        <time>2019-09-13T13:14:42Z</time>
      </trkpt>
      <trkpt lat="46.13015" lon="4.78886">
        <ele>250</ele>
        <time>2019-09-13T13:14:47Z</time>
      </trkpt>
      <trkpt lat="46.1301" lon="4.78881">
        <ele>250.19999694824</ele>
        <time>2019-09-13T13:14:48Z</time>
      </trkpt>
      <trkpt lat="46.12978" lon="4.78846">
        <ele>250.19999694824</ele>
        <time>2019-09-13T13:14:55Z</time>
      </trkpt>
      <trkpt lat="46.12952" lon="4.78813">
        <ele>250</ele>
        <time>2019-09-13T13:15:01Z</time>
      </trkpt>
      <trkpt lat="46.12935" lon="4.78793">
        <ele>250</ele>
        <time>2019-09-13T13:15:05Z</time>
      </trkpt>
      <trkpt lat="46.12932" lon="4.78788">
        <ele>249.80000305176</ele>
        <time>2019-09-13T13:15:06Z</time>
      </trkpt>
      <trkpt lat="46.12904" lon="4.78749">
        <ele>249.80000305176</ele>
        <time>2019-09-13T13:15:13Z</time>
      </trkpt>
      <trkpt lat="46.12873" lon="4.7871">
        <ele>250</ele>
        <time>2019-09-13T13:15:20Z</time>
      </trkpt>
      <trkpt lat="46.12865" lon="4.78698">
        <ele>250</ele>
        <time>2019-09-13T13:15:22Z</time>
      </trkpt>
      <trkpt lat="46.12851" lon="4.78681">
        <ele>250</ele>
        <time>2019-09-13T13:15:25Z</time>
      </trkpt>
      <trkpt lat="46.12843" lon="4.78669">
        <ele>250</ele>
        <time>2019-09-13T13:15:27Z</time>
      </trkpt>
      <trkpt lat="46.12838" lon="4.78663">
        <ele>250</ele>
        <time>2019-09-13T13:15:28Z</time>
      </trkpt>
      <trkpt lat="46.12809" lon="4.78625">
        <ele>249.80000305176</ele>
        <time>2019-09-13T13:15:35Z</time>
      </trkpt>
      <trkpt lat="46.12784" lon="4.78595">
        <ele>249.80000305176</ele>
        <time>2019-09-13T13:15:41Z</time>
      </trkpt>
      <trkpt lat="46.1276" lon="4.78563">
        <ele>249.60000610352</ele>
        <time>2019-09-13T13:15:47Z</time>
      </trkpt>
      <trkpt lat="46.12735" lon="4.78529">
        <ele>249.80000305176</ele>
        <time>2019-09-13T13:15:54Z</time>
      </trkpt>
      <trkpt lat="46.12711" lon="4.78493">
        <ele>249.80000305176</ele>
        <time>2019-09-13T13:16:01Z</time>
      </trkpt>
      <trkpt lat="46.127" lon="4.78477">
        <ele>249.80000305176</ele>
        <time>2019-09-13T13:16:04Z</time>
      </trkpt>
      <trkpt lat="46.12689" lon="4.78464">
        <ele>249.80000305176</ele>
        <time>2019-09-13T13:16:07Z</time>
      </trkpt>
      <trkpt lat="46.12661" lon="4.78428">
        <ele>250</ele>
        <time>2019-09-13T13:16:15Z</time>
      </trkpt>
      <trkpt lat="46.12641" lon="4.784">
        <ele>250</ele>
        <time>2019-09-13T13:16:21Z</time>
      </trkpt>
      <trkpt lat="46.12634" lon="4.7839">
        <ele>250</ele>
        <time>2019-09-13T13:16:23Z</time>
      </trkpt>
      <trkpt lat="46.1262" lon="4.7837">
        <ele>250</ele>
        <time>2019-09-13T13:16:27Z</time>
      </trkpt>
      <trkpt lat="46.12596" lon="4.78335">
        <ele>250</ele>
        <time>2019-09-13T13:16:34Z</time>
      </trkpt>
      <trkpt lat="46.12571" lon="4.78303">
        <ele>249.80000305176</ele>
        <time>2019-09-13T13:16:41Z</time>
      </trkpt>
      <trkpt lat="46.12558" lon="4.78286">
        <ele>249.80000305176</ele>
        <time>2019-09-13T13:16:45Z</time>
      </trkpt>
      <trkpt lat="46.12552" lon="4.78276">
        <ele>249.80000305176</ele>
        <time>2019-09-13T13:16:47Z</time>
      </trkpt>
      <trkpt lat="46.12528" lon="4.78244">
        <ele>250</ele>
        <time>2019-09-13T13:16:54Z</time>
      </trkpt>
      <trkpt lat="46.1251" lon="4.7822">
        <ele>249.80000305176</ele>
        <time>2019-09-13T13:16:59Z</time>
      </trkpt>
      <trkpt lat="46.12506" lon="4.78215">
        <ele>249.80000305176</ele>
        <time>2019-09-13T13:17:00Z</time>
      </trkpt>
      <trkpt lat="46.12482" lon="4.78186">
        <ele>249.80000305176</ele>
        <time>2019-09-13T13:17:06Z</time>
      </trkpt>
      <trkpt lat="46.12468" lon="4.78163">
        <ele>250</ele>
        <time>2019-09-13T13:17:11Z</time>
      </trkpt>
      <trkpt lat="46.12463" lon="4.78157">
        <ele>250</ele>
        <time>2019-09-13T13:17:12Z</time>
      </trkpt>
      <trkpt lat="46.12443" lon="4.78131">
        <ele>249.80000305176</ele>
        <time>2019-09-13T13:17:17Z</time>
      </trkpt>
      <trkpt lat="46.12421" lon="4.78099">
        <ele>249.80000305176</ele>
        <time>2019-09-13T13:17:23Z</time>
      </trkpt>
      <trkpt lat="46.12396" lon="4.78067">
        <ele>250</ele>
        <time>2019-09-13T13:17:29Z</time>
      </trkpt>
      <trkpt lat="46.12392" lon="4.78062">
        <ele>250</ele>
        <time>2019-09-13T13:17:30Z</time>
      </trkpt>
      <trkpt lat="46.12352" lon="4.78021">
        <ele>250.19999694824</ele>
        <time>2019-09-13T13:17:37Z</time>
      </trkpt>
      <trkpt lat="46.12315" lon="4.77983">
        <ele>250.19999694824</ele>
        <time>2019-09-13T13:17:43Z</time>
      </trkpt>
      <trkpt lat="46.12282" lon="4.77951">
        <ele>250.39999389648</ele>
        <time>2019-09-13T13:17:49Z</time>
      </trkpt>
      <trkpt lat="46.12246" lon="4.77912">
        <ele>250.39999389648</ele>
        <time>2019-09-13T13:17:56Z</time>
      </trkpt>
      <trkpt lat="46.1222" lon="4.77876">
        <ele>250.60000610352</ele>
        <time>2019-09-13T13:18:02Z</time>
      </trkpt>
      <trkpt lat="46.12191" lon="4.77831">
        <ele>250.80000305176</ele>
        <time>2019-09-13T13:18:10Z</time>
      </trkpt>
      <trkpt lat="46.12181" lon="4.77814">
        <ele>250.80000305176</ele>
        <time>2019-09-13T13:18:13Z</time>
      </trkpt>
      <trkpt lat="46.12178" lon="4.77809">
        <ele>250.80000305176</ele>
        <time>2019-09-13T13:18:14Z</time>
      </trkpt>
      <trkpt lat="46.12174" lon="4.77804">
        <ele>250.80000305176</ele>
        <time>2019-09-13T13:18:15Z</time>
      </trkpt>
      <trkpt lat="46.12154" lon="4.77789">
        <ele>250.80000305176</ele>
        <time>2019-09-13T13:18:19Z</time>
      </trkpt>
      <trkpt lat="46.12149" lon="4.77786">
        <ele>250.80000305176</ele>
        <time>2019-09-13T13:18:20Z</time>
      </trkpt>
      <trkpt lat="46.12144" lon="4.77783">
        <ele>250.80000305176</ele>
        <time>2019-09-13T13:18:21Z</time>
      </trkpt>
      <trkpt lat="46.12124" lon="4.77764">
        <ele>250.80000305176</ele>
        <time>2019-09-13T13:18:25Z</time>
      </trkpt>
      <trkpt lat="46.12074" lon="4.77717">
        <ele>250.80000305176</ele>
        <time>2019-09-13T13:18:35Z</time>
      </trkpt>
      <trkpt lat="46.12039" lon="4.77684">
        <ele>250.60000610352</ele>
        <time>2019-09-13T13:18:42Z</time>
      </trkpt>
      <trkpt lat="46.12007" lon="4.77664">
        <ele>250.80000305176</ele>
        <time>2019-09-13T13:18:48Z</time>
      </trkpt>
      <trkpt lat="46.11965" lon="4.77641">
        <ele>250.80000305176</ele>
        <time>2019-09-13T13:18:56Z</time>
      </trkpt>
      <trkpt lat="46.11934" lon="4.77627">
        <ele>251</ele>
        <time>2019-09-13T13:19:02Z</time>
      </trkpt>
      <trkpt lat="46.11904" lon="4.7761">
        <ele>250.80000305176</ele>
        <time>2019-09-13T13:19:08Z</time>
      </trkpt>
      <trkpt lat="46.11865" lon="4.77591">
        <ele>251</ele>
        <time>2019-09-13T13:19:16Z</time>
      </trkpt>
      <trkpt lat="46.11821" lon="4.77566">
        <ele>251</ele>
        <time>2019-09-13T13:19:24Z</time>
      </trkpt>
      <trkpt lat="46.11777" lon="4.7754">
        <ele>251</ele>
        <time>2019-09-13T13:19:32Z</time>
      </trkpt>
      <trkpt lat="46.11727" lon="4.77507">
        <ele>251.19999694824</ele>
        <time>2019-09-13T13:19:41Z</time>
      </trkpt>
      <trkpt lat="46.11722" lon="4.77503">
        <ele>251.19999694824</ele>
        <time>2019-09-13T13:19:42Z</time>
      </trkpt>
      <trkpt lat="46.11695" lon="4.77481">
        <ele>251.19999694824</ele>
        <time>2019-09-13T13:19:47Z</time>
      </trkpt>
      <trkpt lat="46.11646" lon="4.77443">
        <ele>251.19999694824</ele>
        <time>2019-09-13T13:19:56Z</time>
      </trkpt>
      <trkpt lat="46.11607" lon="4.77418">
        <ele>251.19999694824</ele>
        <time>2019-09-13T13:20:03Z</time>
      </trkpt>
      <trkpt lat="46.11573" lon="4.77399">
        <ele>251</ele>
        <time>2019-09-13T13:20:09Z</time>
      </trkpt>
      <trkpt lat="46.11567" lon="4.77397">
        <ele>251</ele>
        <time>2019-09-13T13:20:10Z</time>
      </trkpt>
      <trkpt lat="46.11521" lon="4.77375">
        <ele>251</ele>
        <time>2019-09-13T13:20:18Z</time>
      </trkpt>
      <trkpt lat="46.11479" lon="4.7736">
        <ele>251</ele>
        <time>2019-09-13T13:20:25Z</time>
      </trkpt>
      <trkpt lat="46.11439" lon="4.77352">
        <ele>250.80000305176</ele>
        <time>2019-09-13T13:20:32Z</time>
      </trkpt>
      <trkpt lat="46.11433" lon="4.77351">
        <ele>250.80000305176</ele>
        <time>2019-09-13T13:20:33Z</time>
      </trkpt>
      <trkpt lat="46.11405" lon="4.77344">
        <ele>251</ele>
        <time>2019-09-13T13:20:38Z</time>
      </trkpt>
      <trkpt lat="46.11359" lon="4.77335">
        <ele>251</ele>
        <time>2019-09-13T13:20:46Z</time>
      </trkpt>
      <trkpt lat="46.11299" lon="4.77326">
        <ele>251</ele>
        <time>2019-09-13T13:20:56Z</time>
      </trkpt>
      <trkpt lat="46.11245" lon="4.77319">
        <ele>251</ele>
        <time>2019-09-13T13:21:05Z</time>
      </trkpt>
      <trkpt lat="46.11239" lon="4.77318">
        <ele>251</ele>
        <time>2019-09-13T13:21:06Z</time>
      </trkpt>
      <trkpt lat="46.11192" lon="4.77311">
        <ele>251</ele>
        <time>2019-09-13T13:21:14Z</time>
      </trkpt>
      <trkpt lat="46.11151" lon="4.77302">
        <ele>251</ele>
        <time>2019-09-13T13:21:21Z</time>
      </trkpt>
      <trkpt lat="46.11135" lon="4.77296">
        <ele>251</ele>
        <time>2019-09-13T13:21:24Z</time>
      </trkpt>
      <trkpt lat="46.11125" lon="4.77296">
        <ele>251</ele>
        <time>2019-09-13T13:21:26Z</time>
      </trkpt>
      <trkpt lat="46.11105" lon="4.77288">
        <ele>251</ele>
        <time>2019-09-13T13:21:30Z</time>
      </trkpt>
      <trkpt lat="46.11099" lon="4.77287">
        <ele>251.19999694824</ele>
        <time>2019-09-13T13:21:31Z</time>
      </trkpt>
      <trkpt lat="46.11077" lon="4.77288">
        <ele>251.19999694824</ele>
        <time>2019-09-13T13:21:35Z</time>
      </trkpt>
      <trkpt lat="46.11071" lon="4.77288">
        <ele>251.19999694824</ele>
        <time>2019-09-13T13:21:36Z</time>
      </trkpt>
      <trkpt lat="46.11062" lon="4.77284">
        <ele>251.19999694824</ele>
        <time>2019-09-13T13:21:38Z</time>
      </trkpt>
      <trkpt lat="46.11048" lon="4.77268">
        <ele>251.19999694824</ele>
        <time>2019-09-13T13:21:42Z</time>
      </trkpt>
      <trkpt lat="46.11034" lon="4.77254">
        <ele>251.19999694824</ele>
        <time>2019-09-13T13:21:45Z</time>
      </trkpt>
      <trkpt lat="46.11029" lon="4.77249">
        <ele>251.19999694824</ele>
        <time>2019-09-13T13:21:46Z</time>
      </trkpt>
      <trkpt lat="46.10984" lon="4.77211">
        <ele>251.39999389648</ele>
        <time>2019-09-13T13:21:55Z</time>
      </trkpt>
      <trkpt lat="46.10959" lon="4.77187">
        <ele>251.19999694824</ele>
        <time>2019-09-13T13:22:00Z</time>
      </trkpt>
      <trkpt lat="46.10945" lon="4.77173">
        <ele>251.19999694824</ele>
        <time>2019-09-13T13:22:03Z</time>
      </trkpt>
      <trkpt lat="46.1091" lon="4.77133">
        <ele>251.19999694824</ele>
        <time>2019-09-13T13:22:11Z</time>
      </trkpt>
      <trkpt lat="46.10902" lon="4.77123">
        <ele>251.19999694824</ele>
        <time>2019-09-13T13:22:13Z</time>
      </trkpt>
      <trkpt lat="46.10885" lon="4.77102">
        <ele>251.19999694824</ele>
        <time>2019-09-13T13:22:17Z</time>
      </trkpt>
      <trkpt lat="46.10874" lon="4.77083">
        <ele>251</ele>
        <time>2019-09-13T13:22:20Z</time>
      </trkpt>
      <trkpt lat="46.10868" lon="4.77071">
        <ele>251</ele>
        <time>2019-09-13T13:22:22Z</time>
      </trkpt>
      <trkpt lat="46.10849" lon="4.77046">
        <ele>250.80000305176</ele>
        <time>2019-09-13T13:22:27Z</time>
      </trkpt>
      <trkpt lat="46.10824" lon="4.77011">
        <ele>251</ele>
        <time>2019-09-13T13:22:34Z</time>
      </trkpt>
      <trkpt lat="46.10799" lon="4.7698">
        <ele>251</ele>
        <time>2019-09-13T13:22:40Z</time>
      </trkpt>
      <trkpt lat="46.1077" lon="4.76945">
        <ele>251.19999694824</ele>
        <time>2019-09-13T13:22:47Z</time>
      </trkpt>
      <trkpt lat="46.10743" lon="4.76918">
        <ele>251.19999694824</ele>
        <time>2019-09-13T13:22:53Z</time>
      </trkpt>
      <trkpt lat="46.10734" lon="4.7691">
        <ele>251.19999694824</ele>
        <time>2019-09-13T13:22:55Z</time>
      </trkpt>
      <trkpt lat="46.10719" lon="4.76895">
        <ele>251.19999694824</ele>
        <time>2019-09-13T13:22:58Z</time>
      </trkpt>
      <trkpt lat="46.10683" lon="4.76857">
        <ele>251.19999694824</ele>
        <time>2019-09-13T13:23:05Z</time>
      </trkpt>
      <trkpt lat="46.10649" lon="4.76824">
        <ele>251</ele>
        <time>2019-09-13T13:23:12Z</time>
      </trkpt>
      <trkpt lat="46.10627" lon="4.76801">
        <ele>251</ele>
        <time>2019-09-13T13:23:18Z</time>
      </trkpt>
      <trkpt lat="46.10599" lon="4.76774">
        <ele>251.19999694824</ele>
        <time>2019-09-13T13:23:25Z</time>
      </trkpt>
      <trkpt lat="46.10575" lon="4.7675">
        <ele>251.19999694824</ele>
        <time>2019-09-13T13:23:30Z</time>
      </trkpt>
      <trkpt lat="46.10544" lon="4.7672">
        <ele>251.19999694824</ele>
        <time>2019-09-13T13:23:36Z</time>
      </trkpt>
      <trkpt lat="46.10512" lon="4.76688">
        <ele>251.19999694824</ele>
        <time>2019-09-13T13:23:42Z</time>
      </trkpt>
      <trkpt lat="46.10482" lon="4.76658">
        <ele>251</ele>
        <time>2019-09-13T13:23:48Z</time>
      </trkpt>
      <trkpt lat="46.1046" lon="4.7664">
        <ele>251</ele>
        <time>2019-09-13T13:23:53Z</time>
      </trkpt>
      <trkpt lat="46.10437" lon="4.76614">
        <ele>251.19999694824</ele>
        <time>2019-09-13T13:23:59Z</time>
      </trkpt>
      <trkpt lat="46.10412" lon="4.76588">
        <ele>251.39999389648</ele>
        <time>2019-09-13T13:24:05Z</time>
      </trkpt>
      <trkpt lat="46.10377" lon="4.76555">
        <ele>251.39999389648</ele>
        <time>2019-09-13T13:24:11Z</time>
      </trkpt>
      <trkpt lat="46.10329" lon="4.76507">
        <ele>251.39999389648</ele>
        <time>2019-09-13T13:24:20Z</time>
      </trkpt>
      <trkpt lat="46.10324" lon="4.76501">
        <ele>251.39999389648</ele>
        <time>2019-09-13T13:24:21Z</time>
      </trkpt>
      <trkpt lat="46.10288" lon="4.76462">
        <ele>251.39999389648</ele>
        <time>2019-09-13T13:24:28Z</time>
      </trkpt>
      <trkpt lat="46.10263" lon="4.76422">
        <ele>251.39999389648</ele>
        <time>2019-09-13T13:24:34Z</time>
      </trkpt>
      <trkpt lat="46.10238" lon="4.76369">
        <ele>251.19999694824</ele>
        <time>2019-09-13T13:24:42Z</time>
      </trkpt>
      <trkpt lat="46.10229" lon="4.76351">
        <ele>251.19999694824</ele>
        <time>2019-09-13T13:24:45Z</time>
      </trkpt>
      <trkpt lat="46.10225" lon="4.76339">
        <ele>251.19999694824</ele>
        <time>2019-09-13T13:24:47Z</time>
      </trkpt>
      <trkpt lat="46.10212" lon="4.76302">
        <ele>251.19999694824</ele>
        <time>2019-09-13T13:24:54Z</time>
      </trkpt>
      <trkpt lat="46.10206" lon="4.7629">
        <ele>251.19999694824</ele>
        <time>2019-09-13T13:24:59Z</time>
      </trkpt>
      <trkpt lat="46.10206" lon="4.7629">
        <ele>251.19999694824</ele>
        <time>2019-09-13T13:25:01Z</time>
      </trkpt>
      <trkpt lat="46.10208" lon="4.76292">
        <ele>252.80000305176</ele>
        <time>2019-09-13T13:56:25Z</time>
      </trkpt>
      <trkpt lat="46.10203" lon="4.76291">
        <ele>252.80000305176</ele>
        <time>2019-09-13T13:56:27Z</time>
      </trkpt>
      <trkpt lat="46.10192" lon="4.76296">
        <ele>253</ele>
        <time>2019-09-13T13:56:30Z</time>
      </trkpt>
      <trkpt lat="46.10184" lon="4.76297">
        <ele>252.80000305176</ele>
        <time>2019-09-13T13:56:32Z</time>
      </trkpt>
      <trkpt lat="46.10175" lon="4.76293">
        <ele>252.80000305176</ele>
        <time>2019-09-13T13:56:34Z</time>
      </trkpt>
      <trkpt lat="46.10154" lon="4.76284">
        <ele>252.80000305176</ele>
        <time>2019-09-13T13:56:39Z</time>
      </trkpt>
      <trkpt lat="46.10136" lon="4.76276">
        <ele>252.80000305176</ele>
        <time>2019-09-13T13:56:43Z</time>
      </trkpt>
      <trkpt lat="46.10127" lon="4.7627">
        <ele>252.80000305176</ele>
        <time>2019-09-13T13:56:45Z</time>
      </trkpt>
      <trkpt lat="46.10105" lon="4.76253">
        <ele>253</ele>
        <time>2019-09-13T13:56:50Z</time>
      </trkpt>
      <trkpt lat="46.10096" lon="4.76246">
        <ele>253.19999694824</ele>
        <time>2019-09-13T13:56:52Z</time>
      </trkpt>
      <trkpt lat="46.10074" lon="4.76218">
        <ele>253.19999694824</ele>
        <time>2019-09-13T13:56:58Z</time>
      </trkpt>
      <trkpt lat="46.10045" lon="4.76188">
        <ele>253.19999694824</ele>
        <time>2019-09-13T13:57:05Z</time>
      </trkpt>
      <trkpt lat="46.10041" lon="4.76185">
        <ele>253.19999694824</ele>
        <time>2019-09-13T13:57:06Z</time>
      </trkpt>
      <trkpt lat="46.10028" lon="4.76174">
        <ele>253.19999694824</ele>
        <time>2019-09-13T13:57:09Z</time>
      </trkpt>
      <trkpt lat="46.10017" lon="4.76159">
        <ele>252.80000305176</ele>
        <time>2019-09-13T13:57:12Z</time>
      </trkpt>
      <trkpt lat="46.09997" lon="4.76134">
        <ele>252.80000305176</ele>
        <time>2019-09-13T13:57:17Z</time>
      </trkpt>
      <trkpt lat="46.09993" lon="4.76129">
        <ele>252.80000305176</ele>
        <time>2019-09-13T13:57:18Z</time>
      </trkpt>
      <trkpt lat="46.09966" lon="4.76101">
        <ele>252.80000305176</ele>
        <time>2019-09-13T13:57:24Z</time>
      </trkpt>
      <trkpt lat="46.09932" lon="4.76064">
        <ele>252.80000305176</ele>
        <time>2019-09-13T13:57:32Z</time>
      </trkpt>
      <trkpt lat="46.09928" lon="4.76059">
        <ele>252.80000305176</ele>
        <time>2019-09-13T13:57:33Z</time>
      </trkpt>
      <trkpt lat="46.09901" lon="4.76022">
        <ele>252.80000305176</ele>
        <time>2019-09-13T13:57:40Z</time>
      </trkpt>
      <trkpt lat="46.09882" lon="4.76">
        <ele>252.80000305176</ele>
        <time>2019-09-13T13:57:45Z</time>
      </trkpt>
      <trkpt lat="46.09879" lon="4.75996">
        <ele>252.80000305176</ele>
        <time>2019-09-13T13:57:46Z</time>
      </trkpt>
      <trkpt lat="46.09868" lon="4.75982">
        <ele>252.80000305176</ele>
        <time>2019-09-13T13:57:49Z</time>
      </trkpt>
      <trkpt lat="46.0986" lon="4.75973">
        <ele>252.80000305176</ele>
        <time>2019-09-13T13:57:51Z</time>
      </trkpt>
      <trkpt lat="46.09852" lon="4.75965">
        <ele>252.80000305176</ele>
        <time>2019-09-13T13:57:53Z</time>
      </trkpt>
      <trkpt lat="46.09839" lon="4.75952">
        <ele>252.80000305176</ele>
        <time>2019-09-13T13:57:56Z</time>
      </trkpt>
      <trkpt lat="46.09806" lon="4.75918">
        <ele>252.60000610352</ele>
        <time>2019-09-13T13:58:04Z</time>
      </trkpt>
      <trkpt lat="46.09777" lon="4.75889">
        <ele>253</ele>
        <time>2019-09-13T13:58:11Z</time>
      </trkpt>
      <trkpt lat="46.09769" lon="4.75882">
        <ele>253</ele>
        <time>2019-09-13T13:58:13Z</time>
      </trkpt>
      <trkpt lat="46.09753" lon="4.75865">
        <ele>253</ele>
        <time>2019-09-13T13:58:17Z</time>
      </trkpt>
      <trkpt lat="46.09735" lon="4.75849">
        <ele>253.19999694824</ele>
        <time>2019-09-13T13:58:21Z</time>
      </trkpt>
      <trkpt lat="46.09722" lon="4.75834">
        <ele>253.39999389648</ele>
        <time>2019-09-13T13:58:24Z</time>
      </trkpt>
      <trkpt lat="46.09703" lon="4.75816">
        <ele>253.39999389648</ele>
        <time>2019-09-13T13:58:28Z</time>
      </trkpt>
      <trkpt lat="46.09685" lon="4.75798">
        <ele>253.39999389648</ele>
        <time>2019-09-13T13:58:32Z</time>
      </trkpt>
      <trkpt lat="46.0968" lon="4.75794">
        <ele>253.39999389648</ele>
        <time>2019-09-13T13:58:33Z</time>
      </trkpt>
      <trkpt lat="46.09671" lon="4.75786">
        <ele>253.39999389648</ele>
        <time>2019-09-13T13:58:35Z</time>
      </trkpt>
      <trkpt lat="46.09662" lon="4.75779">
        <ele>253.39999389648</ele>
        <time>2019-09-13T13:58:37Z</time>
      </trkpt>
      <trkpt lat="46.09657" lon="4.75774">
        <ele>253.39999389648</ele>
        <time>2019-09-13T13:58:38Z</time>
      </trkpt>
      <trkpt lat="46.09648" lon="4.75766">
        <ele>253.39999389648</ele>
        <time>2019-09-13T13:58:40Z</time>
      </trkpt>
      <trkpt lat="46.09629" lon="4.75751">
        <ele>253.39999389648</ele>
        <time>2019-09-13T13:58:44Z</time>
      </trkpt>
      <trkpt lat="46.09579" lon="4.75715">
        <ele>253</ele>
        <time>2019-09-13T13:58:54Z</time>
      </trkpt>
      <trkpt lat="46.09574" lon="4.75711">
        <ele>253</ele>
        <time>2019-09-13T13:58:55Z</time>
      </trkpt>
      <trkpt lat="46.09558" lon="4.75703">
        <ele>253</ele>
        <time>2019-09-13T13:58:58Z</time>
      </trkpt>
      <trkpt lat="46.09548" lon="4.75698">
        <ele>253</ele>
        <time>2019-09-13T13:59:00Z</time>
      </trkpt>
      <trkpt lat="46.0954" lon="4.75691">
        <ele>253</ele>
        <time>2019-09-13T13:59:02Z</time>
      </trkpt>
      <trkpt lat="46.0952" lon="4.75679">
        <ele>253</ele>
        <time>2019-09-13T13:59:06Z</time>
      </trkpt>
      <trkpt lat="46.09501" lon="4.75668">
        <ele>253</ele>
        <time>2019-09-13T13:59:10Z</time>
      </trkpt>
      <trkpt lat="46.09493" lon="4.75664">
        <ele>253.19999694824</ele>
        <time>2019-09-13T13:59:12Z</time>
      </trkpt>
      <trkpt lat="46.09465" lon="4.75651">
        <ele>253</ele>
        <time>2019-09-13T13:59:18Z</time>
      </trkpt>
      <trkpt lat="46.09436" lon="4.75633">
        <ele>253</ele>
        <time>2019-09-13T13:59:24Z</time>
      </trkpt>
      <trkpt lat="46.09426" lon="4.75626">
        <ele>253</ele>
        <time>2019-09-13T13:59:26Z</time>
      </trkpt>
      <trkpt lat="46.09403" lon="4.75611">
        <ele>253.19999694824</ele>
        <time>2019-09-13T13:59:31Z</time>
      </trkpt>
      <trkpt lat="46.09362" lon="4.7559">
        <ele>253</ele>
        <time>2019-09-13T13:59:39Z</time>
      </trkpt>
      <trkpt lat="46.09353" lon="4.75584">
        <ele>253</ele>
        <time>2019-09-13T13:59:41Z</time>
      </trkpt>
      <trkpt lat="46.09335" lon="4.75575">
        <ele>253</ele>
        <time>2019-09-13T13:59:45Z</time>
      </trkpt>
      <trkpt lat="46.09316" lon="4.75566">
        <ele>253.19999694824</ele>
        <time>2019-09-13T13:59:49Z</time>
      </trkpt>
      <trkpt lat="46.093" lon="4.7556">
        <ele>253.19999694824</ele>
        <time>2019-09-13T13:59:52Z</time>
      </trkpt>
      <trkpt lat="46.09272" lon="4.75549">
        <ele>253.19999694824</ele>
        <time>2019-09-13T13:59:58Z</time>
      </trkpt>
      <trkpt lat="46.09237" lon="4.75533">
        <ele>253.19999694824</ele>
        <time>2019-09-13T14:00:05Z</time>
      </trkpt>
      <trkpt lat="46.09198" lon="4.75519">
        <ele>253.19999694824</ele>
        <time>2019-09-13T14:00:12Z</time>
      </trkpt>
      <trkpt lat="46.09153" lon="4.755">
        <ele>253.39999389648</ele>
        <time>2019-09-13T14:00:20Z</time>
      </trkpt>
      <trkpt lat="46.09109" lon="4.75481">
        <ele>253.39999389648</ele>
        <time>2019-09-13T14:00:28Z</time>
      </trkpt>
      <trkpt lat="46.09098" lon="4.75476">
        <ele>253.39999389648</ele>
        <time>2019-09-13T14:00:30Z</time>
      </trkpt>
      <trkpt lat="46.09069" lon="4.75465">
        <ele>253.60000610352</ele>
        <time>2019-09-13T14:00:35Z</time>
      </trkpt>
      <trkpt lat="46.09064" lon="4.75462">
        <ele>253.39999389648</ele>
        <time>2019-09-13T14:00:36Z</time>
      </trkpt>
      <trkpt lat="46.09019" lon="4.75444">
        <ele>253.39999389648</ele>
        <time>2019-09-13T14:00:44Z</time>
      </trkpt>
      <trkpt lat="46.08975" lon="4.75426">
        <ele>253.39999389648</ele>
        <time>2019-09-13T14:00:52Z</time>
      </trkpt>
      <trkpt lat="46.08947" lon="4.75415">
        <ele>253.19999694824</ele>
        <time>2019-09-13T14:00:57Z</time>
      </trkpt>
      <trkpt lat="46.08897" lon="4.7539">
        <ele>253.19999694824</ele>
        <time>2019-09-13T14:01:06Z</time>
      </trkpt>
      <trkpt lat="46.08886" lon="4.75385">
        <ele>253.19999694824</ele>
        <time>2019-09-13T14:01:08Z</time>
      </trkpt>
      <trkpt lat="46.08876" lon="4.7538">
        <ele>253.19999694824</ele>
        <time>2019-09-13T14:01:10Z</time>
      </trkpt>
      <trkpt lat="46.08865" lon="4.75375">
        <ele>253.19999694824</ele>
        <time>2019-09-13T14:01:12Z</time>
      </trkpt>
      <trkpt lat="46.08854" lon="4.75371">
        <ele>253.19999694824</ele>
        <time>2019-09-13T14:01:14Z</time>
      </trkpt>
      <trkpt lat="46.08839" lon="4.75365">
        <ele>253.19999694824</ele>
        <time>2019-09-13T14:01:17Z</time>
      </trkpt>
      <trkpt lat="46.08802" lon="4.75352">
        <ele>253.19999694824</ele>
        <time>2019-09-13T14:01:24Z</time>
      </trkpt>
      <trkpt lat="46.08767" lon="4.75341">
        <ele>253.19999694824</ele>
        <time>2019-09-13T14:01:30Z</time>
      </trkpt>
      <trkpt lat="46.08739" lon="4.75333">
        <ele>253</ele>
        <time>2019-09-13T14:01:35Z</time>
      </trkpt>
      <trkpt lat="46.08698" lon="4.7532">
        <ele>253</ele>
        <time>2019-09-13T14:01:42Z</time>
      </trkpt>
      <trkpt lat="46.08657" lon="4.75312">
        <ele>253</ele>
        <time>2019-09-13T14:01:49Z</time>
      </trkpt>
      <trkpt lat="46.08618" lon="4.75304">
        <ele>252.80000305176</ele>
        <time>2019-09-13T14:01:56Z</time>
      </trkpt>
      <trkpt lat="46.08587" lon="4.753">
        <ele>253</ele>
        <time>2019-09-13T14:02:02Z</time>
      </trkpt>
      <trkpt lat="46.08577" lon="4.75299">
        <ele>253</ele>
        <time>2019-09-13T14:02:04Z</time>
      </trkpt>
      <trkpt lat="46.08549" lon="4.75298">
        <ele>253</ele>
        <time>2019-09-13T14:02:09Z</time>
      </trkpt>
      <trkpt lat="46.08511" lon="4.75296">
        <ele>253.19999694824</ele>
        <time>2019-09-13T14:02:16Z</time>
      </trkpt>
      <trkpt lat="46.08464" lon="4.75297">
        <ele>253</ele>
        <time>2019-09-13T14:02:24Z</time>
      </trkpt>
      <trkpt lat="46.08425" lon="4.75301">
        <ele>253</ele>
        <time>2019-09-13T14:02:31Z</time>
      </trkpt>
      <trkpt lat="46.08378" lon="4.75305">
        <ele>253.19999694824</ele>
        <time>2019-09-13T14:02:39Z</time>
      </trkpt>
      <trkpt lat="46.08337" lon="4.7531">
        <ele>253.19999694824</ele>
        <time>2019-09-13T14:02:46Z</time>
      </trkpt>
      <trkpt lat="46.08296" lon="4.75319">
        <ele>253</ele>
        <time>2019-09-13T14:02:53Z</time>
      </trkpt>
      <trkpt lat="46.0827" lon="4.75338">
        <ele>253</ele>
        <time>2019-09-13T14:02:58Z</time>
      </trkpt>
      <trkpt lat="46.08244" lon="4.75369">
        <ele>253.19999694824</ele>
        <time>2019-09-13T14:03:04Z</time>
      </trkpt>
      <trkpt lat="46.0824" lon="4.75375">
        <ele>253.19999694824</ele>
        <time>2019-09-13T14:03:05Z</time>
      </trkpt>
      <trkpt lat="46.08236" lon="4.75381">
        <ele>253.19999694824</ele>
        <time>2019-09-13T14:03:06Z</time>
      </trkpt>
      <trkpt lat="46.0821" lon="4.75421">
        <ele>253.39999389648</ele>
        <time>2019-09-13T14:03:13Z</time>
      </trkpt>
      <trkpt lat="46.08203" lon="4.75431">
        <ele>253.39999389648</ele>
        <time>2019-09-13T14:03:15Z</time>
      </trkpt>
      <trkpt lat="46.08193" lon="4.75445">
        <ele>253.39999389648</ele>
        <time>2019-09-13T14:03:18Z</time>
      </trkpt>
      <trkpt lat="46.08191" lon="4.7545">
        <ele>253.39999389648</ele>
        <time>2019-09-13T14:03:19Z</time>
      </trkpt>
      <trkpt lat="46.08176" lon="4.7547">
        <ele>253.39999389648</ele>
        <time>2019-09-13T14:03:23Z</time>
      </trkpt>
      <trkpt lat="46.08172" lon="4.75475">
        <ele>253.19999694824</ele>
        <time>2019-09-13T14:03:24Z</time>
      </trkpt>
      <trkpt lat="46.08159" lon="4.75488">
        <ele>253.19999694824</ele>
        <time>2019-09-13T14:03:27Z</time>
      </trkpt>
      <trkpt lat="46.0815" lon="4.75498">
        <ele>253.19999694824</ele>
        <time>2019-09-13T14:03:29Z</time>
      </trkpt>
      <trkpt lat="46.08109" lon="4.75538">
        <ele>253.19999694824</ele>
        <time>2019-09-13T14:03:38Z</time>
      </trkpt>
      <trkpt lat="46.0808" lon="4.75565">
        <ele>253.19999694824</ele>
        <time>2019-09-13T14:03:45Z</time>
      </trkpt>
      <trkpt lat="46.08078" lon="4.7557">
        <ele>253.19999694824</ele>
        <time>2019-09-13T14:03:47Z</time>
      </trkpt>
      <trkpt lat="46.08078" lon="4.75572">
        <ele>253.19999694824</ele>
        <time>2019-09-13T14:03:48Z</time>
      </trkpt>
      <trkpt lat="46.08077" lon="4.75579">
        <ele>252.80000305176</ele>
        <time>2019-09-13T14:03:52Z</time>
      </trkpt>
      <trkpt lat="46.08068" lon="4.75585">
        <ele>252.80000305176</ele>
        <time>2019-09-13T14:03:55Z</time>
      </trkpt>
      <trkpt lat="46.08064" lon="4.75587">
        <ele>252.80000305176</ele>
        <time>2019-09-13T14:03:56Z</time>
      </trkpt>
      <trkpt lat="46.0806" lon="4.7559">
        <ele>252.80000305176</ele>
        <time>2019-09-13T14:03:57Z</time>
      </trkpt>
      <trkpt lat="46.08043" lon="4.75608">
        <ele>252.80000305176</ele>
        <time>2019-09-13T14:04:01Z</time>
      </trkpt>
      <trkpt lat="46.0802" lon="4.75631">
        <ele>252.80000305176</ele>
        <time>2019-09-13T14:04:06Z</time>
      </trkpt>
      <trkpt lat="46.08016" lon="4.75637">
        <ele>252.80000305176</ele>
        <time>2019-09-13T14:04:07Z</time>
      </trkpt>
      <trkpt lat="46.08013" lon="4.75643">
        <ele>252.80000305176</ele>
        <time>2019-09-13T14:04:08Z</time>
      </trkpt>
      <trkpt lat="46.08005" lon="4.75654">
        <ele>252.80000305176</ele>
        <time>2019-09-13T14:04:10Z</time>
      </trkpt>
      <trkpt lat="46.07991" lon="4.75667">
        <ele>252.80000305176</ele>
        <time>2019-09-13T14:04:13Z</time>
      </trkpt>
      <trkpt lat="46.07953" lon="4.75705">
        <ele>253.39999389648</ele>
        <time>2019-09-13T14:04:21Z</time>
      </trkpt>
      <trkpt lat="46.07914" lon="4.75742">
        <ele>253.39999389648</ele>
        <time>2019-09-13T14:04:29Z</time>
      </trkpt>
      <trkpt lat="46.07895" lon="4.7576">
        <ele>253.60000610352</ele>
        <time>2019-09-13T14:04:33Z</time>
      </trkpt>
      <trkpt lat="46.07885" lon="4.75769">
        <ele>253.60000610352</ele>
        <time>2019-09-13T14:04:35Z</time>
      </trkpt>
      <trkpt lat="46.0788" lon="4.75774">
        <ele>253.60000610352</ele>
        <time>2019-09-13T14:04:36Z</time>
      </trkpt>
      <trkpt lat="46.07833" lon="4.75822">
        <ele>253.60000610352</ele>
        <time>2019-09-13T14:04:46Z</time>
      </trkpt>
      <trkpt lat="46.07829" lon="4.75827">
        <ele>253.80000305176</ele>
        <time>2019-09-13T14:04:47Z</time>
      </trkpt>
      <trkpt lat="46.07819" lon="4.75836">
        <ele>253.60000610352</ele>
        <time>2019-09-13T14:04:49Z</time>
      </trkpt>
      <trkpt lat="46.07806" lon="4.75851">
        <ele>253.80000305176</ele>
        <time>2019-09-13T14:04:52Z</time>
      </trkpt>
      <trkpt lat="46.07766" lon="4.75889">
        <ele>253.80000305176</ele>
        <time>2019-09-13T14:05:00Z</time>
      </trkpt>
      <trkpt lat="46.07719" lon="4.75927">
        <ele>253.60000610352</ele>
        <time>2019-09-13T14:05:09Z</time>
      </trkpt>
      <trkpt lat="46.07667" lon="4.75968">
        <ele>253.60000610352</ele>
        <time>2019-09-13T14:05:19Z</time>
      </trkpt>
      <trkpt lat="46.07662" lon="4.75972">
        <ele>253.60000610352</ele>
        <time>2019-09-13T14:05:20Z</time>
      </trkpt>
      <trkpt lat="46.07636" lon="4.7599">
        <ele>253.80000305176</ele>
        <time>2019-09-13T14:05:25Z</time>
      </trkpt>
      <trkpt lat="46.07631" lon="4.75992">
        <ele>253.80000305176</ele>
        <time>2019-09-13T14:05:26Z</time>
      </trkpt>
      <trkpt lat="46.0762" lon="4.76">
        <ele>253.80000305176</ele>
        <time>2019-09-13T14:05:29Z</time>
      </trkpt>
      <trkpt lat="46.07617" lon="4.76004">
        <ele>253.80000305176</ele>
        <time>2019-09-13T14:05:30Z</time>
      </trkpt>
      <trkpt lat="46.07602" lon="4.76018">
        <ele>254</ele>
        <time>2019-09-13T14:05:34Z</time>
      </trkpt>
      <trkpt lat="46.07598" lon="4.76022">
        <ele>254</ele>
        <time>2019-09-13T14:05:35Z</time>
      </trkpt>
      <trkpt lat="46.07589" lon="4.76028">
        <ele>254.39999389648</ele>
        <time>2019-09-13T14:05:37Z</time>
      </trkpt>
      <trkpt lat="46.07577" lon="4.76036">
        <ele>254.60000610352</ele>
        <time>2019-09-13T14:05:40Z</time>
      </trkpt>
      <trkpt lat="46.07573" lon="4.76039">
        <ele>254.60000610352</ele>
        <time>2019-09-13T14:05:41Z</time>
      </trkpt>
      <trkpt lat="46.07544" lon="4.76057">
        <ele>254.60000610352</ele>
        <time>2019-09-13T14:05:47Z</time>
      </trkpt>
      <trkpt lat="46.07514" lon="4.76069">
        <ele>254.39999389648</ele>
        <time>2019-09-13T14:05:53Z</time>
      </trkpt>
      <trkpt lat="46.07493" lon="4.76075">
        <ele>254.39999389648</ele>
        <time>2019-09-13T14:05:57Z</time>
      </trkpt>
      <trkpt lat="46.07483" lon="4.7608">
        <ele>254.60000610352</ele>
        <time>2019-09-13T14:05:59Z</time>
      </trkpt>
      <trkpt lat="46.07451" lon="4.76095">
        <ele>254.60000610352</ele>
        <time>2019-09-13T14:06:05Z</time>
      </trkpt>
      <trkpt lat="46.07423" lon="4.76106">
        <ele>254.80000305176</ele>
        <time>2019-09-13T14:06:10Z</time>
      </trkpt>
      <trkpt lat="46.07418" lon="4.76108">
        <ele>254.80000305176</ele>
        <time>2019-09-13T14:06:11Z</time>
      </trkpt>
      <trkpt lat="46.07374" lon="4.76124">
        <ele>254.39999389648</ele>
        <time>2019-09-13T14:06:19Z</time>
      </trkpt>
      <trkpt lat="46.0735" lon="4.76134">
        <ele>254.39999389648</ele>
        <time>2019-09-13T14:06:25Z</time>
      </trkpt>
      <trkpt lat="46.07341" lon="4.76137">
        <ele>254.39999389648</ele>
        <time>2019-09-13T14:06:27Z</time>
      </trkpt>
      <trkpt lat="46.07329" lon="4.76141">
        <ele>254.39999389648</ele>
        <time>2019-09-13T14:06:29Z</time>
      </trkpt>
      <trkpt lat="46.07323" lon="4.76142">
        <ele>254.39999389648</ele>
        <time>2019-09-13T14:06:30Z</time>
      </trkpt>
      <trkpt lat="46.07293" lon="4.76153">
        <ele>254.39999389648</ele>
        <time>2019-09-13T14:06:35Z</time>
      </trkpt>
      <trkpt lat="46.07258" lon="4.76167">
        <ele>254.19999694824</ele>
        <time>2019-09-13T14:06:41Z</time>
      </trkpt>
      <trkpt lat="46.07229" lon="4.76178">
        <ele>254.19999694824</ele>
        <time>2019-09-13T14:06:46Z</time>
      </trkpt>
      <trkpt lat="46.07224" lon="4.7618">
        <ele>254.19999694824</ele>
        <time>2019-09-13T14:06:47Z</time>
      </trkpt>
      <trkpt lat="46.07188" lon="4.76198">
        <ele>254.19999694824</ele>
        <time>2019-09-13T14:06:54Z</time>
      </trkpt>
      <trkpt lat="46.07144" lon="4.76221">
        <ele>254.39999389648</ele>
        <time>2019-09-13T14:07:02Z</time>
      </trkpt>
      <trkpt lat="46.07139" lon="4.76223">
        <ele>254.39999389648</ele>
        <time>2019-09-13T14:07:03Z</time>
      </trkpt>
      <trkpt lat="46.07115" lon="4.76237">
        <ele>254.39999389648</ele>
        <time>2019-09-13T14:07:08Z</time>
      </trkpt>
      <trkpt lat="46.0709" lon="4.76248">
        <ele>254.19999694824</ele>
        <time>2019-09-13T14:07:13Z</time>
      </trkpt>
      <trkpt lat="46.07052" lon="4.76267">
        <ele>254</ele>
        <time>2019-09-13T14:07:20Z</time>
      </trkpt>
      <trkpt lat="46.07047" lon="4.7627">
        <ele>254</ele>
        <time>2019-09-13T14:07:21Z</time>
      </trkpt>
      <trkpt lat="46.07011" lon="4.76288">
        <ele>254</ele>
        <time>2019-09-13T14:07:28Z</time>
      </trkpt>
      <trkpt lat="46.06973" lon="4.76309">
        <ele>254</ele>
        <time>2019-09-13T14:07:35Z</time>
      </trkpt>
      <trkpt lat="46.06944" lon="4.76321">
        <ele>254</ele>
        <time>2019-09-13T14:07:41Z</time>
      </trkpt>
      <trkpt lat="46.06918" lon="4.76329">
        <ele>254</ele>
        <time>2019-09-13T14:07:46Z</time>
      </trkpt>
      <trkpt lat="46.06882" lon="4.76338">
        <ele>254</ele>
        <time>2019-09-13T14:07:52Z</time>
      </trkpt>
      <trkpt lat="46.06845" lon="4.76348">
        <ele>253.60000610352</ele>
        <time>2019-09-13T14:07:58Z</time>
      </trkpt>
      <trkpt lat="46.06805" lon="4.76358">
        <ele>253.60000610352</ele>
        <time>2019-09-13T14:08:05Z</time>
      </trkpt>
      <trkpt lat="46.068" lon="4.76361">
        <ele>253.60000610352</ele>
        <time>2019-09-13T14:08:06Z</time>
      </trkpt>
      <trkpt lat="46.0679" lon="4.76368">
        <ele>253.60000610352</ele>
        <time>2019-09-13T14:08:08Z</time>
      </trkpt>
      <trkpt lat="46.06782" lon="4.76376">
        <ele>253.60000610352</ele>
        <time>2019-09-13T14:08:10Z</time>
      </trkpt>
      <trkpt lat="46.06774" lon="4.76384">
        <ele>253.60000610352</ele>
        <time>2019-09-13T14:08:12Z</time>
      </trkpt>
      <trkpt lat="46.06765" lon="4.76387">
        <ele>253.80000305176</ele>
        <time>2019-09-13T14:08:14Z</time>
      </trkpt>
      <trkpt lat="46.06741" lon="4.76388">
        <ele>254.19999694824</ele>
        <time>2019-09-13T14:08:20Z</time>
      </trkpt>
      <trkpt lat="46.06732" lon="4.76389">
        <ele>254.39999389648</ele>
        <time>2019-09-13T14:08:22Z</time>
      </trkpt>
      <trkpt lat="46.06728" lon="4.76388">
        <ele>254.39999389648</ele>
        <time>2019-09-13T14:08:23Z</time>
      </trkpt>
      <trkpt lat="46.06713" lon="4.76387">
        <ele>254.60000610352</ele>
        <time>2019-09-13T14:08:26Z</time>
      </trkpt>
      <trkpt lat="46.06688" lon="4.76383">
        <ele>254.60000610352</ele>
        <time>2019-09-13T14:08:31Z</time>
      </trkpt>
      <trkpt lat="46.06684" lon="4.76383">
        <ele>254.60000610352</ele>
        <time>2019-09-13T14:08:32Z</time>
      </trkpt>
      <trkpt lat="46.06663" lon="4.76383">
        <ele>254.80000305176</ele>
        <time>2019-09-13T14:08:37Z</time>
      </trkpt>
      <trkpt lat="46.06649" lon="4.76383">
        <ele>254.80000305176</ele>
        <time>2019-09-13T14:08:40Z</time>
      </trkpt>
      <trkpt lat="46.06632" lon="4.76381">
        <ele>254.80000305176</ele>
        <time>2019-09-13T14:08:43Z</time>
      </trkpt>
      <trkpt lat="46.06608" lon="4.7638">
        <ele>254.80000305176</ele>
        <time>2019-09-13T14:08:47Z</time>
      </trkpt>
      <trkpt lat="46.06597" lon="4.76379">
        <ele>254.80000305176</ele>
        <time>2019-09-13T14:08:49Z</time>
      </trkpt>
      <trkpt lat="46.0657" lon="4.76375">
        <ele>254.80000305176</ele>
        <time>2019-09-13T14:08:54Z</time>
      </trkpt>
      <trkpt lat="46.06565" lon="4.76374">
        <ele>254.80000305176</ele>
        <time>2019-09-13T14:08:55Z</time>
      </trkpt>
      <trkpt lat="46.06543" lon="4.76372">
        <ele>255</ele>
        <time>2019-09-13T14:08:59Z</time>
      </trkpt>
      <trkpt lat="46.06532" lon="4.76368">
        <ele>254.80000305176</ele>
        <time>2019-09-13T14:09:01Z</time>
      </trkpt>
      <trkpt lat="46.06504" lon="4.76359">
        <ele>255</ele>
        <time>2019-09-13T14:09:06Z</time>
      </trkpt>
      <trkpt lat="46.06471" lon="4.76343">
        <ele>254.80000305176</ele>
        <time>2019-09-13T14:09:12Z</time>
      </trkpt>
      <trkpt lat="46.06465" lon="4.7634">
        <ele>254.80000305176</ele>
        <time>2019-09-13T14:09:13Z</time>
      </trkpt>
      <trkpt lat="46.06442" lon="4.76333">
        <ele>254.39999389648</ele>
        <time>2019-09-13T14:09:17Z</time>
      </trkpt>
      <trkpt lat="46.06395" lon="4.76321">
        <ele>254.39999389648</ele>
        <time>2019-09-13T14:09:25Z</time>
      </trkpt>
      <trkpt lat="46.0639" lon="4.7632">
        <ele>254.39999389648</ele>
        <time>2019-09-13T14:09:26Z</time>
      </trkpt>
      <trkpt lat="46.06364" lon="4.7631">
        <ele>254.39999389648</ele>
        <time>2019-09-13T14:09:31Z</time>
      </trkpt>
      <trkpt lat="46.0634" lon="4.76299">
        <ele>254.39999389648</ele>
        <time>2019-09-13T14:09:36Z</time>
      </trkpt>
      <trkpt lat="46.06303" lon="4.76278">
        <ele>254.39999389648</ele>
        <time>2019-09-13T14:09:43Z</time>
      </trkpt>
      <trkpt lat="46.06265" lon="4.76254">
        <ele>254.19999694824</ele>
        <time>2019-09-13T14:09:50Z</time>
      </trkpt>
      <trkpt lat="46.06228" lon="4.76231">
        <ele>254.19999694824</ele>
        <time>2019-09-13T14:09:57Z</time>
      </trkpt>
      <trkpt lat="46.06198" lon="4.76214">
        <ele>254.39999389648</ele>
        <time>2019-09-13T14:10:03Z</time>
      </trkpt>
      <trkpt lat="46.0618" lon="4.762">
        <ele>254.60000610352</ele>
        <time>2019-09-13T14:10:07Z</time>
      </trkpt>
      <trkpt lat="46.06171" lon="4.76193">
        <ele>254.60000610352</ele>
        <time>2019-09-13T14:10:09Z</time>
      </trkpt>
      <trkpt lat="46.06135" lon="4.76162">
        <ele>254.60000610352</ele>
        <time>2019-09-13T14:10:16Z</time>
      </trkpt>
      <trkpt lat="46.06105" lon="4.76134">
        <ele>254.60000610352</ele>
        <time>2019-09-13T14:10:22Z</time>
      </trkpt>
      <trkpt lat="46.06076" lon="4.76109">
        <ele>254.39999389648</ele>
        <time>2019-09-13T14:10:28Z</time>
      </trkpt>
      <trkpt lat="46.06053" lon="4.76087">
        <ele>254.39999389648</ele>
        <time>2019-09-13T14:10:33Z</time>
      </trkpt>
      <trkpt lat="46.06008" lon="4.76042">
        <ele>254.19999694824</ele>
        <time>2019-09-13T14:10:42Z</time>
      </trkpt>
      <trkpt lat="46.05974" lon="4.76007">
        <ele>254</ele>
        <time>2019-09-13T14:10:49Z</time>
      </trkpt>
      <trkpt lat="46.0593" lon="4.7596">
        <ele>253.80000305176</ele>
        <time>2019-09-13T14:10:58Z</time>
      </trkpt>
      <trkpt lat="46.05893" lon="4.75915">
        <ele>253.80000305176</ele>
        <time>2019-09-13T14:11:06Z</time>
      </trkpt>
      <trkpt lat="46.05863" lon="4.75876">
        <ele>254</ele>
        <time>2019-09-13T14:11:13Z</time>
      </trkpt>
      <trkpt lat="46.05821" lon="4.75822">
        <ele>254.19999694824</ele>
        <time>2019-09-13T14:11:22Z</time>
      </trkpt>
      <trkpt lat="46.05789" lon="4.75777">
        <ele>253.80000305176</ele>
        <time>2019-09-13T14:11:29Z</time>
      </trkpt>
      <trkpt lat="46.05752" lon="4.7573">
        <ele>253.39999389648</ele>
        <time>2019-09-13T14:11:37Z</time>
      </trkpt>
      <trkpt lat="46.05707" lon="4.75674">
        <ele>253.39999389648</ele>
        <time>2019-09-13T14:11:47Z</time>
      </trkpt>
      <trkpt lat="46.05669" lon="4.75634">
        <ele>253.60000610352</ele>
        <time>2019-09-13T14:11:55Z</time>
      </trkpt>
      <trkpt lat="46.0566" lon="4.75625">
        <ele>253.60000610352</ele>
        <time>2019-09-13T14:11:57Z</time>
      </trkpt>
      <trkpt lat="46.05648" lon="4.75608">
        <ele>253.80000305176</ele>
        <time>2019-09-13T14:12:00Z</time>
      </trkpt>
      <trkpt lat="46.05641" lon="4.75596">
        <ele>253.80000305176</ele>
        <time>2019-09-13T14:12:02Z</time>
      </trkpt>
      <trkpt lat="46.0563" lon="4.75577">
        <ele>254</ele>
        <time>2019-09-13T14:12:05Z</time>
      </trkpt>
      <trkpt lat="46.05602" lon="4.75534">
        <ele>254</ele>
        <time>2019-09-13T14:12:12Z</time>
      </trkpt>
      <trkpt lat="46.05576" lon="4.75492">
        <ele>254.19999694824</ele>
        <time>2019-09-13T14:12:19Z</time>
      </trkpt>
      <trkpt lat="46.05544" lon="4.75442">
        <ele>254.19999694824</ele>
        <time>2019-09-13T14:12:27Z</time>
      </trkpt>
      <trkpt lat="46.05516" lon="4.75401">
        <ele>254.19999694824</ele>
        <time>2019-09-13T14:12:34Z</time>
      </trkpt>
      <trkpt lat="46.05485" lon="4.75355">
        <ele>254</ele>
        <time>2019-09-13T14:12:42Z</time>
      </trkpt>
      <trkpt lat="46.05477" lon="4.75345">
        <ele>254</ele>
        <time>2019-09-13T14:12:44Z</time>
      </trkpt>
      <trkpt lat="46.05464" lon="4.75331">
        <ele>254</ele>
        <time>2019-09-13T14:12:47Z</time>
      </trkpt>
      <trkpt lat="46.05448" lon="4.75312">
        <ele>254</ele>
        <time>2019-09-13T14:12:51Z</time>
      </trkpt>
      <trkpt lat="46.05439" lon="4.75304">
        <ele>254</ele>
        <time>2019-09-13T14:12:53Z</time>
      </trkpt>
      <trkpt lat="46.05423" lon="4.75284">
        <ele>254</ele>
        <time>2019-09-13T14:12:57Z</time>
      </trkpt>
      <trkpt lat="46.05413" lon="4.75254">
        <ele>254.19999694824</ele>
        <time>2019-09-13T14:13:01Z</time>
      </trkpt>
      <trkpt lat="46.05404" lon="4.75222">
        <ele>254.39999389648</ele>
        <time>2019-09-13T14:13:05Z</time>
      </trkpt>
      <trkpt lat="46.05399" lon="4.75207">
        <ele>254.39999389648</ele>
        <time>2019-09-13T14:13:07Z</time>
      </trkpt>
      <trkpt lat="46.05378" lon="4.75154">
        <ele>254.19999694824</ele>
        <time>2019-09-13T14:13:14Z</time>
      </trkpt>
      <trkpt lat="46.05361" lon="4.75108">
        <ele>254.19999694824</ele>
        <time>2019-09-13T14:13:20Z</time>
      </trkpt>
      <trkpt lat="46.05356" lon="4.75093">
        <ele>254.39999389648</ele>
        <time>2019-09-13T14:13:22Z</time>
      </trkpt>
      <trkpt lat="46.05338" lon="4.75043">
        <ele>254.19999694824</ele>
        <time>2019-09-13T14:13:29Z</time>
      </trkpt>
      <trkpt lat="46.05321" lon="4.74979">
        <ele>254.39999389648</ele>
        <time>2019-09-13T14:13:37Z</time>
      </trkpt>
      <trkpt lat="46.05319" lon="4.74971">
        <ele>254.39999389648</ele>
        <time>2019-09-13T14:13:38Z</time>
      </trkpt>
      <trkpt lat="46.05309" lon="4.7494">
        <ele>254.39999389648</ele>
        <time>2019-09-13T14:13:42Z</time>
      </trkpt>
      <trkpt lat="46.05303" lon="4.74925">
        <ele>254.39999389648</ele>
        <time>2019-09-13T14:13:44Z</time>
      </trkpt>
      <trkpt lat="46.05286" lon="4.7488">
        <ele>254.39999389648</ele>
        <time>2019-09-13T14:13:50Z</time>
      </trkpt>
      <trkpt lat="46.05265" lon="4.74828">
        <ele>254.39999389648</ele>
        <time>2019-09-13T14:13:57Z</time>
      </trkpt>
      <trkpt lat="46.05237" lon="4.74761">
        <ele>254.60000610352</ele>
        <time>2019-09-13T14:14:06Z</time>
      </trkpt>
      <trkpt lat="46.05224" lon="4.74733">
        <ele>254.60000610352</ele>
        <time>2019-09-13T14:14:10Z</time>
      </trkpt>
      <trkpt lat="46.05218" lon="4.74718">
        <ele>254.60000610352</ele>
        <time>2019-09-13T14:14:12Z</time>
      </trkpt>
      <trkpt lat="46.05209" lon="4.74696">
        <ele>254.60000610352</ele>
        <time>2019-09-13T14:14:15Z</time>
      </trkpt>
      <trkpt lat="46.05199" lon="4.74674">
        <ele>254.60000610352</ele>
        <time>2019-09-13T14:14:18Z</time>
      </trkpt>
      <trkpt lat="46.05189" lon="4.74653">
        <ele>254.80000305176</ele>
        <time>2019-09-13T14:14:21Z</time>
      </trkpt>
      <trkpt lat="46.05184" lon="4.74638">
        <ele>254.80000305176</ele>
        <time>2019-09-13T14:14:23Z</time>
      </trkpt>
      <trkpt lat="46.05169" lon="4.74602">
        <ele>254.39999389648</ele>
        <time>2019-09-13T14:14:28Z</time>
      </trkpt>
      <trkpt lat="46.05166" lon="4.74595">
        <ele>254.60000610352</ele>
        <time>2019-09-13T14:14:29Z</time>
      </trkpt>
      <trkpt lat="46.05163" lon="4.74588">
        <ele>254.60000610352</ele>
        <time>2019-09-13T14:14:30Z</time>
      </trkpt>
      <trkpt lat="46.05154" lon="4.74566">
        <ele>254.60000610352</ele>
        <time>2019-09-13T14:14:33Z</time>
      </trkpt>
      <trkpt lat="46.05151" lon="4.74559">
        <ele>254.60000610352</ele>
        <time>2019-09-13T14:14:34Z</time>
      </trkpt>
      <trkpt lat="46.05124" lon="4.74503">
        <ele>254.39999389648</ele>
        <time>2019-09-13T14:14:42Z</time>
      </trkpt>
      <trkpt lat="46.05104" lon="4.74465">
        <ele>254.39999389648</ele>
        <time>2019-09-13T14:14:48Z</time>
      </trkpt>
      <trkpt lat="46.05081" lon="4.74419">
        <ele>254.60000610352</ele>
        <time>2019-09-13T14:14:55Z</time>
      </trkpt>
      <trkpt lat="46.05057" lon="4.74373">
        <ele>254.60000610352</ele>
        <time>2019-09-13T14:15:02Z</time>
      </trkpt>
      <trkpt lat="46.0503" lon="4.7433">
        <ele>254.60000610352</ele>
        <time>2019-09-13T14:15:09Z</time>
      </trkpt>
      <trkpt lat="46.05026" lon="4.74325">
        <ele>254.60000610352</ele>
        <time>2019-09-13T14:15:10Z</time>
      </trkpt>
      <trkpt lat="46.04985" lon="4.74277">
        <ele>254.80000305176</ele>
        <time>2019-09-13T14:15:19Z</time>
      </trkpt>
      <trkpt lat="46.04951" lon="4.74246">
        <ele>254.80000305176</ele>
        <time>2019-09-13T14:15:26Z</time>
      </trkpt>
      <trkpt lat="46.04912" lon="4.74213">
        <ele>254.80000305176</ele>
        <time>2019-09-13T14:15:34Z</time>
      </trkpt>
      <trkpt lat="46.04879" lon="4.74182">
        <ele>254.80000305176</ele>
        <time>2019-09-13T14:15:41Z</time>
      </trkpt>
      <trkpt lat="46.04849" lon="4.74157">
        <ele>254.80000305176</ele>
        <time>2019-09-13T14:15:47Z</time>
      </trkpt>
      <trkpt lat="46.04805" lon="4.74128">
        <ele>254.80000305176</ele>
        <time>2019-09-13T14:15:55Z</time>
      </trkpt>
      <trkpt lat="46.04772" lon="4.74109">
        <ele>255</ele>
        <time>2019-09-13T14:16:01Z</time>
      </trkpt>
      <trkpt lat="46.04732" lon="4.74091">
        <ele>255</ele>
        <time>2019-09-13T14:16:08Z</time>
      </trkpt>
      <trkpt lat="46.04691" lon="4.74085">
        <ele>255.19999694824</ele>
        <time>2019-09-13T14:16:15Z</time>
      </trkpt>
      <trkpt lat="46.04645" lon="4.74081">
        <ele>255.19999694824</ele>
        <time>2019-09-13T14:16:23Z</time>
      </trkpt>
      <trkpt lat="46.04611" lon="4.74084">
        <ele>255.19999694824</ele>
        <time>2019-09-13T14:16:29Z</time>
      </trkpt>
      <trkpt lat="46.04567" lon="4.74096">
        <ele>255.19999694824</ele>
        <time>2019-09-13T14:16:37Z</time>
      </trkpt>
      <trkpt lat="46.04533" lon="4.74105">
        <ele>255</ele>
        <time>2019-09-13T14:16:43Z</time>
      </trkpt>
      <trkpt lat="46.04502" lon="4.7412">
        <ele>255</ele>
        <time>2019-09-13T14:16:49Z</time>
      </trkpt>
      <trkpt lat="46.04478" lon="4.74137">
        <ele>255</ele>
        <time>2019-09-13T14:16:54Z</time>
      </trkpt>
      <trkpt lat="46.04448" lon="4.74153">
        <ele>255</ele>
        <time>2019-09-13T14:17:00Z</time>
      </trkpt>
      <trkpt lat="46.04444" lon="4.74156">
        <ele>255</ele>
        <time>2019-09-13T14:17:01Z</time>
      </trkpt>
      <trkpt lat="46.04434" lon="4.74162">
        <ele>255</ele>
        <time>2019-09-13T14:17:05Z</time>
      </trkpt>
      <trkpt lat="46.04434" lon="4.74162">
        <ele>255</ele>
        <time>2019-09-13T14:17:06Z</time>
      </trkpt>
      <trkpt lat="46.04433" lon="4.74164">
        <ele>254.80000305176</ele>
        <time>2019-09-13T14:18:14Z</time>
      </trkpt>
      <trkpt lat="46.04429" lon="4.74166">
        <ele>254.80000305176</ele>
        <time>2019-09-13T14:18:16Z</time>
      </trkpt>
      <trkpt lat="46.04414" lon="4.74177">
        <ele>254.80000305176</ele>
        <time>2019-09-13T14:18:21Z</time>
      </trkpt>
      <trkpt lat="46.04388" lon="4.74193">
        <ele>255</ele>
        <time>2019-09-13T14:18:27Z</time>
      </trkpt>
      <trkpt lat="46.04368" lon="4.74207">
        <ele>255</ele>
        <time>2019-09-13T14:18:31Z</time>
      </trkpt>
      <trkpt lat="46.04348" lon="4.74221">
        <ele>255.19999694824</ele>
        <time>2019-09-13T14:18:35Z</time>
      </trkpt>
      <trkpt lat="46.04308" lon="4.74254">
        <ele>255.19999694824</ele>
        <time>2019-09-13T14:18:43Z</time>
      </trkpt>
      <trkpt lat="46.04267" lon="4.74286">
        <ele>255</ele>
        <time>2019-09-13T14:18:51Z</time>
      </trkpt>
      <trkpt lat="46.04237" lon="4.74312">
        <ele>254.80000305176</ele>
        <time>2019-09-13T14:18:57Z</time>
      </trkpt>
      <trkpt lat="46.04209" lon="4.74342">
        <ele>254.80000305176</ele>
        <time>2019-09-13T14:19:03Z</time>
      </trkpt>
      <trkpt lat="46.04187" lon="4.74368">
        <ele>254.60000610352</ele>
        <time>2019-09-13T14:19:08Z</time>
      </trkpt>
      <trkpt lat="46.04184" lon="4.74375">
        <ele>254.60000610352</ele>
        <time>2019-09-13T14:19:09Z</time>
      </trkpt>
      <trkpt lat="46.04172" lon="4.74399">
        <ele>254.60000610352</ele>
        <time>2019-09-13T14:19:13Z</time>
      </trkpt>
      <trkpt lat="46.04161" lon="4.74404">
        <ele>254.60000610352</ele>
        <time>2019-09-13T14:19:15Z</time>
      </trkpt>
      <trkpt lat="46.04145" lon="4.74413">
        <ele>254.60000610352</ele>
        <time>2019-09-13T14:19:18Z</time>
      </trkpt>
      <trkpt lat="46.04114" lon="4.74437">
        <ele>254.60000610352</ele>
        <time>2019-09-13T14:19:24Z</time>
      </trkpt>
      <trkpt lat="46.04094" lon="4.74454">
        <ele>254.60000610352</ele>
        <time>2019-09-13T14:19:28Z</time>
      </trkpt>
      <trkpt lat="46.04084" lon="4.74462">
        <ele>254.60000610352</ele>
        <time>2019-09-13T14:19:30Z</time>
      </trkpt>
      <trkpt lat="46.04068" lon="4.74474">
        <ele>254.80000305176</ele>
        <time>2019-09-13T14:19:33Z</time>
      </trkpt>
      <trkpt lat="46.04063" lon="4.74478">
        <ele>254.80000305176</ele>
        <time>2019-09-13T14:19:34Z</time>
      </trkpt>
      <trkpt lat="46.04027" lon="4.74503">
        <ele>254.80000305176</ele>
        <time>2019-09-13T14:19:41Z</time>
      </trkpt>
      <trkpt lat="46.03998" lon="4.74523">
        <ele>255</ele>
        <time>2019-09-13T14:19:47Z</time>
      </trkpt>
      <trkpt lat="46.03969" lon="4.74539">
        <ele>255</ele>
        <time>2019-09-13T14:19:53Z</time>
      </trkpt>
      <trkpt lat="46.03956" lon="4.74546">
        <ele>255</ele>
        <time>2019-09-13T14:19:56Z</time>
      </trkpt>
      <trkpt lat="46.03942" lon="4.74556">
        <ele>255</ele>
        <time>2019-09-13T14:19:59Z</time>
      </trkpt>
      <trkpt lat="46.03911" lon="4.74571">
        <ele>255.19999694824</ele>
        <time>2019-09-13T14:20:05Z</time>
      </trkpt>
      <trkpt lat="46.03873" lon="4.74588">
        <ele>255.19999694824</ele>
        <time>2019-09-13T14:20:11Z</time>
      </trkpt>
      <trkpt lat="46.03834" lon="4.74606">
        <ele>255.19999694824</ele>
        <time>2019-09-13T14:20:18Z</time>
      </trkpt>
      <trkpt lat="46.03811" lon="4.74617">
        <ele>255.19999694824</ele>
        <time>2019-09-13T14:20:23Z</time>
      </trkpt>
      <trkpt lat="46.03786" lon="4.74625">
        <ele>255.19999694824</ele>
        <time>2019-09-13T14:20:28Z</time>
      </trkpt>
      <trkpt lat="46.03758" lon="4.74639">
        <ele>255.19999694824</ele>
        <time>2019-09-13T14:20:33Z</time>
      </trkpt>
      <trkpt lat="46.03752" lon="4.74643">
        <ele>255.19999694824</ele>
        <time>2019-09-13T14:20:34Z</time>
      </trkpt>
      <trkpt lat="46.0372" lon="4.74667">
        <ele>255.39999389648</ele>
        <time>2019-09-13T14:20:40Z</time>
      </trkpt>
      <trkpt lat="46.03691" lon="4.74685">
        <ele>255.39999389648</ele>
        <time>2019-09-13T14:20:46Z</time>
      </trkpt>
      <trkpt lat="46.0366" lon="4.74694">
        <ele>255.60000610352</ele>
        <time>2019-09-13T14:20:52Z</time>
      </trkpt>
      <trkpt lat="46.03655" lon="4.74696">
        <ele>255.60000610352</ele>
        <time>2019-09-13T14:20:53Z</time>
      </trkpt>
      <trkpt lat="46.03635" lon="4.74705">
        <ele>255.39999389648</ele>
        <time>2019-09-13T14:20:57Z</time>
      </trkpt>
      <trkpt lat="46.03624" lon="4.74711">
        <ele>255.19999694824</ele>
        <time>2019-09-13T14:20:59Z</time>
      </trkpt>
      <trkpt lat="46.03603" lon="4.74725">
        <ele>255.19999694824</ele>
        <time>2019-09-13T14:21:03Z</time>
      </trkpt>
      <trkpt lat="46.03587" lon="4.74736">
        <ele>255.19999694824</ele>
        <time>2019-09-13T14:21:06Z</time>
      </trkpt>
      <trkpt lat="46.03575" lon="4.74741">
        <ele>255.19999694824</ele>
        <time>2019-09-13T14:21:08Z</time>
      </trkpt>
      <trkpt lat="46.03551" lon="4.74753">
        <ele>255.19999694824</ele>
        <time>2019-09-13T14:21:13Z</time>
      </trkpt>
      <trkpt lat="46.03514" lon="4.74773">
        <ele>255</ele>
        <time>2019-09-13T14:21:20Z</time>
      </trkpt>
      <trkpt lat="46.03481" lon="4.74786">
        <ele>255</ele>
        <time>2019-09-13T14:21:26Z</time>
      </trkpt>
      <trkpt lat="46.03442" lon="4.74802">
        <ele>255</ele>
        <time>2019-09-13T14:21:33Z</time>
      </trkpt>
      <trkpt lat="46.03397" lon="4.74822">
        <ele>255</ele>
        <time>2019-09-13T14:21:41Z</time>
      </trkpt>
      <trkpt lat="46.03391" lon="4.74824">
        <ele>255</ele>
        <time>2019-09-13T14:21:42Z</time>
      </trkpt>
      <trkpt lat="46.03367" lon="4.74826">
        <ele>255</ele>
        <time>2019-09-13T14:21:46Z</time>
      </trkpt>
      <trkpt lat="46.03356" lon="4.74826">
        <ele>255</ele>
        <time>2019-09-13T14:21:48Z</time>
      </trkpt>
      <trkpt lat="46.03339" lon="4.74831">
        <ele>255</ele>
        <time>2019-09-13T14:21:51Z</time>
      </trkpt>
      <trkpt lat="46.03333" lon="4.74831">
        <ele>255</ele>
        <time>2019-09-13T14:21:52Z</time>
      </trkpt>
      <trkpt lat="46.03299" lon="4.74825">
        <ele>255</ele>
        <time>2019-09-13T14:21:58Z</time>
      </trkpt>
      <trkpt lat="46.03267" lon="4.74813">
        <ele>255.39999389648</ele>
        <time>2019-09-13T14:22:04Z</time>
      </trkpt>
      <trkpt lat="46.03263" lon="4.74811">
        <ele>255.39999389648</ele>
        <time>2019-09-13T14:22:05Z</time>
      </trkpt>
      <trkpt lat="46.0325" lon="4.7481">
        <ele>255.60000610352</ele>
        <time>2019-09-13T14:22:08Z</time>
      </trkpt>
      <trkpt lat="46.03242" lon="4.74812">
        <ele>255.60000610352</ele>
        <time>2019-09-13T14:22:10Z</time>
      </trkpt>
      <trkpt lat="46.03232" lon="4.74819">
        <ele>255.60000610352</ele>
        <time>2019-09-13T14:22:12Z</time>
      </trkpt>
      <trkpt lat="46.03217" lon="4.7483">
        <ele>255.60000610352</ele>
        <time>2019-09-13T14:22:15Z</time>
      </trkpt>
      <trkpt lat="46.03207" lon="4.74836">
        <ele>255.60000610352</ele>
        <time>2019-09-13T14:22:17Z</time>
      </trkpt>
      <trkpt lat="46.03189" lon="4.74848">
        <ele>255.60000610352</ele>
        <time>2019-09-13T14:22:21Z</time>
      </trkpt>
      <trkpt lat="46.03179" lon="4.74853">
        <ele>255.39999389648</ele>
        <time>2019-09-13T14:22:23Z</time>
      </trkpt>
      <trkpt lat="46.03148" lon="4.74867">
        <ele>255.19999694824</ele>
        <time>2019-09-13T14:22:29Z</time>
      </trkpt>
      <trkpt lat="46.0311" lon="4.74875">
        <ele>255.19999694824</ele>
        <time>2019-09-13T14:22:36Z</time>
      </trkpt>
      <trkpt lat="46.03065" lon="4.74885">
        <ele>255.19999694824</ele>
        <time>2019-09-13T14:22:44Z</time>
      </trkpt>
      <trkpt lat="46.03024" lon="4.74891">
        <ele>255</ele>
        <time>2019-09-13T14:22:51Z</time>
      </trkpt>
      <trkpt lat="46.02978" lon="4.74897">
        <ele>255</ele>
        <time>2019-09-13T14:22:59Z</time>
      </trkpt>
      <trkpt lat="46.02944" lon="4.74904">
        <ele>254.80000305176</ele>
        <time>2019-09-13T14:23:05Z</time>
      </trkpt>
      <trkpt lat="46.0291" lon="4.74911">
        <ele>255</ele>
        <time>2019-09-13T14:23:11Z</time>
      </trkpt>
      <trkpt lat="46.02864" lon="4.74911">
        <ele>255.19999694824</ele>
        <time>2019-09-13T14:23:19Z</time>
      </trkpt>
      <trkpt lat="46.02818" lon="4.74911">
        <ele>255.19999694824</ele>
        <time>2019-09-13T14:23:27Z</time>
      </trkpt>
      <trkpt lat="46.02787" lon="4.74907">
        <ele>255.19999694824</ele>
        <time>2019-09-13T14:23:33Z</time>
      </trkpt>
      <trkpt lat="46.02775" lon="4.74903">
        <ele>255.19999694824</ele>
        <time>2019-09-13T14:23:36Z</time>
      </trkpt>
      <trkpt lat="46.02763" lon="4.74897">
        <ele>255.39999389648</ele>
        <time>2019-09-13T14:23:39Z</time>
      </trkpt>
      <trkpt lat="46.02758" lon="4.74894">
        <ele>255.60000610352</ele>
        <time>2019-09-13T14:23:40Z</time>
      </trkpt>
      <trkpt lat="46.02738" lon="4.74883">
        <ele>255.60000610352</ele>
        <time>2019-09-13T14:23:44Z</time>
      </trkpt>
      <trkpt lat="46.02715" lon="4.74867">
        <ele>255.60000610352</ele>
        <time>2019-09-13T14:23:49Z</time>
      </trkpt>
      <trkpt lat="46.02683" lon="4.74851">
        <ele>255.19999694824</ele>
        <time>2019-09-13T14:23:55Z</time>
      </trkpt>
      <trkpt lat="46.02654" lon="4.74836">
        <ele>255.19999694824</ele>
        <time>2019-09-13T14:24:01Z</time>
      </trkpt>
      <trkpt lat="46.02644" lon="4.74833">
        <ele>255.19999694824</ele>
        <time>2019-09-13T14:24:05Z</time>
      </trkpt>
      <trkpt lat="46.02634" lon="4.74828">
        <ele>255.19999694824</ele>
        <time>2019-09-13T14:24:09Z</time>
      </trkpt>
      <trkpt lat="46.02622" lon="4.74822">
        <ele>255.19999694824</ele>
        <time>2019-09-13T14:24:12Z</time>
      </trkpt>
      <trkpt lat="46.02613" lon="4.7482">
        <ele>255.19999694824</ele>
        <time>2019-09-13T14:24:14Z</time>
      </trkpt>
      <trkpt lat="46.02604" lon="4.74817">
        <ele>255.19999694824</ele>
        <time>2019-09-13T14:24:16Z</time>
      </trkpt>
      <trkpt lat="46.02589" lon="4.74811">
        <ele>255.39999389648</ele>
        <time>2019-09-13T14:24:19Z</time>
      </trkpt>
      <trkpt lat="46.02567" lon="4.74802">
        <ele>255.39999389648</ele>
        <time>2019-09-13T14:24:23Z</time>
      </trkpt>
      <trkpt lat="46.02555" lon="4.748">
        <ele>255.39999389648</ele>
        <time>2019-09-13T14:24:25Z</time>
      </trkpt>
      <trkpt lat="46.02544" lon="4.74797">
        <ele>255.39999389648</ele>
        <time>2019-09-13T14:24:27Z</time>
      </trkpt>
      <trkpt lat="46.02515" lon="4.74787">
        <ele>255.60000610352</ele>
        <time>2019-09-13T14:24:32Z</time>
      </trkpt>
      <trkpt lat="46.02475" lon="4.74771">
        <ele>255.60000610352</ele>
        <time>2019-09-13T14:24:39Z</time>
      </trkpt>
      <trkpt lat="46.0244" lon="4.74754">
        <ele>255.80000305176</ele>
        <time>2019-09-13T14:24:45Z</time>
      </trkpt>
      <trkpt lat="46.02388" lon="4.74737">
        <ele>256</ele>
        <time>2019-09-13T14:24:54Z</time>
      </trkpt>
      <trkpt lat="46.02361" lon="4.74725">
        <ele>256.20001220703</ele>
        <time>2019-09-13T14:24:59Z</time>
      </trkpt>
      <trkpt lat="46.02333" lon="4.74713">
        <ele>256.60000610352</ele>
        <time>2019-09-13T14:25:04Z</time>
      </trkpt>
      <trkpt lat="46.02318" lon="4.74705">
        <ele>256.60000610352</ele>
        <time>2019-09-13T14:25:07Z</time>
      </trkpt>
      <trkpt lat="46.02304" lon="4.747">
        <ele>256.60000610352</ele>
        <time>2019-09-13T14:25:10Z</time>
      </trkpt>
      <trkpt lat="46.02294" lon="4.74695">
        <ele>256.60000610352</ele>
        <time>2019-09-13T14:25:12Z</time>
      </trkpt>
      <trkpt lat="46.02256" lon="4.74675">
        <ele>256.60000610352</ele>
        <time>2019-09-13T14:25:19Z</time>
      </trkpt>
      <trkpt lat="46.02224" lon="4.74658">
        <ele>256.60000610352</ele>
        <time>2019-09-13T14:25:25Z</time>
      </trkpt>
      <trkpt lat="46.02218" lon="4.74657">
        <ele>256.60000610352</ele>
        <time>2019-09-13T14:25:26Z</time>
      </trkpt>
      <trkpt lat="46.02202" lon="4.7465">
        <ele>256.60000610352</ele>
        <time>2019-09-13T14:25:29Z</time>
      </trkpt>
      <trkpt lat="46.02161" lon="4.74632">
        <ele>256.60000610352</ele>
        <time>2019-09-13T14:25:36Z</time>
      </trkpt>
      <trkpt lat="46.02115" lon="4.74612">
        <ele>256.39999389648</ele>
        <time>2019-09-13T14:25:44Z</time>
      </trkpt>
      <trkpt lat="46.02059" lon="4.74594">
        <ele>256.20001220703</ele>
        <time>2019-09-13T14:25:54Z</time>
      </trkpt>
      <trkpt lat="46.0202" lon="4.74584">
        <ele>256.20001220703</ele>
        <time>2019-09-13T14:26:01Z</time>
      </trkpt>
      <trkpt lat="46.02014" lon="4.74583">
        <ele>256.20001220703</ele>
        <time>2019-09-13T14:26:02Z</time>
      </trkpt>
      <trkpt lat="46.01991" lon="4.74579">
        <ele>256.20001220703</ele>
        <time>2019-09-13T14:26:06Z</time>
      </trkpt>
      <trkpt lat="46.01985" lon="4.74578">
        <ele>256.20001220703</ele>
        <time>2019-09-13T14:26:07Z</time>
      </trkpt>
      <trkpt lat="46.01962" lon="4.74577">
        <ele>256</ele>
        <time>2019-09-13T14:26:11Z</time>
      </trkpt>
      <trkpt lat="46.01957" lon="4.74577">
        <ele>256</ele>
        <time>2019-09-13T14:26:12Z</time>
      </trkpt>
      <trkpt lat="46.01933" lon="4.74575">
        <ele>256.20001220703</ele>
        <time>2019-09-13T14:26:17Z</time>
      </trkpt>
      <trkpt lat="46.01907" lon="4.74575">
        <ele>256.20001220703</ele>
        <time>2019-09-13T14:26:24Z</time>
      </trkpt>
      <trkpt lat="46.01884" lon="4.74578">
        <ele>256.20001220703</ele>
        <time>2019-09-13T14:26:29Z</time>
      </trkpt>
      <trkpt lat="46.01844" lon="4.74581">
        <ele>256.39999389648</ele>
        <time>2019-09-13T14:26:36Z</time>
      </trkpt>
      <trkpt lat="46.01809" lon="4.74589">
        <ele>256.60000610352</ele>
        <time>2019-09-13T14:26:43Z</time>
      </trkpt>
      <trkpt lat="46.01772" lon="4.74599">
        <ele>257</ele>
        <time>2019-09-13T14:26:50Z</time>
      </trkpt>
      <trkpt lat="46.01767" lon="4.74601">
        <ele>257</ele>
        <time>2019-09-13T14:26:51Z</time>
      </trkpt>
      <trkpt lat="46.01762" lon="4.74603">
        <ele>257</ele>
        <time>2019-09-13T14:26:52Z</time>
      </trkpt>
      <trkpt lat="46.01745" lon="4.74607">
        <ele>257.20001220703</ele>
        <time>2019-09-13T14:26:55Z</time>
      </trkpt>
      <trkpt lat="46.01708" lon="4.74621">
        <ele>257.20001220703</ele>
        <time>2019-09-13T14:27:02Z</time>
      </trkpt>
      <trkpt lat="46.01698" lon="4.74626">
        <ele>257.20001220703</ele>
        <time>2019-09-13T14:27:04Z</time>
      </trkpt>
      <trkpt lat="46.01677" lon="4.74639">
        <ele>257.20001220703</ele>
        <time>2019-09-13T14:27:08Z</time>
      </trkpt>
      <trkpt lat="46.01633" lon="4.74659">
        <ele>256.79998779297</ele>
        <time>2019-09-13T14:27:16Z</time>
      </trkpt>
      <trkpt lat="46.0159" lon="4.74681">
        <ele>256.39999389648</ele>
        <time>2019-09-13T14:27:24Z</time>
      </trkpt>
      <trkpt lat="46.0158" lon="4.74687">
        <ele>256.20001220703</ele>
        <time>2019-09-13T14:27:26Z</time>
      </trkpt>
      <trkpt lat="46.01559" lon="4.74702">
        <ele>256.20001220703</ele>
        <time>2019-09-13T14:27:30Z</time>
      </trkpt>
      <trkpt lat="46.0152" lon="4.74725">
        <ele>256.20001220703</ele>
        <time>2019-09-13T14:27:37Z</time>
      </trkpt>
      <trkpt lat="46.01478" lon="4.74755">
        <ele>256.20001220703</ele>
        <time>2019-09-13T14:27:45Z</time>
      </trkpt>
      <trkpt lat="46.01432" lon="4.74791">
        <ele>256</ele>
        <time>2019-09-13T14:27:54Z</time>
      </trkpt>
      <trkpt lat="46.01412" lon="4.74809">
        <ele>256</ele>
        <time>2019-09-13T14:27:58Z</time>
      </trkpt>
      <trkpt lat="46.0139" lon="4.74835">
        <ele>255.80000305176</ele>
        <time>2019-09-13T14:28:03Z</time>
      </trkpt>
      <trkpt lat="46.01367" lon="4.74866">
        <ele>255.80000305176</ele>
        <time>2019-09-13T14:28:09Z</time>
      </trkpt>
      <trkpt lat="46.01346" lon="4.7489">
        <ele>255.80000305176</ele>
        <time>2019-09-13T14:28:15Z</time>
      </trkpt>
      <trkpt lat="46.01339" lon="4.74895">
        <ele>255.80000305176</ele>
        <time>2019-09-13T14:28:17Z</time>
      </trkpt>
      <trkpt lat="46.01323" lon="4.74904">
        <ele>256</ele>
        <time>2019-09-13T14:28:21Z</time>
      </trkpt>
      <trkpt lat="46.01295" lon="4.74922">
        <ele>256</ele>
        <time>2019-09-13T14:28:27Z</time>
      </trkpt>
      <trkpt lat="46.01258" lon="4.74945">
        <ele>256</ele>
        <time>2019-09-13T14:28:35Z</time>
      </trkpt>
      <trkpt lat="46.01249" lon="4.7495">
        <ele>255.80000305176</ele>
        <time>2019-09-13T14:28:37Z</time>
      </trkpt>
      <trkpt lat="46.01241" lon="4.74955">
        <ele>255.80000305176</ele>
        <time>2019-09-13T14:28:39Z</time>
      </trkpt>
      <trkpt lat="46.01237" lon="4.74958">
        <ele>255.80000305176</ele>
        <time>2019-09-13T14:28:40Z</time>
      </trkpt>
      <trkpt lat="46.01214" lon="4.74975">
        <ele>255.80000305176</ele>
        <time>2019-09-13T14:28:46Z</time>
      </trkpt>
      <trkpt lat="46.01193" lon="4.74984">
        <ele>255.80000305176</ele>
        <time>2019-09-13T14:28:51Z</time>
      </trkpt>
      <trkpt lat="46.01189" lon="4.74986">
        <ele>255.80000305176</ele>
        <time>2019-09-13T14:28:52Z</time>
      </trkpt>
      <trkpt lat="46.01173" lon="4.74994">
        <ele>255.80000305176</ele>
        <time>2019-09-13T14:28:56Z</time>
      </trkpt>
      <trkpt lat="46.0117" lon="4.74997">
        <ele>255.80000305176</ele>
        <time>2019-09-13T14:28:57Z</time>
      </trkpt>
      <trkpt lat="46.01167" lon="4.75">
        <ele>256</ele>
        <time>2019-09-13T14:29:00Z</time>
      </trkpt>
      <trkpt lat="46.01163" lon="4.74999">
        <ele>256.20001220703</ele>
        <time>2019-09-13T14:29:08Z</time>
      </trkpt>
      <trkpt lat="46.01161" lon="4.75">
        <ele>256.20001220703</ele>
        <time>2019-09-13T14:29:11Z</time>
      </trkpt>
      <trkpt lat="46.01158" lon="4.75004">
        <ele>256.60000610352</ele>
        <time>2019-09-13T14:29:22Z</time>
      </trkpt>
      <trkpt lat="46.01156" lon="4.75004">
        <ele>256.60000610352</ele>
        <time>2019-09-13T14:29:23Z</time>
      </trkpt>
      <trkpt lat="46.01154" lon="4.75005">
        <ele>256.60000610352</ele>
        <time>2019-09-13T14:29:24Z</time>
      </trkpt>
      <trkpt lat="46.01144" lon="4.7501">
        <ele>256.60000610352</ele>
        <time>2019-09-13T14:29:27Z</time>
      </trkpt>
      <trkpt lat="46.01139" lon="4.75011">
        <ele>256.60000610352</ele>
        <time>2019-09-13T14:29:28Z</time>
      </trkpt>
      <trkpt lat="46.01131" lon="4.75013">
        <ele>256.60000610352</ele>
        <time>2019-09-13T14:29:30Z</time>
      </trkpt>
      <trkpt lat="46.01108" lon="4.7502">
        <ele>256.39999389648</ele>
        <time>2019-09-13T14:29:35Z</time>
      </trkpt>
      <trkpt lat="46.01074" lon="4.75032">
        <ele>256.20001220703</ele>
        <time>2019-09-13T14:29:42Z</time>
      </trkpt>
      <trkpt lat="46.01041" lon="4.75045">
        <ele>255.80000305176</ele>
        <time>2019-09-13T14:29:49Z</time>
      </trkpt>
      <trkpt lat="46.01016" lon="4.75054">
        <ele>255.80000305176</ele>
        <time>2019-09-13T14:29:54Z</time>
      </trkpt>
      <trkpt lat="46.00971" lon="4.75066">
        <ele>255.80000305176</ele>
        <time>2019-09-13T14:30:03Z</time>
      </trkpt>
      <trkpt lat="46.00938" lon="4.75077">
        <ele>256</ele>
        <time>2019-09-13T14:30:10Z</time>
      </trkpt>
      <trkpt lat="46.0092" lon="4.75077">
        <ele>255.80000305176</ele>
        <time>2019-09-13T14:30:14Z</time>
      </trkpt>
      <trkpt lat="46.00903" lon="4.7508">
        <ele>255.80000305176</ele>
        <time>2019-09-13T14:30:19Z</time>
      </trkpt>
      <trkpt lat="46.00881" lon="4.7508">
        <ele>255.60000610352</ele>
        <time>2019-09-13T14:30:26Z</time>
      </trkpt>
      <trkpt lat="46.00868" lon="4.75082">
        <ele>255.39999389648</ele>
        <time>2019-09-13T14:30:30Z</time>
      </trkpt>
      <trkpt lat="46.00853" lon="4.75078">
        <ele>255.39999389648</ele>
        <time>2019-09-13T14:30:35Z</time>
      </trkpt>
      <trkpt lat="46.00839" lon="4.75079">
        <ele>255.39999389648</ele>
        <time>2019-09-13T14:30:40Z</time>
      </trkpt>
      <trkpt lat="46.00827" lon="4.75079">
        <ele>255.39999389648</ele>
        <time>2019-09-13T14:30:45Z</time>
      </trkpt>
      <trkpt lat="46.00809" lon="4.75073">
        <ele>255.60000610352</ele>
        <time>2019-09-13T14:30:50Z</time>
      </trkpt>
      <trkpt lat="46.00783" lon="4.7507">
        <ele>255.39999389648</ele>
        <time>2019-09-13T14:30:56Z</time>
      </trkpt>
      <trkpt lat="46.0077" lon="4.75066">
        <ele>255.60000610352</ele>
        <time>2019-09-13T14:30:59Z</time>
      </trkpt>
      <trkpt lat="46.00757" lon="4.75064">
        <ele>255.39999389648</ele>
        <time>2019-09-13T14:31:02Z</time>
      </trkpt>
      <trkpt lat="46.00748" lon="4.75062">
        <ele>255.60000610352</ele>
        <time>2019-09-13T14:31:04Z</time>
      </trkpt>
      <trkpt lat="46.00736" lon="4.75064">
        <ele>255.60000610352</ele>
        <time>2019-09-13T14:31:07Z</time>
      </trkpt>
      <trkpt lat="46.00728" lon="4.75063">
        <ele>255.60000610352</ele>
        <time>2019-09-13T14:31:11Z</time>
      </trkpt>
      <trkpt lat="46.00716" lon="4.75063">
        <ele>255.19999694824</ele>
        <time>2019-09-13T14:31:16Z</time>
      </trkpt>
      <trkpt lat="46.00699" lon="4.75062">
        <ele>255.39999389648</ele>
        <time>2019-09-13T14:31:22Z</time>
      </trkpt>
      <trkpt lat="46.00681" lon="4.75064">
        <ele>255.39999389648</ele>
        <time>2019-09-13T14:31:27Z</time>
      </trkpt>
      <trkpt lat="46.00663" lon="4.75062">
        <ele>255.60000610352</ele>
        <time>2019-09-13T14:31:32Z</time>
      </trkpt>
      <trkpt lat="46.00651" lon="4.75064">
        <ele>255.60000610352</ele>
        <time>2019-09-13T14:31:35Z</time>
      </trkpt>
      <trkpt lat="46.00639" lon="4.75065">
        <ele>255.60000610352</ele>
        <time>2019-09-13T14:31:38Z</time>
      </trkpt>
      <trkpt lat="46.00618" lon="4.75065">
        <ele>255.60000610352</ele>
        <time>2019-09-13T14:31:43Z</time>
      </trkpt>
      <trkpt lat="46.00604" lon="4.75067">
        <ele>255.60000610352</ele>
        <time>2019-09-13T14:31:48Z</time>
      </trkpt>
      <trkpt lat="46.0059" lon="4.75067">
        <ele>255.39999389648</ele>
        <time>2019-09-13T14:31:53Z</time>
      </trkpt>
      <trkpt lat="46.0057" lon="4.75066">
        <ele>255.19999694824</ele>
        <time>2019-09-13T14:31:59Z</time>
      </trkpt>
      <trkpt lat="46.00546" lon="4.75064">
        <ele>255.19999694824</ele>
        <time>2019-09-13T14:32:05Z</time>
      </trkpt>
      <trkpt lat="46.00519" lon="4.75062">
        <ele>254.60000610352</ele>
        <time>2019-09-13T14:32:12Z</time>
      </trkpt>
      <trkpt lat="46.00494" lon="4.75065">
        <ele>254.60000610352</ele>
        <time>2019-09-13T14:32:18Z</time>
      </trkpt>
      <trkpt lat="46.00471" lon="4.75067">
        <ele>254.80000305176</ele>
        <time>2019-09-13T14:32:24Z</time>
      </trkpt>
      <trkpt lat="46.00451" lon="4.75066">
        <ele>255.19999694824</ele>
        <time>2019-09-13T14:32:29Z</time>
      </trkpt>
      <trkpt lat="46.00442" lon="4.75066">
        <ele>255.39999389648</ele>
        <time>2019-09-13T14:32:31Z</time>
      </trkpt>
      <trkpt lat="46.00424" lon="4.75064">
        <ele>255.60000610352</ele>
        <time>2019-09-13T14:32:35Z</time>
      </trkpt>
      <trkpt lat="46.00415" lon="4.75062">
        <ele>255.60000610352</ele>
        <time>2019-09-13T14:32:37Z</time>
      </trkpt>
      <trkpt lat="46.00393" lon="4.75061">
        <ele>255.60000610352</ele>
        <time>2019-09-13T14:32:41Z</time>
      </trkpt>
      <trkpt lat="46.00376" lon="4.75063">
        <ele>255.80000305176</ele>
        <time>2019-09-13T14:32:46Z</time>
      </trkpt>
      <trkpt lat="46.00359" lon="4.75059">
        <ele>256.20001220703</ele>
        <time>2019-09-13T14:32:51Z</time>
      </trkpt>
      <trkpt lat="46.00352" lon="4.75054">
        <ele>256.39999389648</ele>
        <time>2019-09-13T14:32:53Z</time>
      </trkpt>
      <trkpt lat="46.00344" lon="4.75051">
        <ele>256.39999389648</ele>
        <time>2019-09-13T14:32:55Z</time>
      </trkpt>
      <trkpt lat="46.00336" lon="4.75048">
        <ele>256.39999389648</ele>
        <time>2019-09-13T14:32:57Z</time>
      </trkpt>
      <trkpt lat="46.00324" lon="4.75041">
        <ele>256.60000610352</ele>
        <time>2019-09-13T14:33:00Z</time>
      </trkpt>
      <trkpt lat="46.00314" lon="4.75042">
        <ele>256.60000610352</ele>
        <time>2019-09-13T14:33:03Z</time>
      </trkpt>
      <trkpt lat="46.00307" lon="4.75043">
        <ele>256.79998779297</ele>
        <time>2019-09-13T14:33:06Z</time>
      </trkpt>
      <trkpt lat="46.00307" lon="4.75042">
        <ele>256.79998779297</ele>
        <time>2019-09-13T14:33:07Z</time>
      </trkpt>
      <trkpt lat="46.00306" lon="4.75039">
        <ele>257</ele>
        <time>2019-09-13T14:33:12Z</time>
      </trkpt>
      <trkpt lat="46.00306" lon="4.75039">
        <ele>257.20001220703</ele>
        <time>2019-09-13T14:33:13Z</time>
      </trkpt>
      <trkpt lat="46.00299" lon="4.75031">
        <ele>257.20001220703</ele>
        <time>2019-09-13T14:33:17Z</time>
      </trkpt>
      <trkpt lat="46.00276" lon="4.75016">
        <ele>257</ele>
        <time>2019-09-13T14:33:23Z</time>
      </trkpt>
      <trkpt lat="46.00254" lon="4.75002">
        <ele>257</ele>
        <time>2019-09-13T14:33:28Z</time>
      </trkpt>
      <trkpt lat="46.00244" lon="4.74998">
        <ele>257</ele>
        <time>2019-09-13T14:33:30Z</time>
      </trkpt>
      <trkpt lat="46.00215" lon="4.74983">
        <ele>257</ele>
        <time>2019-09-13T14:33:37Z</time>
      </trkpt>
      <trkpt lat="46.00203" lon="4.74976">
        <ele>257</ele>
        <time>2019-09-13T14:33:42Z</time>
      </trkpt>
      <trkpt lat="46.00198" lon="4.74978">
        <ele>257</ele>
        <time>2019-09-13T14:33:44Z</time>
      </trkpt>
      <trkpt lat="46.00195" lon="4.74981">
        <ele>257</ele>
        <time>2019-09-13T14:33:45Z</time>
      </trkpt>
      <trkpt lat="46.00175" lon="4.75">
        <ele>256.79998779297</ele>
        <time>2019-09-13T14:33:50Z</time>
      </trkpt>
      <trkpt lat="46.00165" lon="4.75003">
        <ele>256.79998779297</ele>
        <time>2019-09-13T14:33:52Z</time>
      </trkpt>
      <trkpt lat="46.00147" lon="4.75007">
        <ele>256.79998779297</ele>
        <time>2019-09-13T14:33:56Z</time>
      </trkpt>
      <trkpt lat="46.00123" lon="4.75013">
        <ele>257</ele>
        <time>2019-09-13T14:34:01Z</time>
      </trkpt>
      <trkpt lat="46.00118" lon="4.75014">
        <ele>257</ele>
        <time>2019-09-13T14:34:02Z</time>
      </trkpt>
      <trkpt lat="46.00107" lon="4.75016">
        <ele>257.20001220703</ele>
        <time>2019-09-13T14:34:04Z</time>
      </trkpt>
      <trkpt lat="46.00092" lon="4.7502">
        <ele>257.20001220703</ele>
        <time>2019-09-13T14:34:07Z</time>
      </trkpt>
      <trkpt lat="46.00087" lon="4.7502">
        <ele>257.39999389648</ele>
        <time>2019-09-13T14:34:08Z</time>
      </trkpt>
      <trkpt lat="46.00056" lon="4.75021">
        <ele>257.39999389648</ele>
        <time>2019-09-13T14:34:14Z</time>
      </trkpt>
      <trkpt lat="46.00045" lon="4.75018">
        <ele>257.39999389648</ele>
        <time>2019-09-13T14:34:16Z</time>
      </trkpt>
      <trkpt lat="46.00033" lon="4.75016">
        <ele>257.39999389648</ele>
        <time>2019-09-13T14:34:19Z</time>
      </trkpt>
      <trkpt lat="46.00029" lon="4.75018">
        <ele>257.20001220703</ele>
        <time>2019-09-13T14:34:20Z</time>
      </trkpt>
      <trkpt lat="46.00023" lon="4.75025">
        <ele>256.60000610352</ele>
        <time>2019-09-13T14:34:22Z</time>
      </trkpt>
      <trkpt lat="46.0001" lon="4.75031">
        <ele>256.39999389648</ele>
        <time>2019-09-13T14:34:25Z</time>
      </trkpt>
      <trkpt lat="46.00005" lon="4.75033">
        <ele>256.20001220703</ele>
        <time>2019-09-13T14:34:26Z</time>
      </trkpt>
      <trkpt lat="45.99979" lon="4.75043">
        <ele>256</ele>
        <time>2019-09-13T14:34:31Z</time>
      </trkpt>
      <trkpt lat="45.99969" lon="4.75047">
        <ele>256</ele>
        <time>2019-09-13T14:34:33Z</time>
      </trkpt>
      <trkpt lat="45.99929" lon="4.75063">
        <ele>256</ele>
        <time>2019-09-13T14:34:41Z</time>
      </trkpt>
      <trkpt lat="45.9989" lon="4.75079">
        <ele>256.20001220703</ele>
        <time>2019-09-13T14:34:48Z</time>
      </trkpt>
      <trkpt lat="45.99852" lon="4.75092">
        <ele>256.20001220703</ele>
        <time>2019-09-13T14:34:55Z</time>
      </trkpt>
      <trkpt lat="45.9982" lon="4.75104">
        <ele>256.20001220703</ele>
        <time>2019-09-13T14:35:01Z</time>
      </trkpt>
      <trkpt lat="45.99804" lon="4.75108">
        <ele>256.20001220703</ele>
        <time>2019-09-13T14:35:04Z</time>
      </trkpt>
      <trkpt lat="45.99794" lon="4.75114">
        <ele>256.20001220703</ele>
        <time>2019-09-13T14:35:06Z</time>
      </trkpt>
      <trkpt lat="45.99779" lon="4.75131">
        <ele>256.20001220703</ele>
        <time>2019-09-13T14:35:10Z</time>
      </trkpt>
      <trkpt lat="45.99765" lon="4.75135">
        <ele>256.20001220703</ele>
        <time>2019-09-13T14:35:13Z</time>
      </trkpt>
      <trkpt lat="45.99759" lon="4.75137">
        <ele>256.20001220703</ele>
        <time>2019-09-13T14:35:14Z</time>
      </trkpt>
      <trkpt lat="45.99725" lon="4.75146">
        <ele>256.39999389648</ele>
        <time>2019-09-13T14:35:20Z</time>
      </trkpt>
      <trkpt lat="45.99684" lon="4.75155">
        <ele>256.60000610352</ele>
        <time>2019-09-13T14:35:27Z</time>
      </trkpt>
      <trkpt lat="45.99649" lon="4.75162">
        <ele>256.79998779297</ele>
        <time>2019-09-13T14:35:33Z</time>
      </trkpt>
      <trkpt lat="45.99631" lon="4.75153">
        <ele>256.79998779297</ele>
        <time>2019-09-13T14:35:37Z</time>
      </trkpt>
      <trkpt lat="45.99617" lon="4.75139">
        <ele>256.79998779297</ele>
        <time>2019-09-13T14:35:42Z</time>
      </trkpt>
      <trkpt lat="45.99601" lon="4.7514">
        <ele>256.60000610352</ele>
        <time>2019-09-13T14:35:47Z</time>
      </trkpt>
      <trkpt lat="45.9958" lon="4.75145">
        <ele>256.39999389648</ele>
        <time>2019-09-13T14:35:52Z</time>
      </trkpt>
      <trkpt lat="45.99567" lon="4.75165">
        <ele>256.20001220703</ele>
        <time>2019-09-13T14:35:56Z</time>
      </trkpt>
      <trkpt lat="45.9955" lon="4.75188">
        <ele>256.20001220703</ele>
        <time>2019-09-13T14:36:01Z</time>
      </trkpt>
      <trkpt lat="45.9954" lon="4.75191">
        <ele>256.20001220703</ele>
        <time>2019-09-13T14:36:03Z</time>
      </trkpt>
      <trkpt lat="45.99524" lon="4.75197">
        <ele>256.20001220703</ele>
        <time>2019-09-13T14:36:06Z</time>
      </trkpt>
      <trkpt lat="45.99505" lon="4.75203">
        <ele>256.20001220703</ele>
        <time>2019-09-13T14:36:10Z</time>
      </trkpt>
      <trkpt lat="45.99485" lon="4.7521">
        <ele>256.20001220703</ele>
        <time>2019-09-13T14:36:14Z</time>
      </trkpt>
      <trkpt lat="45.9948" lon="4.75211">
        <ele>256.20001220703</ele>
        <time>2019-09-13T14:36:15Z</time>
      </trkpt>
      <trkpt lat="45.99457" lon="4.75214">
        <ele>256.20001220703</ele>
        <time>2019-09-13T14:36:19Z</time>
      </trkpt>
      <trkpt lat="45.99424" lon="4.75221">
        <ele>256.20001220703</ele>
        <time>2019-09-13T14:36:25Z</time>
      </trkpt>
      <trkpt lat="45.99392" lon="4.75222">
        <ele>256.39999389648</ele>
        <time>2019-09-13T14:36:32Z</time>
      </trkpt>
      <trkpt lat="45.99363" lon="4.75223">
        <ele>256.39999389648</ele>
        <time>2019-09-13T14:36:38Z</time>
      </trkpt>
      <trkpt lat="45.99339" lon="4.75221">
        <ele>256.39999389648</ele>
        <time>2019-09-13T14:36:42Z</time>
      </trkpt>
      <trkpt lat="45.99333" lon="4.75221">
        <ele>256.39999389648</ele>
        <time>2019-09-13T14:36:43Z</time>
      </trkpt>
      <trkpt lat="45.9931" lon="4.75223">
        <ele>256.39999389648</ele>
        <time>2019-09-13T14:36:48Z</time>
      </trkpt>
      <trkpt lat="45.99285" lon="4.7522">
        <ele>255.80000305176</ele>
        <time>2019-09-13T14:36:53Z</time>
      </trkpt>
      <trkpt lat="45.9928" lon="4.75219">
        <ele>255.80000305176</ele>
        <time>2019-09-13T14:36:54Z</time>
      </trkpt>
      <trkpt lat="45.9924" lon="4.75214">
        <ele>255.60000610352</ele>
        <time>2019-09-13T14:37:01Z</time>
      </trkpt>
      <trkpt lat="45.99212" lon="4.75207">
        <ele>255.60000610352</ele>
        <time>2019-09-13T14:37:06Z</time>
      </trkpt>
      <trkpt lat="45.99206" lon="4.75205">
        <ele>255.60000610352</ele>
        <time>2019-09-13T14:37:07Z</time>
      </trkpt>
      <trkpt lat="45.99169" lon="4.75199">
        <ele>255.60000610352</ele>
        <time>2019-09-13T14:37:13Z</time>
      </trkpt>
      <trkpt lat="45.99135" lon="4.75193">
        <ele>255.80000305176</ele>
        <time>2019-09-13T14:37:19Z</time>
      </trkpt>
      <trkpt lat="45.99102" lon="4.7519">
        <ele>256</ele>
        <time>2019-09-13T14:37:25Z</time>
      </trkpt>
      <trkpt lat="45.99061" lon="4.75191">
        <ele>256.20001220703</ele>
        <time>2019-09-13T14:37:32Z</time>
      </trkpt>
      <trkpt lat="45.99051" lon="4.7519">
        <ele>256.20001220703</ele>
        <time>2019-09-13T14:37:34Z</time>
      </trkpt>
      <trkpt lat="45.99036" lon="4.75191">
        <ele>256.20001220703</ele>
        <time>2019-09-13T14:37:37Z</time>
      </trkpt>
      <trkpt lat="45.98999" lon="4.75195">
        <ele>256</ele>
        <time>2019-09-13T14:37:43Z</time>
      </trkpt>
      <trkpt lat="45.98963" lon="4.75194">
        <ele>256</ele>
        <time>2019-09-13T14:37:49Z</time>
      </trkpt>
      <trkpt lat="45.98939" lon="4.75195">
        <ele>256</ele>
        <time>2019-09-13T14:37:53Z</time>
      </trkpt>
      <trkpt lat="45.98927" lon="4.75198">
        <ele>256</ele>
        <time>2019-09-13T14:37:55Z</time>
      </trkpt>
      <trkpt lat="45.98899" lon="4.75206">
        <ele>256</ele>
        <time>2019-09-13T14:38:00Z</time>
      </trkpt>
      <trkpt lat="45.98893" lon="4.75206">
        <ele>255.80000305176</ele>
        <time>2019-09-13T14:38:01Z</time>
      </trkpt>
      <trkpt lat="45.98858" lon="4.75211">
        <ele>255.80000305176</ele>
        <time>2019-09-13T14:38:07Z</time>
      </trkpt>
      <trkpt lat="45.98804" lon="4.75216">
        <ele>256</ele>
        <time>2019-09-13T14:38:16Z</time>
      </trkpt>
      <trkpt lat="45.98765" lon="4.75216">
        <ele>256.20001220703</ele>
        <time>2019-09-13T14:38:23Z</time>
      </trkpt>
      <trkpt lat="45.98751" lon="4.75216">
        <ele>256</ele>
        <time>2019-09-13T14:38:26Z</time>
      </trkpt>
      <trkpt lat="45.98743" lon="4.75217">
        <ele>256</ele>
        <time>2019-09-13T14:38:28Z</time>
      </trkpt>
      <trkpt lat="45.98726" lon="4.75213">
        <ele>256</ele>
        <time>2019-09-13T14:38:33Z</time>
      </trkpt>
      <trkpt lat="45.9872" lon="4.75213">
        <ele>256</ele>
        <time>2019-09-13T14:38:36Z</time>
      </trkpt>
      <trkpt lat="45.98719" lon="4.75214">
        <ele>256</ele>
        <time>2019-09-13T14:38:37Z</time>
      </trkpt>
      <trkpt lat="45.98719" lon="4.75221">
        <ele>256</ele>
        <time>2019-09-13T14:38:42Z</time>
      </trkpt>
      <trkpt lat="45.98717" lon="4.75219">
        <ele>256</ele>
        <time>2019-09-13T14:38:47Z</time>
      </trkpt>
      <trkpt lat="45.98717" lon="4.75217">
        <ele>256</ele>
        <time>2019-09-13T14:38:48Z</time>
      </trkpt>
      <trkpt lat="45.98713" lon="4.75211">
        <ele>256</ele>
        <time>2019-09-13T14:38:52Z</time>
      </trkpt>
      <trkpt lat="45.98704" lon="4.75219">
        <ele>256</ele>
        <time>2019-09-13T14:38:55Z</time>
      </trkpt>
      <trkpt lat="45.98703" lon="4.75234">
        <ele>256</ele>
        <time>2019-09-13T14:38:58Z</time>
      </trkpt>
      <trkpt lat="45.98705" lon="4.75268">
        <ele>256</ele>
        <time>2019-09-13T14:39:04Z</time>
      </trkpt>
      <trkpt lat="45.98705" lon="4.75274">
        <ele>256</ele>
        <time>2019-09-13T14:39:05Z</time>
      </trkpt>
      <trkpt lat="45.98704" lon="4.75286">
        <ele>256.39999389648</ele>
        <time>2019-09-13T14:39:07Z</time>
      </trkpt>
      <trkpt lat="45.98704" lon="4.75299">
        <ele>256.60000610352</ele>
        <time>2019-09-13T14:39:09Z</time>
      </trkpt>
      <trkpt lat="45.98703" lon="4.75318">
        <ele>257</ele>
        <time>2019-09-13T14:39:12Z</time>
      </trkpt>
      <trkpt lat="45.98703" lon="4.75324">
        <ele>257.20001220703</ele>
        <time>2019-09-13T14:39:13Z</time>
      </trkpt>
      <trkpt lat="45.98703" lon="4.75351">
        <ele>257.39999389648</ele>
        <time>2019-09-13T14:39:17Z</time>
      </trkpt>
      <trkpt lat="45.98701" lon="4.75364">
        <ele>257.60000610352</ele>
        <time>2019-09-13T14:39:19Z</time>
      </trkpt>
      <trkpt lat="45.98699" lon="4.75389">
        <ele>258.20001220703</ele>
        <time>2019-09-13T14:39:24Z</time>
      </trkpt>
      <trkpt lat="45.98695" lon="4.75396">
        <ele>258.39999389648</ele>
        <time>2019-09-13T14:39:26Z</time>
      </trkpt>
      <trkpt lat="45.98686" lon="4.75404">
        <ele>258.60000610352</ele>
        <time>2019-09-13T14:39:29Z</time>
      </trkpt>
      <trkpt lat="45.98668" lon="4.7541">
        <ele>259</ele>
        <time>2019-09-13T14:39:33Z</time>
      </trkpt>
      <trkpt lat="45.98648" lon="4.75415">
        <ele>259.20001220703</ele>
        <time>2019-09-13T14:39:37Z</time>
      </trkpt>
      <trkpt lat="45.98621" lon="4.7542">
        <ele>259.20001220703</ele>
        <time>2019-09-13T14:39:42Z</time>
      </trkpt>
      <trkpt lat="45.98584" lon="4.75428">
        <ele>259.20001220703</ele>
        <time>2019-09-13T14:39:49Z</time>
      </trkpt>
      <trkpt lat="45.98568" lon="4.75432">
        <ele>259.20001220703</ele>
        <time>2019-09-13T14:39:54Z</time>
      </trkpt>
      <trkpt lat="45.98567" lon="4.75432">
        <ele>259.20001220703</ele>
        <time>2019-09-13T14:39:57Z</time>
      </trkpt>
      <trkpt lat="45.98564" lon="4.75432">
        <ele>259.20001220703</ele>
        <time>2019-09-13T14:40:05Z</time>
      </trkpt>
      <trkpt lat="45.98564" lon="4.7543">
        <ele>259.20001220703</ele>
        <time>2019-09-13T14:40:06Z</time>
      </trkpt>
      <trkpt lat="45.98562" lon="4.75418">
        <ele>259.20001220703</ele>
        <time>2019-09-13T14:40:09Z</time>
      </trkpt>
      <trkpt lat="45.98557" lon="4.75389">
        <ele>259.20001220703</ele>
        <time>2019-09-13T14:40:14Z</time>
      </trkpt>
      <trkpt lat="45.98553" lon="4.75373">
        <ele>259.20001220703</ele>
        <time>2019-09-13T14:40:17Z</time>
      </trkpt>
      <trkpt lat="45.98547" lon="4.75351">
        <ele>259.20001220703</ele>
        <time>2019-09-13T14:40:21Z</time>
      </trkpt>
      <trkpt lat="45.98546" lon="4.75345">
        <ele>259.20001220703</ele>
        <time>2019-09-13T14:40:22Z</time>
      </trkpt>
      <trkpt lat="45.98541" lon="4.75326">
        <ele>259.20001220703</ele>
        <time>2019-09-13T14:40:26Z</time>
      </trkpt>
      <trkpt lat="45.98539" lon="4.75315">
        <ele>259.39999389648</ele>
        <time>2019-09-13T14:40:28Z</time>
      </trkpt>
      <trkpt lat="45.98535" lon="4.75303">
        <ele>259.39999389648</ele>
        <time>2019-09-13T14:40:30Z</time>
      </trkpt>
      <trkpt lat="45.98521" lon="4.753">
        <ele>259.39999389648</ele>
        <time>2019-09-13T14:40:33Z</time>
      </trkpt>
      <trkpt lat="45.985" lon="4.75308">
        <ele>259.39999389648</ele>
        <time>2019-09-13T14:40:37Z</time>
      </trkpt>
      <trkpt lat="45.98494" lon="4.75308">
        <ele>259.39999389648</ele>
        <time>2019-09-13T14:40:38Z</time>
      </trkpt>
      <trkpt lat="45.98453" lon="4.75303">
        <ele>259.39999389648</ele>
        <time>2019-09-13T14:40:45Z</time>
      </trkpt>
      <trkpt lat="45.98403" lon="4.75302">
        <ele>259.39999389648</ele>
        <time>2019-09-13T14:40:53Z</time>
      </trkpt>
      <trkpt lat="45.98358" lon="4.75312">
        <ele>259.39999389648</ele>
        <time>2019-09-13T14:41:00Z</time>
      </trkpt>
      <trkpt lat="45.98299" lon="4.75331">
        <ele>259.20001220703</ele>
        <time>2019-09-13T14:41:09Z</time>
      </trkpt>
      <trkpt lat="45.98269" lon="4.75337">
        <ele>259</ele>
        <time>2019-09-13T14:41:13Z</time>
      </trkpt>
      <trkpt lat="45.98262" lon="4.75336">
        <ele>258.79998779297</ele>
        <time>2019-09-13T14:41:14Z</time>
      </trkpt>
      <trkpt lat="45.98225" lon="4.75324">
        <ele>258.60000610352</ele>
        <time>2019-09-13T14:41:19Z</time>
      </trkpt>
      <trkpt lat="45.98203" lon="4.75318">
        <ele>258.39999389648</ele>
        <time>2019-09-13T14:41:22Z</time>
      </trkpt>
      <trkpt lat="45.98195" lon="4.75318">
        <ele>258.20001220703</ele>
        <time>2019-09-13T14:41:23Z</time>
      </trkpt>
      <trkpt lat="45.98187" lon="4.7532">
        <ele>258.20001220703</ele>
        <time>2019-09-13T14:41:24Z</time>
      </trkpt>
      <trkpt lat="45.98172" lon="4.75326">
        <ele>258</ele>
        <time>2019-09-13T14:41:26Z</time>
      </trkpt>
      <trkpt lat="45.98144" lon="4.75341">
        <ele>257.79998779297</ele>
        <time>2019-09-13T14:41:30Z</time>
      </trkpt>
      <trkpt lat="45.98087" lon="4.75373">
        <ele>257.39999389648</ele>
        <time>2019-09-13T14:41:38Z</time>
      </trkpt>
      <trkpt lat="45.9808" lon="4.75377">
        <ele>257.39999389648</ele>
        <time>2019-09-13T14:41:39Z</time>
      </trkpt>
      <trkpt lat="45.98065" lon="4.75385">
        <ele>257</ele>
        <time>2019-09-13T14:41:41Z</time>
      </trkpt>
      <trkpt lat="45.98013" lon="4.75414">
        <ele>256.79998779297</ele>
        <time>2019-09-13T14:41:48Z</time>
      </trkpt>
      <trkpt lat="45.97962" lon="4.75446">
        <ele>256.79998779297</ele>
        <time>2019-09-13T14:41:55Z</time>
      </trkpt>
      <trkpt lat="45.97955" lon="4.7545">
        <ele>256.79998779297</ele>
        <time>2019-09-13T14:41:56Z</time>
      </trkpt>
      <trkpt lat="45.97908" lon="4.75476">
        <ele>256.79998779297</ele>
        <time>2019-09-13T14:42:03Z</time>
      </trkpt>
      <trkpt lat="45.97857" lon="4.75509">
        <ele>256.60000610352</ele>
        <time>2019-09-13T14:42:11Z</time>
      </trkpt>
      <trkpt lat="45.97805" lon="4.75542">
        <ele>256.79998779297</ele>
        <time>2019-09-13T14:42:19Z</time>
      </trkpt>
      <trkpt lat="45.97791" lon="4.7555">
        <ele>256.79998779297</ele>
        <time>2019-09-13T14:42:21Z</time>
      </trkpt>
      <trkpt lat="45.97736" lon="4.75582">
        <ele>256.79998779297</ele>
        <time>2019-09-13T14:42:29Z</time>
      </trkpt>
      <trkpt lat="45.97722" lon="4.75589">
        <ele>256.79998779297</ele>
        <time>2019-09-13T14:42:31Z</time>
      </trkpt>
      <trkpt lat="45.97695" lon="4.75603">
        <ele>256.79998779297</ele>
        <time>2019-09-13T14:42:35Z</time>
      </trkpt>
      <trkpt lat="45.97647" lon="4.75625">
        <ele>256.79998779297</ele>
        <time>2019-09-13T14:42:42Z</time>
      </trkpt>
      <trkpt lat="45.97601" lon="4.75639">
        <ele>256.79998779297</ele>
        <time>2019-09-13T14:42:49Z</time>
      </trkpt>
      <trkpt lat="45.97581" lon="4.75643">
        <ele>257</ele>
        <time>2019-09-13T14:42:52Z</time>
      </trkpt>
      <trkpt lat="45.97575" lon="4.75647">
        <ele>257</ele>
        <time>2019-09-13T14:42:53Z</time>
      </trkpt>
      <trkpt lat="45.97552" lon="4.75663">
        <ele>257</ele>
        <time>2019-09-13T14:42:57Z</time>
      </trkpt>
      <trkpt lat="45.97539" lon="4.75659">
        <ele>257</ele>
        <time>2019-09-13T14:42:59Z</time>
      </trkpt>
      <trkpt lat="45.97532" lon="4.75658">
        <ele>257.20001220703</ele>
        <time>2019-09-13T14:43:00Z</time>
      </trkpt>
      <trkpt lat="45.97525" lon="4.75659">
        <ele>257.20001220703</ele>
        <time>2019-09-13T14:43:01Z</time>
      </trkpt>
      <trkpt lat="45.97492" lon="4.75673">
        <ele>257.39999389648</ele>
        <time>2019-09-13T14:43:06Z</time>
      </trkpt>
      <trkpt lat="45.97445" lon="4.75679">
        <ele>257.39999389648</ele>
        <time>2019-09-13T14:43:13Z</time>
      </trkpt>
      <trkpt lat="45.97385" lon="4.75681">
        <ele>257.79998779297</ele>
        <time>2019-09-13T14:43:22Z</time>
      </trkpt>
      <trkpt lat="45.97327" lon="4.75677">
        <ele>257.79998779297</ele>
        <time>2019-09-13T14:43:31Z</time>
      </trkpt>
      <trkpt lat="45.97276" lon="4.75668">
        <ele>257.60000610352</ele>
        <time>2019-09-13T14:43:39Z</time>
      </trkpt>
      <trkpt lat="45.97223" lon="4.75653">
        <ele>257.60000610352</ele>
        <time>2019-09-13T14:43:47Z</time>
      </trkpt>
      <trkpt lat="45.97165" lon="4.7563">
        <ele>257.60000610352</ele>
        <time>2019-09-13T14:43:56Z</time>
      </trkpt>
      <trkpt lat="45.97125" lon="4.7561">
        <ele>257.60000610352</ele>
        <time>2019-09-13T14:44:02Z</time>
      </trkpt>
      <trkpt lat="45.9707" lon="4.75586">
        <ele>257.79998779297</ele>
        <time>2019-09-13T14:44:10Z</time>
      </trkpt>
      <trkpt lat="45.97057" lon="4.75581">
        <ele>257.79998779297</ele>
        <time>2019-09-13T14:44:12Z</time>
      </trkpt>
      <trkpt lat="45.97003" lon="4.75556">
        <ele>257.79998779297</ele>
        <time>2019-09-13T14:44:20Z</time>
      </trkpt>
      <trkpt lat="45.96948" lon="4.75534">
        <ele>258</ele>
        <time>2019-09-13T14:44:28Z</time>
      </trkpt>
      <trkpt lat="45.96942" lon="4.75532">
        <ele>258</ele>
        <time>2019-09-13T14:44:29Z</time>
      </trkpt>
      <trkpt lat="45.96888" lon="4.75512">
        <ele>258</ele>
        <time>2019-09-13T14:44:37Z</time>
      </trkpt>
      <trkpt lat="45.96861" lon="4.75502">
        <ele>258</ele>
        <time>2019-09-13T14:44:41Z</time>
      </trkpt>
      <trkpt lat="45.96807" lon="4.75482">
        <ele>257.79998779297</ele>
        <time>2019-09-13T14:44:49Z</time>
      </trkpt>
      <trkpt lat="45.96776" lon="4.75468">
        <ele>257.79998779297</ele>
        <time>2019-09-13T14:44:54Z</time>
      </trkpt>
      <trkpt lat="45.96771" lon="4.75464">
        <ele>257.79998779297</ele>
        <time>2019-09-13T14:44:55Z</time>
      </trkpt>
      <trkpt lat="45.96745" lon="4.75438">
        <ele>257.79998779297</ele>
        <time>2019-09-13T14:45:00Z</time>
      </trkpt>
      <trkpt lat="45.96722" lon="4.75422">
        <ele>257.39999389648</ele>
        <time>2019-09-13T14:45:04Z</time>
      </trkpt>
      <trkpt lat="45.96716" lon="4.75418">
        <ele>257</ele>
        <time>2019-09-13T14:45:05Z</time>
      </trkpt>
      <trkpt lat="45.967" lon="4.75407">
        <ele>256.20001220703</ele>
        <time>2019-09-13T14:45:08Z</time>
      </trkpt>
      <trkpt lat="45.96684" lon="4.75396">
        <ele>256</ele>
        <time>2019-09-13T14:45:11Z</time>
      </trkpt>
      <trkpt lat="45.96648" lon="4.75369">
        <ele>255.80000305176</ele>
        <time>2019-09-13T14:45:18Z</time>
      </trkpt>
      <trkpt lat="45.96607" lon="4.75341">
        <ele>256</ele>
        <time>2019-09-13T14:45:26Z</time>
      </trkpt>
      <trkpt lat="45.9658" lon="4.75317">
        <ele>256</ele>
        <time>2019-09-13T14:45:31Z</time>
      </trkpt>
      <trkpt lat="45.96544" lon="4.75284">
        <ele>255.60000610352</ele>
        <time>2019-09-13T14:45:38Z</time>
      </trkpt>
      <trkpt lat="45.96507" lon="4.75254">
        <ele>255.39999389648</ele>
        <time>2019-09-13T14:45:45Z</time>
      </trkpt>
      <trkpt lat="45.96465" lon="4.75219">
        <ele>255.60000610352</ele>
        <time>2019-09-13T14:45:53Z</time>
      </trkpt>
      <trkpt lat="45.96429" lon="4.75188">
        <ele>255.60000610352</ele>
        <time>2019-09-13T14:46:00Z</time>
      </trkpt>
      <trkpt lat="45.96393" lon="4.75159">
        <ele>255.60000610352</ele>
        <time>2019-09-13T14:46:07Z</time>
      </trkpt>
      <trkpt lat="45.96348" lon="4.75114">
        <ele>255.80000305176</ele>
        <time>2019-09-13T14:46:16Z</time>
      </trkpt>
      <trkpt lat="45.96323" lon="4.7509">
        <ele>255.80000305176</ele>
        <time>2019-09-13T14:46:21Z</time>
      </trkpt>
      <trkpt lat="45.96318" lon="4.75086">
        <ele>255.80000305176</ele>
        <time>2019-09-13T14:46:22Z</time>
      </trkpt>
      <trkpt lat="45.96307" lon="4.75079">
        <ele>255.60000610352</ele>
        <time>2019-09-13T14:46:24Z</time>
      </trkpt>
      <trkpt lat="45.96286" lon="4.75066">
        <ele>255.60000610352</ele>
        <time>2019-09-13T14:46:28Z</time>
      </trkpt>
      <trkpt lat="45.96267" lon="4.75049">
        <ele>255.60000610352</ele>
        <time>2019-09-13T14:46:32Z</time>
      </trkpt>
      <trkpt lat="45.96239" lon="4.75021">
        <ele>255.60000610352</ele>
        <time>2019-09-13T14:46:38Z</time>
      </trkpt>
      <trkpt lat="45.96198" lon="4.74986">
        <ele>255.60000610352</ele>
        <time>2019-09-13T14:46:46Z</time>
      </trkpt>
      <trkpt lat="45.96169" lon="4.74964">
        <ele>255.39999389648</ele>
        <time>2019-09-13T14:46:52Z</time>
      </trkpt>
      <trkpt lat="45.96142" lon="4.74936">
        <ele>255.80000305176</ele>
        <time>2019-09-13T14:46:58Z</time>
      </trkpt>
      <trkpt lat="45.96122" lon="4.74911">
        <ele>255.80000305176</ele>
        <time>2019-09-13T14:47:03Z</time>
      </trkpt>
      <trkpt lat="45.96093" lon="4.74872">
        <ele>256</ele>
        <time>2019-09-13T14:47:10Z</time>
      </trkpt>
      <trkpt lat="45.96081" lon="4.74856">
        <ele>256</ele>
        <time>2019-09-13T14:47:13Z</time>
      </trkpt>
      <trkpt lat="45.96072" lon="4.74848">
        <ele>256</ele>
        <time>2019-09-13T14:47:15Z</time>
      </trkpt>
      <trkpt lat="45.96048" lon="4.74821">
        <ele>256.20001220703</ele>
        <time>2019-09-13T14:47:21Z</time>
      </trkpt>
      <trkpt lat="45.96019" lon="4.74785">
        <ele>256.39999389648</ele>
        <time>2019-09-13T14:47:28Z</time>
      </trkpt>
      <trkpt lat="45.96008" lon="4.7477">
        <ele>256.39999389648</ele>
        <time>2019-09-13T14:47:31Z</time>
      </trkpt>
      <trkpt lat="45.95997" lon="4.74752">
        <ele>256.60000610352</ele>
        <time>2019-09-13T14:47:34Z</time>
      </trkpt>
      <trkpt lat="45.95985" lon="4.74737">
        <ele>256.60000610352</ele>
        <time>2019-09-13T14:47:37Z</time>
      </trkpt>
      <trkpt lat="45.95975" lon="4.74718">
        <ele>256.79998779297</ele>
        <time>2019-09-13T14:47:40Z</time>
      </trkpt>
      <trkpt lat="45.95968" lon="4.74705">
        <ele>257</ele>
        <time>2019-09-13T14:47:42Z</time>
      </trkpt>
      <trkpt lat="45.9595" lon="4.7468">
        <ele>257</ele>
        <time>2019-09-13T14:47:46Z</time>
      </trkpt>
      <trkpt lat="45.95923" lon="4.74637">
        <ele>256.79998779297</ele>
        <time>2019-09-13T14:47:53Z</time>
      </trkpt>
      <trkpt lat="45.95898" lon="4.74591">
        <ele>256.79998779297</ele>
        <time>2019-09-13T14:48:00Z</time>
      </trkpt>
      <trkpt lat="45.95869" lon="4.74537">
        <ele>256.60000610352</ele>
        <time>2019-09-13T14:48:08Z</time>
      </trkpt>
      <trkpt lat="45.9584" lon="4.74482">
        <ele>256.60000610352</ele>
        <time>2019-09-13T14:48:16Z</time>
      </trkpt>
      <trkpt lat="45.95815" lon="4.74437">
        <ele>256.39999389648</ele>
        <time>2019-09-13T14:48:23Z</time>
      </trkpt>
      <trkpt lat="45.95789" lon="4.74393">
        <ele>256.39999389648</ele>
        <time>2019-09-13T14:48:30Z</time>
      </trkpt>
      <trkpt lat="45.95762" lon="4.74343">
        <ele>256.20001220703</ele>
        <time>2019-09-13T14:48:38Z</time>
      </trkpt>
      <trkpt lat="45.95741" lon="4.74308">
        <ele>256.20001220703</ele>
        <time>2019-09-13T14:48:44Z</time>
      </trkpt>
      <trkpt lat="45.95737" lon="4.74303">
        <ele>256.20001220703</ele>
        <time>2019-09-13T14:48:45Z</time>
      </trkpt>
      <trkpt lat="45.95733" lon="4.74297">
        <ele>256.20001220703</ele>
        <time>2019-09-13T14:48:46Z</time>
      </trkpt>
      <trkpt lat="45.95716" lon="4.74264">
        <ele>256.20001220703</ele>
        <time>2019-09-13T14:48:51Z</time>
      </trkpt>
      <trkpt lat="45.95693" lon="4.74223">
        <ele>256.20001220703</ele>
        <time>2019-09-13T14:48:57Z</time>
      </trkpt>
      <trkpt lat="45.95657" lon="4.74164">
        <ele>256.39999389648</ele>
        <time>2019-09-13T14:49:06Z</time>
      </trkpt>
      <trkpt lat="45.95653" lon="4.74158">
        <ele>256.39999389648</ele>
        <time>2019-09-13T14:49:07Z</time>
      </trkpt>
      <trkpt lat="45.95624" lon="4.74114">
        <ele>256.39999389648</ele>
        <time>2019-09-13T14:49:14Z</time>
      </trkpt>
      <trkpt lat="45.9562" lon="4.74107">
        <ele>256.39999389648</ele>
        <time>2019-09-13T14:49:15Z</time>
      </trkpt>
      <trkpt lat="45.95585" lon="4.74052">
        <ele>256.20001220703</ele>
        <time>2019-09-13T14:49:24Z</time>
      </trkpt>
      <trkpt lat="45.9556" lon="4.74016">
        <ele>256.20001220703</ele>
        <time>2019-09-13T14:49:30Z</time>
      </trkpt>
      <trkpt lat="45.95526" lon="4.73957">
        <ele>256.20001220703</ele>
        <time>2019-09-13T14:49:39Z</time>
      </trkpt>
      <trkpt lat="45.95517" lon="4.73946">
        <ele>256.20001220703</ele>
        <time>2019-09-13T14:49:41Z</time>
      </trkpt>
      <trkpt lat="45.95506" lon="4.7393">
        <ele>256.20001220703</ele>
        <time>2019-09-13T14:49:44Z</time>
      </trkpt>
      <trkpt lat="45.95491" lon="4.73909">
        <ele>256.20001220703</ele>
        <time>2019-09-13T14:49:48Z</time>
      </trkpt>
      <trkpt lat="45.95484" lon="4.73897">
        <ele>256.20001220703</ele>
        <time>2019-09-13T14:49:50Z</time>
      </trkpt>
      <trkpt lat="45.95459" lon="4.73853">
        <ele>256.39999389648</ele>
        <time>2019-09-13T14:49:57Z</time>
      </trkpt>
      <trkpt lat="45.95435" lon="4.73815">
        <ele>256.39999389648</ele>
        <time>2019-09-13T14:50:03Z</time>
      </trkpt>
      <trkpt lat="45.95397" lon="4.73761">
        <ele>256.20001220703</ele>
        <time>2019-09-13T14:50:12Z</time>
      </trkpt>
      <trkpt lat="45.95366" lon="4.73715">
        <ele>256.20001220703</ele>
        <time>2019-09-13T14:50:20Z</time>
      </trkpt>
      <trkpt lat="45.95342" lon="4.73685">
        <ele>256.20001220703</ele>
        <time>2019-09-13T14:50:27Z</time>
      </trkpt>
      <trkpt lat="45.9532" lon="4.73658">
        <ele>256.60000610352</ele>
        <time>2019-09-13T14:50:33Z</time>
      </trkpt>
      <trkpt lat="45.95292" lon="4.73618">
        <ele>256.79998779297</ele>
        <time>2019-09-13T14:50:40Z</time>
      </trkpt>
      <trkpt lat="45.95255" lon="4.73576">
        <ele>256.79998779297</ele>
        <time>2019-09-13T14:50:48Z</time>
      </trkpt>
      <trkpt lat="45.95243" lon="4.73559">
        <ele>257</ele>
        <time>2019-09-13T14:50:51Z</time>
      </trkpt>
      <trkpt lat="45.95236" lon="4.73549">
        <ele>257</ele>
        <time>2019-09-13T14:50:53Z</time>
      </trkpt>
      <trkpt lat="45.95216" lon="4.73518">
        <ele>257</ele>
        <time>2019-09-13T14:50:58Z</time>
      </trkpt>
      <trkpt lat="45.95187" lon="4.73471">
        <ele>257</ele>
        <time>2019-09-13T14:51:05Z</time>
      </trkpt>
      <trkpt lat="45.95151" lon="4.73414">
        <ele>257</ele>
        <time>2019-09-13T14:51:14Z</time>
      </trkpt>
      <trkpt lat="45.95125" lon="4.7338">
        <ele>256.79998779297</ele>
        <time>2019-09-13T14:51:20Z</time>
      </trkpt>
      <trkpt lat="45.95092" lon="4.73342">
        <ele>257</ele>
        <time>2019-09-13T14:51:27Z</time>
      </trkpt>
      <trkpt lat="45.95061" lon="4.73308">
        <ele>257</ele>
        <time>2019-09-13T14:51:34Z</time>
      </trkpt>
      <trkpt lat="45.95026" lon="4.73268">
        <ele>257.39999389648</ele>
        <time>2019-09-13T14:51:42Z</time>
      </trkpt>
      <trkpt lat="45.94982" lon="4.73225">
        <ele>257.39999389648</ele>
        <time>2019-09-13T14:51:51Z</time>
      </trkpt>
      <trkpt lat="45.94967" lon="4.73217">
        <ele>257.39999389648</ele>
        <time>2019-09-13T14:51:54Z</time>
      </trkpt>
      <trkpt lat="45.94963" lon="4.73212">
        <ele>257.39999389648</ele>
        <time>2019-09-13T14:51:55Z</time>
      </trkpt>
      <trkpt lat="45.94952" lon="4.73198">
        <ele>257.39999389648</ele>
        <time>2019-09-13T14:51:58Z</time>
      </trkpt>
      <trkpt lat="45.94944" lon="4.73191">
        <ele>257.39999389648</ele>
        <time>2019-09-13T14:52:00Z</time>
      </trkpt>
      <trkpt lat="45.94915" lon="4.7317">
        <ele>257.60000610352</ele>
        <time>2019-09-13T14:52:06Z</time>
      </trkpt>
      <trkpt lat="45.94888" lon="4.7315">
        <ele>257.60000610352</ele>
        <time>2019-09-13T14:52:12Z</time>
      </trkpt>
      <trkpt lat="45.94855" lon="4.73126">
        <ele>257.39999389648</ele>
        <time>2019-09-13T14:52:19Z</time>
      </trkpt>
      <trkpt lat="45.94826" lon="4.73104">
        <ele>257.39999389648</ele>
        <time>2019-09-13T14:52:26Z</time>
      </trkpt>
      <trkpt lat="45.94795" lon="4.73087">
        <ele>257.39999389648</ele>
        <time>2019-09-13T14:52:32Z</time>
      </trkpt>
      <trkpt lat="45.9479" lon="4.73085">
        <ele>257.39999389648</ele>
        <time>2019-09-13T14:52:33Z</time>
      </trkpt>
      <trkpt lat="45.94749" lon="4.73065">
        <ele>257.60000610352</ele>
        <time>2019-09-13T14:52:40Z</time>
      </trkpt>
      <trkpt lat="45.94708" lon="4.73046">
        <ele>257.60000610352</ele>
        <time>2019-09-13T14:52:47Z</time>
      </trkpt>
      <trkpt lat="45.94666" lon="4.73032">
        <ele>257.39999389648</ele>
        <time>2019-09-13T14:52:54Z</time>
      </trkpt>
      <trkpt lat="45.94661" lon="4.73031">
        <ele>257.39999389648</ele>
        <time>2019-09-13T14:52:55Z</time>
      </trkpt>
      <trkpt lat="45.94641" lon="4.73026">
        <ele>257.39999389648</ele>
        <time>2019-09-13T14:52:59Z</time>
      </trkpt>
      <trkpt lat="45.9463" lon="4.73025">
        <ele>257.39999389648</ele>
        <time>2019-09-13T14:53:01Z</time>
      </trkpt>
      <trkpt lat="45.9461" lon="4.73023">
        <ele>257.60000610352</ele>
        <time>2019-09-13T14:53:05Z</time>
      </trkpt>
      <trkpt lat="45.94589" lon="4.7302">
        <ele>257.60000610352</ele>
        <time>2019-09-13T14:53:10Z</time>
      </trkpt>
      <trkpt lat="45.94573" lon="4.73014">
        <ele>257.60000610352</ele>
        <time>2019-09-13T14:53:14Z</time>
      </trkpt>
      <trkpt lat="45.94561" lon="4.7302">
        <ele>257.39999389648</ele>
        <time>2019-09-13T14:53:17Z</time>
      </trkpt>
      <trkpt lat="45.94552" lon="4.73032">
        <ele>257.39999389648</ele>
        <time>2019-09-13T14:53:21Z</time>
      </trkpt>
      <trkpt lat="45.94552" lon="4.73044">
        <ele>257.39999389648</ele>
        <time>2019-09-13T14:53:25Z</time>
      </trkpt>
      <trkpt lat="45.94554" lon="4.73065">
        <ele>257.39999389648</ele>
        <time>2019-09-13T14:53:29Z</time>
      </trkpt>
      <trkpt lat="45.94554" lon="4.73071">
        <ele>257.39999389648</ele>
        <time>2019-09-13T14:53:30Z</time>
      </trkpt>
      <trkpt lat="45.94554" lon="4.73101">
        <ele>257.60000610352</ele>
        <time>2019-09-13T14:53:35Z</time>
      </trkpt>
      <trkpt lat="45.94552" lon="4.73103">
        <ele>257.60000610352</ele>
        <time>2019-09-13T14:53:36Z</time>
      </trkpt>
      <trkpt lat="45.94546" lon="4.73102">
        <ele>257.79998779297</ele>
        <time>2019-09-13T14:53:38Z</time>
      </trkpt>
      <trkpt lat="45.94533" lon="4.731">
        <ele>258</ele>
        <time>2019-09-13T14:53:41Z</time>
      </trkpt>
      <trkpt lat="45.94524" lon="4.73098">
        <ele>258.20001220703</ele>
        <time>2019-09-13T14:53:43Z</time>
      </trkpt>
      <trkpt lat="45.9452" lon="4.73096">
        <ele>258.39999389648</ele>
        <time>2019-09-13T14:53:44Z</time>
      </trkpt>
      <trkpt lat="45.94507" lon="4.73091">
        <ele>258.79998779297</ele>
        <time>2019-09-13T14:53:48Z</time>
      </trkpt>
      <trkpt lat="45.94476" lon="4.73079">
        <ele>259</ele>
        <time>2019-09-13T14:53:56Z</time>
      </trkpt>
      <trkpt lat="45.94467" lon="4.73077">
        <ele>259.60000610352</ele>
        <time>2019-09-13T14:54:00Z</time>
      </trkpt>
      <trkpt lat="45.94467" lon="4.73077">
        <ele>259.79998779297</ele>
        <time>2019-09-13T14:54:01Z</time>
      </trkpt>
      <trkpt lat="45.94465" lon="4.73074">
        <ele>261</ele>
        <time>2019-09-13T14:54:06Z</time>
      </trkpt>
      <trkpt lat="45.94464" lon="4.7307">
        <ele>261.20001220703</ele>
        <time>2019-09-13T14:54:07Z</time>
      </trkpt>
      <trkpt lat="45.9446" lon="4.7304">
        <ele>261.39999389648</ele>
        <time>2019-09-13T14:54:12Z</time>
      </trkpt>
      <trkpt lat="45.94452" lon="4.72983">
        <ele>262.20001220703</ele>
        <time>2019-09-13T14:54:21Z</time>
      </trkpt>
      <trkpt lat="45.94448" lon="4.72948">
        <ele>263.39999389648</ele>
        <time>2019-09-13T14:54:27Z</time>
      </trkpt>
      <trkpt lat="45.94444" lon="4.72924">
        <ele>264.39999389648</ele>
        <time>2019-09-13T14:54:31Z</time>
      </trkpt>
      <trkpt lat="45.94439" lon="4.72886">
        <ele>265.39999389648</ele>
        <time>2019-09-13T14:54:37Z</time>
      </trkpt>
      <trkpt lat="45.94437" lon="4.72872">
        <ele>265.60000610352</ele>
        <time>2019-09-13T14:54:39Z</time>
      </trkpt>
      <trkpt lat="45.9443" lon="4.72822">
        <ele>265.60000610352</ele>
        <time>2019-09-13T14:54:45Z</time>
      </trkpt>
      <trkpt lat="45.9442" lon="4.72748">
        <ele>264.79998779297</ele>
        <time>2019-09-13T14:54:52Z</time>
      </trkpt>
      <trkpt lat="45.94418" lon="4.72726">
        <ele>264.20001220703</ele>
        <time>2019-09-13T14:54:54Z</time>
      </trkpt>
      <trkpt lat="45.94411" lon="4.72683">
        <ele>263.20001220703</ele>
        <time>2019-09-13T14:54:58Z</time>
      </trkpt>
      <trkpt lat="45.94409" lon="4.72662">
        <ele>262.39999389648</ele>
        <time>2019-09-13T14:55:00Z</time>
      </trkpt>
      <trkpt lat="45.94406" lon="4.72641">
        <ele>262</ele>
        <time>2019-09-13T14:55:02Z</time>
      </trkpt>
      <trkpt lat="45.944" lon="4.72592">
        <ele>261.39999389648</ele>
        <time>2019-09-13T14:55:07Z</time>
      </trkpt>
      <trkpt lat="45.94395" lon="4.72565">
        <ele>261</ele>
        <time>2019-09-13T14:55:10Z</time>
      </trkpt>
      <trkpt lat="45.94388" lon="4.72532">
        <ele>260.79998779297</ele>
        <time>2019-09-13T14:55:14Z</time>
      </trkpt>
      <trkpt lat="45.9437" lon="4.72476">
        <ele>260.60000610352</ele>
        <time>2019-09-13T14:55:21Z</time>
      </trkpt>
      <trkpt lat="45.9435" lon="4.72431">
        <ele>260.60000610352</ele>
        <time>2019-09-13T14:55:27Z</time>
      </trkpt>
      <trkpt lat="45.94347" lon="4.72424">
        <ele>260.60000610352</ele>
        <time>2019-09-13T14:55:28Z</time>
      </trkpt>
      <trkpt lat="45.9433" lon="4.72389">
        <ele>260.60000610352</ele>
        <time>2019-09-13T14:55:33Z</time>
      </trkpt>
      <trkpt lat="45.94303" lon="4.72333">
        <ele>260.60000610352</ele>
        <time>2019-09-13T14:55:41Z</time>
      </trkpt>
      <trkpt lat="45.94299" lon="4.72326">
        <ele>260.39999389648</ele>
        <time>2019-09-13T14:55:42Z</time>
      </trkpt>
      <trkpt lat="45.94285" lon="4.72295">
        <ele>260.39999389648</ele>
        <time>2019-09-13T14:55:46Z</time>
      </trkpt>
      <trkpt lat="45.94277" lon="4.7228">
        <ele>260.20001220703</ele>
        <time>2019-09-13T14:55:48Z</time>
      </trkpt>
      <trkpt lat="45.94267" lon="4.72273">
        <ele>260.20001220703</ele>
        <time>2019-09-13T14:55:50Z</time>
      </trkpt>
      <trkpt lat="45.94249" lon="4.72277">
        <ele>260.20001220703</ele>
        <time>2019-09-13T14:55:53Z</time>
      </trkpt>
      <trkpt lat="45.94243" lon="4.7228">
        <ele>260.20001220703</ele>
        <time>2019-09-13T14:55:54Z</time>
      </trkpt>
      <trkpt lat="45.94199" lon="4.72289">
        <ele>260.20001220703</ele>
        <time>2019-09-13T14:56:01Z</time>
      </trkpt>
      <trkpt lat="45.94154" lon="4.72285">
        <ele>260</ele>
        <time>2019-09-13T14:56:08Z</time>
      </trkpt>
      <trkpt lat="45.94118" lon="4.72268">
        <ele>260</ele>
        <time>2019-09-13T14:56:14Z</time>
      </trkpt>
      <trkpt lat="45.94107" lon="4.72264">
        <ele>260</ele>
        <time>2019-09-13T14:56:16Z</time>
      </trkpt>
      <trkpt lat="45.94089" lon="4.72263">
        <ele>260</ele>
        <time>2019-09-13T14:56:19Z</time>
      </trkpt>
      <trkpt lat="45.94066" lon="4.72276">
        <ele>260</ele>
        <time>2019-09-13T14:56:23Z</time>
      </trkpt>
      <trkpt lat="45.9406" lon="4.72281">
        <ele>260</ele>
        <time>2019-09-13T14:56:24Z</time>
      </trkpt>
      <trkpt lat="45.94055" lon="4.72287">
        <ele>260</ele>
        <time>2019-09-13T14:56:25Z</time>
      </trkpt>
      <trkpt lat="45.94037" lon="4.72311">
        <ele>259.79998779297</ele>
        <time>2019-09-13T14:56:29Z</time>
      </trkpt>
      <trkpt lat="45.93999" lon="4.72361">
        <ele>258.79998779297</ele>
        <time>2019-09-13T14:56:37Z</time>
      </trkpt>
      <trkpt lat="45.93955" lon="4.72414">
        <ele>258.39999389648</ele>
        <time>2019-09-13T14:56:46Z</time>
      </trkpt>
      <trkpt lat="45.93927" lon="4.72447">
        <ele>258.39999389648</ele>
        <time>2019-09-13T14:56:52Z</time>
      </trkpt>
      <trkpt lat="45.9389" lon="4.72495">
        <ele>259.39999389648</ele>
        <time>2019-09-13T14:57:01Z</time>
      </trkpt>
      <trkpt lat="45.93873" lon="4.72514">
        <ele>259.60000610352</ele>
        <time>2019-09-13T14:57:05Z</time>
      </trkpt>
      <trkpt lat="45.93868" lon="4.72517">
        <ele>259.60000610352</ele>
        <time>2019-09-13T14:57:06Z</time>
      </trkpt>
      <trkpt lat="45.93852" lon="4.72511">
        <ele>259.60000610352</ele>
        <time>2019-09-13T14:57:09Z</time>
      </trkpt>
      <trkpt lat="45.93823" lon="4.72486">
        <ele>259.79998779297</ele>
        <time>2019-09-13T14:57:15Z</time>
      </trkpt>
      <trkpt lat="45.93819" lon="4.72479">
        <ele>259.79998779297</ele>
        <time>2019-09-13T14:57:16Z</time>
      </trkpt>
      <trkpt lat="45.93806" lon="4.72464">
        <ele>259.79998779297</ele>
        <time>2019-09-13T14:57:19Z</time>
      </trkpt>
      <trkpt lat="45.93797" lon="4.72455">
        <ele>259.79998779297</ele>
        <time>2019-09-13T14:57:21Z</time>
      </trkpt>
      <trkpt lat="45.93771" lon="4.72427">
        <ele>260</ele>
        <time>2019-09-13T14:57:27Z</time>
      </trkpt>
      <trkpt lat="45.93767" lon="4.72422">
        <ele>260.20001220703</ele>
        <time>2019-09-13T14:57:28Z</time>
      </trkpt>
      <trkpt lat="45.93748" lon="4.72402">
        <ele>260.39999389648</ele>
        <time>2019-09-13T14:57:32Z</time>
      </trkpt>
      <trkpt lat="45.93706" lon="4.72362">
        <ele>260.79998779297</ele>
        <time>2019-09-13T14:57:40Z</time>
      </trkpt>
      <trkpt lat="45.93687" lon="4.72346">
        <ele>260.79998779297</ele>
        <time>2019-09-13T14:57:44Z</time>
      </trkpt>
      <trkpt lat="45.93683" lon="4.72341">
        <ele>260.79998779297</ele>
        <time>2019-09-13T14:57:45Z</time>
      </trkpt>
      <trkpt lat="45.9366" lon="4.72317">
        <ele>260.79998779297</ele>
        <time>2019-09-13T14:57:50Z</time>
      </trkpt>
      <trkpt lat="45.93622" lon="4.72282">
        <ele>260.79998779297</ele>
        <time>2019-09-13T14:57:58Z</time>
      </trkpt>
      <trkpt lat="45.93594" lon="4.72257">
        <ele>260.79998779297</ele>
        <time>2019-09-13T14:58:05Z</time>
      </trkpt>
      <trkpt lat="45.93586" lon="4.72249">
        <ele>260.79998779297</ele>
        <time>2019-09-13T14:58:07Z</time>
      </trkpt>
      <trkpt lat="45.93583" lon="4.72235">
        <ele>260.79998779297</ele>
        <time>2019-09-13T14:58:09Z</time>
      </trkpt>
      <trkpt lat="45.93582" lon="4.72222">
        <ele>260.79998779297</ele>
        <time>2019-09-13T14:58:12Z</time>
      </trkpt>
      <trkpt lat="45.93581" lon="4.72218">
        <ele>260.79998779297</ele>
        <time>2019-09-13T14:58:15Z</time>
      </trkpt>
      <trkpt lat="45.9358" lon="4.72213">
        <ele>260.79998779297</ele>
        <time>2019-09-13T14:58:35Z</time>
      </trkpt>
      <trkpt lat="45.9358" lon="4.7221">
        <ele>260.79998779297</ele>
        <time>2019-09-13T14:58:37Z</time>
      </trkpt>
      <trkpt lat="45.9358" lon="4.72208">
        <ele>260.79998779297</ele>
        <time>2019-09-13T14:58:40Z</time>
      </trkpt>
      <trkpt lat="45.93581" lon="4.72204">
        <ele>260.79998779297</ele>
        <time>2019-09-13T14:58:48Z</time>
      </trkpt>
      <trkpt lat="45.93581" lon="4.722">
        <ele>260.79998779297</ele>
        <time>2019-09-13T14:58:49Z</time>
      </trkpt>
      <trkpt lat="45.93581" lon="4.72196">
        <ele>260.79998779297</ele>
        <time>2019-09-13T14:58:50Z</time>
      </trkpt>
      <trkpt lat="45.93579" lon="4.72192">
        <ele>260.60000610352</ele>
        <time>2019-09-13T14:58:52Z</time>
      </trkpt>
      <trkpt lat="45.93575" lon="4.72191">
        <ele>260.60000610352</ele>
        <time>2019-09-13T14:58:57Z</time>
      </trkpt>
      <trkpt lat="45.93564" lon="4.72194">
        <ele>260.60000610352</ele>
        <time>2019-09-13T14:59:01Z</time>
      </trkpt>
      <trkpt lat="45.93556" lon="4.72207">
        <ele>260.60000610352</ele>
        <time>2019-09-13T14:59:06Z</time>
      </trkpt>
      <trkpt lat="45.93556" lon="4.72205">
        <ele>260.60000610352</ele>
        <time>2019-09-13T14:59:11Z</time>
      </trkpt>
      <trkpt lat="45.93556" lon="4.72204">
        <ele>260.79998779297</ele>
        <time>2019-09-13T14:59:13Z</time>
      </trkpt>
      <trkpt lat="45.93551" lon="4.72208">
        <ele>261.79998779297</ele>
        <time>2019-09-13T15:08:54Z</time>
      </trkpt>
      <trkpt lat="45.9355" lon="4.72209">
        <ele>261.79998779297</ele>
        <time>2019-09-13T15:08:56Z</time>
      </trkpt>
      <trkpt lat="45.93548" lon="4.72209">
        <ele>261.79998779297</ele>
        <time>2019-09-13T15:09:02Z</time>
      </trkpt>
      <trkpt lat="45.93545" lon="4.7221">
        <ele>261.79998779297</ele>
        <time>2019-09-13T15:09:06Z</time>
      </trkpt>
      <trkpt lat="45.93544" lon="4.72209">
        <ele>261.79998779297</ele>
        <time>2019-09-13T15:09:07Z</time>
      </trkpt>
      <trkpt lat="45.93533" lon="4.7221">
        <ele>261.60000610352</ele>
        <time>2019-09-13T15:09:11Z</time>
      </trkpt>
      <trkpt lat="45.93519" lon="4.72205">
        <ele>261.60000610352</ele>
        <time>2019-09-13T15:09:15Z</time>
      </trkpt>
      <trkpt lat="45.93511" lon="4.72202">
        <ele>261.60000610352</ele>
        <time>2019-09-13T15:09:17Z</time>
      </trkpt>
      <trkpt lat="45.93487" lon="4.72191">
        <ele>261.20001220703</ele>
        <time>2019-09-13T15:09:23Z</time>
      </trkpt>
      <trkpt lat="45.93468" lon="4.72185">
        <ele>261.20001220703</ele>
        <time>2019-09-13T15:09:27Z</time>
      </trkpt>
      <trkpt lat="45.93462" lon="4.72184">
        <ele>261</ele>
        <time>2019-09-13T15:09:28Z</time>
      </trkpt>
      <trkpt lat="45.9345" lon="4.72181">
        <ele>260.79998779297</ele>
        <time>2019-09-13T15:09:30Z</time>
      </trkpt>
      <trkpt lat="45.93439" lon="4.72183">
        <ele>260.60000610352</ele>
        <time>2019-09-13T15:09:32Z</time>
      </trkpt>
      <trkpt lat="45.93429" lon="4.72188">
        <ele>260.39999389648</ele>
        <time>2019-09-13T15:09:34Z</time>
      </trkpt>
      <trkpt lat="45.93413" lon="4.72195">
        <ele>260.39999389648</ele>
        <time>2019-09-13T15:09:37Z</time>
      </trkpt>
      <trkpt lat="45.93387" lon="4.72204">
        <ele>260.20001220703</ele>
        <time>2019-09-13T15:09:42Z</time>
      </trkpt>
      <trkpt lat="45.93371" lon="4.72207">
        <ele>260</ele>
        <time>2019-09-13T15:09:45Z</time>
      </trkpt>
      <trkpt lat="45.93352" lon="4.72213">
        <ele>260</ele>
        <time>2019-09-13T15:09:49Z</time>
      </trkpt>
      <trkpt lat="45.93321" lon="4.72218">
        <ele>260</ele>
        <time>2019-09-13T15:09:55Z</time>
      </trkpt>
      <trkpt lat="45.93292" lon="4.72222">
        <ele>260.20001220703</ele>
        <time>2019-09-13T15:10:00Z</time>
      </trkpt>
      <trkpt lat="45.93287" lon="4.72221">
        <ele>260.20001220703</ele>
        <time>2019-09-13T15:10:01Z</time>
      </trkpt>
      <trkpt lat="45.93246" lon="4.72216">
        <ele>260.39999389648</ele>
        <time>2019-09-13T15:10:07Z</time>
      </trkpt>
      <trkpt lat="45.932" lon="4.72221">
        <ele>260.79998779297</ele>
        <time>2019-09-13T15:10:14Z</time>
      </trkpt>
      <trkpt lat="45.93156" lon="4.72227">
        <ele>260.79998779297</ele>
        <time>2019-09-13T15:10:21Z</time>
      </trkpt>
      <trkpt lat="45.93113" lon="4.72234">
        <ele>260.79998779297</ele>
        <time>2019-09-13T15:10:28Z</time>
      </trkpt>
      <trkpt lat="45.93065" lon="4.72242">
        <ele>261.20001220703</ele>
        <time>2019-09-13T15:10:36Z</time>
      </trkpt>
      <trkpt lat="45.9301" lon="4.72249">
        <ele>261.39999389648</ele>
        <time>2019-09-13T15:10:45Z</time>
      </trkpt>
      <trkpt lat="45.93005" lon="4.72251">
        <ele>261.39999389648</ele>
        <time>2019-09-13T15:10:46Z</time>
      </trkpt>
      <trkpt lat="45.92963" lon="4.72257">
        <ele>261.39999389648</ele>
        <time>2019-09-13T15:10:53Z</time>
      </trkpt>
      <trkpt lat="45.92904" lon="4.72266">
        <ele>261.39999389648</ele>
        <time>2019-09-13T15:11:03Z</time>
      </trkpt>
      <trkpt lat="45.92851" lon="4.72275">
        <ele>261.20001220703</ele>
        <time>2019-09-13T15:11:12Z</time>
      </trkpt>
      <trkpt lat="45.92813" lon="4.72282">
        <ele>261.20001220703</ele>
        <time>2019-09-13T15:11:19Z</time>
      </trkpt>
      <trkpt lat="45.92776" lon="4.72289">
        <ele>261.20001220703</ele>
        <time>2019-09-13T15:11:26Z</time>
      </trkpt>
      <trkpt lat="45.92747" lon="4.72294">
        <ele>261.20001220703</ele>
        <time>2019-09-13T15:11:32Z</time>
      </trkpt>
      <trkpt lat="45.92708" lon="4.72299">
        <ele>261.60000610352</ele>
        <time>2019-09-13T15:11:39Z</time>
      </trkpt>
      <trkpt lat="45.92653" lon="4.72308">
        <ele>261.60000610352</ele>
        <time>2019-09-13T15:11:48Z</time>
      </trkpt>
      <trkpt lat="45.92598" lon="4.72317">
        <ele>261.60000610352</ele>
        <time>2019-09-13T15:11:57Z</time>
      </trkpt>
      <trkpt lat="45.92543" lon="4.72326">
        <ele>261.60000610352</ele>
        <time>2019-09-13T15:12:06Z</time>
      </trkpt>
      <trkpt lat="45.92531" lon="4.72328">
        <ele>261.60000610352</ele>
        <time>2019-09-13T15:12:08Z</time>
      </trkpt>
      <trkpt lat="45.92476" lon="4.72338">
        <ele>261.79998779297</ele>
        <time>2019-09-13T15:12:17Z</time>
      </trkpt>
      <trkpt lat="45.92423" lon="4.72347">
        <ele>261.79998779297</ele>
        <time>2019-09-13T15:12:26Z</time>
      </trkpt>
      <trkpt lat="45.92372" lon="4.72355">
        <ele>262</ele>
        <time>2019-09-13T15:12:35Z</time>
      </trkpt>
      <trkpt lat="45.92331" lon="4.72361">
        <ele>262</ele>
        <time>2019-09-13T15:12:43Z</time>
      </trkpt>
      <trkpt lat="45.92306" lon="4.72366">
        <ele>262</ele>
        <time>2019-09-13T15:12:48Z</time>
      </trkpt>
      <trkpt lat="45.92295" lon="4.72367">
        <ele>262.20001220703</ele>
        <time>2019-09-13T15:12:50Z</time>
      </trkpt>
      <trkpt lat="45.9229" lon="4.72368">
        <ele>262.20001220703</ele>
        <time>2019-09-13T15:12:51Z</time>
      </trkpt>
      <trkpt lat="45.92255" lon="4.72374">
        <ele>262.20001220703</ele>
        <time>2019-09-13T15:12:57Z</time>
      </trkpt>
      <trkpt lat="45.92228" lon="4.72379">
        <ele>262.39999389648</ele>
        <time>2019-09-13T15:13:02Z</time>
      </trkpt>
      <trkpt lat="45.92188" lon="4.72386">
        <ele>262.39999389648</ele>
        <time>2019-09-13T15:13:09Z</time>
      </trkpt>
      <trkpt lat="45.92135" lon="4.72394">
        <ele>262.60000610352</ele>
        <time>2019-09-13T15:13:18Z</time>
      </trkpt>
      <trkpt lat="45.92082" lon="4.72401">
        <ele>262.60000610352</ele>
        <time>2019-09-13T15:13:27Z</time>
      </trkpt>
      <trkpt lat="45.92042" lon="4.72408">
        <ele>262.60000610352</ele>
        <time>2019-09-13T15:13:34Z</time>
      </trkpt>
      <trkpt lat="45.91997" lon="4.72417">
        <ele>262.60000610352</ele>
        <time>2019-09-13T15:13:42Z</time>
      </trkpt>
      <trkpt lat="45.91963" lon="4.72423">
        <ele>263</ele>
        <time>2019-09-13T15:13:48Z</time>
      </trkpt>
      <trkpt lat="45.91909" lon="4.72431">
        <ele>263.20001220703</ele>
        <time>2019-09-13T15:13:57Z</time>
      </trkpt>
      <trkpt lat="45.91864" lon="4.72438">
        <ele>263.39999389648</ele>
        <time>2019-09-13T15:14:05Z</time>
      </trkpt>
      <trkpt lat="45.91846" lon="4.72442">
        <ele>263.60000610352</ele>
        <time>2019-09-13T15:14:08Z</time>
      </trkpt>
      <trkpt lat="45.91808" lon="4.72449">
        <ele>263.79998779297</ele>
        <time>2019-09-13T15:14:15Z</time>
      </trkpt>
      <trkpt lat="45.91786" lon="4.72453">
        <ele>263.79998779297</ele>
        <time>2019-09-13T15:14:19Z</time>
      </trkpt>
      <trkpt lat="45.91776" lon="4.72454">
        <ele>263.79998779297</ele>
        <time>2019-09-13T15:14:21Z</time>
      </trkpt>
      <trkpt lat="45.91737" lon="4.72461">
        <ele>263.79998779297</ele>
        <time>2019-09-13T15:14:28Z</time>
      </trkpt>
      <trkpt lat="45.91687" lon="4.72467">
        <ele>264</ele>
        <time>2019-09-13T15:14:36Z</time>
      </trkpt>
      <trkpt lat="45.91634" lon="4.72474">
        <ele>264.20001220703</ele>
        <time>2019-09-13T15:14:45Z</time>
      </trkpt>
      <trkpt lat="45.91586" lon="4.72482">
        <ele>264.20001220703</ele>
        <time>2019-09-13T15:14:53Z</time>
      </trkpt>
      <trkpt lat="45.91564" lon="4.72486">
        <ele>264.20001220703</ele>
        <time>2019-09-13T15:14:57Z</time>
      </trkpt>
      <trkpt lat="45.91554" lon="4.72487">
        <ele>264.20001220703</ele>
        <time>2019-09-13T15:14:59Z</time>
      </trkpt>
      <trkpt lat="45.91544" lon="4.72488">
        <ele>264.20001220703</ele>
        <time>2019-09-13T15:15:01Z</time>
      </trkpt>
      <trkpt lat="45.91534" lon="4.72484">
        <ele>264.20001220703</ele>
        <time>2019-09-13T15:15:03Z</time>
      </trkpt>
      <trkpt lat="45.91529" lon="4.7247">
        <ele>264.20001220703</ele>
        <time>2019-09-13T15:15:05Z</time>
      </trkpt>
      <trkpt lat="45.91533" lon="4.72446">
        <ele>264.20001220703</ele>
        <time>2019-09-13T15:15:08Z</time>
      </trkpt>
      <trkpt lat="45.91535" lon="4.7243">
        <ele>264.20001220703</ele>
        <time>2019-09-13T15:15:10Z</time>
      </trkpt>
      <trkpt lat="45.9154" lon="4.72397">
        <ele>263.60000610352</ele>
        <time>2019-09-13T15:15:14Z</time>
      </trkpt>
      <trkpt lat="45.9154" lon="4.72389">
        <ele>263.60000610352</ele>
        <time>2019-09-13T15:15:15Z</time>
      </trkpt>
      <trkpt lat="45.91531" lon="4.72371">
        <ele>263.39999389648</ele>
        <time>2019-09-13T15:15:18Z</time>
      </trkpt>
      <trkpt lat="45.91514" lon="4.72368">
        <ele>263.39999389648</ele>
        <time>2019-09-13T15:15:21Z</time>
      </trkpt>
      <trkpt lat="45.91508" lon="4.72369">
        <ele>263.39999389648</ele>
        <time>2019-09-13T15:15:22Z</time>
      </trkpt>
      <trkpt lat="45.91467" lon="4.72377">
        <ele>263.39999389648</ele>
        <time>2019-09-13T15:15:29Z</time>
      </trkpt>
      <trkpt lat="45.91419" lon="4.72386">
        <ele>263.39999389648</ele>
        <time>2019-09-13T15:15:37Z</time>
      </trkpt>
      <trkpt lat="45.91366" lon="4.72404">
        <ele>263.60000610352</ele>
        <time>2019-09-13T15:15:46Z</time>
      </trkpt>
      <trkpt lat="45.91333" lon="4.72418">
        <ele>263.79998779297</ele>
        <time>2019-09-13T15:15:52Z</time>
      </trkpt>
      <trkpt lat="45.91328" lon="4.7242">
        <ele>263.79998779297</ele>
        <time>2019-09-13T15:15:53Z</time>
      </trkpt>
      <trkpt lat="45.91285" lon="4.72439">
        <ele>264</ele>
        <time>2019-09-13T15:16:01Z</time>
      </trkpt>
      <trkpt lat="45.9124" lon="4.72457">
        <ele>264.20001220703</ele>
        <time>2019-09-13T15:16:09Z</time>
      </trkpt>
      <trkpt lat="45.91203" lon="4.72464">
        <ele>264.20001220703</ele>
        <time>2019-09-13T15:16:15Z</time>
      </trkpt>
      <trkpt lat="45.9119" lon="4.72466">
        <ele>264.20001220703</ele>
        <time>2019-09-13T15:16:17Z</time>
      </trkpt>
      <trkpt lat="45.91178" lon="4.72463">
        <ele>264.20001220703</ele>
        <time>2019-09-13T15:16:19Z</time>
      </trkpt>
      <trkpt lat="45.91168" lon="4.72454">
        <ele>264</ele>
        <time>2019-09-13T15:16:21Z</time>
      </trkpt>
      <trkpt lat="45.91163" lon="4.72451">
        <ele>264</ele>
        <time>2019-09-13T15:16:22Z</time>
      </trkpt>
      <trkpt lat="45.91158" lon="4.72448">
        <ele>264</ele>
        <time>2019-09-13T15:16:23Z</time>
      </trkpt>
      <trkpt lat="45.91149" lon="4.72443">
        <ele>264</ele>
        <time>2019-09-13T15:16:25Z</time>
      </trkpt>
      <trkpt lat="45.91141" lon="4.72438">
        <ele>264</ele>
        <time>2019-09-13T15:16:27Z</time>
      </trkpt>
      <trkpt lat="45.91137" lon="4.72424">
        <ele>264.20001220703</ele>
        <time>2019-09-13T15:16:30Z</time>
      </trkpt>
      <trkpt lat="45.91137" lon="4.72403">
        <ele>264.39999389648</ele>
        <time>2019-09-13T15:16:33Z</time>
      </trkpt>
      <trkpt lat="45.91138" lon="4.72387">
        <ele>264.60000610352</ele>
        <time>2019-09-13T15:16:35Z</time>
      </trkpt>
      <trkpt lat="45.91139" lon="4.72338">
        <ele>265.20001220703</ele>
        <time>2019-09-13T15:16:41Z</time>
      </trkpt>
      <trkpt lat="45.91142" lon="4.72262">
        <ele>265.39999389648</ele>
        <time>2019-09-13T15:16:50Z</time>
      </trkpt>
      <trkpt lat="45.91152" lon="4.72195">
        <ele>265.39999389648</ele>
        <time>2019-09-13T15:16:58Z</time>
      </trkpt>
      <trkpt lat="45.91164" lon="4.72129">
        <ele>265.20001220703</ele>
        <time>2019-09-13T15:17:06Z</time>
      </trkpt>
      <trkpt lat="45.91177" lon="4.7207">
        <ele>264.79998779297</ele>
        <time>2019-09-13T15:17:13Z</time>
      </trkpt>
      <trkpt lat="45.91184" lon="4.72037">
        <ele>264.79998779297</ele>
        <time>2019-09-13T15:17:17Z</time>
      </trkpt>
      <trkpt lat="45.9119" lon="4.72022">
        <ele>264.79998779297</ele>
        <time>2019-09-13T15:17:19Z</time>
      </trkpt>
      <trkpt lat="45.91208" lon="4.71979">
        <ele>264.79998779297</ele>
        <time>2019-09-13T15:17:25Z</time>
      </trkpt>
      <trkpt lat="45.91239" lon="4.71908">
        <ele>264.79998779297</ele>
        <time>2019-09-13T15:17:35Z</time>
      </trkpt>
      <trkpt lat="45.91258" lon="4.71864">
        <ele>264.79998779297</ele>
        <time>2019-09-13T15:17:42Z</time>
      </trkpt>
      <trkpt lat="45.91271" lon="4.71822">
        <ele>264.79998779297</ele>
        <time>2019-09-13T15:17:48Z</time>
      </trkpt>
      <trkpt lat="45.91276" lon="4.71776">
        <ele>264.79998779297</ele>
        <time>2019-09-13T15:17:54Z</time>
      </trkpt>
      <trkpt lat="45.91281" lon="4.71747">
        <ele>264.60000610352</ele>
        <time>2019-09-13T15:17:58Z</time>
      </trkpt>
      <trkpt lat="45.91285" lon="4.71731">
        <ele>264.60000610352</ele>
        <time>2019-09-13T15:18:00Z</time>
      </trkpt>
      <trkpt lat="45.913" lon="4.71685">
        <ele>264.60000610352</ele>
        <time>2019-09-13T15:18:06Z</time>
      </trkpt>
      <trkpt lat="45.91315" lon="4.71638">
        <ele>264.39999389648</ele>
        <time>2019-09-13T15:18:12Z</time>
      </trkpt>
      <trkpt lat="45.91335" lon="4.71568">
        <ele>264.20001220703</ele>
        <time>2019-09-13T15:18:21Z</time>
      </trkpt>
      <trkpt lat="45.91347" lon="4.71525">
        <ele>264.20001220703</ele>
        <time>2019-09-13T15:18:27Z</time>
      </trkpt>
      <trkpt lat="45.91347" lon="4.71518">
        <ele>264.20001220703</ele>
        <time>2019-09-13T15:18:28Z</time>
      </trkpt>
      <trkpt lat="45.91346" lon="4.71474">
        <ele>264.60000610352</ele>
        <time>2019-09-13T15:18:34Z</time>
      </trkpt>
      <trkpt lat="45.91337" lon="4.71431">
        <ele>264.79998779297</ele>
        <time>2019-09-13T15:18:40Z</time>
      </trkpt>
      <trkpt lat="45.91337" lon="4.71423">
        <ele>264.79998779297</ele>
        <time>2019-09-13T15:18:41Z</time>
      </trkpt>
      <trkpt lat="45.91334" lon="4.71381">
        <ele>264.79998779297</ele>
        <time>2019-09-13T15:18:47Z</time>
      </trkpt>
      <trkpt lat="45.91331" lon="4.71347">
        <ele>264.79998779297</ele>
        <time>2019-09-13T15:18:52Z</time>
      </trkpt>
      <trkpt lat="45.91328" lon="4.71333">
        <ele>264.79998779297</ele>
        <time>2019-09-13T15:18:54Z</time>
      </trkpt>
      <trkpt lat="45.91317" lon="4.7131">
        <ele>265</ele>
        <time>2019-09-13T15:18:58Z</time>
      </trkpt>
      <trkpt lat="45.91314" lon="4.71305">
        <ele>265</ele>
        <time>2019-09-13T15:18:59Z</time>
      </trkpt>
      <trkpt lat="45.9129" lon="4.71278">
        <ele>265.60000610352</ele>
        <time>2019-09-13T15:19:06Z</time>
      </trkpt>
      <trkpt lat="45.91279" lon="4.71254">
        <ele>266</ele>
        <time>2019-09-13T15:19:12Z</time>
      </trkpt>
      <trkpt lat="45.91278" lon="4.7125">
        <ele>266</ele>
        <time>2019-09-13T15:19:13Z</time>
      </trkpt>
      <trkpt lat="45.9127" lon="4.71224">
        <ele>267.20001220703</ele>
        <time>2019-09-13T15:19:21Z</time>
      </trkpt>
      <trkpt lat="45.91266" lon="4.71206">
        <ele>268</ele>
        <time>2019-09-13T15:19:27Z</time>
      </trkpt>
      <trkpt lat="45.91265" lon="4.71203">
        <ele>268.20001220703</ele>
        <time>2019-09-13T15:19:28Z</time>
      </trkpt>
      <trkpt lat="45.91261" lon="4.71189">
        <ele>269.39999389648</ele>
        <time>2019-09-13T15:19:33Z</time>
      </trkpt>
      <trkpt lat="45.9126" lon="4.71183">
        <ele>269.79998779297</ele>
        <time>2019-09-13T15:19:35Z</time>
      </trkpt>
      <trkpt lat="45.91259" lon="4.71171">
        <ele>270.79998779297</ele>
        <time>2019-09-13T15:19:39Z</time>
      </trkpt>
      <trkpt lat="45.9126" lon="4.71162">
        <ele>271.39999389648</ele>
        <time>2019-09-13T15:19:42Z</time>
      </trkpt>
      <trkpt lat="45.9126" lon="4.71156">
        <ele>271.79998779297</ele>
        <time>2019-09-13T15:19:44Z</time>
      </trkpt>
      <trkpt lat="45.91262" lon="4.71142">
        <ele>272.60000610352</ele>
        <time>2019-09-13T15:19:49Z</time>
      </trkpt>
      <trkpt lat="45.91262" lon="4.71139">
        <ele>272.79998779297</ele>
        <time>2019-09-13T15:19:50Z</time>
      </trkpt>
      <trkpt lat="45.91265" lon="4.71121">
        <ele>273.79998779297</ele>
        <time>2019-09-13T15:19:56Z</time>
      </trkpt>
      <trkpt lat="45.91266" lon="4.71115">
        <ele>274</ele>
        <time>2019-09-13T15:19:58Z</time>
      </trkpt>
      <trkpt lat="45.91273" lon="4.71104">
        <ele>274.39999389648</ele>
        <time>2019-09-13T15:20:02Z</time>
      </trkpt>
      <trkpt lat="45.91285" lon="4.71087">
        <ele>275</ele>
        <time>2019-09-13T15:20:08Z</time>
      </trkpt>
      <trkpt lat="45.91287" lon="4.71085">
        <ele>275</ele>
        <time>2019-09-13T15:20:09Z</time>
      </trkpt>
      <trkpt lat="45.913" lon="4.71064">
        <ele>275.79998779297</ele>
        <time>2019-09-13T15:20:16Z</time>
      </trkpt>
      <trkpt lat="45.91306" lon="4.71046">
        <ele>276</ele>
        <time>2019-09-13T15:20:21Z</time>
      </trkpt>
      <trkpt lat="45.91307" lon="4.71042">
        <ele>276.20001220703</ele>
        <time>2019-09-13T15:20:22Z</time>
      </trkpt>
      <trkpt lat="45.91305" lon="4.71012">
        <ele>276.79998779297</ele>
        <time>2019-09-13T15:20:29Z</time>
      </trkpt>
      <trkpt lat="45.91301" lon="4.70996">
        <ele>277.20001220703</ele>
        <time>2019-09-13T15:20:33Z</time>
      </trkpt>
      <trkpt lat="45.91298" lon="4.70984">
        <ele>277.79998779297</ele>
        <time>2019-09-13T15:20:36Z</time>
      </trkpt>
      <trkpt lat="45.91292" lon="4.70965">
        <ele>278.39999389648</ele>
        <time>2019-09-13T15:20:41Z</time>
      </trkpt>
      <trkpt lat="45.91289" lon="4.70954">
        <ele>278.79998779297</ele>
        <time>2019-09-13T15:20:44Z</time>
      </trkpt>
      <trkpt lat="45.91284" lon="4.70931">
        <ele>279.60000610352</ele>
        <time>2019-09-13T15:20:50Z</time>
      </trkpt>
      <trkpt lat="45.91283" lon="4.70927">
        <ele>280</ele>
        <time>2019-09-13T15:20:51Z</time>
      </trkpt>
      <trkpt lat="45.9128" lon="4.70901">
        <ele>280.79998779297</ele>
        <time>2019-09-13T15:20:57Z</time>
      </trkpt>
      <trkpt lat="45.9128" lon="4.70891">
        <ele>281</ele>
        <time>2019-09-13T15:20:59Z</time>
      </trkpt>
      <trkpt lat="45.91279" lon="4.7085">
        <ele>281.39999389648</ele>
        <time>2019-09-13T15:21:07Z</time>
      </trkpt>
      <trkpt lat="45.91278" lon="4.70839">
        <ele>281.60000610352</ele>
        <time>2019-09-13T15:21:09Z</time>
      </trkpt>
      <trkpt lat="45.91278" lon="4.70807">
        <ele>282.20001220703</ele>
        <time>2019-09-13T15:21:15Z</time>
      </trkpt>
      <trkpt lat="45.91271" lon="4.70777">
        <ele>282.79998779297</ele>
        <time>2019-09-13T15:21:21Z</time>
      </trkpt>
      <trkpt lat="45.9127" lon="4.70772">
        <ele>282.79998779297</ele>
        <time>2019-09-13T15:21:22Z</time>
      </trkpt>
      <trkpt lat="45.91264" lon="4.70749">
        <ele>283.39999389648</ele>
        <time>2019-09-13T15:21:27Z</time>
      </trkpt>
      <trkpt lat="45.91257" lon="4.70732">
        <ele>283.79998779297</ele>
        <time>2019-09-13T15:21:31Z</time>
      </trkpt>
      <trkpt lat="45.91255" lon="4.70728">
        <ele>283.79998779297</ele>
        <time>2019-09-13T15:21:32Z</time>
      </trkpt>
      <trkpt lat="45.91241" lon="4.70693">
        <ele>284.79998779297</ele>
        <time>2019-09-13T15:21:40Z</time>
      </trkpt>
      <trkpt lat="45.91239" lon="4.70689">
        <ele>284.79998779297</ele>
        <time>2019-09-13T15:21:41Z</time>
      </trkpt>
      <trkpt lat="45.91229" lon="4.7066">
        <ele>285</ele>
        <time>2019-09-13T15:21:47Z</time>
      </trkpt>
      <trkpt lat="45.91223" lon="4.70626">
        <ele>285.60000610352</ele>
        <time>2019-09-13T15:21:54Z</time>
      </trkpt>
      <trkpt lat="45.91222" lon="4.7061">
        <ele>285.79998779297</ele>
        <time>2019-09-13T15:21:57Z</time>
      </trkpt>
      <trkpt lat="45.91221" lon="4.70595">
        <ele>286.20001220703</ele>
        <time>2019-09-13T15:22:00Z</time>
      </trkpt>
      <trkpt lat="45.91218" lon="4.70561">
        <ele>286.79998779297</ele>
        <time>2019-09-13T15:22:07Z</time>
      </trkpt>
      <trkpt lat="45.91217" lon="4.70556">
        <ele>287</ele>
        <time>2019-09-13T15:22:08Z</time>
      </trkpt>
      <trkpt lat="45.91215" lon="4.70554">
        <ele>287</ele>
        <time>2019-09-13T15:22:09Z</time>
      </trkpt>
      <trkpt lat="45.91209" lon="4.70551">
        <ele>287</ele>
        <time>2019-09-13T15:22:11Z</time>
      </trkpt>
      <trkpt lat="45.91185" lon="4.7055">
        <ele>288</ele>
        <time>2019-09-13T15:22:18Z</time>
      </trkpt>
      <trkpt lat="45.91184" lon="4.70549">
        <ele>288</ele>
        <time>2019-09-13T15:22:20Z</time>
      </trkpt>
      <trkpt lat="45.91183" lon="4.70551">
        <ele>288.60000610352</ele>
        <time>2019-09-13T15:24:16Z</time>
      </trkpt>
      <trkpt lat="45.91172" lon="4.7055">
        <ele>288.79998779297</ele>
        <time>2019-09-13T15:24:20Z</time>
      </trkpt>
      <trkpt lat="45.91149" lon="4.70547">
        <ele>288.79998779297</ele>
        <time>2019-09-13T15:24:26Z</time>
      </trkpt>
      <trkpt lat="45.9114" lon="4.70545">
        <ele>289</ele>
        <time>2019-09-13T15:24:28Z</time>
      </trkpt>
      <trkpt lat="45.91111" lon="4.70536">
        <ele>289</ele>
        <time>2019-09-13T15:24:34Z</time>
      </trkpt>
      <trkpt lat="45.91072" lon="4.7053">
        <ele>289.39999389648</ele>
        <time>2019-09-13T15:24:42Z</time>
      </trkpt>
      <trkpt lat="45.91041" lon="4.70544">
        <ele>290</ele>
        <time>2019-09-13T15:24:49Z</time>
      </trkpt>
      <trkpt lat="45.91037" lon="4.70547">
        <ele>290</ele>
        <time>2019-09-13T15:24:50Z</time>
      </trkpt>
      <trkpt lat="45.91033" lon="4.70549">
        <ele>290.20001220703</ele>
        <time>2019-09-13T15:24:51Z</time>
      </trkpt>
      <trkpt lat="45.91025" lon="4.70553">
        <ele>290.39999389648</ele>
        <time>2019-09-13T15:24:53Z</time>
      </trkpt>
      <trkpt lat="45.9102" lon="4.70553">
        <ele>290.39999389648</ele>
        <time>2019-09-13T15:24:54Z</time>
      </trkpt>
      <trkpt lat="45.91012" lon="4.70543">
        <ele>290.39999389648</ele>
        <time>2019-09-13T15:24:57Z</time>
      </trkpt>
      <trkpt lat="45.91008" lon="4.70527">
        <ele>290.60000610352</ele>
        <time>2019-09-13T15:25:00Z</time>
      </trkpt>
      <trkpt lat="45.91005" lon="4.70517">
        <ele>290.60000610352</ele>
        <time>2019-09-13T15:25:02Z</time>
      </trkpt>
      <trkpt lat="45.91002" lon="4.70512">
        <ele>290.60000610352</ele>
        <time>2019-09-13T15:25:03Z</time>
      </trkpt>
      <trkpt lat="45.90991" lon="4.70495">
        <ele>291.20001220703</ele>
        <time>2019-09-13T15:25:07Z</time>
      </trkpt>
      <trkpt lat="45.90989" lon="4.70491">
        <ele>291.20001220703</ele>
        <time>2019-09-13T15:25:08Z</time>
      </trkpt>
      <trkpt lat="45.90986" lon="4.70486">
        <ele>291.39999389648</ele>
        <time>2019-09-13T15:25:09Z</time>
      </trkpt>
      <trkpt lat="45.90974" lon="4.70471">
        <ele>291.79998779297</ele>
        <time>2019-09-13T15:25:13Z</time>
      </trkpt>
      <trkpt lat="45.90964" lon="4.70455">
        <ele>292.39999389648</ele>
        <time>2019-09-13T15:25:17Z</time>
      </trkpt>
      <trkpt lat="45.90957" lon="4.70443">
        <ele>292.79998779297</ele>
        <time>2019-09-13T15:25:20Z</time>
      </trkpt>
      <trkpt lat="45.9094" lon="4.70415">
        <ele>293.60000610352</ele>
        <time>2019-09-13T15:25:27Z</time>
      </trkpt>
      <trkpt lat="45.90935" lon="4.70412">
        <ele>293.79998779297</ele>
        <time>2019-09-13T15:25:29Z</time>
      </trkpt>
      <trkpt lat="45.90916" lon="4.70407">
        <ele>294.39999389648</ele>
        <time>2019-09-13T15:25:34Z</time>
      </trkpt>
      <trkpt lat="45.90904" lon="4.70402">
        <ele>294.60000610352</ele>
        <time>2019-09-13T15:25:37Z</time>
      </trkpt>
      <trkpt lat="45.90889" lon="4.70397">
        <ele>294.79998779297</ele>
        <time>2019-09-13T15:25:41Z</time>
      </trkpt>
      <trkpt lat="45.90864" lon="4.70388">
        <ele>295.60000610352</ele>
        <time>2019-09-13T15:25:47Z</time>
      </trkpt>
      <trkpt lat="45.9086" lon="4.70386">
        <ele>295.60000610352</ele>
        <time>2019-09-13T15:25:48Z</time>
      </trkpt>
      <trkpt lat="45.90845" lon="4.70378">
        <ele>296.20001220703</ele>
        <time>2019-09-13T15:25:53Z</time>
      </trkpt>
      <trkpt lat="45.90833" lon="4.70373">
        <ele>296.60000610352</ele>
        <time>2019-09-13T15:25:56Z</time>
      </trkpt>
      <trkpt lat="45.90811" lon="4.7036">
        <ele>297.20001220703</ele>
        <time>2019-09-13T15:26:02Z</time>
      </trkpt>
      <trkpt lat="45.908" lon="4.70355">
        <ele>297.60000610352</ele>
        <time>2019-09-13T15:26:05Z</time>
      </trkpt>
      <trkpt lat="45.90792" lon="4.7035">
        <ele>298</ele>
        <time>2019-09-13T15:26:08Z</time>
      </trkpt>
      <trkpt lat="45.90781" lon="4.70342">
        <ele>298.79998779297</ele>
        <time>2019-09-13T15:26:12Z</time>
      </trkpt>
      <trkpt lat="45.90775" lon="4.70338">
        <ele>299</ele>
        <time>2019-09-13T15:26:14Z</time>
      </trkpt>
      <trkpt lat="45.90758" lon="4.70327">
        <ele>299.60000610352</ele>
        <time>2019-09-13T15:26:20Z</time>
      </trkpt>
      <trkpt lat="45.90753" lon="4.70323">
        <ele>299.79998779297</ele>
        <time>2019-09-13T15:26:22Z</time>
      </trkpt>
      <trkpt lat="45.9074" lon="4.70313">
        <ele>300.60000610352</ele>
        <time>2019-09-13T15:26:27Z</time>
      </trkpt>
      <trkpt lat="45.90731" lon="4.70304">
        <ele>300.79998779297</ele>
        <time>2019-09-13T15:26:31Z</time>
      </trkpt>
      <trkpt lat="45.90724" lon="4.703">
        <ele>301.20001220703</ele>
        <time>2019-09-13T15:26:34Z</time>
      </trkpt>
      <trkpt lat="45.90718" lon="4.70293">
        <ele>302</ele>
        <time>2019-09-13T15:26:37Z</time>
      </trkpt>
      <trkpt lat="45.9071" lon="4.70287">
        <ele>302.39999389648</ele>
        <time>2019-09-13T15:26:40Z</time>
      </trkpt>
      <trkpt lat="45.90703" lon="4.70273">
        <ele>303</ele>
        <time>2019-09-13T15:26:44Z</time>
      </trkpt>
      <trkpt lat="45.90702" lon="4.70269">
        <ele>303.20001220703</ele>
        <time>2019-09-13T15:26:45Z</time>
      </trkpt>
      <trkpt lat="45.907" lon="4.70244">
        <ele>304.20001220703</ele>
        <time>2019-09-13T15:26:51Z</time>
      </trkpt>
      <trkpt lat="45.90701" lon="4.70219">
        <ele>304.79998779297</ele>
        <time>2019-09-13T15:26:57Z</time>
      </trkpt>
      <trkpt lat="45.90701" lon="4.70206">
        <ele>305.39999389648</ele>
        <time>2019-09-13T15:27:00Z</time>
      </trkpt>
      <trkpt lat="45.90702" lon="4.70189">
        <ele>306</ele>
        <time>2019-09-13T15:27:04Z</time>
      </trkpt>
      <trkpt lat="45.90702" lon="4.70181">
        <ele>306.39999389648</ele>
        <time>2019-09-13T15:27:06Z</time>
      </trkpt>
      <trkpt lat="45.90702" lon="4.70157">
        <ele>307.20001220703</ele>
        <time>2019-09-13T15:27:12Z</time>
      </trkpt>
      <trkpt lat="45.90704" lon="4.70153">
        <ele>307.60000610352</ele>
        <time>2019-09-13T15:27:13Z</time>
      </trkpt>
      <trkpt lat="45.90707" lon="4.70135">
        <ele>308.20001220703</ele>
        <time>2019-09-13T15:27:17Z</time>
      </trkpt>
      <trkpt lat="45.90703" lon="4.70123">
        <ele>308.79998779297</ele>
        <time>2019-09-13T15:27:20Z</time>
      </trkpt>
      <trkpt lat="45.907" lon="4.70121">
        <ele>309</ele>
        <time>2019-09-13T15:27:21Z</time>
      </trkpt>
      <trkpt lat="45.90685" lon="4.70118">
        <ele>309.20001220703</ele>
        <time>2019-09-13T15:27:25Z</time>
      </trkpt>
      <trkpt lat="45.90677" lon="4.70114">
        <ele>309.60000610352</ele>
        <time>2019-09-13T15:27:27Z</time>
      </trkpt>
      <trkpt lat="45.90658" lon="4.70102">
        <ele>309.79998779297</ele>
        <time>2019-09-13T15:27:32Z</time>
      </trkpt>
      <trkpt lat="45.9062" lon="4.7008">
        <ele>310.60000610352</ele>
        <time>2019-09-13T15:27:41Z</time>
      </trkpt>
      <trkpt lat="45.90597" lon="4.70068">
        <ele>310.79998779297</ele>
        <time>2019-09-13T15:27:46Z</time>
      </trkpt>
      <trkpt lat="45.90583" lon="4.70061">
        <ele>311</ele>
        <time>2019-09-13T15:27:49Z</time>
      </trkpt>
      <trkpt lat="45.90545" lon="4.70042">
        <ele>311.79998779297</ele>
        <time>2019-09-13T15:27:57Z</time>
      </trkpt>
      <trkpt lat="45.90525" lon="4.70036">
        <ele>312</ele>
        <time>2019-09-13T15:28:01Z</time>
      </trkpt>
      <trkpt lat="45.905" lon="4.70031">
        <ele>312.79998779297</ele>
        <time>2019-09-13T15:28:06Z</time>
      </trkpt>
      <trkpt lat="45.90469" lon="4.70027">
        <ele>313.20001220703</ele>
        <time>2019-09-13T15:28:12Z</time>
      </trkpt>
      <trkpt lat="45.90443" lon="4.70025">
        <ele>313.79998779297</ele>
        <time>2019-09-13T15:28:17Z</time>
      </trkpt>
      <trkpt lat="45.90417" lon="4.70026">
        <ele>314.20001220703</ele>
        <time>2019-09-13T15:28:22Z</time>
      </trkpt>
      <trkpt lat="45.90401" lon="4.70029">
        <ele>314.20001220703</ele>
        <time>2019-09-13T15:28:25Z</time>
      </trkpt>
      <trkpt lat="45.90344" lon="4.7004">
        <ele>314.39999389648</ele>
        <time>2019-09-13T15:28:35Z</time>
      </trkpt>
      <trkpt lat="45.90338" lon="4.70041">
        <ele>314.39999389648</ele>
        <time>2019-09-13T15:28:36Z</time>
      </trkpt>
      <trkpt lat="45.90284" lon="4.70051">
        <ele>314.20001220703</ele>
        <time>2019-09-13T15:28:45Z</time>
      </trkpt>
      <trkpt lat="45.90278" lon="4.70052">
        <ele>314.20001220703</ele>
        <time>2019-09-13T15:28:46Z</time>
      </trkpt>
      <trkpt lat="45.90224" lon="4.70062">
        <ele>314</ele>
        <time>2019-09-13T15:28:55Z</time>
      </trkpt>
      <trkpt lat="45.90185" lon="4.70069">
        <ele>313.20001220703</ele>
        <time>2019-09-13T15:29:02Z</time>
      </trkpt>
      <trkpt lat="45.9018" lon="4.7007">
        <ele>313.20001220703</ele>
        <time>2019-09-13T15:29:03Z</time>
      </trkpt>
      <trkpt lat="45.90153" lon="4.70074">
        <ele>312.79998779297</ele>
        <time>2019-09-13T15:29:09Z</time>
      </trkpt>
      <trkpt lat="45.90151" lon="4.70075">
        <ele>312.79998779297</ele>
        <time>2019-09-13T15:29:12Z</time>
      </trkpt>
      <trkpt lat="45.90148" lon="4.70075">
        <ele>312.79998779297</ele>
        <time>2019-09-13T15:29:41Z</time>
      </trkpt>
      <trkpt lat="45.90142" lon="4.70076">
        <ele>312.60000610352</ele>
        <time>2019-09-13T15:29:43Z</time>
      </trkpt>
      <trkpt lat="45.90123" lon="4.7008">
        <ele>312.60000610352</ele>
        <time>2019-09-13T15:29:47Z</time>
      </trkpt>
      <trkpt lat="45.90077" lon="4.70087">
        <ele>312.60000610352</ele>
        <time>2019-09-13T15:29:54Z</time>
      </trkpt>
      <trkpt lat="45.90049" lon="4.70089">
        <ele>312.60000610352</ele>
        <time>2019-09-13T15:29:58Z</time>
      </trkpt>
      <trkpt lat="45.90021" lon="4.70087">
        <ele>312.20001220703</ele>
        <time>2019-09-13T15:30:02Z</time>
      </trkpt>
      <trkpt lat="45.89993" lon="4.70085">
        <ele>311.60000610352</ele>
        <time>2019-09-13T15:30:06Z</time>
      </trkpt>
      <trkpt lat="45.89959" lon="4.70084">
        <ele>311</ele>
        <time>2019-09-13T15:30:11Z</time>
      </trkpt>
      <trkpt lat="45.89933" lon="4.70082">
        <ele>310.39999389648</ele>
        <time>2019-09-13T15:30:15Z</time>
      </trkpt>
      <trkpt lat="45.89913" lon="4.70081">
        <ele>310.20001220703</ele>
        <time>2019-09-13T15:30:18Z</time>
      </trkpt>
      <trkpt lat="45.89883" lon="4.70081">
        <ele>309.39999389648</ele>
        <time>2019-09-13T15:30:23Z</time>
      </trkpt>
      <trkpt lat="45.89879" lon="4.7008">
        <ele>309.20001220703</ele>
        <time>2019-09-13T15:30:24Z</time>
      </trkpt>
      <trkpt lat="45.89875" lon="4.70074">
        <ele>308.79998779297</ele>
        <time>2019-09-13T15:30:28Z</time>
      </trkpt>
      <trkpt lat="45.89875" lon="4.70074">
        <ele>308.79998779297</ele>
        <time>2019-09-13T15:30:29Z</time>
      </trkpt>
      <trkpt lat="45.89869" lon="4.70071">
        <ele>308.39999389648</ele>
        <time>2019-09-13T15:31:51Z</time>
      </trkpt>
      <trkpt lat="45.89866" lon="4.7007">
        <ele>308.39999389648</ele>
        <time>2019-09-13T15:31:54Z</time>
      </trkpt>
      <trkpt lat="45.89855" lon="4.70069">
        <ele>308.39999389648</ele>
        <time>2019-09-13T15:31:59Z</time>
      </trkpt>
      <trkpt lat="45.89841" lon="4.70065">
        <ele>308.39999389648</ele>
        <time>2019-09-13T15:32:06Z</time>
      </trkpt>
      <trkpt lat="45.89839" lon="4.70059">
        <ele>308.20001220703</ele>
        <time>2019-09-13T15:32:12Z</time>
      </trkpt>
      <trkpt lat="45.89839" lon="4.70057">
        <ele>308.20001220703</ele>
        <time>2019-09-13T15:32:13Z</time>
      </trkpt>
      <trkpt lat="45.89837" lon="4.70055">
        <ele>308</ele>
        <time>2019-09-13T15:32:14Z</time>
      </trkpt>
      <trkpt lat="45.89833" lon="4.70052">
        <ele>308</ele>
        <time>2019-09-13T15:32:16Z</time>
      </trkpt>
      <trkpt lat="45.89818" lon="4.70047">
        <ele>308.20001220703</ele>
        <time>2019-09-13T15:32:22Z</time>
      </trkpt>
      <trkpt lat="45.89816" lon="4.70045">
        <ele>308.60000610352</ele>
        <time>2019-09-13T15:32:29Z</time>
      </trkpt>
    </trkseg>
  </trk>
</gpx>